<?xml version='1.0' encoding='UTF-8'?><gpx version="1.1" creator="JPX - https://github.com/jenetics/jpx" xmlns="http://www.topografix.com/GPX/1/1"><trk><trkseg><trkpt lat="40.28872803628739" lon="8.480782881277035"><ele>3.0</ele><time>2026-03-30T07:34:08.999Z</time></trkpt><trkpt lat="40.288794757309255" lon="8.480706755293902"><ele>3.0</ele><time>2026-03-30T07:34:09.999Z</time></trkpt><trkpt lat="40.288862816708615" lon="8.480627153512131"><ele>3.0</ele><time>2026-03-30T07:34:10.999Z</time></trkpt><trkpt lat="40.28892936232992" lon="8.480544889430723"><ele>3.0</ele><time>2026-03-30T07:34:11.999Z</time></trkpt><trkpt lat="40.28899798512961" lon="8.480458185979613"><ele>3.0</ele><time>2026-03-30T07:34:12.999Z</time></trkpt><trkpt lat="40.28906359018089" lon="8.480366296960216"><ele>3.4</ele><time>2026-03-30T07:34:13.999Z</time></trkpt><trkpt lat="40.28912285883344" lon="8.480265688443977"><ele>3.8</ele><time>2026-03-30T07:34:14.999Z</time></trkpt><trkpt lat="40.289178136296975" lon="8.480159003223593"><ele>4.2</ele><time>2026-03-30T07:34:15.999Z</time></trkpt><trkpt lat="40.289225138847144" lon="8.480042580061859"><ele>4.6</ele><time>2026-03-30T07:34:16.999Z</time></trkpt><trkpt lat="40.28927287101983" lon="8.479888536441454"><ele>5.0</ele><time>2026-03-30T07:34:17.999Z</time></trkpt><trkpt lat="40.28931693408695" lon="8.479763319160753"><ele>5.0</ele><time>2026-03-30T07:34:18.999Z</time></trkpt><trkpt lat="40.28935804212568" lon="8.479655643151188"><ele>5.0</ele><time>2026-03-30T07:34:19.999Z</time></trkpt><trkpt lat="40.289387904735904" lon="8.479559749010384"><ele>5.0</ele><time>2026-03-30T07:34:20.999Z</time></trkpt><trkpt lat="40.28960085420737" lon="8.479492301021532"><ele>5.0</ele><time>2026-03-30T07:34:24.999Z</time></trkpt><trkpt lat="40.289665338664854" lon="8.47949203669734"><ele>4.75</ele><time>2026-03-30T07:34:25.999Z</time></trkpt><trkpt lat="40.28974140376746" lon="8.47946695588121"><ele>4.5</ele><time>2026-03-30T07:34:26.999Z</time></trkpt><trkpt lat="40.289891814919926" lon="8.479330409696408"><ele>4.25</ele><time>2026-03-30T07:34:28.999Z</time></trkpt><trkpt lat="40.28996752314199" lon="8.479242243569264"><ele>4.0</ele><time>2026-03-30T07:34:29.999Z</time></trkpt><trkpt lat="40.29005071585865" lon="8.479155684649001"><ele>4.0</ele><time>2026-03-30T07:34:30.999Z</time></trkpt><trkpt lat="40.29014694149824" lon="8.479071457685059"><ele>4.0</ele><time>2026-03-30T07:34:31.999Z</time></trkpt><trkpt lat="40.29024212252327" lon="8.478982215888626"><ele>4.0</ele><time>2026-03-30T07:34:32.999Z</time></trkpt><trkpt lat="40.29033872229804" lon="8.478888864656764"><ele>4.0</ele><time>2026-03-30T07:34:33.999Z</time></trkpt><trkpt lat="40.290439922702426" lon="8.47878488641933"><ele>4.0</ele><time>2026-03-30T07:34:34.999Z</time></trkpt><trkpt lat="40.29051554188505" lon="8.478685781773017"><ele>4.0</ele><time>2026-03-30T07:34:35.999Z</time></trkpt><trkpt lat="40.29058983116655" lon="8.478595723729693"><ele>4.0</ele><time>2026-03-30T07:34:36.999Z</time></trkpt><trkpt lat="40.29066294113094" lon="8.478512658670844"><ele>4.0</ele><time>2026-03-30T07:34:37.999Z</time></trkpt><trkpt lat="40.29072390227162" lon="8.478442853087039"><ele>4.0</ele><time>2026-03-30T07:34:38.999Z</time></trkpt><trkpt lat="40.29077544606249" lon="8.478377838453138"><ele>4.0</ele><time>2026-03-30T07:34:39.999Z</time></trkpt><trkpt lat="40.290829235083" lon="8.478317510649223"><ele>4.0</ele><time>2026-03-30T07:34:40.999Z</time></trkpt><trkpt lat="40.29095093288871" lon="8.478230138653759"><ele>4.0</ele><time>2026-03-30T07:34:42.999Z</time></trkpt><trkpt lat="40.291059951540234" lon="8.478187456401411"><ele>4.0</ele><time>2026-03-30T07:34:44.999Z</time></trkpt><trkpt lat="40.29114849331343" lon="8.478170712453938"><ele>4.0</ele><time>2026-03-30T07:34:46.999Z</time></trkpt><trkpt lat="40.29127598482891" lon="8.478200710439928"><ele>4.0</ele><time>2026-03-30T07:34:49.999Z</time></trkpt><trkpt lat="40.29123561209705" lon="8.478348398853978"><ele>4.0</ele><time>2026-03-30T07:34:50.999Z</time></trkpt><trkpt lat="40.2912442226748" lon="8.47844144748566"><ele>4.0</ele><time>2026-03-30T07:34:51.999Z</time></trkpt><trkpt lat="40.29127384606949" lon="8.478539401409687"><ele>4.0</ele><time>2026-03-30T07:34:52.999Z</time></trkpt><trkpt lat="40.29129780995769" lon="8.478643929483162"><ele>4.0</ele><time>2026-03-30T07:34:53.999Z</time></trkpt><trkpt lat="40.29131633387251" lon="8.478770137028365"><ele>4.0</ele><time>2026-03-30T07:34:54.999Z</time></trkpt><trkpt lat="40.29133945957109" lon="8.478888847288772"><ele>4.0</ele><time>2026-03-30T07:34:55.999Z</time></trkpt><trkpt lat="40.291377160472614" lon="8.479007026483119"><ele>4.0</ele><time>2026-03-30T07:34:56.999Z</time></trkpt><trkpt lat="40.291413582080864" lon="8.47913093330669"><ele>4.0</ele><time>2026-03-30T07:34:57.999Z</time></trkpt><trkpt lat="40.29145132232378" lon="8.47925994700233"><ele>4.0</ele><time>2026-03-30T07:34:58.999Z</time></trkpt><trkpt lat="40.29148561726995" lon="8.479394304805602"><ele>3.75</ele><time>2026-03-30T07:34:59.999Z</time></trkpt><trkpt lat="40.2915190259136" lon="8.47953230614673"><ele>3.5</ele><time>2026-03-30T07:35:00.999Z</time></trkpt><trkpt lat="40.2915534490325" lon="8.47967035208255"><ele>3.25</ele><time>2026-03-30T07:35:01.999Z</time></trkpt><trkpt lat="40.291587357672185" lon="8.479815672009384"><ele>3.0</ele><time>2026-03-30T07:35:02.999Z</time></trkpt><trkpt lat="40.29169162054456" lon="8.48026033657837"><ele>3.0</ele><time>2026-03-30T07:35:05.999Z</time></trkpt><trkpt lat="40.291725818551726" lon="8.480414979810476"><ele>3.0</ele><time>2026-03-30T07:35:06.999Z</time></trkpt><trkpt lat="40.29176404028202" lon="8.480572430136604"><ele>3.0</ele><time>2026-03-30T07:35:07.999Z</time></trkpt><trkpt lat="40.291800902765814" lon="8.480736436201179"><ele>3.0</ele><time>2026-03-30T07:35:08.999Z</time></trkpt><trkpt lat="40.291839906835236" lon="8.480902132025907"><ele>3.0</ele><time>2026-03-30T07:35:09.999Z</time></trkpt><trkpt lat="40.29187953443303" lon="8.481068444593262"><ele>3.0</ele><time>2026-03-30T07:35:10.999Z</time></trkpt><trkpt lat="40.29191849125661" lon="8.481233303611651"><ele>3.0</ele><time>2026-03-30T07:35:11.999Z</time></trkpt><trkpt lat="40.29195527638807" lon="8.481384622391923"><ele>3.0</ele><time>2026-03-30T07:35:12.999Z</time></trkpt><trkpt lat="40.29199045119231" lon="8.481530410359289"><ele>3.0</ele><time>2026-03-30T07:35:13.999Z</time></trkpt><trkpt lat="40.29202265515366" lon="8.481668136145961"><ele>3.0</ele><time>2026-03-30T07:35:14.999Z</time></trkpt><trkpt lat="40.29205481201021" lon="8.481800511298784"><ele>3.0</ele><time>2026-03-30T07:35:15.999Z</time></trkpt><trkpt lat="40.29208710748654" lon="8.481936556901593"><ele>3.0</ele><time>2026-03-30T07:35:16.999Z</time></trkpt><trkpt lat="40.29212122701424" lon="8.48207096941104"><ele>3.0</ele><time>2026-03-30T07:35:17.999Z</time></trkpt><trkpt lat="40.2921546104759" lon="8.48220227001226"><ele>3.0</ele><time>2026-03-30T07:35:18.999Z</time></trkpt><trkpt lat="40.29218773406408" lon="8.482337534129643"><ele>3.0</ele><time>2026-03-30T07:35:19.999Z</time></trkpt><trkpt lat="40.292223442519635" lon="8.48247740771434"><ele>3.0</ele><time>2026-03-30T07:35:20.999Z</time></trkpt><trkpt lat="40.29225738574176" lon="8.482619052661654"><ele>3.0</ele><time>2026-03-30T07:35:21.999Z</time></trkpt><trkpt lat="40.29229132081701" lon="8.482761985764729"><ele>3.0</ele><time>2026-03-30T07:35:22.999Z</time></trkpt><trkpt lat="40.29232567999753" lon="8.48290714010519"><ele>2.75</ele><time>2026-03-30T07:35:23.993Z</time></trkpt><trkpt lat="40.29236642109851" lon="8.483057596245443"><ele>2.5</ele><time>2026-03-30T07:35:24.993Z</time></trkpt><trkpt lat="40.29240710338402" lon="8.483212753486495"><ele>2.25</ele><time>2026-03-30T07:35:25.993Z</time></trkpt><trkpt lat="40.292447050587235" lon="8.483361181833713"><ele>2.0</ele><time>2026-03-30T07:35:26.993Z</time></trkpt><trkpt lat="40.292474781648664" lon="8.483485036341209"><ele>2.0</ele><time>2026-03-30T07:35:27.993Z</time></trkpt><trkpt lat="40.29249347651658" lon="8.483597371860572"><ele>1.9999999999999998</ele><time>2026-03-30T07:35:28.993Z</time></trkpt><trkpt lat="40.29250565894653" lon="8.483697319776896"><ele>2.0</ele><time>2026-03-30T07:35:29.993Z</time></trkpt><trkpt lat="40.29251862021434" lon="8.483788587491174"><ele>2.0</ele><time>2026-03-30T07:35:30.993Z</time></trkpt><trkpt lat="40.292553870394286" lon="8.483866230677128"><ele>1.9999999999999998</ele><time>2026-03-30T07:35:31.994Z</time></trkpt><trkpt lat="40.29260798853223" lon="8.483920079242687"><ele>2.0</ele><time>2026-03-30T07:35:32.994Z</time></trkpt><trkpt lat="40.292674631018826" lon="8.48393624383075"><ele>2.0</ele><time>2026-03-30T07:35:33.994Z</time></trkpt><trkpt lat="40.29274220748037" lon="8.483911634165906"><ele>2.0</ele><time>2026-03-30T07:35:34.994Z</time></trkpt><trkpt lat="40.29280548148" lon="8.483844411305197"><ele>2.0</ele><time>2026-03-30T07:35:35.994Z</time></trkpt><trkpt lat="40.292866800480304" lon="8.483761276390082"><ele>2.0</ele><time>2026-03-30T07:35:36.994Z</time></trkpt><trkpt lat="40.29294767707271" lon="8.483689770280659"><ele>2.0</ele><time>2026-03-30T07:35:37.994Z</time></trkpt><trkpt lat="40.293051074313794" lon="8.48364466265128"><ele>2.0</ele><time>2026-03-30T07:35:38.994Z</time></trkpt><trkpt lat="40.29317067565934" lon="8.483623790374512"><ele>1.75</ele><time>2026-03-30T07:35:39.995Z</time></trkpt><trkpt lat="40.29330224902161" lon="8.483630092305896"><ele>1.5</ele><time>2026-03-30T07:35:40.995Z</time></trkpt><trkpt lat="40.29343797231355" lon="8.483672584363275"><ele>1.25</ele><time>2026-03-30T07:35:41.995Z</time></trkpt><trkpt lat="40.29357111457135" lon="8.483753419178624"><ele>1.0</ele><time>2026-03-30T07:35:42.995Z</time></trkpt><trkpt lat="40.29370582071774" lon="8.483860437749767"><ele>1.0</ele><time>2026-03-30T07:35:43.995Z</time></trkpt><trkpt lat="40.2938462201409" lon="8.483968240961085"><ele>1.0</ele><time>2026-03-30T07:35:44.995Z</time></trkpt><trkpt lat="40.29398206920106" lon="8.484069941916248"><ele>1.0</ele><time>2026-03-30T07:35:45.995Z</time></trkpt><trkpt lat="40.294655000806095" lon="8.484550896454662"><ele>2.0</ele><time>2026-03-30T07:35:50.996Z</time></trkpt><trkpt lat="40.29608387826228" lon="8.485064546079961"><ele>3.0</ele><time>2026-03-30T07:36:00.997Z</time></trkpt><trkpt lat="40.2967552598279" lon="8.485026812387433"><ele>3.0</ele><time>2026-03-30T07:36:05.997Z</time></trkpt><trkpt lat="40.29687274686895" lon="8.485023894531816"><ele>3.0</ele><time>2026-03-30T07:36:06.997Z</time></trkpt><trkpt lat="40.29712654450391" lon="8.485075865933718"><ele>3.0</ele><time>2026-03-30T07:36:09.997Z</time></trkpt><trkpt lat="40.29716369190451" lon="8.485768694696398"><ele>3.0</ele><time>2026-03-30T07:36:14.997Z</time></trkpt><trkpt lat="40.29719376042974" lon="8.486339145194172"><ele>3.0</ele><time>2026-03-30T07:36:18.997Z</time></trkpt><trkpt lat="40.297223011827725" lon="8.486862502380372"><ele>3.0</ele><time>2026-03-30T07:36:22.997Z</time></trkpt><trkpt lat="40.297237919250826" lon="8.48771781223267"><ele>7.0</ele><time>2026-03-30T07:36:28.997Z</time></trkpt><trkpt lat="40.29725863052829" lon="8.488331652042362"><ele>5.0</ele><time>2026-03-30T07:36:32.998Z</time></trkpt><trkpt lat="40.29734269969751" lon="8.49017213873937"><ele>5.0</ele><time>2026-03-30T07:36:44.998Z</time></trkpt><trkpt lat="40.29734861382606" lon="8.490292112878272"><ele>5.0</ele><time>2026-03-30T07:36:45.998Z</time></trkpt><trkpt lat="40.29735228617294" lon="8.490397696946692"><ele>5.0</ele><time>2026-03-30T07:36:46.998Z</time></trkpt><trkpt lat="40.29735287932987" lon="8.490482462336074"><ele>5.0</ele><time>2026-03-30T07:36:47.998Z</time></trkpt><trkpt lat="40.29735863733197" lon="8.490583036076412"><ele>5.0</ele><time>2026-03-30T07:36:50.998Z</time></trkpt><trkpt lat="40.297369761567836" lon="8.490683231052515"><ele>5.0</ele><time>2026-03-30T07:36:58.998Z</time></trkpt><trkpt lat="40.297374503772026" lon="8.490811991272903"><ele>5.0</ele><time>2026-03-30T07:37:06.998Z</time></trkpt><trkpt lat="40.29750433679079" lon="8.490836806248732"><ele>5.0</ele><time>2026-03-30T07:37:11.998Z</time></trkpt><trkpt lat="40.297511359360804" lon="8.49075467918332"><ele>5.0</ele><time>2026-03-30T07:38:38.999Z</time></trkpt><trkpt lat="40.29755023047329" lon="8.490677430731829"><ele>5.0</ele><time>2026-03-30T07:38:55.999Z</time></trkpt><trkpt lat="40.29757877345539" lon="8.490601778542649"><ele>5.0</ele><time>2026-03-30T07:41:04.002Z</time></trkpt><trkpt lat="40.29755256708244" lon="8.490522913641788"><ele>5.0</ele><time>2026-03-30T07:43:21.001Z</time></trkpt><trkpt lat="40.29748994043468" lon="8.490495473933393"><ele>5.0</ele><time>2026-03-30T07:47:47Z</time></trkpt><trkpt lat="40.297452262266816" lon="8.49038428697041"><ele>5.0</ele><time>2026-03-30T07:47:49Z</time></trkpt><trkpt lat="40.297378141943305" lon="8.490370827130162"><ele>5.0</ele><time>2026-03-30T07:48:12.999Z</time></trkpt><trkpt lat="40.297348119037714" lon="8.49019675311317"><ele>5.0</ele><time>2026-03-30T07:48:33Z</time></trkpt><trkpt lat="40.29735299428175" lon="8.490107688973772"><ele>5.0</ele><time>2026-03-30T07:48:34Z</time></trkpt><trkpt lat="40.297356605668206" lon="8.490013659775721"><ele>5.0</ele><time>2026-03-30T07:48:35Z</time></trkpt><trkpt lat="40.297353971579675" lon="8.489911994053875"><ele>5.0</ele><time>2026-03-30T07:48:36Z</time></trkpt><trkpt lat="40.297348112492614" lon="8.489787615300955"><ele>5.0</ele><time>2026-03-30T07:48:37Z</time></trkpt><trkpt lat="40.29734400872918" lon="8.48967551591121"><ele>5.0</ele><time>2026-03-30T07:48:38Z</time></trkpt><trkpt lat="40.29733778456049" lon="8.489568656430432"><ele>5.0</ele><time>2026-03-30T07:48:39Z</time></trkpt><trkpt lat="40.297331498556815" lon="8.489466609359509"><ele>5.0</ele><time>2026-03-30T07:48:40Z</time></trkpt><trkpt lat="40.297326376599564" lon="8.489355552051611"><ele>5.0</ele><time>2026-03-30T07:48:41Z</time></trkpt><trkpt lat="40.29732098887404" lon="8.489238157356231"><ele>4.6</ele><time>2026-03-30T07:48:42Z</time></trkpt><trkpt lat="40.29731562604151" lon="8.489123955998297"><ele>4.2</ele><time>2026-03-30T07:48:43Z</time></trkpt><trkpt lat="40.297309910237544" lon="8.488999978492197"><ele>3.8</ele><time>2026-03-30T07:48:44Z</time></trkpt><trkpt lat="40.29730797482866" lon="8.488879925319916"><ele>3.4</ele><time>2026-03-30T07:48:45Z</time></trkpt><trkpt lat="40.297301815664746" lon="8.488768691824072"><ele>3.0</ele><time>2026-03-30T07:48:46Z</time></trkpt><trkpt lat="40.29730011927728" lon="8.488648849328685"><ele>3.666666666666667</ele><time>2026-03-30T07:48:47Z</time></trkpt><trkpt lat="40.29729724234779" lon="8.488527289099432"><ele>4.333333333333334</ele><time>2026-03-30T07:48:48Z</time></trkpt><trkpt lat="40.2972901523667" lon="8.488407472401027"><ele>5.0</ele><time>2026-03-30T07:48:49Z</time></trkpt><trkpt lat="40.297283642727486" lon="8.48831236928062"><ele>5.666666666666667</ele><time>2026-03-30T07:48:50Z</time></trkpt><trkpt lat="40.297275317885905" lon="8.48822548448188"><ele>6.333333333333334</ele><time>2026-03-30T07:48:51Z</time></trkpt><trkpt lat="40.29728685140567" lon="8.488138494171993"><ele>7.0</ele><time>2026-03-30T07:48:52Z</time></trkpt><trkpt lat="40.29728347560716" lon="8.48804631057897"><ele>7.0</ele><time>2026-03-30T07:48:53Z</time></trkpt><trkpt lat="40.2972795879445" lon="8.487940149430266"><ele>6.999999999999999</ele><time>2026-03-30T07:48:54Z</time></trkpt><trkpt lat="40.29727513316304" lon="8.487820808410179"><ele>6.999999999999999</ele><time>2026-03-30T07:48:55Z</time></trkpt><trkpt lat="40.297269991231225" lon="8.487683355828105"><ele>7.0</ele><time>2026-03-30T07:48:56Z</time></trkpt><trkpt lat="40.29726395306822" lon="8.487521945415818"><ele>7.0</ele><time>2026-03-30T07:48:57Z</time></trkpt><trkpt lat="40.29725113186175" lon="8.487359222366283"><ele>6.0</ele><time>2026-03-30T07:48:58Z</time></trkpt><trkpt lat="40.297251436589086" lon="8.487187358568105"><ele>5.0</ele><time>2026-03-30T07:48:59Z</time></trkpt><trkpt lat="40.29724532125863" lon="8.487016105398473"><ele>4.0</ele><time>2026-03-30T07:49:00Z</time></trkpt><trkpt lat="40.297225675921744" lon="8.486833451629014"><ele>3.0</ele><time>2026-03-30T07:49:01Z</time></trkpt><trkpt lat="40.29722378021503" lon="8.486646643708749"><ele>3.0</ele><time>2026-03-30T07:49:02Z</time></trkpt><trkpt lat="40.29721881113843" lon="8.48645401814582"><ele>3.0</ele><time>2026-03-30T07:49:03Z</time></trkpt><trkpt lat="40.29721462781717" lon="8.486270108383115"><ele>3.0</ele><time>2026-03-30T07:49:04Z</time></trkpt><trkpt lat="40.297212827228584" lon="8.486093107902203"><ele>3.0</ele><time>2026-03-30T07:49:05Z</time></trkpt><trkpt lat="40.29721105365786" lon="8.485939099897267"><ele>3.0</ele><time>2026-03-30T07:49:06Z</time></trkpt><trkpt lat="40.29719803330901" lon="8.485792183199695"><ele>3.0</ele><time>2026-03-30T07:49:07Z</time></trkpt><trkpt lat="40.29719127551196" lon="8.48565812156693"><ele>3.0</ele><time>2026-03-30T07:49:08Z</time></trkpt><trkpt lat="40.29718713778733" lon="8.48552199903189"><ele>3.0</ele><time>2026-03-30T07:49:09Z</time></trkpt><trkpt lat="40.29719199635799" lon="8.485390016762864"><ele>3.0</ele><time>2026-03-30T07:49:10Z</time></trkpt><trkpt lat="40.29719481662742" lon="8.485259806433715"><ele>3.0</ele><time>2026-03-30T07:49:11Z</time></trkpt><trkpt lat="40.297201102426435" lon="8.48513891416307"><ele>3.0</ele><time>2026-03-30T07:49:12Z</time></trkpt><trkpt lat="40.29721133524549" lon="8.485045019633784"><ele>3.0</ele><time>2026-03-30T07:49:13Z</time></trkpt><trkpt lat="40.29721269822209" lon="8.484958627570444"><ele>3.0</ele><time>2026-03-30T07:49:14Z</time></trkpt><trkpt lat="40.2971726955807" lon="8.484889327618797"><ele>3.0</ele><time>2026-03-30T07:49:16Z</time></trkpt><trkpt lat="40.297062130665495" lon="8.484911985144384"><ele>3.0</ele><time>2026-03-30T07:49:17Z</time></trkpt><trkpt lat="40.2969957715016" lon="8.484955131556768"><ele>3.0</ele><time>2026-03-30T07:49:18Z</time></trkpt><trkpt lat="40.29691461768622" lon="8.484974303616868"><ele>3.0</ele><time>2026-03-30T07:49:19Z</time></trkpt><trkpt lat="40.29681960552898" lon="8.484976738478244"><ele>3.0</ele><time>2026-03-30T07:49:20Z</time></trkpt><trkpt lat="40.296727473097505" lon="8.484983289700944"><ele>3.0</ele><time>2026-03-30T07:49:21Z</time></trkpt><trkpt lat="40.29662974185292" lon="8.484993851670694"><ele>3.0</ele><time>2026-03-30T07:49:22Z</time></trkpt><trkpt lat="40.296526674612664" lon="8.485002196430116"><ele>2.75</ele><time>2026-03-30T07:49:23Z</time></trkpt><trkpt lat="40.296416523072125" lon="8.485007451616834"><ele>2.5</ele><time>2026-03-30T07:49:24Z</time></trkpt><trkpt lat="40.296300523371734" lon="8.485008287282755"><ele>2.25</ele><time>2026-03-30T07:49:25Z</time></trkpt><trkpt lat="40.29618060525798" lon="8.485013313977355"><ele>2.0</ele><time>2026-03-30T07:49:26Z</time></trkpt><trkpt lat="40.296055196236715" lon="8.48501570977812"><ele>2.0</ele><time>2026-03-30T07:49:27Z</time></trkpt><trkpt lat="40.29592804080517" lon="8.48501775137184"><ele>2.0</ele><time>2026-03-30T07:49:28Z</time></trkpt><trkpt lat="40.29579985584958" lon="8.485024304455282"><ele>2.0</ele><time>2026-03-30T07:49:29Z</time></trkpt><trkpt lat="40.29567322488459" lon="8.48502899618443"><ele>2.0</ele><time>2026-03-30T07:49:30Z</time></trkpt><trkpt lat="40.295551391228344" lon="8.485024669200413"><ele>2.0</ele><time>2026-03-30T07:49:31Z</time></trkpt><trkpt lat="40.29542836853584" lon="8.485005384815784"><ele>2.0</ele><time>2026-03-30T07:49:32Z</time></trkpt><trkpt lat="40.295312034252206" lon="8.48495014457117"><ele>2.0</ele><time>2026-03-30T07:49:33Z</time></trkpt><trkpt lat="40.295204736897375" lon="8.48487213193308"><ele>2.0</ele><time>2026-03-30T07:49:34Z</time></trkpt><trkpt lat="40.295097260252945" lon="8.484793752704446"><ele>2.0</ele><time>2026-03-30T07:49:35Z</time></trkpt><trkpt lat="40.294988122859536" lon="8.484719095642992"><ele>2.0</ele><time>2026-03-30T07:49:36Z</time></trkpt><trkpt lat="40.29487833988691" lon="8.48465118980601"><ele>2.0</ele><time>2026-03-30T07:49:37Z</time></trkpt><trkpt lat="40.29476942721611" lon="8.484579573556791"><ele>2.0</ele><time>2026-03-30T07:49:38Z</time></trkpt><trkpt lat="40.29466576661135" lon="8.484501688361528"><ele>1.75</ele><time>2026-03-30T07:49:39Z</time></trkpt><trkpt lat="40.29456008282176" lon="8.484428271209657"><ele>1.5</ele><time>2026-03-30T07:49:40Z</time></trkpt><trkpt lat="40.294451651917434" lon="8.484355622820996"><ele>1.25</ele><time>2026-03-30T07:49:41Z</time></trkpt><trkpt lat="40.29434035889477" lon="8.484274906474477"><ele>1.0</ele><time>2026-03-30T07:49:42Z</time></trkpt><trkpt lat="40.294223784873004" lon="8.484191046159522"><ele>1.0</ele><time>2026-03-30T07:49:43Z</time></trkpt><trkpt lat="40.29410002523198" lon="8.484104130145834"><ele>1.0</ele><time>2026-03-30T07:49:44Z</time></trkpt><trkpt lat="40.293968677014625" lon="8.484012009655688"><ele>1.0</ele><time>2026-03-30T07:49:45Z</time></trkpt><trkpt lat="40.29383513207487" lon="8.483917374725815"><ele>1.0</ele><time>2026-03-30T07:49:46Z</time></trkpt><trkpt lat="40.293704181151355" lon="8.483811331795527"><ele>0.6666666666666666</ele><time>2026-03-30T07:49:47Z</time></trkpt><trkpt lat="40.29355820735406" lon="8.483724841556677"><ele>0.3333333333333333</ele><time>2026-03-30T07:49:48Z</time></trkpt><trkpt lat="40.29341347398839" lon="8.483633578117999"><ele>0.0</ele><time>2026-03-30T07:49:49Z</time></trkpt><trkpt lat="40.293259593226985" lon="8.483578627928182"><ele>0.0</ele><time>2026-03-30T07:49:50Z</time></trkpt><trkpt lat="40.29310872225894" lon="8.483585722871595"><ele>0.0</ele><time>2026-03-30T07:49:51Z</time></trkpt><trkpt lat="40.29296950819415" lon="8.483605010129919"><ele>0.0</ele><time>2026-03-30T07:49:52Z</time></trkpt><trkpt lat="40.2928340212735" lon="8.483599304539132"><ele>0.0</ele><time>2026-03-30T07:49:53Z</time></trkpt><trkpt lat="40.29271316280226" lon="8.48354069757012"><ele>0.5</ele><time>2026-03-30T07:49:54Z</time></trkpt><trkpt lat="40.29259509280499" lon="8.483465812066797"><ele>1.0</ele><time>2026-03-30T07:49:55Z</time></trkpt><trkpt lat="40.29250715029603" lon="8.483298036305134"><ele>1.5</ele><time>2026-03-30T07:49:56Z</time></trkpt><trkpt lat="40.292444876627286" lon="8.48313730200732"><ele>2.0</ele><time>2026-03-30T07:49:57Z</time></trkpt><trkpt lat="40.292406864484256" lon="8.482960703522895"><ele>2.0</ele><time>2026-03-30T07:49:58Z</time></trkpt><trkpt lat="40.292367308997456" lon="8.482787198503976"><ele>2.0</ele><time>2026-03-30T07:49:59Z</time></trkpt><trkpt lat="40.29231080933255" lon="8.482620119925562"><ele>2.0</ele><time>2026-03-30T07:50:00Z</time></trkpt><trkpt lat="40.29226000774979" lon="8.482465130464021"><ele>2.0</ele><time>2026-03-30T07:50:01Z</time></trkpt><trkpt lat="40.29222258726079" lon="8.482307822894603"><ele>2.0</ele><time>2026-03-30T07:50:02Z</time></trkpt><trkpt lat="40.292186779842304" lon="8.482160877574499"><ele>2.0</ele><time>2026-03-30T07:50:03Z</time></trkpt><trkpt lat="40.292149393300086" lon="8.482018510481348"><ele>2.0</ele><time>2026-03-30T07:50:04Z</time></trkpt><trkpt lat="40.292110487606124" lon="8.481880108894137"><ele>2.0</ele><time>2026-03-30T07:50:05Z</time></trkpt><trkpt lat="40.29207353353535" lon="8.481739839673361"><ele>2.2</ele><time>2026-03-30T07:50:05.998Z</time></trkpt><trkpt lat="40.292036181683855" lon="8.481600003414608"><ele>2.4000000000000004</ele><time>2026-03-30T07:50:06.998Z</time></trkpt><trkpt lat="40.29200166814852" lon="8.481463274941348"><ele>2.5999999999999996</ele><time>2026-03-30T07:50:07.998Z</time></trkpt><trkpt lat="40.291970741465825" lon="8.481343342542022"><ele>2.8</ele><time>2026-03-30T07:50:08.998Z</time></trkpt><trkpt lat="40.29194660904016" lon="8.4812495160296"><ele>3.0</ele><time>2026-03-30T07:50:09.998Z</time></trkpt><trkpt lat="40.29192884419912" lon="8.481170307292674"><ele>3.2</ele><time>2026-03-30T07:50:10.999Z</time></trkpt><trkpt lat="40.29190720587597" lon="8.481069019928597"><ele>3.4</ele><time>2026-03-30T07:50:12.999Z</time></trkpt><trkpt lat="40.29188526775952" lon="8.480970025949816"><ele>3.6000000000000005</ele><time>2026-03-30T07:50:23.999Z</time></trkpt><trkpt lat="40.29184510897662" lon="8.480817177196839"><ele>3.8000000000000003</ele><time>2026-03-30T07:50:25.999Z</time></trkpt><trkpt lat="40.29182115330113" lon="8.48070958521808"><ele>4.0</ele><time>2026-03-30T07:50:26.999Z</time></trkpt><trkpt lat="40.29179046922854" lon="8.480590062657981"><ele>4.0</ele><time>2026-03-30T07:50:27.999Z</time></trkpt><trkpt lat="40.29175824916417" lon="8.4804623706973"><ele>4.0</ele><time>2026-03-30T07:50:28.999Z</time></trkpt><trkpt lat="40.29172534321955" lon="8.480312354005193"><ele>4.0</ele><time>2026-03-30T07:50:29.999Z</time></trkpt><trkpt lat="40.291684178685585" lon="8.48015141581134"><ele>4.0</ele><time>2026-03-30T07:50:30.999Z</time></trkpt><trkpt lat="40.29165095638982" lon="8.479967976139397"><ele>3.6666666666666665</ele><time>2026-03-30T07:50:31.999Z</time></trkpt><trkpt lat="40.29160841009553" lon="8.479783952547878"><ele>3.333333333333333</ele><time>2026-03-30T07:50:32.999Z</time></trkpt><trkpt lat="40.2915638220778" lon="8.479584855760063"><ele>3.0</ele><time>2026-03-30T07:50:33.999Z</time></trkpt><trkpt lat="40.291513648422765" lon="8.479377521519611"><ele>3.0</ele><time>2026-03-30T07:50:34.999Z</time></trkpt><trkpt lat="40.291460881302434" lon="8.47916535784933"><ele>3.0</ele><time>2026-03-30T07:50:35.999Z</time></trkpt><trkpt lat="40.291409436125676" lon="8.478968014496973"><ele>3.0</ele><time>2026-03-30T07:50:36.999Z</time></trkpt><trkpt lat="40.29135984075951" lon="8.478782130075427"><ele>3.25</ele><time>2026-03-30T07:50:37.999Z</time></trkpt><trkpt lat="40.291313756491405" lon="8.478603987921653"><ele>3.5</ele><time>2026-03-30T07:50:38.999Z</time></trkpt><trkpt lat="40.29126870162624" lon="8.478436681910008"><ele>3.75</ele><time>2026-03-30T07:50:39.999Z</time></trkpt><trkpt lat="40.29122504401619" lon="8.47827924045564"><ele>4.0</ele><time>2026-03-30T07:50:40.999Z</time></trkpt><trkpt lat="40.2911916752185" lon="8.478125409196952"><ele>4.0</ele><time>2026-03-30T07:50:41.999Z</time></trkpt><trkpt lat="40.29115757224711" lon="8.477977001303636"><ele>4.0</ele><time>2026-03-30T07:50:42.999Z</time></trkpt><trkpt lat="40.29112165430502" lon="8.477833767825768"><ele>4.0</ele><time>2026-03-30T07:50:43.999Z</time></trkpt><trkpt lat="40.291087457159556" lon="8.477696672743832"><ele>4.0</ele><time>2026-03-30T07:50:44.999Z</time></trkpt><trkpt lat="40.29104195126554" lon="8.477566803722816"><ele>4.0</ele><time>2026-03-30T07:50:45.999Z</time></trkpt><trkpt lat="40.29097396248854" lon="8.477446919969147"><ele>4.0</ele><time>2026-03-30T07:50:46.999Z</time></trkpt><trkpt lat="40.2909027990777" lon="8.477331161266228"><ele>4.0</ele><time>2026-03-30T07:50:48Z</time></trkpt><trkpt lat="40.29083882255318" lon="8.47721567885366"><ele>4.0</ele><time>2026-03-30T07:50:49Z</time></trkpt><trkpt lat="40.290780963950695" lon="8.477104876294009"><ele>4.0</ele><time>2026-03-30T07:50:50Z</time></trkpt><trkpt lat="40.29073674757037" lon="8.476998420714933"><ele>4.0</ele><time>2026-03-30T07:50:51Z</time></trkpt><trkpt lat="40.290693110586304" lon="8.47690370323327"><ele>4.0</ele><time>2026-03-30T07:50:52Z</time></trkpt><trkpt lat="40.29064775243001" lon="8.476824270844041"><ele>4.0</ele><time>2026-03-30T07:50:53Z</time></trkpt><trkpt lat="40.290606243321534" lon="8.476752906873054"><ele>4.0</ele><time>2026-03-30T07:50:54Z</time></trkpt><trkpt lat="40.29053591216747" lon="8.476621045248702"><ele>4.0</ele><time>2026-03-30T07:50:56Z</time></trkpt><trkpt lat="40.29049324358446" lon="8.476498593231481"><ele>4.0</ele><time>2026-03-30T07:50:58Z</time></trkpt><trkpt lat="40.290354698770685" lon="8.476596863706797"><ele>4.0</ele><time>2026-03-30T07:50:59Z</time></trkpt><trkpt lat="40.290306849830166" lon="8.476670908849048"><ele>4.0</ele><time>2026-03-30T07:51:00Z</time></trkpt><trkpt lat="40.290280558074244" lon="8.47677101435576"><ele>4.0</ele><time>2026-03-30T07:51:01Z</time></trkpt><trkpt lat="40.29025343463138" lon="8.4768625666277"><ele>4.0</ele><time>2026-03-30T07:51:02Z</time></trkpt><trkpt lat="40.290225508254785" lon="8.47696337393578"><ele>4.0</ele><time>2026-03-30T07:51:03Z</time></trkpt><trkpt lat="40.290190254112886" lon="8.477069133238981"><ele>4.0</ele><time>2026-03-30T07:51:04Z</time></trkpt><trkpt lat="40.2901544704009" lon="8.477183466110182"><ele>4.0</ele><time>2026-03-30T07:51:05Z</time></trkpt><trkpt lat="40.29011977656135" lon="8.477300912342294"><ele>4.0</ele><time>2026-03-30T07:51:06Z</time></trkpt><trkpt lat="40.29008590184145" lon="8.477424631654204"><ele>4.0</ele><time>2026-03-30T07:51:07Z</time></trkpt><trkpt lat="40.29005139730858" lon="8.477533680961923"><ele>3.833333333333333</ele><time>2026-03-30T07:51:08Z</time></trkpt><trkpt lat="40.29002477353396" lon="8.47762261608873"><ele>3.6666666666666665</ele><time>2026-03-30T07:51:09Z</time></trkpt><trkpt lat="40.28999963991157" lon="8.477709050372754"><ele>3.5</ele><time>2026-03-30T07:51:10Z</time></trkpt><trkpt lat="40.289968903183954" lon="8.477801034862921"><ele>3.333333333333333</ele><time>2026-03-30T07:51:11Z</time></trkpt><trkpt lat="40.28993556385299" lon="8.477888028549062"><ele>3.1666666666666665</ele><time>2026-03-30T07:51:12Z</time></trkpt><trkpt lat="40.289907414599064" lon="8.477981929979844"><ele>3.0</ele><time>2026-03-30T07:51:13Z</time></trkpt><trkpt lat="40.28987079702856" lon="8.478084734399829"><ele>3.4</ele><time>2026-03-30T07:51:14Z</time></trkpt><trkpt lat="40.289838142427755" lon="8.47819128610217"><ele>3.8</ele><time>2026-03-30T07:51:15Z</time></trkpt><trkpt lat="40.28980076027321" lon="8.478300144154646"><ele>4.2</ele><time>2026-03-30T07:51:16Z</time></trkpt><trkpt lat="40.28976600668165" lon="8.478416973801968"><ele>4.6</ele><time>2026-03-30T07:51:17Z</time></trkpt><trkpt lat="40.28972329496011" lon="8.47853659949091"><ele>5.0</ele><time>2026-03-30T07:51:18Z</time></trkpt><trkpt lat="40.289673783087515" lon="8.478653229829176"><ele>4.6</ele><time>2026-03-30T07:51:19Z</time></trkpt><trkpt lat="40.28964042115941" lon="8.478782458365858"><ele>4.2</ele><time>2026-03-30T07:51:20Z</time></trkpt><trkpt lat="40.28960010921444" lon="8.478903598686978"><ele>3.8</ele><time>2026-03-30T07:51:21Z</time></trkpt><trkpt lat="40.289554890854916" lon="8.479026465458185"><ele>3.4</ele><time>2026-03-30T07:51:22Z</time></trkpt><trkpt lat="40.289505954268925" lon="8.479148391717372"><ele>3.0</ele><time>2026-03-30T07:51:23Z</time></trkpt><trkpt lat="40.28946526234999" lon="8.479277731503332"><ele>3.0</ele><time>2026-03-30T07:51:24Z</time></trkpt><trkpt lat="40.28943739198047" lon="8.47941454610569"><ele>3.0</ele><time>2026-03-30T07:51:25Z</time></trkpt><trkpt lat="40.28939402064517" lon="8.479544915714927"><ele>3.0</ele><time>2026-03-30T07:51:26Z</time></trkpt><trkpt lat="40.28934187039782" lon="8.47966736695745"><ele>3.0</ele><time>2026-03-30T07:51:27Z</time></trkpt><trkpt lat="40.28928571420068" lon="8.479775863874075"><ele>3.0</ele><time>2026-03-30T07:51:28Z</time></trkpt><trkpt lat="40.289257159527416" lon="8.479898433305548"><ele>3.4</ele><time>2026-03-30T07:51:29Z</time></trkpt><trkpt lat="40.289200048644986" lon="8.479994539333532"><ele>3.8</ele><time>2026-03-30T07:51:30Z</time></trkpt><trkpt lat="40.28916904083174" lon="8.480108648432715"><ele>4.2</ele><time>2026-03-30T07:51:31Z</time></trkpt><trkpt lat="40.28911632963266" lon="8.480204731917839"><ele>4.6</ele><time>2026-03-30T07:51:32Z</time></trkpt><trkpt lat="40.28906707164446" lon="8.480307678315137"><ele>5.0</ele><time>2026-03-30T07:51:33Z</time></trkpt><trkpt lat="40.288995043298485" lon="8.480393663383474"><ele>4.6</ele><time>2026-03-30T07:51:34Z</time></trkpt><trkpt lat="40.28892275368654" lon="8.480479314722896"><ele>4.2</ele><time>2026-03-30T07:51:35Z</time></trkpt><trkpt lat="40.28884761827831" lon="8.480572504256344"><ele>3.8</ele><time>2026-03-30T07:51:36Z</time></trkpt><trkpt lat="40.28878236739865" lon="8.480676266880751"><ele>3.4</ele><time>2026-03-30T07:51:37Z</time></trkpt><trkpt lat="40.28870228686636" lon="8.48076171751936"><ele>3.0</ele><time>2026-03-30T07:51:38Z</time></trkpt><trkpt lat="40.28862087247828" lon="8.480850958942366"><ele>3.0</ele><time>2026-03-30T07:51:39Z</time></trkpt><trkpt lat="40.28853645621636" lon="8.48093886103361"><ele>3.0</ele><time>2026-03-30T07:51:40Z</time></trkpt><trkpt lat="40.28844939406456" lon="8.481024580026872"><ele>3.0</ele><time>2026-03-30T07:51:41Z</time></trkpt><trkpt lat="40.2883629221315" lon="8.481109841720256"><ele>3.0</ele><time>2026-03-30T07:51:42Z</time></trkpt><trkpt lat="40.28827964209799" lon="8.481195591648477"><ele>3.0</ele><time>2026-03-30T07:51:43Z</time></trkpt><trkpt lat="40.28820396144772" lon="8.481279819924888"><ele>3.2</ele><time>2026-03-30T07:51:44Z</time></trkpt><trkpt lat="40.288130211276176" lon="8.481359534026726"><ele>3.4</ele><time>2026-03-30T07:51:45Z</time></trkpt><trkpt lat="40.28805776062718" lon="8.481436592470056"><ele>3.6000000000000005</ele><time>2026-03-30T07:51:46Z</time></trkpt><trkpt lat="40.28798893194138" lon="8.481514730923355"><ele>3.8000000000000003</ele><time>2026-03-30T07:51:47Z</time></trkpt><trkpt lat="40.28791980459025" lon="8.481592165789555"><ele>4.0</ele><time>2026-03-30T07:51:48Z</time></trkpt><trkpt lat="40.287848441212944" lon="8.481670792016361"><ele>3.4000000000000004</ele><time>2026-03-30T07:51:49Z</time></trkpt><trkpt lat="40.287774210589774" lon="8.48175224409563"><ele>2.8000000000000003</ele><time>2026-03-30T07:51:50Z</time></trkpt><trkpt lat="40.28769939594416" lon="8.48183338756302"><ele>2.2</ele><time>2026-03-30T07:51:51Z</time></trkpt><trkpt lat="40.28762166400756" lon="8.481916713019837"><ele>1.6</ele><time>2026-03-30T07:51:52Z</time></trkpt><trkpt lat="40.287544741708444" lon="8.481998966881768"><ele>1.0</ele><time>2026-03-30T07:51:53Z</time></trkpt><trkpt lat="40.28746562828315" lon="8.482085631400832"><ele>1.2000000000000002</ele><time>2026-03-30T07:51:54Z</time></trkpt><trkpt lat="40.28738431961177" lon="8.482172435240228"><ele>1.4000000000000001</ele><time>2026-03-30T07:51:55Z</time></trkpt><trkpt lat="40.2873001656028" lon="8.482262314500742"><ele>1.6</ele><time>2026-03-30T07:51:56Z</time></trkpt><trkpt lat="40.28721418810158" lon="8.482352586809899"><ele>1.8</ele><time>2026-03-30T07:51:57Z</time></trkpt><trkpt lat="40.287125857588826" lon="8.482442755973326"><ele>2.0</ele><time>2026-03-30T07:51:58Z</time></trkpt><trkpt lat="40.28703561897257" lon="8.482533728375534"><ele>2.0</ele><time>2026-03-30T07:51:59Z</time></trkpt><trkpt lat="40.28694444760626" lon="8.48262565140058"><ele>2.0</ele><time>2026-03-30T07:52:00Z</time></trkpt><trkpt lat="40.28685199992676" lon="8.482717819960047"><ele>2.0</ele><time>2026-03-30T07:52:01Z</time></trkpt><trkpt lat="40.28676075985675" lon="8.482809933708483"><ele>2.0</ele><time>2026-03-30T07:52:02Z</time></trkpt><trkpt lat="40.286670083344816" lon="8.48290189842232"><ele>2.25</ele><time>2026-03-30T07:52:03Z</time></trkpt><trkpt lat="40.28657989325554" lon="8.482996332318457"><ele>2.5</ele><time>2026-03-30T07:52:04Z</time></trkpt><trkpt lat="40.286489452361906" lon="8.483091992749806"><ele>2.75</ele><time>2026-03-30T07:52:05Z</time></trkpt><trkpt lat="40.28639566126583" lon="8.48318492119619"><ele>3.0</ele><time>2026-03-30T07:52:06Z</time></trkpt><trkpt lat="40.286295227286864" lon="8.483267327570982"><ele>3.0</ele><time>2026-03-30T07:52:07Z</time></trkpt><trkpt lat="40.28618840024312" lon="8.483335052586321"><ele>3.0</ele><time>2026-03-30T07:52:08Z</time></trkpt><trkpt lat="40.28608524179716" lon="8.483385502065866"><ele>3.0</ele><time>2026-03-30T07:52:09Z</time></trkpt><trkpt lat="40.286003290028134" lon="8.483416014349938"><ele>3.0</ele><time>2026-03-30T07:52:10Z</time></trkpt><trkpt lat="40.28593579033698" lon="8.48341993560191"><ele>3.0</ele><time>2026-03-30T07:52:11Z</time></trkpt><trkpt lat="40.285869732020444" lon="8.483421617982017"><ele>3.0</ele><time>2026-03-30T07:52:12.999Z</time></trkpt><trkpt lat="40.285805746083" lon="8.483434788095112"><ele>3.0</ele><time>2026-03-30T07:52:15.999Z</time></trkpt><trkpt lat="40.28573557876053" lon="8.483452061227895"><ele>3.0</ele><time>2026-03-30T07:52:18.999Z</time></trkpt><trkpt lat="40.28563004871995" lon="8.483473184239076"><ele>3.0</ele><time>2026-03-30T07:52:21.999Z</time></trkpt><trkpt lat="40.28552291722254" lon="8.483432367287824"><ele>3.0</ele><time>2026-03-30T07:52:23.999Z</time></trkpt><trkpt lat="40.285394768697515" lon="8.483404231178824"><ele>3.0</ele><time>2026-03-30T07:52:25.999Z</time></trkpt><trkpt lat="40.28532079147088" lon="8.483369251657699"><ele>3.0</ele><time>2026-03-30T07:52:26.999Z</time></trkpt><trkpt lat="40.28524935323703" lon="8.483342812439645"><ele>3.0</ele><time>2026-03-30T07:52:27.999Z</time></trkpt><trkpt lat="40.28518035150282" lon="8.483319245292792"><ele>3.0</ele><time>2026-03-30T07:52:28.999Z</time></trkpt><trkpt lat="40.28510586127198" lon="8.48329149803268"><ele>3.0</ele><time>2026-03-30T07:52:29.999Z</time></trkpt><trkpt lat="40.285029022113044" lon="8.48326192574233"><ele>3.0</ele><time>2026-03-30T07:52:30.999Z</time></trkpt><trkpt lat="40.28494839078501" lon="8.483235186266613"><ele>3.0</ele><time>2026-03-30T07:52:32Z</time></trkpt><trkpt lat="40.2848665643342" lon="8.48320322845644"><ele>3.0</ele><time>2026-03-30T07:52:33Z</time></trkpt><trkpt lat="40.28478166467572" lon="8.483188485929649"><ele>3.0</ele><time>2026-03-30T07:52:34Z</time></trkpt><trkpt lat="40.28469598826918" lon="8.483183564459534"><ele>3.0</ele><time>2026-03-30T07:52:35Z</time></trkpt><trkpt lat="40.284611676099146" lon="8.483182695603901"><ele>3.0</ele><time>2026-03-30T07:52:36Z</time></trkpt><trkpt lat="40.284523441824014" lon="8.483185887627728"><ele>3.0</ele><time>2026-03-30T07:52:37Z</time></trkpt><trkpt lat="40.2844362450917" lon="8.483187878404284"><ele>3.0</ele><time>2026-03-30T07:52:38Z</time></trkpt><trkpt lat="40.28434477073896" lon="8.483197030525144"><ele>2.8</ele><time>2026-03-30T07:52:39Z</time></trkpt><trkpt lat="40.28425345109274" lon="8.483219788971772"><ele>2.5999999999999996</ele><time>2026-03-30T07:52:40Z</time></trkpt><trkpt lat="40.28416074651944" lon="8.483249361761557"><ele>2.4000000000000004</ele><time>2026-03-30T07:52:41Z</time></trkpt><trkpt lat="40.2840680404871" lon="8.483286714106722"><ele>2.2</ele><time>2026-03-30T07:52:42Z</time></trkpt><trkpt lat="40.283974940100656" lon="8.483335051238072"><ele>2.0</ele><time>2026-03-30T07:52:43Z</time></trkpt><trkpt lat="40.28388346126845" lon="8.483392142269825"><ele>2.0</ele><time>2026-03-30T07:52:44Z</time></trkpt><trkpt lat="40.28379416355081" lon="8.483451689729351"><ele>2.0</ele><time>2026-03-30T07:52:45Z</time></trkpt><trkpt lat="40.28370719560451" lon="8.48350669960386"><ele>2.0</ele><time>2026-03-30T07:52:46Z</time></trkpt><trkpt lat="40.283622860010965" lon="8.483557098095462"><ele>2.0</ele><time>2026-03-30T07:52:47Z</time></trkpt><trkpt lat="40.28353784599324" lon="8.483607055136954"><ele>2.0</ele><time>2026-03-30T07:52:48Z</time></trkpt><trkpt lat="40.283449777083895" lon="8.483659522238257"><ele>2.0</ele><time>2026-03-30T07:52:49Z</time></trkpt><trkpt lat="40.28335801975248" lon="8.483713911491945"><ele>2.0</ele><time>2026-03-30T07:52:50Z</time></trkpt><trkpt lat="40.28325784771897" lon="8.483759736734923"><ele>2.0</ele><time>2026-03-30T07:52:51Z</time></trkpt><trkpt lat="40.28314923448665" lon="8.483800550841197"><ele>2.0</ele><time>2026-03-30T07:52:52Z</time></trkpt><trkpt lat="40.28303453314585" lon="8.4838344853118"><ele>2.0</ele><time>2026-03-30T07:52:53Z</time></trkpt><trkpt lat="40.2829174202436" lon="8.483859824046963"><ele>4.25</ele><time>2026-03-30T07:52:54Z</time></trkpt><trkpt lat="40.282793564848085" lon="8.483872568395245"><ele>6.5</ele><time>2026-03-30T07:52:55Z</time></trkpt><trkpt lat="40.282664800539514" lon="8.483874259457654"><ele>8.75</ele><time>2026-03-30T07:52:56Z</time></trkpt><trkpt lat="40.28253411476398" lon="8.483862165578984"><ele>11.0</ele><time>2026-03-30T07:52:57Z</time></trkpt><trkpt lat="40.28240374025531" lon="8.48383551692712"><ele>11.0</ele><time>2026-03-30T07:52:58Z</time></trkpt><trkpt lat="40.28227061361663" lon="8.483805237900565"><ele>11.0</ele><time>2026-03-30T07:52:59Z</time></trkpt><trkpt lat="40.28213579081135" lon="8.48377642776469"><ele>11.0</ele><time>2026-03-30T07:53:00Z</time></trkpt><trkpt lat="40.28200472023667" lon="8.483753969835837"><ele>11.0</ele><time>2026-03-30T07:53:01Z</time></trkpt><trkpt lat="40.28188172744066" lon="8.483733737311239"><ele>8.75</ele><time>2026-03-30T07:53:02Z</time></trkpt><trkpt lat="40.281759193103554" lon="8.483715014773198"><ele>6.5</ele><time>2026-03-30T07:53:03Z</time></trkpt><trkpt lat="40.281631428979935" lon="8.483703926457839"><ele>4.25</ele><time>2026-03-30T07:53:04Z</time></trkpt><trkpt lat="40.281498228392735" lon="8.48370037590177"><ele>2.0</ele><time>2026-03-30T07:53:05Z</time></trkpt><trkpt lat="40.28136431366023" lon="8.48369606343258"><ele>2.0</ele><time>2026-03-30T07:53:06Z</time></trkpt><trkpt lat="40.28123011645001" lon="8.483689523779578"><ele>2.0</ele><time>2026-03-30T07:53:07Z</time></trkpt><trkpt lat="40.28109556434588" lon="8.48367799410241"><ele>2.0</ele><time>2026-03-30T07:53:08Z</time></trkpt><trkpt lat="40.28095839965097" lon="8.483669367041198"><ele>2.0</ele><time>2026-03-30T07:53:09Z</time></trkpt><trkpt lat="40.28082156417622" lon="8.483667914359982"><ele>2.0</ele><time>2026-03-30T07:53:10Z</time></trkpt><trkpt lat="40.28068402060213" lon="8.483707699344363"><ele>2.0</ele><time>2026-03-30T07:53:11Z</time></trkpt><trkpt lat="40.28054655771554" lon="8.483755450342034"><ele>2.0</ele><time>2026-03-30T07:53:12Z</time></trkpt><trkpt lat="40.28041017531796" lon="8.483820603481844"><ele>2.0</ele><time>2026-03-30T07:53:13Z</time></trkpt><trkpt lat="40.28026795165429" lon="8.483868796878156"><ele>6.25</ele><time>2026-03-30T07:53:14Z</time></trkpt><trkpt lat="40.280117749096405" lon="8.483889259925595"><ele>10.5</ele><time>2026-03-30T07:53:15Z</time></trkpt><trkpt lat="40.27996803660135" lon="8.483875973613793"><ele>14.75</ele><time>2026-03-30T07:53:16Z</time></trkpt><trkpt lat="40.279823060047605" lon="8.483840873811783"><ele>19.0</ele><time>2026-03-30T07:53:17Z</time></trkpt><trkpt lat="40.27967877207148" lon="8.483800734451668"><ele>19.0</ele><time>2026-03-30T07:53:18Z</time></trkpt><trkpt lat="40.279533225906924" lon="8.483766841089873"><ele>19.0</ele><time>2026-03-30T07:53:19Z</time></trkpt><trkpt lat="40.279386049118834" lon="8.48375678412296"><ele>19.0</ele><time>2026-03-30T07:53:20Z</time></trkpt><trkpt lat="40.27923955684165" lon="8.48377301722688"><ele>19.0</ele><time>2026-03-30T07:53:21Z</time></trkpt><trkpt lat="40.279089663886936" lon="8.483806785509008"><ele>19.0</ele><time>2026-03-30T07:53:22Z</time></trkpt><trkpt lat="40.278942144050625" lon="8.483849983363887"><ele>19.0</ele><time>2026-03-30T07:53:23Z</time></trkpt><trkpt lat="40.27879499155906" lon="8.483894500221082"><ele>19.0</ele><time>2026-03-30T07:53:24Z</time></trkpt><trkpt lat="40.27864803874433" lon="8.483936925209312"><ele>18.0</ele><time>2026-03-30T07:53:25Z</time></trkpt><trkpt lat="40.278499310994924" lon="8.483974469498461"><ele>17.0</ele><time>2026-03-30T07:53:26Z</time></trkpt><trkpt lat="40.27834796131287" lon="8.484002595554475"><ele>16.0</ele><time>2026-03-30T07:53:27Z</time></trkpt><trkpt lat="40.27819515153858" lon="8.483996819665624"><ele>14.666666666666666</ele><time>2026-03-30T07:53:28Z</time></trkpt><trkpt lat="40.278041823055055" lon="8.484009266767778"><ele>13.333333333333332</ele><time>2026-03-30T07:53:29Z</time></trkpt><trkpt lat="40.27788950973903" lon="8.484043580382671"><ele>12.0</ele><time>2026-03-30T07:53:30Z</time></trkpt><trkpt lat="40.27773847301058" lon="8.484029854135922"><ele>12.0</ele><time>2026-03-30T07:53:31Z</time></trkpt><trkpt lat="40.27759133049403" lon="8.484002054496006"><ele>12.0</ele><time>2026-03-30T07:53:32Z</time></trkpt><trkpt lat="40.2774493738807" lon="8.483964009833521"><ele>12.0</ele><time>2026-03-30T07:53:33Z</time></trkpt><trkpt lat="40.27731129232556" lon="8.483935349940117"><ele>12.0</ele><time>2026-03-30T07:53:34Z</time></trkpt><trkpt lat="40.277178017588135" lon="8.483921474838695"><ele>11.75</ele><time>2026-03-30T07:53:35.001Z</time></trkpt><trkpt lat="40.27703624233994" lon="8.483936171084933"><ele>11.5</ele><time>2026-03-30T07:53:36.001Z</time></trkpt><trkpt lat="40.27689542672616" lon="8.483991980286511"><ele>11.25</ele><time>2026-03-30T07:53:37.001Z</time></trkpt><trkpt lat="40.276755631897935" lon="8.484022351199963"><ele>11.0</ele><time>2026-03-30T07:53:38.001Z</time></trkpt><trkpt lat="40.27661038974268" lon="8.484039359640327"><ele>11.0</ele><time>2026-03-30T07:53:39.001Z</time></trkpt><trkpt lat="40.276467115749675" lon="8.484074721418922"><ele>11.0</ele><time>2026-03-30T07:53:40.001Z</time></trkpt><trkpt lat="40.276323931306955" lon="8.484109966782544"><ele>11.0</ele><time>2026-03-30T07:53:41.001Z</time></trkpt><trkpt lat="40.27617805923433" lon="8.484145640779536"><ele>11.0</ele><time>2026-03-30T07:53:42.001Z</time></trkpt><trkpt lat="40.2760299846412" lon="8.484181853462701"><ele>9.5</ele><time>2026-03-30T07:53:43.001Z</time></trkpt><trkpt lat="40.27588258021231" lon="8.484215649758992"><ele>8.0</ele><time>2026-03-30T07:53:44.001Z</time></trkpt><trkpt lat="40.27573514309456" lon="8.484244128487491"><ele>6.5</ele><time>2026-03-30T07:53:45.001Z</time></trkpt><trkpt lat="40.27559396833305" lon="8.484284123090264"><ele>5.0</ele><time>2026-03-30T07:53:46.001Z</time></trkpt><trkpt lat="40.27544849433125" lon="8.484289589698076"><ele>4.75</ele><time>2026-03-30T07:53:47.001Z</time></trkpt><trkpt lat="40.275306871681835" lon="8.484294880811829"><ele>4.5</ele><time>2026-03-30T07:53:48.001Z</time></trkpt><trkpt lat="40.27516427241978" lon="8.484295191757816"><ele>4.25</ele><time>2026-03-30T07:53:49.001Z</time></trkpt><trkpt lat="40.27501845510357" lon="8.484333929278044"><ele>4.0</ele><time>2026-03-30T07:53:50.001Z</time></trkpt><trkpt lat="40.274871315487715" lon="8.484392448483856"><ele>3.5</ele><time>2026-03-30T07:53:51.001Z</time></trkpt><trkpt lat="40.27473232715958" lon="8.484461979650112"><ele>3.0</ele><time>2026-03-30T07:53:52.001Z</time></trkpt><trkpt lat="40.27461346182918" lon="8.484523029601236"><ele>2.5</ele><time>2026-03-30T07:53:53.001Z</time></trkpt><trkpt lat="40.27448314885068" lon="8.484593189609427"><ele>2.0</ele><time>2026-03-30T07:53:54.001Z</time></trkpt><trkpt lat="40.2743541377035" lon="8.484662000388864"><ele>3.0</ele><time>2026-03-30T07:53:55.001Z</time></trkpt><trkpt lat="40.27421757067269" lon="8.484732426736297"><ele>4.0</ele><time>2026-03-30T07:53:56.001Z</time></trkpt><trkpt lat="40.27409967767627" lon="8.484781422654915"><ele>5.0</ele><time>2026-03-30T07:53:57.001Z</time></trkpt><trkpt lat="40.273954318678946" lon="8.484823059748567"><ele>6.0</ele><time>2026-03-30T07:53:58.001Z</time></trkpt><trkpt lat="40.273798013397425" lon="8.484837229475263"><ele>6.0</ele><time>2026-03-30T07:53:59.001Z</time></trkpt><trkpt lat="40.27362719055553" lon="8.484801036377528"><ele>6.0</ele><time>2026-03-30T07:54:00.001Z</time></trkpt><trkpt lat="40.27344462985394" lon="8.484772023637005"><ele>6.0</ele><time>2026-03-30T07:54:01.001Z</time></trkpt><trkpt lat="40.27325217319183" lon="8.48470775855215"><ele>6.0</ele><time>2026-03-30T07:54:02.001Z</time></trkpt><trkpt lat="40.27304206689723" lon="8.484600373024813"><ele>6.0</ele><time>2026-03-30T07:54:03.001Z</time></trkpt><trkpt lat="40.273116504909865" lon="8.484701090792107"><ele>6.0</ele><time>2026-03-30T07:54:04.001Z</time></trkpt><trkpt lat="40.272986494618046" lon="8.484627107523085"><ele>5.25</ele><time>2026-03-30T07:54:05.001Z</time></trkpt><trkpt lat="40.27286522699819" lon="8.484546562295504"><ele>4.5</ele><time>2026-03-30T07:54:06.001Z</time></trkpt><trkpt lat="40.272748636484714" lon="8.484472848126968"><ele>3.75</ele><time>2026-03-30T07:54:07.001Z</time></trkpt><trkpt lat="40.272637027892756" lon="8.484434581396568"><ele>3.0</ele><time>2026-03-30T07:54:08.001Z</time></trkpt><trkpt lat="40.27254550856827" lon="8.484393236363639"><ele>3.0</ele><time>2026-03-30T07:54:09.001Z</time></trkpt><trkpt lat="40.272458801040294" lon="8.48438443006542"><ele>3.0</ele><time>2026-03-30T07:54:10.001Z</time></trkpt><trkpt lat="40.272380489831924" lon="8.484416192125094"><ele>3.0</ele><time>2026-03-30T07:54:11.001Z</time></trkpt><trkpt lat="40.27231610900571" lon="8.484476245492614"><ele>3.0</ele><time>2026-03-30T07:54:12.001Z</time></trkpt><trkpt lat="40.27225602617926" lon="8.484561148508991"><ele>3.0</ele><time>2026-03-30T07:54:13.001Z</time></trkpt><trkpt lat="40.2722094103252" lon="8.484671793478405"><ele>3.0</ele><time>2026-03-30T07:54:14.001Z</time></trkpt><trkpt lat="40.27216994266919" lon="8.484797878711108"><ele>6.4</ele><time>2026-03-30T07:54:15.001Z</time></trkpt><trkpt lat="40.27215114970624" lon="8.484933380280065"><ele>9.8</ele><time>2026-03-30T07:54:16.001Z</time></trkpt><trkpt lat="40.27215663381938" lon="8.485081669511786"><ele>13.2</ele><time>2026-03-30T07:54:17.001Z</time></trkpt><trkpt lat="40.272166709114465" lon="8.485224664717945"><ele>16.6</ele><time>2026-03-30T07:54:18Z</time></trkpt><trkpt lat="40.27217847789245" lon="8.485377160231172"><ele>20.0</ele><time>2026-03-30T07:54:19Z</time></trkpt><trkpt lat="40.27219873920608" lon="8.48553372110371"><ele>22.0</ele><time>2026-03-30T07:54:20Z</time></trkpt><trkpt lat="40.272232762071376" lon="8.485693017801648"><ele>24.0</ele><time>2026-03-30T07:54:21Z</time></trkpt><trkpt lat="40.27228738519668" lon="8.485852033951355"><ele>26.0</ele><time>2026-03-30T07:54:22Z</time></trkpt><trkpt lat="40.27233873078074" lon="8.486011076043056"><ele>28.0</ele><time>2026-03-30T07:54:23Z</time></trkpt><trkpt lat="40.27238222066916" lon="8.486160060313473"><ele>25.25</ele><time>2026-03-30T07:54:24Z</time></trkpt><trkpt lat="40.27242894043108" lon="8.486309563425333"><ele>22.5</ele><time>2026-03-30T07:54:25Z</time></trkpt><trkpt lat="40.27248888771466" lon="8.486466073572347"><ele>19.75</ele><time>2026-03-30T07:54:26Z</time></trkpt><trkpt lat="40.27253628425367" lon="8.4866029457124"><ele>17.0</ele><time>2026-03-30T07:54:27Z</time></trkpt><trkpt lat="40.272586158931816" lon="8.486722865495128"><ele>17.0</ele><time>2026-03-30T07:54:28Z</time></trkpt><trkpt lat="40.27264567399407" lon="8.486822442406886"><ele>17.0</ele><time>2026-03-30T07:54:29Z</time></trkpt><trkpt lat="40.27271245530927" lon="8.486903175773376"><ele>17.0</ele><time>2026-03-30T07:54:30Z</time></trkpt><trkpt lat="40.2727621284123" lon="8.48698217354637"><ele>17.0</ele><time>2026-03-30T07:54:31Z</time></trkpt><trkpt lat="40.27278780083262" lon="8.487092468924539"><ele>17.0</ele><time>2026-03-30T07:54:32Z</time></trkpt><trkpt lat="40.272759396416845" lon="8.48718481925602"><ele>17.0</ele><time>2026-03-30T07:54:33Z</time></trkpt><trkpt lat="40.27269409608794" lon="8.487230442805558"><ele>19.8</ele><time>2026-03-30T07:54:34Z</time></trkpt><trkpt lat="40.272652875172994" lon="8.487297074922452"><ele>22.6</ele><time>2026-03-30T07:54:35Z</time></trkpt><trkpt lat="40.27253076996721" lon="8.487284811288628"><ele>25.400000000000002</ele><time>2026-03-30T07:54:36Z</time></trkpt><trkpt lat="40.27243189692757" lon="8.487282285559951"><ele>28.2</ele><time>2026-03-30T07:54:37Z</time></trkpt><trkpt lat="40.27234780201495" lon="8.487237598333733"><ele>31.0</ele><time>2026-03-30T07:54:38Z</time></trkpt><trkpt lat="40.27228297297311" lon="8.487153274901864"><ele>32.2</ele><time>2026-03-30T07:54:39Z</time></trkpt><trkpt lat="40.27224934297673" lon="8.48703858049695"><ele>33.400000000000006</ele><time>2026-03-30T07:54:40Z</time></trkpt><trkpt lat="40.27224654972569" lon="8.486899328932532"><ele>34.6</ele><time>2026-03-30T07:54:41Z</time></trkpt><trkpt lat="40.2722491551809" lon="8.486761290935464"><ele>35.800000000000004</ele><time>2026-03-30T07:54:42Z</time></trkpt><trkpt lat="40.27222101909024" lon="8.48662521040151"><ele>37.0</ele><time>2026-03-30T07:54:43Z</time></trkpt><trkpt lat="40.272151051616554" lon="8.48649695134013"><ele>37.0</ele><time>2026-03-30T07:54:44Z</time></trkpt><trkpt lat="40.272054773629364" lon="8.486386852131174"><ele>37.0</ele><time>2026-03-30T07:54:45Z</time></trkpt><trkpt lat="40.2719554860144" lon="8.486289082830314"><ele>37.0</ele><time>2026-03-30T07:54:46Z</time></trkpt><trkpt lat="40.271859165741" lon="8.486180218008629"><ele>37.0</ele><time>2026-03-30T07:54:47Z</time></trkpt><trkpt lat="40.2717721803682" lon="8.486053804357285"><ele>34.75</ele><time>2026-03-30T07:54:48Z</time></trkpt><trkpt lat="40.27169782552058" lon="8.485912103663347"><ele>32.5</ele><time>2026-03-30T07:54:49Z</time></trkpt><trkpt lat="40.27162253578606" lon="8.485766801623633"><ele>30.25</ele><time>2026-03-30T07:54:50Z</time></trkpt><trkpt lat="40.27154301483602" lon="8.4856210114353"><ele>28.0</ele><time>2026-03-30T07:54:51Z</time></trkpt><trkpt lat="40.27145701571692" lon="8.48547679111262"><ele>32.0</ele><time>2026-03-30T07:54:52Z</time></trkpt><trkpt lat="40.27135523445173" lon="8.485348571665616"><ele>36.0</ele><time>2026-03-30T07:54:53Z</time></trkpt><trkpt lat="40.27124887588233" lon="8.485238110710176"><ele>40.0</ele><time>2026-03-30T07:54:54Z</time></trkpt><trkpt lat="40.2711335592833" lon="8.48513953693797"><ele>44.0</ele><time>2026-03-30T07:54:55Z</time></trkpt><trkpt lat="40.27101953191544" lon="8.485054163794604"><ele>44.0</ele><time>2026-03-30T07:54:56Z</time></trkpt><trkpt lat="40.270903101718986" lon="8.484976331359077"><ele>44.0</ele><time>2026-03-30T07:54:57Z</time></trkpt><trkpt lat="40.27079810134757" lon="8.484890781457139"><ele>44.0</ele><time>2026-03-30T07:54:58Z</time></trkpt><trkpt lat="40.27068605459281" lon="8.48481481917916"><ele>44.0</ele><time>2026-03-30T07:54:59Z</time></trkpt><trkpt lat="40.27057210092332" lon="8.484737542922486"><ele>46.5</ele><time>2026-03-30T07:55:00Z</time></trkpt><trkpt lat="40.270463326285" lon="8.484655957065728"><ele>49.0</ele><time>2026-03-30T07:55:01Z</time></trkpt><trkpt lat="40.27036768290884" lon="8.48454870301166"><ele>51.5</ele><time>2026-03-30T07:55:02Z</time></trkpt><trkpt lat="40.27028238850339" lon="8.484424788700137"><ele>54.0</ele><time>2026-03-30T07:55:03Z</time></trkpt><trkpt lat="40.2702027812765" lon="8.48430551159543"><ele>54.0</ele><time>2026-03-30T07:55:04Z</time></trkpt><trkpt lat="40.27012360555767" lon="8.484191796937917"><ele>54.0</ele><time>2026-03-30T07:55:05Z</time></trkpt><trkpt lat="40.27004445279133" lon="8.484085656716857"><ele>54.0</ele><time>2026-03-30T07:55:06.001Z</time></trkpt><trkpt lat="40.26996386227107" lon="8.483981465216077"><ele>54.0</ele><time>2026-03-30T07:55:07.001Z</time></trkpt><trkpt lat="40.26987671949902" lon="8.48388641810458"><ele>54.0</ele><time>2026-03-30T07:55:08.001Z</time></trkpt><trkpt lat="40.2697794361693" lon="8.483822063492239"><ele>54.0</ele><time>2026-03-30T07:55:09.001Z</time></trkpt><trkpt lat="40.269666969630116" lon="8.483810748097431"><ele>54.0</ele><time>2026-03-30T07:55:10.001Z</time></trkpt><trkpt lat="40.26955348533474" lon="8.483848219752531"><ele>54.0</ele><time>2026-03-30T07:55:11.001Z</time></trkpt><trkpt lat="40.26945707247305" lon="8.483933359503476"><ele>57.5</ele><time>2026-03-30T07:55:12.001Z</time></trkpt><trkpt lat="40.26937624744387" lon="8.484043260929003"><ele>61.0</ele><time>2026-03-30T07:55:13.001Z</time></trkpt><trkpt lat="40.269286441962265" lon="8.484132711640994"><ele>64.5</ele><time>2026-03-30T07:55:14.001Z</time></trkpt><trkpt lat="40.269191967944494" lon="8.484232510452298"><ele>68.0</ele><time>2026-03-30T07:55:15.001Z</time></trkpt><trkpt lat="40.26909623127675" lon="8.484333643061516"><ele>68.0</ele><time>2026-03-30T07:55:16.001Z</time></trkpt><trkpt lat="40.26899678190742" lon="8.484438697655982"><ele>68.0</ele><time>2026-03-30T07:55:17.001Z</time></trkpt><trkpt lat="40.26890605914727" lon="8.484563115758908"><ele>68.0</ele><time>2026-03-30T07:55:18.001Z</time></trkpt><trkpt lat="40.26879670570729" lon="8.484662750231516"><ele>68.0</ele><time>2026-03-30T07:55:19.001Z</time></trkpt><trkpt lat="40.2686945932897" lon="8.48477078223624"><ele>67.5</ele><time>2026-03-30T07:55:20.001Z</time></trkpt><trkpt lat="40.2686054127016" lon="8.48488847368596"><ele>67.0</ele><time>2026-03-30T07:55:21.001Z</time></trkpt><trkpt lat="40.268550411490985" lon="8.485040275885115"><ele>66.5</ele><time>2026-03-30T07:55:22.001Z</time></trkpt><trkpt lat="40.268532481756836" lon="8.485216519964522"><ele>66.0</ele><time>2026-03-30T07:55:23.001Z</time></trkpt><trkpt lat="40.26853681931551" lon="8.485408613935935"><ele>67.0</ele><time>2026-03-30T07:55:24.001Z</time></trkpt><trkpt lat="40.268529366984055" lon="8.485599893586127"><ele>68.0</ele><time>2026-03-30T07:55:25.001Z</time></trkpt><trkpt lat="40.26851008105904" lon="8.485799487142245"><ele>69.0</ele><time>2026-03-30T07:55:26.001Z</time></trkpt><trkpt lat="40.26847658594609" lon="8.48599723356351"><ele>69.0</ele><time>2026-03-30T07:55:27.001Z</time></trkpt><trkpt lat="40.268387181046535" lon="8.486168791227573"><ele>69.0</ele><time>2026-03-30T07:55:28.001Z</time></trkpt><trkpt lat="40.268305808174354" lon="8.486345526493418"><ele>69.0</ele><time>2026-03-30T07:55:29.001Z</time></trkpt><trkpt lat="40.2682183339588" lon="8.486522507544318"><ele>70.0</ele><time>2026-03-30T07:55:30.001Z</time></trkpt><trkpt lat="40.26812763079499" lon="8.486693278572474"><ele>71.0</ele><time>2026-03-30T07:55:31.001Z</time></trkpt><trkpt lat="40.268037975156325" lon="8.48686461650493"><ele>72.0</ele><time>2026-03-30T07:55:32.001Z</time></trkpt><trkpt lat="40.26795354551762" lon="8.487028369073213"><ele>72.6</ele><time>2026-03-30T07:55:33.001Z</time></trkpt><trkpt lat="40.26787818232255" lon="8.487175821369329"><ele>73.2</ele><time>2026-03-30T07:55:34.001Z</time></trkpt><trkpt lat="40.2678158871008" lon="8.48731053485907"><ele>73.8</ele><time>2026-03-30T07:55:35.001Z</time></trkpt><trkpt lat="40.267782358622995" lon="8.487439321730685"><ele>74.4</ele><time>2026-03-30T07:55:36.001Z</time></trkpt><trkpt lat="40.26777236496796" lon="8.487551235115463"><ele>75.0</ele><time>2026-03-30T07:55:37.001Z</time></trkpt><trkpt lat="40.2677763679885" lon="8.487655154143365"><ele>75.0</ele><time>2026-03-30T07:55:38.001Z</time></trkpt><trkpt lat="40.26777838004245" lon="8.487759191828836"><ele>75.0</ele><time>2026-03-30T07:55:39.001Z</time></trkpt><trkpt lat="40.267781092271065" lon="8.487867531397935"><ele>75.0</ele><time>2026-03-30T07:55:40.001Z</time></trkpt><trkpt lat="40.267784488317666" lon="8.487977240073489"><ele>75.0</ele><time>2026-03-30T07:55:41.001Z</time></trkpt><trkpt lat="40.26778804262695" lon="8.488092061577788"><ele>75.0</ele><time>2026-03-30T07:55:42.001Z</time></trkpt><trkpt lat="40.2677916749521" lon="8.48820940330219"><ele>75.0</ele><time>2026-03-30T07:55:43.001Z</time></trkpt><trkpt lat="40.26779539945094" lon="8.488329722969302"><ele>76.2</ele><time>2026-03-30T07:55:44.001Z</time></trkpt><trkpt lat="40.26779933051236" lon="8.488453393763294"><ele>77.4</ele><time>2026-03-30T07:55:45.001Z</time></trkpt><trkpt lat="40.26780332943393" lon="8.488578758183"><ele>78.6</ele><time>2026-03-30T07:55:46.001Z</time></trkpt><trkpt lat="40.26780742475413" lon="8.488707144770636"><ele>79.8</ele><time>2026-03-30T07:55:47.001Z</time></trkpt><trkpt lat="40.26781135877578" lon="8.488830474804878"><ele>81.0</ele><time>2026-03-30T07:55:48.001Z</time></trkpt><trkpt lat="40.26781530200431" lon="8.4889540933215"><ele>81.6</ele><time>2026-03-30T07:55:49.001Z</time></trkpt><trkpt lat="40.267818865564045" lon="8.489065809317147"><ele>82.19999999999999</ele><time>2026-03-30T07:55:50.001Z</time></trkpt><trkpt lat="40.26783548745297" lon="8.489159313051179"><ele>82.80000000000001</ele><time>2026-03-30T07:55:51.001Z</time></trkpt><trkpt lat="40.26778484881636" lon="8.489282606070827"><ele>83.4</ele><time>2026-03-30T07:55:53.001Z</time></trkpt><trkpt lat="40.2676589538919" lon="8.489257531105048"><ele>84.0</ele><time>2026-03-30T07:55:55.001Z</time></trkpt><trkpt lat="40.26758272706387" lon="8.489238597025972"><ele>84.0</ele><time>2026-03-30T07:55:56.001Z</time></trkpt><trkpt lat="40.267499162062954" lon="8.489232722422232"><ele>84.0</ele><time>2026-03-30T07:55:57.001Z</time></trkpt><trkpt lat="40.267405675248426" lon="8.489233444521934"><ele>84.0</ele><time>2026-03-30T07:55:58.001Z</time></trkpt><trkpt lat="40.26731420087798" lon="8.489233889986423"><ele>84.0</ele><time>2026-03-30T07:55:59.001Z</time></trkpt><trkpt lat="40.26722306114286" lon="8.489203724572155"><ele>84.0</ele><time>2026-03-30T07:56:00.001Z</time></trkpt><trkpt lat="40.267136712491286" lon="8.489183205871196"><ele>86.0</ele><time>2026-03-30T07:56:01.001Z</time></trkpt><trkpt lat="40.267049022487846" lon="8.489150709480015"><ele>88.0</ele><time>2026-03-30T07:56:02.001Z</time></trkpt><trkpt lat="40.266971617710695" lon="8.489095679579489"><ele>90.0</ele><time>2026-03-30T07:56:03.001Z</time></trkpt><trkpt lat="40.26689675400984" lon="8.48902627243787"><ele>92.0</ele><time>2026-03-30T07:56:04.001Z</time></trkpt><trkpt lat="40.26681837005568" lon="8.488949930930715"><ele>94.0</ele><time>2026-03-30T07:56:05.001Z</time></trkpt><trkpt lat="40.26673246088114" lon="8.488883491010114"><ele>94.0</ele><time>2026-03-30T07:56:06.001Z</time></trkpt><trkpt lat="40.2666465454554" lon="8.488804196492179"><ele>94.0</ele><time>2026-03-30T07:56:07.001Z</time></trkpt><trkpt lat="40.266565807783294" lon="8.488711664230342"><ele>94.0</ele><time>2026-03-30T07:56:08.001Z</time></trkpt><trkpt lat="40.26647500119109" lon="8.488627350029784"><ele>94.0</ele><time>2026-03-30T07:56:09.001Z</time></trkpt><trkpt lat="40.266387630742486" lon="8.48854150355507"><ele>94.0</ele><time>2026-03-30T07:56:10.001Z</time></trkpt><trkpt lat="40.26630172325504" lon="8.4884585446947"><ele>95.4</ele><time>2026-03-30T07:56:11.001Z</time></trkpt><trkpt lat="40.26621464588202" lon="8.488378477264858"><ele>96.80000000000001</ele><time>2026-03-30T07:56:12.001Z</time></trkpt><trkpt lat="40.266136828164264" lon="8.488282088888296"><ele>98.19999999999999</ele><time>2026-03-30T07:56:13.001Z</time></trkpt><trkpt lat="40.26604810968472" lon="8.48820418109397"><ele>99.6</ele><time>2026-03-30T07:56:14.001Z</time></trkpt><trkpt lat="40.26594880517308" lon="8.488146054162389"><ele>101.0</ele><time>2026-03-30T07:56:15.001Z</time></trkpt><trkpt lat="40.26585814157913" lon="8.488075774413804"><ele>101.0</ele><time>2026-03-30T07:56:16.001Z</time></trkpt><trkpt lat="40.26575913404723" lon="8.488018454981766"><ele>101.0</ele><time>2026-03-30T07:56:17.001Z</time></trkpt><trkpt lat="40.26565893473266" lon="8.487966273774198"><ele>101.0</ele><time>2026-03-30T07:56:18.001Z</time></trkpt><trkpt lat="40.265554451767834" lon="8.487916616926487"><ele>101.0</ele><time>2026-03-30T07:56:19.001Z</time></trkpt><trkpt lat="40.26544774635914" lon="8.48786305406021"><ele>101.0</ele><time>2026-03-30T07:56:20.001Z</time></trkpt><trkpt lat="40.265351496858514" lon="8.487776127444294"><ele>101.5</ele><time>2026-03-30T07:56:21.001Z</time></trkpt><trkpt lat="40.265249389784145" lon="8.487694934367008"><ele>102.0</ele><time>2026-03-30T07:56:22.001Z</time></trkpt><trkpt lat="40.26514993995216" lon="8.487599099884683"><ele>102.5</ele><time>2026-03-30T07:56:23.001Z</time></trkpt><trkpt lat="40.265049615549714" lon="8.487504406463534"><ele>103.0</ele><time>2026-03-30T07:56:24.001Z</time></trkpt><trkpt lat="40.264956302679735" lon="8.487395908086103"><ele>103.0</ele><time>2026-03-30T07:56:25.001Z</time></trkpt><trkpt lat="40.2648606402652" lon="8.487300685606106"><ele>103.0</ele><time>2026-03-30T07:56:26.001Z</time></trkpt><trkpt lat="40.26475992986083" lon="8.487227717158664"><ele>103.0</ele><time>2026-03-30T07:56:27.001Z</time></trkpt><trkpt lat="40.26463812717019" lon="8.487176087256469"><ele>103.0</ele><time>2026-03-30T07:56:28.001Z</time></trkpt><trkpt lat="40.264514993081306" lon="8.487136500043315"><ele>103.5</ele><time>2026-03-30T07:56:29.001Z</time></trkpt><trkpt lat="40.26439763670534" lon="8.487105423071151"><ele>104.0</ele><time>2026-03-30T07:56:30.001Z</time></trkpt><trkpt lat="40.26428655332485" lon="8.487089136587576"><ele>104.5</ele><time>2026-03-30T07:56:31.001Z</time></trkpt><trkpt lat="40.26417669317409" lon="8.487098686816749"><ele>105.0</ele><time>2026-03-30T07:56:32.001Z</time></trkpt><trkpt lat="40.264066586393575" lon="8.487143440719572"><ele>105.0</ele><time>2026-03-30T07:56:33.001Z</time></trkpt><trkpt lat="40.263971908460846" lon="8.487220480601708"><ele>105.0</ele><time>2026-03-30T07:56:34.001Z</time></trkpt><trkpt lat="40.26389218395951" lon="8.487299883763482"><ele>105.0</ele><time>2026-03-30T07:56:35.001Z</time></trkpt><trkpt lat="40.263835912546874" lon="8.487433790378466"><ele>105.0</ele><time>2026-03-30T07:56:36.001Z</time></trkpt><trkpt lat="40.26374667554053" lon="8.487526636070987"><ele>105.0</ele><time>2026-03-30T07:56:37.001Z</time></trkpt><trkpt lat="40.2636780205128" lon="8.487642530449962"><ele>103.8</ele><time>2026-03-30T07:56:38.001Z</time></trkpt><trkpt lat="40.26358699822094" lon="8.48772038471609"><ele>102.6</ele><time>2026-03-30T07:56:39.001Z</time></trkpt><trkpt lat="40.26349288950198" lon="8.487772050378187"><ele>101.4</ele><time>2026-03-30T07:56:40.001Z</time></trkpt><trkpt lat="40.263397941881856" lon="8.487800217409138"><ele>100.2</ele><time>2026-03-30T07:56:41.001Z</time></trkpt><trkpt lat="40.26329907710015" lon="8.487792905983104"><ele>99.0</ele><time>2026-03-30T07:56:42.001Z</time></trkpt><trkpt lat="40.2632013796806" lon="8.487736231113983"><ele>98.0</ele><time>2026-03-30T07:56:43.001Z</time></trkpt><trkpt lat="40.2630985119105" lon="8.487712313367958"><ele>97.0</ele><time>2026-03-30T07:56:44.001Z</time></trkpt><trkpt lat="40.263000797941594" lon="8.487665968474657"><ele>96.0</ele><time>2026-03-30T07:56:45.001Z</time></trkpt><trkpt lat="40.262903113039464" lon="8.487646087647546"><ele>95.0</ele><time>2026-03-30T07:56:46.001Z</time></trkpt><trkpt lat="40.26280817331613" lon="8.487658322240906"><ele>94.0</ele><time>2026-03-30T07:56:47.001Z</time></trkpt><trkpt lat="40.262720755242434" lon="8.487711008065373"><ele>94.0</ele><time>2026-03-30T07:56:48.001Z</time></trkpt><trkpt lat="40.2626427532733" lon="8.487796436796007"><ele>94.0</ele><time>2026-03-30T07:56:49.001Z</time></trkpt><trkpt lat="40.26257629065027" lon="8.48790637492665"><ele>94.0</ele><time>2026-03-30T07:56:50.001Z</time></trkpt><trkpt lat="40.26251546454809" lon="8.488028118651009"><ele>94.0</ele><time>2026-03-30T07:56:51.001Z</time></trkpt><trkpt lat="40.262447561739336" lon="8.48814761751917"><ele>94.0</ele><time>2026-03-30T07:56:52.001Z</time></trkpt><trkpt lat="40.26236792936006" lon="8.48825315002804"><ele>94.4</ele><time>2026-03-30T07:56:53.001Z</time></trkpt><trkpt lat="40.262266053080296" lon="8.48829497421481"><ele>94.80000000000001</ele><time>2026-03-30T07:56:54.001Z</time></trkpt><trkpt lat="40.26216517002028" lon="8.48832629860063"><ele>95.19999999999999</ele><time>2026-03-30T07:56:55.001Z</time></trkpt><trkpt lat="40.26205306142495" lon="8.488362700456507"><ele>95.6</ele><time>2026-03-30T07:56:56.001Z</time></trkpt><trkpt lat="40.26193734118869" lon="8.488417913284739"><ele>96.0</ele><time>2026-03-30T07:56:57.001Z</time></trkpt><trkpt lat="40.26181735492461" lon="8.488457826040479"><ele>96.0</ele><time>2026-03-30T07:56:58.001Z</time></trkpt><trkpt lat="40.26168931041943" lon="8.488480453318191"><ele>96.0</ele><time>2026-03-30T07:56:59.001Z</time></trkpt><trkpt lat="40.26155926679055" lon="8.488523360360155"><ele>96.0</ele><time>2026-03-30T07:57:00.001Z</time></trkpt><trkpt lat="40.26143165631737" lon="8.488565464657205"><ele>96.0</ele><time>2026-03-30T07:57:01.001Z</time></trkpt><trkpt lat="40.26130088564224" lon="8.488608611610836"><ele>96.25</ele><time>2026-03-30T07:57:02.001Z</time></trkpt><trkpt lat="40.26117324055523" lon="8.488650727244048"><ele>96.5</ele><time>2026-03-30T07:57:03.001Z</time></trkpt><trkpt lat="40.26106083169897" lon="8.488702706097147"><ele>96.75</ele><time>2026-03-30T07:57:04.001Z</time></trkpt><trkpt lat="40.2609508464625" lon="8.488712288083473"><ele>97.0</ele><time>2026-03-30T07:57:05.001Z</time></trkpt><trkpt lat="40.26085692269354" lon="8.488715863001472"><ele>97.0</ele><time>2026-03-30T07:57:06.001Z</time></trkpt><trkpt lat="40.26078387955911" lon="8.48873241204069"><ele>97.0</ele><time>2026-03-30T07:57:07.001Z</time></trkpt><trkpt lat="40.260720434065455" lon="8.488530902997756"><ele>97.0</ele><time>2026-03-30T07:57:08.001Z</time></trkpt><trkpt lat="40.26064758461584" lon="8.488468117267853"><ele>97.0</ele><time>2026-03-30T07:57:09.001Z</time></trkpt><trkpt lat="40.260588737926234" lon="8.488384818170214"><ele>97.0</ele><time>2026-03-30T07:57:10.001Z</time></trkpt><trkpt lat="40.2605246122297" lon="8.488331287667693"><ele>96.33333333333334</ele><time>2026-03-30T07:57:11.001Z</time></trkpt><trkpt lat="40.26045211283738" lon="8.488263787093976"><ele>95.66666666666667</ele><time>2026-03-30T07:57:13.001Z</time></trkpt><trkpt lat="40.260385492875834" lon="8.48823603304591"><ele>95.0</ele><time>2026-03-30T07:57:15.001Z</time></trkpt><trkpt lat="40.260399762865134" lon="8.488065434966085"><ele>94.33333333333334</ele><time>2026-03-30T07:57:18.001Z</time></trkpt><trkpt lat="40.260426023589005" lon="8.487984520741437"><ele>93.66666666666667</ele><time>2026-03-30T07:57:19.001Z</time></trkpt><trkpt lat="40.2604432381976" lon="8.487899653795678"><ele>93.0</ele><time>2026-03-30T07:57:20.001Z</time></trkpt><trkpt lat="40.26047685251846" lon="8.487820904404797"><ele>93.0</ele><time>2026-03-30T07:57:21.001Z</time></trkpt><trkpt lat="40.26050392261324" lon="8.487735751941424"><ele>93.0</ele><time>2026-03-30T07:57:22.001Z</time></trkpt><trkpt lat="40.26053156721088" lon="8.487651066273472"><ele>93.0</ele><time>2026-03-30T07:57:23.001Z</time></trkpt><trkpt lat="40.26056253586042" lon="8.487557232347013"><ele>93.0</ele><time>2026-03-30T07:57:24.001Z</time></trkpt><trkpt lat="40.26059506434298" lon="8.487461948621895"><ele>93.0</ele><time>2026-03-30T07:57:25.001Z</time></trkpt><trkpt lat="40.26063347894473" lon="8.487360897192064"><ele>93.0</ele><time>2026-03-30T07:57:26.001Z</time></trkpt><trkpt lat="40.260674364919865" lon="8.487255343252372"><ele>93.0</ele><time>2026-03-30T07:57:27.001Z</time></trkpt><trkpt lat="40.260731028397686" lon="8.48715490424412"><ele>93.0</ele><time>2026-03-30T07:57:28.001Z</time></trkpt><trkpt lat="40.26076946923282" lon="8.487029355938365"><ele>93.0</ele><time>2026-03-30T07:57:29.001Z</time></trkpt><trkpt lat="40.26081860280501" lon="8.486901081921463"><ele>93.0</ele><time>2026-03-30T07:57:30.001Z</time></trkpt><trkpt lat="40.260847233642075" lon="8.486756239125162"><ele>93.0</ele><time>2026-03-30T07:57:31.001Z</time></trkpt><trkpt lat="40.26086527440896" lon="8.486601133720857"><ele>92.4</ele><time>2026-03-30T07:57:32.001Z</time></trkpt><trkpt lat="40.260877066850696" lon="8.486451441959481"><ele>91.80000000000001</ele><time>2026-03-30T07:57:33.001Z</time></trkpt><trkpt lat="40.2608892125623" lon="8.486312263977721"><ele>91.2</ele><time>2026-03-30T07:57:34.001Z</time></trkpt><trkpt lat="40.260901774971245" lon="8.486177069659314"><ele>90.6</ele><time>2026-03-30T07:57:35.001Z</time></trkpt><trkpt lat="40.260919032025384" lon="8.486045905302067"><ele>90.0</ele><time>2026-03-30T07:57:36.001Z</time></trkpt><trkpt lat="40.26095148787441" lon="8.485920702970555"><ele>89.2</ele><time>2026-03-30T07:57:37.001Z</time></trkpt><trkpt lat="40.26099411037988" lon="8.485802565809307"><ele>88.4</ele><time>2026-03-30T07:57:38.001Z</time></trkpt><trkpt lat="40.2610405189321" lon="8.48569202960108"><ele>87.6</ele><time>2026-03-30T07:57:39.001Z</time></trkpt><trkpt lat="40.261083927585595" lon="8.485579667902096"><ele>86.8</ele><time>2026-03-30T07:57:40.001Z</time></trkpt><trkpt lat="40.26113019615842" lon="8.485471576376131"><ele>86.0</ele><time>2026-03-30T07:57:41.001Z</time></trkpt><trkpt lat="40.26117635465594" lon="8.485365456126383"><ele>85.0</ele><time>2026-03-30T07:57:42.001Z</time></trkpt><trkpt lat="40.26122167470013" lon="8.485259161637584"><ele>84.0</ele><time>2026-03-30T07:57:43.001Z</time></trkpt><trkpt lat="40.26126281925691" lon="8.48514766653549"><ele>83.0</ele><time>2026-03-30T07:57:44.001Z</time></trkpt><trkpt lat="40.26128120849767" lon="8.485024166236707"><ele>82.0</ele><time>2026-03-30T07:57:45.001Z</time></trkpt><trkpt lat="40.26126956951035" lon="8.484891509310614"><ele>81.0</ele><time>2026-03-30T07:57:46.001Z</time></trkpt><trkpt lat="40.26124346781888" lon="8.484766372599795"><ele>81.0</ele><time>2026-03-30T07:57:47.001Z</time></trkpt><trkpt lat="40.26119250963535" lon="8.484650957148515"><ele>81.0</ele><time>2026-03-30T07:57:48.001Z</time></trkpt><trkpt lat="40.26113479611998" lon="8.48454698818022"><ele>81.0</ele><time>2026-03-30T07:57:49.001Z</time></trkpt><trkpt lat="40.26108153471073" lon="8.484433110367323"><ele>81.0</ele><time>2026-03-30T07:57:50.001Z</time></trkpt><trkpt lat="40.261039076009624" lon="8.484310709361429"><ele>81.0</ele><time>2026-03-30T07:57:51.001Z</time></trkpt><trkpt lat="40.26100705350545" lon="8.484180597980158"><ele>79.25</ele><time>2026-03-30T07:57:52.001Z</time></trkpt><trkpt lat="40.260991303435496" lon="8.48404474849671"><ele>77.5</ele><time>2026-03-30T07:57:53.001Z</time></trkpt><trkpt lat="40.26098318160308" lon="8.48390004353827"><ele>75.75</ele><time>2026-03-30T07:57:54.001Z</time></trkpt><trkpt lat="40.26098243380449" lon="8.48374601844533"><ele>74.0</ele><time>2026-03-30T07:57:55.001Z</time></trkpt><trkpt lat="40.26098807375914" lon="8.483588933364821"><ele>72.75</ele><time>2026-03-30T07:57:56.001Z</time></trkpt><trkpt lat="40.26099486369186" lon="8.483421764854777"><ele>71.5</ele><time>2026-03-30T07:57:57.001Z</time></trkpt><trkpt lat="40.26100197345645" lon="8.483257925958325"><ele>70.25</ele><time>2026-03-30T07:57:58.001Z</time></trkpt><trkpt lat="40.26100174324078" lon="8.483092962589664"><ele>69.0</ele><time>2026-03-30T07:57:59.001Z</time></trkpt><trkpt lat="40.26099487481738" lon="8.482926849095485"><ele>67.75</ele><time>2026-03-30T07:58:00.001Z</time></trkpt><trkpt lat="40.26097552998305" lon="8.482756567691585"><ele>66.5</ele><time>2026-03-30T07:58:01.001Z</time></trkpt><trkpt lat="40.260941944649375" lon="8.482585825079816"><ele>65.25</ele><time>2026-03-30T07:58:02.001Z</time></trkpt><trkpt lat="40.26090157244761" lon="8.482420665857571"><ele>64.0</ele><time>2026-03-30T07:58:03.001Z</time></trkpt><trkpt lat="40.260851250435614" lon="8.482260440925048"><ele>64.0</ele><time>2026-03-30T07:58:04.001Z</time></trkpt><trkpt lat="40.26079718146939" lon="8.482107606200787"><ele>64.0</ele><time>2026-03-30T07:58:05.001Z</time></trkpt><trkpt lat="40.26074432825517" lon="8.48196434761653"><ele>64.0</ele><time>2026-03-30T07:58:06.001Z</time></trkpt><trkpt lat="40.26069286257007" lon="8.481826918026915"><ele>64.0</ele><time>2026-03-30T07:58:07.001Z</time></trkpt><trkpt lat="40.260641416750815" lon="8.481692373487423"><ele>62.0</ele><time>2026-03-30T07:58:08.001Z</time></trkpt><trkpt lat="40.26057544221824" lon="8.481567071885813"><ele>60.0</ele><time>2026-03-30T07:58:09.001Z</time></trkpt><trkpt lat="40.260491215772696" lon="8.481457910246505"><ele>58.0</ele><time>2026-03-30T07:58:10.001Z</time></trkpt><trkpt lat="40.26038855530077" lon="8.481375154787903"><ele>56.0</ele><time>2026-03-30T07:58:11.001Z</time></trkpt><trkpt lat="40.260277492009116" lon="8.481325993434174"><ele>56.0</ele><time>2026-03-30T07:58:12.001Z</time></trkpt><trkpt lat="40.26016622699349" lon="8.48132052696842"><ele>55.99999999999999</ele><time>2026-03-30T07:58:13.001Z</time></trkpt><trkpt lat="40.26005608944154" lon="8.481345209672266"><ele>55.99999999999999</ele><time>2026-03-30T07:58:14.001Z</time></trkpt><trkpt lat="40.25994957796238" lon="8.481372807860353"><ele>56.0</ele><time>2026-03-30T07:58:15.001Z</time></trkpt><trkpt lat="40.25984074197396" lon="8.48138462704039"><ele>56.0</ele><time>2026-03-30T07:58:16.001Z</time></trkpt><trkpt lat="40.259730397381595" lon="8.481370500875087"><ele>57.0</ele><time>2026-03-30T07:58:17.001Z</time></trkpt><trkpt lat="40.259621174116184" lon="8.48133261509586"><ele>58.0</ele><time>2026-03-30T07:58:18.001Z</time></trkpt><trkpt lat="40.2595190313897" lon="8.481263735245795"><ele>59.0</ele><time>2026-03-30T07:58:19.001Z</time></trkpt><trkpt lat="40.25942992621493" lon="8.481170787676465"><ele>60.0</ele><time>2026-03-30T07:58:20.001Z</time></trkpt><trkpt lat="40.25934126374292" lon="8.481058844718882"><ele>57.5</ele><time>2026-03-30T07:58:21.001Z</time></trkpt><trkpt lat="40.2592518402717" lon="8.480937792797109"><ele>55.0</ele><time>2026-03-30T07:58:22.001Z</time></trkpt><trkpt lat="40.25916221570796" lon="8.480805980976282"><ele>52.5</ele><time>2026-03-30T07:58:23.001Z</time></trkpt><trkpt lat="40.25906061811972" lon="8.480676191908211"><ele>50.0</ele><time>2026-03-30T07:58:24.001Z</time></trkpt><trkpt lat="40.258959733753386" lon="8.480544164133926"><ele>50.0</ele><time>2026-03-30T07:58:25.001Z</time></trkpt><trkpt lat="40.25886720619855" lon="8.48040840436131"><ele>50.0</ele><time>2026-03-30T07:58:26.001Z</time></trkpt><trkpt lat="40.25878072734577" lon="8.480279037863415"><ele>50.0</ele><time>2026-03-30T07:58:27.002Z</time></trkpt><trkpt lat="40.25868940878518" lon="8.480162654363864"><ele>50.0</ele><time>2026-03-30T07:58:28.002Z</time></trkpt><trkpt lat="40.258599987617856" lon="8.480050411313933"><ele>50.0</ele><time>2026-03-30T07:58:29.002Z</time></trkpt><trkpt lat="40.25851185138513" lon="8.479935789911448"><ele>50.0</ele><time>2026-03-30T07:58:30.001Z</time></trkpt><trkpt lat="40.25842827010688" lon="8.479826106918622"><ele>50.0</ele><time>2026-03-30T07:58:31.001Z</time></trkpt><trkpt lat="40.25833946040081" lon="8.479731274155457"><ele>50.0</ele><time>2026-03-30T07:58:32.001Z</time></trkpt><trkpt lat="40.25824587031668" lon="8.479651253418682"><ele>47.4</ele><time>2026-03-30T07:58:33.001Z</time></trkpt><trkpt lat="40.25814786581341" lon="8.479585947908799"><ele>44.8</ele><time>2026-03-30T07:58:34.001Z</time></trkpt><trkpt lat="40.258047451481204" lon="8.479527188425076"><ele>42.2</ele><time>2026-03-30T07:58:35.001Z</time></trkpt><trkpt lat="40.25794620641813" lon="8.479473437404184"><ele>39.6</ele><time>2026-03-30T07:58:36.001Z</time></trkpt><trkpt lat="40.25784847839542" lon="8.479422064467414"><ele>37.0</ele><time>2026-03-30T07:58:37.001Z</time></trkpt><trkpt lat="40.257737627495544" lon="8.479368230215446"><ele>37.0</ele><time>2026-03-30T07:58:38.001Z</time></trkpt><trkpt lat="40.25761612484651" lon="8.47930969565654"><ele>37.0</ele><time>2026-03-30T07:58:39.001Z</time></trkpt><trkpt lat="40.25749502191474" lon="8.479251804191136"><ele>37.0</ele><time>2026-03-30T07:58:40.001Z</time></trkpt><trkpt lat="40.25738163685863" lon="8.479192313325997"><ele>37.0</ele><time>2026-03-30T07:58:41.001Z</time></trkpt><trkpt lat="40.25727036179854" lon="8.479134247302143"><ele>37.5</ele><time>2026-03-30T07:58:42.001Z</time></trkpt><trkpt lat="40.25716097115499" lon="8.479081504706505"><ele>38.0</ele><time>2026-03-30T07:58:43.001Z</time></trkpt><trkpt lat="40.257051517181274" lon="8.479027706586576"><ele>38.5</ele><time>2026-03-30T07:58:44.001Z</time></trkpt><trkpt lat="40.256949852470385" lon="8.478974082653552"><ele>39.0</ele><time>2026-03-30T07:58:45.001Z</time></trkpt><trkpt lat="40.2568475803157" lon="8.478928199979453"><ele>39.0</ele><time>2026-03-30T07:58:46.001Z</time></trkpt><trkpt lat="40.256748676034846" lon="8.478882604413412"><ele>39.0</ele><time>2026-03-30T07:58:47.001Z</time></trkpt><trkpt lat="40.256648519680226" lon="8.478840945289978"><ele>39.0</ele><time>2026-03-30T07:58:48.001Z</time></trkpt><trkpt lat="40.25655437339078" lon="8.478799921115765"><ele>39.0</ele><time>2026-03-30T07:58:49.001Z</time></trkpt><trkpt lat="40.25645654454154" lon="8.478760593834107"><ele>39.0</ele><time>2026-03-30T07:58:50.001Z</time></trkpt><trkpt lat="40.25634697132752" lon="8.47873154111341"><ele>37.2</ele><time>2026-03-30T07:58:51.001Z</time></trkpt><trkpt lat="40.25623509191582" lon="8.478705532897724"><ele>35.4</ele><time>2026-03-30T07:58:52.001Z</time></trkpt><trkpt lat="40.256123524537784" lon="8.478676296617344"><ele>33.6</ele><time>2026-03-30T07:58:53.001Z</time></trkpt><trkpt lat="40.25601557763522" lon="8.4786495754962"><ele>31.8</ele><time>2026-03-30T07:58:54.001Z</time></trkpt><trkpt lat="40.25590791998397" lon="8.478624049449353"><ele>30.0</ele><time>2026-03-30T07:58:55.001Z</time></trkpt><trkpt lat="40.25580329740387" lon="8.478594388505844"><ele>30.0</ele><time>2026-03-30T07:58:56.001Z</time></trkpt><trkpt lat="40.255705793480075" lon="8.478558031260263"><ele>30.0</ele><time>2026-03-30T07:58:57.001Z</time></trkpt><trkpt lat="40.2556107970848" lon="8.478535182368116"><ele>30.0</ele><time>2026-03-30T07:58:58.001Z</time></trkpt><trkpt lat="40.25551912191475" lon="8.478518351366942"><ele>30.0</ele><time>2026-03-30T07:58:59.001Z</time></trkpt><trkpt lat="40.255422493270245" lon="8.478511297295874"><ele>30.0</ele><time>2026-03-30T07:59:00.001Z</time></trkpt><trkpt lat="40.25532061960854" lon="8.478511332735819"><ele>29.6</ele><time>2026-03-30T07:59:01.001Z</time></trkpt><trkpt lat="40.25521475799232" lon="8.478519588791617"><ele>29.2</ele><time>2026-03-30T07:59:02.001Z</time></trkpt><trkpt lat="40.255105740934034" lon="8.47851653681793"><ele>28.799999999999997</ele><time>2026-03-30T07:59:03.001Z</time></trkpt><trkpt lat="40.25499539509858" lon="8.478538694162273"><ele>28.4</ele><time>2026-03-30T07:59:04.001Z</time></trkpt><trkpt lat="40.25488742979517" lon="8.478586592150677"><ele>28.0</ele><time>2026-03-30T07:59:05.001Z</time></trkpt><trkpt lat="40.25477670923593" lon="8.47862257310578"><ele>27.5</ele><time>2026-03-30T07:59:06.001Z</time></trkpt><trkpt lat="40.25466346602417" lon="8.478668145095748"><ele>27.0</ele><time>2026-03-30T07:59:07.001Z</time></trkpt><trkpt lat="40.25455720262581" lon="8.47872462877069"><ele>26.5</ele><time>2026-03-30T07:59:08.001Z</time></trkpt><trkpt lat="40.25445153798915" lon="8.478783086195197"><ele>26.0</ele><time>2026-03-30T07:59:09.001Z</time></trkpt><trkpt lat="40.254353368641425" lon="8.478847165192454"><ele>28.0</ele><time>2026-03-30T07:59:10.001Z</time></trkpt><trkpt lat="40.254255259609245" lon="8.478908477503829"><ele>30.0</ele><time>2026-03-30T07:59:11.001Z</time></trkpt><trkpt lat="40.25415504318823" lon="8.478964353189463"><ele>32.0</ele><time>2026-03-30T07:59:12.001Z</time></trkpt><trkpt lat="40.25405691916978" lon="8.47901906869871"><ele>34.0</ele><time>2026-03-30T07:59:13.001Z</time></trkpt><trkpt lat="40.25396101191373" lon="8.47908474688027"><ele>36.0</ele><time>2026-03-30T07:59:14.001Z</time></trkpt><trkpt lat="40.25386796322619" lon="8.479143509866335"><ele>36.6</ele><time>2026-03-30T07:59:15.001Z</time></trkpt><trkpt lat="40.253770006061586" lon="8.479172961622023"><ele>37.2</ele><time>2026-03-30T07:59:16.001Z</time></trkpt><trkpt lat="40.2536685938093" lon="8.479170411764652"><ele>37.8</ele><time>2026-03-30T07:59:17.001Z</time></trkpt><trkpt lat="40.25357744870579" lon="8.479112348521847"><ele>38.4</ele><time>2026-03-30T07:59:18.001Z</time></trkpt><trkpt lat="40.25350775849965" lon="8.479011957751887"><ele>39.0</ele><time>2026-03-30T07:59:19.001Z</time></trkpt><trkpt lat="40.25345505347773" lon="8.478869959208577"><ele>37.75</ele><time>2026-03-30T07:59:20.001Z</time></trkpt><trkpt lat="40.253418882460096" lon="8.478687931623668"><ele>36.5</ele><time>2026-03-30T07:59:21.001Z</time></trkpt><trkpt lat="40.25338993252535" lon="8.478506331655545"><ele>35.25</ele><time>2026-03-30T07:59:22.001Z</time></trkpt><trkpt lat="40.25333339081898" lon="8.478351624021462"><ele>34.0</ele><time>2026-03-30T07:59:23.001Z</time></trkpt><trkpt lat="40.253267009719615" lon="8.478219831544463"><ele>34.0</ele><time>2026-03-30T07:59:24.001Z</time></trkpt><trkpt lat="40.25318349929585" lon="8.478120710210382"><ele>34.0</ele><time>2026-03-30T07:59:25.001Z</time></trkpt><trkpt lat="40.253081285009586" lon="8.478030884871204"><ele>34.0</ele><time>2026-03-30T07:59:26.001Z</time></trkpt><trkpt lat="40.252938843861635" lon="8.477957622110276"><ele>34.0</ele><time>2026-03-30T07:59:27.001Z</time></trkpt><trkpt lat="40.25278665229691" lon="8.477883375846762"><ele>32.333333333333336</ele><time>2026-03-30T07:59:28.001Z</time></trkpt><trkpt lat="40.25263126084047" lon="8.47780575457421"><ele>30.666666666666664</ele><time>2026-03-30T07:59:29.001Z</time></trkpt><trkpt lat="40.25246877054827" lon="8.477718557667073"><ele>29.0</ele><time>2026-03-30T07:59:30.001Z</time></trkpt><trkpt lat="40.2522941609706" lon="8.477626585910953"><ele>30.666666666666664</ele><time>2026-03-30T07:59:31.001Z</time></trkpt><trkpt lat="40.252123185523956" lon="8.477541902084967"><ele>32.333333333333336</ele><time>2026-03-30T07:59:32.001Z</time></trkpt><trkpt lat="40.25196046135867" lon="8.477459221066637"><ele>34.0</ele><time>2026-03-30T07:59:33.001Z</time></trkpt><trkpt lat="40.25180472769095" lon="8.47737836782256"><ele>34.0</ele><time>2026-03-30T07:59:34.001Z</time></trkpt><trkpt lat="40.25167577981085" lon="8.47730841793856"><ele>34.0</ele><time>2026-03-30T07:59:35.001Z</time></trkpt><trkpt lat="40.251543276907945" lon="8.477228739678953"><ele>34.0</ele><time>2026-03-30T07:59:36.001Z</time></trkpt><trkpt lat="40.25141666728387" lon="8.477163721772772"><ele>34.0</ele><time>2026-03-30T07:59:37.001Z</time></trkpt><trkpt lat="40.2512783593167" lon="8.477095115914928"><ele>31.333333333333336</ele><time>2026-03-30T07:59:38.001Z</time></trkpt><trkpt lat="40.25114401470982" lon="8.47702871809077"><ele>28.666666666666664</ele><time>2026-03-30T07:59:39.001Z</time></trkpt><trkpt lat="40.25099685530047" lon="8.476954928293084"><ele>26.0</ele><time>2026-03-30T07:59:40.001Z</time></trkpt><trkpt lat="40.25085575188593" lon="8.476882733762857"><ele>26.0</ele><time>2026-03-30T07:59:41.001Z</time></trkpt><trkpt lat="40.25072281004729" lon="8.47681471494335"><ele>26.0</ele><time>2026-03-30T07:59:42.001Z</time></trkpt><trkpt lat="40.25059857720866" lon="8.476760906061072"><ele>26.0</ele><time>2026-03-30T07:59:43.001Z</time></trkpt><trkpt lat="40.25049629629689" lon="8.476718713361025"><ele>26.0</ele><time>2026-03-30T07:59:44.001Z</time></trkpt><trkpt lat="40.2504738933057" lon="8.47662248081817"><ele>25.499999999999996</ele><time>2026-03-30T07:59:45.001Z</time></trkpt><trkpt lat="40.25043682072922" lon="8.47653255100451"><ele>25.0</ele><time>2026-03-30T07:59:46.001Z</time></trkpt><trkpt lat="40.25039472038546" lon="8.476445087880258"><ele>24.5</ele><time>2026-03-30T07:59:47.001Z</time></trkpt><trkpt lat="40.250349773209436" lon="8.476351664077411"><ele>24.0</ele><time>2026-03-30T07:59:48.001Z</time></trkpt><trkpt lat="40.250286738544006" lon="8.476252103810245"><ele>23.5</ele><time>2026-03-30T07:59:49.001Z</time></trkpt><trkpt lat="40.25020709103894" lon="8.47616835187135"><ele>23.0</ele><time>2026-03-30T07:59:50.001Z</time></trkpt><trkpt lat="40.25012758891309" lon="8.47611042084157"><ele>23.0</ele><time>2026-03-30T07:59:51.001Z</time></trkpt><trkpt lat="40.25002703546519" lon="8.47609722279603"><ele>23.0</ele><time>2026-03-30T07:59:52.001Z</time></trkpt><trkpt lat="40.24993450649652" lon="8.476094331408056"><ele>23.0</ele><time>2026-03-30T07:59:53.001Z</time></trkpt><trkpt lat="40.249835714094175" lon="8.476070272132214"><ele>23.0</ele><time>2026-03-30T07:59:54.001Z</time></trkpt><trkpt lat="40.24973052210036" lon="8.476059571873254"><ele>23.0</ele><time>2026-03-30T07:59:55.001Z</time></trkpt><trkpt lat="40.24962347398174" lon="8.47604841243465"><ele>23.4</ele><time>2026-03-30T07:59:56.001Z</time></trkpt><trkpt lat="40.2495151846538" lon="8.476034162251196"><ele>23.799999999999997</ele><time>2026-03-30T07:59:57.001Z</time></trkpt><trkpt lat="40.24940851162234" lon="8.476021290176528"><ele>24.2</ele><time>2026-03-30T07:59:58.001Z</time></trkpt><trkpt lat="40.24929206218611" lon="8.476004734718778"><ele>24.6</ele><time>2026-03-30T07:59:59.001Z</time></trkpt><trkpt lat="40.24918098720915" lon="8.47597553940256"><ele>25.0</ele><time>2026-03-30T08:00:00.001Z</time></trkpt><trkpt lat="40.24906588552863" lon="8.47596139796871"><ele>25.25</ele><time>2026-03-30T08:00:01.001Z</time></trkpt><trkpt lat="40.24894195934202" lon="8.475954887175606"><ele>25.5</ele><time>2026-03-30T08:00:02.001Z</time></trkpt><trkpt lat="40.248832045426234" lon="8.475931239368483"><ele>25.75</ele><time>2026-03-30T08:00:03.001Z</time></trkpt><trkpt lat="40.248720376835635" lon="8.475917183490541"><ele>26.0</ele><time>2026-03-30T08:00:04.001Z</time></trkpt><trkpt lat="40.24849747531845" lon="8.475890945950594"><ele>26.0</ele><time>2026-03-30T08:00:06.001Z</time></trkpt><trkpt lat="40.24837701707949" lon="8.475875918731523"><ele>26.0</ele><time>2026-03-30T08:00:07.001Z</time></trkpt><trkpt lat="40.248249533248675" lon="8.475849859939068"><ele>26.0</ele><time>2026-03-30T08:00:08.001Z</time></trkpt><trkpt lat="40.24811776554149" lon="8.475838959081894"><ele>26.0</ele><time>2026-03-30T08:00:09.001Z</time></trkpt><trkpt lat="40.24799694577131" lon="8.475818184269999"><ele>26.0</ele><time>2026-03-30T08:00:10.001Z</time></trkpt><trkpt lat="40.247881132177454" lon="8.475797143311667"><ele>26.0</ele><time>2026-03-30T08:00:11.001Z</time></trkpt><trkpt lat="40.24776829850949" lon="8.47578458960826"><ele>26.0</ele><time>2026-03-30T08:00:12.001Z</time></trkpt><trkpt lat="40.2476470159361" lon="8.475775256444496"><ele>26.0</ele><time>2026-03-30T08:00:13.001Z</time></trkpt><trkpt lat="40.24752395913904" lon="8.47576273606403"><ele>26.0</ele><time>2026-03-30T08:00:14.001Z</time></trkpt><trkpt lat="40.247395671434695" lon="8.475737061391557"><ele>26.0</ele><time>2026-03-30T08:00:15.001Z</time></trkpt><trkpt lat="40.24725998314232" lon="8.475711385244328"><ele>26.0</ele><time>2026-03-30T08:00:16.001Z</time></trkpt><trkpt lat="40.24712025385567" lon="8.475689891061561"><ele>26.0</ele><time>2026-03-30T08:00:17.001Z</time></trkpt><trkpt lat="40.246978456554075" lon="8.475673834908749"><ele>25.75</ele><time>2026-03-30T08:00:18.001Z</time></trkpt><trkpt lat="40.246840026179605" lon="8.475670674321323"><ele>25.5</ele><time>2026-03-30T08:00:19.001Z</time></trkpt><trkpt lat="40.24670251166269" lon="8.475694082990577"><ele>25.25</ele><time>2026-03-30T08:00:20.001Z</time></trkpt><trkpt lat="40.24656910516878" lon="8.475741627756966"><ele>25.0</ele><time>2026-03-30T08:00:21.001Z</time></trkpt><trkpt lat="40.246439163581265" lon="8.475807429979163"><ele>24.0</ele><time>2026-03-30T08:00:22.001Z</time></trkpt><trkpt lat="40.24631063814747" lon="8.475892508811881"><ele>23.0</ele><time>2026-03-30T08:00:23.001Z</time></trkpt><trkpt lat="40.24619161573154" lon="8.475975562711842"><ele>22.0</ele><time>2026-03-30T08:00:24.001Z</time></trkpt><trkpt lat="40.24606749699849" lon="8.476050096875136"><ele>21.0</ele><time>2026-03-30T08:00:25.001Z</time></trkpt><trkpt lat="40.24593964579837" lon="8.476117325806898"><ele>21.0</ele><time>2026-03-30T08:00:26.001Z</time></trkpt><trkpt lat="40.245812489176906" lon="8.476192205959872"><ele>21.0</ele><time>2026-03-30T08:00:27.001Z</time></trkpt><trkpt lat="40.245686514453816" lon="8.476270073132257"><ele>21.0</ele><time>2026-03-30T08:00:28.001Z</time></trkpt><trkpt lat="40.245565089810455" lon="8.476347124941185"><ele>21.0</ele><time>2026-03-30T08:00:29.001Z</time></trkpt><trkpt lat="40.245462792981066" lon="8.47643710856925"><ele>22.200000000000003</ele><time>2026-03-30T08:00:30.001Z</time></trkpt><trkpt lat="40.24538052424433" lon="8.476538151388212"><ele>23.400000000000002</ele><time>2026-03-30T08:00:31.001Z</time></trkpt><trkpt lat="40.245328673928" lon="8.476655941157151"><ele>24.6</ele><time>2026-03-30T08:00:32.001Z</time></trkpt><trkpt lat="40.24531375347058" lon="8.476795639640201"><ele>25.8</ele><time>2026-03-30T08:00:33.001Z</time></trkpt><trkpt lat="40.24533417320753" lon="8.476934325391694"><ele>27.0</ele><time>2026-03-30T08:00:34.001Z</time></trkpt><trkpt lat="40.24536344972198" lon="8.477062028024099"><ele>28.6</ele><time>2026-03-30T08:00:35.001Z</time></trkpt><trkpt lat="40.24545025191461" lon="8.477146104937086"><ele>30.200000000000003</ele><time>2026-03-30T08:00:36.001Z</time></trkpt><trkpt lat="40.245570118506635" lon="8.47716305669251"><ele>31.8</ele><time>2026-03-30T08:00:37Z</time></trkpt><trkpt lat="40.245677198029895" lon="8.477137272720034"><ele>33.4</ele><time>2026-03-30T08:00:38Z</time></trkpt><trkpt lat="40.24577373486907" lon="8.477087855664518"><ele>35.0</ele><time>2026-03-30T08:00:39Z</time></trkpt><trkpt lat="40.24586548127106" lon="8.477028061312243"><ele>35.0</ele><time>2026-03-30T08:00:40Z</time></trkpt><trkpt lat="40.245959659982695" lon="8.476973377589399"><ele>35.0</ele><time>2026-03-30T08:00:41Z</time></trkpt><trkpt lat="40.24605636912847" lon="8.476930170929508"><ele>35.0</ele><time>2026-03-30T08:00:42Z</time></trkpt><trkpt lat="40.24615154584472" lon="8.476886108090312"><ele>35.0</ele><time>2026-03-30T08:00:43Z</time></trkpt><trkpt lat="40.24625175777409" lon="8.47685286324126"><ele>35.0</ele><time>2026-03-30T08:00:44Z</time></trkpt><trkpt lat="40.24636071847166" lon="8.476847748248597"><ele>35.25</ele><time>2026-03-30T08:00:45Z</time></trkpt><trkpt lat="40.24647305272421" lon="8.47686075489711"><ele>35.5</ele><time>2026-03-30T08:00:46Z</time></trkpt><trkpt lat="40.246585194221986" lon="8.47689979148262"><ele>35.75</ele><time>2026-03-30T08:00:47Z</time></trkpt><trkpt lat="40.24670124155746" lon="8.476921019229962"><ele>36.0</ele><time>2026-03-30T08:00:48Z</time></trkpt><trkpt lat="40.24681763160161" lon="8.476942785273643"><ele>36.0</ele><time>2026-03-30T08:00:49Z</time></trkpt><trkpt lat="40.24693877584488" lon="8.476940724522487"><ele>36.0</ele><time>2026-03-30T08:00:50Z</time></trkpt><trkpt lat="40.24705260752178" lon="8.476978374585961"><ele>36.0</ele><time>2026-03-30T08:00:51Z</time></trkpt><trkpt lat="40.24717187939769" lon="8.47697441208751"><ele>36.0</ele><time>2026-03-30T08:00:52Z</time></trkpt><trkpt lat="40.24729010215988" lon="8.477005314048165"><ele>35.8</ele><time>2026-03-30T08:00:53Z</time></trkpt><trkpt lat="40.2474066296692" lon="8.477026801396018"><ele>35.6</ele><time>2026-03-30T08:00:54Z</time></trkpt><trkpt lat="40.247517823083854" lon="8.477046617281053"><ele>35.4</ele><time>2026-03-30T08:00:55Z</time></trkpt><trkpt lat="40.24762296856084" lon="8.477061406511877"><ele>35.2</ele><time>2026-03-30T08:00:56Z</time></trkpt><trkpt lat="40.247727606452436" lon="8.47706988568506"><ele>35.0</ele><time>2026-03-30T08:00:57Z</time></trkpt><trkpt lat="40.24782958777844" lon="8.477087211448989"><ele>37.2</ele><time>2026-03-30T08:00:58Z</time></trkpt><trkpt lat="40.24793029787757" lon="8.477102837867708"><ele>39.4</ele><time>2026-03-30T08:00:59Z</time></trkpt><trkpt lat="40.24803083300511" lon="8.47713602360335"><ele>41.599999999999994</ele><time>2026-03-30T08:01:00Z</time></trkpt><trkpt lat="40.24811334589255" lon="8.477182167897894"><ele>43.8</ele><time>2026-03-30T08:01:01Z</time></trkpt><trkpt lat="40.24818415324994" lon="8.477220074100618"><ele>46.0</ele><time>2026-03-30T08:01:02Z</time></trkpt><trkpt lat="40.24825824792081" lon="8.47725592673128"><ele>46.199999999999996</ele><time>2026-03-30T08:01:03Z</time></trkpt><trkpt lat="40.24834072571613" lon="8.47729381835635"><ele>46.4</ele><time>2026-03-30T08:01:04Z</time></trkpt><trkpt lat="40.24841652192747" lon="8.47736462073759"><ele>46.6</ele><time>2026-03-30T08:01:05Z</time></trkpt><trkpt lat="40.248501084840726" lon="8.477427623217727"><ele>46.8</ele><time>2026-03-30T08:01:06Z</time></trkpt><trkpt lat="40.248587837101226" lon="8.47748730293846"><ele>47.0</ele><time>2026-03-30T08:01:07Z</time></trkpt><trkpt lat="40.24866676409949" lon="8.477522399952111"><ele>47.0</ele><time>2026-03-30T08:01:08Z</time></trkpt><trkpt lat="40.248741062162985" lon="8.477570625831099"><ele>47.0</ele><time>2026-03-30T08:01:09Z</time></trkpt><trkpt lat="40.24881322861711" lon="8.477643853623698"><ele>47.0</ele><time>2026-03-30T08:01:10Z</time></trkpt><trkpt lat="40.24889994531625" lon="8.477679088952108"><ele>47.0</ele><time>2026-03-30T08:01:11Z</time></trkpt><trkpt lat="40.24898216642123" lon="8.47773539158378"><ele>47.0</ele><time>2026-03-30T08:01:12Z</time></trkpt><trkpt lat="40.24905956278536" lon="8.477806971256214"><ele>46.2</ele><time>2026-03-30T08:01:13Z</time></trkpt><trkpt lat="40.249147595174385" lon="8.477863102949188"><ele>45.400000000000006</ele><time>2026-03-30T08:01:14Z</time></trkpt><trkpt lat="40.24922759179224" lon="8.47793658916298"><ele>44.599999999999994</ele><time>2026-03-30T08:01:15Z</time></trkpt><trkpt lat="40.24931962547721" lon="8.477989071338229"><ele>43.8</ele><time>2026-03-30T08:01:16Z</time></trkpt><trkpt lat="40.249404389397526" lon="8.478059126021707"><ele>43.0</ele><time>2026-03-30T08:01:17Z</time></trkpt><trkpt lat="40.249496654315884" lon="8.478123926672698"><ele>44.4</ele><time>2026-03-30T08:01:18Z</time></trkpt><trkpt lat="40.24958743323272" lon="8.478192480442699"><ele>45.8</ele><time>2026-03-30T08:01:19Z</time></trkpt><trkpt lat="40.24967934015592" lon="8.478260248775474"><ele>47.2</ele><time>2026-03-30T08:01:20Z</time></trkpt><trkpt lat="40.2497702761343" lon="8.478334380907118"><ele>48.6</ele><time>2026-03-30T08:01:21Z</time></trkpt><trkpt lat="40.24984685106748" lon="8.478422660647292"><ele>50.0</ele><time>2026-03-30T08:01:22Z</time></trkpt><trkpt lat="40.24991551384756" lon="8.478529286941626"><ele>50.0</ele><time>2026-03-30T08:01:23Z</time></trkpt><trkpt lat="40.24997107211666" lon="8.478648192302698"><ele>50.0</ele><time>2026-03-30T08:01:24Z</time></trkpt><trkpt lat="40.25001334770038" lon="8.478779451290256"><ele>50.0</ele><time>2026-03-30T08:01:25Z</time></trkpt><trkpt lat="40.25005125391209" lon="8.478914815696122"><ele>50.0</ele><time>2026-03-30T08:01:26Z</time></trkpt><trkpt lat="40.25009490448015" lon="8.47904807759701"><ele>50.0</ele><time>2026-03-30T08:01:27Z</time></trkpt><trkpt lat="40.250159392949406" lon="8.479168815571967"><ele>52.75</ele><time>2026-03-30T08:01:28Z</time></trkpt><trkpt lat="40.25024674444522" lon="8.479282480917846"><ele>55.5</ele><time>2026-03-30T08:01:29Z</time></trkpt><trkpt lat="40.25035810473119" lon="8.479362988561405"><ele>58.25</ele><time>2026-03-30T08:01:30Z</time></trkpt><trkpt lat="40.25047331380089" lon="8.479413768965363"><ele>61.0</ele><time>2026-03-30T08:01:31Z</time></trkpt><trkpt lat="40.25059971199457" lon="8.479425169527318"><ele>60.0</ele><time>2026-03-30T08:01:32Z</time></trkpt><trkpt lat="40.25073383479037" lon="8.479413964722232"><ele>59.0</ele><time>2026-03-30T08:01:33Z</time></trkpt><trkpt lat="40.250863996606576" lon="8.479407142538506"><ele>58.0</ele><time>2026-03-30T08:01:34Z</time></trkpt><trkpt lat="40.25098975335702" lon="8.479411909909981"><ele>57.0</ele><time>2026-03-30T08:01:35Z</time></trkpt><trkpt lat="40.251112428265856" lon="8.47946519538171"><ele>57.0</ele><time>2026-03-30T08:01:36Z</time></trkpt><trkpt lat="40.251222522104094" lon="8.479532133707394"><ele>57.0</ele><time>2026-03-30T08:01:37Z</time></trkpt><trkpt lat="40.25132885490249" lon="8.479616066546194"><ele>57.0</ele><time>2026-03-30T08:01:38Z</time></trkpt><trkpt lat="40.2514473849939" lon="8.47970142560348"><ele>57.0</ele><time>2026-03-30T08:01:39Z</time></trkpt><trkpt lat="40.251551851391845" lon="8.479804656027438"><ele>59.75</ele><time>2026-03-30T08:01:40Z</time></trkpt><trkpt lat="40.25165434258678" lon="8.479910533071418"><ele>62.5</ele><time>2026-03-30T08:01:41Z</time></trkpt><trkpt lat="40.25176334269773" lon="8.48000522591985"><ele>65.25</ele><time>2026-03-30T08:01:42.001Z</time></trkpt><trkpt lat="40.25186841294267" lon="8.4801028530947"><ele>68.0</ele><time>2026-03-30T08:01:43Z</time></trkpt><trkpt lat="40.25196520982172" lon="8.48019666435515"><ele>68.0</ele><time>2026-03-30T08:01:44Z</time></trkpt><trkpt lat="40.25205401943908" lon="8.48028639388344"><ele>68.0</ele><time>2026-03-30T08:01:45Z</time></trkpt><trkpt lat="40.252135816452366" lon="8.48038084463778"><ele>68.0</ele><time>2026-03-30T08:01:46Z</time></trkpt><trkpt lat="40.25220469181979" lon="8.480495228197698"><ele>68.0</ele><time>2026-03-30T08:01:47Z</time></trkpt><trkpt lat="40.252263420103944" lon="8.4806232458546"><ele>68.0</ele><time>2026-03-30T08:01:48Z</time></trkpt><trkpt lat="40.25229282293206" lon="8.48076137813887"><ele>71.25</ele><time>2026-03-30T08:01:49Z</time></trkpt><trkpt lat="40.252279551257836" lon="8.48091178501319"><ele>74.5</ele><time>2026-03-30T08:01:50Z</time></trkpt><trkpt lat="40.252282179177655" lon="8.481060811900335"><ele>77.75</ele><time>2026-03-30T08:01:51Z</time></trkpt><trkpt lat="40.252234304437756" lon="8.481198561958053"><ele>81.0</ele><time>2026-03-30T08:01:52Z</time></trkpt><trkpt lat="40.25220391584747" lon="8.48134865969176"><ele>83.75</ele><time>2026-03-30T08:01:53Z</time></trkpt><trkpt lat="40.25215043111048" lon="8.4814880576549"><ele>86.5</ele><time>2026-03-30T08:01:54Z</time></trkpt><trkpt lat="40.25210391416021" lon="8.481630887816754"><ele>89.25</ele><time>2026-03-30T08:01:55Z</time></trkpt><trkpt lat="40.25204786440199" lon="8.481766888620236"><ele>92.0</ele><time>2026-03-30T08:01:56Z</time></trkpt><trkpt lat="40.252017561015705" lon="8.481913484752363"><ele>92.0</ele><time>2026-03-30T08:01:57Z</time></trkpt><trkpt lat="40.252017280887415" lon="8.482065808273047"><ele>92.0</ele><time>2026-03-30T08:01:58Z</time></trkpt><trkpt lat="40.25204831141194" lon="8.48221376506753"><ele>92.0</ele><time>2026-03-30T08:01:59Z</time></trkpt><trkpt lat="40.252111439342485" lon="8.482344050816682"><ele>92.0</ele><time>2026-03-30T08:02:00Z</time></trkpt><trkpt lat="40.25218900917916" lon="8.482448483268326"><ele>91.75</ele><time>2026-03-30T08:02:01Z</time></trkpt><trkpt lat="40.25228292559879" lon="8.482521136441504"><ele>91.5</ele><time>2026-03-30T08:02:02Z</time></trkpt><trkpt lat="40.25239546283652" lon="8.482553767462825"><ele>91.25</ele><time>2026-03-30T08:02:03Z</time></trkpt><trkpt lat="40.25251306672678" lon="8.482560462486132"><ele>91.0</ele><time>2026-03-30T08:02:04Z</time></trkpt><trkpt lat="40.2526305789365" lon="8.482537124477737"><ele>91.0</ele><time>2026-03-30T08:02:05Z</time></trkpt><trkpt lat="40.25274021842422" lon="8.482479833112935"><ele>91.0</ele><time>2026-03-30T08:02:06Z</time></trkpt><trkpt lat="40.25284390339234" lon="8.482410181727593"><ele>91.0</ele><time>2026-03-30T08:02:07Z</time></trkpt><trkpt lat="40.25295391197458" lon="8.482359719764467"><ele>91.0</ele><time>2026-03-30T08:02:08Z</time></trkpt><trkpt lat="40.253064932452276" lon="8.482320512950954"><ele>94.0</ele><time>2026-03-30T08:02:09Z</time></trkpt><trkpt lat="40.25318382827467" lon="8.482295337400737"><ele>97.0</ele><time>2026-03-30T08:02:10Z</time></trkpt><trkpt lat="40.25330428718832" lon="8.482281841158983"><ele>100.0</ele><time>2026-03-30T08:02:11Z</time></trkpt><trkpt lat="40.253422803035164" lon="8.482293098194447"><ele>103.0</ele><time>2026-03-30T08:02:12Z</time></trkpt><trkpt lat="40.25353940438648" lon="8.482266092488272"><ele>103.0</ele><time>2026-03-30T08:02:13Z</time></trkpt><trkpt lat="40.25365558191637" lon="8.482266727879898"><ele>103.0</ele><time>2026-03-30T08:02:14Z</time></trkpt><trkpt lat="40.25377303894433" lon="8.482261676751378"><ele>103.0</ele><time>2026-03-30T08:02:15Z</time></trkpt><trkpt lat="40.2538878953888" lon="8.482252368990675"><ele>103.0</ele><time>2026-03-30T08:02:16.001Z</time></trkpt><trkpt lat="40.25400470023378" lon="8.482236855121938"><ele>104.25</ele><time>2026-03-30T08:02:17.001Z</time></trkpt><trkpt lat="40.254121151460225" lon="8.482246158506397"><ele>105.5</ele><time>2026-03-30T08:02:18.001Z</time></trkpt><trkpt lat="40.25423642434963" lon="8.482225992443803"><ele>106.75</ele><time>2026-03-30T08:02:19.001Z</time></trkpt><trkpt lat="40.25434879702026" lon="8.48223773225614"><ele>108.0</ele><time>2026-03-30T08:02:20.001Z</time></trkpt><trkpt lat="40.254452103460565" lon="8.482297975177847"><ele>108.0</ele><time>2026-03-30T08:02:21.001Z</time></trkpt><trkpt lat="40.254542953225645" lon="8.48237804509"><ele>108.00000000000001</ele><time>2026-03-30T08:02:22.001Z</time></trkpt><trkpt lat="40.254611985799066" lon="8.482483828331898"><ele>108.00000000000001</ele><time>2026-03-30T08:02:23.001Z</time></trkpt><trkpt lat="40.25466050368918" lon="8.482592602844825"><ele>108.0</ele><time>2026-03-30T08:02:24.001Z</time></trkpt><trkpt lat="40.25468965011211" lon="8.482717399620535"><ele>108.0</ele><time>2026-03-30T08:02:25.001Z</time></trkpt><trkpt lat="40.2546917415243" lon="8.482839869598017"><ele>110.2</ele><time>2026-03-30T08:02:26.001Z</time></trkpt><trkpt lat="40.2546624550774" lon="8.482954744941578"><ele>112.4</ele><time>2026-03-30T08:02:27.001Z</time></trkpt><trkpt lat="40.254604174217846" lon="8.48306921076542"><ele>114.60000000000001</ele><time>2026-03-30T08:02:28.001Z</time></trkpt><trkpt lat="40.254513818133304" lon="8.483160185874866"><ele>116.80000000000001</ele><time>2026-03-30T08:02:29.001Z</time></trkpt><trkpt lat="40.254408877052114" lon="8.483264526864643"><ele>119.0</ele><time>2026-03-30T08:02:30.001Z</time></trkpt><trkpt lat="40.25429904206354" lon="8.483374000359138"><ele>119.0</ele><time>2026-03-30T08:02:31.001Z</time></trkpt><trkpt lat="40.254197681490965" lon="8.483506553098358"><ele>119.0</ele><time>2026-03-30T08:02:32.001Z</time></trkpt><trkpt lat="40.25408275560263" lon="8.483621463230463"><ele>119.0</ele><time>2026-03-30T08:02:33.001Z</time></trkpt><trkpt lat="40.25397249899675" lon="8.483748007722442"><ele>119.0</ele><time>2026-03-30T08:02:34.001Z</time></trkpt><trkpt lat="40.25386940504826" lon="8.483893608850837"><ele>119.66666666666666</ele><time>2026-03-30T08:02:35.001Z</time></trkpt><trkpt lat="40.253776663915446" lon="8.484058546646896"><ele>120.33333333333334</ele><time>2026-03-30T08:02:36.001Z</time></trkpt><trkpt lat="40.25368964399847" lon="8.484224364550892"><ele>121.0</ele><time>2026-03-30T08:02:37.001Z</time></trkpt><trkpt lat="40.25358374421491" lon="8.484404924629008"><ele>121.0</ele><time>2026-03-30T08:02:38.001Z</time></trkpt><trkpt lat="40.25349112819605" lon="8.484584502654787"><ele>121.0</ele><time>2026-03-30T08:02:39.001Z</time></trkpt><trkpt lat="40.253401630349295" lon="8.48475468013589"><ele>121.0</ele><time>2026-03-30T08:02:40.001Z</time></trkpt><trkpt lat="40.25331573986803" lon="8.48492284487462"><ele>121.25</ele><time>2026-03-30T08:02:41.001Z</time></trkpt><trkpt lat="40.25323074126754" lon="8.485084998787837"><ele>121.5</ele><time>2026-03-30T08:02:42Z</time></trkpt><trkpt lat="40.25314927430323" lon="8.485246475148834"><ele>121.75</ele><time>2026-03-30T08:02:43Z</time></trkpt><trkpt lat="40.25307045719596" lon="8.485412517534813"><ele>122.0</ele><time>2026-03-30T08:02:44Z</time></trkpt><trkpt lat="40.25300131553561" lon="8.485588662244302"><ele>124.0</ele><time>2026-03-30T08:02:45Z</time></trkpt><trkpt lat="40.25294554156805" lon="8.485766295556253"><ele>126.0</ele><time>2026-03-30T08:02:46Z</time></trkpt><trkpt lat="40.25288696151496" lon="8.48594228031079"><ele>128.0</ele><time>2026-03-30T08:02:47Z</time></trkpt><trkpt lat="40.25282510192942" lon="8.486113848484667"><ele>130.0</ele><time>2026-03-30T08:02:48Z</time></trkpt><trkpt lat="40.252770401837985" lon="8.486270654523507"><ele>132.75</ele><time>2026-03-30T08:02:49Z</time></trkpt><trkpt lat="40.25271622788328" lon="8.486419366329365"><ele>135.5</ele><time>2026-03-30T08:02:50Z</time></trkpt><trkpt lat="40.25266017298072" lon="8.486564383252274"><ele>138.25</ele><time>2026-03-30T08:02:51Z</time></trkpt><trkpt lat="40.25257969551115" lon="8.48669910512394"><ele>141.0</ele><time>2026-03-30T08:02:52Z</time></trkpt><trkpt lat="40.25248231119923" lon="8.486823113206345"><ele>141.0</ele><time>2026-03-30T08:02:53Z</time></trkpt><trkpt lat="40.25237234990314" lon="8.486941560487821"><ele>141.0</ele><time>2026-03-30T08:02:54Z</time></trkpt><trkpt lat="40.25225515423839" lon="8.487053041544423"><ele>141.0</ele><time>2026-03-30T08:02:55Z</time></trkpt><trkpt lat="40.252136247689016" lon="8.487159883830463"><ele>141.0</ele><time>2026-03-30T08:02:56Z</time></trkpt><trkpt lat="40.25201378345283" lon="8.487265920251641"><ele>142.75</ele><time>2026-03-30T08:02:57Z</time></trkpt><trkpt lat="40.251896475439736" lon="8.48737477837243"><ele>144.5</ele><time>2026-03-30T08:02:58Z</time></trkpt><trkpt lat="40.25178071019567" lon="8.487484503272881"><ele>146.25</ele><time>2026-03-30T08:02:59Z</time></trkpt><trkpt lat="40.251663112937386" lon="8.487588265154569"><ele>148.0</ele><time>2026-03-30T08:03:00Z</time></trkpt><trkpt lat="40.2515541278821" lon="8.487693152960802"><ele>149.25</ele><time>2026-03-30T08:03:01Z</time></trkpt><trkpt lat="40.25144205605685" lon="8.48780058713872"><ele>150.5</ele><time>2026-03-30T08:03:02Z</time></trkpt><trkpt lat="40.25133088696192" lon="8.487903380452645"><ele>151.75</ele><time>2026-03-30T08:03:03Z</time></trkpt><trkpt lat="40.251218458272454" lon="8.488007244950754"><ele>153.0</ele><time>2026-03-30T08:03:04Z</time></trkpt><trkpt lat="40.251107626699515" lon="8.488113019257918"><ele>153.75</ele><time>2026-03-30T08:03:05Z</time></trkpt><trkpt lat="40.25100094020088" lon="8.488223216385139"><ele>154.5</ele><time>2026-03-30T08:03:06Z</time></trkpt><trkpt lat="40.250905855565534" lon="8.488349026338039"><ele>155.25</ele><time>2026-03-30T08:03:07Z</time></trkpt><trkpt lat="40.25083284569765" lon="8.488493545496155"><ele>156.0</ele><time>2026-03-30T08:03:08Z</time></trkpt><trkpt lat="40.25078191908637" lon="8.488653002231818"><ele>156.75</ele><time>2026-03-30T08:03:09Z</time></trkpt><trkpt lat="40.250760281202844" lon="8.488813559413204"><ele>157.5</ele><time>2026-03-30T08:03:10Z</time></trkpt><trkpt lat="40.25075202849213" lon="8.488963523427811"><ele>158.25</ele><time>2026-03-30T08:03:11Z</time></trkpt><trkpt lat="40.25074875600627" lon="8.489099234189394"><ele>159.0</ele><time>2026-03-30T08:03:12Z</time></trkpt><trkpt lat="40.25075198229683" lon="8.489239195151965"><ele>159.0</ele><time>2026-03-30T08:03:13Z</time></trkpt><trkpt lat="40.25074876598462" lon="8.489385931163218"><ele>159.0</ele><time>2026-03-30T08:03:14Z</time></trkpt><trkpt lat="40.25074955009165" lon="8.489533357713462"><ele>159.0</ele><time>2026-03-30T08:03:15Z</time></trkpt><trkpt lat="40.250745991851744" lon="8.489688283164268"><ele>159.0</ele><time>2026-03-30T08:03:16Z</time></trkpt><trkpt lat="40.25072616038242" lon="8.489846991948305"><ele>159.75</ele><time>2026-03-30T08:03:17Z</time></trkpt><trkpt lat="40.25072404488041" lon="8.490010792808699"><ele>160.5</ele><time>2026-03-30T08:03:18Z</time></trkpt><trkpt lat="40.25071531867776" lon="8.490177559240738"><ele>161.25</ele><time>2026-03-30T08:03:19Z</time></trkpt><trkpt lat="40.250713411986126" lon="8.490346051860335"><ele>162.0</ele><time>2026-03-30T08:03:20Z</time></trkpt><trkpt lat="40.25071127071596" lon="8.490511611635682"><ele>162.75</ele><time>2026-03-30T08:03:21Z</time></trkpt><trkpt lat="40.2507030114146" lon="8.4906794709321"><ele>163.5</ele><time>2026-03-30T08:03:22Z</time></trkpt><trkpt lat="40.25069697372974" lon="8.490848203799981"><ele>164.25</ele><time>2026-03-30T08:03:23Z</time></trkpt><trkpt lat="40.25068849998836" lon="8.49101525415327"><ele>165.0</ele><time>2026-03-30T08:03:24Z</time></trkpt><trkpt lat="40.25068130000387" lon="8.491183165478168"><ele>165.25</ele><time>2026-03-30T08:03:25Z</time></trkpt><trkpt lat="40.250676989536124" lon="8.491353428753586"><ele>165.5</ele><time>2026-03-30T08:03:26Z</time></trkpt><trkpt lat="40.25067731320919" lon="8.491522865109806"><ele>165.75</ele><time>2026-03-30T08:03:27Z</time></trkpt><trkpt lat="40.250668208404846" lon="8.491690505430345"><ele>166.0</ele><time>2026-03-30T08:03:28Z</time></trkpt><trkpt lat="40.25066483451847" lon="8.491860983974131"><ele>166.0</ele><time>2026-03-30T08:03:29Z</time></trkpt><trkpt lat="40.25065602431945" lon="8.492031376611017"><ele>166.0</ele><time>2026-03-30T08:03:30Z</time></trkpt><trkpt lat="40.2506548129272" lon="8.492200240813746"><ele>166.0</ele><time>2026-03-30T08:03:31Z</time></trkpt><trkpt lat="40.250668178331665" lon="8.492373543116678"><ele>166.0</ele><time>2026-03-30T08:03:32Z</time></trkpt><trkpt lat="40.25069775413371" lon="8.49254274686089"><ele>166.75</ele><time>2026-03-30T08:03:33Z</time></trkpt><trkpt lat="40.25074377463479" lon="8.492703886004891"><ele>167.5</ele><time>2026-03-30T08:03:34Z</time></trkpt><trkpt lat="40.250803291043134" lon="8.492856390293305"><ele>168.25</ele><time>2026-03-30T08:03:35Z</time></trkpt><trkpt lat="40.25087389026107" lon="8.493005416804069"><ele>169.0</ele><time>2026-03-30T08:03:36Z</time></trkpt><trkpt lat="40.2509598154762" lon="8.493142361396357"><ele>169.25</ele><time>2026-03-30T08:03:37Z</time></trkpt><trkpt lat="40.25104362015586" lon="8.493276394991518"><ele>169.5</ele><time>2026-03-30T08:03:38Z</time></trkpt><trkpt lat="40.251130544205935" lon="8.49340999662041"><ele>169.75</ele><time>2026-03-30T08:03:39Z</time></trkpt><trkpt lat="40.25121761396629" lon="8.49354496718653"><ele>170.0</ele><time>2026-03-30T08:03:40Z</time></trkpt><trkpt lat="40.25129347608356" lon="8.493683818756955"><ele>170.0</ele><time>2026-03-30T08:03:41Z</time></trkpt><trkpt lat="40.25136715372143" lon="8.493833360684928"><ele>170.0</ele><time>2026-03-30T08:03:42Z</time></trkpt><trkpt lat="40.25143554103602" lon="8.493980417365552"><ele>170.0</ele><time>2026-03-30T08:03:43Z</time></trkpt><trkpt lat="40.2515057770894" lon="8.494130492196064"><ele>170.0</ele><time>2026-03-30T08:03:44Z</time></trkpt><trkpt lat="40.251573444588296" lon="8.494280894944223"><ele>169.75</ele><time>2026-03-30T08:03:45Z</time></trkpt><trkpt lat="40.251639732634956" lon="8.494440733113917"><ele>169.5</ele><time>2026-03-30T08:03:46Z</time></trkpt><trkpt lat="40.251705385279" lon="8.494596760778997"><ele>169.25</ele><time>2026-03-30T08:03:47Z</time></trkpt><trkpt lat="40.25177383970737" lon="8.494755048435081"><ele>169.0</ele><time>2026-03-30T08:03:48Z</time></trkpt><trkpt lat="40.25184566069197" lon="8.494914820565985"><ele>169.0</ele><time>2026-03-30T08:03:49Z</time></trkpt><trkpt lat="40.251916410682846" lon="8.495078229657418"><ele>169.0</ele><time>2026-03-30T08:03:50Z</time></trkpt><trkpt lat="40.25199259470414" lon="8.495238145521819"><ele>169.0</ele><time>2026-03-30T08:03:51Z</time></trkpt><trkpt lat="40.25207110481914" lon="8.495399708920061"><ele>169.0</ele><time>2026-03-30T08:03:52Z</time></trkpt><trkpt lat="40.25214479708833" lon="8.495558997347691"><ele>169.25</ele><time>2026-03-30T08:03:53Z</time></trkpt><trkpt lat="40.25221625995483" lon="8.495725057986709"><ele>169.5</ele><time>2026-03-30T08:03:54Z</time></trkpt><trkpt lat="40.252288582998155" lon="8.495889308351627"><ele>169.75</ele><time>2026-03-30T08:03:55Z</time></trkpt><trkpt lat="40.252361449474044" lon="8.496052184075758"><ele>170.0</ele><time>2026-03-30T08:03:56Z</time></trkpt><trkpt lat="40.25242948372373" lon="8.496215679294538"><ele>169.75</ele><time>2026-03-30T08:03:57Z</time></trkpt><trkpt lat="40.252496106322006" lon="8.4963764207564"><ele>169.5</ele><time>2026-03-30T08:03:58Z</time></trkpt><trkpt lat="40.252561972552336" lon="8.496544280012404"><ele>169.25</ele><time>2026-03-30T08:03:59Z</time></trkpt><trkpt lat="40.25263630062053" lon="8.496690008680902"><ele>169.0</ele><time>2026-03-30T08:04:00Z</time></trkpt><trkpt lat="40.25270959255522" lon="8.49684331784439"><ele>169.0</ele><time>2026-03-30T08:04:01Z</time></trkpt><trkpt lat="40.2527817372682" lon="8.496997895095511"><ele>169.0</ele><time>2026-03-30T08:04:02Z</time></trkpt><trkpt lat="40.25285443855782" lon="8.497152600773676"><ele>169.0</ele><time>2026-03-30T08:04:03Z</time></trkpt><trkpt lat="40.25292297406217" lon="8.49730879689006"><ele>169.0</ele><time>2026-03-30T08:04:04Z</time></trkpt><trkpt lat="40.25298788036771" lon="8.49747601714551"><ele>169.5</ele><time>2026-03-30T08:04:05Z</time></trkpt><trkpt lat="40.253055932366415" lon="8.49764282610088"><ele>170.0</ele><time>2026-03-30T08:04:06Z</time></trkpt><trkpt lat="40.25312841507329" lon="8.49781317725017"><ele>170.5</ele><time>2026-03-30T08:04:07Z</time></trkpt><trkpt lat="40.253200528783715" lon="8.49798511927343"><ele>171.0</ele><time>2026-03-30T08:04:08Z</time></trkpt><trkpt lat="40.25324739683609" lon="8.49816907911375"><ele>173.25</ele><time>2026-03-30T08:04:09Z</time></trkpt><trkpt lat="40.25327999996732" lon="8.498354511491085"><ele>175.5</ele><time>2026-03-30T08:04:10Z</time></trkpt><trkpt lat="40.253293681782935" lon="8.498546749084648"><ele>177.75</ele><time>2026-03-30T08:04:11Z</time></trkpt><trkpt lat="40.253303671715" lon="8.498749742571178"><ele>180.0</ele><time>2026-03-30T08:04:12Z</time></trkpt><trkpt lat="40.253320912333386" lon="8.498955293729509"><ele>180.0</ele><time>2026-03-30T08:04:13Z</time></trkpt><trkpt lat="40.253323135695844" lon="8.499163569390292"><ele>180.0</ele><time>2026-03-30T08:04:14Z</time></trkpt><trkpt lat="40.25333628843479" lon="8.499382333545793"><ele>180.0</ele><time>2026-03-30T08:04:15Z</time></trkpt><trkpt lat="40.253349677670855" lon="8.499600698390282"><ele>179.66666666666666</ele><time>2026-03-30T08:04:16Z</time></trkpt><trkpt lat="40.253343854187484" lon="8.4998221905047"><ele>179.33333333333331</ele><time>2026-03-30T08:04:17Z</time></trkpt><trkpt lat="40.25336625747788" lon="8.50003270687141"><ele>179.0</ele><time>2026-03-30T08:04:18Z</time></trkpt><trkpt lat="40.25337816490596" lon="8.500257195067844"><ele>178.0</ele><time>2026-03-30T08:04:19Z</time></trkpt><trkpt lat="40.25338265639977" lon="8.50048407210964"><ele>177.0</ele><time>2026-03-30T08:04:20Z</time></trkpt><trkpt lat="40.25339109433162" lon="8.500713808095448"><ele>176.0</ele><time>2026-03-30T08:04:21Z</time></trkpt><trkpt lat="40.25339268890898" lon="8.500939150600773"><ele>176.0</ele><time>2026-03-30T08:04:22Z</time></trkpt><trkpt lat="40.25335780859536" lon="8.501157001787513"><ele>176.0</ele><time>2026-03-30T08:04:23Z</time></trkpt><trkpt lat="40.25332833487486" lon="8.501375610499828"><ele>176.0</ele><time>2026-03-30T08:04:24Z</time></trkpt><trkpt lat="40.25331583469171" lon="8.501598968805212"><ele>176.0</ele><time>2026-03-30T08:04:25Z</time></trkpt><trkpt lat="40.253282438235864" lon="8.501817445986264"><ele>176.0</ele><time>2026-03-30T08:04:26Z</time></trkpt><trkpt lat="40.253251851569246" lon="8.502037447472782"><ele>176.0</ele><time>2026-03-30T08:04:27Z</time></trkpt><trkpt lat="40.253226673612005" lon="8.502260566884335"><ele>175.66666666666666</ele><time>2026-03-30T08:04:28Z</time></trkpt><trkpt lat="40.25320170919366" lon="8.502483887752591"><ele>175.33333333333334</ele><time>2026-03-30T08:04:29.001Z</time></trkpt><trkpt lat="40.253173036132566" lon="8.502703802551542"><ele>175.0</ele><time>2026-03-30T08:04:30Z</time></trkpt><trkpt lat="40.253145764388634" lon="8.502917146914507"><ele>172.33333333333334</ele><time>2026-03-30T08:04:31.001Z</time></trkpt><trkpt lat="40.253115669438685" lon="8.503117500940824"><ele>169.66666666666666</ele><time>2026-03-30T08:04:32.001Z</time></trkpt><trkpt lat="40.25307741075336" lon="8.503314976333426"><ele>167.0</ele><time>2026-03-30T08:04:33.001Z</time></trkpt><trkpt lat="40.25299562412474" lon="8.503483245710504"><ele>167.0</ele><time>2026-03-30T08:04:34.001Z</time></trkpt><trkpt lat="40.25290439030895" lon="8.503637974449822"><ele>167.0</ele><time>2026-03-30T08:04:35.001Z</time></trkpt><trkpt lat="40.25278309636476" lon="8.503767614308899"><ele>167.0</ele><time>2026-03-30T08:04:36.001Z</time></trkpt><trkpt lat="40.25263576061488" lon="8.5038495944318"><ele>165.66666666666666</ele><time>2026-03-30T08:04:37.001Z</time></trkpt><trkpt lat="40.252476557504565" lon="8.5039211681576"><ele>164.33333333333334</ele><time>2026-03-30T08:04:38.001Z</time></trkpt><trkpt lat="40.25231423410921" lon="8.503996421002576"><ele>163.0</ele><time>2026-03-30T08:04:39.001Z</time></trkpt><trkpt lat="40.2521620631132" lon="8.504093591226432"><ele>161.0</ele><time>2026-03-30T08:04:40.001Z</time></trkpt><trkpt lat="40.25201632736577" lon="8.504188405984268"><ele>159.0</ele><time>2026-03-30T08:04:41.001Z</time></trkpt><trkpt lat="40.25188108409944" lon="8.504314157639117"><ele>157.0</ele><time>2026-03-30T08:04:42.001Z</time></trkpt><trkpt lat="40.251759492572056" lon="8.50447251655589"><ele>155.66666666666669</ele><time>2026-03-30T08:04:43.001Z</time></trkpt><trkpt lat="40.25164584429015" lon="8.504650502594847"><ele>154.33333333333334</ele><time>2026-03-30T08:04:44.001Z</time></trkpt><trkpt lat="40.25153145897968" lon="8.504830164580913"><ele>153.0</ele><time>2026-03-30T08:04:45.001Z</time></trkpt><trkpt lat="40.251415892204584" lon="8.505005745445075"><ele>151.66666666666666</ele><time>2026-03-30T08:04:46.001Z</time></trkpt><trkpt lat="40.25129735760478" lon="8.505173495556233"><ele>150.33333333333331</ele><time>2026-03-30T08:04:47.001Z</time></trkpt><trkpt lat="40.25117492859802" lon="8.505342552229079"><ele>149.0</ele><time>2026-03-30T08:04:48.001Z</time></trkpt><trkpt lat="40.25106015211867" lon="8.505518979848064"><ele>148.66666666666666</ele><time>2026-03-30T08:04:49.001Z</time></trkpt><trkpt lat="40.250956687154485" lon="8.505681157515403"><ele>148.33333333333334</ele><time>2026-03-30T08:04:50.001Z</time></trkpt><trkpt lat="40.25084661788193" lon="8.505820094549081"><ele>148.0</ele><time>2026-03-30T08:04:51.001Z</time></trkpt><trkpt lat="40.25076226805196" lon="8.505990477589052"><ele>148.0</ele><time>2026-03-30T08:04:52.001Z</time></trkpt><trkpt lat="40.250682800371344" lon="8.506159872865092"><ele>148.0</ele><time>2026-03-30T08:04:53.001Z</time></trkpt><trkpt lat="40.250631164021954" lon="8.506344954919534"><ele>148.0</ele><time>2026-03-30T08:04:54.001Z</time></trkpt><trkpt lat="40.25060287203508" lon="8.506538943883754"><ele>149.33333333333334</ele><time>2026-03-30T08:04:55.001Z</time></trkpt><trkpt lat="40.25059645993469" lon="8.506741219098611"><ele>150.66666666666666</ele><time>2026-03-30T08:04:56.001Z</time></trkpt><trkpt lat="40.25060769065832" lon="8.506939215239056"><ele>152.0</ele><time>2026-03-30T08:04:57.001Z</time></trkpt><trkpt lat="40.250639254311714" lon="8.507141572059414"><ele>152.66666666666666</ele><time>2026-03-30T08:04:58.001Z</time></trkpt><trkpt lat="40.25068931814009" lon="8.507338689390545"><ele>153.33333333333334</ele><time>2026-03-30T08:04:59.001Z</time></trkpt><trkpt lat="40.25074960960354" lon="8.507535518128387"><ele>154.0</ele><time>2026-03-30T08:05:00.001Z</time></trkpt><trkpt lat="40.250789506608925" lon="8.507744844718973"><ele>156.0</ele><time>2026-03-30T08:05:01.001Z</time></trkpt><trkpt lat="40.25085758774346" lon="8.50794134624521"><ele>158.0</ele><time>2026-03-30T08:05:02.001Z</time></trkpt><trkpt lat="40.25090520916173" lon="8.508144177028491"><ele>160.0</ele><time>2026-03-30T08:05:03.001Z</time></trkpt><trkpt lat="40.25092547358584" lon="8.508332968192182"><ele>160.0</ele><time>2026-03-30T08:05:04.001Z</time></trkpt><trkpt lat="40.2509372788887" lon="8.508528492317836"><ele>160.0</ele><time>2026-03-30T08:05:05.001Z</time></trkpt><trkpt lat="40.25095369467722" lon="8.508717355209567"><ele>160.0</ele><time>2026-03-30T08:05:06.001Z</time></trkpt><trkpt lat="40.25096481940822" lon="8.508896271505302"><ele>160.0</ele><time>2026-03-30T08:05:07.001Z</time></trkpt><trkpt lat="40.25097215744019" lon="8.50908081978746"><ele>162.33333333333334</ele><time>2026-03-30T08:05:08Z</time></trkpt><trkpt lat="40.250979121954735" lon="8.509301587102756"><ele>164.66666666666666</ele><time>2026-03-30T08:05:09Z</time></trkpt><trkpt lat="40.250967500838996" lon="8.509584695109497"><ele>167.0</ele><time>2026-03-30T08:05:10Z</time></trkpt><trkpt lat="40.250847266360104" lon="8.509970785358714"><ele>169.33333333333331</ele><time>2026-03-30T08:05:11Z</time></trkpt><trkpt lat="40.25078602160156" lon="8.51011650675029"><ele>171.66666666666666</ele><time>2026-03-30T08:05:13Z</time></trkpt><trkpt lat="40.250673259140804" lon="8.510255119549516"><ele>174.0</ele><time>2026-03-30T08:05:14Z</time></trkpt><trkpt lat="40.25054796049673" lon="8.51040475280821"><ele>176.0</ele><time>2026-03-30T08:05:15Z</time></trkpt><trkpt lat="40.250427889189176" lon="8.510566077004245"><ele>178.0</ele><time>2026-03-30T08:05:16Z</time></trkpt><trkpt lat="40.25035198511353" lon="8.510752580992413"><ele>180.0</ele><time>2026-03-30T08:05:17Z</time></trkpt><trkpt lat="40.250281985055025" lon="8.51094245778844"><ele>180.0</ele><time>2026-03-30T08:05:18Z</time></trkpt><trkpt lat="40.25025104802119" lon="8.511151004694842"><ele>180.0</ele><time>2026-03-30T08:05:19Z</time></trkpt><trkpt lat="40.25023895003219" lon="8.511358807451359"><ele>180.0</ele><time>2026-03-30T08:05:20Z</time></trkpt><trkpt lat="40.25025711468906" lon="8.511566049676249"><ele>182.0</ele><time>2026-03-30T08:05:21Z</time></trkpt><trkpt lat="40.25026625042468" lon="8.511773575907807"><ele>184.0</ele><time>2026-03-30T08:05:22Z</time></trkpt><trkpt lat="40.250279701374374" lon="8.511974534175529"><ele>186.0</ele><time>2026-03-30T08:05:23Z</time></trkpt><trkpt lat="40.25029015226788" lon="8.512170703358487"><ele>187.25</ele><time>2026-03-30T08:05:24Z</time></trkpt><trkpt lat="40.25030671395261" lon="8.512362590150003"><ele>188.5</ele><time>2026-03-30T08:05:25Z</time></trkpt><trkpt lat="40.25032197408741" lon="8.512551486105284"><ele>189.75</ele><time>2026-03-30T08:05:26Z</time></trkpt><trkpt lat="40.25034097093116" lon="8.512741678293969"><ele>191.0</ele><time>2026-03-30T08:05:27Z</time></trkpt><trkpt lat="40.25035548931087" lon="8.512941198373444"><ele>193.25</ele><time>2026-03-30T08:05:28Z</time></trkpt><trkpt lat="40.25036582360067" lon="8.513138968393598"><ele>195.5</ele><time>2026-03-30T08:05:29Z</time></trkpt><trkpt lat="40.25037675901401" lon="8.513319051897575"><ele>197.75</ele><time>2026-03-30T08:05:30Z</time></trkpt><trkpt lat="40.250384237038624" lon="8.513465890304436"><ele>200.0</ele><time>2026-03-30T08:05:31Z</time></trkpt><trkpt lat="40.25038840021642" lon="8.51359172175433"><ele>200.00000000000003</ele><time>2026-03-30T08:05:32Z</time></trkpt><trkpt lat="40.25039647746841" lon="8.513704895237261"><ele>200.0</ele><time>2026-03-30T08:05:33Z</time></trkpt><trkpt lat="40.25040271864172" lon="8.513797282030549"><ele>200.0</ele><time>2026-03-30T08:05:34Z</time></trkpt><trkpt lat="40.250412999937225" lon="8.513891109294867"><ele>200.0</ele><time>2026-03-30T08:05:36Z</time></trkpt><trkpt lat="40.25036933577682" lon="8.51397243250367"><ele>200.00000000000003</ele><time>2026-03-30T08:05:38Z</time></trkpt><trkpt lat="40.250316057261166" lon="8.513866706097133"><ele>200.0</ele><time>2026-03-30T08:05:39Z</time></trkpt><trkpt lat="40.25024562073734" lon="8.513839826956334"><ele>200.00000000000003</ele><time>2026-03-30T08:05:40Z</time></trkpt><trkpt lat="40.25018325578002" lon="8.513747485067665"><ele>200.0</ele><time>2026-03-30T08:05:41Z</time></trkpt><trkpt lat="40.25010293621726" lon="8.513726952613347"><ele>200.0</ele><time>2026-03-30T08:05:42Z</time></trkpt><trkpt lat="40.25001929929894" lon="8.513674964897056"><ele>200.0</ele><time>2026-03-30T08:05:43Z</time></trkpt><trkpt lat="40.24994177314597" lon="8.513667537195445"><ele>200.00000000000003</ele><time>2026-03-30T08:05:46Z</time></trkpt><trkpt lat="40.249881753419984" lon="8.513598107193047"><ele>200.0</ele><time>2026-03-30T08:05:47Z</time></trkpt><trkpt lat="40.24988275944145" lon="8.51345518585519"><ele>200.00000000000003</ele><time>2026-03-30T08:05:48Z</time></trkpt><trkpt lat="40.24992883665122" lon="8.513365125335557"><ele>200.0</ele><time>2026-03-30T08:05:49Z</time></trkpt><trkpt lat="40.24999610817216" lon="8.513296522566646"><ele>200.0</ele><time>2026-03-30T08:05:50Z</time></trkpt><trkpt lat="40.25009628222442" lon="8.513255081227127"><ele>200.0</ele><time>2026-03-30T08:05:51Z</time></trkpt><trkpt lat="40.25018957405157" lon="8.513241814354206"><ele>200.00000000000003</ele><time>2026-03-30T08:05:52Z</time></trkpt><trkpt lat="40.25025359114166" lon="8.513176389007448"><ele>200.0</ele><time>2026-03-30T08:05:53Z</time></trkpt><trkpt lat="40.25031023372581" lon="8.513119502180018"><ele>200.00000000000003</ele><time>2026-03-30T08:05:54Z</time></trkpt><trkpt lat="40.25033786630521" lon="8.51298940976776"><ele>200.0</ele><time>2026-03-30T08:05:55Z</time></trkpt><trkpt lat="40.250331796349485" lon="8.512875368864817"><ele>200.0</ele><time>2026-03-30T08:05:56Z</time></trkpt><trkpt lat="40.25032626973181" lon="8.512782590912101"><ele>200.0</ele><time>2026-03-30T08:05:57Z</time></trkpt><trkpt lat="40.250302860301154" lon="8.51268936884942"><ele>200.00000000000003</ele><time>2026-03-30T08:05:58Z</time></trkpt><trkpt lat="40.250292513505684" lon="8.512575320027267"><ele>200.0</ele><time>2026-03-30T08:05:59Z</time></trkpt><trkpt lat="40.250291797894924" lon="8.512450367008167"><ele>198.2</ele><time>2026-03-30T08:06:00Z</time></trkpt><trkpt lat="40.250291809623576" lon="8.512324019707489"><ele>196.4</ele><time>2026-03-30T08:06:01Z</time></trkpt><trkpt lat="40.2502873996364" lon="8.512197536540405"><ele>194.60000000000002</ele><time>2026-03-30T08:06:02Z</time></trkpt><trkpt lat="40.250275071035716" lon="8.512078225850493"><ele>192.8</ele><time>2026-03-30T08:06:03Z</time></trkpt><trkpt lat="40.250256449464146" lon="8.511965463530483"><ele>191.0</ele><time>2026-03-30T08:06:04Z</time></trkpt><trkpt lat="40.25023536677567" lon="8.511852483612543"><ele>190.0</ele><time>2026-03-30T08:06:05Z</time></trkpt><trkpt lat="40.25021159529667" lon="8.511738694977975"><ele>189.0</ele><time>2026-03-30T08:06:06Z</time></trkpt><trkpt lat="40.25018769945926" lon="8.511621180138574"><ele>188.0</ele><time>2026-03-30T08:06:07Z</time></trkpt><trkpt lat="40.250139608430594" lon="8.51150205850028"><ele>187.0</ele><time>2026-03-30T08:06:08Z</time></trkpt><trkpt lat="40.25011171412992" lon="8.511388449959124"><ele>186.0</ele><time>2026-03-30T08:06:09Z</time></trkpt><trkpt lat="40.25011251255413" lon="8.511265378925037"><ele>185.0</ele><time>2026-03-30T08:06:10Z</time></trkpt><trkpt lat="40.25013060772238" lon="8.511145926602925"><ele>184.0</ele><time>2026-03-30T08:06:11Z</time></trkpt><trkpt lat="40.25015908897729" lon="8.511063508555724"><ele>183.0</ele><time>2026-03-30T08:06:12Z</time></trkpt><trkpt lat="40.250160317085694" lon="8.510920351722552"><ele>182.0</ele><time>2026-03-30T08:06:14Z</time></trkpt><trkpt lat="40.250098491930906" lon="8.51085426159568"><ele>181.0</ele><time>2026-03-30T08:06:15Z</time></trkpt><trkpt lat="40.2500341659329" lon="8.510784916521"><ele>180.0</ele><time>2026-03-30T08:06:16Z</time></trkpt><trkpt lat="40.24996399420851" lon="8.510726054243843"><ele>180.0</ele><time>2026-03-30T08:06:17Z</time></trkpt><trkpt lat="40.249874320686075" lon="8.510668251723526"><ele>180.0</ele><time>2026-03-30T08:06:18Z</time></trkpt><trkpt lat="40.24977961343946" lon="8.510615227302223"><ele>180.0</ele><time>2026-03-30T08:06:19Z</time></trkpt><trkpt lat="40.24967172789431" lon="8.510581221286014"><ele>180.0</ele><time>2026-03-30T08:06:20Z</time></trkpt><trkpt lat="40.24957514809398" lon="8.510517622748457"><ele>180.0</ele><time>2026-03-30T08:06:21Z</time></trkpt><trkpt lat="40.249472571054895" lon="8.51047255566226"><ele>180.2</ele><time>2026-03-30T08:06:22Z</time></trkpt><trkpt lat="40.249376647869084" lon="8.510414630557522"><ele>180.4</ele><time>2026-03-30T08:06:23Z</time></trkpt><trkpt lat="40.24928403529854" lon="8.51036090207668"><ele>180.60000000000002</ele><time>2026-03-30T08:06:24Z</time></trkpt><trkpt lat="40.24919792815315" lon="8.510295725745044"><ele>180.8</ele><time>2026-03-30T08:06:25Z</time></trkpt><trkpt lat="40.24910667314964" lon="8.51024588221138"><ele>181.0</ele><time>2026-03-30T08:06:26Z</time></trkpt><trkpt lat="40.24901675714555" lon="8.510189229835843"><ele>182.0</ele><time>2026-03-30T08:06:27Z</time></trkpt><trkpt lat="40.24892671324302" lon="8.510133886577009"><ele>183.0</ele><time>2026-03-30T08:06:28Z</time></trkpt><trkpt lat="40.24883749269861" lon="8.51007733380406"><ele>184.0</ele><time>2026-03-30T08:06:29.001Z</time></trkpt><trkpt lat="40.24876828749039" lon="8.510005984505979"><ele>185.0</ele><time>2026-03-30T08:06:30.001Z</time></trkpt><trkpt lat="40.24870598780924" lon="8.509920854650987"><ele>186.0</ele><time>2026-03-30T08:06:31.001Z</time></trkpt><trkpt lat="40.24864322667314" lon="8.509856212874517"><ele>186.0</ele><time>2026-03-30T08:06:32.001Z</time></trkpt><trkpt lat="40.2485785554614" lon="8.509817387805443"><ele>186.0</ele><time>2026-03-30T08:06:33.001Z</time></trkpt><trkpt lat="40.248491842712454" lon="8.509736192072987"><ele>186.0</ele><time>2026-03-30T08:06:35.001Z</time></trkpt><trkpt lat="40.24842964220449" lon="8.509696794220288"><ele>186.0</ele><time>2026-03-30T08:06:37.001Z</time></trkpt><trkpt lat="40.24835486125135" lon="8.509655211417758"><ele>186.0</ele><time>2026-03-30T08:06:39.001Z</time></trkpt><trkpt lat="40.248218972374694" lon="8.509631826766467"><ele>186.0</ele><time>2026-03-30T08:06:41.001Z</time></trkpt><trkpt lat="40.24814022911288" lon="8.509605379609642"><ele>186.0</ele><time>2026-03-30T08:06:42.001Z</time></trkpt><trkpt lat="40.2480565933387" lon="8.509574604534183"><ele>186.0</ele><time>2026-03-30T08:06:43.001Z</time></trkpt><trkpt lat="40.2479727752371" lon="8.509543998687429"><ele>186.0</ele><time>2026-03-30T08:06:44.001Z</time></trkpt><trkpt lat="40.247892198227085" lon="8.509497496131887"><ele>186.0</ele><time>2026-03-30T08:06:45.001Z</time></trkpt><trkpt lat="40.24781664074351" lon="8.509434262858468"><ele>186.0</ele><time>2026-03-30T08:06:46.001Z</time></trkpt><trkpt lat="40.247742690863745" lon="8.509366805548671"><ele>185.0</ele><time>2026-03-30T08:06:47.001Z</time></trkpt><trkpt lat="40.24766446372218" lon="8.509312624366057"><ele>184.0</ele><time>2026-03-30T08:06:48.001Z</time></trkpt><trkpt lat="40.247583065523116" lon="8.509252350824243"><ele>183.0</ele><time>2026-03-30T08:06:49.001Z</time></trkpt><trkpt lat="40.24749294912145" lon="8.50920481682685"><ele>182.0</ele><time>2026-03-30T08:06:50.001Z</time></trkpt><trkpt lat="40.24741311437078" lon="8.509138034390888"><ele>181.0</ele><time>2026-03-30T08:06:51.001Z</time></trkpt><trkpt lat="40.24732750851833" lon="8.509092045148252"><ele>182.0</ele><time>2026-03-30T08:06:52.001Z</time></trkpt><trkpt lat="40.24724040588913" lon="8.509056507134764"><ele>183.0</ele><time>2026-03-30T08:06:53.001Z</time></trkpt><trkpt lat="40.24714710008681" lon="8.509049869774358"><ele>184.0</ele><time>2026-03-30T08:06:54.001Z</time></trkpt><trkpt lat="40.24705251735783" lon="8.509051245472783"><ele>185.0</ele><time>2026-03-30T08:06:55.001Z</time></trkpt><trkpt lat="40.24696490932352" lon="8.509028398612033"><ele>186.0</ele><time>2026-03-30T08:06:56.001Z</time></trkpt><trkpt lat="40.24686661809765" lon="8.509042098257186"><ele>186.0</ele><time>2026-03-30T08:06:57.001Z</time></trkpt><trkpt lat="40.2467703999848" lon="8.509046039601607"><ele>186.0</ele><time>2026-03-30T08:06:58.001Z</time></trkpt><trkpt lat="40.24667598542132" lon="8.509058061040296"><ele>186.0</ele><time>2026-03-30T08:06:59.001Z</time></trkpt><trkpt lat="40.24658141312098" lon="8.509060789477875"><ele>186.0</ele><time>2026-03-30T08:07:00.001Z</time></trkpt><trkpt lat="40.24648987348496" lon="8.509110543355572"><ele>186.0</ele><time>2026-03-30T08:07:01.001Z</time></trkpt><trkpt lat="40.24640536533277" lon="8.50913420682194"><ele>184.4</ele><time>2026-03-30T08:07:02.001Z</time></trkpt><trkpt lat="40.2463266026757" lon="8.509131835600432"><ele>182.8</ele><time>2026-03-30T08:07:03.001Z</time></trkpt><trkpt lat="40.24625198226157" lon="8.509114221294544"><ele>181.20000000000002</ele><time>2026-03-30T08:07:04.001Z</time></trkpt><trkpt lat="40.246190045452494" lon="8.509014572879373"><ele>179.60000000000002</ele><time>2026-03-30T08:07:05.001Z</time></trkpt><trkpt lat="40.24609969263829" lon="8.50896333896005"><ele>178.0</ele><time>2026-03-30T08:07:06.001Z</time></trkpt><trkpt lat="40.24600331386863" lon="8.508919406759743"><ele>178.0</ele><time>2026-03-30T08:07:07.001Z</time></trkpt><trkpt lat="40.24591602508677" lon="8.508861558370244"><ele>178.0</ele><time>2026-03-30T08:07:08.001Z</time></trkpt><trkpt lat="40.24582007151781" lon="8.508827496717185"><ele>178.0</ele><time>2026-03-30T08:07:09.001Z</time></trkpt><trkpt lat="40.24571573023673" lon="8.50885284896327"><ele>178.0</ele><time>2026-03-30T08:07:10.001Z</time></trkpt><trkpt lat="40.245613659330864" lon="8.508842613879937"><ele>178.0</ele><time>2026-03-30T08:07:11.001Z</time></trkpt><trkpt lat="40.245512988420344" lon="8.508839865600592"><ele>178.4</ele><time>2026-03-30T08:07:12.001Z</time></trkpt><trkpt lat="40.24540996745306" lon="8.508826244089217"><ele>178.8</ele><time>2026-03-30T08:07:13.001Z</time></trkpt><trkpt lat="40.24530355835168" lon="8.508801926678975"><ele>179.2</ele><time>2026-03-30T08:07:14.001Z</time></trkpt><trkpt lat="40.24519966245896" lon="8.508773269716029"><ele>179.6</ele><time>2026-03-30T08:07:15.001Z</time></trkpt><trkpt lat="40.245097731883114" lon="8.508738466539084"><ele>180.0</ele><time>2026-03-30T08:07:16Z</time></trkpt><trkpt lat="40.245002083288654" lon="8.508695697311293"><ele>179.83333333333334</ele><time>2026-03-30T08:07:17Z</time></trkpt><trkpt lat="40.24491725320987" lon="8.508651020889856"><ele>179.66666666666666</ele><time>2026-03-30T08:07:18Z</time></trkpt><trkpt lat="40.244839812251975" lon="8.508606487721115"><ele>179.5</ele><time>2026-03-30T08:07:19Z</time></trkpt><trkpt lat="40.24476408306177" lon="8.508582066674881"><ele>179.33333333333331</ele><time>2026-03-30T08:07:20Z</time></trkpt><trkpt lat="40.24468184088482" lon="8.508593081471735"><ele>179.16666666666666</ele><time>2026-03-30T08:07:21Z</time></trkpt><trkpt lat="40.24459946324403" lon="8.508612562187638"><ele>179.0</ele><time>2026-03-30T08:07:22Z</time></trkpt><trkpt lat="40.244514820665515" lon="8.508633639800202"><ele>179.0</ele><time>2026-03-30T08:07:23Z</time></trkpt><trkpt lat="40.24443055074903" lon="8.508649512987073"><ele>179.0</ele><time>2026-03-30T08:07:24Z</time></trkpt><trkpt lat="40.24434564392575" lon="8.508659579795292"><ele>179.0</ele><time>2026-03-30T08:07:25Z</time></trkpt><trkpt lat="40.244262658873275" lon="8.508657534574079"><ele>179.0</ele><time>2026-03-30T08:07:26Z</time></trkpt><trkpt lat="40.24417731007787" lon="8.508631725142575"><ele>179.0</ele><time>2026-03-30T08:07:27Z</time></trkpt><trkpt lat="40.24408207138018" lon="8.508603480177984"><ele>179.0</ele><time>2026-03-30T08:07:28Z</time></trkpt><trkpt lat="40.24398568677517" lon="8.50859076864804"><ele>180.2</ele><time>2026-03-30T08:07:29Z</time></trkpt><trkpt lat="40.24388227593131" lon="8.50860008978459"><ele>181.39999999999998</ele><time>2026-03-30T08:07:30Z</time></trkpt><trkpt lat="40.24377984145646" lon="8.508598944833"><ele>182.6</ele><time>2026-03-30T08:07:31Z</time></trkpt><trkpt lat="40.24367207674841" lon="8.50858090143438"><ele>183.8</ele><time>2026-03-30T08:07:32Z</time></trkpt><trkpt lat="40.24355863511104" lon="8.508574926254846"><ele>185.0</ele><time>2026-03-30T08:07:33Z</time></trkpt><trkpt lat="40.243447661597585" lon="8.508592568633166"><ele>185.0</ele><time>2026-03-30T08:07:34Z</time></trkpt><trkpt lat="40.24334127714849" lon="8.508632885143875"><ele>185.0</ele><time>2026-03-30T08:07:35Z</time></trkpt><trkpt lat="40.24325205495722" lon="8.508649837792248"><ele>185.0</ele><time>2026-03-30T08:07:36Z</time></trkpt><trkpt lat="40.24317541108339" lon="8.50864260068685"><ele>185.0</ele><time>2026-03-30T08:07:37Z</time></trkpt><trkpt lat="40.24311768642747" lon="8.508593616925838"><ele>185.0</ele><time>2026-03-30T08:07:38Z</time></trkpt><trkpt lat="40.24307462805415" lon="8.508532208166873"><ele>185.0</ele><time>2026-03-30T08:07:39Z</time></trkpt><trkpt lat="40.24302054003386" lon="8.508483981695019"><ele>186.7142857142857</ele><time>2026-03-30T08:07:40Z</time></trkpt><trkpt lat="40.242949185131465" lon="8.508446244211669"><ele>188.42857142857142</ele><time>2026-03-30T08:07:41Z</time></trkpt><trkpt lat="40.242894167099635" lon="8.508395234818622"><ele>190.14285714285714</ele><time>2026-03-30T08:07:42Z</time></trkpt><trkpt lat="40.24282588134509" lon="8.508357932348872"><ele>191.85714285714283</ele><time>2026-03-30T08:07:43Z</time></trkpt><trkpt lat="40.24276166465959" lon="8.508312697700944"><ele>193.57142857142858</ele><time>2026-03-30T08:07:44Z</time></trkpt><trkpt lat="40.24269454557148" lon="8.508265190014733"><ele>195.28571428571428</ele><time>2026-03-30T08:07:45Z</time></trkpt><trkpt lat="40.24263162492561" lon="8.50822018290508"><ele>197.0</ele><time>2026-03-30T08:07:46Z</time></trkpt><trkpt lat="40.242569235324815" lon="8.508177361399298"><ele>197.00000000000003</ele><time>2026-03-30T08:07:47Z</time></trkpt><trkpt lat="40.242510462051506" lon="8.508140707447886"><ele>197.0</ele><time>2026-03-30T08:07:48Z</time></trkpt><trkpt lat="40.242397644265274" lon="8.508061917639965"><ele>197.0</ele><time>2026-03-30T08:07:50Z</time></trkpt><trkpt lat="40.24233151254653" lon="8.508042993237591"><ele>197.0</ele><time>2026-03-30T08:07:51Z</time></trkpt><trkpt lat="40.24226642953167" lon="8.508041734162493"><ele>197.00000000000003</ele><time>2026-03-30T08:07:52Z</time></trkpt><trkpt lat="40.24214652699706" lon="8.508055501089148"><ele>197.0</ele><time>2026-03-30T08:07:54Z</time></trkpt><trkpt lat="40.24203321301153" lon="8.5080676898081"><ele>198.2</ele><time>2026-03-30T08:07:56Z</time></trkpt><trkpt lat="40.241932490588276" lon="8.508100607807192"><ele>199.39999999999998</ele><time>2026-03-30T08:07:58Z</time></trkpt><trkpt lat="40.24183826254062" lon="8.508145939280308"><ele>200.60000000000002</ele><time>2026-03-30T08:08:00Z</time></trkpt><trkpt lat="40.24175326772422" lon="8.508201423604238"><ele>201.8</ele><time>2026-03-30T08:08:02Z</time></trkpt><trkpt lat="40.24167132633104" lon="8.508259059165118"><ele>203.0</ele><time>2026-03-30T08:08:04Z</time></trkpt><trkpt lat="40.24158764864659" lon="8.508320839925402"><ele>203.0</ele><time>2026-03-30T08:08:06Z</time></trkpt><trkpt lat="40.24150111258986" lon="8.508385257567824"><ele>203.0</ele><time>2026-03-30T08:08:08Z</time></trkpt><trkpt lat="40.24141291472002" lon="8.508450912291826"><ele>203.0</ele><time>2026-03-30T08:08:10Z</time></trkpt><trkpt lat="40.241324004725435" lon="8.508517097008838"><ele>203.0</ele><time>2026-03-30T08:08:12Z</time></trkpt><trkpt lat="40.24123443830878" lon="8.508583699843763"><ele>203.0</ele><time>2026-03-30T08:08:14Z</time></trkpt><trkpt lat="40.24115801895701" lon="8.508653282273842"><ele>204.4</ele><time>2026-03-30T08:08:16Z</time></trkpt><trkpt lat="40.24109083326904" lon="8.50869955769135"><ele>205.8</ele><time>2026-03-30T08:08:18Z</time></trkpt><trkpt lat="40.24101435159444" lon="8.508752822821357"><ele>207.2</ele><time>2026-03-30T08:08:20Z</time></trkpt><trkpt lat="40.24091130849503" lon="8.508766050955254"><ele>208.6</ele><time>2026-03-30T08:08:22Z</time></trkpt><trkpt lat="40.24080141147078" lon="8.508770266904552"><ele>210.0</ele><time>2026-03-30T08:08:24Z</time></trkpt><trkpt lat="40.24068061981616" lon="8.508755435582366"><ele>212.25</ele><time>2026-03-30T08:08:26Z</time></trkpt><trkpt lat="40.24055723748389" lon="8.508733331144784"><ele>214.5</ele><time>2026-03-30T08:08:28Z</time></trkpt><trkpt lat="40.240442940187236" lon="8.508710299784275"><ele>216.75</ele><time>2026-03-30T08:08:30Z</time></trkpt><trkpt lat="40.240318331607654" lon="8.508684045406273"><ele>219.0</ele><time>2026-03-30T08:08:32Z</time></trkpt><trkpt lat="40.24020603063717" lon="8.508660384243504"><ele>219.0</ele><time>2026-03-30T08:08:34Z</time></trkpt><trkpt lat="40.24010526554927" lon="8.508651435590524"><ele>219.0</ele><time>2026-03-30T08:08:36Z</time></trkpt><trkpt lat="40.24003313534179" lon="8.50868850471652"><ele>219.0</ele><time>2026-03-30T08:08:38Z</time></trkpt><trkpt lat="40.23998316372328" lon="8.508757908853267"><ele>219.0</ele><time>2026-03-30T08:08:41Z</time></trkpt><trkpt lat="40.23995107298722" lon="8.508839463105755"><ele>219.0</ele><time>2026-03-30T08:08:46Z</time></trkpt><trkpt lat="40.23987061643201" lon="8.508819334157009"><ele>219.0</ele><time>2026-03-30T08:08:48Z</time></trkpt><trkpt lat="40.23981879133746" lon="8.508894154400648"><ele>218.79999999999998</ele><time>2026-03-30T08:10:47Z</time></trkpt><trkpt lat="40.2397126809249" lon="8.5089868834434"><ele>218.59999999999997</ele><time>2026-03-30T08:10:49Z</time></trkpt><trkpt lat="40.239645454085945" lon="8.509052699612981"><ele>218.4</ele><time>2026-03-30T08:10:50Z</time></trkpt><trkpt lat="40.2395640035364" lon="8.509140120888402"><ele>218.2</ele><time>2026-03-30T08:10:51Z</time></trkpt><trkpt lat="40.23948079418848" lon="8.509224413366942"><ele>218.0</ele><time>2026-03-30T08:10:52Z</time></trkpt><trkpt lat="40.239399702657664" lon="8.509279442130051"><ele>218.00000000000003</ele><time>2026-03-30T08:10:53Z</time></trkpt><trkpt lat="40.23932116291316" lon="8.509299391311695"><ele>218.0</ele><time>2026-03-30T08:10:54Z</time></trkpt><trkpt lat="40.23924805526381" lon="8.509271690312817"><ele>218.0</ele><time>2026-03-30T08:10:55Z</time></trkpt><trkpt lat="40.23918053679925" lon="8.509208418413035"><ele>218.0</ele><time>2026-03-30T08:10:56Z</time></trkpt><trkpt lat="40.23913903616286" lon="8.509086072909904"><ele>218.00000000000003</ele><time>2026-03-30T08:10:57Z</time></trkpt><trkpt lat="40.23909029512152" lon="8.508985656629328"><ele>218.0</ele><time>2026-03-30T08:10:58Z</time></trkpt><trkpt lat="40.23906204772701" lon="8.508847657375576"><ele>217.5</ele><time>2026-03-30T08:10:59Z</time></trkpt><trkpt lat="40.23901585942608" lon="8.508708515384395"><ele>217.0</ele><time>2026-03-30T08:11:00Z</time></trkpt><trkpt lat="40.23896430158881" lon="8.508558385060248"><ele>216.5</ele><time>2026-03-30T08:11:01Z</time></trkpt><trkpt lat="40.238905452887835" lon="8.508403733791207"><ele>216.0</ele><time>2026-03-30T08:11:02Z</time></trkpt><trkpt lat="40.238853545454795" lon="8.508253870296874"><ele>214.75</ele><time>2026-03-30T08:11:03Z</time></trkpt><trkpt lat="40.238803380532765" lon="8.508106265565818"><ele>213.5</ele><time>2026-03-30T08:11:04Z</time></trkpt><trkpt lat="40.23875136755807" lon="8.507952339761346"><ele>212.25</ele><time>2026-03-30T08:11:05Z</time></trkpt><trkpt lat="40.238698856438006" lon="8.507800801051754"><ele>211.0</ele><time>2026-03-30T08:11:06.001Z</time></trkpt><trkpt lat="40.23864506838983" lon="8.507650718384689"><ele>211.0</ele><time>2026-03-30T08:11:07.001Z</time></trkpt><trkpt lat="40.23859581834124" lon="8.50750835600086"><ele>211.0</ele><time>2026-03-30T08:11:08.001Z</time></trkpt><trkpt lat="40.23854829023607" lon="8.507370412934508"><ele>211.0</ele><time>2026-03-30T08:11:09.001Z</time></trkpt><trkpt lat="40.238499662227085" lon="8.50723502203732"><ele>211.0</ele><time>2026-03-30T08:11:10.001Z</time></trkpt><trkpt lat="40.23845802511554" lon="8.507096158343392"><ele>211.0</ele><time>2026-03-30T08:11:11.001Z</time></trkpt><trkpt lat="40.2384100313528" lon="8.506955715693662"><ele>211.0</ele><time>2026-03-30T08:11:12.001Z</time></trkpt><trkpt lat="40.238356031859375" lon="8.506810313857507"><ele>211.0</ele><time>2026-03-30T08:11:13.001Z</time></trkpt><trkpt lat="40.23830507836877" lon="8.506656590728614"><ele>211.0</ele><time>2026-03-30T08:11:14.001Z</time></trkpt><trkpt lat="40.23825493089831" lon="8.506500152639266"><ele>211.0</ele><time>2026-03-30T08:11:15.001Z</time></trkpt><trkpt lat="40.238198658457534" lon="8.506343847343677"><ele>211.0</ele><time>2026-03-30T08:11:16.001Z</time></trkpt><trkpt lat="40.238131002814214" lon="8.506190326189522"><ele>211.0</ele><time>2026-03-30T08:11:17.001Z</time></trkpt><trkpt lat="40.23805432715457" lon="8.506040215777642"><ele>211.0</ele><time>2026-03-30T08:11:18.001Z</time></trkpt><trkpt lat="40.23797340610285" lon="8.505889261322741"><ele>210.0</ele><time>2026-03-30T08:11:19.001Z</time></trkpt><trkpt lat="40.23788967622619" lon="8.505734726274843"><ele>209.0</ele><time>2026-03-30T08:11:20.001Z</time></trkpt><trkpt lat="40.23779627992378" lon="8.505584212780752"><ele>208.0</ele><time>2026-03-30T08:11:21.001Z</time></trkpt><trkpt lat="40.237693817050214" lon="8.505438104894196"><ele>207.0</ele><time>2026-03-30T08:11:22Z</time></trkpt><trkpt lat="40.237591743757925" lon="8.505283930344318"><ele>207.0</ele><time>2026-03-30T08:11:23Z</time></trkpt><trkpt lat="40.23749090713672" lon="8.505131715274624"><ele>207.0</ele><time>2026-03-30T08:11:24Z</time></trkpt><trkpt lat="40.237395650255564" lon="8.504989856951768"><ele>207.0</ele><time>2026-03-30T08:11:25Z</time></trkpt><trkpt lat="40.237298800385" lon="8.504861337678944"><ele>207.0</ele><time>2026-03-30T08:11:26Z</time></trkpt><trkpt lat="40.23720520560603" lon="8.504734899037505"><ele>206.5</ele><time>2026-03-30T08:11:27Z</time></trkpt><trkpt lat="40.23711913631352" lon="8.50461071466702"><ele>206.0</ele><time>2026-03-30T08:11:28Z</time></trkpt><trkpt lat="40.23704014410236" lon="8.50448066981475"><ele>205.5</ele><time>2026-03-30T08:11:29Z</time></trkpt><trkpt lat="40.23697029830952" lon="8.504340107611366"><ele>205.0</ele><time>2026-03-30T08:11:30Z</time></trkpt><trkpt lat="40.23691157856313" lon="8.504186284064522"><ele>205.0</ele><time>2026-03-30T08:11:31Z</time></trkpt><trkpt lat="40.236867193841526" lon="8.504026476044563"><ele>205.0</ele><time>2026-03-30T08:11:32Z</time></trkpt><trkpt lat="40.23683290345312" lon="8.503858312219645"><ele>205.0</ele><time>2026-03-30T08:11:33Z</time></trkpt><trkpt lat="40.236806305140284" lon="8.503681934840873"><ele>205.0</ele><time>2026-03-30T08:11:34Z</time></trkpt><trkpt lat="40.23678029999061" lon="8.503502994492093"><ele>204.25</ele><time>2026-03-30T08:11:35Z</time></trkpt><trkpt lat="40.23674862948439" lon="8.503334484988523"><ele>203.5</ele><time>2026-03-30T08:11:36Z</time></trkpt><trkpt lat="40.23671581939176" lon="8.503173804137852"><ele>202.75</ele><time>2026-03-30T08:11:37Z</time></trkpt><trkpt lat="40.23668650870847" lon="8.5030228355108"><ele>202.0</ele><time>2026-03-30T08:11:38Z</time></trkpt><trkpt lat="40.23665754811056" lon="8.502875001936543"><ele>201.5</ele><time>2026-03-30T08:11:39Z</time></trkpt><trkpt lat="40.236622192601864" lon="8.50273687646562"><ele>201.0</ele><time>2026-03-30T08:11:40Z</time></trkpt><trkpt lat="40.236582086405754" lon="8.502602765168588"><ele>200.5</ele><time>2026-03-30T08:11:41Z</time></trkpt><trkpt lat="40.236529577604614" lon="8.502471316276212"><ele>200.0</ele><time>2026-03-30T08:11:42Z</time></trkpt><trkpt lat="40.236456869735036" lon="8.502346814331817"><ele>199.25</ele><time>2026-03-30T08:11:43Z</time></trkpt><trkpt lat="40.23639168749666" lon="8.502214648200207"><ele>198.5</ele><time>2026-03-30T08:11:44Z</time></trkpt><trkpt lat="40.236313814717896" lon="8.50209100685684"><ele>197.75</ele><time>2026-03-30T08:11:45Z</time></trkpt><trkpt lat="40.23623290883563" lon="8.501962805824945"><ele>197.0</ele><time>2026-03-30T08:11:46Z</time></trkpt><trkpt lat="40.23615045840564" lon="8.501834213896249"><ele>197.0</ele><time>2026-03-30T08:11:47Z</time></trkpt><trkpt lat="40.23607272093786" lon="8.501712972373943"><ele>197.0</ele><time>2026-03-30T08:11:48Z</time></trkpt><trkpt lat="40.235998402788354" lon="8.501597063716881"><ele>197.0</ele><time>2026-03-30T08:11:49Z</time></trkpt><trkpt lat="40.235926936507134" lon="8.501485602882907"><ele>197.0</ele><time>2026-03-30T08:11:50Z</time></trkpt><trkpt lat="40.235855934328725" lon="8.501374865870975"><ele>197.0</ele><time>2026-03-30T08:11:51Z</time></trkpt><trkpt lat="40.23577107546304" lon="8.501274285019234"><ele>197.0</ele><time>2026-03-30T08:11:52Z</time></trkpt><trkpt lat="40.23570096377673" lon="8.501151914151631"><ele>197.0</ele><time>2026-03-30T08:11:53Z</time></trkpt><trkpt lat="40.235623355613995" lon="8.501033751155537"><ele>197.0</ele><time>2026-03-30T08:11:54Z</time></trkpt><trkpt lat="40.23554690476129" lon="8.500917192464374"><ele>196.25</ele><time>2026-03-30T08:11:55Z</time></trkpt><trkpt lat="40.23547107125131" lon="8.500803905429239"><ele>195.5</ele><time>2026-03-30T08:11:56Z</time></trkpt><trkpt lat="40.235396898628665" lon="8.500690123643293"><ele>194.75</ele><time>2026-03-30T08:11:57Z</time></trkpt><trkpt lat="40.23532850691131" lon="8.500572523930112"><ele>194.0</ele><time>2026-03-30T08:11:58Z</time></trkpt><trkpt lat="40.23525462216529" lon="8.500461522030534"><ele>194.75</ele><time>2026-03-30T08:11:59Z</time></trkpt><trkpt lat="40.23517998675615" lon="8.500349653077503"><ele>195.5</ele><time>2026-03-30T08:12:00Z</time></trkpt><trkpt lat="40.23510434315995" lon="8.500236058445354"><ele>196.25</ele><time>2026-03-30T08:12:01Z</time></trkpt><trkpt lat="40.23502526820616" lon="8.500126723771833"><ele>197.0</ele><time>2026-03-30T08:12:02Z</time></trkpt><trkpt lat="40.2349371347469" lon="8.500018584795603"><ele>197.0</ele><time>2026-03-30T08:12:03Z</time></trkpt><trkpt lat="40.234852539626196" lon="8.499918950255454"><ele>197.0</ele><time>2026-03-30T08:12:04Z</time></trkpt><trkpt lat="40.23477518219206" lon="8.499813889372152"><ele>197.0</ele><time>2026-03-30T08:12:05Z</time></trkpt><trkpt lat="40.23469413301897" lon="8.499712314312173"><ele>197.0</ele><time>2026-03-30T08:12:06Z</time></trkpt><trkpt lat="40.2346137256674" lon="8.49960954104542"><ele>197.0</ele><time>2026-03-30T08:12:07Z</time></trkpt><trkpt lat="40.23453385959985" lon="8.499508274487415"><ele>197.0</ele><time>2026-03-30T08:12:08Z</time></trkpt><trkpt lat="40.23446164384868" lon="8.499395568693538"><ele>197.0</ele><time>2026-03-30T08:12:09Z</time></trkpt><trkpt lat="40.234404357566724" lon="8.49926726171439"><ele>197.0</ele><time>2026-03-30T08:12:10Z</time></trkpt><trkpt lat="40.23437003868608" lon="8.499130775762838"><ele>197.0</ele><time>2026-03-30T08:12:11Z</time></trkpt><trkpt lat="40.234351189546935" lon="8.49899369314679"><ele>197.0</ele><time>2026-03-30T08:12:12Z</time></trkpt><trkpt lat="40.23434294059321" lon="8.498854532482225"><ele>197.0</ele><time>2026-03-30T08:12:13Z</time></trkpt><trkpt lat="40.23434122143911" lon="8.498714414077229"><ele>197.0</ele><time>2026-03-30T08:12:14Z</time></trkpt><trkpt lat="40.23434582415784" lon="8.498572390024695"><ele>197.0</ele><time>2026-03-30T08:12:15Z</time></trkpt><trkpt lat="40.234352600222564" lon="8.498431848471679"><ele>197.0</ele><time>2026-03-30T08:12:16Z</time></trkpt><trkpt lat="40.234352742201494" lon="8.498292087120662"><ele>196.0</ele><time>2026-03-30T08:12:17Z</time></trkpt><trkpt lat="40.2343420621605" lon="8.498157428945987"><ele>195.0</ele><time>2026-03-30T08:12:18Z</time></trkpt><trkpt lat="40.23430326558165" lon="8.498031563749606"><ele>194.0</ele><time>2026-03-30T08:12:19Z</time></trkpt><trkpt lat="40.234234753784484" lon="8.497924826831973"><ele>193.0</ele><time>2026-03-30T08:12:20Z</time></trkpt><trkpt lat="40.234159736867994" lon="8.497811427376693"><ele>192.0</ele><time>2026-03-30T08:12:21Z</time></trkpt><trkpt lat="40.234072726991705" lon="8.497718759301224"><ele>190.5</ele><time>2026-03-30T08:12:22Z</time></trkpt><trkpt lat="40.23397833862907" lon="8.497625467375682"><ele>189.0</ele><time>2026-03-30T08:12:23Z</time></trkpt><trkpt lat="40.23387308088055" lon="8.497549473535365"><ele>187.5</ele><time>2026-03-30T08:12:24Z</time></trkpt><trkpt lat="40.233781519250904" lon="8.49744440438593"><ele>186.0</ele><time>2026-03-30T08:12:25Z</time></trkpt><trkpt lat="40.23368184035286" lon="8.497343952618687"><ele>186.0</ele><time>2026-03-30T08:12:26Z</time></trkpt><trkpt lat="40.23357929531508" lon="8.497244268856003"><ele>186.0</ele><time>2026-03-30T08:12:27Z</time></trkpt><trkpt lat="40.23347614291904" lon="8.497139349001067"><ele>186.0</ele><time>2026-03-30T08:12:28Z</time></trkpt><trkpt lat="40.23337178327474" lon="8.497035713513766"><ele>186.0</ele><time>2026-03-30T08:12:29Z</time></trkpt><trkpt lat="40.23326683851024" lon="8.496928419528697"><ele>183.0</ele><time>2026-03-30T08:12:30Z</time></trkpt><trkpt lat="40.233164854256714" lon="8.49681523865098"><ele>180.0</ele><time>2026-03-30T08:12:31Z</time></trkpt><trkpt lat="40.233075770313114" lon="8.496682281905239"><ele>177.0</ele><time>2026-03-30T08:12:32Z</time></trkpt><trkpt lat="40.233003946076934" lon="8.496539581572495"><ele>174.0</ele><time>2026-03-30T08:12:33Z</time></trkpt><trkpt lat="40.23293889362704" lon="8.496403055015001"><ele>174.0</ele><time>2026-03-30T08:12:34Z</time></trkpt><trkpt lat="40.232861067156385" lon="8.496274869257078"><ele>174.0</ele><time>2026-03-30T08:12:35Z</time></trkpt><trkpt lat="40.23276597555381" lon="8.496167382333399"><ele>174.0</ele><time>2026-03-30T08:12:36Z</time></trkpt><trkpt lat="40.232657210674354" lon="8.496086679884762"><ele>174.0</ele><time>2026-03-30T08:12:37Z</time></trkpt><trkpt lat="40.23254823509521" lon="8.496021928040228"><ele>171.39999999999998</ele><time>2026-03-30T08:12:38Z</time></trkpt><trkpt lat="40.23244547710336" lon="8.495950569716499"><ele>168.8</ele><time>2026-03-30T08:12:39Z</time></trkpt><trkpt lat="40.232361415867324" lon="8.49587555501682"><ele>166.2</ele><time>2026-03-30T08:12:40Z</time></trkpt><trkpt lat="40.23229460309485" lon="8.49578187436732"><ele>163.60000000000002</ele><time>2026-03-30T08:12:41Z</time></trkpt><trkpt lat="40.23226381602688" lon="8.495624670597678"><ele>161.0</ele><time>2026-03-30T08:12:42Z</time></trkpt><trkpt lat="40.232299157180755" lon="8.495469827612835"><ele>158.25</ele><time>2026-03-30T08:12:43Z</time></trkpt><trkpt lat="40.23241820854433" lon="8.495395014603796"><ele>155.5</ele><time>2026-03-30T08:12:44Z</time></trkpt><trkpt lat="40.23254261022384" lon="8.495284185766511"><ele>152.75</ele><time>2026-03-30T08:12:45Z</time></trkpt><trkpt lat="40.23267678884777" lon="8.495162008914296"><ele>150.0</ele><time>2026-03-30T08:12:46Z</time></trkpt><trkpt lat="40.23252037395426" lon="8.495304420236671"><ele>150.0</ele><time>2026-03-30T08:12:47Z</time></trkpt><trkpt lat="40.23261059829387" lon="8.495222317032438"><ele>150.0</ele><time>2026-03-30T08:12:48Z</time></trkpt><trkpt lat="40.232694413931" lon="8.495130319691253"><ele>150.0</ele><time>2026-03-30T08:12:49Z</time></trkpt><trkpt lat="40.23278154263072" lon="8.495059326102497"><ele>150.0</ele><time>2026-03-30T08:12:50Z</time></trkpt><trkpt lat="40.23284463210386" lon="8.494974485800178"><ele>150.0</ele><time>2026-03-30T08:12:51Z</time></trkpt><trkpt lat="40.23287463487408" lon="8.494880669956379"><ele>150.0</ele><time>2026-03-30T08:12:52Z</time></trkpt><trkpt lat="40.23286055106142" lon="8.494787572345997"><ele>150.0</ele><time>2026-03-30T08:12:53Z</time></trkpt><trkpt lat="40.23282048362544" lon="8.494706428975464"><ele>150.0</ele><time>2026-03-30T08:12:54Z</time></trkpt><trkpt lat="40.23275740320304" lon="8.494641927562316"><ele>150.0</ele><time>2026-03-30T08:12:55Z</time></trkpt><trkpt lat="40.2326978017326" lon="8.494608035004259"><ele>150.0</ele><time>2026-03-30T08:12:56Z</time></trkpt><trkpt lat="40.23260294838877" lon="8.494569983302174"><ele>150.0</ele><time>2026-03-30T08:12:58Z</time></trkpt><trkpt lat="40.23252660449477" lon="8.494557768461053"><ele>148.5</ele><time>2026-03-30T08:13:00Z</time></trkpt><trkpt lat="40.23245143165283" lon="8.494511673510784"><ele>147.0</ele><time>2026-03-30T08:13:02Z</time></trkpt><trkpt lat="40.23236451002137" lon="8.494482159115323"><ele>145.5</ele><time>2026-03-30T08:13:05Z</time></trkpt><trkpt lat="40.23230787893188" lon="8.494442218154665"><ele>144.0</ele><time>2026-03-30T08:13:21Z</time></trkpt><trkpt lat="40.23223561216619" lon="8.494411734918765"><ele>142.5</ele><time>2026-03-30T08:13:25Z</time></trkpt><trkpt lat="40.232174807276195" lon="8.494386086505491"><ele>141.0</ele><time>2026-03-30T08:13:28Z</time></trkpt><trkpt lat="40.232101207674184" lon="8.494355041046598"><ele>139.83333333333334</ele><time>2026-03-30T08:16:00Z</time></trkpt><trkpt lat="40.232009691936895" lon="8.494316438264821"><ele>138.66666666666666</ele><time>2026-03-30T08:16:03Z</time></trkpt><trkpt lat="40.23192896288776" lon="8.49428238549269"><ele>137.5</ele><time>2026-03-30T08:16:05Z</time></trkpt><trkpt lat="40.231841187780745" lon="8.494245360585209"><ele>136.33333333333331</ele><time>2026-03-30T08:16:07Z</time></trkpt><trkpt lat="40.23174400369721" lon="8.494204366831639"><ele>135.16666666666666</ele><time>2026-03-30T08:16:09Z</time></trkpt><trkpt lat="40.231674762931966" lon="8.49419346451765"><ele>134.0</ele><time>2026-03-30T08:16:10Z</time></trkpt><trkpt lat="40.23160377098542" lon="8.494158943462786"><ele>134.0</ele><time>2026-03-30T08:16:11Z</time></trkpt><trkpt lat="40.23153104870556" lon="8.494131128360674"><ele>134.0</ele><time>2026-03-30T08:16:12Z</time></trkpt><trkpt lat="40.23145999585796" lon="8.494093873754837"><ele>134.0</ele><time>2026-03-30T08:16:13Z</time></trkpt><trkpt lat="40.231383784659336" lon="8.494064684826146"><ele>134.0</ele><time>2026-03-30T08:16:14Z</time></trkpt><trkpt lat="40.231304588097345" lon="8.494033218196988"><ele>134.0</ele><time>2026-03-30T08:16:15Z</time></trkpt><trkpt lat="40.23122709136078" lon="8.493992277590635"><ele>134.0</ele><time>2026-03-30T08:16:16Z</time></trkpt><trkpt lat="40.231142365481745" lon="8.493960731994047"><ele>133.83333333333331</ele><time>2026-03-30T08:16:17Z</time></trkpt><trkpt lat="40.23105794492181" lon="8.493918865566503"><ele>133.66666666666666</ele><time>2026-03-30T08:16:18Z</time></trkpt><trkpt lat="40.23097242058801" lon="8.49388602944264"><ele>133.5</ele><time>2026-03-30T08:16:19Z</time></trkpt><trkpt lat="40.2308867057738" lon="8.493850229595683"><ele>133.33333333333334</ele><time>2026-03-30T08:16:20Z</time></trkpt><trkpt lat="40.23081170856626" lon="8.493807919731664"><ele>133.16666666666669</ele><time>2026-03-30T08:16:21Z</time></trkpt><trkpt lat="40.230742342351384" lon="8.49378026221032"><ele>133.0</ele><time>2026-03-30T08:16:22Z</time></trkpt><trkpt lat="40.230680623486194" lon="8.49375220475068"><ele>133.16666666666669</ele><time>2026-03-30T08:16:23Z</time></trkpt><trkpt lat="40.230567682680196" lon="8.49369785881588"><ele>133.33333333333334</ele><time>2026-03-30T08:16:25Z</time></trkpt><trkpt lat="40.23045458361823" lon="8.493650076621904"><ele>133.5</ele><time>2026-03-30T08:16:27Z</time></trkpt><trkpt lat="40.23039286516184" lon="8.493627543623694"><ele>133.66666666666666</ele><time>2026-03-30T08:16:28Z</time></trkpt><trkpt lat="40.23033144540262" lon="8.493603156417256"><ele>133.83333333333331</ele><time>2026-03-30T08:16:29Z</time></trkpt><trkpt lat="40.230264745050135" lon="8.493594861973214"><ele>134.0</ele><time>2026-03-30T08:16:30Z</time></trkpt><trkpt lat="40.23018842103694" lon="8.493583506784908"><ele>134.0</ele><time>2026-03-30T08:16:31Z</time></trkpt><trkpt lat="40.23011265000388" lon="8.493623238206816"><ele>134.0</ele><time>2026-03-30T08:16:32Z</time></trkpt><trkpt lat="40.23004599657898" lon="8.49367457801995"><ele>134.0</ele><time>2026-03-30T08:16:33Z</time></trkpt><trkpt lat="40.229992677333065" lon="8.493730242141158"><ele>134.0</ele><time>2026-03-30T08:16:34Z</time></trkpt><trkpt lat="40.22994064570683" lon="8.49378192933679"><ele>134.0</ele><time>2026-03-30T08:16:35Z</time></trkpt><trkpt lat="40.229874592935424" lon="8.493808806879162"><ele>134.0</ele><time>2026-03-30T08:16:36Z</time></trkpt><trkpt lat="40.22980081461138" lon="8.493827458331165"><ele>134.0</ele><time>2026-03-30T08:16:37Z</time></trkpt><trkpt lat="40.22972880939083" lon="8.493771589470144"><ele>134.83333333333331</ele><time>2026-03-30T08:16:38Z</time></trkpt><trkpt lat="40.22967426623256" lon="8.49367984155644"><ele>135.66666666666666</ele><time>2026-03-30T08:16:39Z</time></trkpt><trkpt lat="40.22962881324029" lon="8.493575957757432"><ele>136.5</ele><time>2026-03-30T08:16:40Z</time></trkpt><trkpt lat="40.229589556668465" lon="8.49347350840754"><ele>137.33333333333334</ele><time>2026-03-30T08:16:41Z</time></trkpt><trkpt lat="40.229547220576656" lon="8.493371514117632"><ele>138.16666666666669</ele><time>2026-03-30T08:16:42Z</time></trkpt><trkpt lat="40.22950207280916" lon="8.493273481500134"><ele>139.0</ele><time>2026-03-30T08:16:43Z</time></trkpt><trkpt lat="40.22945555685492" lon="8.493177779468688"><ele>139.0</ele><time>2026-03-30T08:16:44Z</time></trkpt><trkpt lat="40.22940739989106" lon="8.493082023628721"><ele>139.0</ele><time>2026-03-30T08:16:45Z</time></trkpt><trkpt lat="40.22936094646897" lon="8.492987164254043"><ele>139.0</ele><time>2026-03-30T08:16:46Z</time></trkpt><trkpt lat="40.229317361549526" lon="8.492888706137109"><ele>139.0</ele><time>2026-03-30T08:16:47Z</time></trkpt><trkpt lat="40.22925358104733" lon="8.492807635759673"><ele>139.0</ele><time>2026-03-30T08:16:48Z</time></trkpt><trkpt lat="40.2291734950303" lon="8.492752094329434"><ele>139.0</ele><time>2026-03-30T08:16:49Z</time></trkpt><trkpt lat="40.22908511867077" lon="8.492716824425463"><ele>141.4</ele><time>2026-03-30T08:16:50Z</time></trkpt><trkpt lat="40.228988452010746" lon="8.49268597117536"><ele>143.8</ele><time>2026-03-30T08:16:51Z</time></trkpt><trkpt lat="40.228898216130425" lon="8.492652540009688"><ele>146.2</ele><time>2026-03-30T08:16:52Z</time></trkpt><trkpt lat="40.22880771586014" lon="8.49261517301628"><ele>148.6</ele><time>2026-03-30T08:16:53Z</time></trkpt><trkpt lat="40.228715000268714" lon="8.492575262973057"><ele>151.0</ele><time>2026-03-30T08:16:54Z</time></trkpt><trkpt lat="40.22862350381948" lon="8.492533833536678"><ele>151.33333333333334</ele><time>2026-03-30T08:16:55Z</time></trkpt><trkpt lat="40.22853383244249" lon="8.492498828475282"><ele>151.66666666666669</ele><time>2026-03-30T08:16:56Z</time></trkpt><trkpt lat="40.22845147249791" lon="8.49246182805143"><ele>152.0</ele><time>2026-03-30T08:16:57Z</time></trkpt><trkpt lat="40.22836923943161" lon="8.492427535470785"><ele>152.33333333333334</ele><time>2026-03-30T08:16:58Z</time></trkpt><trkpt lat="40.22829569525776" lon="8.492374042166587"><ele>152.66666666666666</ele><time>2026-03-30T08:16:59Z</time></trkpt><trkpt lat="40.22824488401684" lon="8.492293651724589"><ele>153.0</ele><time>2026-03-30T08:17:00Z</time></trkpt><trkpt lat="40.22820700025617" lon="8.492200698930708"><ele>153.0</ele><time>2026-03-30T08:17:01Z</time></trkpt><trkpt lat="40.228168212194255" lon="8.492097186420327"><ele>153.0</ele><time>2026-03-30T08:17:02Z</time></trkpt><trkpt lat="40.22812903159591" lon="8.491987804174759"><ele>153.0</ele><time>2026-03-30T08:17:03Z</time></trkpt><trkpt lat="40.22808692597793" lon="8.491871003864608"><ele>153.0</ele><time>2026-03-30T08:17:04Z</time></trkpt><trkpt lat="40.22804264990084" lon="8.491745939403526"><ele>153.0</ele><time>2026-03-30T08:17:05Z</time></trkpt><trkpt lat="40.22799758912693" lon="8.491608007453198"><ele>153.0</ele><time>2026-03-30T08:17:06Z</time></trkpt><trkpt lat="40.227949372079145" lon="8.491468598026044"><ele>153.0</ele><time>2026-03-30T08:17:07Z</time></trkpt><trkpt lat="40.22789798698232" lon="8.491324920345535"><ele>153.0</ele><time>2026-03-30T08:17:08Z</time></trkpt><trkpt lat="40.227840911832914" lon="8.491182400070207"><ele>153.0</ele><time>2026-03-30T08:17:09Z</time></trkpt><trkpt lat="40.22778594880106" lon="8.491040542861027"><ele>153.0</ele><time>2026-03-30T08:17:10Z</time></trkpt><trkpt lat="40.22775052614621" lon="8.490894511976512"><ele>153.0</ele><time>2026-03-30T08:17:11Z</time></trkpt><trkpt lat="40.22769665381676" lon="8.49076681644568"><ele>153.0</ele><time>2026-03-30T08:17:12Z</time></trkpt><trkpt lat="40.22765239277841" lon="8.490636320423578"><ele>153.0</ele><time>2026-03-30T08:17:13Z</time></trkpt><trkpt lat="40.22760751913058" lon="8.49050673997151"><ele>153.0</ele><time>2026-03-30T08:17:14Z</time></trkpt><trkpt lat="40.22755906053613" lon="8.4903768876501"><ele>152.25</ele><time>2026-03-30T08:17:15Z</time></trkpt><trkpt lat="40.227508783161475" lon="8.490245457329054"><ele>151.5</ele><time>2026-03-30T08:17:16Z</time></trkpt><trkpt lat="40.227457927175685" lon="8.490114958930743"><ele>150.75</ele><time>2026-03-30T08:17:17Z</time></trkpt><trkpt lat="40.227414162888245" lon="8.489974835190804"><ele>150.0</ele><time>2026-03-30T08:17:18Z</time></trkpt><trkpt lat="40.22734027809065" lon="8.489856956576892"><ele>150.25</ele><time>2026-03-30T08:17:19Z</time></trkpt><trkpt lat="40.22726407947489" lon="8.489747134099138"><ele>150.5</ele><time>2026-03-30T08:17:20Z</time></trkpt><trkpt lat="40.22716351416408" lon="8.489675600910873"><ele>150.75</ele><time>2026-03-30T08:17:21Z</time></trkpt><trkpt lat="40.22705601404763" lon="8.489623785172647"><ele>151.0</ele><time>2026-03-30T08:17:22Z</time></trkpt><trkpt lat="40.226944549187586" lon="8.48958342883627"><ele>151.0</ele><time>2026-03-30T08:17:23Z</time></trkpt><trkpt lat="40.226832104654065" lon="8.489544807721236"><ele>151.0</ele><time>2026-03-30T08:17:23.999Z</time></trkpt><trkpt lat="40.22672099996598" lon="8.489508167932497"><ele>151.0</ele><time>2026-03-30T08:17:24.999Z</time></trkpt><trkpt lat="40.22660876684209" lon="8.48948838777409"><ele>151.0</ele><time>2026-03-30T08:17:25.999Z</time></trkpt><trkpt lat="40.22650039131794" lon="8.489444511520896"><ele>151.0</ele><time>2026-03-30T08:17:26.999Z</time></trkpt><trkpt lat="40.22638359499605" lon="8.489408414242646"><ele>151.0</ele><time>2026-03-30T08:17:27.999Z</time></trkpt><trkpt lat="40.22626220159561" lon="8.489370922002763"><ele>151.0</ele><time>2026-03-30T08:17:28.999Z</time></trkpt><trkpt lat="40.226137529834105" lon="8.489331335286952"><ele>151.0</ele><time>2026-03-30T08:17:29.999Z</time></trkpt><trkpt lat="40.22601101238027" lon="8.489286490651564"><ele>151.0</ele><time>2026-03-30T08:17:30.999Z</time></trkpt><trkpt lat="40.22588191548985" lon="8.489237534994212"><ele>151.0</ele><time>2026-03-30T08:17:31.999Z</time></trkpt><trkpt lat="40.22574853231901" lon="8.489195021996393"><ele>151.0</ele><time>2026-03-30T08:17:32.999Z</time></trkpt><trkpt lat="40.22561579354203" lon="8.489130645534898"><ele>151.0</ele><time>2026-03-30T08:17:33.999Z</time></trkpt><trkpt lat="40.22547762257958" lon="8.489099337772615"><ele>151.25</ele><time>2026-03-30T08:17:34.999Z</time></trkpt><trkpt lat="40.22534557132073" lon="8.48905208861039"><ele>151.5</ele><time>2026-03-30T08:17:35.999Z</time></trkpt><trkpt lat="40.22522299714447" lon="8.488998368730064"><ele>151.75</ele><time>2026-03-30T08:17:36.999Z</time></trkpt><trkpt lat="40.225103448909486" lon="8.488979490141896"><ele>152.0</ele><time>2026-03-30T08:17:37.999Z</time></trkpt><trkpt lat="40.224988890260164" lon="8.488981974302217"><ele>152.0</ele><time>2026-03-30T08:17:38.999Z</time></trkpt><trkpt lat="40.22487522040487" lon="8.489004122942687"><ele>152.0</ele><time>2026-03-30T08:17:39.999Z</time></trkpt><trkpt lat="40.224761129361376" lon="8.489034546171391"><ele>152.0</ele><time>2026-03-30T08:17:40.999Z</time></trkpt><trkpt lat="40.22464130128818" lon="8.489066988362696"><ele>152.0</ele><time>2026-03-30T08:17:42Z</time></trkpt><trkpt lat="40.224514042302495" lon="8.489097354063745"><ele>151.75</ele><time>2026-03-30T08:17:43Z</time></trkpt><trkpt lat="40.22437930520354" lon="8.489122688309322"><ele>151.5</ele><time>2026-03-30T08:17:44Z</time></trkpt><trkpt lat="40.22424518055641" lon="8.489145610291633"><ele>151.25</ele><time>2026-03-30T08:17:45Z</time></trkpt><trkpt lat="40.22411357425801" lon="8.489159423672389"><ele>151.0</ele><time>2026-03-30T08:17:46Z</time></trkpt><trkpt lat="40.223984177660284" lon="8.489165253060044"><ele>149.5</ele><time>2026-03-30T08:17:47Z</time></trkpt><trkpt lat="40.223859172343914" lon="8.489122317879218"><ele>148.0</ele><time>2026-03-30T08:17:48Z</time></trkpt><trkpt lat="40.22374002568726" lon="8.489087973895526"><ele>146.5</ele><time>2026-03-30T08:17:49Z</time></trkpt><trkpt lat="40.22361733878645" lon="8.489047080573647"><ele>145.0</ele><time>2026-03-30T08:17:50Z</time></trkpt><trkpt lat="40.223498416426615" lon="8.489018808605493"><ele>145.0</ele><time>2026-03-30T08:17:51Z</time></trkpt><trkpt lat="40.22338537960136" lon="8.488979544619058"><ele>145.0</ele><time>2026-03-30T08:17:52Z</time></trkpt><trkpt lat="40.22327247725624" lon="8.488939314135697"><ele>145.0</ele><time>2026-03-30T08:17:53Z</time></trkpt><trkpt lat="40.223158988698316" lon="8.488907449163518"><ele>145.0</ele><time>2026-03-30T08:17:54Z</time></trkpt><trkpt lat="40.22304143146575" lon="8.488849393795867"><ele>144.0</ele><time>2026-03-30T08:17:55Z</time></trkpt><trkpt lat="40.22291555354553" lon="8.488806184742538"><ele>143.0</ele><time>2026-03-30T08:17:56Z</time></trkpt><trkpt lat="40.22278139761878" lon="8.48876013415496"><ele>142.0</ele><time>2026-03-30T08:17:57Z</time></trkpt><trkpt lat="40.22264328014658" lon="8.488712723797255"><ele>141.0</ele><time>2026-03-30T08:17:58Z</time></trkpt><trkpt lat="40.22250202267262" lon="8.48866516279998"><ele>141.25</ele><time>2026-03-30T08:17:59Z</time></trkpt><trkpt lat="40.22235800403713" lon="8.488618537895476"><ele>141.5</ele><time>2026-03-30T08:18:00Z</time></trkpt><trkpt lat="40.222214394962755" lon="8.488588173327472"><ele>141.75</ele><time>2026-03-30T08:18:01Z</time></trkpt><trkpt lat="40.22207560419184" lon="8.488535599589362"><ele>142.0</ele><time>2026-03-30T08:18:02Z</time></trkpt><trkpt lat="40.22193625313226" lon="8.488487373670617"><ele>142.0</ele><time>2026-03-30T08:18:03Z</time></trkpt><trkpt lat="40.221793567556006" lon="8.488441983331695"><ele>142.0</ele><time>2026-03-30T08:18:04Z</time></trkpt><trkpt lat="40.221651077697416" lon="8.488398381184153"><ele>142.0</ele><time>2026-03-30T08:18:05Z</time></trkpt><trkpt lat="40.22151274659934" lon="8.488341337837184"><ele>142.0</ele><time>2026-03-30T08:18:06Z</time></trkpt><trkpt lat="40.22139682419275" lon="8.488302450812421"><ele>141.75</ele><time>2026-03-30T08:18:07Z</time></trkpt><trkpt lat="40.22128553770024" lon="8.488265118958942"><ele>141.5</ele><time>2026-03-30T08:18:08Z</time></trkpt><trkpt lat="40.22116846963212" lon="8.488242150132823"><ele>141.25</ele><time>2026-03-30T08:18:09Z</time></trkpt><trkpt lat="40.22104617217485" lon="8.488205402410209"><ele>141.0</ele><time>2026-03-30T08:18:10Z</time></trkpt><trkpt lat="40.22093425318908" lon="8.488167672930485"><ele>141.0</ele><time>2026-03-30T08:18:11Z</time></trkpt><trkpt lat="40.22082998334621" lon="8.488122614206535"><ele>141.0</ele><time>2026-03-30T08:18:12Z</time></trkpt><trkpt lat="40.22072347984649" lon="8.488081276154164"><ele>141.0</ele><time>2026-03-30T08:18:13Z</time></trkpt><trkpt lat="40.22061684236856" lon="8.48805107132161"><ele>141.0</ele><time>2026-03-30T08:18:14Z</time></trkpt><trkpt lat="40.220504848031716" lon="8.488017255045456"><ele>141.0</ele><time>2026-03-30T08:18:15Z</time></trkpt><trkpt lat="40.22038559846342" lon="8.487976770348382"><ele>140.5</ele><time>2026-03-30T08:18:16Z</time></trkpt><trkpt lat="40.220261601255544" lon="8.487937325870835"><ele>140.0</ele><time>2026-03-30T08:18:17Z</time></trkpt><trkpt lat="40.220135934332575" lon="8.48789305993517"><ele>139.5</ele><time>2026-03-30T08:18:18Z</time></trkpt><trkpt lat="40.22000763147167" lon="8.487839888635678"><ele>139.0</ele><time>2026-03-30T08:18:19Z</time></trkpt><trkpt lat="40.21987618859692" lon="8.487796228182697"><ele>140.2</ele><time>2026-03-30T08:18:20Z</time></trkpt><trkpt lat="40.21976404250965" lon="8.48772676149975"><ele>141.4</ele><time>2026-03-30T08:18:21Z</time></trkpt><trkpt lat="40.219682242944714" lon="8.48762592907366"><ele>142.6</ele><time>2026-03-30T08:18:22Z</time></trkpt><trkpt lat="40.21961811320066" lon="8.487519039198155"><ele>143.8</ele><time>2026-03-30T08:18:23Z</time></trkpt><trkpt lat="40.219546643302756" lon="8.487431872101867"><ele>145.0</ele><time>2026-03-30T08:18:24Z</time></trkpt><trkpt lat="40.219454490597165" lon="8.487378546051376"><ele>145.0</ele><time>2026-03-30T08:18:25Z</time></trkpt><trkpt lat="40.219349729561245" lon="8.487359366551866"><ele>145.0</ele><time>2026-03-30T08:18:26Z</time></trkpt><trkpt lat="40.21923792385087" lon="8.487338085463577"><ele>145.0</ele><time>2026-03-30T08:18:27Z</time></trkpt><trkpt lat="40.21913004186796" lon="8.487324437408757"><ele>145.0</ele><time>2026-03-30T08:18:28Z</time></trkpt><trkpt lat="40.2190192841065" lon="8.487310425531012"><ele>145.0</ele><time>2026-03-30T08:18:29Z</time></trkpt><trkpt lat="40.21890886159718" lon="8.487297279122235"><ele>145.6</ele><time>2026-03-30T08:18:30Z</time></trkpt><trkpt lat="40.218802645946994" lon="8.487287378105531"><ele>146.2</ele><time>2026-03-30T08:18:31Z</time></trkpt><trkpt lat="40.21869787738601" lon="8.487278783543326"><ele>146.8</ele><time>2026-03-30T08:18:32Z</time></trkpt><trkpt lat="40.21859508308982" lon="8.487269261144272"><ele>147.4</ele><time>2026-03-30T08:18:33Z</time></trkpt><trkpt lat="40.21849267184884" lon="8.487257592206126"><ele>148.0</ele><time>2026-03-30T08:18:34Z</time></trkpt><trkpt lat="40.21838805106575" lon="8.487249174155833"><ele>148.0</ele><time>2026-03-30T08:18:35Z</time></trkpt><trkpt lat="40.21829275719567" lon="8.487186786939812"><ele>148.0</ele><time>2026-03-30T08:18:36Z</time></trkpt><trkpt lat="40.21821056280546" lon="8.487091291549175"><ele>148.0</ele><time>2026-03-30T08:18:37Z</time></trkpt><trkpt lat="40.21813392592165" lon="8.48698046305098"><ele>148.0</ele><time>2026-03-30T08:18:38Z</time></trkpt><trkpt lat="40.218057359271484" lon="8.486861013750568"><ele>148.75</ele><time>2026-03-30T08:18:39Z</time></trkpt><trkpt lat="40.21797586841372" lon="8.486739784476374"><ele>149.5</ele><time>2026-03-30T08:18:40Z</time></trkpt><trkpt lat="40.217891616805716" lon="8.486615624177706"><ele>150.25</ele><time>2026-03-30T08:18:41Z</time></trkpt><trkpt lat="40.217803626250195" lon="8.48648744953861"><ele>151.0</ele><time>2026-03-30T08:18:42Z</time></trkpt><trkpt lat="40.21771588771655" lon="8.48635422259879"><ele>151.75</ele><time>2026-03-30T08:18:43Z</time></trkpt><trkpt lat="40.21762221930612" lon="8.486217241740437"><ele>152.5</ele><time>2026-03-30T08:18:44Z</time></trkpt><trkpt lat="40.21752606429109" lon="8.48607949892369"><ele>153.25</ele><time>2026-03-30T08:18:45Z</time></trkpt><trkpt lat="40.21744375801575" lon="8.485925983632221"><ele>154.0</ele><time>2026-03-30T08:18:46Z</time></trkpt><trkpt lat="40.217348256367146" lon="8.485783735365962"><ele>154.5</ele><time>2026-03-30T08:18:47Z</time></trkpt><trkpt lat="40.21725813044628" lon="8.48564949425396"><ele>155.0</ele><time>2026-03-30T08:18:48Z</time></trkpt><trkpt lat="40.21716733999058" lon="8.485514263237521"><ele>155.5</ele><time>2026-03-30T08:18:49Z</time></trkpt><trkpt lat="40.21707405485257" lon="8.485375316486092"><ele>156.0</ele><time>2026-03-30T08:18:50Z</time></trkpt><trkpt lat="40.21698179584207" lon="8.485237898117559"><ele>156.0</ele><time>2026-03-30T08:18:51Z</time></trkpt><trkpt lat="40.21688831104256" lon="8.485098653931106"><ele>156.0</ele><time>2026-03-30T08:18:52Z</time></trkpt><trkpt lat="40.216794288756454" lon="8.484958609144087"><ele>156.0</ele><time>2026-03-30T08:18:53Z</time></trkpt><trkpt lat="40.216698781970045" lon="8.4848163532652"><ele>156.0</ele><time>2026-03-30T08:18:54Z</time></trkpt><trkpt lat="40.21660345276998" lon="8.484676106548601"><ele>155.25</ele><time>2026-03-30T08:18:55Z</time></trkpt><trkpt lat="40.21651128102683" lon="8.484547138823947"><ele>154.5</ele><time>2026-03-30T08:18:56Z</time></trkpt><trkpt lat="40.21640327671196" lon="8.484448124388484"><ele>153.75</ele><time>2026-03-30T08:18:57Z</time></trkpt><trkpt lat="40.216293091726996" lon="8.484358365916231"><ele>153.0</ele><time>2026-03-30T08:18:58Z</time></trkpt><trkpt lat="40.216181395961165" lon="8.484262648582055"><ele>156.0</ele><time>2026-03-30T08:18:59Z</time></trkpt><trkpt lat="40.21605900797725" lon="8.484192096847561"><ele>159.0</ele><time>2026-03-30T08:19:00Z</time></trkpt><trkpt lat="40.21592941161909" lon="8.48414131980361"><ele>162.0</ele><time>2026-03-30T08:19:01Z</time></trkpt><trkpt lat="40.21580968540122" lon="8.484062508049272"><ele>165.0</ele><time>2026-03-30T08:19:02Z</time></trkpt><trkpt lat="40.215684620977015" lon="8.483985910227865"><ele>166.5</ele><time>2026-03-30T08:19:03Z</time></trkpt><trkpt lat="40.21556429164119" lon="8.483911286734504"><ele>168.0</ele><time>2026-03-30T08:19:04Z</time></trkpt><trkpt lat="40.21544783425904" lon="8.483825179861695"><ele>169.5</ele><time>2026-03-30T08:19:05Z</time></trkpt><trkpt lat="40.21534317758653" lon="8.48372393004907"><ele>171.0</ele><time>2026-03-30T08:19:06Z</time></trkpt><trkpt lat="40.21524908707926" lon="8.483610871084064"><ele>171.0</ele><time>2026-03-30T08:19:07Z</time></trkpt><trkpt lat="40.21516243433737" lon="8.483492124322552"><ele>171.0</ele><time>2026-03-30T08:19:08Z</time></trkpt><trkpt lat="40.21507810266001" lon="8.48336604016615"><ele>171.0</ele><time>2026-03-30T08:19:09Z</time></trkpt><trkpt lat="40.2149881746317" lon="8.483238541699382"><ele>171.0</ele><time>2026-03-30T08:19:10Z</time></trkpt><trkpt lat="40.21489135464266" lon="8.483108379474656"><ele>171.0</ele><time>2026-03-30T08:19:11Z</time></trkpt><trkpt lat="40.21479213955783" lon="8.482973450147174"><ele>171.0</ele><time>2026-03-30T08:19:12Z</time></trkpt><trkpt lat="40.21468896511871" lon="8.482831488102086"><ele>171.0</ele><time>2026-03-30T08:19:13Z</time></trkpt><trkpt lat="40.21458774834371" lon="8.482689379889033"><ele>171.0</ele><time>2026-03-30T08:19:14Z</time></trkpt><trkpt lat="40.214489760883914" lon="8.482558983738913"><ele>171.0</ele><time>2026-03-30T08:19:15Z</time></trkpt><trkpt lat="40.21439404276515" lon="8.482437414444458"><ele>171.0</ele><time>2026-03-30T08:19:16Z</time></trkpt><trkpt lat="40.21430141670188" lon="8.482318514550728"><ele>171.0</ele><time>2026-03-30T08:19:17Z</time></trkpt><trkpt lat="40.21421620358384" lon="8.482194509890897"><ele>171.0</ele><time>2026-03-30T08:19:18Z</time></trkpt><trkpt lat="40.2141290777625" lon="8.482069755612317"><ele>170.75</ele><time>2026-03-30T08:19:19Z</time></trkpt><trkpt lat="40.2140406134381" lon="8.481944882337459"><ele>170.5</ele><time>2026-03-30T08:19:20Z</time></trkpt><trkpt lat="40.213946451383116" lon="8.481818559082026"><ele>170.25</ele><time>2026-03-30T08:19:20.999Z</time></trkpt><trkpt lat="40.213852784468905" lon="8.481682883041227"><ele>170.0</ele><time>2026-03-30T08:19:21.999Z</time></trkpt><trkpt lat="40.21373420113649" lon="8.481573163778105"><ele>168.75</ele><time>2026-03-30T08:19:22.999Z</time></trkpt><trkpt lat="40.213596605234365" lon="8.481504934644022"><ele>167.5</ele><time>2026-03-30T08:19:23.999Z</time></trkpt><trkpt lat="40.213456448771545" lon="8.481437204004225"><ele>166.25</ele><time>2026-03-30T08:19:24.999Z</time></trkpt><trkpt lat="40.21331283247012" lon="8.481374609854145"><ele>165.0</ele><time>2026-03-30T08:19:25.999Z</time></trkpt><trkpt lat="40.21317659789494" lon="8.481308574824814"><ele>164.0</ele><time>2026-03-30T08:19:26.999Z</time></trkpt><trkpt lat="40.21304002387181" lon="8.481255992210558"><ele>163.0</ele><time>2026-03-30T08:19:27.999Z</time></trkpt><trkpt lat="40.212897949900174" lon="8.481202119196674"><ele>162.0</ele><time>2026-03-30T08:19:28.999Z</time></trkpt><trkpt lat="40.212756714145435" lon="8.481148758103432"><ele>161.0</ele><time>2026-03-30T08:19:29.999Z</time></trkpt><trkpt lat="40.21260814770521" lon="8.481090295002303"><ele>161.0</ele><time>2026-03-30T08:19:30.999Z</time></trkpt><trkpt lat="40.212467466364764" lon="8.481034934723017"><ele>161.0</ele><time>2026-03-30T08:19:31.999Z</time></trkpt><trkpt lat="40.21233263923075" lon="8.480982375888937"><ele>161.0</ele><time>2026-03-30T08:19:32.999Z</time></trkpt><trkpt lat="40.21218647673547" lon="8.480927928785276"><ele>161.0</ele><time>2026-03-30T08:19:33.999Z</time></trkpt><trkpt lat="40.21204313601522" lon="8.480891075414677"><ele>159.66666666666666</ele><time>2026-03-30T08:19:34.999Z</time></trkpt><trkpt lat="40.21190166677968" lon="8.48083536751281"><ele>158.33333333333334</ele><time>2026-03-30T08:19:35.999Z</time></trkpt><trkpt lat="40.21175809727757" lon="8.480778832543487"><ele>157.0</ele><time>2026-03-30T08:19:36.999Z</time></trkpt><trkpt lat="40.21161099693684" lon="8.480720907343681"><ele>157.0</ele><time>2026-03-30T08:19:37.999Z</time></trkpt><trkpt lat="40.2114624495499" lon="8.480663218920302"><ele>157.0</ele><time>2026-03-30T08:19:38.999Z</time></trkpt><trkpt lat="40.21131351413347" lon="8.480605274378066"><ele>157.0</ele><time>2026-03-30T08:19:39.999Z</time></trkpt><trkpt lat="40.21116250743846" lon="8.480546523993045"><ele>157.0</ele><time>2026-03-30T08:19:40.999Z</time></trkpt><trkpt lat="40.21101075887399" lon="8.480487484975407"><ele>157.0</ele><time>2026-03-30T08:19:41.999Z</time></trkpt><trkpt lat="40.21085896803013" lon="8.48042891220029"><ele>157.0</ele><time>2026-03-30T08:19:42.999Z</time></trkpt><trkpt lat="40.21070798352695" lon="8.480373955917152"><ele>156.0</ele><time>2026-03-30T08:19:43.999Z</time></trkpt><trkpt lat="40.210557627306905" lon="8.480319228322857"><ele>155.0</ele><time>2026-03-30T08:19:44.999Z</time></trkpt><trkpt lat="40.210404671041964" lon="8.480263554352552"><ele>154.0</ele><time>2026-03-30T08:19:45.999Z</time></trkpt><trkpt lat="40.21025092755801" lon="8.480206418817904"><ele>154.0</ele><time>2026-03-30T08:19:46.999Z</time></trkpt><trkpt lat="40.210097811770716" lon="8.48014933909352"><ele>154.0</ele><time>2026-03-30T08:19:47.999Z</time></trkpt><trkpt lat="40.20994752413196" lon="8.480093313756369"><ele>154.0</ele><time>2026-03-30T08:19:48.999Z</time></trkpt><trkpt lat="40.209803420504386" lon="8.48005988285064"><ele>153.75</ele><time>2026-03-30T08:19:49.999Z</time></trkpt><trkpt lat="40.209675134726" lon="8.479983250904507"><ele>153.5</ele><time>2026-03-30T08:19:50.999Z</time></trkpt><trkpt lat="40.20955104082977" lon="8.479923598798285"><ele>153.25</ele><time>2026-03-30T08:19:51.999Z</time></trkpt><trkpt lat="40.20943285296964" lon="8.479856712109223"><ele>153.0</ele><time>2026-03-30T08:19:52.999Z</time></trkpt><trkpt lat="40.209317537878874" lon="8.47978318309132"><ele>153.0</ele><time>2026-03-30T08:19:53.999Z</time></trkpt><trkpt lat="40.20920468322498" lon="8.479706510734424"><ele>153.0</ele><time>2026-03-30T08:19:54.999Z</time></trkpt><trkpt lat="40.20909018020925" lon="8.479626420887426"><ele>153.0</ele><time>2026-03-30T08:19:55.999Z</time></trkpt><trkpt lat="40.20897209766428" lon="8.479542025550224"><ele>153.0</ele><time>2026-03-30T08:19:56.999Z</time></trkpt><trkpt lat="40.20885832133064" lon="8.4794561209503"><ele>152.75</ele><time>2026-03-30T08:19:58Z</time></trkpt><trkpt lat="40.20873858500682" lon="8.479365456540608"><ele>152.5</ele><time>2026-03-30T08:19:59Z</time></trkpt><trkpt lat="40.208615960497646" lon="8.479272674003717"><ele>152.25</ele><time>2026-03-30T08:20:00Z</time></trkpt><trkpt lat="40.208490899005234" lon="8.47918065363857"><ele>152.0</ele><time>2026-03-30T08:20:01Z</time></trkpt><trkpt lat="40.20835772810754" lon="8.479101773652308"><ele>152.0</ele><time>2026-03-30T08:20:02Z</time></trkpt><trkpt lat="40.20823412257714" lon="8.479007367524877"><ele>152.0</ele><time>2026-03-30T08:20:03Z</time></trkpt><trkpt lat="40.20811588547848" lon="8.478906910337722"><ele>152.0</ele><time>2026-03-30T08:20:04Z</time></trkpt><trkpt lat="40.20800103780649" lon="8.478791874140986"><ele>152.0</ele><time>2026-03-30T08:20:05Z</time></trkpt><trkpt lat="40.20787447237601" lon="8.478745682894955"><ele>151.75</ele><time>2026-03-30T08:20:06Z</time></trkpt><trkpt lat="40.2077511170373" lon="8.47868674469753"><ele>151.5</ele><time>2026-03-30T08:20:07Z</time></trkpt><trkpt lat="40.20762848610145" lon="8.478607143623465"><ele>151.25</ele><time>2026-03-30T08:20:08Z</time></trkpt><trkpt lat="40.20749911535729" lon="8.478531121597497"><ele>151.0</ele><time>2026-03-30T08:20:09Z</time></trkpt><trkpt lat="40.207373423040856" lon="8.478429949426683"><ele>150.33333333333334</ele><time>2026-03-30T08:20:10Z</time></trkpt><trkpt lat="40.20723004169848" lon="8.478342588366306"><ele>149.66666666666666</ele><time>2026-03-30T08:20:11Z</time></trkpt><trkpt lat="40.20708549045422" lon="8.47825748276477"><ele>149.0</ele><time>2026-03-30T08:20:12Z</time></trkpt><trkpt lat="40.206943790149474" lon="8.478173398674867"><ele>149.0</ele><time>2026-03-30T08:20:13Z</time></trkpt><trkpt lat="40.20680659055337" lon="8.478091496142422"><ele>149.0</ele><time>2026-03-30T08:20:14Z</time></trkpt><trkpt lat="40.206673841801084" lon="8.478012250587124"><ele>149.0</ele><time>2026-03-30T08:20:15Z</time></trkpt><trkpt lat="40.206540548412" lon="8.47795562038474"><ele>149.0</ele><time>2026-03-30T08:20:16Z</time></trkpt><trkpt lat="40.206421190637585" lon="8.477861710837276"><ele>149.0</ele><time>2026-03-30T08:20:17Z</time></trkpt><trkpt lat="40.20629519920231" lon="8.477786738222155"><ele>149.0</ele><time>2026-03-30T08:20:18Z</time></trkpt><trkpt lat="40.20616802144164" lon="8.477711059669636"><ele>149.0</ele><time>2026-03-30T08:20:19Z</time></trkpt><trkpt lat="40.206040852249714" lon="8.477635386215896"><ele>149.0</ele><time>2026-03-30T08:20:20Z</time></trkpt><trkpt lat="40.205911187169455" lon="8.477558227559474"><ele>149.0</ele><time>2026-03-30T08:20:21Z</time></trkpt><trkpt lat="40.20577997240728" lon="8.47748014674464"><ele>149.0</ele><time>2026-03-30T08:20:22Z</time></trkpt><trkpt lat="40.20565008185001" lon="8.477402853909213"><ele>149.0</ele><time>2026-03-30T08:20:23Z</time></trkpt><trkpt lat="40.205525688413246" lon="8.477327736232539"><ele>149.0</ele><time>2026-03-30T08:20:24Z</time></trkpt><trkpt lat="40.20540218356103" lon="8.477252718750135"><ele>149.75</ele><time>2026-03-30T08:20:25Z</time></trkpt><trkpt lat="40.20527777932304" lon="8.477176981390517"><ele>150.5</ele><time>2026-03-30T08:20:26Z</time></trkpt><trkpt lat="40.205146546684034" lon="8.477118973252285"><ele>151.25</ele><time>2026-03-30T08:20:27Z</time></trkpt><trkpt lat="40.20502213058009" lon="8.477037862153754"><ele>152.0</ele><time>2026-03-30T08:20:28Z</time></trkpt><trkpt lat="40.20490236448951" lon="8.47694414996779"><ele>151.75</ele><time>2026-03-30T08:20:29Z</time></trkpt><trkpt lat="40.20477220059547" lon="8.476882902630207"><ele>151.5</ele><time>2026-03-30T08:20:30Z</time></trkpt><trkpt lat="40.20465231011351" lon="8.476806166243552"><ele>151.25</ele><time>2026-03-30T08:20:31Z</time></trkpt><trkpt lat="40.204525139898244" lon="8.476753688048644"><ele>151.0</ele><time>2026-03-30T08:20:32Z</time></trkpt><trkpt lat="40.20439089613366" lon="8.476718967752959"><ele>151.0</ele><time>2026-03-30T08:20:33Z</time></trkpt><trkpt lat="40.20424673273248" lon="8.476707221724233"><ele>151.0</ele><time>2026-03-30T08:20:34Z</time></trkpt><trkpt lat="40.20409551671763" lon="8.476757175923655"><ele>151.0</ele><time>2026-03-30T08:20:35Z</time></trkpt><trkpt lat="40.20395382803299" lon="8.476810527077651"><ele>151.0</ele><time>2026-03-30T08:20:36Z</time></trkpt><trkpt lat="40.203821610232325" lon="8.476885578089306"><ele>150.75</ele><time>2026-03-30T08:20:37Z</time></trkpt><trkpt lat="40.20367695074318" lon="8.476924094428588"><ele>150.5</ele><time>2026-03-30T08:20:38Z</time></trkpt><trkpt lat="40.203532473655535" lon="8.476983815739594"><ele>150.25</ele><time>2026-03-30T08:20:39Z</time></trkpt><trkpt lat="40.20339401481429" lon="8.477058129359019"><ele>150.0</ele><time>2026-03-30T08:20:40Z</time></trkpt><trkpt lat="40.20324927051346" lon="8.477121643335686"><ele>150.25</ele><time>2026-03-30T08:20:41Z</time></trkpt><trkpt lat="40.203113090428026" lon="8.477175129069565"><ele>150.5</ele><time>2026-03-30T08:20:42Z</time></trkpt><trkpt lat="40.20297789150315" lon="8.477224483517215"><ele>150.75</ele><time>2026-03-30T08:20:43Z</time></trkpt><trkpt lat="40.202840822898374" lon="8.477274062263733"><ele>151.0</ele><time>2026-03-30T08:20:44Z</time></trkpt><trkpt lat="40.20270652155102" lon="8.477286852371087"><ele>151.0</ele><time>2026-03-30T08:20:45Z</time></trkpt><trkpt lat="40.20257102968689" lon="8.47730635033178"><ele>151.0</ele><time>2026-03-30T08:20:46Z</time></trkpt><trkpt lat="40.20244031655" lon="8.477323253795426"><ele>151.0</ele><time>2026-03-30T08:20:47Z</time></trkpt><trkpt lat="40.20231843526318" lon="8.477337282691408"><ele>151.0</ele><time>2026-03-30T08:20:48Z</time></trkpt><trkpt lat="40.20220247180733" lon="8.477369962327318"><ele>150.75</ele><time>2026-03-30T08:20:49Z</time></trkpt><trkpt lat="40.202072123376716" lon="8.477360351857804"><ele>150.5</ele><time>2026-03-30T08:20:50Z</time></trkpt><trkpt lat="40.201948173436335" lon="8.47737098408122"><ele>150.25</ele><time>2026-03-30T08:20:51Z</time></trkpt><trkpt lat="40.20182193144007" lon="8.477397817687786"><ele>150.0</ele><time>2026-03-30T08:20:52Z</time></trkpt><trkpt lat="40.2016846254739" lon="8.47740810543792"><ele>150.0</ele><time>2026-03-30T08:20:53Z</time></trkpt><trkpt lat="40.201547115118686" lon="8.477407817320644"><ele>150.0</ele><time>2026-03-30T08:20:54Z</time></trkpt><trkpt lat="40.20140950375206" lon="8.47737639027901"><ele>150.0</ele><time>2026-03-30T08:20:55Z</time></trkpt><trkpt lat="40.20127316388514" lon="8.477346548818959"><ele>150.0</ele><time>2026-03-30T08:20:56Z</time></trkpt><trkpt lat="40.20113951617955" lon="8.477309483324566"><ele>150.5</ele><time>2026-03-30T08:20:57Z</time></trkpt><trkpt lat="40.20100596310672" lon="8.477272345142216"><ele>151.0</ele><time>2026-03-30T08:20:58Z</time></trkpt><trkpt lat="40.200874281515446" lon="8.477235334020571"><ele>151.5</ele><time>2026-03-30T08:20:59Z</time></trkpt><trkpt lat="40.2007396752149" lon="8.477196637715334"><ele>152.0</ele><time>2026-03-30T08:21:00Z</time></trkpt><trkpt lat="40.20061363777843" lon="8.477160404769062"><ele>152.4</ele><time>2026-03-30T08:21:01Z</time></trkpt><trkpt lat="40.200502040676774" lon="8.47713413755286"><ele>152.79999999999998</ele><time>2026-03-30T08:21:02Z</time></trkpt><trkpt lat="40.20040371664286" lon="8.477111332239282"><ele>153.2</ele><time>2026-03-30T08:21:03Z</time></trkpt><trkpt lat="40.200308702573025" lon="8.477091377754673"><ele>153.6</ele><time>2026-03-30T08:21:04Z</time></trkpt><trkpt lat="40.20021922402199" lon="8.477069208938447"><ele>154.0</ele><time>2026-03-30T08:21:05Z</time></trkpt><trkpt lat="40.2001397792673" lon="8.477038971994642"><ele>154.5</ele><time>2026-03-30T08:21:06Z</time></trkpt><trkpt lat="40.20005708679666" lon="8.477019263971494"><ele>155.0</ele><time>2026-03-30T08:21:07Z</time></trkpt><trkpt lat="40.199975115523216" lon="8.47699390126056"><ele>155.5</ele><time>2026-03-30T08:21:08Z</time></trkpt><trkpt lat="40.19988839451553" lon="8.476973941021106"><ele>156.0</ele><time>2026-03-30T08:21:09Z</time></trkpt><trkpt lat="40.199804330973855" lon="8.47693152252372"><ele>156.5</ele><time>2026-03-30T08:21:10Z</time></trkpt><trkpt lat="40.19971675624197" lon="8.476889530212022"><ele>157.0</ele><time>2026-03-30T08:21:11Z</time></trkpt><trkpt lat="40.19964357056782" lon="8.476812249957247"><ele>155.25</ele><time>2026-03-30T08:21:12Z</time></trkpt><trkpt lat="40.19957495639238" lon="8.47671651328887"><ele>153.5</ele><time>2026-03-30T08:21:13Z</time></trkpt><trkpt lat="40.19951089402529" lon="8.476600696451936"><ele>151.75</ele><time>2026-03-30T08:21:14Z</time></trkpt><trkpt lat="40.199468773059245" lon="8.47646086946538"><ele>150.0</ele><time>2026-03-30T08:21:15Z</time></trkpt><trkpt lat="40.199415675395095" lon="8.476310310068824"><ele>150.0</ele><time>2026-03-30T08:21:16Z</time></trkpt><trkpt lat="40.19936402058991" lon="8.476166098200817"><ele>150.0</ele><time>2026-03-30T08:21:17Z</time></trkpt><trkpt lat="40.19931347386757" lon="8.476035185407596"><ele>150.0</ele><time>2026-03-30T08:21:18Z</time></trkpt><trkpt lat="40.19925412590157" lon="8.47591207780217"><ele>150.0</ele><time>2026-03-30T08:21:19Z</time></trkpt><trkpt lat="40.19918095817645" lon="8.475801853883677"><ele>150.0</ele><time>2026-03-30T08:21:20Z</time></trkpt><trkpt lat="40.19907542476977" lon="8.475735313793438"><ele>150.0</ele><time>2026-03-30T08:21:21Z</time></trkpt><trkpt lat="40.19896699057552" lon="8.475718150245896"><ele>150.0</ele><time>2026-03-30T08:21:22Z</time></trkpt><trkpt lat="40.198865577955914" lon="8.475698224363448"><ele>150.0</ele><time>2026-03-30T08:21:23Z</time></trkpt><trkpt lat="40.19875606055618" lon="8.475706863711093"><ele>150.0</ele><time>2026-03-30T08:21:24Z</time></trkpt><trkpt lat="40.1986395853011" lon="8.4757013452954"><ele>148.5</ele><time>2026-03-30T08:21:25Z</time></trkpt><trkpt lat="40.1985256779831" lon="8.475710119971009"><ele>147.0</ele><time>2026-03-30T08:21:26Z</time></trkpt><trkpt lat="40.198406706096016" lon="8.475719616127686"><ele>145.5</ele><time>2026-03-30T08:21:27Z</time></trkpt><trkpt lat="40.19828652462735" lon="8.475729981703005"><ele>144.0</ele><time>2026-03-30T08:21:28Z</time></trkpt><trkpt lat="40.19816436345777" lon="8.475743053481121"><ele>142.75</ele><time>2026-03-30T08:21:29Z</time></trkpt><trkpt lat="40.198039384265236" lon="8.475758050982824"><ele>141.5</ele><time>2026-03-30T08:21:30Z</time></trkpt><trkpt lat="40.197916934920244" lon="8.475772744901859"><ele>140.25</ele><time>2026-03-30T08:21:31Z</time></trkpt><trkpt lat="40.197797342863396" lon="8.475786059156892"><ele>139.0</ele><time>2026-03-30T08:21:32Z</time></trkpt><trkpt lat="40.19767608751258" lon="8.475820139006746"><ele>139.0</ele><time>2026-03-30T08:21:33Z</time></trkpt><trkpt lat="40.19755779301149" lon="8.4758322646339"><ele>139.0</ele><time>2026-03-30T08:21:34Z</time></trkpt><trkpt lat="40.19744122769446" lon="8.475822841336534"><ele>139.0</ele><time>2026-03-30T08:21:35Z</time></trkpt><trkpt lat="40.19732527332385" lon="8.47583526486142"><ele>139.0</ele><time>2026-03-30T08:21:35.999Z</time></trkpt><trkpt lat="40.197210333318" lon="8.475848379182457"><ele>138.0</ele><time>2026-03-30T08:21:36.999Z</time></trkpt><trkpt lat="40.197095441511" lon="8.475862054649673"><ele>137.0</ele><time>2026-03-30T08:21:37.999Z</time></trkpt><trkpt lat="40.196980860520995" lon="8.475876229470504"><ele>136.0</ele><time>2026-03-30T08:21:38.999Z</time></trkpt><trkpt lat="40.19686540190993" lon="8.475890512863709"><ele>135.0</ele><time>2026-03-30T08:21:39.999Z</time></trkpt><trkpt lat="40.19675273503515" lon="8.475926109362298"><ele>135.0</ele><time>2026-03-30T08:21:40.999Z</time></trkpt><trkpt lat="40.19663736667721" lon="8.475931824737392"><ele>135.0</ele><time>2026-03-30T08:21:41.999Z</time></trkpt><trkpt lat="40.19651768193905" lon="8.475949446630793"><ele>135.0</ele><time>2026-03-30T08:21:42.999Z</time></trkpt><trkpt lat="40.196397953934266" lon="8.475963041751122"><ele>135.0</ele><time>2026-03-30T08:21:43.999Z</time></trkpt><trkpt lat="40.19627529729882" lon="8.475983489016583"><ele>134.0</ele><time>2026-03-30T08:21:45Z</time></trkpt><trkpt lat="40.1961522608004" lon="8.475991562338937"><ele>133.0</ele><time>2026-03-30T08:21:46Z</time></trkpt><trkpt lat="40.19602834891667" lon="8.475986179024694"><ele>132.0</ele><time>2026-03-30T08:21:47Z</time></trkpt><trkpt lat="40.19591231598744" lon="8.47600743442773"><ele>131.0</ele><time>2026-03-30T08:21:48Z</time></trkpt><trkpt lat="40.1957992039851" lon="8.47601891493836"><ele>131.0</ele><time>2026-03-30T08:21:49Z</time></trkpt><trkpt lat="40.19568986007833" lon="8.476029930043522"><ele>131.0</ele><time>2026-03-30T08:21:50Z</time></trkpt><trkpt lat="40.19558134804135" lon="8.476046491758565"><ele>131.0</ele><time>2026-03-30T08:21:51Z</time></trkpt><trkpt lat="40.195476610129795" lon="8.476057392195658"><ele>131.0</ele><time>2026-03-30T08:21:52Z</time></trkpt><trkpt lat="40.19537388809868" lon="8.476069176980564"><ele>131.0</ele><time>2026-03-30T08:21:53Z</time></trkpt><trkpt lat="40.19527172756186" lon="8.476078523234602"><ele>130.4</ele><time>2026-03-30T08:21:54Z</time></trkpt><trkpt lat="40.195171357181515" lon="8.4760917057827"><ele>129.8</ele><time>2026-03-30T08:21:55Z</time></trkpt><trkpt lat="40.195073989785826" lon="8.476100550017698"><ele>129.20000000000002</ele><time>2026-03-30T08:21:56Z</time></trkpt><trkpt lat="40.19497719533105" lon="8.476112392402854"><ele>128.6</ele><time>2026-03-30T08:21:57Z</time></trkpt><trkpt lat="40.19488915090902" lon="8.4761223564121"><ele>128.0</ele><time>2026-03-30T08:21:58Z</time></trkpt><trkpt lat="40.194810152818555" lon="8.476130281257072"><ele>127.0</ele><time>2026-03-30T08:21:59Z</time></trkpt><trkpt lat="40.1946975415589" lon="8.476144698986124"><ele>126.00000000000001</ele><time>2026-03-30T08:22:01Z</time></trkpt><trkpt lat="40.194632935601696" lon="8.476153959209835"><ele>125.00000000000001</ele><time>2026-03-30T08:22:03Z</time></trkpt><trkpt lat="40.1946174024459" lon="8.476326913403279"><ele>124.0</ele><time>2026-03-30T08:22:11Z</time></trkpt><trkpt lat="40.19467355089704" lon="8.47638132984529"><ele>123.0</ele><time>2026-03-30T08:22:14Z</time></trkpt><trkpt lat="40.19476701613013" lon="8.47645665664169"><ele>123.0</ele><time>2026-03-30T08:32:47Z</time></trkpt><trkpt lat="40.1948258533223" lon="8.476514165237152"><ele>123.00000000000001</ele><time>2026-03-30T08:32:48Z</time></trkpt><trkpt lat="40.19489181494648" lon="8.476569999409584"><ele>123.00000000000001</ele><time>2026-03-30T08:32:49Z</time></trkpt><trkpt lat="40.19495612730392" lon="8.476657049655278"><ele>123.0</ele><time>2026-03-30T08:32:50Z</time></trkpt><trkpt lat="40.19503531871927" lon="8.476734365247554"><ele>123.0</ele><time>2026-03-30T08:32:51Z</time></trkpt><trkpt lat="40.19512645072016" lon="8.476807385018102"><ele>123.0</ele><time>2026-03-30T08:32:52Z</time></trkpt><trkpt lat="40.19521276944957" lon="8.476896875687379"><ele>123.0</ele><time>2026-03-30T08:32:53Z</time></trkpt><trkpt lat="40.19530592624554" lon="8.476989428414537"><ele>123.0</ele><time>2026-03-30T08:32:54Z</time></trkpt><trkpt lat="40.195381092006045" lon="8.477110415531511"><ele>123.0</ele><time>2026-03-30T08:32:55Z</time></trkpt><trkpt lat="40.19546582942939" lon="8.477224999159537"><ele>122.0</ele><time>2026-03-30T08:32:56Z</time></trkpt><trkpt lat="40.19555880721451" lon="8.477365538867687"><ele>121.0</ele><time>2026-03-30T08:32:57Z</time></trkpt><trkpt lat="40.19566509657718" lon="8.477549036082472"><ele>120.0</ele><time>2026-03-30T08:32:58Z</time></trkpt><trkpt lat="40.19578357883976" lon="8.477763306732873"><ele>122.33333333333334</ele><time>2026-03-30T08:32:59Z</time></trkpt><trkpt lat="40.19592552710135" lon="8.47796462719224"><ele>124.66666666666667</ele><time>2026-03-30T08:33:00Z</time></trkpt><trkpt lat="40.19606023455984" lon="8.478197051423585"><ele>127.0</ele><time>2026-03-30T08:33:01Z</time></trkpt><trkpt lat="40.19620967743646" lon="8.47846723168321"><ele>127.0</ele><time>2026-03-30T08:33:02Z</time></trkpt><trkpt lat="40.19635944885098" lon="8.478710214451938"><ele>127.0</ele><time>2026-03-30T08:33:03Z</time></trkpt><trkpt lat="40.196490338281" lon="8.478909025203423"><ele>127.0</ele><time>2026-03-30T08:33:04Z</time></trkpt><trkpt lat="40.196608735237334" lon="8.47907916753903"><ele>128.75</ele><time>2026-03-30T08:33:05Z</time></trkpt><trkpt lat="40.19671030838779" lon="8.479249653233706"><ele>130.5</ele><time>2026-03-30T08:33:06Z</time></trkpt><trkpt lat="40.19677083525757" lon="8.479422241922867"><ele>132.25</ele><time>2026-03-30T08:33:07Z</time></trkpt><trkpt lat="40.1968183433356" lon="8.479577998411035"><ele>134.0</ele><time>2026-03-30T08:33:08Z</time></trkpt><trkpt lat="40.19684444620339" lon="8.479737347212907"><ele>134.66666666666666</ele><time>2026-03-30T08:33:09Z</time></trkpt><trkpt lat="40.19687166312079" lon="8.47994325576872"><ele>135.33333333333334</ele><time>2026-03-30T08:33:10Z</time></trkpt><trkpt lat="40.19689155589583" lon="8.480140769136579"><ele>136.0</ele><time>2026-03-30T08:33:11Z</time></trkpt><trkpt lat="40.19691268407274" lon="8.480327120560863"><ele>136.66666666666669</ele><time>2026-03-30T08:33:12Z</time></trkpt><trkpt lat="40.196965269746144" lon="8.480489964593183"><ele>137.33333333333334</ele><time>2026-03-30T08:33:13Z</time></trkpt><trkpt lat="40.19700228808379" lon="8.480668515714878"><ele>138.0</ele><time>2026-03-30T08:33:14Z</time></trkpt><trkpt lat="40.197085501822784" lon="8.480870111392296"><ele>138.0</ele><time>2026-03-30T08:33:15Z</time></trkpt><trkpt lat="40.19722076743381" lon="8.481092312048867"><ele>138.0</ele><time>2026-03-30T08:33:16Z</time></trkpt><trkpt lat="40.19733001413078" lon="8.481332910274874"><ele>138.0</ele><time>2026-03-30T08:33:17Z</time></trkpt><trkpt lat="40.19741922734487" lon="8.481495262467325"><ele>139.25</ele><time>2026-03-30T08:33:18Z</time></trkpt><trkpt lat="40.19750560247082" lon="8.481623374028151"><ele>140.5</ele><time>2026-03-30T08:33:19Z</time></trkpt><trkpt lat="40.197596531601555" lon="8.481752969452963"><ele>141.75</ele><time>2026-03-30T08:33:20Z</time></trkpt><trkpt lat="40.19770805571016" lon="8.481883334285065"><ele>143.0</ele><time>2026-03-30T08:33:21Z</time></trkpt><trkpt lat="40.19784241850423" lon="8.482017117851761"><ele>143.33333333333331</ele><time>2026-03-30T08:33:22Z</time></trkpt><trkpt lat="40.19800251739815" lon="8.482195097949647"><ele>143.66666666666666</ele><time>2026-03-30T08:33:23Z</time></trkpt><trkpt lat="40.19816988812602" lon="8.482363295591416"><ele>144.0</ele><time>2026-03-30T08:33:24Z</time></trkpt><trkpt lat="40.19829209595502" lon="8.48248785425585"><ele>143.2</ele><time>2026-03-30T08:33:25Z</time></trkpt><trkpt lat="40.198384528310385" lon="8.482584375943887"><ele>142.4</ele><time>2026-03-30T08:33:26Z</time></trkpt><trkpt lat="40.19846167125285" lon="8.482670054855081"><ele>141.6</ele><time>2026-03-30T08:33:27Z</time></trkpt><trkpt lat="40.198520599427404" lon="8.482745718416616"><ele>140.8</ele><time>2026-03-30T08:33:28Z</time></trkpt><trkpt lat="40.19858282332119" lon="8.482853176684207"><ele>140.0</ele><time>2026-03-30T08:33:30Z</time></trkpt><trkpt lat="40.19862129455183" lon="8.48292058163657"><ele>140.0</ele><time>2026-03-30T08:33:51Z</time></trkpt><trkpt lat="40.198758632116075" lon="8.482872653833162"><ele>140.0</ele><time>2026-03-30T08:33:53Z</time></trkpt><trkpt lat="40.198853774194866" lon="8.482809568660885"><ele>140.0</ele><time>2026-03-30T08:33:54Z</time></trkpt><trkpt lat="40.1989680190857" lon="8.482782124130052"><ele>140.0</ele><time>2026-03-30T08:33:55Z</time></trkpt><trkpt lat="40.199100636614055" lon="8.482691153451457"><ele>137.66666666666666</ele><time>2026-03-30T08:33:56Z</time></trkpt><trkpt lat="40.1992316750122" lon="8.482607710168963"><ele>135.33333333333334</ele><time>2026-03-30T08:33:57Z</time></trkpt><trkpt lat="40.19937767889789" lon="8.482528463978232"><ele>133.0</ele><time>2026-03-30T08:33:58Z</time></trkpt><trkpt lat="40.19950885125603" lon="8.48242130431668"><ele>133.0</ele><time>2026-03-30T08:33:59Z</time></trkpt><trkpt lat="40.19963673357902" lon="8.482321724680041"><ele>133.0</ele><time>2026-03-30T08:34:00Z</time></trkpt><trkpt lat="40.19974805580789" lon="8.482220471269123"><ele>133.0</ele><time>2026-03-30T08:34:01Z</time></trkpt><trkpt lat="40.199848176406576" lon="8.482124043843363"><ele>133.0</ele><time>2026-03-30T08:34:02Z</time></trkpt><trkpt lat="40.199951814001466" lon="8.482047458199922"><ele>132.25</ele><time>2026-03-30T08:34:03Z</time></trkpt><trkpt lat="40.20005942670155" lon="8.482041151841637"><ele>131.5</ele><time>2026-03-30T08:34:04Z</time></trkpt><trkpt lat="40.20017888290084" lon="8.482037382480543"><ele>130.75</ele><time>2026-03-30T08:34:05Z</time></trkpt><trkpt lat="40.200307774663735" lon="8.482068160577466"><ele>130.0</ele><time>2026-03-30T08:34:06Z</time></trkpt><trkpt lat="40.20045084871198" lon="8.482102860503813"><ele>129.25</ele><time>2026-03-30T08:34:07Z</time></trkpt><trkpt lat="40.200597704966256" lon="8.482128583086729"><ele>128.5</ele><time>2026-03-30T08:34:08Z</time></trkpt><trkpt lat="40.200738219019186" lon="8.482149349441944"><ele>127.75</ele><time>2026-03-30T08:34:09Z</time></trkpt><trkpt lat="40.2008632065478" lon="8.482153004126749"><ele>127.0</ele><time>2026-03-30T08:34:10Z</time></trkpt><trkpt lat="40.200986883369985" lon="8.482141956334244"><ele>127.0</ele><time>2026-03-30T08:34:11Z</time></trkpt><trkpt lat="40.20111320158882" lon="8.482124146335442"><ele>127.0</ele><time>2026-03-30T08:34:12Z</time></trkpt><trkpt lat="40.2012366250747" lon="8.482100947697424"><ele>127.0</ele><time>2026-03-30T08:34:13Z</time></trkpt><trkpt lat="40.201351336178696" lon="8.48209655960183"><ele>127.0</ele><time>2026-03-30T08:34:14Z</time></trkpt><trkpt lat="40.20144461313458" lon="8.48210198707179"><ele>126.39999999999999</ele><time>2026-03-30T08:34:15Z</time></trkpt><trkpt lat="40.20152421953147" lon="8.482138672072374"><ele>125.79999999999998</ele><time>2026-03-30T08:34:16Z</time></trkpt><trkpt lat="40.201602360834244" lon="8.482222427146194"><ele>125.2</ele><time>2026-03-30T08:34:17Z</time></trkpt><trkpt lat="40.20168850610755" lon="8.482320480089706"><ele>124.6</ele><time>2026-03-30T08:34:18Z</time></trkpt><trkpt lat="40.20179280738633" lon="8.482387957687344"><ele>124.0</ele><time>2026-03-30T08:34:19Z</time></trkpt><trkpt lat="40.20191090532946" lon="8.482424615377319"><ele>124.0</ele><time>2026-03-30T08:34:20Z</time></trkpt><trkpt lat="40.20202880729398" lon="8.482444558930474"><ele>124.0</ele><time>2026-03-30T08:34:21Z</time></trkpt><trkpt lat="40.20214704275951" lon="8.482448410722228"><ele>124.0</ele><time>2026-03-30T08:34:22Z</time></trkpt><trkpt lat="40.202243229934794" lon="8.482436217504636"><ele>124.0</ele><time>2026-03-30T08:34:23Z</time></trkpt><trkpt lat="40.202313087203144" lon="8.482400827450563"><ele>124.0</ele><time>2026-03-30T08:34:27Z</time></trkpt><trkpt lat="40.20241416176542" lon="8.48237848493754"><ele>124.2</ele><time>2026-03-30T08:34:29Z</time></trkpt><trkpt lat="40.20248467944018" lon="8.48241339597133"><ele>124.4</ele><time>2026-03-30T08:34:30Z</time></trkpt><trkpt lat="40.20254555490769" lon="8.48250118395258"><ele>124.6</ele><time>2026-03-30T08:34:31Z</time></trkpt><trkpt lat="40.20264608293097" lon="8.482613221907776"><ele>124.8</ele><time>2026-03-30T08:34:32Z</time></trkpt><trkpt lat="40.20273986215972" lon="8.482709916844277"><ele>125.0</ele><time>2026-03-30T08:34:33Z</time></trkpt><trkpt lat="40.202852483494596" lon="8.482811174950132"><ele>125.0</ele><time>2026-03-30T08:34:34Z</time></trkpt><trkpt lat="40.202984460330484" lon="8.48289351635855"><ele>125.0</ele><time>2026-03-30T08:34:35Z</time></trkpt><trkpt lat="40.203108513121734" lon="8.482957499038426"><ele>125.0</ele><time>2026-03-30T08:34:36Z</time></trkpt><trkpt lat="40.203220867760365" lon="8.483028526575431"><ele>125.0</ele><time>2026-03-30T08:34:37Z</time></trkpt><trkpt lat="40.20330372566631" lon="8.483094590935853"><ele>125.2</ele><time>2026-03-30T08:34:38Z</time></trkpt><trkpt lat="40.203367186165885" lon="8.483168472714642"><ele>125.4</ele><time>2026-03-30T08:34:40Z</time></trkpt><trkpt lat="40.20327890849028" lon="8.48328690429087"><ele>125.6</ele><time>2026-03-30T08:34:43Z</time></trkpt><trkpt lat="40.20322710791933" lon="8.48336847447219"><ele>125.8</ele><time>2026-03-30T08:34:44Z</time></trkpt><trkpt lat="40.203153990713574" lon="8.48343958777482"><ele>126.0</ele><time>2026-03-30T08:34:45Z</time></trkpt><trkpt lat="40.203077956193" lon="8.483533417291774"><ele>126.0</ele><time>2026-03-30T08:34:46Z</time></trkpt><trkpt lat="40.2030006856322" lon="8.483637758727546"><ele>126.0</ele><time>2026-03-30T08:34:47Z</time></trkpt><trkpt lat="40.2029158784326" lon="8.48375802736799"><ele>126.0</ele><time>2026-03-30T08:34:48Z</time></trkpt><trkpt lat="40.202827812654476" lon="8.483897265574761"><ele>126.0</ele><time>2026-03-30T08:34:49Z</time></trkpt><trkpt lat="40.202727517134434" lon="8.484030264993383"><ele>125.75</ele><time>2026-03-30T08:34:50Z</time></trkpt><trkpt lat="40.2026274032602" lon="8.484172259517685"><ele>125.5</ele><time>2026-03-30T08:34:51Z</time></trkpt><trkpt lat="40.20252516410164" lon="8.484315524902412"><ele>125.25</ele><time>2026-03-30T08:34:52Z</time></trkpt><trkpt lat="40.202415422068334" lon="8.484452282407126"><ele>125.0</ele><time>2026-03-30T08:34:53Z</time></trkpt><trkpt lat="40.202294182896104" lon="8.484592791515281"><ele>123.66666666666666</ele><time>2026-03-30T08:34:54Z</time></trkpt><trkpt lat="40.202158476588465" lon="8.484727836335452"><ele>122.33333333333334</ele><time>2026-03-30T08:34:55Z</time></trkpt><trkpt lat="40.202019844844926" lon="8.484859321170335"><ele>121.0</ele><time>2026-03-30T08:34:56Z</time></trkpt><trkpt lat="40.20188992621836" lon="8.484979280189556"><ele>121.0</ele><time>2026-03-30T08:34:57Z</time></trkpt><trkpt lat="40.20178427938507" lon="8.485077223796536"><ele>121.0</ele><time>2026-03-30T08:34:58Z</time></trkpt><trkpt lat="40.20168716862013" lon="8.48514493307723"><ele>121.0</ele><time>2026-03-30T08:34:59Z</time></trkpt><trkpt lat="40.20158941874963" lon="8.485163566529518"><ele>121.0</ele><time>2026-03-30T08:35:00Z</time></trkpt><trkpt lat="40.201485541123276" lon="8.485184012189452"><ele>121.0</ele><time>2026-03-30T08:35:01Z</time></trkpt><trkpt lat="40.201348630361075" lon="8.485215745060035"><ele>120.75</ele><time>2026-03-30T08:35:02Z</time></trkpt><trkpt lat="40.20121334075535" lon="8.485254430756603"><ele>120.5</ele><time>2026-03-30T08:35:03Z</time></trkpt><trkpt lat="40.20108852676882" lon="8.485296769126123"><ele>120.25</ele><time>2026-03-30T08:35:04Z</time></trkpt><trkpt lat="40.20095396091465" lon="8.485361458659748"><ele>120.0</ele><time>2026-03-30T08:35:05Z</time></trkpt><trkpt lat="40.20081886453288" lon="8.485443232448253"><ele>118.75</ele><time>2026-03-30T08:35:06Z</time></trkpt><trkpt lat="40.200682525203625" lon="8.485525176917655"><ele>117.5</ele><time>2026-03-30T08:35:07Z</time></trkpt><trkpt lat="40.20054867412739" lon="8.485605230364335"><ele>116.25</ele><time>2026-03-30T08:35:08Z</time></trkpt><trkpt lat="40.20044311887885" lon="8.485683027839714"><ele>115.0</ele><time>2026-03-30T08:35:09Z</time></trkpt><trkpt lat="40.200352767603114" lon="8.485730377032317"><ele>114.75</ele><time>2026-03-30T08:35:10Z</time></trkpt><trkpt lat="40.20027271324219" lon="8.48577502635725"><ele>114.5</ele><time>2026-03-30T08:35:11Z</time></trkpt><trkpt lat="40.200163286250245" lon="8.485821690679867"><ele>114.25</ele><time>2026-03-30T08:35:12Z</time></trkpt><trkpt lat="40.20002403098777" lon="8.485900585456434"><ele>114.0</ele><time>2026-03-30T08:35:13Z</time></trkpt><trkpt lat="40.19990227015092" lon="8.485989384944244"><ele>117.33333333333334</ele><time>2026-03-30T08:35:14Z</time></trkpt><trkpt lat="40.199764236496655" lon="8.48606626429085"><ele>120.66666666666667</ele><time>2026-03-30T08:35:15Z</time></trkpt><trkpt lat="40.19961596370237" lon="8.486149828403605"><ele>124.0</ele><time>2026-03-30T08:35:16Z</time></trkpt><trkpt lat="40.199460043324926" lon="8.48621937848196"><ele>123.5</ele><time>2026-03-30T08:35:17Z</time></trkpt><trkpt lat="40.1993142767692" lon="8.486305071712419"><ele>123.0</ele><time>2026-03-30T08:35:18Z</time></trkpt><trkpt lat="40.1991823443035" lon="8.486383712490731"><ele>122.5</ele><time>2026-03-30T08:35:19Z</time></trkpt><trkpt lat="40.19906604149096" lon="8.486462752002964"><ele>122.0</ele><time>2026-03-30T08:35:20Z</time></trkpt><trkpt lat="40.19896225481714" lon="8.486527526773347"><ele>122.0</ele><time>2026-03-30T08:35:21Z</time></trkpt><trkpt lat="40.198878046296855" lon="8.486622010757896"><ele>122.0</ele><time>2026-03-30T08:35:22Z</time></trkpt><trkpt lat="40.198809616949646" lon="8.486746675553757"><ele>122.0</ele><time>2026-03-30T08:35:23Z</time></trkpt><trkpt lat="40.198739209364525" lon="8.48690430987484"><ele>122.0</ele><time>2026-03-30T08:35:24Z</time></trkpt><trkpt lat="40.19865571141272" lon="8.48704440184518"><ele>118.75</ele><time>2026-03-30T08:35:25Z</time></trkpt><trkpt lat="40.19856653346404" lon="8.48716495004056"><ele>115.5</ele><time>2026-03-30T08:35:26Z</time></trkpt><trkpt lat="40.19847794411753" lon="8.487283498064619"><ele>112.25</ele><time>2026-03-30T08:35:27Z</time></trkpt><trkpt lat="40.19839049309449" lon="8.487398456571988"><ele>109.0</ele><time>2026-03-30T08:35:28Z</time></trkpt><trkpt lat="40.198308132728975" lon="8.487530083412699"><ele>109.0</ele><time>2026-03-30T08:35:29Z</time></trkpt><trkpt lat="40.198218621907294" lon="8.487677295304424"><ele>109.0</ele><time>2026-03-30T08:35:30Z</time></trkpt><trkpt lat="40.19812179209424" lon="8.487828221644117"><ele>109.0</ele><time>2026-03-30T08:35:31Z</time></trkpt><trkpt lat="40.19801697579408" lon="8.48797900107675"><ele>110.0</ele><time>2026-03-30T08:35:32.001Z</time></trkpt><trkpt lat="40.197919232591765" lon="8.488126412610967"><ele>111.0</ele><time>2026-03-30T08:35:33.001Z</time></trkpt><trkpt lat="40.19783006406676" lon="8.488267435604756"><ele>112.0</ele><time>2026-03-30T08:35:34.001Z</time></trkpt><trkpt lat="40.19774324686484" lon="8.488388880073158"><ele>113.0</ele><time>2026-03-30T08:35:35.001Z</time></trkpt><trkpt lat="40.197663124693584" lon="8.48850200733368"><ele>113.0</ele><time>2026-03-30T08:35:36.001Z</time></trkpt><trkpt lat="40.19759512453455" lon="8.488594443461004"><ele>113.00000000000001</ele><time>2026-03-30T08:35:37.001Z</time></trkpt><trkpt lat="40.19753589208967" lon="8.488689588586517"><ele>113.00000000000001</ele><time>2026-03-30T08:35:38.001Z</time></trkpt><trkpt lat="40.19748379569133" lon="8.488787405437582"><ele>113.0</ele><time>2026-03-30T08:35:39.001Z</time></trkpt><trkpt lat="40.19743829757893" lon="8.48890444986154"><ele>113.0</ele><time>2026-03-30T08:35:40.001Z</time></trkpt><trkpt lat="40.19739754273221" lon="8.489055817960502"><ele>113.0</ele><time>2026-03-30T08:35:41.001Z</time></trkpt><trkpt lat="40.19735539825514" lon="8.489252055577172"><ele>113.0</ele><time>2026-03-30T08:35:42.001Z</time></trkpt><trkpt lat="40.19730982293031" lon="8.489438287621732"><ele>113.0</ele><time>2026-03-30T08:35:43.001Z</time></trkpt><trkpt lat="40.19725928324447" lon="8.489598371377241"><ele>113.0</ele><time>2026-03-30T08:35:44.001Z</time></trkpt><trkpt lat="40.19721074120496" lon="8.489727772875428"><ele>110.57142857142857</ele><time>2026-03-30T08:35:45.001Z</time></trkpt><trkpt lat="40.19718495336641" lon="8.48983188380004"><ele>108.14285714285714</ele><time>2026-03-30T08:35:46.001Z</time></trkpt><trkpt lat="40.19717532866217" lon="8.48992988398234"><ele>105.71428571428571</ele><time>2026-03-30T08:35:47.001Z</time></trkpt><trkpt lat="40.1971953076801" lon="8.490024217192362"><ele>103.28571428571428</ele><time>2026-03-30T08:35:48.001Z</time></trkpt><trkpt lat="40.197231105981466" lon="8.490096737155401"><ele>100.85714285714286</ele><time>2026-03-30T08:35:49.001Z</time></trkpt><trkpt lat="40.197285168563724" lon="8.490157002875383"><ele>98.42857142857142</ele><time>2026-03-30T08:35:50.001Z</time></trkpt><trkpt lat="40.19734323192324" lon="8.490216746730207"><ele>96.0</ele><time>2026-03-30T08:35:51.001Z</time></trkpt><trkpt lat="40.197422096746315" lon="8.490268456626655"><ele>96.0</ele><time>2026-03-30T08:35:52.001Z</time></trkpt><trkpt lat="40.19750280945196" lon="8.490347615475642"><ele>96.0</ele><time>2026-03-30T08:35:53.001Z</time></trkpt><trkpt lat="40.19760167991683" lon="8.490413354268606"><ele>96.0</ele><time>2026-03-30T08:35:54.001Z</time></trkpt><trkpt lat="40.19770447194615" lon="8.490483277984175"><ele>96.0</ele><time>2026-03-30T08:35:55.001Z</time></trkpt><trkpt lat="40.1978159616551" lon="8.490557643185008"><ele>96.0</ele><time>2026-03-30T08:35:56.001Z</time></trkpt><trkpt lat="40.1979236634361" lon="8.490643021842846"><ele>96.0</ele><time>2026-03-30T08:35:57.001Z</time></trkpt><trkpt lat="40.19803386206486" lon="8.490734503903209"><ele>96.0</ele><time>2026-03-30T08:35:58.001Z</time></trkpt><trkpt lat="40.198135899386585" lon="8.490837474100669"><ele>96.0</ele><time>2026-03-30T08:35:59.001Z</time></trkpt><trkpt lat="40.198224079644966" lon="8.490964335545495"><ele>96.0</ele><time>2026-03-30T08:36:00.001Z</time></trkpt><trkpt lat="40.198309945633724" lon="8.49112761633209"><ele>96.0</ele><time>2026-03-30T08:36:01.001Z</time></trkpt><trkpt lat="40.19841560725146" lon="8.491319180040675"><ele>96.0</ele><time>2026-03-30T08:36:02.001Z</time></trkpt><trkpt lat="40.19851007782245" lon="8.491486389477828"><ele>94.4</ele><time>2026-03-30T08:36:03.001Z</time></trkpt><trkpt lat="40.19859346877809" lon="8.491612087887216"><ele>92.8</ele><time>2026-03-30T08:36:04.001Z</time></trkpt><trkpt lat="40.19865000010546" lon="8.491699113816505"><ele>91.2</ele><time>2026-03-30T08:36:05.001Z</time></trkpt><trkpt lat="40.19866555867134" lon="8.49179101359985"><ele>89.60000000000001</ele><time>2026-03-30T08:36:07.001Z</time></trkpt><trkpt lat="40.19860337547071" lon="8.491899005683335"><ele>88.0</ele><time>2026-03-30T08:36:09.001Z</time></trkpt><trkpt lat="40.19853051591909" lon="8.491948851254238"><ele>88.0</ele><time>2026-03-30T08:36:10.001Z</time></trkpt><trkpt lat="40.198458957066094" lon="8.492017349627606"><ele>88.0</ele><time>2026-03-30T08:36:11.001Z</time></trkpt><trkpt lat="40.19838015033816" lon="8.492088051927947"><ele>88.0</ele><time>2026-03-30T08:36:12.001Z</time></trkpt><trkpt lat="40.198297151965996" lon="8.4921621081773"><ele>88.0</ele><time>2026-03-30T08:36:13.001Z</time></trkpt><trkpt lat="40.19821051918598" lon="8.492218281173065"><ele>88.0</ele><time>2026-03-30T08:36:14.001Z</time></trkpt><trkpt lat="40.19811841668523" lon="8.492275359592439"><ele>88.25</ele><time>2026-03-30T08:36:15.001Z</time></trkpt><trkpt lat="40.19801455752914" lon="8.492336880324675"><ele>88.5</ele><time>2026-03-30T08:36:16.001Z</time></trkpt><trkpt lat="40.19789967194013" lon="8.492422283887828"><ele>88.75</ele><time>2026-03-30T08:36:17.001Z</time></trkpt><trkpt lat="40.19776059852118" lon="8.492476543341294"><ele>89.0</ele><time>2026-03-30T08:36:18.001Z</time></trkpt><trkpt lat="40.19762361178866" lon="8.492537031214015"><ele>89.0</ele><time>2026-03-30T08:36:19.001Z</time></trkpt><trkpt lat="40.197490505755404" lon="8.492596661667912"><ele>89.0</ele><time>2026-03-30T08:36:20.001Z</time></trkpt><trkpt lat="40.197356083295674" lon="8.492663431865537"><ele>89.0</ele><time>2026-03-30T08:36:21.001Z</time></trkpt><trkpt lat="40.197225769295294" lon="8.492745001235411"><ele>89.0</ele><time>2026-03-30T08:36:22.001Z</time></trkpt><trkpt lat="40.197098746546786" lon="8.49285144125579"><ele>93.66666666666667</ele><time>2026-03-30T08:36:23.001Z</time></trkpt><trkpt lat="40.19697839476493" lon="8.492980213686806"><ele>98.33333333333334</ele><time>2026-03-30T08:36:24.001Z</time></trkpt><trkpt lat="40.196855061886296" lon="8.49310728437627"><ele>103.0</ele><time>2026-03-30T08:36:25.001Z</time></trkpt><trkpt lat="40.19673047489522" lon="8.493232842687528"><ele>103.0</ele><time>2026-03-30T08:36:26.001Z</time></trkpt><trkpt lat="40.196631754738924" lon="8.493348243549168"><ele>103.0</ele><time>2026-03-30T08:36:27.001Z</time></trkpt><trkpt lat="40.19653740857237" lon="8.493444707572948"><ele>103.0</ele><time>2026-03-30T08:36:28.001Z</time></trkpt><trkpt lat="40.19644100575499" lon="8.493544893643032"><ele>103.0</ele><time>2026-03-30T08:36:29.001Z</time></trkpt><trkpt lat="40.19634858003141" lon="8.493654593879869"><ele>104.5</ele><time>2026-03-30T08:36:30.001Z</time></trkpt><trkpt lat="40.19624784332082" lon="8.493753030362116"><ele>106.0</ele><time>2026-03-30T08:36:31.001Z</time></trkpt><trkpt lat="40.196147673856935" lon="8.493856181849686"><ele>107.5</ele><time>2026-03-30T08:36:32.001Z</time></trkpt><trkpt lat="40.19603974810509" lon="8.49397353368988"><ele>109.0</ele><time>2026-03-30T08:36:33.001Z</time></trkpt><trkpt lat="40.195921352229995" lon="8.494091477959621"><ele>109.0</ele><time>2026-03-30T08:36:34Z</time></trkpt><trkpt lat="40.1958068124251" lon="8.494184980420435"><ele>109.0</ele><time>2026-03-30T08:36:35Z</time></trkpt><trkpt lat="40.19571717388657" lon="8.494265202762588"><ele>109.0</ele><time>2026-03-30T08:36:36Z</time></trkpt><trkpt lat="40.1956410416403" lon="8.494320339848084"><ele>109.0</ele><time>2026-03-30T08:36:37Z</time></trkpt><trkpt lat="40.19556056304489" lon="8.494408999815052"><ele>109.0</ele><time>2026-03-30T08:36:39Z</time></trkpt><trkpt lat="40.19561935665464" lon="8.494517512664808"><ele>109.00000000000001</ele><time>2026-03-30T08:36:41Z</time></trkpt><trkpt lat="40.19573321329179" lon="8.49454444520912"><ele>109.0</ele><time>2026-03-30T08:36:43Z</time></trkpt><trkpt lat="40.19579660853279" lon="8.494567600124553"><ele>109.0</ele><time>2026-03-30T08:36:44Z</time></trkpt><trkpt lat="40.19586893756132" lon="8.494586651243694"><ele>109.0</ele><time>2026-03-30T08:36:45Z</time></trkpt><trkpt lat="40.19595516264189" lon="8.494595272766409"><ele>109.00000000000001</ele><time>2026-03-30T08:36:46Z</time></trkpt><trkpt lat="40.19604764976581" lon="8.494618359394215"><ele>109.0</ele><time>2026-03-30T08:36:47Z</time></trkpt><trkpt lat="40.196148816509854" lon="8.494635265266975"><ele>109.25</ele><time>2026-03-30T08:36:48Z</time></trkpt><trkpt lat="40.19626047145039" lon="8.49466811481829"><ele>109.5</ele><time>2026-03-30T08:36:49Z</time></trkpt><trkpt lat="40.19637596186687" lon="8.494714757610694"><ele>109.75</ele><time>2026-03-30T08:36:50Z</time></trkpt><trkpt lat="40.19646129481914" lon="8.494819400521857"><ele>110.0</ele><time>2026-03-30T08:36:51Z</time></trkpt><trkpt lat="40.19654894330001" lon="8.49492860929476"><ele>117.66666666666666</ele><time>2026-03-30T08:36:52Z</time></trkpt><trkpt lat="40.19663781523994" lon="8.495070590075935"><ele>125.33333333333334</ele><time>2026-03-30T08:36:53Z</time></trkpt><trkpt lat="40.19673057904363" lon="8.495231715220406"><ele>133.0</ele><time>2026-03-30T08:36:54Z</time></trkpt><trkpt lat="40.19683000108113" lon="8.495398065623425"><ele>130.33333333333334</ele><time>2026-03-30T08:36:55Z</time></trkpt><trkpt lat="40.19692516764634" lon="8.495567708471576"><ele>127.66666666666666</ele><time>2026-03-30T08:36:56Z</time></trkpt><trkpt lat="40.19701498832657" lon="8.495742750247151"><ele>125.0</ele><time>2026-03-30T08:36:57Z</time></trkpt><trkpt lat="40.197087858596426" lon="8.49590346202495"><ele>125.0</ele><time>2026-03-30T08:36:58Z</time></trkpt><trkpt lat="40.19714583206942" lon="8.496058081412917"><ele>125.0</ele><time>2026-03-30T08:36:59Z</time></trkpt><trkpt lat="40.19718465316497" lon="8.496213440716602"><ele>125.0</ele><time>2026-03-30T08:37:00Z</time></trkpt><trkpt lat="40.1972053965043" lon="8.496355198157008"><ele>125.0</ele><time>2026-03-30T08:37:01Z</time></trkpt><trkpt lat="40.197208252633615" lon="8.49649676621285"><ele>125.5</ele><time>2026-03-30T08:37:02Z</time></trkpt><trkpt lat="40.19718701149068" lon="8.496649979092357"><ele>126.0</ele><time>2026-03-30T08:37:03Z</time></trkpt><trkpt lat="40.19714621099412" lon="8.496815399256517"><ele>126.5</ele><time>2026-03-30T08:37:04Z</time></trkpt><trkpt lat="40.19709190279478" lon="8.496996296248057"><ele>127.0</ele><time>2026-03-30T08:37:05Z</time></trkpt><trkpt lat="40.19703283828092" lon="8.497206086369125"><ele>131.66666666666669</ele><time>2026-03-30T08:37:06Z</time></trkpt><trkpt lat="40.19697353264465" lon="8.4974164144823"><ele>136.33333333333334</ele><time>2026-03-30T08:37:07Z</time></trkpt><trkpt lat="40.196910954358266" lon="8.497630261486506"><ele>141.0</ele><time>2026-03-30T08:37:08Z</time></trkpt><trkpt lat="40.19684950802448" lon="8.497841029585034"><ele>144.66666666666666</ele><time>2026-03-30T08:37:09Z</time></trkpt><trkpt lat="40.19678724287812" lon="8.49804353363019"><ele>148.33333333333331</ele><time>2026-03-30T08:37:10Z</time></trkpt><trkpt lat="40.196714344863906" lon="8.498226605446119"><ele>152.0</ele><time>2026-03-30T08:37:11Z</time></trkpt><trkpt lat="40.196618486976355" lon="8.498366568727693"><ele>152.0</ele><time>2026-03-30T08:37:12Z</time></trkpt><trkpt lat="40.196517191235856" lon="8.49851298772432"><ele>152.0</ele><time>2026-03-30T08:37:13Z</time></trkpt><trkpt lat="40.19641427407041" lon="8.498639589797488"><ele>152.0</ele><time>2026-03-30T08:37:14Z</time></trkpt><trkpt lat="40.19634981282806" lon="8.498782180481973"><ele>152.0</ele><time>2026-03-30T08:37:15Z</time></trkpt><trkpt lat="40.19630520669929" lon="8.498894577586556"><ele>148.0</ele><time>2026-03-30T08:37:16Z</time></trkpt><trkpt lat="40.19629326508308" lon="8.499021900627538"><ele>144.0</ele><time>2026-03-30T08:37:17Z</time></trkpt><trkpt lat="40.19631249476104" lon="8.49917149482131"><ele>140.0</ele><time>2026-03-30T08:37:18Z</time></trkpt><trkpt lat="40.19633651029098" lon="8.499343721074117"><ele>136.0</ele><time>2026-03-30T08:37:19Z</time></trkpt><trkpt lat="40.19636216361929" lon="8.499531620982017"><ele>137.0</ele><time>2026-03-30T08:37:20Z</time></trkpt><trkpt lat="40.19639596485328" lon="8.499732727975738"><ele>138.0</ele><time>2026-03-30T08:37:21Z</time></trkpt><trkpt lat="40.19643065006098" lon="8.499933930042138"><ele>139.0</ele><time>2026-03-30T08:37:22Z</time></trkpt><trkpt lat="40.1964638712838" lon="8.500142023770726"><ele>139.0</ele><time>2026-03-30T08:37:23Z</time></trkpt><trkpt lat="40.196499838550864" lon="8.500348212476625"><ele>139.0</ele><time>2026-03-30T08:37:24Z</time></trkpt><trkpt lat="40.19654290710372" lon="8.50055748053693"><ele>139.0</ele><time>2026-03-30T08:37:25Z</time></trkpt><trkpt lat="40.19659747385892" lon="8.50076317749215"><ele>144.66666666666669</ele><time>2026-03-30T08:37:26Z</time></trkpt><trkpt lat="40.19667108706569" lon="8.50096008784919"><ele>150.33333333333334</ele><time>2026-03-30T08:37:27Z</time></trkpt><trkpt lat="40.1967677405579" lon="8.501148677451779"><ele>156.0</ele><time>2026-03-30T08:37:28Z</time></trkpt><trkpt lat="40.19687513014318" lon="8.501335905761756"><ele>156.0</ele><time>2026-03-30T08:37:29Z</time></trkpt><trkpt lat="40.19698096907963" lon="8.501504382202368"><ele>156.0</ele><time>2026-03-30T08:37:30Z</time></trkpt><trkpt lat="40.197084493611214" lon="8.501643509999017"><ele>156.0</ele><time>2026-03-30T08:37:31Z</time></trkpt><trkpt lat="40.197189989981254" lon="8.501763615364842"><ele>156.0</ele><time>2026-03-30T08:37:32Z</time></trkpt><trkpt lat="40.197308691414584" lon="8.50187489063655"><ele>156.0</ele><time>2026-03-30T08:37:33Z</time></trkpt><trkpt lat="40.19743960144512" lon="8.501975036697429"><ele>156.0</ele><time>2026-03-30T08:37:34Z</time></trkpt><trkpt lat="40.19757734397844" lon="8.502073844255186"><ele>161.33333333333334</ele><time>2026-03-30T08:37:35Z</time></trkpt><trkpt lat="40.19772146125644" lon="8.502174046087674"><ele>166.66666666666669</ele><time>2026-03-30T08:37:36Z</time></trkpt><trkpt lat="40.1978637586337" lon="8.502279299247489"><ele>172.0</ele><time>2026-03-30T08:37:37Z</time></trkpt><trkpt lat="40.19799689150728" lon="8.50237859414022"><ele>172.0</ele><time>2026-03-30T08:37:38Z</time></trkpt><trkpt lat="40.19812649911481" lon="8.502487190264274"><ele>172.0</ele><time>2026-03-30T08:37:39Z</time></trkpt><trkpt lat="40.198235420569986" lon="8.502592728896614"><ele>172.0</ele><time>2026-03-30T08:37:40Z</time></trkpt><trkpt lat="40.19832604434776" lon="8.50270405937202"><ele>172.0</ele><time>2026-03-30T08:37:41Z</time></trkpt><trkpt lat="40.19840495790972" lon="8.502836540675938"><ele>174.75</ele><time>2026-03-30T08:37:42Z</time></trkpt><trkpt lat="40.19846330533747" lon="8.502990589088412"><ele>177.5</ele><time>2026-03-30T08:37:43Z</time></trkpt><trkpt lat="40.19849893262006" lon="8.503160912500917"><ele>180.25</ele><time>2026-03-30T08:37:44Z</time></trkpt><trkpt lat="40.198525186411906" lon="8.50334715778542"><ele>183.0</ele><time>2026-03-30T08:37:45Z</time></trkpt><trkpt lat="40.19855797705414" lon="8.503547482611022"><ele>181.33333333333334</ele><time>2026-03-30T08:37:46Z</time></trkpt><trkpt lat="40.19859746368323" lon="8.503755005187413"><ele>179.66666666666669</ele><time>2026-03-30T08:37:47Z</time></trkpt><trkpt lat="40.19863802029248" lon="8.50397503008747"><ele>178.0</ele><time>2026-03-30T08:37:48Z</time></trkpt><trkpt lat="40.198677885891904" lon="8.504189440554107"><ele>178.0</ele><time>2026-03-30T08:37:49Z</time></trkpt><trkpt lat="40.198717593346835" lon="8.504409050676651"><ele>178.0</ele><time>2026-03-30T08:37:50Z</time></trkpt><trkpt lat="40.19874642306809" lon="8.504624694885454"><ele>178.0</ele><time>2026-03-30T08:37:51Z</time></trkpt><trkpt lat="40.19875358016965" lon="8.504834547060137"><ele>177.75</ele><time>2026-03-30T08:37:52Z</time></trkpt><trkpt lat="40.19874602894979" lon="8.505032367069086"><ele>177.5</ele><time>2026-03-30T08:37:53.001Z</time></trkpt><trkpt lat="40.19873859194198" lon="8.505212302507866"><ele>177.25</ele><time>2026-03-30T08:37:54.001Z</time></trkpt><trkpt lat="40.19873648865917" lon="8.505374822855087"><ele>177.0</ele><time>2026-03-30T08:37:55.001Z</time></trkpt><trkpt lat="40.19875166216989" lon="8.505520993907009"><ele>175.25</ele><time>2026-03-30T08:37:56.001Z</time></trkpt><trkpt lat="40.198794886085516" lon="8.505654348369204"><ele>173.5</ele><time>2026-03-30T08:37:57.001Z</time></trkpt><trkpt lat="40.198872339004346" lon="8.50576445643564"><ele>171.75</ele><time>2026-03-30T08:37:58.001Z</time></trkpt><trkpt lat="40.19896931086638" lon="8.50586340209674"><ele>170.0</ele><time>2026-03-30T08:37:59.001Z</time></trkpt><trkpt lat="40.19908155406356" lon="8.505959214059967"><ele>175.33333333333331</ele><time>2026-03-30T08:38:00.001Z</time></trkpt><trkpt lat="40.199208411541605" lon="8.506072728786204"><ele>180.66666666666666</ele><time>2026-03-30T08:38:01.001Z</time></trkpt><trkpt lat="40.19933063523506" lon="8.506196110351052"><ele>186.0</ele><time>2026-03-30T08:38:02.001Z</time></trkpt><trkpt lat="40.19944934914873" lon="8.506339315933769"><ele>186.0</ele><time>2026-03-30T08:38:03.001Z</time></trkpt><trkpt lat="40.19955450525738" lon="8.506489807792867"><ele>186.0</ele><time>2026-03-30T08:38:04.001Z</time></trkpt><trkpt lat="40.19964293759854" lon="8.506636777784472"><ele>186.0</ele><time>2026-03-30T08:38:05.001Z</time></trkpt><trkpt lat="40.19973037588254" lon="8.506765610742368"><ele>186.0</ele><time>2026-03-30T08:38:06.001Z</time></trkpt><trkpt lat="40.199819205013945" lon="8.50685154276476"><ele>190.25</ele><time>2026-03-30T08:38:07.001Z</time></trkpt><trkpt lat="40.19993763619798" lon="8.506860348935344"><ele>194.5</ele><time>2026-03-30T08:38:08.001Z</time></trkpt><trkpt lat="40.20007433979772" lon="8.506866747276485"><ele>198.75</ele><time>2026-03-30T08:38:09.001Z</time></trkpt><trkpt lat="40.20022921034565" lon="8.506877931622464"><ele>203.0</ele><time>2026-03-30T08:38:10.001Z</time></trkpt><trkpt lat="40.200400118102564" lon="8.506858459987512"><ele>203.0</ele><time>2026-03-30T08:38:11.001Z</time></trkpt><trkpt lat="40.20056750619136" lon="8.506827489286588"><ele>203.0</ele><time>2026-03-30T08:38:12.001Z</time></trkpt><trkpt lat="40.20073875282369" lon="8.506800250117763"><ele>203.0</ele><time>2026-03-30T08:38:13.001Z</time></trkpt><trkpt lat="40.200916138504574" lon="8.506783598690518"><ele>205.0</ele><time>2026-03-30T08:38:14.001Z</time></trkpt><trkpt lat="40.201088499241784" lon="8.5067974435246"><ele>207.0</ele><time>2026-03-30T08:38:15.001Z</time></trkpt><trkpt lat="40.201258615098055" lon="8.506847656482902"><ele>209.0</ele><time>2026-03-30T08:38:16.001Z</time></trkpt><trkpt lat="40.20142026081291" lon="8.506925457629468"><ele>211.33333333333334</ele><time>2026-03-30T08:38:17.001Z</time></trkpt><trkpt lat="40.20157913453054" lon="8.507011125940519"><ele>213.66666666666669</ele><time>2026-03-30T08:38:18.001Z</time></trkpt><trkpt lat="40.20172787693077" lon="8.507102378037967"><ele>216.0</ele><time>2026-03-30T08:38:19.001Z</time></trkpt><trkpt lat="40.20185736681716" lon="8.507234222271464"><ele>211.33333333333331</ele><time>2026-03-30T08:38:20.001Z</time></trkpt><trkpt lat="40.20200063479708" lon="8.507331515745225"><ele>206.66666666666666</ele><time>2026-03-30T08:38:21.001Z</time></trkpt><trkpt lat="40.202117526258625" lon="8.507453788284606"><ele>202.0</ele><time>2026-03-30T08:38:22.001Z</time></trkpt><trkpt lat="40.20222898197926" lon="8.507574236301906"><ele>202.5</ele><time>2026-03-30T08:38:23.001Z</time></trkpt><trkpt lat="40.20234020960752" lon="8.507682407980116"><ele>203.0</ele><time>2026-03-30T08:38:24.001Z</time></trkpt><trkpt lat="40.20243812518011" lon="8.507782568992512"><ele>203.5</ele><time>2026-03-30T08:38:25.001Z</time></trkpt><trkpt lat="40.20252952679742" lon="8.507859572876654"><ele>204.0</ele><time>2026-03-30T08:38:26.001Z</time></trkpt><trkpt lat="40.20261753046483" lon="8.507922572034063"><ele>202.39999999999998</ele><time>2026-03-30T08:38:27.001Z</time></trkpt><trkpt lat="40.20269100254426" lon="8.507999296001696"><ele>200.8</ele><time>2026-03-30T08:38:28.001Z</time></trkpt><trkpt lat="40.202726896921824" lon="8.508107691685014"><ele>199.2</ele><time>2026-03-30T08:38:29.001Z</time></trkpt><trkpt lat="40.20276513466833" lon="8.508242943751288"><ele>197.60000000000002</ele><time>2026-03-30T08:38:30.001Z</time></trkpt><trkpt lat="40.20280066794154" lon="8.50839787896181"><ele>196.0</ele><time>2026-03-30T08:38:31.001Z</time></trkpt><trkpt lat="40.202846085330094" lon="8.508568792349287"><ele>195.0</ele><time>2026-03-30T08:38:32.001Z</time></trkpt><trkpt lat="40.20289823007943" lon="8.508743847321833"><ele>194.0</ele><time>2026-03-30T08:38:33.001Z</time></trkpt><trkpt lat="40.20294653579189" lon="8.508922228892628"><ele>193.0</ele><time>2026-03-30T08:38:34.001Z</time></trkpt><trkpt lat="40.20298450293778" lon="8.509115359312847"><ele>192.0</ele><time>2026-03-30T08:38:35.001Z</time></trkpt><trkpt lat="40.20301234238432" lon="8.509308015224372"><ele>192.0</ele><time>2026-03-30T08:38:36.001Z</time></trkpt><trkpt lat="40.20300142902466" lon="8.509500027982666"><ele>192.0</ele><time>2026-03-30T08:38:37.001Z</time></trkpt><trkpt lat="40.20298262214434" lon="8.509689824250717"><ele>192.0</ele><time>2026-03-30T08:38:38.001Z</time></trkpt><trkpt lat="40.202973879975026" lon="8.509893835811276"><ele>192.0</ele><time>2026-03-30T08:38:39.001Z</time></trkpt><trkpt lat="40.20295000348189" lon="8.510100759740435"><ele>192.66666666666669</ele><time>2026-03-30T08:38:40.001Z</time></trkpt><trkpt lat="40.20293073608167" lon="8.51031086215447"><ele>193.33333333333334</ele><time>2026-03-30T08:38:41.001Z</time></trkpt><trkpt lat="40.20292768294009" lon="8.510510857825842"><ele>194.0</ele><time>2026-03-30T08:38:42.001Z</time></trkpt><trkpt lat="40.202951996827075" lon="8.51070483495425"><ele>194.33333333333334</ele><time>2026-03-30T08:38:43.001Z</time></trkpt><trkpt lat="40.20300559992753" lon="8.510893145060562"><ele>194.66666666666669</ele><time>2026-03-30T08:38:44.001Z</time></trkpt><trkpt lat="40.203089028936404" lon="8.511073068016255"><ele>195.0</ele><time>2026-03-30T08:38:45Z</time></trkpt><trkpt lat="40.20318634431377" lon="8.511241317816966"><ele>196.0</ele><time>2026-03-30T08:38:46Z</time></trkpt><trkpt lat="40.203283360508436" lon="8.51140842019233"><ele>197.0</ele><time>2026-03-30T08:38:47Z</time></trkpt><trkpt lat="40.20337706774174" lon="8.511580703034435"><ele>198.0</ele><time>2026-03-30T08:38:48Z</time></trkpt><trkpt lat="40.20345450547325" lon="8.511769139592227"><ele>198.0</ele><time>2026-03-30T08:38:49Z</time></trkpt><trkpt lat="40.20351714290868" lon="8.511975232702618"><ele>198.0</ele><time>2026-03-30T08:38:50Z</time></trkpt><trkpt lat="40.203562130810816" lon="8.512189336650716"><ele>198.0</ele><time>2026-03-30T08:38:51Z</time></trkpt><trkpt lat="40.203601574601116" lon="8.512402796842776"><ele>198.33333333333331</ele><time>2026-03-30T08:38:52Z</time></trkpt><trkpt lat="40.203645393631916" lon="8.512617702346517"><ele>198.66666666666666</ele><time>2026-03-30T08:38:53Z</time></trkpt><trkpt lat="40.203692725030265" lon="8.512837603106775"><ele>199.0</ele><time>2026-03-30T08:38:54Z</time></trkpt><trkpt lat="40.20374156780822" lon="8.513060948034237"><ele>199.66666666666666</ele><time>2026-03-30T08:38:55Z</time></trkpt><trkpt lat="40.2037977175466" lon="8.51328157258304"><ele>200.33333333333331</ele><time>2026-03-30T08:38:56Z</time></trkpt><trkpt lat="40.20386132690621" lon="8.513503230730922"><ele>201.0</ele><time>2026-03-30T08:38:57Z</time></trkpt><trkpt lat="40.203934702102906" lon="8.513717088543451"><ele>202.0</ele><time>2026-03-30T08:38:58Z</time></trkpt><trkpt lat="40.20401074610693" lon="8.513931607735737"><ele>203.0</ele><time>2026-03-30T08:38:59Z</time></trkpt><trkpt lat="40.20408865314942" lon="8.514148696944877"><ele>204.0</ele><time>2026-03-30T08:39:00Z</time></trkpt><trkpt lat="40.204158901234955" lon="8.514362213819611"><ele>204.0</ele><time>2026-03-30T08:39:01Z</time></trkpt><trkpt lat="40.204231466770985" lon="8.514569799283954"><ele>204.0</ele><time>2026-03-30T08:39:02Z</time></trkpt><trkpt lat="40.20430444891693" lon="8.514761245449002"><ele>204.0</ele><time>2026-03-30T08:39:03Z</time></trkpt><trkpt lat="40.204366838694106" lon="8.514937362923481"><ele>204.33333333333331</ele><time>2026-03-30T08:39:04Z</time></trkpt><trkpt lat="40.204375401760025" lon="8.51512522542732"><ele>204.66666666666666</ele><time>2026-03-30T08:39:05Z</time></trkpt><trkpt lat="40.20437994511413" lon="8.515323918598702"><ele>205.0</ele><time>2026-03-30T08:39:06Z</time></trkpt><trkpt lat="40.20439146819198" lon="8.515536541261064"><ele>205.33333333333331</ele><time>2026-03-30T08:39:07Z</time></trkpt><trkpt lat="40.204385788032866" lon="8.515758071253844"><ele>205.66666666666669</ele><time>2026-03-30T08:39:08Z</time></trkpt><trkpt lat="40.20436509252414" lon="8.515978599228685"><ele>206.0</ele><time>2026-03-30T08:39:09Z</time></trkpt><trkpt lat="40.20435702842196" lon="8.516209638551981"><ele>206.66666666666669</ele><time>2026-03-30T08:39:10Z</time></trkpt><trkpt lat="40.20432043290393" lon="8.516436750761676"><ele>207.33333333333331</ele><time>2026-03-30T08:39:11Z</time></trkpt><trkpt lat="40.20428739791918" lon="8.51666606009492"><ele>208.0</ele><time>2026-03-30T08:39:12Z</time></trkpt><trkpt lat="40.20426024191944" lon="8.516887665532394"><ele>208.0</ele><time>2026-03-30T08:39:13Z</time></trkpt><trkpt lat="40.2042301896343" lon="8.517099150070502"><ele>208.0</ele><time>2026-03-30T08:39:14Z</time></trkpt><trkpt lat="40.20416495459741" lon="8.51727421956053"><ele>208.0</ele><time>2026-03-30T08:39:15Z</time></trkpt><trkpt lat="40.204104101896576" lon="8.517445970158867"><ele>208.0</ele><time>2026-03-30T08:39:16Z</time></trkpt><trkpt lat="40.20406179921335" lon="8.517614650816837"><ele>208.0</ele><time>2026-03-30T08:39:17Z</time></trkpt><trkpt lat="40.20402098577523" lon="8.517752608380118"><ele>208.0</ele><time>2026-03-30T08:39:18Z</time></trkpt><trkpt lat="40.20402110156413" lon="8.517866284528244"><ele>208.0</ele><time>2026-03-30T08:39:19Z</time></trkpt><trkpt lat="40.204065291760976" lon="8.517949852245206"><ele>208.0</ele><time>2026-03-30T08:39:20Z</time></trkpt><trkpt lat="40.20414529434372" lon="8.518006826087616"><ele>208.5</ele><time>2026-03-30T08:39:21Z</time></trkpt><trkpt lat="40.20424390742413" lon="8.518058414415897"><ele>209.0</ele><time>2026-03-30T08:39:22Z</time></trkpt><trkpt lat="40.20433911478017" lon="8.518141031028469"><ele>209.5</ele><time>2026-03-30T08:39:23Z</time></trkpt><trkpt lat="40.204388007488824" lon="8.518286046439377"><ele>210.0</ele><time>2026-03-30T08:39:24Z</time></trkpt><trkpt lat="40.20444232850561" lon="8.518443043616045"><ele>210.0</ele><time>2026-03-30T08:39:25Z</time></trkpt><trkpt lat="40.2045040369763" lon="8.518626844763201"><ele>210.0</ele><time>2026-03-30T08:39:26Z</time></trkpt><trkpt lat="40.20457053657933" lon="8.518812611193342"><ele>210.0</ele><time>2026-03-30T08:39:27Z</time></trkpt><trkpt lat="40.204632394873556" lon="8.519009947429634"><ele>209.33333333333331</ele><time>2026-03-30T08:39:28Z</time></trkpt><trkpt lat="40.20470594859193" lon="8.519218197386843"><ele>208.66666666666666</ele><time>2026-03-30T08:39:29Z</time></trkpt><trkpt lat="40.204776132587085" lon="8.519417395389308"><ele>208.0</ele><time>2026-03-30T08:39:30Z</time></trkpt><trkpt lat="40.20483672692521" lon="8.519618776112457"><ele>209.66666666666666</ele><time>2026-03-30T08:39:31Z</time></trkpt><trkpt lat="40.20489542512836" lon="8.519827801607494"><ele>211.33333333333331</ele><time>2026-03-30T08:39:32Z</time></trkpt><trkpt lat="40.204951978903324" lon="8.520033646078254"><ele>213.0</ele><time>2026-03-30T08:39:33Z</time></trkpt><trkpt lat="40.2049984575276" lon="8.520232272831679"><ele>212.5</ele><time>2026-03-30T08:39:34Z</time></trkpt><trkpt lat="40.205013436251534" lon="8.520413885093589"><ele>212.0</ele><time>2026-03-30T08:39:35Z</time></trkpt><trkpt lat="40.205027273167026" lon="8.520586917207742"><ele>211.5</ele><time>2026-03-30T08:39:36Z</time></trkpt><trkpt lat="40.20503734136541" lon="8.520775766310031"><ele>211.0</ele><time>2026-03-30T08:39:37Z</time></trkpt><trkpt lat="40.205032639204994" lon="8.520980390977234"><ele>211.0</ele><time>2026-03-30T08:39:38Z</time></trkpt><trkpt lat="40.20505185825031" lon="8.52119286403409"><ele>211.0</ele><time>2026-03-30T08:39:39Z</time></trkpt><trkpt lat="40.205091299228776" lon="8.521403614519809"><ele>211.0</ele><time>2026-03-30T08:39:40Z</time></trkpt><trkpt lat="40.20513456435689" lon="8.52160119950482"><ele>210.5</ele><time>2026-03-30T08:39:41Z</time></trkpt><trkpt lat="40.205192512823615" lon="8.521772218090758"><ele>210.0</ele><time>2026-03-30T08:39:42Z</time></trkpt><trkpt lat="40.205275467415966" lon="8.521932762880946"><ele>209.5</ele><time>2026-03-30T08:39:43Z</time></trkpt><trkpt lat="40.20538318454714" lon="8.522081930523143"><ele>209.0</ele><time>2026-03-30T08:39:44Z</time></trkpt><trkpt lat="40.20549596214024" lon="8.522233507091356"><ele>208.66666666666669</ele><time>2026-03-30T08:39:45Z</time></trkpt><trkpt lat="40.205601257643764" lon="8.522396336585786"><ele>208.33333333333331</ele><time>2026-03-30T08:39:46Z</time></trkpt><trkpt lat="40.205685201242886" lon="8.522575884621448"><ele>208.0</ele><time>2026-03-30T08:39:47Z</time></trkpt><trkpt lat="40.20576309333998" lon="8.522768999256854"><ele>210.0</ele><time>2026-03-30T08:39:48Z</time></trkpt><trkpt lat="40.20583746425883" lon="8.522955934802862"><ele>212.0</ele><time>2026-03-30T08:39:49Z</time></trkpt><trkpt lat="40.20592477943339" lon="8.523107767043287"><ele>214.0</ele><time>2026-03-30T08:39:50Z</time></trkpt><trkpt lat="40.2060291335523" lon="8.52323523669045"><ele>216.0</ele><time>2026-03-30T08:39:51Z</time></trkpt><trkpt lat="40.20615809559501" lon="8.523327412073092"><ele>216.0</ele><time>2026-03-30T08:39:52Z</time></trkpt><trkpt lat="40.20628515745537" lon="8.523409793249206"><ele>216.0</ele><time>2026-03-30T08:39:53Z</time></trkpt><trkpt lat="40.20638153677505" lon="8.523495853074378"><ele>216.0</ele><time>2026-03-30T08:39:54Z</time></trkpt><trkpt lat="40.206433960006294" lon="8.523633209647066"><ele>216.0</ele><time>2026-03-30T08:39:55Z</time></trkpt><trkpt lat="40.206517073303395" lon="8.523771639938293"><ele>216.5</ele><time>2026-03-30T08:39:56Z</time></trkpt><trkpt lat="40.206601737494395" lon="8.523913149477847"><ele>217.0</ele><time>2026-03-30T08:39:57Z</time></trkpt><trkpt lat="40.206707143868954" lon="8.52404491596399"><ele>217.5</ele><time>2026-03-30T08:39:58Z</time></trkpt><trkpt lat="40.20680597840402" lon="8.52416738249843"><ele>218.0</ele><time>2026-03-30T08:39:59Z</time></trkpt><trkpt lat="40.20688012492587" lon="8.524290163731484"><ele>218.0</ele><time>2026-03-30T08:40:00Z</time></trkpt><trkpt lat="40.20688992953822" lon="8.524433868217287"><ele>218.0</ele><time>2026-03-30T08:40:01Z</time></trkpt><trkpt lat="40.20690082670763" lon="8.524590670544642"><ele>218.0</ele><time>2026-03-30T08:40:02Z</time></trkpt><trkpt lat="40.20692409636961" lon="8.524768216142524"><ele>218.0</ele><time>2026-03-30T08:40:03Z</time></trkpt><trkpt lat="40.2069437439254" lon="8.52495580689985"><ele>218.0</ele><time>2026-03-30T08:40:04Z</time></trkpt><trkpt lat="40.20698228405182" lon="8.525146153823872"><ele>218.0</ele><time>2026-03-30T08:40:05Z</time></trkpt><trkpt lat="40.20703253504296" lon="8.52534492619199"><ele>218.0</ele><time>2026-03-30T08:40:06Z</time></trkpt><trkpt lat="40.20710231984858" lon="8.525545244180183"><ele>218.0</ele><time>2026-03-30T08:40:07Z</time></trkpt><trkpt lat="40.20719218392359" lon="8.525727301616529"><ele>218.0</ele><time>2026-03-30T08:40:08Z</time></trkpt><trkpt lat="40.20727295358679" lon="8.525920141861588"><ele>218.0</ele><time>2026-03-30T08:40:09Z</time></trkpt><trkpt lat="40.20735686247157" lon="8.526096107274201"><ele>219.33333333333334</ele><time>2026-03-30T08:40:10Z</time></trkpt><trkpt lat="40.207400373239466" lon="8.526294724644773"><ele>220.66666666666669</ele><time>2026-03-30T08:40:11Z</time></trkpt><trkpt lat="40.20741802866424" lon="8.526504215839271"><ele>222.0</ele><time>2026-03-30T08:40:12Z</time></trkpt><trkpt lat="40.2074439651215" lon="8.526717181225909"><ele>222.0</ele><time>2026-03-30T08:40:13Z</time></trkpt><trkpt lat="40.207475678235944" lon="8.526941307748285"><ele>222.0</ele><time>2026-03-30T08:40:14Z</time></trkpt><trkpt lat="40.20751788409896" lon="8.527166190389785"><ele>222.0</ele><time>2026-03-30T08:40:15Z</time></trkpt><trkpt lat="40.20757470580053" lon="8.527388758376159"><ele>222.0</ele><time>2026-03-30T08:40:16Z</time></trkpt><trkpt lat="40.207649863862464" lon="8.527602533511391"><ele>222.0</ele><time>2026-03-30T08:40:17Z</time></trkpt><trkpt lat="40.207739471472536" lon="8.527812565003678"><ele>222.0</ele><time>2026-03-30T08:40:18Z</time></trkpt><trkpt lat="40.20783034433404" lon="8.528021089365861"><ele>221.66666666666669</ele><time>2026-03-30T08:40:19Z</time></trkpt><trkpt lat="40.20788854094388" lon="8.52823590127719"><ele>221.33333333333334</ele><time>2026-03-30T08:40:20Z</time></trkpt><trkpt lat="40.20793271365531" lon="8.528457770764547"><ele>221.0</ele><time>2026-03-30T08:40:21Z</time></trkpt><trkpt lat="40.20797017724245" lon="8.528690638172847"><ele>221.66666666666669</ele><time>2026-03-30T08:40:22Z</time></trkpt><trkpt lat="40.208013995239625" lon="8.528918193369512"><ele>222.33333333333331</ele><time>2026-03-30T08:40:23Z</time></trkpt><trkpt lat="40.20804355266459" lon="8.529153057615535"><ele>223.0</ele><time>2026-03-30T08:40:24Z</time></trkpt><trkpt lat="40.20807153214481" lon="8.52938328261634"><ele>222.66666666666666</ele><time>2026-03-30T08:40:25Z</time></trkpt><trkpt lat="40.20810243370367" lon="8.529606989409215"><ele>222.33333333333331</ele><time>2026-03-30T08:40:26Z</time></trkpt><trkpt lat="40.208133861829076" lon="8.529825765166413"><ele>222.0</ele><time>2026-03-30T08:40:27Z</time></trkpt><trkpt lat="40.20816897486351" lon="8.53002939048983"><ele>223.66666666666669</ele><time>2026-03-30T08:40:28Z</time></trkpt><trkpt lat="40.20822725584393" lon="8.530222913527558"><ele>225.33333333333334</ele><time>2026-03-30T08:40:29Z</time></trkpt><trkpt lat="40.2083114130911" lon="8.530412828202032"><ele>227.0</ele><time>2026-03-30T08:40:30Z</time></trkpt><trkpt lat="40.20840042380799" lon="8.530601280404683"><ele>227.66666666666669</ele><time>2026-03-30T08:40:31Z</time></trkpt><trkpt lat="40.20849514851423" lon="8.530793490444596"><ele>228.33333333333331</ele><time>2026-03-30T08:40:32.001Z</time></trkpt><trkpt lat="40.2085906264102" lon="8.530984687036197"><ele>229.0</ele><time>2026-03-30T08:40:33.001Z</time></trkpt><trkpt lat="40.2086938898338" lon="8.53117263748194"><ele>229.66666666666666</ele><time>2026-03-30T08:40:34.001Z</time></trkpt><trkpt lat="40.208796147859296" lon="8.531359021167082"><ele>230.33333333333331</ele><time>2026-03-30T08:40:35.001Z</time></trkpt><trkpt lat="40.208898297768975" lon="8.531548579717366"><ele>231.0</ele><time>2026-03-30T08:40:36.001Z</time></trkpt><trkpt lat="40.20899879705158" lon="8.531735748442502"><ele>231.66666666666669</ele><time>2026-03-30T08:40:37.001Z</time></trkpt><trkpt lat="40.209094556587615" lon="8.531931129848818"><ele>232.33333333333334</ele><time>2026-03-30T08:40:38.001Z</time></trkpt><trkpt lat="40.209172131731535" lon="8.532137353260948"><ele>233.0</ele><time>2026-03-30T08:40:39.001Z</time></trkpt><trkpt lat="40.20922887339304" lon="8.532361408465933"><ele>233.0</ele><time>2026-03-30T08:40:40.001Z</time></trkpt><trkpt lat="40.20927820170592" lon="8.532589569519658"><ele>233.0</ele><time>2026-03-30T08:40:41.001Z</time></trkpt><trkpt lat="40.20932199841138" lon="8.53282318129023"><ele>233.0</ele><time>2026-03-30T08:40:42.001Z</time></trkpt><trkpt lat="40.20936582282846" lon="8.533057811577633"><ele>233.33333333333334</ele><time>2026-03-30T08:40:43.001Z</time></trkpt><trkpt lat="40.209411139381835" lon="8.533300317142507"><ele>233.66666666666669</ele><time>2026-03-30T08:40:44.001Z</time></trkpt><trkpt lat="40.209456734159865" lon="8.533543837199705"><ele>234.0</ele><time>2026-03-30T08:40:45.001Z</time></trkpt><trkpt lat="40.2094970942046" lon="8.533772539897758"><ele>234.33333333333331</ele><time>2026-03-30T08:40:46.001Z</time></trkpt><trkpt lat="40.209528008022026" lon="8.533990834095318"><ele>234.66666666666666</ele><time>2026-03-30T08:40:47Z</time></trkpt><trkpt lat="40.20955258819702" lon="8.534204875734142"><ele>235.0</ele><time>2026-03-30T08:40:48Z</time></trkpt><trkpt lat="40.20957278627518" lon="8.534407923272182"><ele>235.0</ele><time>2026-03-30T08:40:49Z</time></trkpt><trkpt lat="40.20958947247851" lon="8.534608491337822"><ele>235.0</ele><time>2026-03-30T08:40:50Z</time></trkpt><trkpt lat="40.20960100904842" lon="8.534807366508307"><ele>235.0</ele><time>2026-03-30T08:40:51Z</time></trkpt><trkpt lat="40.20959426694652" lon="8.53500850328923"><ele>235.0</ele><time>2026-03-30T08:40:52Z</time></trkpt><trkpt lat="40.20957481639384" lon="8.535207227823372"><ele>235.0</ele><time>2026-03-30T08:40:53Z</time></trkpt><trkpt lat="40.209550153040595" lon="8.535410841621575"><ele>235.0</ele><time>2026-03-30T08:40:54Z</time></trkpt><trkpt lat="40.209498567058034" lon="8.535605203204588"><ele>234.66666666666666</ele><time>2026-03-30T08:40:55Z</time></trkpt><trkpt lat="40.209466738903835" lon="8.535809670444017"><ele>234.33333333333331</ele><time>2026-03-30T08:40:56Z</time></trkpt><trkpt lat="40.209416400850834" lon="8.536019456889836"><ele>234.0</ele><time>2026-03-30T08:40:57Z</time></trkpt><trkpt lat="40.20937633964469" lon="8.536243393356651"><ele>234.66666666666669</ele><time>2026-03-30T08:40:58Z</time></trkpt><trkpt lat="40.209359409692674" lon="8.536472126336173"><ele>235.33333333333334</ele><time>2026-03-30T08:40:59Z</time></trkpt><trkpt lat="40.20934049397015" lon="8.536703103935093"><ele>236.0</ele><time>2026-03-30T08:41:00Z</time></trkpt><trkpt lat="40.2093212731271" lon="8.5369323827722"><ele>236.33333333333334</ele><time>2026-03-30T08:41:01Z</time></trkpt><trkpt lat="40.20930118013512" lon="8.5371567027842"><ele>236.66666666666669</ele><time>2026-03-30T08:41:02Z</time></trkpt><trkpt lat="40.20927940735867" lon="8.537388733098215"><ele>237.0</ele><time>2026-03-30T08:41:03Z</time></trkpt><trkpt lat="40.20923817602652" lon="8.53761075958703"><ele>237.0</ele><time>2026-03-30T08:41:04Z</time></trkpt><trkpt lat="40.20919221147116" lon="8.537830654828719"><ele>237.0</ele><time>2026-03-30T08:41:05Z</time></trkpt><trkpt lat="40.209127604023045" lon="8.538047115021008"><ele>237.0</ele><time>2026-03-30T08:41:06Z</time></trkpt><trkpt lat="40.209094666646806" lon="8.538269235935273"><ele>237.66666666666669</ele><time>2026-03-30T08:41:07Z</time></trkpt><trkpt lat="40.209058087297414" lon="8.538459878519209"><ele>238.33333333333334</ele><time>2026-03-30T08:41:08Z</time></trkpt><trkpt lat="40.20905761532231" lon="8.538670860700915"><ele>239.0</ele><time>2026-03-30T08:41:09Z</time></trkpt><trkpt lat="40.209064844244594" lon="8.538879080942186"><ele>239.66666666666669</ele><time>2026-03-30T08:41:10Z</time></trkpt><trkpt lat="40.20906849361646" lon="8.539088431356014"><ele>240.33333333333331</ele><time>2026-03-30T08:41:11Z</time></trkpt><trkpt lat="40.20907027411999" lon="8.539297841318833"><ele>241.0</ele><time>2026-03-30T08:41:12Z</time></trkpt><trkpt lat="40.209073413298526" lon="8.539516986372206"><ele>241.66666666666666</ele><time>2026-03-30T08:41:13Z</time></trkpt><trkpt lat="40.209093996268145" lon="8.539749790191578"><ele>242.33333333333331</ele><time>2026-03-30T08:41:14Z</time></trkpt><trkpt lat="40.209128100404804" lon="8.539977701798197"><ele>243.0</ele><time>2026-03-30T08:41:15Z</time></trkpt><trkpt lat="40.20916139861984" lon="8.540204584664737"><ele>244.0</ele><time>2026-03-30T08:41:16Z</time></trkpt><trkpt lat="40.209185115461096" lon="8.540434504552707"><ele>245.0</ele><time>2026-03-30T08:41:17Z</time></trkpt><trkpt lat="40.20919151666172" lon="8.540656785271576"><ele>246.0</ele><time>2026-03-30T08:41:18Z</time></trkpt><trkpt lat="40.20914474688534" lon="8.540866368793141"><ele>246.0</ele><time>2026-03-30T08:41:19Z</time></trkpt><trkpt lat="40.20910444968141" lon="8.541069174449467"><ele>246.0</ele><time>2026-03-30T08:41:20Z</time></trkpt><trkpt lat="40.20906025122045" lon="8.541286919441006"><ele>246.0</ele><time>2026-03-30T08:41:21Z</time></trkpt><trkpt lat="40.209022630182155" lon="8.541504367107429"><ele>247.33333333333331</ele><time>2026-03-30T08:41:22Z</time></trkpt><trkpt lat="40.20900085207922" lon="8.541722815655278"><ele>248.66666666666666</ele><time>2026-03-30T08:41:23Z</time></trkpt><trkpt lat="40.208982727481235" lon="8.541948899655347"><ele>250.0</ele><time>2026-03-30T08:41:24Z</time></trkpt><trkpt lat="40.208976706887995" lon="8.542174308615868"><ele>251.0</ele><time>2026-03-30T08:41:25Z</time></trkpt><trkpt lat="40.20898729155925" lon="8.542387951093799"><ele>252.0</ele><time>2026-03-30T08:41:26Z</time></trkpt><trkpt lat="40.2090233588628" lon="8.542598054693745"><ele>253.0</ele><time>2026-03-30T08:41:27Z</time></trkpt><trkpt lat="40.209077195711615" lon="8.542809437118333"><ele>253.0</ele><time>2026-03-30T08:41:28Z</time></trkpt><trkpt lat="40.209117046714226" lon="8.543033666319614"><ele>253.0</ele><time>2026-03-30T08:41:29Z</time></trkpt><trkpt lat="40.209168726267784" lon="8.5432572958524"><ele>253.0</ele><time>2026-03-30T08:41:30Z</time></trkpt><trkpt lat="40.20922036713691" lon="8.543484282555852"><ele>253.33333333333331</ele><time>2026-03-30T08:41:31Z</time></trkpt><trkpt lat="40.20926621626995" lon="8.543716997216414"><ele>253.66666666666669</ele><time>2026-03-30T08:41:32Z</time></trkpt><trkpt lat="40.20930450476843" lon="8.543953742452707"><ele>254.0</ele><time>2026-03-30T08:41:33Z</time></trkpt><trkpt lat="40.20934192066317" lon="8.54419278561695"><ele>254.0</ele><time>2026-03-30T08:41:34Z</time></trkpt><trkpt lat="40.209380229907076" lon="8.544432490573103"><ele>254.0</ele><time>2026-03-30T08:41:35Z</time></trkpt><trkpt lat="40.209417765987496" lon="8.544663899689036"><ele>254.0</ele><time>2026-03-30T08:41:36Z</time></trkpt><trkpt lat="40.20948142998736" lon="8.544886028480619"><ele>254.0</ele><time>2026-03-30T08:41:37Z</time></trkpt><trkpt lat="40.20955325413737" lon="8.545096992273248"><ele>254.0</ele><time>2026-03-30T08:41:38Z</time></trkpt><trkpt lat="40.20965117489916" lon="8.545291265664053"><ele>254.0</ele><time>2026-03-30T08:41:39Z</time></trkpt><trkpt lat="40.20975120626045" lon="8.545482921815523"><ele>254.0</ele><time>2026-03-30T08:41:40Z</time></trkpt><trkpt lat="40.20988348435307" lon="8.545638231543382"><ele>254.0</ele><time>2026-03-30T08:41:41Z</time></trkpt><trkpt lat="40.210010042688445" lon="8.545794995055212"><ele>254.0</ele><time>2026-03-30T08:41:42Z</time></trkpt><trkpt lat="40.21012213895042" lon="8.545972345820424"><ele>254.0</ele><time>2026-03-30T08:41:43Z</time></trkpt><trkpt lat="40.21023795750339" lon="8.546146705882876"><ele>254.0</ele><time>2026-03-30T08:41:44Z</time></trkpt><trkpt lat="40.21032118790873" lon="8.546338364435169"><ele>254.0</ele><time>2026-03-30T08:41:45Z</time></trkpt><trkpt lat="40.210408986103666" lon="8.546543588064205"><ele>254.33333333333334</ele><time>2026-03-30T08:41:46Z</time></trkpt><trkpt lat="40.210490670603335" lon="8.546749296764578"><ele>254.66666666666669</ele><time>2026-03-30T08:41:47Z</time></trkpt><trkpt lat="40.21058460661574" lon="8.5469398778944"><ele>255.0</ele><time>2026-03-30T08:41:48Z</time></trkpt><trkpt lat="40.210671230751686" lon="8.54712422874016"><ele>255.0</ele><time>2026-03-30T08:41:49Z</time></trkpt><trkpt lat="40.210773947813735" lon="8.547301030707755"><ele>255.0</ele><time>2026-03-30T08:41:50Z</time></trkpt><trkpt lat="40.21087878491487" lon="8.547481042173725"><ele>255.0</ele><time>2026-03-30T08:41:51Z</time></trkpt><trkpt lat="40.210950269573694" lon="8.54769070129999"><ele>254.66666666666669</ele><time>2026-03-30T08:41:52Z</time></trkpt><trkpt lat="40.21104479080163" lon="8.547885758637312"><ele>254.33333333333334</ele><time>2026-03-30T08:41:53Z</time></trkpt><trkpt lat="40.21112342340098" lon="8.548089382612787"><ele>254.0</ele><time>2026-03-30T08:41:54Z</time></trkpt><trkpt lat="40.21121012327147" lon="8.548288035115728"><ele>254.0</ele><time>2026-03-30T08:41:55Z</time></trkpt><trkpt lat="40.21130236054572" lon="8.548478602216598"><ele>254.0</ele><time>2026-03-30T08:41:56Z</time></trkpt><trkpt lat="40.21139437455233" lon="8.548670600992793"><ele>254.0</ele><time>2026-03-30T08:41:57Z</time></trkpt><trkpt lat="40.21147457533827" lon="8.548862273622763"><ele>256.6666666666667</ele><time>2026-03-30T08:41:58Z</time></trkpt><trkpt lat="40.211520437325554" lon="8.549076875910147"><ele>259.3333333333333</ele><time>2026-03-30T08:41:59Z</time></trkpt><trkpt lat="40.211568517819956" lon="8.549288919844685"><ele>262.0</ele><time>2026-03-30T08:42:00Z</time></trkpt><trkpt lat="40.211614214742994" lon="8.54950049783549"><ele>262.0</ele><time>2026-03-30T08:42:01Z</time></trkpt><trkpt lat="40.2116759912952" lon="8.549708690635764"><ele>262.0</ele><time>2026-03-30T08:42:02Z</time></trkpt><trkpt lat="40.21172178291289" lon="8.54991128682193"><ele>262.0</ele><time>2026-03-30T08:42:03Z</time></trkpt><trkpt lat="40.21178307096264" lon="8.5500792676449"><ele>262.0</ele><time>2026-03-30T08:42:04Z</time></trkpt><trkpt lat="40.211859344811316" lon="8.55020775821476"><ele>262.0</ele><time>2026-03-30T08:42:05Z</time></trkpt><trkpt lat="40.21196160951958" lon="8.55031247303253"><ele>262.0</ele><time>2026-03-30T08:42:06Z</time></trkpt><trkpt lat="40.21207685172271" lon="8.550407335500134"><ele>262.0</ele><time>2026-03-30T08:42:07Z</time></trkpt><trkpt lat="40.212178851465275" lon="8.550532528641629"><ele>262.0</ele><time>2026-03-30T08:42:08Z</time></trkpt><trkpt lat="40.21219826238251" lon="8.550709968964634"><ele>262.0</ele><time>2026-03-30T08:42:09Z</time></trkpt><trkpt lat="40.21224406619195" lon="8.55088995100217"><ele>262.0</ele><time>2026-03-30T08:42:10Z</time></trkpt><trkpt lat="40.21228659931176" lon="8.551078214929783"><ele>262.0</ele><time>2026-03-30T08:42:11Z</time></trkpt><trkpt lat="40.212338673165554" lon="8.551277919888674"><ele>264.3333333333333</ele><time>2026-03-30T08:42:12Z</time></trkpt><trkpt lat="40.212386057295696" lon="8.551487933753938"><ele>266.6666666666667</ele><time>2026-03-30T08:42:13Z</time></trkpt><trkpt lat="40.212432760825024" lon="8.551697958279195"><ele>269.0</ele><time>2026-03-30T08:42:14Z</time></trkpt><trkpt lat="40.21250185771646" lon="8.55188751562406"><ele>268.75</ele><time>2026-03-30T08:42:15Z</time></trkpt><trkpt lat="40.212579695766976" lon="8.552048514665438"><ele>268.5</ele><time>2026-03-30T08:42:16Z</time></trkpt><trkpt lat="40.21261898590431" lon="8.552201516370102"><ele>268.25</ele><time>2026-03-30T08:42:17Z</time></trkpt><trkpt lat="40.2126348202783" lon="8.552353099640424"><ele>268.0</ele><time>2026-03-30T08:42:18Z</time></trkpt><trkpt lat="40.21264994827453" lon="8.55252508340314"><ele>268.0</ele><time>2026-03-30T08:42:19Z</time></trkpt><trkpt lat="40.21266148716321" lon="8.552712054026198"><ele>268.0</ele><time>2026-03-30T08:42:20Z</time></trkpt><trkpt lat="40.2126710061003" lon="8.552908732841136"><ele>268.0</ele><time>2026-03-30T08:42:21Z</time></trkpt><trkpt lat="40.212676875337365" lon="8.553096028331064"><ele>268.0</ele><time>2026-03-30T08:42:22Z</time></trkpt><trkpt lat="40.21268388677566" lon="8.553263400497183"><ele>268.2</ele><time>2026-03-30T08:42:23Z</time></trkpt><trkpt lat="40.21268465172254" lon="8.553396771787524"><ele>268.4</ele><time>2026-03-30T08:42:24Z</time></trkpt><trkpt lat="40.212653953571724" lon="8.55352516605236"><ele>268.59999999999997</ele><time>2026-03-30T08:42:25Z</time></trkpt><trkpt lat="40.2126351425117" lon="8.553654201906962"><ele>268.8</ele><time>2026-03-30T08:42:26Z</time></trkpt><trkpt lat="40.21261950412577" lon="8.553767856622157"><ele>269.0</ele><time>2026-03-30T08:42:27Z</time></trkpt><trkpt lat="40.21260309963916" lon="8.55388336417946"><ele>269.0</ele><time>2026-03-30T08:42:28Z</time></trkpt><trkpt lat="40.212590991989806" lon="8.554021211781858"><ele>269.0</ele><time>2026-03-30T08:42:29Z</time></trkpt><trkpt lat="40.21255889137547" lon="8.554175670269121"><ele>269.0</ele><time>2026-03-30T08:42:30Z</time></trkpt><trkpt lat="40.21254858694384" lon="8.554319918314846"><ele>269.0</ele><time>2026-03-30T08:42:31Z</time></trkpt><trkpt lat="40.21253633246966" lon="8.554450832197151"><ele>269.0</ele><time>2026-03-30T08:42:32Z</time></trkpt><trkpt lat="40.21253162545561" lon="8.554593327715905"><ele>269.0</ele><time>2026-03-30T08:42:33Z</time></trkpt><trkpt lat="40.21253696837183" lon="8.554732262262768"><ele>269.0</ele><time>2026-03-30T08:42:34Z</time></trkpt><trkpt lat="40.21252546205486" lon="8.554855052449527"><ele>269.0</ele><time>2026-03-30T08:42:35Z</time></trkpt><trkpt lat="40.21252993844008" lon="8.554970284970947"><ele>269.0</ele><time>2026-03-30T08:42:36Z</time></trkpt><trkpt lat="40.212514716329885" lon="8.555068356340554"><ele>269.0</ele><time>2026-03-30T08:42:37Z</time></trkpt><trkpt lat="40.21257620913492" lon="8.555189189849367"><ele>269.0</ele><time>2026-03-30T08:42:39.001Z</time></trkpt><trkpt lat="40.21265491785688" lon="8.555176022354653"><ele>269.0</ele><time>2026-03-30T08:42:40.001Z</time></trkpt><trkpt lat="40.21273333921667" lon="8.555240453454017"><ele>269.0</ele><time>2026-03-30T08:42:42.001Z</time></trkpt><trkpt lat="40.21280020700475" lon="8.555353566129781"><ele>269.0</ele><time>2026-03-30T08:42:44.001Z</time></trkpt><trkpt lat="40.21284093188702" lon="8.555417207989867"><ele>269.0</ele><time>2026-03-30T08:42:45.001Z</time></trkpt><trkpt lat="40.21289833150769" lon="8.555472354502527"><ele>269.0</ele><time>2026-03-30T08:42:46Z</time></trkpt><trkpt lat="40.21294602503189" lon="8.555553496366317"><ele>269.59999999999997</ele><time>2026-03-30T08:42:47Z</time></trkpt><trkpt lat="40.2130091049197" lon="8.5555652690459"><ele>270.2</ele><time>2026-03-30T08:42:48Z</time></trkpt><trkpt lat="40.21301340775638" lon="8.555735874048072"><ele>270.79999999999995</ele><time>2026-03-30T08:42:49Z</time></trkpt><trkpt lat="40.21305358285663" lon="8.555844746677273"><ele>271.4</ele><time>2026-03-30T08:42:50Z</time></trkpt><trkpt lat="40.21309311131747" lon="8.555978766822781"><ele>272.0</ele><time>2026-03-30T08:42:51Z</time></trkpt><trkpt lat="40.2131439385471" lon="8.556123447141927"><ele>271.0</ele><time>2026-03-30T08:42:52Z</time></trkpt><trkpt lat="40.21321412410039" lon="8.556278047572805"><ele>270.0</ele><time>2026-03-30T08:42:53Z</time></trkpt><trkpt lat="40.213304385764474" lon="8.556423508765192"><ele>269.0</ele><time>2026-03-30T08:42:54Z</time></trkpt><trkpt lat="40.21341935591323" lon="8.5565418895823"><ele>268.0</ele><time>2026-03-30T08:42:55Z</time></trkpt><trkpt lat="40.21355941002113" lon="8.556638155344826"><ele>268.0</ele><time>2026-03-30T08:42:56Z</time></trkpt><trkpt lat="40.21370900534789" lon="8.556740705723419"><ele>268.0</ele><time>2026-03-30T08:42:57Z</time></trkpt><trkpt lat="40.21384307469472" lon="8.556878699000011"><ele>268.0</ele><time>2026-03-30T08:42:58Z</time></trkpt><trkpt lat="40.21396036154674" lon="8.557057806610539"><ele>266.0</ele><time>2026-03-30T08:42:59Z</time></trkpt><trkpt lat="40.21403668459042" lon="8.557271655508695"><ele>264.0</ele><time>2026-03-30T08:43:00Z</time></trkpt><trkpt lat="40.21411540599903" lon="8.557471241703588"><ele>262.0</ele><time>2026-03-30T08:43:01Z</time></trkpt><trkpt lat="40.21418950614095" lon="8.557643888599019"><ele>262.0</ele><time>2026-03-30T08:43:02Z</time></trkpt><trkpt lat="40.21423040963569" lon="8.557795483954157"><ele>262.0</ele><time>2026-03-30T08:43:03Z</time></trkpt><trkpt lat="40.214239227888285" lon="8.557938703422304"><ele>262.0</ele><time>2026-03-30T08:43:04Z</time></trkpt><trkpt lat="40.21419679962845" lon="8.55805313776604"><ele>262.0</ele><time>2026-03-30T08:43:05Z</time></trkpt><trkpt lat="40.21409493299449" lon="8.558109015955788"><ele>262.0</ele><time>2026-03-30T08:43:06Z</time></trkpt><trkpt lat="40.2139794856004" lon="8.558105356818734"><ele>259.75</ele><time>2026-03-30T08:43:07Z</time></trkpt><trkpt lat="40.21384971766508" lon="8.558155173138069"><ele>257.5</ele><time>2026-03-30T08:43:08Z</time></trkpt><trkpt lat="40.2137268797806" lon="8.558232756783195"><ele>255.25</ele><time>2026-03-30T08:43:09Z</time></trkpt><trkpt lat="40.21361857905512" lon="8.558390896512936"><ele>253.0</ele><time>2026-03-30T08:43:10Z</time></trkpt><trkpt lat="40.213517502401245" lon="8.558568098508841"><ele>253.66666666666666</ele><time>2026-03-30T08:43:11Z</time></trkpt><trkpt lat="40.213387727133636" lon="8.558725463698915"><ele>254.33333333333331</ele><time>2026-03-30T08:43:12Z</time></trkpt><trkpt lat="40.213264492025615" lon="8.55889476131306"><ele>255.0</ele><time>2026-03-30T08:43:13Z</time></trkpt><trkpt lat="40.21315211243827" lon="8.559079944330387"><ele>251.33333333333331</ele><time>2026-03-30T08:43:14Z</time></trkpt><trkpt lat="40.2130336806613" lon="8.559239663755493"><ele>247.66666666666666</ele><time>2026-03-30T08:43:15Z</time></trkpt><trkpt lat="40.21291542782676" lon="8.559395615601813"><ele>244.0</ele><time>2026-03-30T08:43:16Z</time></trkpt><trkpt lat="40.21280815819109" lon="8.559543657454283"><ele>243.25</ele><time>2026-03-30T08:43:17Z</time></trkpt><trkpt lat="40.21271782123215" lon="8.55968712823073"><ele>242.5</ele><time>2026-03-30T08:43:18Z</time></trkpt><trkpt lat="40.21266011516027" lon="8.559847220693985"><ele>241.75</ele><time>2026-03-30T08:43:19Z</time></trkpt><trkpt lat="40.21266051101587" lon="8.56004509548849"><ele>241.0</ele><time>2026-03-30T08:43:20Z</time></trkpt><trkpt lat="40.212705488935995" lon="8.560251515981955"><ele>240.66666666666666</ele><time>2026-03-30T08:43:21Z</time></trkpt><trkpt lat="40.212771536105215" lon="8.560449666838716"><ele>240.33333333333331</ele><time>2026-03-30T08:43:22Z</time></trkpt><trkpt lat="40.21280728083855" lon="8.560646555947242"><ele>240.0</ele><time>2026-03-30T08:43:23Z</time></trkpt><trkpt lat="40.21283633056848" lon="8.560823293670015"><ele>240.0</ele><time>2026-03-30T08:43:24Z</time></trkpt><trkpt lat="40.21283175179202" lon="8.56098232266631"><ele>240.0</ele><time>2026-03-30T08:43:25Z</time></trkpt><trkpt lat="40.21278624944133" lon="8.561125128761361"><ele>240.0</ele><time>2026-03-30T08:43:26Z</time></trkpt><trkpt lat="40.212696643709" lon="8.561232816357768"><ele>240.0</ele><time>2026-03-30T08:43:27Z</time></trkpt><trkpt lat="40.21257176269288" lon="8.561260547855934"><ele>240.66666666666669</ele><time>2026-03-30T08:43:28Z</time></trkpt><trkpt lat="40.212417949226705" lon="8.56132719663767"><ele>241.33333333333334</ele><time>2026-03-30T08:43:29Z</time></trkpt><trkpt lat="40.21226772741932" lon="8.561401799130493"><ele>242.0</ele><time>2026-03-30T08:43:30Z</time></trkpt><trkpt lat="40.21210770084994" lon="8.561460951295429"><ele>242.33333333333334</ele><time>2026-03-30T08:43:31Z</time></trkpt><trkpt lat="40.21192847922507" lon="8.56150531307511"><ele>242.66666666666669</ele><time>2026-03-30T08:43:32Z</time></trkpt><trkpt lat="40.21174673161933" lon="8.561593842559788"><ele>243.0</ele><time>2026-03-30T08:43:33Z</time></trkpt><trkpt lat="40.2115704267356" lon="8.56165679013162"><ele>243.66666666666669</ele><time>2026-03-30T08:43:34Z</time></trkpt><trkpt lat="40.21139481462918" lon="8.561728008738092"><ele>244.33333333333334</ele><time>2026-03-30T08:43:35Z</time></trkpt><trkpt lat="40.21122371310174" lon="8.561820181866231"><ele>245.0</ele><time>2026-03-30T08:43:36Z</time></trkpt><trkpt lat="40.21104982223593" lon="8.56192174345892"><ele>247.33333333333334</ele><time>2026-03-30T08:43:37Z</time></trkpt><trkpt lat="40.21088991967283" lon="8.562067773390124"><ele>249.66666666666669</ele><time>2026-03-30T08:43:38Z</time></trkpt><trkpt lat="40.21073002112492" lon="8.562238874908983"><ele>252.0</ele><time>2026-03-30T08:43:39Z</time></trkpt><trkpt lat="40.210580736135626" lon="8.56242772699127"><ele>252.0</ele><time>2026-03-30T08:43:40Z</time></trkpt><trkpt lat="40.21043948112513" lon="8.562612860740582"><ele>252.0</ele><time>2026-03-30T08:43:41Z</time></trkpt><trkpt lat="40.2103040012196" lon="8.562793303161106"><ele>252.0</ele><time>2026-03-30T08:43:42Z</time></trkpt><trkpt lat="40.210169887296736" lon="8.562971932761796"><ele>252.33333333333331</ele><time>2026-03-30T08:43:43Z</time></trkpt><trkpt lat="40.21003816006906" lon="8.563147461108429"><ele>252.66666666666666</ele><time>2026-03-30T08:43:44Z</time></trkpt><trkpt lat="40.20991883509565" lon="8.563334520662632"><ele>253.0</ele><time>2026-03-30T08:43:45Z</time></trkpt><trkpt lat="40.209791011324626" lon="8.563502703768702"><ele>253.0</ele><time>2026-03-30T08:43:46Z</time></trkpt><trkpt lat="40.209669876066485" lon="8.563674564937688"><ele>253.0</ele><time>2026-03-30T08:43:47Z</time></trkpt><trkpt lat="40.20957303988435" lon="8.563877078405921"><ele>253.0</ele><time>2026-03-30T08:43:48Z</time></trkpt><trkpt lat="40.209505331018555" lon="8.564095743078342"><ele>254.33333333333331</ele><time>2026-03-30T08:43:49Z</time></trkpt><trkpt lat="40.20945049049922" lon="8.564322251496007"><ele>255.66666666666669</ele><time>2026-03-30T08:43:50Z</time></trkpt><trkpt lat="40.20940920859692" lon="8.564550037102336"><ele>257.0</ele><time>2026-03-30T08:43:51Z</time></trkpt><trkpt lat="40.20946156878034" lon="8.564780680424924"><ele>258.33333333333337</ele><time>2026-03-30T08:43:52Z</time></trkpt><trkpt lat="40.209524866740026" lon="8.564995398707484"><ele>259.6666666666667</ele><time>2026-03-30T08:43:53Z</time></trkpt><trkpt lat="40.20957739421899" lon="8.565202323050725"><ele>261.0</ele><time>2026-03-30T08:43:54Z</time></trkpt><trkpt lat="40.20963164911509" lon="8.565393147374055"><ele>262.0</ele><time>2026-03-30T08:43:55Z</time></trkpt><trkpt lat="40.209674053821225" lon="8.565564510544995"><ele>263.0</ele><time>2026-03-30T08:43:56Z</time></trkpt><trkpt lat="40.20969060758162" lon="8.565720910836058"><ele>264.0</ele><time>2026-03-30T08:43:57Z</time></trkpt><trkpt lat="40.209716623953895" lon="8.565878481173682"><ele>265.0</ele><time>2026-03-30T08:43:58Z</time></trkpt><trkpt lat="40.20957789482866" lon="8.565949252604891"><ele>265.0</ele><time>2026-03-30T08:43:59Z</time></trkpt><trkpt lat="40.209470394209355" lon="8.565992629182938"><ele>265.0</ele><time>2026-03-30T08:44:00Z</time></trkpt><trkpt lat="40.20933944606463" lon="8.56599456888608"><ele>265.0</ele><time>2026-03-30T08:44:01Z</time></trkpt><trkpt lat="40.2092061266495" lon="8.565949852554736"><ele>265.0</ele><time>2026-03-30T08:44:02Z</time></trkpt><trkpt lat="40.209108245631654" lon="8.56581140220476"><ele>265.0</ele><time>2026-03-30T08:44:03Z</time></trkpt><trkpt lat="40.20903361988348" lon="8.565653630428717"><ele>265.0</ele><time>2026-03-30T08:44:04Z</time></trkpt><trkpt lat="40.208932951625876" lon="8.565520496028682"><ele>265.0</ele><time>2026-03-30T08:44:05Z</time></trkpt><trkpt lat="40.20880061855724" lon="8.565431073723678"><ele>265.0</ele><time>2026-03-30T08:44:06Z</time></trkpt><trkpt lat="40.20864623831092" lon="8.565393537951554"><ele>267.0</ele><time>2026-03-30T08:44:07Z</time></trkpt><trkpt lat="40.20847894080825" lon="8.565380986330839"><ele>269.0</ele><time>2026-03-30T08:44:08Z</time></trkpt><trkpt lat="40.208302288609815" lon="8.565365339837712"><ele>271.0</ele><time>2026-03-30T08:44:09Z</time></trkpt><trkpt lat="40.20811352515039" lon="8.565343869913198"><ele>271.66666666666663</ele><time>2026-03-30T08:44:10Z</time></trkpt><trkpt lat="40.20792956715647" lon="8.565321904780088"><ele>272.3333333333333</ele><time>2026-03-30T08:44:11Z</time></trkpt><trkpt lat="40.207741345227106" lon="8.565305909251919"><ele>273.0</ele><time>2026-03-30T08:44:12Z</time></trkpt><trkpt lat="40.20755026512633" lon="8.565294288343939"><ele>273.0</ele><time>2026-03-30T08:44:13Z</time></trkpt><trkpt lat="40.20735637326929" lon="8.5652948552808"><ele>273.0</ele><time>2026-03-30T08:44:14Z</time></trkpt><trkpt lat="40.20715596339943" lon="8.56532322907124"><ele>273.0</ele><time>2026-03-30T08:44:15Z</time></trkpt><trkpt lat="40.20694603473701" lon="8.565366247394515"><ele>279.3333333333333</ele><time>2026-03-30T08:44:16Z</time></trkpt><trkpt lat="40.20673957694811" lon="8.565402157763819"><ele>285.66666666666663</ele><time>2026-03-30T08:44:17Z</time></trkpt><trkpt lat="40.20654554552946" lon="8.565430590529356"><ele>292.0</ele><time>2026-03-30T08:44:18Z</time></trkpt><trkpt lat="40.20635130500153" lon="8.565461829557927"><ele>292.66666666666663</ele><time>2026-03-30T08:44:19Z</time></trkpt><trkpt lat="40.206157558031215" lon="8.565497953952676"><ele>293.3333333333333</ele><time>2026-03-30T08:44:20Z</time></trkpt><trkpt lat="40.20596637378523" lon="8.56553501413191"><ele>294.0</ele><time>2026-03-30T08:44:21Z</time></trkpt><trkpt lat="40.205777707155974" lon="8.565573008987597"><ele>294.3333333333333</ele><time>2026-03-30T08:44:22Z</time></trkpt><trkpt lat="40.2055881751747" lon="8.56561206221719"><ele>294.66666666666663</ele><time>2026-03-30T08:44:23Z</time></trkpt><trkpt lat="40.20540125161247" lon="8.565659967761796"><ele>295.0</ele><time>2026-03-30T08:44:24Z</time></trkpt><trkpt lat="40.20521868217063" lon="8.565736848736371"><ele>295.0</ele><time>2026-03-30T08:44:25Z</time></trkpt><trkpt lat="40.20504075166166" lon="8.565839195956668"><ele>295.0</ele><time>2026-03-30T08:44:26Z</time></trkpt><trkpt lat="40.20487032305009" lon="8.565970134460986"><ele>295.0</ele><time>2026-03-30T08:44:27Z</time></trkpt><trkpt lat="40.20469635111111" lon="8.566110712085795"><ele>298.3333333333333</ele><time>2026-03-30T08:44:28Z</time></trkpt><trkpt lat="40.204542223602985" lon="8.566289731327263"><ele>301.6666666666667</ele><time>2026-03-30T08:44:29Z</time></trkpt><trkpt lat="40.20439996297617" lon="8.56648843260259"><ele>305.0</ele><time>2026-03-30T08:44:30Z</time></trkpt><trkpt lat="40.20426194279348" lon="8.566689102806441"><ele>305.0</ele><time>2026-03-30T08:44:31Z</time></trkpt><trkpt lat="40.20412410589441" lon="8.566890977706713"><ele>305.0</ele><time>2026-03-30T08:44:32Z</time></trkpt><trkpt lat="40.203985991607894" lon="8.567093880142359"><ele>305.0</ele><time>2026-03-30T08:44:33Z</time></trkpt><trkpt lat="40.20384798675723" lon="8.567297461202664"><ele>305.0</ele><time>2026-03-30T08:44:34Z</time></trkpt><trkpt lat="40.20370990597261" lon="8.567501052298258"><ele>305.0</ele><time>2026-03-30T08:44:35Z</time></trkpt><trkpt lat="40.20357106655755" lon="8.567705761839749"><ele>305.0</ele><time>2026-03-30T08:44:36Z</time></trkpt><trkpt lat="40.203429328473774" lon="8.567914746384371"><ele>304.33333333333337</ele><time>2026-03-30T08:44:37Z</time></trkpt><trkpt lat="40.20328957501782" lon="8.568119329909823"><ele>303.6666666666667</ele><time>2026-03-30T08:44:38Z</time></trkpt><trkpt lat="40.203146932947135" lon="8.568327330405287"><ele>303.0</ele><time>2026-03-30T08:44:39Z</time></trkpt><trkpt lat="40.20300113948643" lon="8.568541043041382"><ele>308.0</ele><time>2026-03-30T08:44:40Z</time></trkpt><trkpt lat="40.2028708806457" lon="8.56873243366102"><ele>313.0</ele><time>2026-03-30T08:44:41Z</time></trkpt><trkpt lat="40.20274298135558" lon="8.56890295519547"><ele>318.0</ele><time>2026-03-30T08:44:42Z</time></trkpt><trkpt lat="40.202604490920145" lon="8.569043558592222"><ele>318.0</ele><time>2026-03-30T08:44:43Z</time></trkpt><trkpt lat="40.2024598793623" lon="8.569159296988417"><ele>318.0</ele><time>2026-03-30T08:44:44Z</time></trkpt><trkpt lat="40.20231461977311" lon="8.569279457615588"><ele>318.0</ele><time>2026-03-30T08:44:45Z</time></trkpt><trkpt lat="40.20220167972171" lon="8.569436829372055"><ele>317.3333333333333</ele><time>2026-03-30T08:44:46Z</time></trkpt><trkpt lat="40.202090427707574" lon="8.569591112577704"><ele>316.66666666666663</ele><time>2026-03-30T08:44:47Z</time></trkpt><trkpt lat="40.20204476281663" lon="8.569799090353497"><ele>316.0</ele><time>2026-03-30T08:44:48Z</time></trkpt><trkpt lat="40.20202494064447" lon="8.5700021462481"><ele>316.0</ele><time>2026-03-30T08:44:49Z</time></trkpt><trkpt lat="40.20204282371704" lon="8.570205797786981"><ele>316.0</ele><time>2026-03-30T08:44:50Z</time></trkpt><trkpt lat="40.20206689870074" lon="8.570408584178834"><ele>316.0</ele><time>2026-03-30T08:44:51Z</time></trkpt><trkpt lat="40.20208884223711" lon="8.570605919590639"><ele>318.66666666666663</ele><time>2026-03-30T08:44:52Z</time></trkpt><trkpt lat="40.20208636737697" lon="8.570805673615775"><ele>321.3333333333333</ele><time>2026-03-30T08:44:53Z</time></trkpt><trkpt lat="40.20199149707602" lon="8.570973886619042"><ele>324.0</ele><time>2026-03-30T08:44:54Z</time></trkpt><trkpt lat="40.20189989009762" lon="8.571159935428195"><ele>327.0</ele><time>2026-03-30T08:44:55Z</time></trkpt><trkpt lat="40.20183041768468" lon="8.571372778139544"><ele>330.0</ele><time>2026-03-30T08:44:56Z</time></trkpt><trkpt lat="40.20178658883829" lon="8.571610470705403"><ele>333.0</ele><time>2026-03-30T08:44:57Z</time></trkpt><trkpt lat="40.20176195334301" lon="8.571846522751507"><ele>336.0</ele><time>2026-03-30T08:44:58Z</time></trkpt><trkpt lat="40.20173260684292" lon="8.572080139722235"><ele>339.0</ele><time>2026-03-30T08:44:59Z</time></trkpt><trkpt lat="40.201688242659394" lon="8.572307627774284"><ele>342.0</ele><time>2026-03-30T08:45:00Z</time></trkpt><trkpt lat="40.201612191480805" lon="8.572517041555509"><ele>342.0</ele><time>2026-03-30T08:45:01Z</time></trkpt><trkpt lat="40.20151624993727" lon="8.572717572812522"><ele>342.0</ele><time>2026-03-30T08:45:02Z</time></trkpt><trkpt lat="40.20141627254026" lon="8.572917633902557"><ele>342.0</ele><time>2026-03-30T08:45:03Z</time></trkpt><trkpt lat="40.20131695097567" lon="8.573116382422823"><ele>340.0</ele><time>2026-03-30T08:45:04Z</time></trkpt><trkpt lat="40.2012174230916" lon="8.573315543804027"><ele>338.0</ele><time>2026-03-30T08:45:05Z</time></trkpt><trkpt lat="40.20111692232079" lon="8.57351665200612"><ele>336.0</ele><time>2026-03-30T08:45:06Z</time></trkpt><trkpt lat="40.2010187193917" lon="8.57371271888488"><ele>340.0</ele><time>2026-03-30T08:45:07Z</time></trkpt><trkpt lat="40.20092487665241" lon="8.573899680394254"><ele>344.0</ele><time>2026-03-30T08:45:08Z</time></trkpt><trkpt lat="40.2008331451459" lon="8.57406049658414"><ele>348.0</ele><time>2026-03-30T08:45:09Z</time></trkpt><trkpt lat="40.200726359118775" lon="8.574183234476656"><ele>348.3333333333333</ele><time>2026-03-30T08:45:10Z</time></trkpt><trkpt lat="40.20058525371023" lon="8.574273087153914"><ele>348.66666666666663</ele><time>2026-03-30T08:45:11Z</time></trkpt><trkpt lat="40.200420115886764" lon="8.574285609700835"><ele>349.0</ele><time>2026-03-30T08:45:12Z</time></trkpt><trkpt lat="40.20024365991521" lon="8.574264872694883"><ele>349.0</ele><time>2026-03-30T08:45:13Z</time></trkpt><trkpt lat="40.20009011446074" lon="8.574261798213627"><ele>349.0</ele><time>2026-03-30T08:45:14Z</time></trkpt><trkpt lat="40.19991427411657" lon="8.574251034500167"><ele>349.0</ele><time>2026-03-30T08:45:15Z</time></trkpt><trkpt lat="40.19974257091309" lon="8.574245118709976"><ele>348.5</ele><time>2026-03-30T08:45:16Z</time></trkpt><trkpt lat="40.19959251774817" lon="8.57427505166143"><ele>348.0</ele><time>2026-03-30T08:45:17Z</time></trkpt><trkpt lat="40.19946033178347" lon="8.574351338513328"><ele>347.5</ele><time>2026-03-30T08:45:18Z</time></trkpt><trkpt lat="40.19935920590405" lon="8.574491825366977"><ele>347.0</ele><time>2026-03-30T08:45:19Z</time></trkpt><trkpt lat="40.19928541273216" lon="8.57467577807324"><ele>349.6666666666667</ele><time>2026-03-30T08:45:20Z</time></trkpt><trkpt lat="40.19922262899179" lon="8.57487506853122"><ele>352.3333333333333</ele><time>2026-03-30T08:45:21Z</time></trkpt><trkpt lat="40.199151820657235" lon="8.575073593336626"><ele>355.0</ele><time>2026-03-30T08:45:22Z</time></trkpt><trkpt lat="40.19906642386389" lon="8.575266426055684"><ele>354.66666666666663</ele><time>2026-03-30T08:45:23Z</time></trkpt><trkpt lat="40.19899017841423" lon="8.575476596748366"><ele>354.3333333333333</ele><time>2026-03-30T08:45:24Z</time></trkpt><trkpt lat="40.19892789059871" lon="8.575696023461306"><ele>354.0</ele><time>2026-03-30T08:45:25Z</time></trkpt><trkpt lat="40.19884838532449" lon="8.575910123229988"><ele>354.0</ele><time>2026-03-30T08:45:26Z</time></trkpt><trkpt lat="40.198767963032765" lon="8.576127004560796"><ele>354.0</ele><time>2026-03-30T08:45:27Z</time></trkpt><trkpt lat="40.19868879764437" lon="8.576350022158858"><ele>354.0</ele><time>2026-03-30T08:45:28Z</time></trkpt><trkpt lat="40.19860376041578" lon="8.576574347868895"><ele>356.3333333333333</ele><time>2026-03-30T08:45:29Z</time></trkpt><trkpt lat="40.198521917118974" lon="8.576793882882782"><ele>358.66666666666663</ele><time>2026-03-30T08:45:30Z</time></trkpt><trkpt lat="40.19843857818297" lon="8.577018838867952"><ele>361.0</ele><time>2026-03-30T08:45:31Z</time></trkpt><trkpt lat="40.198359747024206" lon="8.57725217247333"><ele>363.0</ele><time>2026-03-30T08:45:32Z</time></trkpt><trkpt lat="40.1982833450396" lon="8.577465110538963"><ele>365.0</ele><time>2026-03-30T08:45:33Z</time></trkpt><trkpt lat="40.19820060163422" lon="8.577645524931052"><ele>367.0</ele><time>2026-03-30T08:45:34Z</time></trkpt><trkpt lat="40.198128485811736" lon="8.577793248555887"><ele>369.0</ele><time>2026-03-30T08:45:35Z</time></trkpt><trkpt lat="40.198037019317866" lon="8.577894680663734"><ele>371.0</ele><time>2026-03-30T08:45:36Z</time></trkpt><trkpt lat="40.19791780301822" lon="8.577971520665926"><ele>373.0</ele><time>2026-03-30T08:45:37Z</time></trkpt><trkpt lat="40.19776631384779" lon="8.577974396966605"><ele>375.0</ele><time>2026-03-30T08:45:38Z</time></trkpt><trkpt lat="40.1976089553264" lon="8.577952060174495"><ele>375.0</ele><time>2026-03-30T08:45:39Z</time></trkpt><trkpt lat="40.19746991991012" lon="8.577951672202003"><ele>375.0</ele><time>2026-03-30T08:45:40Z</time></trkpt><trkpt lat="40.19730584034915" lon="8.577946087018118"><ele>375.0</ele><time>2026-03-30T08:45:41Z</time></trkpt><trkpt lat="40.19714662339761" lon="8.57791455925614"><ele>375.6666666666667</ele><time>2026-03-30T08:45:42Z</time></trkpt><trkpt lat="40.19699647469152" lon="8.577882919273836"><ele>376.33333333333337</ele><time>2026-03-30T08:45:43Z</time></trkpt><trkpt lat="40.196851632270345" lon="8.577828570479982"><ele>377.0</ele><time>2026-03-30T08:45:44Z</time></trkpt><trkpt lat="40.196733236000654" lon="8.577709633498547"><ele>377.0</ele><time>2026-03-30T08:45:45Z</time></trkpt><trkpt lat="40.19666854542051" lon="8.577539842556638"><ele>377.0</ele><time>2026-03-30T08:45:46Z</time></trkpt><trkpt lat="40.19660981853777" lon="8.577360431450927"><ele>377.0</ele><time>2026-03-30T08:45:47Z</time></trkpt><trkpt lat="40.19658651925246" lon="8.577156241066842"><ele>377.33333333333337</ele><time>2026-03-30T08:45:48Z</time></trkpt><trkpt lat="40.19656586671077" lon="8.576945099038447"><ele>377.6666666666667</ele><time>2026-03-30T08:45:49Z</time></trkpt><trkpt lat="40.19653882378524" lon="8.576725069983013"><ele>378.0</ele><time>2026-03-30T08:45:50Z</time></trkpt><trkpt lat="40.196507878583354" lon="8.576497404327828"><ele>384.0</ele><time>2026-03-30T08:45:51Z</time></trkpt><trkpt lat="40.19647279475529" lon="8.576259153343399"><ele>390.0</ele><time>2026-03-30T08:45:52Z</time></trkpt><trkpt lat="40.19643989734009" lon="8.576028892026054"><ele>396.0</ele><time>2026-03-30T08:45:53Z</time></trkpt><trkpt lat="40.19641148336136" lon="8.575811004410749"><ele>396.0</ele><time>2026-03-30T08:45:54Z</time></trkpt><trkpt lat="40.19638567585141" lon="8.57559226586251"><ele>396.0</ele><time>2026-03-30T08:45:55Z</time></trkpt><trkpt lat="40.196358228649075" lon="8.575374141291894"><ele>396.0</ele><time>2026-03-30T08:45:56Z</time></trkpt><trkpt lat="40.196331985896045" lon="8.575154777329221"><ele>396.66666666666663</ele><time>2026-03-30T08:45:57Z</time></trkpt><trkpt lat="40.196306160748236" lon="8.574931381618567"><ele>397.3333333333333</ele><time>2026-03-30T08:45:58Z</time></trkpt><trkpt lat="40.19628081271732" lon="8.574699707018647"><ele>398.0</ele><time>2026-03-30T08:45:59Z</time></trkpt><trkpt lat="40.19625804224283" lon="8.574468365314527"><ele>399.0</ele><time>2026-03-30T08:46:00Z</time></trkpt><trkpt lat="40.196251958820355" lon="8.574237296949669"><ele>400.0</ele><time>2026-03-30T08:46:01Z</time></trkpt><trkpt lat="40.19629082206444" lon="8.574013625033496"><ele>401.0</ele><time>2026-03-30T08:46:02Z</time></trkpt><trkpt lat="40.19634787182001" lon="8.573807046381763"><ele>401.5</ele><time>2026-03-30T08:46:03Z</time></trkpt><trkpt lat="40.19639712695942" lon="8.573619838774537"><ele>402.0</ele><time>2026-03-30T08:46:04Z</time></trkpt><trkpt lat="40.19641240693618" lon="8.573433388979824"><ele>402.5</ele><time>2026-03-30T08:46:05Z</time></trkpt><trkpt lat="40.1963809671096" lon="8.573257487498017"><ele>403.0</ele><time>2026-03-30T08:46:06Z</time></trkpt><trkpt lat="40.19630340256035" lon="8.573105374871732"><ele>403.0</ele><time>2026-03-30T08:46:07Z</time></trkpt><trkpt lat="40.19619668350556" lon="8.572982311935277"><ele>403.0</ele><time>2026-03-30T08:46:08Z</time></trkpt><trkpt lat="40.196086489803974" lon="8.57285883386823"><ele>403.0</ele><time>2026-03-30T08:46:09Z</time></trkpt><trkpt lat="40.1959710658688" lon="8.57274923842033"><ele>403.0</ele><time>2026-03-30T08:46:10Z</time></trkpt><trkpt lat="40.195843751949226" lon="8.572652516219584"><ele>401.75</ele><time>2026-03-30T08:46:11Z</time></trkpt><trkpt lat="40.195730487251645" lon="8.572538287232904"><ele>400.5</ele><time>2026-03-30T08:46:12Z</time></trkpt><trkpt lat="40.19561904462199" lon="8.572436223926271"><ele>399.25</ele><time>2026-03-30T08:46:13Z</time></trkpt><trkpt lat="40.19552717316422" lon="8.572324686770203"><ele>398.0</ele><time>2026-03-30T08:46:14Z</time></trkpt><trkpt lat="40.19543209115916" lon="8.572238086893945"><ele>398.0</ele><time>2026-03-30T08:46:15Z</time></trkpt><trkpt lat="40.19532094670317" lon="8.572172170136914"><ele>398.0</ele><time>2026-03-30T08:46:16Z</time></trkpt><trkpt lat="40.195175886745254" lon="8.572150974034153"><ele>398.0</ele><time>2026-03-30T08:46:17Z</time></trkpt><trkpt lat="40.19501480873377" lon="8.57222876838427"><ele>398.0</ele><time>2026-03-30T08:46:18Z</time></trkpt><trkpt lat="40.19489230917915" lon="8.572370350382716"><ele>397.3333333333333</ele><time>2026-03-30T08:46:19Z</time></trkpt><trkpt lat="40.19479448863424" lon="8.57252921234918"><ele>396.66666666666663</ele><time>2026-03-30T08:46:20Z</time></trkpt><trkpt lat="40.19467398470981" lon="8.572659073540857"><ele>396.0</ele><time>2026-03-30T08:46:21Z</time></trkpt><trkpt lat="40.19456387633556" lon="8.572799483473416"><ele>400.33333333333337</ele><time>2026-03-30T08:46:22Z</time></trkpt><trkpt lat="40.19444385695484" lon="8.572960573434008"><ele>404.6666666666667</ele><time>2026-03-30T08:46:23Z</time></trkpt><trkpt lat="40.194321224765666" lon="8.573081116015501"><ele>409.0</ele><time>2026-03-30T08:46:24Z</time></trkpt><trkpt lat="40.19446868220629" lon="8.572921705823617"><ele>409.0</ele><time>2026-03-30T08:46:25Z</time></trkpt><trkpt lat="40.19437857676139" lon="8.573039846201276"><ele>409.0</ele><time>2026-03-30T08:46:26Z</time></trkpt><trkpt lat="40.1942939132121" lon="8.573139795785721"><ele>409.0</ele><time>2026-03-30T08:46:27Z</time></trkpt><trkpt lat="40.19419748371882" lon="8.573174896692327"><ele>409.0</ele><time>2026-03-30T08:46:28Z</time></trkpt><trkpt lat="40.19410256679802" lon="8.573189298507685"><ele>409.0</ele><time>2026-03-30T08:46:29Z</time></trkpt><trkpt lat="40.19401039713402" lon="8.57316657985337"><ele>409.79999999999995</ele><time>2026-03-30T08:46:30Z</time></trkpt><trkpt lat="40.19390261843305" lon="8.57314636816038"><ele>410.59999999999997</ele><time>2026-03-30T08:46:31Z</time></trkpt><trkpt lat="40.19379105841518" lon="8.5731290892186"><ele>411.4</ele><time>2026-03-30T08:46:32Z</time></trkpt><trkpt lat="40.19367882369843" lon="8.573139242691166"><ele>412.2</ele><time>2026-03-30T08:46:33Z</time></trkpt><trkpt lat="40.193592110482385" lon="8.573142864414589"><ele>413.0</ele><time>2026-03-30T08:46:34Z</time></trkpt><trkpt lat="40.19351560263579" lon="8.573125039122534"><ele>413.0</ele><time>2026-03-30T08:46:35Z</time></trkpt><trkpt lat="40.193447376954076" lon="8.573063472244701"><ele>413.0</ele><time>2026-03-30T08:46:36Z</time></trkpt><trkpt lat="40.193379009993734" lon="8.572967176050572"><ele>413.0</ele><time>2026-03-30T08:46:37Z</time></trkpt><trkpt lat="40.193323456242226" lon="8.57284583981918"><ele>413.0</ele><time>2026-03-30T08:46:38Z</time></trkpt><trkpt lat="40.19329869321811" lon="8.572700404858798"><ele>413.0</ele><time>2026-03-30T08:46:39Z</time></trkpt><trkpt lat="40.193347865667825" lon="8.572542874107402"><ele>412.25</ele><time>2026-03-30T08:46:40Z</time></trkpt><trkpt lat="40.19336825959652" lon="8.57236999883336"><ele>411.5</ele><time>2026-03-30T08:46:41Z</time></trkpt><trkpt lat="40.19339022687308" lon="8.572183786659732"><ele>410.75</ele><time>2026-03-30T08:46:42Z</time></trkpt><trkpt lat="40.193412508414596" lon="8.57197789406643"><ele>410.0</ele><time>2026-03-30T08:46:43Z</time></trkpt><trkpt lat="40.19341275725432" lon="8.571764867160102"><ele>410.0</ele><time>2026-03-30T08:46:44Z</time></trkpt><trkpt lat="40.19342201300237" lon="8.57154223739306"><ele>410.0</ele><time>2026-03-30T08:46:45Z</time></trkpt><trkpt lat="40.19340457244694" lon="8.571301145444698"><ele>410.0</ele><time>2026-03-30T08:46:46Z</time></trkpt><trkpt lat="40.193356710516895" lon="8.571044120563666"><ele>410.0</ele><time>2026-03-30T08:46:47Z</time></trkpt><trkpt lat="40.19331049870855" lon="8.57073812689037"><ele>410.0</ele><time>2026-03-30T08:46:48Z</time></trkpt><trkpt lat="40.193257635411726" lon="8.570473260575405"><ele>410.0</ele><time>2026-03-30T08:46:49Z</time></trkpt><trkpt lat="40.19319259463543" lon="8.57020803060471"><ele>410.66666666666663</ele><time>2026-03-30T08:46:50Z</time></trkpt><trkpt lat="40.19314558332179" lon="8.569936490996456"><ele>411.33333333333337</ele><time>2026-03-30T08:46:51Z</time></trkpt><trkpt lat="40.193093158881226" lon="8.569677411312117"><ele>412.0</ele><time>2026-03-30T08:46:52Z</time></trkpt><trkpt lat="40.19304334200148" lon="8.569443127157186"><ele>410.75</ele><time>2026-03-30T08:46:53Z</time></trkpt><trkpt lat="40.193004147533124" lon="8.56924749578964"><ele>409.5</ele><time>2026-03-30T08:46:54Z</time></trkpt><trkpt lat="40.19297210040429" lon="8.56906802754395"><ele>408.25</ele><time>2026-03-30T08:46:55Z</time></trkpt><trkpt lat="40.19295628496037" lon="8.568913052105732"><ele>407.0</ele><time>2026-03-30T08:46:56Z</time></trkpt><trkpt lat="40.1929457684742" lon="8.568782158223309"><ele>407.8</ele><time>2026-03-30T08:46:57Z</time></trkpt><trkpt lat="40.192941064670265" lon="8.568682336846399"><ele>408.6</ele><time>2026-03-30T08:46:58Z</time></trkpt><trkpt lat="40.19293628556143" lon="8.568556217001134"><ele>409.40000000000003</ele><time>2026-03-30T08:47:00Z</time></trkpt><trkpt lat="40.19293192788905" lon="8.56844371153053"><ele>410.20000000000005</ele><time>2026-03-30T08:47:02Z</time></trkpt><trkpt lat="40.19292678061244" lon="8.568314081022947"><ele>411.0</ele><time>2026-03-30T08:47:04Z</time></trkpt><trkpt lat="40.19292185568652" lon="8.568158939037241"><ele>411.0</ele><time>2026-03-30T08:47:06Z</time></trkpt><trkpt lat="40.192917368032816" lon="8.568058892096504"><ele>411.0</ele><time>2026-03-30T08:47:07Z</time></trkpt><trkpt lat="40.19291330793021" lon="8.567937990257029"><ele>411.0</ele><time>2026-03-30T08:47:08Z</time></trkpt><trkpt lat="40.19290401604291" lon="8.567798586595774"><ele>411.0</ele><time>2026-03-30T08:47:09Z</time></trkpt><trkpt lat="40.19289574159578" lon="8.567635142034593"><ele>411.0</ele><time>2026-03-30T08:47:10Z</time></trkpt><trkpt lat="40.192891061833144" lon="8.567448778162602"><ele>410.33333333333337</ele><time>2026-03-30T08:47:11Z</time></trkpt><trkpt lat="40.19288910469373" lon="8.567238760094664"><ele>409.6666666666667</ele><time>2026-03-30T08:47:12Z</time></trkpt><trkpt lat="40.19288448250702" lon="8.567023305044923"><ele>409.0</ele><time>2026-03-30T08:47:13Z</time></trkpt><trkpt lat="40.19287570127492" lon="8.566789655585838"><ele>409.0</ele><time>2026-03-30T08:47:14Z</time></trkpt><trkpt lat="40.192859196410076" lon="8.566543212821227"><ele>409.0</ele><time>2026-03-30T08:47:15Z</time></trkpt><trkpt lat="40.192829037810824" lon="8.566286306432604"><ele>409.0</ele><time>2026-03-30T08:47:16Z</time></trkpt><trkpt lat="40.19278816309417" lon="8.566038966116519"><ele>405.0</ele><time>2026-03-30T08:47:17Z</time></trkpt><trkpt lat="40.192738269548556" lon="8.56579619087486"><ele>401.0</ele><time>2026-03-30T08:47:18Z</time></trkpt><trkpt lat="40.19267382855586" lon="8.565549264798117"><ele>397.0</ele><time>2026-03-30T08:47:19Z</time></trkpt><trkpt lat="40.1925955840067" lon="8.565301279587903"><ele>401.0</ele><time>2026-03-30T08:47:20Z</time></trkpt><trkpt lat="40.19249080829992" lon="8.565060610035781"><ele>405.0</ele><time>2026-03-30T08:47:21Z</time></trkpt><trkpt lat="40.19240041887466" lon="8.564818682630289"><ele>409.0</ele><time>2026-03-30T08:47:22Z</time></trkpt><trkpt lat="40.19228839606472" lon="8.564586186649022"><ele>403.33333333333337</ele><time>2026-03-30T08:47:23Z</time></trkpt><trkpt lat="40.192183163132704" lon="8.564360064610481"><ele>397.66666666666663</ele><time>2026-03-30T08:47:24Z</time></trkpt><trkpt lat="40.19208005856921" lon="8.564137711754709"><ele>392.0</ele><time>2026-03-30T08:47:25Z</time></trkpt><trkpt lat="40.191984061712496" lon="8.563921272953207"><ele>392.0</ele><time>2026-03-30T08:47:26Z</time></trkpt><trkpt lat="40.191902510376394" lon="8.563699163205417"><ele>392.0</ele><time>2026-03-30T08:47:27Z</time></trkpt><trkpt lat="40.191845045112466" lon="8.56346928274131"><ele>392.0</ele><time>2026-03-30T08:47:28Z</time></trkpt><trkpt lat="40.191821087119905" lon="8.563229912434815"><ele>388.3333333333333</ele><time>2026-03-30T08:47:29Z</time></trkpt><trkpt lat="40.19183116284391" lon="8.562984474496387"><ele>384.66666666666663</ele><time>2026-03-30T08:47:30Z</time></trkpt><trkpt lat="40.191872152345475" lon="8.562739311123941"><ele>381.0</ele><time>2026-03-30T08:47:31Z</time></trkpt><trkpt lat="40.19194919120661" lon="8.562502447081554"><ele>380.3333333333333</ele><time>2026-03-30T08:47:32Z</time></trkpt><trkpt lat="40.19205716374838" lon="8.562279910487069"><ele>379.66666666666663</ele><time>2026-03-30T08:47:33Z</time></trkpt><trkpt lat="40.192179176257056" lon="8.562058083081563"><ele>379.0</ele><time>2026-03-30T08:47:34Z</time></trkpt><trkpt lat="40.19230070472837" lon="8.561826125198492"><ele>371.66666666666663</ele><time>2026-03-30T08:47:35Z</time></trkpt><trkpt lat="40.19242962947297" lon="8.561598714791947"><ele>364.3333333333333</ele><time>2026-03-30T08:47:36Z</time></trkpt><trkpt lat="40.192557413516894" lon="8.561368226634837"><ele>357.0</ele><time>2026-03-30T08:47:37Z</time></trkpt><trkpt lat="40.19268652078219" lon="8.561133699909153"><ele>357.0</ele><time>2026-03-30T08:47:38Z</time></trkpt><trkpt lat="40.1928118895218" lon="8.560905735442255"><ele>357.0</ele><time>2026-03-30T08:47:39Z</time></trkpt><trkpt lat="40.19293342207868" lon="8.560678627723943"><ele>357.0</ele><time>2026-03-30T08:47:40Z</time></trkpt><trkpt lat="40.19304459837292" lon="8.560453994937383"><ele>355.0</ele><time>2026-03-30T08:47:41Z</time></trkpt><trkpt lat="40.193151575004094" lon="8.560229141204296"><ele>353.0</ele><time>2026-03-30T08:47:42Z</time></trkpt><trkpt lat="40.19325983276107" lon="8.560009555941186"><ele>351.0</ele><time>2026-03-30T08:47:43Z</time></trkpt><trkpt lat="40.19336608390774" lon="8.559797061256823"><ele>346.6666666666667</ele><time>2026-03-30T08:47:44Z</time></trkpt><trkpt lat="40.19346328395501" lon="8.559584670592413"><ele>342.33333333333337</ele><time>2026-03-30T08:47:45Z</time></trkpt><trkpt lat="40.19352920790955" lon="8.559361628153518"><ele>338.0</ele><time>2026-03-30T08:47:46Z</time></trkpt><trkpt lat="40.19355909768086" lon="8.559122355805924"><ele>338.0</ele><time>2026-03-30T08:47:47Z</time></trkpt><trkpt lat="40.19355378845862" lon="8.558877461474882"><ele>338.0</ele><time>2026-03-30T08:47:48Z</time></trkpt><trkpt lat="40.19349846246528" lon="8.558643309009643"><ele>338.0</ele><time>2026-03-30T08:47:49Z</time></trkpt><trkpt lat="40.193408870734814" lon="8.558418635553044"><ele>336.0</ele><time>2026-03-30T08:47:50Z</time></trkpt><trkpt lat="40.19328243138766" lon="8.558234487584233"><ele>334.0</ele><time>2026-03-30T08:47:51Z</time></trkpt><trkpt lat="40.19312510603188" lon="8.558083708149885"><ele>332.0</ele><time>2026-03-30T08:47:52Z</time></trkpt><trkpt lat="40.19294537936049" lon="8.557973052902145"><ele>330.0</ele><time>2026-03-30T08:47:53Z</time></trkpt><trkpt lat="40.19275483841368" lon="8.557900297257547"><ele>328.0</ele><time>2026-03-30T08:47:54Z</time></trkpt><trkpt lat="40.19255323108674" lon="8.557858753394278"><ele>326.0</ele><time>2026-03-30T08:47:55Z</time></trkpt><trkpt lat="40.192354661544755" lon="8.557823837223085"><ele>321.6666666666667</ele><time>2026-03-30T08:47:56Z</time></trkpt><trkpt lat="40.192157227092096" lon="8.557777101513503"><ele>317.3333333333333</ele><time>2026-03-30T08:47:57Z</time></trkpt><trkpt lat="40.191955502615095" lon="8.557729979123971"><ele>313.0</ele><time>2026-03-30T08:47:58Z</time></trkpt><trkpt lat="40.191786054451185" lon="8.55769355695756"><ele>313.0</ele><time>2026-03-30T08:47:59Z</time></trkpt><trkpt lat="40.19166847843926" lon="8.557667851846396"><ele>313.0</ele><time>2026-03-30T08:48:00Z</time></trkpt><trkpt lat="40.19158976470488" lon="8.557658356902481"><ele>313.0</ele><time>2026-03-30T08:48:01Z</time></trkpt><trkpt lat="40.19149414392379" lon="8.557624122894195"><ele>313.0</ele><time>2026-03-30T08:48:03Z</time></trkpt><trkpt lat="40.191426172284665" lon="8.557608207172937"><ele>313.0</ele><time>2026-03-30T08:48:05Z</time></trkpt><trkpt lat="40.19137649352267" lon="8.55778381031439"><ele>315.0</ele><time>2026-03-30T08:48:07Z</time></trkpt><trkpt lat="40.19133022170953" lon="8.55787521387276"><ele>317.0</ele><time>2026-03-30T08:48:08Z</time></trkpt><trkpt lat="40.19126292767249" lon="8.557964230888748"><ele>319.0</ele><time>2026-03-30T08:48:09Z</time></trkpt><trkpt lat="40.19115324502183" lon="8.557962467142996"><ele>321.0</ele><time>2026-03-30T08:48:10Z</time></trkpt><trkpt lat="40.19103209130661" lon="8.558006347934889"><ele>323.0</ele><time>2026-03-30T08:48:11Z</time></trkpt><trkpt lat="40.19094176494488" lon="8.558099901491987"><ele>323.0</ele><time>2026-03-30T08:48:12Z</time></trkpt><trkpt lat="40.19084644608924" lon="8.558200040388678"><ele>323.0</ele><time>2026-03-30T08:48:13Z</time></trkpt><trkpt lat="40.19074632093462" lon="8.55831326494898"><ele>323.0</ele><time>2026-03-30T08:48:14Z</time></trkpt><trkpt lat="40.19064097420029" lon="8.558431546131388"><ele>323.0</ele><time>2026-03-30T08:48:15Z</time></trkpt><trkpt lat="40.19054099690045" lon="8.558545783884718"><ele>324.0</ele><time>2026-03-30T08:48:16Z</time></trkpt><trkpt lat="40.19044119665294" lon="8.558653634381288"><ele>325.0</ele><time>2026-03-30T08:48:17Z</time></trkpt><trkpt lat="40.190344184110856" lon="8.558775710867407"><ele>326.0</ele><time>2026-03-30T08:48:18Z</time></trkpt><trkpt lat="40.19023766082042" lon="8.558895552942957"><ele>327.0</ele><time>2026-03-30T08:48:19Z</time></trkpt><trkpt lat="40.190131596523216" lon="8.559019403891632"><ele>330.5</ele><time>2026-03-30T08:48:20Z</time></trkpt><trkpt lat="40.190025171518386" lon="8.559143269901057"><ele>334.0</ele><time>2026-03-30T08:48:21Z</time></trkpt><trkpt lat="40.189918961244985" lon="8.559273984829664"><ele>337.5</ele><time>2026-03-30T08:48:22Z</time></trkpt><trkpt lat="40.18980632405829" lon="8.559407279768354"><ele>341.0</ele><time>2026-03-30T08:48:23Z</time></trkpt><trkpt lat="40.18968746092633" lon="8.559542139748915"><ele>346.33333333333337</ele><time>2026-03-30T08:48:24Z</time></trkpt><trkpt lat="40.18956868714635" lon="8.559676506811723"><ele>351.6666666666667</ele><time>2026-03-30T08:48:25Z</time></trkpt><trkpt lat="40.189446285579535" lon="8.559813288134624"><ele>357.0</ele><time>2026-03-30T08:48:26Z</time></trkpt><trkpt lat="40.189330752519915" lon="8.55995720140207"><ele>357.0</ele><time>2026-03-30T08:48:27Z</time></trkpt><trkpt lat="40.1892246508042" lon="8.56011450513766"><ele>357.0</ele><time>2026-03-30T08:48:28Z</time></trkpt><trkpt lat="40.18911763591328" lon="8.560266471289422"><ele>357.0</ele><time>2026-03-30T08:48:29Z</time></trkpt><trkpt lat="40.18901016312707" lon="8.56042211291048"><ele>359.3333333333333</ele><time>2026-03-30T08:48:30Z</time></trkpt><trkpt lat="40.18890550332404" lon="8.560584882893213"><ele>361.66666666666663</ele><time>2026-03-30T08:48:31Z</time></trkpt><trkpt lat="40.18878810070863" lon="8.56073977962474"><ele>364.0</ele><time>2026-03-30T08:48:32Z</time></trkpt><trkpt lat="40.18868537989679" lon="8.560899605030873"><ele>364.0</ele><time>2026-03-30T08:48:33Z</time></trkpt><trkpt lat="40.18857886946391" lon="8.561059692193112"><ele>364.0</ele><time>2026-03-30T08:48:34Z</time></trkpt><trkpt lat="40.18849803621959" lon="8.56123311516066"><ele>364.0</ele><time>2026-03-30T08:48:35Z</time></trkpt><trkpt lat="40.18845225774616" lon="8.561424022121919"><ele>367.75</ele><time>2026-03-30T08:48:36Z</time></trkpt><trkpt lat="40.18842476615199" lon="8.561610579045949"><ele>371.5</ele><time>2026-03-30T08:48:37Z</time></trkpt><trkpt lat="40.188377789071424" lon="8.561773711509655"><ele>375.25</ele><time>2026-03-30T08:48:38Z</time></trkpt><trkpt lat="40.18833887788273" lon="8.561940408644853"><ele>379.0</ele><time>2026-03-30T08:48:39Z</time></trkpt><trkpt lat="40.18830106327606" lon="8.562109190934285"><ele>379.5</ele><time>2026-03-30T08:48:40Z</time></trkpt><trkpt lat="40.18826318864586" lon="8.562280817679671"><ele>380.0</ele><time>2026-03-30T08:48:41Z</time></trkpt><trkpt lat="40.18822468682165" lon="8.562456273738732"><ele>380.5</ele><time>2026-03-30T08:48:42Z</time></trkpt><trkpt lat="40.188186943730386" lon="8.56263300798772"><ele>381.0</ele><time>2026-03-30T08:48:43Z</time></trkpt><trkpt lat="40.188162810135005" lon="8.562812877311222"><ele>382.75</ele><time>2026-03-30T08:48:44Z</time></trkpt><trkpt lat="40.18812270443442" lon="8.562991352619441"><ele>384.5</ele><time>2026-03-30T08:48:45Z</time></trkpt><trkpt lat="40.18806960531886" lon="8.563167197112307"><ele>386.25</ele><time>2026-03-30T08:48:46Z</time></trkpt><trkpt lat="40.18802718276562" lon="8.563344501653352"><ele>388.0</ele><time>2026-03-30T08:48:47Z</time></trkpt><trkpt lat="40.187986210950434" lon="8.56351574270063"><ele>388.0</ele><time>2026-03-30T08:48:48Z</time></trkpt><trkpt lat="40.187969422330376" lon="8.563692085291136"><ele>388.0</ele><time>2026-03-30T08:48:49Z</time></trkpt><trkpt lat="40.18793433838551" lon="8.563859040525292"><ele>388.0</ele><time>2026-03-30T08:48:50Z</time></trkpt><trkpt lat="40.18789998868771" lon="8.564020231495862"><ele>388.0</ele><time>2026-03-30T08:48:51Z</time></trkpt><trkpt lat="40.18787342654412" lon="8.564164229778399"><ele>389.79999999999995</ele><time>2026-03-30T08:48:52Z</time></trkpt><trkpt lat="40.18784043203233" lon="8.564292573348894"><ele>391.6</ele><time>2026-03-30T08:48:53Z</time></trkpt><trkpt lat="40.187816832169695" lon="8.56442165207101"><ele>393.4</ele><time>2026-03-30T08:48:54Z</time></trkpt><trkpt lat="40.18777351498003" lon="8.564546792366006"><ele>395.20000000000005</ele><time>2026-03-30T08:48:55Z</time></trkpt><trkpt lat="40.18776356570302" lon="8.564689341360227"><ele>397.0</ele><time>2026-03-30T08:48:56Z</time></trkpt><trkpt lat="40.187728139733366" lon="8.564823992611776"><ele>398.25</ele><time>2026-03-30T08:48:57Z</time></trkpt><trkpt lat="40.187695576222126" lon="8.564946534310621"><ele>399.5</ele><time>2026-03-30T08:48:58Z</time></trkpt><trkpt lat="40.1876739280997" lon="8.565045853008158"><ele>400.75</ele><time>2026-03-30T08:48:59Z</time></trkpt><trkpt lat="40.18758723189011" lon="8.565190642216928"><ele>402.0</ele><time>2026-03-30T08:49:01Z</time></trkpt><trkpt lat="40.18759981418615" lon="8.565364600856466"><ele>403.5</ele><time>2026-03-30T08:49:02Z</time></trkpt><trkpt lat="40.18755080316671" lon="8.565488469123931"><ele>405.0</ele><time>2026-03-30T08:49:03Z</time></trkpt><trkpt lat="40.18745752768737" lon="8.565568829334316"><ele>406.5</ele><time>2026-03-30T08:49:04Z</time></trkpt><trkpt lat="40.187330048210946" lon="8.565600363041504"><ele>408.0</ele><time>2026-03-30T08:49:05Z</time></trkpt><trkpt lat="40.1872003070003" lon="8.565613055881668"><ele>408.0</ele><time>2026-03-30T08:49:06Z</time></trkpt><trkpt lat="40.18707069048537" lon="8.565672267012523"><ele>408.0</ele><time>2026-03-30T08:49:07Z</time></trkpt><trkpt lat="40.186959101941646" lon="8.565781824639082"><ele>408.0</ele><time>2026-03-30T08:49:08Z</time></trkpt><trkpt lat="40.18685680446978" lon="8.565896501133482"><ele>408.0</ele><time>2026-03-30T08:49:09Z</time></trkpt><trkpt lat="40.18676064513826" lon="8.566034516156378"><ele>408.0</ele><time>2026-03-30T08:49:10Z</time></trkpt><trkpt lat="40.18664861221793" lon="8.566162866683543"><ele>408.0</ele><time>2026-03-30T08:49:11Z</time></trkpt><trkpt lat="40.186538646597064" lon="8.566290203108933"><ele>408.0</ele><time>2026-03-30T08:49:12Z</time></trkpt><trkpt lat="40.186401090724104" lon="8.566390236474774"><ele>409.33333333333337</ele><time>2026-03-30T08:49:13Z</time></trkpt><trkpt lat="40.18624515515327" lon="8.56647825868442"><ele>410.6666666666667</ele><time>2026-03-30T08:49:14Z</time></trkpt><trkpt lat="40.18607941616915" lon="8.566579002316296"><ele>412.0</ele><time>2026-03-30T08:49:15Z</time></trkpt><trkpt lat="40.185905497919165" lon="8.566657153236147"><ele>412.0</ele><time>2026-03-30T08:49:16Z</time></trkpt><trkpt lat="40.18574155377059" lon="8.566738674745965"><ele>412.0</ele><time>2026-03-30T08:49:17Z</time></trkpt><trkpt lat="40.185591305366245" lon="8.566821721462569"><ele>412.0</ele><time>2026-03-30T08:49:18Z</time></trkpt><trkpt lat="40.185463617784734" lon="8.566892056767323"><ele>412.6</ele><time>2026-03-30T08:49:19Z</time></trkpt><trkpt lat="40.18538254967185" lon="8.566973519766814"><ele>413.20000000000005</ele><time>2026-03-30T08:49:20Z</time></trkpt><trkpt lat="40.185331290306934" lon="8.567080678714795"><ele>413.8</ele><time>2026-03-30T08:49:21Z</time></trkpt><trkpt lat="40.18531476306945" lon="8.567191272180896"><ele>414.4</ele><time>2026-03-30T08:49:22Z</time></trkpt><trkpt lat="40.18538682670702" lon="8.567309308267149"><ele>415.0</ele><time>2026-03-30T08:49:23Z</time></trkpt><trkpt lat="40.18544728877889" lon="8.567438314263244"><ele>415.0</ele><time>2026-03-30T08:49:24Z</time></trkpt><trkpt lat="40.18561027312112" lon="8.56740640608485"><ele>415.0</ele><time>2026-03-30T08:49:25Z</time></trkpt><trkpt lat="40.18573972632895" lon="8.567391040386733"><ele>415.0</ele><time>2026-03-30T08:49:26Z</time></trkpt><trkpt lat="40.18588251446887" lon="8.567371894472428"><ele>415.0</ele><time>2026-03-30T08:49:27Z</time></trkpt><trkpt lat="40.18601911534907" lon="8.567358302855178"><ele>418.25</ele><time>2026-03-30T08:49:28Z</time></trkpt><trkpt lat="40.186162234556214" lon="8.567346280927902"><ele>421.5</ele><time>2026-03-30T08:49:29Z</time></trkpt><trkpt lat="40.18630692328619" lon="8.567344539426825"><ele>424.75</ele><time>2026-03-30T08:49:30Z</time></trkpt><trkpt lat="40.18645892138661" lon="8.56736343200625"><ele>428.0</ele><time>2026-03-30T08:49:31Z</time></trkpt><trkpt lat="40.18661691744248" lon="8.567387515607322"><ele>429.66666666666663</ele><time>2026-03-30T08:49:32Z</time></trkpt><trkpt lat="40.186759274741036" lon="8.567447690038964"><ele>431.33333333333337</ele><time>2026-03-30T08:49:33Z</time></trkpt><trkpt lat="40.1869211905707" lon="8.567426162843399"><ele>433.0</ele><time>2026-03-30T08:49:34Z</time></trkpt><trkpt lat="40.18706789996322" lon="8.567398002315073"><ele>433.0</ele><time>2026-03-30T08:49:35Z</time></trkpt><trkpt lat="40.18722490654911" lon="8.567367246735875"><ele>433.0</ele><time>2026-03-30T08:49:36Z</time></trkpt><trkpt lat="40.18737738940059" lon="8.567346584907439"><ele>433.0</ele><time>2026-03-30T08:49:37Z</time></trkpt><trkpt lat="40.187532477816575" lon="8.567312744924585"><ele>435.5</ele><time>2026-03-30T08:49:38Z</time></trkpt><trkpt lat="40.187681192031214" lon="8.567257328485116"><ele>438.0</ele><time>2026-03-30T08:49:39Z</time></trkpt><trkpt lat="40.1878073500775" lon="8.567188531833903"><ele>440.5</ele><time>2026-03-30T08:49:40Z</time></trkpt><trkpt lat="40.18792956391222" lon="8.56712660285131"><ele>443.0</ele><time>2026-03-30T08:49:41Z</time></trkpt><trkpt lat="40.18803305302197" lon="8.567082626578364"><ele>442.99999999999994</ele><time>2026-03-30T08:49:42Z</time></trkpt><trkpt lat="40.18813862868278" lon="8.567073969513189"><ele>443.0</ele><time>2026-03-30T08:49:43Z</time></trkpt><trkpt lat="40.188216410968344" lon="8.567138528357464"><ele>443.0</ele><time>2026-03-30T08:49:44Z</time></trkpt><trkpt lat="40.18826883249235" lon="8.56720423557943"><ele>443.0</ele><time>2026-03-30T08:49:45Z</time></trkpt><trkpt lat="40.188324410164924" lon="8.567259010963609"><ele>442.99999999999994</ele><time>2026-03-30T08:49:46Z</time></trkpt><trkpt lat="40.188392129284594" lon="8.56731416705746"><ele>443.0</ele><time>2026-03-30T08:49:47Z</time></trkpt><trkpt lat="40.18844837346779" lon="8.567354349207363"><ele>443.0</ele><time>2026-03-30T08:49:48Z</time></trkpt><trkpt lat="40.18842285972494" lon="8.567458123488025"><ele>442.99999999999994</ele><time>2026-03-30T08:49:50Z</time></trkpt><trkpt lat="40.18835540418152" lon="8.567451681932736"><ele>442.99999999999994</ele><time>2026-03-30T08:49:51Z</time></trkpt><trkpt lat="40.188276029112856" lon="8.56748411972829"><ele>443.0</ele><time>2026-03-30T08:49:54Z</time></trkpt><trkpt lat="40.18816905479222" lon="8.567536716788918"><ele>443.0</ele><time>2026-03-30T08:49:56Z</time></trkpt><trkpt lat="40.18807130887962" lon="8.567598649018437"><ele>442.99999999999994</ele><time>2026-03-30T08:49:58Z</time></trkpt><trkpt lat="40.187959201657094" lon="8.56765508644441"><ele>443.0</ele><time>2026-03-30T08:50:00Z</time></trkpt><trkpt lat="40.187868794604725" lon="8.567721584572235"><ele>443.0</ele><time>2026-03-30T08:50:02Z</time></trkpt><trkpt lat="40.187815303973544" lon="8.567782200595786"><ele>443.0</ele><time>2026-03-30T08:50:03Z</time></trkpt><trkpt lat="40.18776803240665" lon="8.567842528452426"><ele>442.99999999999994</ele><time>2026-03-30T08:50:04Z</time></trkpt><trkpt lat="40.18772887939719" lon="8.567928098215306"><ele>443.0</ele><time>2026-03-30T08:50:05Z</time></trkpt><trkpt lat="40.1876847779668" lon="8.567988642803392"><ele>444.8333333333333</ele><time>2026-03-30T08:50:06Z</time></trkpt><trkpt lat="40.187634984654544" lon="8.568052536720447"><ele>446.66666666666663</ele><time>2026-03-30T08:50:07Z</time></trkpt><trkpt lat="40.187587004653885" lon="8.568132056067197"><ele>448.5</ele><time>2026-03-30T08:50:08Z</time></trkpt><trkpt lat="40.187537988103266" lon="8.568220848178564"><ele>450.33333333333337</ele><time>2026-03-30T08:50:09Z</time></trkpt><trkpt lat="40.18749415886322" lon="8.568300713677"><ele>452.1666666666667</ele><time>2026-03-30T08:50:10Z</time></trkpt><trkpt lat="40.18744401290238" lon="8.568377222629774"><ele>454.0</ele><time>2026-03-30T08:50:11Z</time></trkpt><trkpt lat="40.18741064837051" lon="8.568455245253688"><ele>454.00000000000006</ele><time>2026-03-30T08:50:12Z</time></trkpt><trkpt lat="40.18741142569058" lon="8.568548974900375"><ele>454.0</ele><time>2026-03-30T08:50:13Z</time></trkpt><trkpt lat="40.18738172275279" lon="8.56863753738375"><ele>454.0</ele><time>2026-03-30T08:50:14Z</time></trkpt><trkpt lat="40.18737562210993" lon="8.568737775962473"><ele>454.0</ele><time>2026-03-30T08:50:15Z</time></trkpt><trkpt lat="40.18735985023695" lon="8.568849420530047"><ele>454.00000000000006</ele><time>2026-03-30T08:50:16Z</time></trkpt><trkpt lat="40.18733911137098" lon="8.568959303193258"><ele>454.0</ele><time>2026-03-30T08:50:17Z</time></trkpt><trkpt lat="40.18730970090531" lon="8.569064946311984"><ele>452.6</ele><time>2026-03-30T08:50:18Z</time></trkpt><trkpt lat="40.18728701894052" lon="8.569173913105924"><ele>451.2</ele><time>2026-03-30T08:50:19Z</time></trkpt><trkpt lat="40.18727022793197" lon="8.56928647762771"><ele>449.80000000000007</ele><time>2026-03-30T08:50:20Z</time></trkpt><trkpt lat="40.18726868175215" lon="8.569410400071149"><ele>448.40000000000003</ele><time>2026-03-30T08:50:21Z</time></trkpt><trkpt lat="40.18727716090621" lon="8.569533365872928"><ele>447.0</ele><time>2026-03-30T08:50:22Z</time></trkpt><trkpt lat="40.187285480864126" lon="8.569647913803955"><ele>446.57142857142856</ele><time>2026-03-30T08:50:23Z</time></trkpt><trkpt lat="40.18729683997272" lon="8.569753829858337"><ele>446.1428571428571</ele><time>2026-03-30T08:50:24Z</time></trkpt><trkpt lat="40.18730739818074" lon="8.569857870206524"><ele>445.71428571428567</ele><time>2026-03-30T08:50:25Z</time></trkpt><trkpt lat="40.18731727954205" lon="8.56995551605623"><ele>445.2857142857143</ele><time>2026-03-30T08:50:26Z</time></trkpt><trkpt lat="40.187334076908854" lon="8.570044306060122"><ele>444.8571428571429</ele><time>2026-03-30T08:50:27Z</time></trkpt><trkpt lat="40.18732141365457" lon="8.570135520700944"><ele>444.4285714285714</ele><time>2026-03-30T08:50:28Z</time></trkpt><trkpt lat="40.18730595094346" lon="8.570226663761463"><ele>444.0</ele><time>2026-03-30T08:50:29Z</time></trkpt><trkpt lat="40.18729386146539" lon="8.570322483434882"><ele>445.0</ele><time>2026-03-30T08:50:30Z</time></trkpt><trkpt lat="40.18726639473424" lon="8.570413219411778"><ele>446.0</ele><time>2026-03-30T08:50:31Z</time></trkpt><trkpt lat="40.187207397443494" lon="8.570485125116926"><ele>447.0</ele><time>2026-03-30T08:50:32Z</time></trkpt><trkpt lat="40.187163228530196" lon="8.57057131422961"><ele>448.0</ele><time>2026-03-30T08:50:33Z</time></trkpt><trkpt lat="40.18712012227377" lon="8.570649965231722"><ele>449.0</ele><time>2026-03-30T08:50:34Z</time></trkpt><trkpt lat="40.18707446165423" lon="8.570729390411156"><ele>450.0</ele><time>2026-03-30T08:50:35Z</time></trkpt><trkpt lat="40.18702843672369" lon="8.570812144739397"><ele>450.0</ele><time>2026-03-30T08:50:36Z</time></trkpt><trkpt lat="40.18698329381286" lon="8.570905109109969"><ele>450.0</ele><time>2026-03-30T08:50:37Z</time></trkpt><trkpt lat="40.18694180989438" lon="8.57099929418738"><ele>450.0</ele><time>2026-03-30T08:50:38Z</time></trkpt><trkpt lat="40.186899482602676" lon="8.571102335727982"><ele>450.0</ele><time>2026-03-30T08:50:39Z</time></trkpt><trkpt lat="40.18685563356142" lon="8.571215619313554"><ele>450.0</ele><time>2026-03-30T08:50:40Z</time></trkpt><trkpt lat="40.186830347912704" lon="8.571344780153469"><ele>451.8</ele><time>2026-03-30T08:50:41Z</time></trkpt><trkpt lat="40.186776122180305" lon="8.571470069497263"><ele>453.6</ele><time>2026-03-30T08:50:42Z</time></trkpt><trkpt lat="40.18674669660152" lon="8.571603060352967"><ele>455.4</ele><time>2026-03-30T08:50:43Z</time></trkpt><trkpt lat="40.186696565049616" lon="8.571699768108315"><ele>457.2</ele><time>2026-03-30T08:50:44Z</time></trkpt><trkpt lat="40.186651138283416" lon="8.57179644080689"><ele>459.0</ele><time>2026-03-30T08:50:45Z</time></trkpt><trkpt lat="40.18659019327369" lon="8.571875314715891"><ele>459.0</ele><time>2026-03-30T08:50:46Z</time></trkpt><trkpt lat="40.186515820076465" lon="8.571940614636178"><ele>459.0</ele><time>2026-03-30T08:50:47Z</time></trkpt><trkpt lat="40.18646016691192" lon="8.571988661430426"><ele>459.0</ele><time>2026-03-30T08:50:48Z</time></trkpt><trkpt lat="40.18640636453537" lon="8.57205332511252"><ele>459.0</ele><time>2026-03-30T08:50:49Z</time></trkpt><trkpt lat="40.18633791099592" lon="8.572093875451877"><ele>459.0</ele><time>2026-03-30T08:50:50Z</time></trkpt><trkpt lat="40.18625407809282" lon="8.572166444419368"><ele>459.0</ele><time>2026-03-30T08:50:52Z</time></trkpt><trkpt lat="40.18619320677703" lon="8.572222738542061"><ele>459.6666666666667</ele><time>2026-03-30T08:50:55Z</time></trkpt><trkpt lat="40.18613799703497" lon="8.572265253210643"><ele>460.33333333333337</ele><time>2026-03-30T08:50:58Z</time></trkpt><trkpt lat="40.186072410808585" lon="8.57232361043449"><ele>461.0</ele><time>2026-03-30T08:51:01Z</time></trkpt><trkpt lat="40.186003146735516" lon="8.572394302723724"><ele>461.6666666666667</ele><time>2026-03-30T08:51:03Z</time></trkpt><trkpt lat="40.1859555183249" lon="8.572455434971177"><ele>462.33333333333337</ele><time>2026-03-30T08:51:04Z</time></trkpt><trkpt lat="40.18589871719891" lon="8.572536753963206"><ele>463.0</ele><time>2026-03-30T08:51:05Z</time></trkpt><trkpt lat="40.1858341921387" lon="8.572639894583926"><ele>463.0</ele><time>2026-03-30T08:51:06Z</time></trkpt><trkpt lat="40.18576942441331" lon="8.572765669604797"><ele>463.0</ele><time>2026-03-30T08:51:07Z</time></trkpt><trkpt lat="40.18572594451057" lon="8.572920161530545"><ele>463.0</ele><time>2026-03-30T08:51:08Z</time></trkpt><trkpt lat="40.18566418553153" lon="8.573069866785238"><ele>463.0</ele><time>2026-03-30T08:51:09Z</time></trkpt><trkpt lat="40.18561383181297" lon="8.57321351226835"><ele>464.4</ele><time>2026-03-30T08:51:10Z</time></trkpt><trkpt lat="40.18554781643059" lon="8.573331340652347"><ele>465.79999999999995</ele><time>2026-03-30T08:51:11Z</time></trkpt><trkpt lat="40.18547865006927" lon="8.573432436319036"><ele>467.2</ele><time>2026-03-30T08:51:12Z</time></trkpt><trkpt lat="40.185382439726645" lon="8.5735016611172"><ele>468.6</ele><time>2026-03-30T08:51:13Z</time></trkpt><trkpt lat="40.18526482324841" lon="8.57353955545505"><ele>470.0</ele><time>2026-03-30T08:51:14Z</time></trkpt><trkpt lat="40.18513461328998" lon="8.573551141868306"><ele>470.0</ele><time>2026-03-30T08:51:15Z</time></trkpt><trkpt lat="40.185011742857284" lon="8.573523880278398"><ele>470.0</ele><time>2026-03-30T08:51:16Z</time></trkpt><trkpt lat="40.184880309929056" lon="8.573487496747264"><ele>470.0</ele><time>2026-03-30T08:51:17Z</time></trkpt><trkpt lat="40.18475330128693" lon="8.573454708694541"><ele>470.0</ele><time>2026-03-30T08:51:18Z</time></trkpt><trkpt lat="40.18463331083316" lon="8.573416179854085"><ele>469.8</ele><time>2026-03-30T08:51:19Z</time></trkpt><trkpt lat="40.18452752398766" lon="8.573387561652817"><ele>469.6</ele><time>2026-03-30T08:51:20Z</time></trkpt><trkpt lat="40.18443841017601" lon="8.573357239014546"><ele>469.4</ele><time>2026-03-30T08:51:21Z</time></trkpt><trkpt lat="40.18435793356309" lon="8.573340739776633"><ele>469.2</ele><time>2026-03-30T08:51:22Z</time></trkpt><trkpt lat="40.18425798016104" lon="8.573417581419625"><ele>469.0</ele><time>2026-03-30T08:51:24Z</time></trkpt><trkpt lat="40.18426097165789" lon="8.573511225559406"><ele>469.0</ele><time>2026-03-30T08:51:25Z</time></trkpt><trkpt lat="40.184295958027974" lon="8.573602079306344"><ele>469.0</ele><time>2026-03-30T08:51:26Z</time></trkpt><trkpt lat="40.184352784770766" lon="8.573678096656225"><ele>469.0</ele><time>2026-03-30T08:51:27Z</time></trkpt><trkpt lat="40.184467365975884" lon="8.573680419299903"><ele>469.0</ele><time>2026-03-30T08:51:28Z</time></trkpt><trkpt lat="40.1845880208387" lon="8.573695447417146"><ele>469.0</ele><time>2026-03-30T08:51:29Z</time></trkpt><trkpt lat="40.18471912840163" lon="8.573719869563377"><ele>473.0</ele><time>2026-03-30T08:51:30Z</time></trkpt><trkpt lat="40.184846658031226" lon="8.573762949846556"><ele>477.0</ele><time>2026-03-30T08:51:31Z</time></trkpt><trkpt lat="40.184978572222754" lon="8.573825545978657"><ele>481.0</ele><time>2026-03-30T08:51:32Z</time></trkpt><trkpt lat="40.18508464834095" lon="8.573949217921422"><ele>485.0</ele><time>2026-03-30T08:51:33Z</time></trkpt><trkpt lat="40.18519160057092" lon="8.574078285112993"><ele>485.0</ele><time>2026-03-30T08:51:34Z</time></trkpt><trkpt lat="40.18527741739564" lon="8.574234116440557"><ele>485.0</ele><time>2026-03-30T08:51:35Z</time></trkpt><trkpt lat="40.18537009406352" lon="8.574395718222936"><ele>485.0</ele><time>2026-03-30T08:51:36Z</time></trkpt><trkpt lat="40.18546048612388" lon="8.57455378921836"><ele>486.5</ele><time>2026-03-30T08:51:37Z</time></trkpt><trkpt lat="40.18558375877668" lon="8.574664781847497"><ele>488.0</ele><time>2026-03-30T08:51:38Z</time></trkpt><trkpt lat="40.18572503892619" lon="8.574733663182021"><ele>489.5</ele><time>2026-03-30T08:51:39Z</time></trkpt><trkpt lat="40.18586772367377" lon="8.574781716251527"><ele>491.0</ele><time>2026-03-30T08:51:40Z</time></trkpt><trkpt lat="40.18598153441592" lon="8.574861049342815"><ele>491.0</ele><time>2026-03-30T08:51:41Z</time></trkpt><trkpt lat="40.186078682160414" lon="8.574920674796843"><ele>491.0</ele><time>2026-03-30T08:51:42Z</time></trkpt><trkpt lat="40.18615873912602" lon="8.574965210049193"><ele>491.0</ele><time>2026-03-30T08:51:43Z</time></trkpt><trkpt lat="40.18618489607092" lon="8.575066329800325"><ele>491.0</ele><time>2026-03-30T08:51:44Z</time></trkpt><trkpt lat="40.18616165504475" lon="8.57517645058375"><ele>491.0</ele><time>2026-03-30T08:51:45Z</time></trkpt><trkpt lat="40.186078391630765" lon="8.575230495381103"><ele>491.0</ele><time>2026-03-30T08:51:46Z</time></trkpt><trkpt lat="40.18598458235284" lon="8.575238619000265"><ele>491.0</ele><time>2026-03-30T08:51:47Z</time></trkpt><trkpt lat="40.18586792024493" lon="8.575236532053886"><ele>491.0</ele><time>2026-03-30T08:51:48Z</time></trkpt><trkpt lat="40.18574700094967" lon="8.575252546436026"><ele>491.0</ele><time>2026-03-30T08:51:49Z</time></trkpt><trkpt lat="40.18562162103354" lon="8.575250525907322"><ele>492.75</ele><time>2026-03-30T08:51:50Z</time></trkpt><trkpt lat="40.18548494614284" lon="8.57525355052536"><ele>494.5</ele><time>2026-03-30T08:51:51Z</time></trkpt><trkpt lat="40.18535977999079" lon="8.57519080113709"><ele>496.25</ele><time>2026-03-30T08:51:52Z</time></trkpt><trkpt lat="40.18523252548288" lon="8.575102594417642"><ele>498.0</ele><time>2026-03-30T08:51:53Z</time></trkpt><trkpt lat="40.185092795069" lon="8.575000832505541"><ele>498.0</ele><time>2026-03-30T08:51:54Z</time></trkpt><trkpt lat="40.18493894589148" lon="8.574897680751267"><ele>498.0</ele><time>2026-03-30T08:51:55Z</time></trkpt><trkpt lat="40.184797500158695" lon="8.574790792489239"><ele>498.0</ele><time>2026-03-30T08:51:56Z</time></trkpt><trkpt lat="40.184652724439445" lon="8.574687016086399"><ele>499.0</ele><time>2026-03-30T08:51:57Z</time></trkpt><trkpt lat="40.18451739745443" lon="8.574595231680853"><ele>500.0</ele><time>2026-03-30T08:51:58Z</time></trkpt><trkpt lat="40.184389244417545" lon="8.574529007774528"><ele>501.0</ele><time>2026-03-30T08:51:59Z</time></trkpt><trkpt lat="40.18426965039796" lon="8.574517743712695"><ele>502.0</ele><time>2026-03-30T08:52:00Z</time></trkpt><trkpt lat="40.1841761528876" lon="8.574582199205512"><ele>502.0</ele><time>2026-03-30T08:52:01Z</time></trkpt><trkpt lat="40.18411512935338" lon="8.57469697441767"><ele>502.0</ele><time>2026-03-30T08:52:02Z</time></trkpt><trkpt lat="40.18410011868116" lon="8.574837646947644"><ele>502.0</ele><time>2026-03-30T08:52:03Z</time></trkpt><trkpt lat="40.18413094369855" lon="8.574994566252448"><ele>502.0</ele><time>2026-03-30T08:52:04Z</time></trkpt><trkpt lat="40.18413142147307" lon="8.575159117874211"><ele>502.0</ele><time>2026-03-30T08:52:05Z</time></trkpt><trkpt lat="40.18411332569398" lon="8.575344513974493"><ele>502.0</ele><time>2026-03-30T08:52:06Z</time></trkpt><trkpt lat="40.18406332172417" lon="8.575524453157504"><ele>502.0</ele><time>2026-03-30T08:52:07Z</time></trkpt><trkpt lat="40.18400624542147" lon="8.575709548304479"><ele>502.0</ele><time>2026-03-30T08:52:08Z</time></trkpt><trkpt lat="40.183928926404334" lon="8.575863117192172"><ele>500.75</ele><time>2026-03-30T08:52:09Z</time></trkpt><trkpt lat="40.183875433008424" lon="8.57600385023125"><ele>499.5</ele><time>2026-03-30T08:52:10Z</time></trkpt><trkpt lat="40.18389704789856" lon="8.576155030654627"><ele>498.25</ele><time>2026-03-30T08:52:11Z</time></trkpt><trkpt lat="40.183960778416164" lon="8.576281190038069"><ele>497.0</ele><time>2026-03-30T08:52:12Z</time></trkpt><trkpt lat="40.184045755589985" lon="8.576398444199931"><ele>501.75</ele><time>2026-03-30T08:52:13Z</time></trkpt><trkpt lat="40.18412178010558" lon="8.576528264984983"><ele>506.5</ele><time>2026-03-30T08:52:14Z</time></trkpt><trkpt lat="40.18418279149165" lon="8.576687584813223"><ele>511.25</ele><time>2026-03-30T08:52:15Z</time></trkpt><trkpt lat="40.184227349751936" lon="8.576853001155216"><ele>516.0</ele><time>2026-03-30T08:52:16Z</time></trkpt><trkpt lat="40.184249887405166" lon="8.57702194741546"><ele>517.25</ele><time>2026-03-30T08:52:17Z</time></trkpt><trkpt lat="40.18424262481999" lon="8.577199698431311"><ele>518.5</ele><time>2026-03-30T08:52:18Z</time></trkpt><trkpt lat="40.18421398325499" lon="8.577376344694041"><ele>519.75</ele><time>2026-03-30T08:52:19Z</time></trkpt><trkpt lat="40.18415928700989" lon="8.57754799254138"><ele>521.0</ele><time>2026-03-30T08:52:20Z</time></trkpt><trkpt lat="40.18412163704014" lon="8.577708039328495"><ele>521.0</ele><time>2026-03-30T08:52:21Z</time></trkpt><trkpt lat="40.18407988829675" lon="8.577840019014658"><ele>521.0</ele><time>2026-03-30T08:52:22Z</time></trkpt><trkpt lat="40.18401459392019" lon="8.577954214328152"><ele>521.0</ele><time>2026-03-30T08:52:23Z</time></trkpt><trkpt lat="40.183892336718955" lon="8.578000870165218"><ele>521.0</ele><time>2026-03-30T08:52:24Z</time></trkpt><trkpt lat="40.18374905716198" lon="8.57800055370973"><ele>519.25</ele><time>2026-03-30T08:52:25Z</time></trkpt><trkpt lat="40.18359749222552" lon="8.577957278368336"><ele>517.5</ele><time>2026-03-30T08:52:26Z</time></trkpt><trkpt lat="40.18344691573006" lon="8.577914166642318"><ele>515.75</ele><time>2026-03-30T08:52:27Z</time></trkpt><trkpt lat="40.183315399487924" lon="8.577853479804473"><ele>514.0</ele><time>2026-03-30T08:52:28Z</time></trkpt><trkpt lat="40.183192212799206" lon="8.577781232048109"><ele>515.75</ele><time>2026-03-30T08:52:29Z</time></trkpt><trkpt lat="40.18308953123113" lon="8.577686367234968"><ele>517.5</ele><time>2026-03-30T08:52:30Z</time></trkpt><trkpt lat="40.18300094200459" lon="8.577573341848499"><ele>519.25</ele><time>2026-03-30T08:52:31Z</time></trkpt><trkpt lat="40.182907579550466" lon="8.577425727304309"><ele>521.0</ele><time>2026-03-30T08:52:32Z</time></trkpt><trkpt lat="40.182838646456595" lon="8.577337531565037"><ele>521.0</ele><time>2026-03-30T08:52:33Z</time></trkpt><trkpt lat="40.18278630890038" lon="8.57725237533103"><ele>521.0</ele><time>2026-03-30T08:52:34Z</time></trkpt><trkpt lat="40.182719450774755" lon="8.577198397137828"><ele>521.0</ele><time>2026-03-30T08:52:35Z</time></trkpt><trkpt lat="40.18260732861624" lon="8.577271169132835"><ele>521.0</ele><time>2026-03-30T08:52:37Z</time></trkpt><trkpt lat="40.18257293033883" lon="8.57737462876328"><ele>521.0</ele><time>2026-03-30T08:52:38Z</time></trkpt><trkpt lat="40.182606680257194" lon="8.577509998077824"><ele>521.0</ele><time>2026-03-30T08:52:39Z</time></trkpt><trkpt lat="40.18267880792113" lon="8.577625471688407"><ele>521.0</ele><time>2026-03-30T08:52:40Z</time></trkpt><trkpt lat="40.18272585380472" lon="8.577727327050475"><ele>521.0</ele><time>2026-03-30T08:52:41Z</time></trkpt><trkpt lat="40.18275851064551" lon="8.57783303188909"><ele>521.0</ele><time>2026-03-30T08:52:42Z</time></trkpt><trkpt lat="40.18279940683426" lon="8.578005354014909"><ele>521.0</ele><time>2026-03-30T08:52:43Z</time></trkpt><trkpt lat="40.18281717658118" lon="8.578192530609565"><ele>524.5</ele><time>2026-03-30T08:52:44Z</time></trkpt><trkpt lat="40.18277589445555" lon="8.578369479748238"><ele>528.0</ele><time>2026-03-30T08:52:45Z</time></trkpt><trkpt lat="40.18270488834414" lon="8.578532789005335"><ele>531.5</ele><time>2026-03-30T08:52:46Z</time></trkpt><trkpt lat="40.182623008291316" lon="8.578682439251391"><ele>535.0</ele><time>2026-03-30T08:52:47Z</time></trkpt><trkpt lat="40.1825365642589" lon="8.57879616862625"><ele>536.0</ele><time>2026-03-30T08:52:48Z</time></trkpt><trkpt lat="40.182448454513974" lon="8.578856693011472"><ele>537.0</ele><time>2026-03-30T08:52:49Z</time></trkpt><trkpt lat="40.18236187097712" lon="8.578817200626732"><ele>538.0</ele><time>2026-03-30T08:52:50Z</time></trkpt><trkpt lat="40.18230136115063" lon="8.57873047728589"><ele>539.0</ele><time>2026-03-30T08:52:51Z</time></trkpt><trkpt lat="40.18220954661554" lon="8.578638037847679"><ele>540.0</ele><time>2026-03-30T08:52:52Z</time></trkpt><trkpt lat="40.182120495137774" lon="8.578507767038598"><ele>540.0</ele><time>2026-03-30T08:52:53Z</time></trkpt><trkpt lat="40.18204723774915" lon="8.57836372321781"><ele>540.0</ele><time>2026-03-30T08:52:54Z</time></trkpt><trkpt lat="40.1819691094645" lon="8.578214885817099"><ele>540.0</ele><time>2026-03-30T08:52:55Z</time></trkpt><trkpt lat="40.181868741364006" lon="8.578121228117762"><ele>540.0</ele><time>2026-03-30T08:52:56Z</time></trkpt><trkpt lat="40.18175819903009" lon="8.578072076307745"><ele>540.0</ele><time>2026-03-30T08:52:57Z</time></trkpt><trkpt lat="40.18163206214889" lon="8.578068961745615"><ele>540.0</ele><time>2026-03-30T08:52:58Z</time></trkpt><trkpt lat="40.18150830307814" lon="8.57811501701992"><ele>540.0</ele><time>2026-03-30T08:52:59Z</time></trkpt><trkpt lat="40.18139650185951" lon="8.578220575438964"><ele>540.0</ele><time>2026-03-30T08:53:00Z</time></trkpt><trkpt lat="40.18129620855537" lon="8.578373751236413"><ele>540.6666666666666</ele><time>2026-03-30T08:53:01Z</time></trkpt><trkpt lat="40.18122430965831" lon="8.578553884228414"><ele>541.3333333333333</ele><time>2026-03-30T08:53:02Z</time></trkpt><trkpt lat="40.181165111676904" lon="8.578752080608611"><ele>542.0</ele><time>2026-03-30T08:53:03Z</time></trkpt><trkpt lat="40.18113282072378" lon="8.57899391785458"><ele>542.0</ele><time>2026-03-30T08:53:04Z</time></trkpt><trkpt lat="40.181099387669676" lon="8.579189076582328"><ele>542.0</ele><time>2026-03-30T08:53:05Z</time></trkpt><trkpt lat="40.181037083903504" lon="8.579341007093811"><ele>542.0</ele><time>2026-03-30T08:53:06Z</time></trkpt><trkpt lat="40.180956867178" lon="8.579459958327153"><ele>542.0</ele><time>2026-03-30T08:53:07Z</time></trkpt><trkpt lat="40.18086679416615" lon="8.579551035169931"><ele>541.75</ele><time>2026-03-30T08:53:08Z</time></trkpt><trkpt lat="40.18075899629364" lon="8.579607341940251"><ele>541.5</ele><time>2026-03-30T08:53:09Z</time></trkpt><trkpt lat="40.180631544674974" lon="8.579660838526348"><ele>541.25</ele><time>2026-03-30T08:53:10Z</time></trkpt><trkpt lat="40.18050882508813" lon="8.579711879222275"><ele>541.0</ele><time>2026-03-30T08:53:11Z</time></trkpt><trkpt lat="40.18041155303779" lon="8.579828955612538"><ele>541.0</ele><time>2026-03-30T08:53:12Z</time></trkpt><trkpt lat="40.18033699632695" lon="8.579978714009606"><ele>541.0</ele><time>2026-03-30T08:53:13Z</time></trkpt><trkpt lat="40.180293621978755" lon="8.580157838466265"><ele>541.0</ele><time>2026-03-30T08:53:14Z</time></trkpt><trkpt lat="40.180265374874175" lon="8.580339994884083"><ele>541.0</ele><time>2026-03-30T08:53:15Z</time></trkpt><trkpt lat="40.180230521549824" lon="8.58052014468515"><ele>545.3333333333334</ele><time>2026-03-30T08:53:16Z</time></trkpt><trkpt lat="40.18020043699288" lon="8.580707363867655"><ele>549.6666666666666</ele><time>2026-03-30T08:53:17Z</time></trkpt><trkpt lat="40.180169241620604" lon="8.580898674932344"><ele>554.0</ele><time>2026-03-30T08:53:18Z</time></trkpt><trkpt lat="40.1801370591335" lon="8.581096039702672"><ele>557.3333333333333</ele><time>2026-03-30T08:53:19Z</time></trkpt><trkpt lat="40.18010351228124" lon="8.581295254881047"><ele>560.6666666666666</ele><time>2026-03-30T08:53:20Z</time></trkpt><trkpt lat="40.18006041770776" lon="8.581480682474794"><ele>564.0</ele><time>2026-03-30T08:53:21Z</time></trkpt><trkpt lat="40.17999112185319" lon="8.581650084452129"><ele>564.0</ele><time>2026-03-30T08:53:22Z</time></trkpt><trkpt lat="40.17992596056216" lon="8.581838977450635"><ele>564.0</ele><time>2026-03-30T08:53:23Z</time></trkpt><trkpt lat="40.179903702253476" lon="8.582042752318467"><ele>564.0</ele><time>2026-03-30T08:53:24Z</time></trkpt><trkpt lat="40.17989483246646" lon="8.582254075994008"><ele>563.3333333333334</ele><time>2026-03-30T08:53:25Z</time></trkpt><trkpt lat="40.17985982901268" lon="8.582461122655516"><ele>562.6666666666667</ele><time>2026-03-30T08:53:26Z</time></trkpt><trkpt lat="40.17982473243742" lon="8.582673655193311"><ele>562.0</ele><time>2026-03-30T08:53:27Z</time></trkpt><trkpt lat="40.17978467365548" lon="8.582889541239345"><ele>562.0</ele><time>2026-03-30T08:53:28Z</time></trkpt><trkpt lat="40.17977447057549" lon="8.583111490357094"><ele>562.0</ele><time>2026-03-30T08:53:29Z</time></trkpt><trkpt lat="40.17978460160487" lon="8.583334539463943"><ele>562.0</ele><time>2026-03-30T08:53:30Z</time></trkpt><trkpt lat="40.17981993993641" lon="8.58355895576884"><ele>565.3333333333334</ele><time>2026-03-30T08:53:31Z</time></trkpt><trkpt lat="40.17982367693812" lon="8.583788380850311"><ele>568.6666666666666</ele><time>2026-03-30T08:53:32Z</time></trkpt><trkpt lat="40.17981949945828" lon="8.584006807637623"><ele>572.0</ele><time>2026-03-30T08:53:33Z</time></trkpt><trkpt lat="40.17980533978047" lon="8.58422896434288"><ele>572.0</ele><time>2026-03-30T08:53:34Z</time></trkpt><trkpt lat="40.179790277292966" lon="8.584441495422945"><ele>572.0</ele><time>2026-03-30T08:53:35Z</time></trkpt><trkpt lat="40.179792597614956" lon="8.584631147711463"><ele>572.0</ele><time>2026-03-30T08:53:36Z</time></trkpt><trkpt lat="40.1797641434532" lon="8.584803009871719"><ele>572.0</ele><time>2026-03-30T08:53:37Z</time></trkpt><trkpt lat="40.179745684403564" lon="8.584955364385017"><ele>574.75</ele><time>2026-03-30T08:53:38Z</time></trkpt><trkpt lat="40.17968894415384" lon="8.585097008059897"><ele>577.5</ele><time>2026-03-30T08:53:39Z</time></trkpt><trkpt lat="40.179601098884085" lon="8.585212654684014"><ele>580.25</ele><time>2026-03-30T08:53:40Z</time></trkpt><trkpt lat="40.17950565469066" lon="8.585337492206374"><ele>583.0</ele><time>2026-03-30T08:53:41Z</time></trkpt><trkpt lat="40.17941390915141" lon="8.585436278759454"><ele>585.4</ele><time>2026-03-30T08:53:42Z</time></trkpt><trkpt lat="40.1793149952414" lon="8.585490403141787"><ele>587.8</ele><time>2026-03-30T08:53:43Z</time></trkpt><trkpt lat="40.17921687472811" lon="8.585447096315296"><ele>590.2</ele><time>2026-03-30T08:53:44Z</time></trkpt><trkpt lat="40.17911581981579" lon="8.585370396827646"><ele>592.6</ele><time>2026-03-30T08:53:45Z</time></trkpt><trkpt lat="40.17900989608772" lon="8.585302275220247"><ele>595.0</ele><time>2026-03-30T08:53:46Z</time></trkpt><trkpt lat="40.17890500050076" lon="8.585241639157129"><ele>595.0</ele><time>2026-03-30T08:53:47Z</time></trkpt><trkpt lat="40.17886160810263" lon="8.58512903997796"><ele>595.0</ele><time>2026-03-30T08:53:48Z</time></trkpt><trkpt lat="40.17882845227174" lon="8.58501338539264"><ele>595.0</ele><time>2026-03-30T08:53:49Z</time></trkpt><trkpt lat="40.1789065857935" lon="8.584914737226475"><ele>595.0</ele><time>2026-03-30T08:53:50Z</time></trkpt><trkpt lat="40.17892659093943" lon="8.584788775218476"><ele>595.0</ele><time>2026-03-30T08:53:51Z</time></trkpt><trkpt lat="40.17892494128416" lon="8.58464881419862"><ele>592.75</ele><time>2026-03-30T08:53:52Z</time></trkpt><trkpt lat="40.17888132855231" lon="8.584490368117233"><ele>590.5</ele><time>2026-03-30T08:53:53Z</time></trkpt><trkpt lat="40.17879315157343" lon="8.584355974119534"><ele>588.25</ele><time>2026-03-30T08:53:54Z</time></trkpt><trkpt lat="40.178679311104524" lon="8.584271525735248"><ele>586.0</ele><time>2026-03-30T08:53:55Z</time></trkpt><trkpt lat="40.17854622734733" lon="8.584223877613976"><ele>586.0</ele><time>2026-03-30T08:53:56Z</time></trkpt><trkpt lat="40.17839915267583" lon="8.584217287312374"><ele>586.0</ele><time>2026-03-30T08:53:57Z</time></trkpt><trkpt lat="40.178240913965666" lon="8.584263192003919"><ele>586.0</ele><time>2026-03-30T08:53:58Z</time></trkpt><trkpt lat="40.178085934817354" lon="8.584304734102151"><ele>586.5</ele><time>2026-03-30T08:53:59Z</time></trkpt><trkpt lat="40.177933826786976" lon="8.584340504867248"><ele>587.0</ele><time>2026-03-30T08:54:00Z</time></trkpt><trkpt lat="40.17778605223231" lon="8.584340480841318"><ele>587.5</ele><time>2026-03-30T08:54:01Z</time></trkpt><trkpt lat="40.17764645078366" lon="8.584319473642298"><ele>588.0</ele><time>2026-03-30T08:54:02Z</time></trkpt><trkpt lat="40.177513656168664" lon="8.58425420114147"><ele>588.0</ele><time>2026-03-30T08:54:03Z</time></trkpt><trkpt lat="40.17738194445777" lon="8.584163038984611"><ele>588.0</ele><time>2026-03-30T08:54:04Z</time></trkpt><trkpt lat="40.177255233012346" lon="8.584045985241339"><ele>588.0</ele><time>2026-03-30T08:54:05Z</time></trkpt><trkpt lat="40.17715126984414" lon="8.583901299036462"><ele>589.0</ele><time>2026-03-30T08:54:06Z</time></trkpt><trkpt lat="40.17705421096084" lon="8.58373647711342"><ele>590.0</ele><time>2026-03-30T08:54:07Z</time></trkpt><trkpt lat="40.17695315759799" lon="8.583593851262204"><ele>591.0</ele><time>2026-03-30T08:54:08Z</time></trkpt><trkpt lat="40.17686510238989" lon="8.58347140681852"><ele>592.0</ele><time>2026-03-30T08:54:09Z</time></trkpt><trkpt lat="40.17674813665212" lon="8.583395524547281"><ele>592.0</ele><time>2026-03-30T08:54:10Z</time></trkpt><trkpt lat="40.17661219402232" lon="8.583404234099817"><ele>592.0</ele><time>2026-03-30T08:54:11Z</time></trkpt><trkpt lat="40.176486703465" lon="8.583470889833817"><ele>592.0</ele><time>2026-03-30T08:54:12Z</time></trkpt><trkpt lat="40.1763880750675" lon="8.583611246159434"><ele>592.0</ele><time>2026-03-30T08:54:13Z</time></trkpt><trkpt lat="40.176318157120626" lon="8.583780269646873"><ele>591.3333333333334</ele><time>2026-03-30T08:54:14Z</time></trkpt><trkpt lat="40.17628792050347" lon="8.583969089433499"><ele>590.6666666666666</ele><time>2026-03-30T08:54:15Z</time></trkpt><trkpt lat="40.17629171772667" lon="8.58417151362039"><ele>590.0</ele><time>2026-03-30T08:54:16Z</time></trkpt><trkpt lat="40.17633055543926" lon="8.584371014614884"><ele>592.0</ele><time>2026-03-30T08:54:17Z</time></trkpt><trkpt lat="40.1763895861785" lon="8.584565531153372"><ele>594.0</ele><time>2026-03-30T08:54:18Z</time></trkpt><trkpt lat="40.176447945052395" lon="8.584762169399559"><ele>596.0</ele><time>2026-03-30T08:54:19Z</time></trkpt><trkpt lat="40.176494538822745" lon="8.584965767205805"><ele>596.0</ele><time>2026-03-30T08:54:20Z</time></trkpt><trkpt lat="40.17650679796588" lon="8.585187453638351"><ele>596.0</ele><time>2026-03-30T08:54:21Z</time></trkpt><trkpt lat="40.1765372407798" lon="8.585405456066333"><ele>596.0</ele><time>2026-03-30T08:54:22Z</time></trkpt><trkpt lat="40.17657563367953" lon="8.585618573316374"><ele>601.0</ele><time>2026-03-30T08:54:23Z</time></trkpt><trkpt lat="40.17658892097468" lon="8.585840083398512"><ele>606.0</ele><time>2026-03-30T08:54:24Z</time></trkpt><trkpt lat="40.17655850193986" lon="8.586057839517405"><ele>611.0</ele><time>2026-03-30T08:54:25Z</time></trkpt><trkpt lat="40.17654013524974" lon="8.586283991745104"><ele>612.0</ele><time>2026-03-30T08:54:26Z</time></trkpt><trkpt lat="40.17653244066296" lon="8.586515880455302"><ele>613.0</ele><time>2026-03-30T08:54:27Z</time></trkpt><trkpt lat="40.17653901335581" lon="8.5867471846033"><ele>614.0</ele><time>2026-03-30T08:54:28Z</time></trkpt><trkpt lat="40.17654740819142" lon="8.58697808142097"><ele>615.75</ele><time>2026-03-30T08:54:29Z</time></trkpt><trkpt lat="40.17655528063871" lon="8.587194610104609"><ele>617.5</ele><time>2026-03-30T08:54:30Z</time></trkpt><trkpt lat="40.17656225702679" lon="8.58739047792351"><ele>619.25</ele><time>2026-03-30T08:54:31Z</time></trkpt><trkpt lat="40.17655470261082" lon="8.587556392266855"><ele>621.0</ele><time>2026-03-30T08:54:32Z</time></trkpt><trkpt lat="40.17651229170195" lon="8.58769479842658"><ele>620.0</ele><time>2026-03-30T08:54:33Z</time></trkpt><trkpt lat="40.17642882087644" lon="8.587771446722936"><ele>619.0</ele><time>2026-03-30T08:54:34Z</time></trkpt><trkpt lat="40.17632654296359" lon="8.587829156788109"><ele>618.0</ele><time>2026-03-30T08:54:35Z</time></trkpt><trkpt lat="40.17621245706001" lon="8.587904985911607"><ele>617.0</ele><time>2026-03-30T08:54:36Z</time></trkpt><trkpt lat="40.17611371593787" lon="8.588031693738188"><ele>617.0</ele><time>2026-03-30T08:54:37Z</time></trkpt><trkpt lat="40.17602898819474" lon="8.588193379293378"><ele>617.0</ele><time>2026-03-30T08:54:38Z</time></trkpt><trkpt lat="40.17595967262754" lon="8.5883751491161"><ele>617.0</ele><time>2026-03-30T08:54:39Z</time></trkpt><trkpt lat="40.17590608049306" lon="8.588564219601139"><ele>619.6666666666666</ele><time>2026-03-30T08:54:40Z</time></trkpt><trkpt lat="40.175883891532756" lon="8.588767608584837"><ele>622.3333333333334</ele><time>2026-03-30T08:54:41Z</time></trkpt><trkpt lat="40.17587519075007" lon="8.588979314127577"><ele>625.0</ele><time>2026-03-30T08:54:42Z</time></trkpt><trkpt lat="40.17588996392413" lon="8.589186145308467"><ele>625.0</ele><time>2026-03-30T08:54:43Z</time></trkpt><trkpt lat="40.175880236773104" lon="8.58938130273373"><ele>625.0</ele><time>2026-03-30T08:54:44Z</time></trkpt><trkpt lat="40.175827972428955" lon="8.589566522395106"><ele>625.0</ele><time>2026-03-30T08:54:45Z</time></trkpt><trkpt lat="40.17574656562149" lon="8.58974608255276"><ele>626.0</ele><time>2026-03-30T08:54:46Z</time></trkpt><trkpt lat="40.17565434451243" lon="8.589928683172275"><ele>627.0</ele><time>2026-03-30T08:54:47Z</time></trkpt><trkpt lat="40.175562454993056" lon="8.590111078582714"><ele>628.0</ele><time>2026-03-30T08:54:48Z</time></trkpt><trkpt lat="40.175483129250225" lon="8.59030326466152"><ele>630.0</ele><time>2026-03-30T08:54:49Z</time></trkpt><trkpt lat="40.17538209839412" lon="8.590465086379263"><ele>632.0</ele><time>2026-03-30T08:54:50Z</time></trkpt><trkpt lat="40.17532154053598" lon="8.590635495398022"><ele>634.0</ele><time>2026-03-30T08:54:51Z</time></trkpt><trkpt lat="40.17529576642155" lon="8.590799813613858"><ele>636.0</ele><time>2026-03-30T08:54:52Z</time></trkpt><trkpt lat="40.175301134099776" lon="8.590963907564337"><ele>636.0</ele><time>2026-03-30T08:54:53Z</time></trkpt><trkpt lat="40.17530325765048" lon="8.591133770220875"><ele>636.0</ele><time>2026-03-30T08:54:54Z</time></trkpt><trkpt lat="40.175313310349544" lon="8.59130814448817"><ele>636.0</ele><time>2026-03-30T08:54:55Z</time></trkpt><trkpt lat="40.175334865273655" lon="8.591492668148797"><ele>636.0</ele><time>2026-03-30T08:54:56Z</time></trkpt><trkpt lat="40.1753361418266" lon="8.59168837691589"><ele>636.0</ele><time>2026-03-30T08:54:57Z</time></trkpt><trkpt lat="40.17535526912794" lon="8.59189149755295"><ele>636.0</ele><time>2026-03-30T08:54:58Z</time></trkpt><trkpt lat="40.175372625493495" lon="8.592100050192371"><ele>636.0</ele><time>2026-03-30T08:54:59Z</time></trkpt><trkpt lat="40.175391317538526" lon="8.59231451908132"><ele>635.6666666666666</ele><time>2026-03-30T08:55:00Z</time></trkpt><trkpt lat="40.1754246011083" lon="8.592508883945065"><ele>635.3333333333333</ele><time>2026-03-30T08:55:01Z</time></trkpt><trkpt lat="40.17545611745383" lon="8.592708570028934"><ele>635.0</ele><time>2026-03-30T08:55:02Z</time></trkpt><trkpt lat="40.17546881453511" lon="8.592922271367739"><ele>637.0</ele><time>2026-03-30T08:55:03Z</time></trkpt><trkpt lat="40.175454018059476" lon="8.593143146061452"><ele>639.0</ele><time>2026-03-30T08:55:04Z</time></trkpt><trkpt lat="40.17542700079005" lon="8.593368795269337"><ele>641.0</ele><time>2026-03-30T08:55:05Z</time></trkpt><trkpt lat="40.17539814637397" lon="8.593595731531954"><ele>643.6666666666666</ele><time>2026-03-30T08:55:06Z</time></trkpt><trkpt lat="40.17537421552829" lon="8.593817687529453"><ele>646.3333333333334</ele><time>2026-03-30T08:55:07Z</time></trkpt><trkpt lat="40.17534978300032" lon="8.594043681969529"><ele>649.0</ele><time>2026-03-30T08:55:08Z</time></trkpt><trkpt lat="40.17532500405957" lon="8.594266803001842"><ele>649.0</ele><time>2026-03-30T08:55:09Z</time></trkpt><trkpt lat="40.175295838175636" lon="8.594490011844618"><ele>649.0</ele><time>2026-03-30T08:55:10Z</time></trkpt><trkpt lat="40.175274365306336" lon="8.594710503887756"><ele>649.0</ele><time>2026-03-30T08:55:11Z</time></trkpt><trkpt lat="40.175260664550386" lon="8.594926522665022"><ele>650.75</ele><time>2026-03-30T08:55:12Z</time></trkpt><trkpt lat="40.17526914018542" lon="8.595121107655375"><ele>652.5</ele><time>2026-03-30T08:55:13Z</time></trkpt><trkpt lat="40.175289056236714" lon="8.595296580802952"><ele>654.25</ele><time>2026-03-30T08:55:14Z</time></trkpt><trkpt lat="40.175303618639305" lon="8.595436846489042"><ele>656.0</ele><time>2026-03-30T08:55:15Z</time></trkpt><trkpt lat="40.175347439266105" lon="8.595530888145031"><ele>656.0</ele><time>2026-03-30T08:55:16Z</time></trkpt><trkpt lat="40.17540422293678" lon="8.595569584918616"><ele>656.0</ele><time>2026-03-30T08:55:17Z</time></trkpt><trkpt lat="40.17547124469418" lon="8.595546254504198"><ele>656.0</ele><time>2026-03-30T08:55:18Z</time></trkpt><trkpt lat="40.175513528620975" lon="8.595482812109308"><ele>656.0</ele><time>2026-03-30T08:55:19Z</time></trkpt><trkpt lat="40.17552243636717" lon="8.595356644259002"><ele>656.0</ele><time>2026-03-30T08:55:20Z</time></trkpt><trkpt lat="40.17550823775214" lon="8.595223612690999"><ele>656.0</ele><time>2026-03-30T08:55:21Z</time></trkpt><trkpt lat="40.17550362200332" lon="8.595086805572103"><ele>656.0</ele><time>2026-03-30T08:55:22Z</time></trkpt><trkpt lat="40.17554011698883" lon="8.594930019230851"><ele>656.0</ele><time>2026-03-30T08:55:23Z</time></trkpt><trkpt lat="40.1755958077219" lon="8.594773617437179"><ele>656.0</ele><time>2026-03-30T08:55:24Z</time></trkpt><trkpt lat="40.1756857487117" lon="8.594622176080474"><ele>656.0</ele><time>2026-03-30T08:55:25Z</time></trkpt><trkpt lat="40.17577977351098" lon="8.594476996673485"><ele>659.6666666666666</ele><time>2026-03-30T08:55:26Z</time></trkpt><trkpt lat="40.175875327924146" lon="8.594326503326089"><ele>663.3333333333334</ele><time>2026-03-30T08:55:27Z</time></trkpt><trkpt lat="40.17597408398725" lon="8.59416510603517"><ele>667.0</ele><time>2026-03-30T08:55:28Z</time></trkpt><trkpt lat="40.176075595799574" lon="8.59399179786309"><ele>667.0</ele><time>2026-03-30T08:55:29Z</time></trkpt><trkpt lat="40.17618007183905" lon="8.5938226764492"><ele>667.0</ele><time>2026-03-30T08:55:30Z</time></trkpt><trkpt lat="40.17628311327044" lon="8.593659011558946"><ele>667.0</ele><time>2026-03-30T08:55:31Z</time></trkpt><trkpt lat="40.1763770885711" lon="8.593483034688377"><ele>665.0</ele><time>2026-03-30T08:55:32Z</time></trkpt><trkpt lat="40.17644546789517" lon="8.593289647591758"><ele>663.0</ele><time>2026-03-30T08:55:33Z</time></trkpt><trkpt lat="40.17648867319738" lon="8.593086094717588"><ele>661.0</ele><time>2026-03-30T08:55:34Z</time></trkpt><trkpt lat="40.176496609697836" lon="8.59288034057757"><ele>660.5</ele><time>2026-03-30T08:55:35Z</time></trkpt><trkpt lat="40.17648521946105" lon="8.592694073227522"><ele>660.0</ele><time>2026-03-30T08:55:36Z</time></trkpt><trkpt lat="40.17646205034729" lon="8.592526374124953"><ele>659.5</ele><time>2026-03-30T08:55:37Z</time></trkpt><trkpt lat="40.17651835159035" lon="8.59238622897178"><ele>659.0</ele><time>2026-03-30T08:55:38Z</time></trkpt><trkpt lat="40.1765966881652" lon="8.592252037982039"><ele>662.75</ele><time>2026-03-30T08:55:39Z</time></trkpt><trkpt lat="40.176690303150785" lon="8.592127115630795"><ele>666.5</ele><time>2026-03-30T08:55:40Z</time></trkpt><trkpt lat="40.176785944644614" lon="8.591987967359913"><ele>670.25</ele><time>2026-03-30T08:55:41Z</time></trkpt><trkpt lat="40.1768457110756" lon="8.59184268208333"><ele>674.0</ele><time>2026-03-30T08:55:42Z</time></trkpt><trkpt lat="40.17689648017105" lon="8.591714520860116"><ele>674.0</ele><time>2026-03-30T08:55:43Z</time></trkpt><trkpt lat="40.17695042137578" lon="8.591606353757419"><ele>674.0</ele><time>2026-03-30T08:55:44Z</time></trkpt><trkpt lat="40.17703394960244" lon="8.59155479946969"><ele>674.0</ele><time>2026-03-30T08:55:45Z</time></trkpt><trkpt lat="40.17712436401753" lon="8.591576853967572"><ele>674.0</ele><time>2026-03-30T08:55:46Z</time></trkpt><trkpt lat="40.17712701545224" lon="8.591690489536509"><ele>674.0</ele><time>2026-03-30T08:55:48Z</time></trkpt><trkpt lat="40.17708398911194" lon="8.591792147494772"><ele>674.0</ele><time>2026-03-30T08:55:49Z</time></trkpt><trkpt lat="40.17701998961531" lon="8.591903239230607"><ele>674.0</ele><time>2026-03-30T08:55:50Z</time></trkpt><trkpt lat="40.17695231695198" lon="8.59202587128482"><ele>674.0</ele><time>2026-03-30T08:55:51Z</time></trkpt><trkpt lat="40.176878957546876" lon="8.592155399121364"><ele>674.0</ele><time>2026-03-30T08:55:52Z</time></trkpt><trkpt lat="40.17680989975709" lon="8.592303115096497"><ele>676.0</ele><time>2026-03-30T08:55:53Z</time></trkpt><trkpt lat="40.17677892962866" lon="8.592485109346775"><ele>678.0</ele><time>2026-03-30T08:55:54Z</time></trkpt><trkpt lat="40.176783805512535" lon="8.592673136792099"><ele>680.0</ele><time>2026-03-30T08:55:55Z</time></trkpt><trkpt lat="40.17679823175011" lon="8.592874794851257"><ele>682.0</ele><time>2026-03-30T08:55:56Z</time></trkpt><trkpt lat="40.176825267786704" lon="8.593094337706301"><ele>683.0</ele><time>2026-03-30T08:55:57Z</time></trkpt><trkpt lat="40.176860354826296" lon="8.593301286582593"><ele>684.0</ele><time>2026-03-30T08:55:58Z</time></trkpt><trkpt lat="40.176904652450666" lon="8.593508740202347"><ele>685.0</ele><time>2026-03-30T08:55:59Z</time></trkpt><trkpt lat="40.17694892957932" lon="8.593717506418459"><ele>686.6666666666667</ele><time>2026-03-30T08:56:00Z</time></trkpt><trkpt lat="40.177000978145934" lon="8.59395154193857"><ele>688.3333333333334</ele><time>2026-03-30T08:56:01Z</time></trkpt><trkpt lat="40.17700338307926" lon="8.594167016188443"><ele>690.0</ele><time>2026-03-30T08:56:02Z</time></trkpt><trkpt lat="40.17700829731641" lon="8.594385676458135"><ele>692.3333333333334</ele><time>2026-03-30T08:56:03Z</time></trkpt><trkpt lat="40.17698069352444" lon="8.594604121499248"><ele>694.6666666666667</ele><time>2026-03-30T08:56:04Z</time></trkpt><trkpt lat="40.17694933384384" lon="8.594819168555563"><ele>697.0</ele><time>2026-03-30T08:56:05Z</time></trkpt><trkpt lat="40.176906990693624" lon="8.595027930294158"><ele>697.0</ele><time>2026-03-30T08:56:06Z</time></trkpt><trkpt lat="40.176870872108644" lon="8.595240726802846"><ele>697.0</ele><time>2026-03-30T08:56:07Z</time></trkpt><trkpt lat="40.17682583862823" lon="8.595449431902269"><ele>697.0</ele><time>2026-03-30T08:56:08Z</time></trkpt><trkpt lat="40.17676498626638" lon="8.595650209434147"><ele>698.3333333333334</ele><time>2026-03-30T08:56:09Z</time></trkpt><trkpt lat="40.17669371507132" lon="8.595844619616598"><ele>699.6666666666666</ele><time>2026-03-30T08:56:10Z</time></trkpt><trkpt lat="40.17664482238161" lon="8.596047569407913"><ele>701.0</ele><time>2026-03-30T08:56:11Z</time></trkpt><trkpt lat="40.176629318065665" lon="8.596270167069868"><ele>704.0</ele><time>2026-03-30T08:56:12Z</time></trkpt><trkpt lat="40.176615885092964" lon="8.596491700048826"><ele>707.0</ele><time>2026-03-30T08:56:13Z</time></trkpt><trkpt lat="40.17660925277175" lon="8.5967065337659"><ele>710.0</ele><time>2026-03-30T08:56:14Z</time></trkpt><trkpt lat="40.17662456271223" lon="8.596918610613681"><ele>711.0</ele><time>2026-03-30T08:56:15Z</time></trkpt><trkpt lat="40.176679678313924" lon="8.59711599017653"><ele>712.0</ele><time>2026-03-30T08:56:16Z</time></trkpt><trkpt lat="40.17672725277693" lon="8.597292716136671"><ele>713.0</ele><time>2026-03-30T08:56:17Z</time></trkpt><trkpt lat="40.17674251963444" lon="8.597476158262243"><ele>714.0</ele><time>2026-03-30T08:56:18Z</time></trkpt><trkpt lat="40.176712171824285" lon="8.597656805375877"><ele>714.0</ele><time>2026-03-30T08:56:19Z</time></trkpt><trkpt lat="40.17664781666425" lon="8.597798452069297"><ele>714.0</ele><time>2026-03-30T08:56:20Z</time></trkpt><trkpt lat="40.1765775888855" lon="8.597927751583539"><ele>714.0</ele><time>2026-03-30T08:56:21Z</time></trkpt><trkpt lat="40.1765370371871" lon="8.598073886730292"><ele>714.0</ele><time>2026-03-30T08:56:22Z</time></trkpt><trkpt lat="40.17656643886215" lon="8.598245146975033"><ele>715.3333333333334</ele><time>2026-03-30T08:56:23Z</time></trkpt><trkpt lat="40.1766295803267" lon="8.598418372912944"><ele>716.6666666666667</ele><time>2026-03-30T08:56:24Z</time></trkpt><trkpt lat="40.17667164289969" lon="8.598610796226744"><ele>718.0</ele><time>2026-03-30T08:56:25Z</time></trkpt><trkpt lat="40.17672197057228" lon="8.598804614406351"><ele>719.0</ele><time>2026-03-30T08:56:26Z</time></trkpt><trkpt lat="40.17676184182377" lon="8.598996896876182"><ele>720.0</ele><time>2026-03-30T08:56:27Z</time></trkpt><trkpt lat="40.17677523326091" lon="8.5991889632619"><ele>721.0</ele><time>2026-03-30T08:56:28Z</time></trkpt><trkpt lat="40.17677231760713" lon="8.599395633396865"><ele>724.0</ele><time>2026-03-30T08:56:29Z</time></trkpt><trkpt lat="40.17676506260338" lon="8.5996075613114"><ele>727.0</ele><time>2026-03-30T08:56:30Z</time></trkpt><trkpt lat="40.1767338404071" lon="8.599815748386474"><ele>730.0</ele><time>2026-03-30T08:56:31Z</time></trkpt><trkpt lat="40.176691905784345" lon="8.600013251746331"><ele>730.0</ele><time>2026-03-30T08:56:32Z</time></trkpt><trkpt lat="40.17662268403183" lon="8.600195612512833"><ele>730.0</ele><time>2026-03-30T08:56:33Z</time></trkpt><trkpt lat="40.1765549880048" lon="8.600384197855792"><ele>730.0</ele><time>2026-03-30T08:56:34Z</time></trkpt><trkpt lat="40.176499650974364" lon="8.60057005318655"><ele>733.3333333333334</ele><time>2026-03-30T08:56:35Z</time></trkpt><trkpt lat="40.1764672692067" lon="8.600758745183963"><ele>736.6666666666666</ele><time>2026-03-30T08:56:36Z</time></trkpt><trkpt lat="40.1764723284199" lon="8.600959792339912"><ele>740.0</ele><time>2026-03-30T08:56:37Z</time></trkpt><trkpt lat="40.17652533192739" lon="8.601153590965303"><ele>741.0</ele><time>2026-03-30T08:56:38Z</time></trkpt><trkpt lat="40.17657052188879" lon="8.601321280448726"><ele>742.0</ele><time>2026-03-30T08:56:39Z</time></trkpt><trkpt lat="40.17659437373985" lon="8.601481622788128"><ele>743.0</ele><time>2026-03-30T08:56:40Z</time></trkpt><trkpt lat="40.17657250697379" lon="8.601652298443971"><ele>744.0</ele><time>2026-03-30T08:56:41Z</time></trkpt><trkpt lat="40.176512791804896" lon="8.601825451180028"><ele>743.25</ele><time>2026-03-30T08:56:42Z</time></trkpt><trkpt lat="40.17645403578838" lon="8.601988205945926"><ele>742.5</ele><time>2026-03-30T08:56:43Z</time></trkpt><trkpt lat="40.176396064656124" lon="8.60216601254696"><ele>741.75</ele><time>2026-03-30T08:56:44Z</time></trkpt><trkpt lat="40.176339164400915" lon="8.602351582217448"><ele>741.0</ele><time>2026-03-30T08:56:45Z</time></trkpt><trkpt lat="40.17627771181793" lon="8.602514174223378"><ele>741.0</ele><time>2026-03-30T08:56:46Z</time></trkpt><trkpt lat="40.17619453348794" lon="8.602643913879913"><ele>741.0</ele><time>2026-03-30T08:56:47Z</time></trkpt><trkpt lat="40.17608183051916" lon="8.602738436308403"><ele>741.0</ele><time>2026-03-30T08:56:48Z</time></trkpt><trkpt lat="40.175967602708106" lon="8.602787441747118"><ele>741.0</ele><time>2026-03-30T08:56:49Z</time></trkpt><trkpt lat="40.175862797261914" lon="8.602791005695067"><ele>741.0</ele><time>2026-03-30T08:56:50Z</time></trkpt><trkpt lat="40.17575298322758" lon="8.602746183107245"><ele>741.0</ele><time>2026-03-30T08:56:51Z</time></trkpt><trkpt lat="40.17564016909754" lon="8.602650438221245"><ele>741.0</ele><time>2026-03-30T08:56:52Z</time></trkpt><trkpt lat="40.175515549174165" lon="8.602545674863796"><ele>741.0</ele><time>2026-03-30T08:56:53Z</time></trkpt><trkpt lat="40.17535785886076" lon="8.602482810996149"><ele>741.3333333333334</ele><time>2026-03-30T08:56:54Z</time></trkpt><trkpt lat="40.17519223649787" lon="8.602471799939702"><ele>741.6666666666667</ele><time>2026-03-30T08:56:55Z</time></trkpt><trkpt lat="40.17500315336944" lon="8.602499010217688"><ele>742.0</ele><time>2026-03-30T08:56:56Z</time></trkpt><trkpt lat="40.17480051342014" lon="8.602545223009228"><ele>742.0</ele><time>2026-03-30T08:56:57Z</time></trkpt><trkpt lat="40.174591108778856" lon="8.602607448146474"><ele>742.0</ele><time>2026-03-30T08:56:58Z</time></trkpt><trkpt lat="40.174409691708895" lon="8.602685979948854"><ele>742.0</ele><time>2026-03-30T08:56:59Z</time></trkpt><trkpt lat="40.17426161440811" lon="8.602770598677873"><ele>744.0</ele><time>2026-03-30T08:57:00Z</time></trkpt><trkpt lat="40.17415407951047" lon="8.602874287679654"><ele>746.0</ele><time>2026-03-30T08:57:01Z</time></trkpt><trkpt lat="40.174106364291106" lon="8.602999249531242"><ele>748.0</ele><time>2026-03-30T08:57:02Z</time></trkpt><trkpt lat="40.17410812934737" lon="8.603152956884879"><ele>750.0</ele><time>2026-03-30T08:57:03Z</time></trkpt><trkpt lat="40.17413411355629" lon="8.603339230963345"><ele>750.0</ele><time>2026-03-30T08:57:04Z</time></trkpt><trkpt lat="40.174180444386444" lon="8.603431879059674"><ele>750.0</ele><time>2026-03-30T08:57:05Z</time></trkpt><trkpt lat="40.174240188717135" lon="8.603273113108438"><ele>750.0</ele><time>2026-03-30T08:57:06Z</time></trkpt><trkpt lat="40.17423578522147" lon="8.603450046234832"><ele>750.0</ele><time>2026-03-30T08:57:07Z</time></trkpt><trkpt lat="40.17425459579636" lon="8.603652071458747"><ele>751.6666666666666</ele><time>2026-03-30T08:57:08Z</time></trkpt><trkpt lat="40.17431543175405" lon="8.60385754354727"><ele>753.3333333333333</ele><time>2026-03-30T08:57:09Z</time></trkpt><trkpt lat="40.17438495046845" lon="8.604066287457394"><ele>755.0</ele><time>2026-03-30T08:57:10Z</time></trkpt><trkpt lat="40.174438722217566" lon="8.604269296626269"><ele>755.0</ele><time>2026-03-30T08:57:11Z</time></trkpt><trkpt lat="40.17446518834647" lon="8.604459255776996"><ele>755.0</ele><time>2026-03-30T08:57:12Z</time></trkpt><trkpt lat="40.17445253927775" lon="8.604616071491467"><ele>755.0</ele><time>2026-03-30T08:57:13Z</time></trkpt><trkpt lat="40.17441881545255" lon="8.604745331115359"><ele>755.0</ele><time>2026-03-30T08:57:14Z</time></trkpt><trkpt lat="40.17433613948261" lon="8.60486090265646"><ele>753.25</ele><time>2026-03-30T08:57:15Z</time></trkpt><trkpt lat="40.174229368843946" lon="8.604966404402353"><ele>751.5</ele><time>2026-03-30T08:57:16Z</time></trkpt><trkpt lat="40.174109193788325" lon="8.605097232270117"><ele>749.75</ele><time>2026-03-30T08:57:17Z</time></trkpt><trkpt lat="40.17400652982218" lon="8.605252583587498"><ele>748.0</ele><time>2026-03-30T08:57:18Z</time></trkpt><trkpt lat="40.17390439378064" lon="8.605412931189392"><ele>752.6666666666667</ele><time>2026-03-30T08:57:19Z</time></trkpt><trkpt lat="40.17379563233311" lon="8.605571716399822"><ele>757.3333333333334</ele><time>2026-03-30T08:57:20Z</time></trkpt><trkpt lat="40.17367705353033" lon="8.605722642474335"><ele>762.0</ele><time>2026-03-30T08:57:21Z</time></trkpt><trkpt lat="40.173575185295064" lon="8.605884861506558"><ele>762.0</ele><time>2026-03-30T08:57:22Z</time></trkpt><trkpt lat="40.173504764638075" lon="8.606070693666943"><ele>762.0</ele><time>2026-03-30T08:57:23Z</time></trkpt><trkpt lat="40.173462218285415" lon="8.606257467594215"><ele>762.0</ele><time>2026-03-30T08:57:24Z</time></trkpt><trkpt lat="40.17335220164849" lon="8.60642789495528"><ele>764.0</ele><time>2026-03-30T08:57:25Z</time></trkpt><trkpt lat="40.17321363310683" lon="8.60653273785047"><ele>766.0</ele><time>2026-03-30T08:57:26Z</time></trkpt><trkpt lat="40.17306192160264" lon="8.606636460415142"><ele>768.0</ele><time>2026-03-30T08:57:27Z</time></trkpt><trkpt lat="40.17291983122807" lon="8.60677387711879"><ele>768.0</ele><time>2026-03-30T08:57:28Z</time></trkpt><trkpt lat="40.17275872801653" lon="8.606885304021935"><ele>768.0</ele><time>2026-03-30T08:57:29Z</time></trkpt><trkpt lat="40.17263495462408" lon="8.607031743124837"><ele>768.0</ele><time>2026-03-30T08:57:30Z</time></trkpt><trkpt lat="40.172491931227434" lon="8.60714306956916"><ele>775.6666666666667</ele><time>2026-03-30T08:57:31Z</time></trkpt><trkpt lat="40.17234224156917" lon="8.607238225397165"><ele>783.3333333333334</ele><time>2026-03-30T08:57:32Z</time></trkpt><trkpt lat="40.172205028336975" lon="8.607329439644497"><ele>791.0</ele><time>2026-03-30T08:57:33Z</time></trkpt><trkpt lat="40.17207998654502" lon="8.607414939200677"><ele>791.0</ele><time>2026-03-30T08:57:34Z</time></trkpt><trkpt lat="40.17195899836301" lon="8.60745964052907"><ele>791.0</ele><time>2026-03-30T08:57:35Z</time></trkpt><trkpt lat="40.17185070353872" lon="8.607465193204343"><ele>791.0</ele><time>2026-03-30T08:57:36Z</time></trkpt><trkpt lat="40.17177876314957" lon="8.60743076654672"><ele>791.0</ele><time>2026-03-30T08:57:37Z</time></trkpt><trkpt lat="40.17171406067207" lon="8.607361099979869"><ele>791.0</ele><time>2026-03-30T08:57:38Z</time></trkpt><trkpt lat="40.17166811097454" lon="8.607302784930049"><ele>791.0</ele><time>2026-03-30T08:57:39Z</time></trkpt><trkpt lat="40.171607768590746" lon="8.607232444922147"><ele>791.0</ele><time>2026-03-30T08:57:40Z</time></trkpt><trkpt lat="40.17154162539543" lon="8.60713723504436"><ele>791.0</ele><time>2026-03-30T08:57:41Z</time></trkpt><trkpt lat="40.17146418860948" lon="8.60703680220553"><ele>791.0</ele><time>2026-03-30T08:57:42Z</time></trkpt><trkpt lat="40.17137246700855" lon="8.606955746803353"><ele>791.0</ele><time>2026-03-30T08:57:43Z</time></trkpt><trkpt lat="40.17127133119765" lon="8.606874415495298"><ele>792.25</ele><time>2026-03-30T08:57:44Z</time></trkpt><trkpt lat="40.17116879757517" lon="8.606784070061318"><ele>793.5</ele><time>2026-03-30T08:57:45Z</time></trkpt><trkpt lat="40.171068218089594" lon="8.606697949550714"><ele>794.75</ele><time>2026-03-30T08:57:46Z</time></trkpt><trkpt lat="40.17097117737622" lon="8.606601418555305"><ele>796.0</ele><time>2026-03-30T08:57:47Z</time></trkpt><trkpt lat="40.170902495357204" lon="8.606461614026411"><ele>796.0</ele><time>2026-03-30T08:57:48Z</time></trkpt><trkpt lat="40.17085552883425" lon="8.60629974503531"><ele>796.0</ele><time>2026-03-30T08:57:49Z</time></trkpt><trkpt lat="40.17076192617862" lon="8.606151859295505"><ele>796.0</ele><time>2026-03-30T08:57:50Z</time></trkpt><trkpt lat="40.170651334724255" lon="8.60601247552286"><ele>796.0</ele><time>2026-03-30T08:57:51Z</time></trkpt><trkpt lat="40.170537093968264" lon="8.605849669167984"><ele>796.5</ele><time>2026-03-30T08:57:52Z</time></trkpt><trkpt lat="40.170432531531425" lon="8.605728492505165"><ele>797.0</ele><time>2026-03-30T08:57:53Z</time></trkpt><trkpt lat="40.1703484137678" lon="8.605578793825163"><ele>797.5</ele><time>2026-03-30T08:57:54Z</time></trkpt><trkpt lat="40.17027158207043" lon="8.605445938706172"><ele>798.0</ele><time>2026-03-30T08:57:55Z</time></trkpt><trkpt lat="40.17020363285836" lon="8.605306595645857"><ele>798.0</ele><time>2026-03-30T08:57:56Z</time></trkpt><trkpt lat="40.17016563201709" lon="8.605176388112511"><ele>798.0</ele><time>2026-03-30T08:57:57Z</time></trkpt><trkpt lat="40.17012886541318" lon="8.605092489312996"><ele>798.0</ele><time>2026-03-30T08:57:58Z</time></trkpt><trkpt lat="40.1700674072379" lon="8.60507063713168"><ele>798.0</ele><time>2026-03-30T08:57:59Z</time></trkpt><trkpt lat="40.16999129954617" lon="8.605129896623739"><ele>798.0</ele><time>2026-03-30T08:58:00Z</time></trkpt><trkpt lat="40.16996486896969" lon="8.605228098713756"><ele>798.0</ele><time>2026-03-30T08:58:01Z</time></trkpt><trkpt lat="40.169996396708456" lon="8.60535178941538"><ele>800.25</ele><time>2026-03-30T08:58:02Z</time></trkpt><trkpt lat="40.17004615337227" lon="8.605465440840145"><ele>802.5</ele><time>2026-03-30T08:58:03Z</time></trkpt><trkpt lat="40.1701210487577" lon="8.605564222656701"><ele>804.75</ele><time>2026-03-30T08:58:04Z</time></trkpt><trkpt lat="40.170189310181804" lon="8.605690375009345"><ele>807.0</ele><time>2026-03-30T08:58:05Z</time></trkpt><trkpt lat="40.17025555400719" lon="8.60584060137624"><ele>807.0</ele><time>2026-03-30T08:58:06Z</time></trkpt><trkpt lat="40.17030612303221" lon="8.606001477522545"><ele>807.0</ele><time>2026-03-30T08:58:07Z</time></trkpt><trkpt lat="40.170369089129956" lon="8.606160386726021"><ele>807.0</ele><time>2026-03-30T08:58:08Z</time></trkpt><trkpt lat="40.17044282336242" lon="8.606335795065373"><ele>807.0</ele><time>2026-03-30T08:58:09Z</time></trkpt><trkpt lat="40.17050174650222" lon="8.606504658615497"><ele>807.0</ele><time>2026-03-30T08:58:10Z</time></trkpt><trkpt lat="40.17056166469031" lon="8.606681637217743"><ele>807.0</ele><time>2026-03-30T08:58:11Z</time></trkpt><trkpt lat="40.1705924417846" lon="8.606870858748561"><ele>807.0</ele><time>2026-03-30T08:58:12Z</time></trkpt><trkpt lat="40.170633962889234" lon="8.607032225099283"><ele>807.0</ele><time>2026-03-30T08:58:13Z</time></trkpt><trkpt lat="40.17071356186909" lon="8.607166710233134"><ele>807.0</ele><time>2026-03-30T08:58:14Z</time></trkpt><trkpt lat="40.170813619350305" lon="8.607266710416898"><ele>807.0</ele><time>2026-03-30T08:58:15Z</time></trkpt><trkpt lat="40.17092044849224" lon="8.60735287599948"><ele>807.0</ele><time>2026-03-30T08:58:16Z</time></trkpt><trkpt lat="40.170994505593015" lon="8.60742280649031"><ele>807.0</ele><time>2026-03-30T08:58:17Z</time></trkpt><trkpt lat="40.17103490612665" lon="8.607501638560851"><ele>807.0</ele><time>2026-03-30T08:58:18Z</time></trkpt><trkpt lat="40.17102170562432" lon="8.607601529468893"><ele>807.0</ele><time>2026-03-30T08:58:19Z</time></trkpt><trkpt lat="40.170964185941045" lon="8.60768702250916"><ele>807.0</ele><time>2026-03-30T08:58:20Z</time></trkpt><trkpt lat="40.17088213281028" lon="8.607725335080612"><ele>807.0</ele><time>2026-03-30T08:58:21Z</time></trkpt><trkpt lat="40.17079724524145" lon="8.607698827912655"><ele>807.0</ele><time>2026-03-30T08:58:22Z</time></trkpt><trkpt lat="40.17072461739337" lon="8.607607704282847"><ele>807.0</ele><time>2026-03-30T08:58:23Z</time></trkpt><trkpt lat="40.17066040977125" lon="8.607485048446305"><ele>809.25</ele><time>2026-03-30T08:58:24Z</time></trkpt><trkpt lat="40.17060419258727" lon="8.607348744598417"><ele>811.5</ele><time>2026-03-30T08:58:25Z</time></trkpt><trkpt lat="40.17052782493822" lon="8.607228978285267"><ele>813.75</ele><time>2026-03-30T08:58:26Z</time></trkpt><trkpt lat="40.17044076929123" lon="8.607099875384916"><ele>816.0</ele><time>2026-03-30T08:58:27Z</time></trkpt><trkpt lat="40.17035138914336" lon="8.606959743309767"><ele>816.0</ele><time>2026-03-30T08:58:28Z</time></trkpt><trkpt lat="40.17025780244818" lon="8.606811154402738"><ele>816.0</ele><time>2026-03-30T08:58:29Z</time></trkpt><trkpt lat="40.17014995150444" lon="8.606674283173676"><ele>816.0</ele><time>2026-03-30T08:58:30Z</time></trkpt><trkpt lat="40.170044018664974" lon="8.60653144747896"><ele>816.0</ele><time>2026-03-30T08:58:31Z</time></trkpt><trkpt lat="40.16992765510013" lon="8.606406434659977"><ele>817.0</ele><time>2026-03-30T08:58:32Z</time></trkpt><trkpt lat="40.169801543316474" lon="8.606296860091284"><ele>818.0</ele><time>2026-03-30T08:58:33Z</time></trkpt><trkpt lat="40.16967639693733" lon="8.606229069183245"><ele>819.0</ele><time>2026-03-30T08:58:34Z</time></trkpt><trkpt lat="40.16954379046396" lon="8.606212989831464"><ele>820.0</ele><time>2026-03-30T08:58:35Z</time></trkpt><trkpt lat="40.1694240313156" lon="8.60627630511802"><ele>820.0</ele><time>2026-03-30T08:58:36Z</time></trkpt><trkpt lat="40.16930515881234" lon="8.606388643737585"><ele>820.0</ele><time>2026-03-30T08:58:37Z</time></trkpt><trkpt lat="40.16919483677614" lon="8.606508625472467"><ele>820.0</ele><time>2026-03-30T08:58:38Z</time></trkpt><trkpt lat="40.16908259842404" lon="8.60663424723676"><ele>820.0</ele><time>2026-03-30T08:58:39Z</time></trkpt><trkpt lat="40.16895121496209" lon="8.606754926574547"><ele>822.0</ele><time>2026-03-30T08:58:40Z</time></trkpt><trkpt lat="40.16880458203138" lon="8.606855390328112"><ele>824.0</ele><time>2026-03-30T08:58:41Z</time></trkpt><trkpt lat="40.16864533630615" lon="8.606958170827296"><ele>826.0</ele><time>2026-03-30T08:58:42Z</time></trkpt><trkpt lat="40.168487309531336" lon="8.607064083461108"><ele>826.0</ele><time>2026-03-30T08:58:43Z</time></trkpt><trkpt lat="40.16833652759532" lon="8.607193218620978"><ele>826.0</ele><time>2026-03-30T08:58:44Z</time></trkpt><trkpt lat="40.16819617015203" lon="8.60733471360401"><ele>826.0</ele><time>2026-03-30T08:58:45Z</time></trkpt><trkpt lat="40.16806198152873" lon="8.607491205438887"><ele>822.0</ele><time>2026-03-30T08:58:46Z</time></trkpt><trkpt lat="40.167941645387735" lon="8.607673099397813"><ele>818.0</ele><time>2026-03-30T08:58:47Z</time></trkpt><trkpt lat="40.16784557328149" lon="8.60787463033824"><ele>814.0</ele><time>2026-03-30T08:58:48Z</time></trkpt><trkpt lat="40.16777060180619" lon="8.608080540295035"><ele>814.0</ele><time>2026-03-30T08:58:49Z</time></trkpt><trkpt lat="40.16769845976238" lon="8.608279187168058"><ele>814.0</ele><time>2026-03-30T08:58:50Z</time></trkpt><trkpt lat="40.16764516926217" lon="8.608489163932559"><ele>814.0</ele><time>2026-03-30T08:58:51Z</time></trkpt><trkpt lat="40.16762122334418" lon="8.608709281198312"><ele>818.6666666666666</ele><time>2026-03-30T08:58:52Z</time></trkpt><trkpt lat="40.16762310603638" lon="8.608937276104928"><ele>823.3333333333333</ele><time>2026-03-30T08:58:53Z</time></trkpt><trkpt lat="40.16760854108658" lon="8.609164340992928"><ele>828.0</ele><time>2026-03-30T08:58:54Z</time></trkpt><trkpt lat="40.167582305195474" lon="8.609388791015023"><ele>829.6666666666667</ele><time>2026-03-30T08:58:55Z</time></trkpt><trkpt lat="40.16756277417668" lon="8.609619540788184"><ele>831.3333333333334</ele><time>2026-03-30T08:58:56Z</time></trkpt><trkpt lat="40.16755966951084" lon="8.609850037011846"><ele>833.0</ele><time>2026-03-30T08:58:57Z</time></trkpt><trkpt lat="40.16753967922592" lon="8.610073958290748"><ele>833.0</ele><time>2026-03-30T08:58:58Z</time></trkpt><trkpt lat="40.16750609749316" lon="8.610296172377476"><ele>833.0</ele><time>2026-03-30T08:58:59Z</time></trkpt><trkpt lat="40.16745724656356" lon="8.610510037150876"><ele>833.0</ele><time>2026-03-30T08:59:00Z</time></trkpt><trkpt lat="40.16738348125104" lon="8.610714619659769"><ele>828.6666666666667</ele><time>2026-03-30T08:59:01Z</time></trkpt><trkpt lat="40.16729865269095" lon="8.61091195590608"><ele>824.3333333333333</ele><time>2026-03-30T08:59:02Z</time></trkpt><trkpt lat="40.167219708875024" lon="8.61111560030996"><ele>820.0</ele><time>2026-03-30T08:59:03Z</time></trkpt><trkpt lat="40.16717035135908" lon="8.611333175010401"><ele>820.0</ele><time>2026-03-30T08:59:04Z</time></trkpt><trkpt lat="40.16713554942292" lon="8.611558602888692"><ele>820.0</ele><time>2026-03-30T08:59:05Z</time></trkpt><trkpt lat="40.167108228795676" lon="8.611782647120885"><ele>820.0</ele><time>2026-03-30T08:59:06Z</time></trkpt><trkpt lat="40.16707762870159" lon="8.612005954361262"><ele>825.3333333333333</ele><time>2026-03-30T08:59:07Z</time></trkpt><trkpt lat="40.167037500210434" lon="8.612221483901282"><ele>830.6666666666667</ele><time>2026-03-30T08:59:08Z</time></trkpt><trkpt lat="40.166981985082835" lon="8.612419205918766"><ele>836.0</ele><time>2026-03-30T08:59:09Z</time></trkpt><trkpt lat="40.16690481798561" lon="8.612596067587159"><ele>836.0</ele><time>2026-03-30T08:59:10Z</time></trkpt><trkpt lat="40.16679813014081" lon="8.612756808383027"><ele>836.0</ele><time>2026-03-30T08:59:11Z</time></trkpt><trkpt lat="40.16667492329651" lon="8.612908664944898"><ele>836.0</ele><time>2026-03-30T08:59:12Z</time></trkpt><trkpt lat="40.16655019513107" lon="8.613064985339848"><ele>837.0</ele><time>2026-03-30T08:59:13Z</time></trkpt><trkpt lat="40.166419375602864" lon="8.613221535678143"><ele>838.0</ele><time>2026-03-30T08:59:14Z</time></trkpt><trkpt lat="40.16628777178915" lon="8.613371039966868"><ele>839.0</ele><time>2026-03-30T08:59:15Z</time></trkpt><trkpt lat="40.16615227152333" lon="8.613499809654252"><ele>839.0</ele><time>2026-03-30T08:59:16Z</time></trkpt><trkpt lat="40.16600113186606" lon="8.613585260957995"><ele>839.0</ele><time>2026-03-30T08:59:17Z</time></trkpt><trkpt lat="40.16584565404443" lon="8.613641071016017"><ele>839.0</ele><time>2026-03-30T08:59:18Z</time></trkpt><trkpt lat="40.16568673529742" lon="8.613675153637141"><ele>841.6666666666667</ele><time>2026-03-30T08:59:19Z</time></trkpt><trkpt lat="40.16553411198734" lon="8.613675459428208"><ele>844.3333333333333</ele><time>2026-03-30T08:59:20Z</time></trkpt><trkpt lat="40.16538899677027" lon="8.613628456722301"><ele>847.0</ele><time>2026-03-30T08:59:21Z</time></trkpt><trkpt lat="40.16524571852653" lon="8.613548399303287"><ele>847.0</ele><time>2026-03-30T08:59:22Z</time></trkpt><trkpt lat="40.16509866548605" lon="8.613481566717647"><ele>847.0</ele><time>2026-03-30T08:59:23Z</time></trkpt><trkpt lat="40.16493647101748" lon="8.613436490088581"><ele>847.0</ele><time>2026-03-30T08:59:24Z</time></trkpt><trkpt lat="40.164761108405116" lon="8.613442380399803"><ele>848.3333333333333</ele><time>2026-03-30T08:59:25Z</time></trkpt><trkpt lat="40.16458797414493" lon="8.613456083238264"><ele>849.6666666666667</ele><time>2026-03-30T08:59:26Z</time></trkpt><trkpt lat="40.16441811310579" lon="8.613444559262232"><ele>851.0</ele><time>2026-03-30T08:59:27Z</time></trkpt><trkpt lat="40.16424441801757" lon="8.613429977371807"><ele>851.0</ele><time>2026-03-30T08:59:28Z</time></trkpt><trkpt lat="40.16407782853773" lon="8.613429658739097"><ele>851.0</ele><time>2026-03-30T08:59:29Z</time></trkpt><trkpt lat="40.16392499467765" lon="8.613454958849312"><ele>851.0</ele><time>2026-03-30T08:59:30Z</time></trkpt><trkpt lat="40.16377855432435" lon="8.613503152378431"><ele>847.6666666666667</ele><time>2026-03-30T08:59:31Z</time></trkpt><trkpt lat="40.163649443856286" lon="8.613630711514036"><ele>844.3333333333333</ele><time>2026-03-30T08:59:32Z</time></trkpt><trkpt lat="40.163536942452225" lon="8.613786617252742"><ele>841.0</ele><time>2026-03-30T08:59:33Z</time></trkpt><trkpt lat="40.163432263994096" lon="8.613952355240622"><ele>842.3333333333333</ele><time>2026-03-30T08:59:34Z</time></trkpt><trkpt lat="40.16335594180981" lon="8.614125421565033"><ele>843.6666666666667</ele><time>2026-03-30T08:59:35Z</time></trkpt><trkpt lat="40.16324185213306" lon="8.614257118939745"><ele>845.0</ele><time>2026-03-30T08:59:36Z</time></trkpt><trkpt lat="40.16310367386706" lon="8.61433446811298"><ele>845.0</ele><time>2026-03-30T08:59:37Z</time></trkpt><trkpt lat="40.162945536467895" lon="8.614365550524184"><ele>845.0</ele><time>2026-03-30T08:59:38Z</time></trkpt><trkpt lat="40.162812144557876" lon="8.614382775516175"><ele>845.0</ele><time>2026-03-30T08:59:39Z</time></trkpt><trkpt lat="40.162700732718356" lon="8.61446310707613"><ele>845.0</ele><time>2026-03-30T08:59:40Z</time></trkpt><trkpt lat="40.16260392309568" lon="8.61460234939591"><ele>849.5</ele><time>2026-03-30T08:59:41Z</time></trkpt><trkpt lat="40.1625383978483" lon="8.614755525180483"><ele>854.0</ele><time>2026-03-30T08:59:42Z</time></trkpt><trkpt lat="40.16250703195907" lon="8.614921398798534"><ele>858.5</ele><time>2026-03-30T08:59:43Z</time></trkpt><trkpt lat="40.16251875846432" lon="8.615091012231051"><ele>863.0</ele><time>2026-03-30T08:59:44Z</time></trkpt><trkpt lat="40.162575505943266" lon="8.61525100505733"><ele>866.0</ele><time>2026-03-30T08:59:45Z</time></trkpt><trkpt lat="40.162616046731394" lon="8.615397010079148"><ele>869.0</ele><time>2026-03-30T08:59:46Z</time></trkpt><trkpt lat="40.162597758869666" lon="8.615542997629017"><ele>872.0</ele><time>2026-03-30T08:59:47Z</time></trkpt><trkpt lat="40.16254220727123" lon="8.615692850664178"><ele>875.0</ele><time>2026-03-30T08:59:48Z</time></trkpt><trkpt lat="40.16245505097618" lon="8.615849913647915"><ele>867.25</ele><time>2026-03-30T08:59:49Z</time></trkpt><trkpt lat="40.16236292784841" lon="8.61598058334565"><ele>859.5</ele><time>2026-03-30T08:59:50Z</time></trkpt><trkpt lat="40.16230273144772" lon="8.616129254166909"><ele>851.75</ele><time>2026-03-30T08:59:51Z</time></trkpt><trkpt lat="40.16229150299001" lon="8.616313638595516"><ele>844.0</ele><time>2026-03-30T08:59:52Z</time></trkpt><trkpt lat="40.16231054102487" lon="8.616503310757079"><ele>844.0</ele><time>2026-03-30T08:59:53Z</time></trkpt><trkpt lat="40.16235011891513" lon="8.616689234377844"><ele>844.0</ele><time>2026-03-30T08:59:54Z</time></trkpt><trkpt lat="40.16242601966355" lon="8.616865740598925"><ele>844.0</ele><time>2026-03-30T08:59:55Z</time></trkpt><trkpt lat="40.16250570380384" lon="8.61702438075845"><ele>844.0</ele><time>2026-03-30T08:59:56Z</time></trkpt><trkpt lat="40.16254306630863" lon="8.617188565004042"><ele>851.5</ele><time>2026-03-30T08:59:57Z</time></trkpt><trkpt lat="40.16253916894312" lon="8.61734014648021"><ele>859.0</ele><time>2026-03-30T08:59:58Z</time></trkpt><trkpt lat="40.16249934544977" lon="8.617507005889616"><ele>866.5</ele><time>2026-03-30T08:59:59Z</time></trkpt><trkpt lat="40.16248223180915" lon="8.617697579728073"><ele>874.0</ele><time>2026-03-30T09:00:00Z</time></trkpt><trkpt lat="40.162505081057176" lon="8.617901758354863"><ele>874.0</ele><time>2026-03-30T09:00:01Z</time></trkpt><trkpt lat="40.16254387724554" lon="8.618105008451408"><ele>874.0</ele><time>2026-03-30T09:00:02Z</time></trkpt><trkpt lat="40.16261847163914" lon="8.618342339166578"><ele>874.0</ele><time>2026-03-30T09:00:03Z</time></trkpt><trkpt lat="40.162666455169116" lon="8.61856728285397"><ele>874.3333333333333</ele><time>2026-03-30T09:00:04Z</time></trkpt><trkpt lat="40.16270719791662" lon="8.618790056780451"><ele>874.6666666666667</ele><time>2026-03-30T09:00:05Z</time></trkpt><trkpt lat="40.16274864929332" lon="8.619009419390029"><ele>875.0</ele><time>2026-03-30T09:00:06Z</time></trkpt><trkpt lat="40.16279271371656" lon="8.619228613246138"><ele>875.0</ele><time>2026-03-30T09:00:07Z</time></trkpt><trkpt lat="40.16283219563246" lon="8.6194484795186"><ele>875.0</ele><time>2026-03-30T09:00:08Z</time></trkpt><trkpt lat="40.16286275664966" lon="8.619671535433653"><ele>875.0</ele><time>2026-03-30T09:00:09Z</time></trkpt><trkpt lat="40.16288211065641" lon="8.61989237177072"><ele>877.3333333333334</ele><time>2026-03-30T09:00:10Z</time></trkpt><trkpt lat="40.16290104497225" lon="8.62010889385532"><ele>879.6666666666667</ele><time>2026-03-30T09:00:11Z</time></trkpt><trkpt lat="40.16292191511033" lon="8.620329424379392"><ele>882.0</ele><time>2026-03-30T09:00:12Z</time></trkpt><trkpt lat="40.162947892913564" lon="8.62055319310709"><ele>883.3333333333333</ele><time>2026-03-30T09:00:13Z</time></trkpt><trkpt lat="40.16295281010846" lon="8.620777412842255"><ele>884.6666666666666</ele><time>2026-03-30T09:00:14Z</time></trkpt><trkpt lat="40.16297201915158" lon="8.621004422284596"><ele>886.0</ele><time>2026-03-30T09:00:15Z</time></trkpt><trkpt lat="40.16301939549523" lon="8.621230960256149"><ele>888.3333333333333</ele><time>2026-03-30T09:00:16Z</time></trkpt><trkpt lat="40.16307002411235" lon="8.62143748535424"><ele>890.6666666666667</ele><time>2026-03-30T09:00:17Z</time></trkpt><trkpt lat="40.16311786559936" lon="8.621637807445403"><ele>893.0</ele><time>2026-03-30T09:00:18Z</time></trkpt><trkpt lat="40.16315783751807" lon="8.621834018844508"><ele>894.0</ele><time>2026-03-30T09:00:19Z</time></trkpt><trkpt lat="40.16317856703791" lon="8.622044530031815"><ele>895.0</ele><time>2026-03-30T09:00:20Z</time></trkpt><trkpt lat="40.16318326063382" lon="8.622264967485375"><ele>896.0</ele><time>2026-03-30T09:00:21Z</time></trkpt><trkpt lat="40.1631864942197" lon="8.622491176878462"><ele>896.0</ele><time>2026-03-30T09:00:22Z</time></trkpt><trkpt lat="40.163196662053245" lon="8.622722181325452"><ele>896.0</ele><time>2026-03-30T09:00:23Z</time></trkpt><trkpt lat="40.16324554076409" lon="8.622949096837722"><ele>896.0</ele><time>2026-03-30T09:00:24Z</time></trkpt><trkpt lat="40.163279589702434" lon="8.623163668528207"><ele>892.75</ele><time>2026-03-30T09:00:25Z</time></trkpt><trkpt lat="40.163319242478444" lon="8.62336072398962"><ele>889.5</ele><time>2026-03-30T09:00:26Z</time></trkpt><trkpt lat="40.163375130682155" lon="8.623534385382278"><ele>886.25</ele><time>2026-03-30T09:00:27Z</time></trkpt><trkpt lat="40.16345343910407" lon="8.623683799789115"><ele>883.0</ele><time>2026-03-30T09:00:28Z</time></trkpt><trkpt lat="40.16354829389184" lon="8.623827002521876"><ele>883.0</ele><time>2026-03-30T09:00:29Z</time></trkpt><trkpt lat="40.16366133052175" lon="8.62395554436047"><ele>883.0</ele><time>2026-03-30T09:00:30Z</time></trkpt><trkpt lat="40.16378877470053" lon="8.624078645521186"><ele>883.0</ele><time>2026-03-30T09:00:31Z</time></trkpt><trkpt lat="40.16391991755913" lon="8.624211075600124"><ele>883.6666666666666</ele><time>2026-03-30T09:00:32Z</time></trkpt><trkpt lat="40.16405293550293" lon="8.624352919712004"><ele>884.3333333333333</ele><time>2026-03-30T09:00:33Z</time></trkpt><trkpt lat="40.16418606444653" lon="8.62449584055601"><ele>885.0</ele><time>2026-03-30T09:00:34Z</time></trkpt><trkpt lat="40.16432147035619" lon="8.624637437033325"><ele>885.0</ele><time>2026-03-30T09:00:35Z</time></trkpt><trkpt lat="40.16446160505115" lon="8.624779988026997"><ele>885.0</ele><time>2026-03-30T09:00:36Z</time></trkpt><trkpt lat="40.164601153965776" lon="8.624916515061829"><ele>885.0</ele><time>2026-03-30T09:00:37Z</time></trkpt><trkpt lat="40.16472872033259" lon="8.625049564650551"><ele>885.0</ele><time>2026-03-30T09:00:38Z</time></trkpt><trkpt lat="40.164836874551625" lon="8.625196974401828"><ele>885.0</ele><time>2026-03-30T09:00:39Z</time></trkpt><trkpt lat="40.164910788414474" lon="8.625363366546644"><ele>885.0</ele><time>2026-03-30T09:00:40Z</time></trkpt><trkpt lat="40.164946030759864" lon="8.625547451849622"><ele>885.0</ele><time>2026-03-30T09:00:41Z</time></trkpt><trkpt lat="40.16495555726408" lon="8.625748894504481"><ele>882.6666666666667</ele><time>2026-03-30T09:00:42Z</time></trkpt><trkpt lat="40.16496794230844" lon="8.625958326778223"><ele>880.3333333333334</ele><time>2026-03-30T09:00:43Z</time></trkpt><trkpt lat="40.16498943605506" lon="8.62618261355147"><ele>878.0</ele><time>2026-03-30T09:00:44Z</time></trkpt><trkpt lat="40.16502761333711" lon="8.62641380143882"><ele>877.6666666666667</ele><time>2026-03-30T09:00:45Z</time></trkpt><trkpt lat="40.1650800493134" lon="8.626647540993648"><ele>877.3333333333333</ele><time>2026-03-30T09:00:46Z</time></trkpt><trkpt lat="40.16514860195383" lon="8.626882425600314"><ele>877.0</ele><time>2026-03-30T09:00:47Z</time></trkpt><trkpt lat="40.16523763478605" lon="8.627117712452929"><ele>877.0</ele><time>2026-03-30T09:00:48Z</time></trkpt><trkpt lat="40.16533207521859" lon="8.627352241620676"><ele>877.0</ele><time>2026-03-30T09:00:49Z</time></trkpt><trkpt lat="40.16542829607616" lon="8.627582323283347"><ele>877.0</ele><time>2026-03-30T09:00:50Z</time></trkpt><trkpt lat="40.165514329828994" lon="8.627805798884031"><ele>878.3333333333333</ele><time>2026-03-30T09:00:51Z</time></trkpt><trkpt lat="40.16559818648935" lon="8.628027368450422"><ele>879.6666666666667</ele><time>2026-03-30T09:00:52Z</time></trkpt><trkpt lat="40.165675632210004" lon="8.628241240829334"><ele>881.0</ele><time>2026-03-30T09:00:53Z</time></trkpt><trkpt lat="40.165753785553406" lon="8.62844745719392"><ele>874.6666666666667</ele><time>2026-03-30T09:00:54Z</time></trkpt><trkpt lat="40.16583141789566" lon="8.628654004381016"><ele>868.3333333333333</ele><time>2026-03-30T09:00:55Z</time></trkpt><trkpt lat="40.16590028749034" lon="8.628874537871607"><ele>862.0</ele><time>2026-03-30T09:00:56Z</time></trkpt><trkpt lat="40.16595356530257" lon="8.629104959663534"><ele>862.0</ele><time>2026-03-30T09:00:57Z</time></trkpt><trkpt lat="40.16600144231387" lon="8.629342606206041"><ele>862.0</ele><time>2026-03-30T09:00:58Z</time></trkpt><trkpt lat="40.16606035329149" lon="8.629577113513374"><ele>862.0</ele><time>2026-03-30T09:00:59Z</time></trkpt><trkpt lat="40.166130932801885" lon="8.629809694650225"><ele>862.3333333333333</ele><time>2026-03-30T09:01:00Z</time></trkpt><trkpt lat="40.166208668251365" lon="8.630031097075223"><ele>862.6666666666667</ele><time>2026-03-30T09:01:01Z</time></trkpt><trkpt lat="40.16628241880574" lon="8.630235354131525"><ele>863.0</ele><time>2026-03-30T09:01:02Z</time></trkpt><trkpt lat="40.166342497450195" lon="8.6304180775631"><ele>863.0</ele><time>2026-03-30T09:01:03Z</time></trkpt><trkpt lat="40.166418548330256" lon="8.630581689662323"><ele>863.0</ele><time>2026-03-30T09:01:03.999Z</time></trkpt><trkpt lat="40.166519396686084" lon="8.630712667982007"><ele>863.0</ele><time>2026-03-30T09:01:04.999Z</time></trkpt><trkpt lat="40.166647546903086" lon="8.630805222570073"><ele>863.0</ele><time>2026-03-30T09:01:05.999Z</time></trkpt><trkpt lat="40.166793921342006" lon="8.630857630485961"><ele>859.6666666666667</ele><time>2026-03-30T09:01:06.999Z</time></trkpt><trkpt lat="40.16694672483703" lon="8.630872529101007"><ele>856.3333333333333</ele><time>2026-03-30T09:01:07.999Z</time></trkpt><trkpt lat="40.16710223302962" lon="8.630842481710632"><ele>853.0</ele><time>2026-03-30T09:01:08.999Z</time></trkpt><trkpt lat="40.1672593982033" lon="8.630783322555809"><ele>852.6666666666666</ele><time>2026-03-30T09:01:09.999Z</time></trkpt><trkpt lat="40.16742021826147" lon="8.630722406042823"><ele>852.3333333333333</ele><time>2026-03-30T09:01:10.999Z</time></trkpt><trkpt lat="40.16758375690916" lon="8.630667127755757"><ele>852.0</ele><time>2026-03-30T09:01:11.999Z</time></trkpt><trkpt lat="40.16775139366611" lon="8.630612107624989"><ele>852.0</ele><time>2026-03-30T09:01:12.999Z</time></trkpt><trkpt lat="40.16791894168594" lon="8.630552183822381"><ele>852.0</ele><time>2026-03-30T09:01:13.999Z</time></trkpt><trkpt lat="40.16808291092454" lon="8.630493755790129"><ele>852.0</ele><time>2026-03-30T09:01:14.999Z</time></trkpt><trkpt lat="40.168235316975355" lon="8.630435980976298"><ele>852.5</ele><time>2026-03-30T09:01:15.999Z</time></trkpt><trkpt lat="40.16838185280262" lon="8.630373083087227"><ele>853.0</ele><time>2026-03-30T09:01:16.999Z</time></trkpt><trkpt lat="40.16852216852282" lon="8.630308580355223"><ele>853.5</ele><time>2026-03-30T09:01:17.999Z</time></trkpt><trkpt lat="40.1686526078417" lon="8.630245727184944"><ele>854.0</ele><time>2026-03-30T09:01:18.999Z</time></trkpt><trkpt lat="40.168771525647564" lon="8.630211318571094"><ele>854.0</ele><time>2026-03-30T09:01:19.999Z</time></trkpt><trkpt lat="40.16887486274233" lon="8.630216938782542"><ele>854.0000000000001</ele><time>2026-03-30T09:01:20.999Z</time></trkpt><trkpt lat="40.168962262374066" lon="8.630284469633965"><ele>854.0000000000001</ele><time>2026-03-30T09:01:21.999Z</time></trkpt><trkpt lat="40.16902378353987" lon="8.63039167245529"><ele>854.0</ele><time>2026-03-30T09:01:22.999Z</time></trkpt><trkpt lat="40.169065130987086" lon="8.630526744907376"><ele>854.0</ele><time>2026-03-30T09:01:23.999Z</time></trkpt><trkpt lat="40.16910201647079" lon="8.630680672329236"><ele>853.0</ele><time>2026-03-30T09:01:24.999Z</time></trkpt><trkpt lat="40.169142343231904" lon="8.630853825688801"><ele>852.0</ele><time>2026-03-30T09:01:25.999Z</time></trkpt><trkpt lat="40.169173051118065" lon="8.63104708819228"><ele>851.0</ele><time>2026-03-30T09:01:26.999Z</time></trkpt><trkpt lat="40.169186434912845" lon="8.631253424727262"><ele>850.0</ele><time>2026-03-30T09:01:27.999Z</time></trkpt><trkpt lat="40.169212920759534" lon="8.63146616166211"><ele>850.0</ele><time>2026-03-30T09:01:28.999Z</time></trkpt><trkpt lat="40.169294975792326" lon="8.631665062113562"><ele>850.0</ele><time>2026-03-30T09:01:29.999Z</time></trkpt><trkpt lat="40.16937473572957" lon="8.631886697858068"><ele>850.0</ele><time>2026-03-30T09:01:30.999Z</time></trkpt><trkpt lat="40.16945513403198" lon="8.632106540488639"><ele>851.0</ele><time>2026-03-30T09:01:32Z</time></trkpt><trkpt lat="40.16953337658934" lon="8.632326297078304"><ele>852.0</ele><time>2026-03-30T09:01:33Z</time></trkpt><trkpt lat="40.16960824321893" lon="8.63255671484303"><ele>853.0</ele><time>2026-03-30T09:01:34Z</time></trkpt><trkpt lat="40.16968516225018" lon="8.632793151593928"><ele>855.6666666666666</ele><time>2026-03-30T09:01:35Z</time></trkpt><trkpt lat="40.16976219929183" lon="8.63302738295103"><ele>858.3333333333333</ele><time>2026-03-30T09:01:36Z</time></trkpt><trkpt lat="40.16984189465986" lon="8.633259261834226"><ele>861.0</ele><time>2026-03-30T09:01:37Z</time></trkpt><trkpt lat="40.16992772093998" lon="8.63348551977582"><ele>857.0</ele><time>2026-03-30T09:01:38Z</time></trkpt><trkpt lat="40.17002355991676" lon="8.63370143410304"><ele>853.0</ele><time>2026-03-30T09:01:39Z</time></trkpt><trkpt lat="40.17012762201826" lon="8.63390931885126"><ele>849.0</ele><time>2026-03-30T09:01:40Z</time></trkpt><trkpt lat="40.17023109500829" lon="8.634116032772745"><ele>849.0</ele><time>2026-03-30T09:01:41Z</time></trkpt><trkpt lat="40.1703352087592" lon="8.63432656932169"><ele>849.0</ele><time>2026-03-30T09:01:42Z</time></trkpt><trkpt lat="40.170435517885004" lon="8.63453921426948"><ele>849.0</ele><time>2026-03-30T09:01:43Z</time></trkpt><trkpt lat="40.170528863273574" lon="8.634760232893102"><ele>852.3333333333333</ele><time>2026-03-30T09:01:44Z</time></trkpt><trkpt lat="40.170590343144006" lon="8.634994287090844"><ele>855.6666666666666</ele><time>2026-03-30T09:01:45Z</time></trkpt><trkpt lat="40.17065974260804" lon="8.635222372963222"><ele>859.0</ele><time>2026-03-30T09:01:46Z</time></trkpt><trkpt lat="40.17072427949177" lon="8.635450917552337"><ele>852.0</ele><time>2026-03-30T09:01:47Z</time></trkpt><trkpt lat="40.17079772243521" lon="8.635677333232318"><ele>845.0</ele><time>2026-03-30T09:01:48Z</time></trkpt><trkpt lat="40.17085513959044" lon="8.635905633439751"><ele>838.0</ele><time>2026-03-30T09:01:49Z</time></trkpt><trkpt lat="40.17090851629957" lon="8.63613487022628"><ele>839.0</ele><time>2026-03-30T09:01:50Z</time></trkpt><trkpt lat="40.170944151497274" lon="8.636353657186303"><ele>840.0</ele><time>2026-03-30T09:01:51Z</time></trkpt><trkpt lat="40.17097004432233" lon="8.63657726870114"><ele>841.0</ele><time>2026-03-30T09:01:52Z</time></trkpt><trkpt lat="40.17095990650668" lon="8.63680954875634"><ele>840.6666666666666</ele><time>2026-03-30T09:01:53Z</time></trkpt><trkpt lat="40.170961767767196" lon="8.637049069963115"><ele>840.3333333333333</ele><time>2026-03-30T09:01:54Z</time></trkpt><trkpt lat="40.17098823786456" lon="8.637288142721767"><ele>840.0</ele><time>2026-03-30T09:01:55Z</time></trkpt><trkpt lat="40.17100821080662" lon="8.637523101190702"><ele>840.0</ele><time>2026-03-30T09:01:56Z</time></trkpt><trkpt lat="40.17102575566572" lon="8.637734518904434"><ele>840.0</ele><time>2026-03-30T09:01:57Z</time></trkpt><trkpt lat="40.171020912813994" lon="8.637921498313451"><ele>840.0</ele><time>2026-03-30T09:01:58Z</time></trkpt><trkpt lat="40.170977291390564" lon="8.638098457890989"><ele>840.0</ele><time>2026-03-30T09:01:59Z</time></trkpt><trkpt lat="40.17092711634306" lon="8.638273165272428"><ele>838.6666666666667</ele><time>2026-03-30T09:02:00Z</time></trkpt><trkpt lat="40.17084689268551" lon="8.638439938112056"><ele>837.3333333333334</ele><time>2026-03-30T09:02:01Z</time></trkpt><trkpt lat="40.17075083201207" lon="8.638610100122197"><ele>836.0</ele><time>2026-03-30T09:02:02Z</time></trkpt><trkpt lat="40.17066923831939" lon="8.638816292901584"><ele>838.6666666666667</ele><time>2026-03-30T09:02:03Z</time></trkpt><trkpt lat="40.17065518854299" lon="8.639075356472585"><ele>841.3333333333333</ele><time>2026-03-30T09:02:04Z</time></trkpt><trkpt lat="40.17064266698726" lon="8.639313265833708"><ele>844.0</ele><time>2026-03-30T09:02:05Z</time></trkpt><trkpt lat="40.1706274492168" lon="8.639555281732054"><ele>844.0</ele><time>2026-03-30T09:02:06Z</time></trkpt><trkpt lat="40.170613639085225" lon="8.639794451892898"><ele>844.0</ele><time>2026-03-30T09:02:07Z</time></trkpt><trkpt lat="40.170608405485766" lon="8.640028071351788"><ele>844.0</ele><time>2026-03-30T09:02:08Z</time></trkpt><trkpt lat="40.17066610339319" lon="8.64027537455921"><ele>842.25</ele><time>2026-03-30T09:02:09Z</time></trkpt><trkpt lat="40.17076660505141" lon="8.64045727967828"><ele>840.5</ele><time>2026-03-30T09:02:10Z</time></trkpt><trkpt lat="40.17084705044764" lon="8.640609174041828"><ele>838.75</ele><time>2026-03-30T09:02:11Z</time></trkpt><trkpt lat="40.170895569927005" lon="8.640757841646062"><ele>837.0</ele><time>2026-03-30T09:02:12Z</time></trkpt><trkpt lat="40.17094158761879" lon="8.640924633718727"><ele>837.0</ele><time>2026-03-30T09:02:13Z</time></trkpt><trkpt lat="40.17100054934303" lon="8.641069805698564"><ele>837.0</ele><time>2026-03-30T09:02:14Z</time></trkpt><trkpt lat="40.17105336502799" lon="8.641268261459002"><ele>837.0</ele><time>2026-03-30T09:02:15Z</time></trkpt><trkpt lat="40.171120441954244" lon="8.641469012069141"><ele>838.6666666666667</ele><time>2026-03-30T09:02:16Z</time></trkpt><trkpt lat="40.171199137233806" lon="8.641661039321377"><ele>840.3333333333334</ele><time>2026-03-30T09:02:17Z</time></trkpt><trkpt lat="40.171293568204455" lon="8.64182811184372"><ele>842.0</ele><time>2026-03-30T09:02:18Z</time></trkpt><trkpt lat="40.1713512102097" lon="8.642001455206296"><ele>842.6</ele><time>2026-03-30T09:02:19Z</time></trkpt><trkpt lat="40.17137306497036" lon="8.642150526758593"><ele>843.2</ele><time>2026-03-30T09:02:20Z</time></trkpt><trkpt lat="40.17137024122107" lon="8.64228993717627"><ele>843.8</ele><time>2026-03-30T09:02:21Z</time></trkpt><trkpt lat="40.171334688938934" lon="8.642413198234337"><ele>844.4</ele><time>2026-03-30T09:02:22Z</time></trkpt><trkpt lat="40.171300919312024" lon="8.642561173102"><ele>845.0</ele><time>2026-03-30T09:02:23Z</time></trkpt><trkpt lat="40.17126389908444" lon="8.642719312445074"><ele>845.0</ele><time>2026-03-30T09:02:24Z</time></trkpt><trkpt lat="40.1712313131749" lon="8.642854703107096"><ele>845.0</ele><time>2026-03-30T09:02:25Z</time></trkpt><trkpt lat="40.17119910028632" lon="8.642981802515157"><ele>845.0</ele><time>2026-03-30T09:02:26Z</time></trkpt><trkpt lat="40.17116469527111" lon="8.643087377085289"><ele>845.0</ele><time>2026-03-30T09:02:27Z</time></trkpt><trkpt lat="40.171112081742564" lon="8.643207507816447"><ele>845.0</ele><time>2026-03-30T09:02:28Z</time></trkpt><trkpt lat="40.17105243217211" lon="8.643312906238332"><ele>845.0</ele><time>2026-03-30T09:02:29Z</time></trkpt><trkpt lat="40.170906879994654" lon="8.643496222196582"><ele>845.0</ele><time>2026-03-30T09:02:30Z</time></trkpt><trkpt lat="40.17082480251126" lon="8.643863796432107"><ele>844.3333333333334</ele><time>2026-03-30T09:02:31Z</time></trkpt><trkpt lat="40.17083168283982" lon="8.644202581731824"><ele>843.6666666666667</ele><time>2026-03-30T09:02:32Z</time></trkpt><trkpt lat="40.17084367324227" lon="8.644417011865762"><ele>843.0</ele><time>2026-03-30T09:02:33Z</time></trkpt><trkpt lat="40.170861607384275" lon="8.644923653233805"><ele>841.6666666666667</ele><time>2026-03-30T09:02:34Z</time></trkpt><trkpt lat="40.170829171764275" lon="8.645169332607756"><ele>840.3333333333334</ele><time>2026-03-30T09:02:35Z</time></trkpt><trkpt lat="40.170779891684816" lon="8.645418323696303"><ele>839.0</ele><time>2026-03-30T09:02:36Z</time></trkpt><trkpt lat="40.17072933841435" lon="8.645676359989634"><ele>839.3333333333334</ele><time>2026-03-30T09:02:37Z</time></trkpt><trkpt lat="40.170680400067795" lon="8.64592815876552"><ele>839.6666666666667</ele><time>2026-03-30T09:02:38Z</time></trkpt><trkpt lat="40.170638520569376" lon="8.646187860145933"><ele>840.0</ele><time>2026-03-30T09:02:39Z</time></trkpt><trkpt lat="40.170623105903566" lon="8.646455695938705"><ele>839.3333333333333</ele><time>2026-03-30T09:02:40Z</time></trkpt><trkpt lat="40.17060786205151" lon="8.646720585935697"><ele>838.6666666666666</ele><time>2026-03-30T09:02:41Z</time></trkpt><trkpt lat="40.170613157779485" lon="8.646978426480594"><ele>838.0</ele><time>2026-03-30T09:02:42Z</time></trkpt><trkpt lat="40.17063251222407" lon="8.647239403635457"><ele>838.0</ele><time>2026-03-30T09:02:43Z</time></trkpt><trkpt lat="40.17066812149019" lon="8.647498463864286"><ele>838.0</ele><time>2026-03-30T09:02:44Z</time></trkpt><trkpt lat="40.170704375472546" lon="8.64775700485285"><ele>838.0</ele><time>2026-03-30T09:02:45Z</time></trkpt><trkpt lat="40.17074401987156" lon="8.648019357898951"><ele>835.0</ele><time>2026-03-30T09:02:46Z</time></trkpt><trkpt lat="40.17077731634914" lon="8.648278114614337"><ele>832.0</ele><time>2026-03-30T09:02:47Z</time></trkpt><trkpt lat="40.17081977610659" lon="8.648537018456237"><ele>829.0</ele><time>2026-03-30T09:02:48Z</time></trkpt><trkpt lat="40.170882541303165" lon="8.648794614929027"><ele>828.6666666666666</ele><time>2026-03-30T09:02:49Z</time></trkpt><trkpt lat="40.17096134453287" lon="8.649043569944022"><ele>828.3333333333333</ele><time>2026-03-30T09:02:50Z</time></trkpt><trkpt lat="40.171045571960626" lon="8.64929043862141"><ele>828.0</ele><time>2026-03-30T09:02:51Z</time></trkpt><trkpt lat="40.171135402223605" lon="8.649533734551584"><ele>828.0</ele><time>2026-03-30T09:02:52Z</time></trkpt><trkpt lat="40.171220802573814" lon="8.649779234026784"><ele>828.0</ele><time>2026-03-30T09:02:53Z</time></trkpt><trkpt lat="40.17129608774252" lon="8.650024976382221"><ele>828.0</ele><time>2026-03-30T09:02:54Z</time></trkpt><trkpt lat="40.17137603725462" lon="8.650270478559873"><ele>828.3333333333333</ele><time>2026-03-30T09:02:55Z</time></trkpt><trkpt lat="40.17146893098131" lon="8.65050187416619"><ele>828.6666666666666</ele><time>2026-03-30T09:02:56Z</time></trkpt><trkpt lat="40.17154286338269" lon="8.650735362436032"><ele>829.0</ele><time>2026-03-30T09:02:57Z</time></trkpt><trkpt lat="40.17161679935389" lon="8.650965371193402"><ele>827.3333333333333</ele><time>2026-03-30T09:02:58Z</time></trkpt><trkpt lat="40.17169636030509" lon="8.651187431660764"><ele>825.6666666666667</ele><time>2026-03-30T09:02:59Z</time></trkpt><trkpt lat="40.17176944765385" lon="8.651400417450006"><ele>824.0</ele><time>2026-03-30T09:03:00Z</time></trkpt><trkpt lat="40.17182887742086" lon="8.651628296331042"><ele>824.0</ele><time>2026-03-30T09:03:01Z</time></trkpt><trkpt lat="40.171910036699416" lon="8.651834699720053"><ele>824.0</ele><time>2026-03-30T09:03:02Z</time></trkpt><trkpt lat="40.17197577163757" lon="8.652051396814901"><ele>824.0</ele><time>2026-03-30T09:03:03Z</time></trkpt><trkpt lat="40.17203941489205" lon="8.652258442755153"><ele>824.0</ele><time>2026-03-30T09:03:04Z</time></trkpt><trkpt lat="40.17210006150029" lon="8.652455370171767"><ele>824.0</ele><time>2026-03-30T09:03:05Z</time></trkpt><trkpt lat="40.17216506126767" lon="8.652648725366562"><ele>824.0</ele><time>2026-03-30T09:03:06Z</time></trkpt><trkpt lat="40.172199476954844" lon="8.652852364350464"><ele>823.3333333333334</ele><time>2026-03-30T09:03:07Z</time></trkpt><trkpt lat="40.17222776975848" lon="8.653070300458445"><ele>822.6666666666667</ele><time>2026-03-30T09:03:08Z</time></trkpt><trkpt lat="40.172246363627664" lon="8.653278138183943"><ele>822.0</ele><time>2026-03-30T09:03:09Z</time></trkpt><trkpt lat="40.17222720820387" lon="8.653481099459318"><ele>819.3333333333333</ele><time>2026-03-30T09:03:10Z</time></trkpt><trkpt lat="40.17218279248428" lon="8.65367679891505"><ele>816.6666666666666</ele><time>2026-03-30T09:03:11Z</time></trkpt><trkpt lat="40.17210882339501" lon="8.653867994270863"><ele>814.0</ele><time>2026-03-30T09:03:12Z</time></trkpt><trkpt lat="40.17201114097738" lon="8.654044646096683"><ele>814.0</ele><time>2026-03-30T09:03:13Z</time></trkpt><trkpt lat="40.17188803455606" lon="8.654170603005392"><ele>814.0</ele><time>2026-03-30T09:03:14Z</time></trkpt><trkpt lat="40.17174607219207" lon="8.654284956802186"><ele>814.0</ele><time>2026-03-30T09:03:15Z</time></trkpt><trkpt lat="40.17159112675343" lon="8.654364923256097"><ele>815.3333333333333</ele><time>2026-03-30T09:03:16Z</time></trkpt><trkpt lat="40.17142879010166" lon="8.654444103632494"><ele>816.6666666666667</ele><time>2026-03-30T09:03:17Z</time></trkpt><trkpt lat="40.17126893911007" lon="8.654540156197069"><ele>818.0</ele><time>2026-03-30T09:03:18Z</time></trkpt><trkpt lat="40.17110601854354" lon="8.654625471448997"><ele>814.3333333333334</ele><time>2026-03-30T09:03:19Z</time></trkpt><trkpt lat="40.17094568538822" lon="8.65471124413295"><ele>810.6666666666667</ele><time>2026-03-30T09:03:20Z</time></trkpt><trkpt lat="40.17079081394018" lon="8.654783295180978"><ele>807.0</ele><time>2026-03-30T09:03:20.999Z</time></trkpt><trkpt lat="40.17063553370972" lon="8.654845185994477"><ele>807.0</ele><time>2026-03-30T09:03:21.999Z</time></trkpt><trkpt lat="40.17048997037965" lon="8.654902278925363"><ele>807.0</ele><time>2026-03-30T09:03:22.999Z</time></trkpt><trkpt lat="40.17035552762816" lon="8.654988767070634"><ele>807.0</ele><time>2026-03-30T09:03:23.999Z</time></trkpt><trkpt lat="40.17021829223147" lon="8.655060249309843"><ele>807.0</ele><time>2026-03-30T09:03:24.999Z</time></trkpt><trkpt lat="40.17009451424685" lon="8.655149606472554"><ele>807.0</ele><time>2026-03-30T09:03:25.999Z</time></trkpt><trkpt lat="40.16998041053621" lon="8.655252189564926"><ele>807.0</ele><time>2026-03-30T09:03:26.999Z</time></trkpt><trkpt lat="40.16985833080835" lon="8.655337575961509"><ele>807.0</ele><time>2026-03-30T09:03:27.999Z</time></trkpt><trkpt lat="40.16974417475318" lon="8.655450406900462"><ele>807.0</ele><time>2026-03-30T09:03:28.999Z</time></trkpt><trkpt lat="40.16963433018089" lon="8.655575894473401"><ele>805.75</ele><time>2026-03-30T09:03:29.999Z</time></trkpt><trkpt lat="40.16951749972145" lon="8.65569394340454"><ele>804.5</ele><time>2026-03-30T09:03:30.999Z</time></trkpt><trkpt lat="40.16940336484567" lon="8.655817836186008"><ele>803.25</ele><time>2026-03-30T09:03:31.999Z</time></trkpt><trkpt lat="40.1692935220261" lon="8.65593991392072"><ele>802.0</ele><time>2026-03-30T09:03:32.999Z</time></trkpt><trkpt lat="40.169186093367465" lon="8.656053293194084"><ele>798.75</ele><time>2026-03-30T09:03:33.999Z</time></trkpt><trkpt lat="40.169065344452214" lon="8.656133890092926"><ele>795.5</ele><time>2026-03-30T09:03:34.999Z</time></trkpt><trkpt lat="40.16895282622212" lon="8.65622224916542"><ele>792.25</ele><time>2026-03-30T09:03:35.999Z</time></trkpt><trkpt lat="40.16884793326413" lon="8.65632112487072"><ele>789.0</ele><time>2026-03-30T09:03:36.999Z</time></trkpt><trkpt lat="40.16873437644903" lon="8.656400127008872"><ele>789.0</ele><time>2026-03-30T09:03:38Z</time></trkpt><trkpt lat="40.168622827816236" lon="8.656480342411745"><ele>789.0</ele><time>2026-03-30T09:03:39Z</time></trkpt><trkpt lat="40.168509209781654" lon="8.656553484760051"><ele>789.0</ele><time>2026-03-30T09:03:40Z</time></trkpt><trkpt lat="40.16839293250284" lon="8.656608908652936"><ele>789.0</ele><time>2026-03-30T09:03:41Z</time></trkpt><trkpt lat="40.16827538779328" lon="8.65665084918184"><ele>788.75</ele><time>2026-03-30T09:03:42Z</time></trkpt><trkpt lat="40.16815742347507" lon="8.656681230310792"><ele>788.5</ele><time>2026-03-30T09:03:43Z</time></trkpt><trkpt lat="40.168044148047734" lon="8.656708286700272"><ele>788.25</ele><time>2026-03-30T09:03:44Z</time></trkpt><trkpt lat="40.16793388535871" lon="8.656729399606593"><ele>788.0</ele><time>2026-03-30T09:03:45Z</time></trkpt><trkpt lat="40.16782474425248" lon="8.65674069064143"><ele>788.0</ele><time>2026-03-30T09:03:46Z</time></trkpt><trkpt lat="40.167718859116185" lon="8.656736449839915"><ele>788.0</ele><time>2026-03-30T09:03:47Z</time></trkpt><trkpt lat="40.16761304522451" lon="8.656729179166014"><ele>788.0</ele><time>2026-03-30T09:03:48Z</time></trkpt><trkpt lat="40.16750823433992" lon="8.656723037429332"><ele>788.0</ele><time>2026-03-30T09:03:49Z</time></trkpt><trkpt lat="40.16740218715617" lon="8.656696484024994"><ele>788.0</ele><time>2026-03-30T09:03:50Z</time></trkpt><trkpt lat="40.167295441698585" lon="8.656720294564447"><ele>787.25</ele><time>2026-03-30T09:03:51Z</time></trkpt><trkpt lat="40.16718657872018" lon="8.656729955503812"><ele>786.5</ele><time>2026-03-30T09:03:52Z</time></trkpt><trkpt lat="40.16706922059988" lon="8.656747868659707"><ele>785.75</ele><time>2026-03-30T09:03:53Z</time></trkpt><trkpt lat="40.16694342302992" lon="8.65676978565102"><ele>785.0</ele><time>2026-03-30T09:03:54Z</time></trkpt><trkpt lat="40.16681569484163" lon="8.656793387649454"><ele>785.0</ele><time>2026-03-30T09:03:55Z</time></trkpt><trkpt lat="40.166686118548206" lon="8.656808752462798"><ele>785.0</ele><time>2026-03-30T09:03:56Z</time></trkpt><trkpt lat="40.16655468528227" lon="8.656830903955045"><ele>785.0</ele><time>2026-03-30T09:03:57Z</time></trkpt><trkpt lat="40.16642170557778" lon="8.656858943033093"><ele>785.0</ele><time>2026-03-30T09:03:58Z</time></trkpt><trkpt lat="40.16629005519086" lon="8.656898169998644"><ele>783.25</ele><time>2026-03-30T09:03:59Z</time></trkpt><trkpt lat="40.166162555340534" lon="8.656944966571677"><ele>781.5</ele><time>2026-03-30T09:04:00Z</time></trkpt><trkpt lat="40.1660409221281" lon="8.65698629730703"><ele>779.75</ele><time>2026-03-30T09:04:01Z</time></trkpt><trkpt lat="40.165928569120794" lon="8.656999584177239"><ele>778.0</ele><time>2026-03-30T09:04:02Z</time></trkpt><trkpt lat="40.16582132864696" lon="8.656972522368799"><ele>778.0</ele><time>2026-03-30T09:04:03Z</time></trkpt><trkpt lat="40.16575373581934" lon="8.656863235023819"><ele>778.0</ele><time>2026-03-30T09:04:04Z</time></trkpt><trkpt lat="40.16570507326145" lon="8.656763457997604"><ele>778.0</ele><time>2026-03-30T09:04:05Z</time></trkpt><trkpt lat="40.1656671787491" lon="8.656649303285914"><ele>778.0</ele><time>2026-03-30T09:04:06Z</time></trkpt><trkpt lat="40.16562628421408" lon="8.65652215419642"><ele>778.0</ele><time>2026-03-30T09:04:07Z</time></trkpt><trkpt lat="40.16558556869052" lon="8.656393154469011"><ele>775.75</ele><time>2026-03-30T09:04:08Z</time></trkpt><trkpt lat="40.165535096555885" lon="8.656257929815897"><ele>773.5</ele><time>2026-03-30T09:04:09Z</time></trkpt><trkpt lat="40.16547622222471" lon="8.656127216932415"><ele>771.25</ele><time>2026-03-30T09:04:10Z</time></trkpt><trkpt lat="40.165395494178924" lon="8.656000983991342"><ele>769.0</ele><time>2026-03-30T09:04:11Z</time></trkpt><trkpt lat="40.1652887878799" lon="8.655900943781669"><ele>769.0</ele><time>2026-03-30T09:04:12Z</time></trkpt><trkpt lat="40.16517636802837" lon="8.655799759849923"><ele>769.0</ele><time>2026-03-30T09:04:13Z</time></trkpt><trkpt lat="40.165062159958424" lon="8.65568516391241"><ele>769.0</ele><time>2026-03-30T09:04:14Z</time></trkpt><trkpt lat="40.16493214863724" lon="8.655585089966076"><ele>769.0</ele><time>2026-03-30T09:04:15Z</time></trkpt><trkpt lat="40.16478082694738" lon="8.6555313412678"><ele>765.3333333333333</ele><time>2026-03-30T09:04:16Z</time></trkpt><trkpt lat="40.164631032722085" lon="8.655485627569771"><ele>761.6666666666666</ele><time>2026-03-30T09:04:17Z</time></trkpt><trkpt lat="40.16447453957359" lon="8.655475726329183"><ele>758.0</ele><time>2026-03-30T09:04:18Z</time></trkpt><trkpt lat="40.164316976439906" lon="8.655445005976306"><ele>758.0</ele><time>2026-03-30T09:04:19Z</time></trkpt><trkpt lat="40.164155637227076" lon="8.655422485706891"><ele>758.0</ele><time>2026-03-30T09:04:20Z</time></trkpt><trkpt lat="40.16399132306213" lon="8.655399550200295"><ele>758.0</ele><time>2026-03-30T09:04:21Z</time></trkpt><trkpt lat="40.16383470082288" lon="8.65537405152075"><ele>756.3333333333333</ele><time>2026-03-30T09:04:22Z</time></trkpt><trkpt lat="40.16368485667838" lon="8.655329570041168"><ele>754.6666666666666</ele><time>2026-03-30T09:04:23Z</time></trkpt><trkpt lat="40.16354503645512" lon="8.655272157926293"><ele>753.0</ele><time>2026-03-30T09:04:24Z</time></trkpt><trkpt lat="40.1633886821461" lon="8.655206238354946"><ele>754.6666666666666</ele><time>2026-03-30T09:04:25Z</time></trkpt><trkpt lat="40.163228048902006" lon="8.655141942805422"><ele>756.3333333333333</ele><time>2026-03-30T09:04:26Z</time></trkpt><trkpt lat="40.16305741418986" lon="8.655104812828467"><ele>758.0</ele><time>2026-03-30T09:04:27Z</time></trkpt><trkpt lat="40.16288400292107" lon="8.655091463045537"><ele>758.0</ele><time>2026-03-30T09:04:28Z</time></trkpt><trkpt lat="40.16271255826968" lon="8.655097805678668"><ele>758.0</ele><time>2026-03-30T09:04:29Z</time></trkpt><trkpt lat="40.16255403509201" lon="8.655128809075963"><ele>758.0</ele><time>2026-03-30T09:04:30Z</time></trkpt><trkpt lat="40.16241220277469" lon="8.655187198522517"><ele>756.0</ele><time>2026-03-30T09:04:31Z</time></trkpt><trkpt lat="40.16228948771952" lon="8.655305525833597"><ele>754.0</ele><time>2026-03-30T09:04:32Z</time></trkpt><trkpt lat="40.162197397601346" lon="8.655459490920174"><ele>752.0</ele><time>2026-03-30T09:04:33Z</time></trkpt><trkpt lat="40.16212975729599" lon="8.655637595412"><ele>752.0</ele><time>2026-03-30T09:04:34Z</time></trkpt><trkpt lat="40.16208718334266" lon="8.655834595893142"><ele>752.0</ele><time>2026-03-30T09:04:35Z</time></trkpt><trkpt lat="40.162059294862416" lon="8.656041454431278"><ele>752.0</ele><time>2026-03-30T09:04:36Z</time></trkpt><trkpt lat="40.16202438560262" lon="8.656250554447332"><ele>750.3333333333333</ele><time>2026-03-30T09:04:37Z</time></trkpt><trkpt lat="40.16198300370421" lon="8.656458762404888"><ele>748.6666666666666</ele><time>2026-03-30T09:04:38Z</time></trkpt><trkpt lat="40.16194361322803" lon="8.656657556196711"><ele>747.0</ele><time>2026-03-30T09:04:39Z</time></trkpt><trkpt lat="40.16191657613077" lon="8.656855042276797"><ele>746.5</ele><time>2026-03-30T09:04:40Z</time></trkpt><trkpt lat="40.16189477544616" lon="8.657048718869945"><ele>746.0</ele><time>2026-03-30T09:04:41Z</time></trkpt><trkpt lat="40.1619123781036" lon="8.657234800618767"><ele>745.5</ele><time>2026-03-30T09:04:42Z</time></trkpt><trkpt lat="40.16198017588004" lon="8.657403081361448"><ele>745.0</ele><time>2026-03-30T09:04:43Z</time></trkpt><trkpt lat="40.162096709848896" lon="8.65753836017361"><ele>745.0</ele><time>2026-03-30T09:04:44Z</time></trkpt><trkpt lat="40.162232706061836" lon="8.657630499913074"><ele>745.0</ele><time>2026-03-30T09:04:45Z</time></trkpt><trkpt lat="40.16237854783209" lon="8.657692056472746"><ele>745.0</ele><time>2026-03-30T09:04:46Z</time></trkpt><trkpt lat="40.16251931533951" lon="8.657746575185783"><ele>745.5</ele><time>2026-03-30T09:04:47Z</time></trkpt><trkpt lat="40.16265078384378" lon="8.657811155487565"><ele>746.0</ele><time>2026-03-30T09:04:48Z</time></trkpt><trkpt lat="40.16276692160113" lon="8.657898074899123"><ele>746.5</ele><time>2026-03-30T09:04:49Z</time></trkpt><trkpt lat="40.162860723562886" lon="8.658015440904979"><ele>747.0</ele><time>2026-03-30T09:04:50Z</time></trkpt><trkpt lat="40.16290552730902" lon="8.658169578114338"><ele>747.0</ele><time>2026-03-30T09:04:51Z</time></trkpt><trkpt lat="40.16295991284064" lon="8.65831740468303"><ele>747.0</ele><time>2026-03-30T09:04:52Z</time></trkpt><trkpt lat="40.16299337721003" lon="8.658479861542254"><ele>747.0</ele><time>2026-03-30T09:04:53Z</time></trkpt><trkpt lat="40.16303687102862" lon="8.658642069473691"><ele>747.0</ele><time>2026-03-30T09:04:54Z</time></trkpt><trkpt lat="40.16308812641413" lon="8.65880737787617"><ele>747.25</ele><time>2026-03-30T09:04:55Z</time></trkpt><trkpt lat="40.1631379622152" lon="8.658976754534205"><ele>747.5</ele><time>2026-03-30T09:04:56Z</time></trkpt><trkpt lat="40.163186165238784" lon="8.65914911035333"><ele>747.75</ele><time>2026-03-30T09:04:57Z</time></trkpt><trkpt lat="40.16323561158082" lon="8.659323568604119"><ele>748.0</ele><time>2026-03-30T09:04:58Z</time></trkpt><trkpt lat="40.16328980689797" lon="8.659498841256282"><ele>744.0</ele><time>2026-03-30T09:04:59Z</time></trkpt><trkpt lat="40.16333873008464" lon="8.659661765116729"><ele>740.0</ele><time>2026-03-30T09:05:00Z</time></trkpt><trkpt lat="40.163346834248124" lon="8.659820377860415"><ele>736.0</ele><time>2026-03-30T09:05:01Z</time></trkpt><trkpt lat="40.16328942200693" lon="8.659968780283258"><ele>732.0</ele><time>2026-03-30T09:05:02Z</time></trkpt><trkpt lat="40.163212296201216" lon="8.66009364335756"><ele>733.0</ele><time>2026-03-30T09:05:03Z</time></trkpt><trkpt lat="40.16313107424081" lon="8.660223631593167"><ele>734.0</ele><time>2026-03-30T09:05:04Z</time></trkpt><trkpt lat="40.16305461482121" lon="8.660366214534632"><ele>735.0</ele><time>2026-03-30T09:05:05Z</time></trkpt><trkpt lat="40.162982469384005" lon="8.660520317162609"><ele>736.0</ele><time>2026-03-30T09:05:06Z</time></trkpt><trkpt lat="40.16292390686362" lon="8.660682426802783"><ele>736.0</ele><time>2026-03-30T09:05:07Z</time></trkpt><trkpt lat="40.162852796181" lon="8.660815346461007"><ele>736.0</ele><time>2026-03-30T09:05:08Z</time></trkpt><trkpt lat="40.16275437293252" lon="8.66092781299456"><ele>736.0</ele><time>2026-03-30T09:05:08.999Z</time></trkpt><trkpt lat="40.16262467108124" lon="8.660987480285897"><ele>736.0</ele><time>2026-03-30T09:05:09.999Z</time></trkpt><trkpt lat="40.162500796312344" lon="8.661069787864019"><ele>733.75</ele><time>2026-03-30T09:05:10.999Z</time></trkpt><trkpt lat="40.16236872977302" lon="8.661116934477734"><ele>731.5</ele><time>2026-03-30T09:05:11.999Z</time></trkpt><trkpt lat="40.16223499877935" lon="8.661131714587453"><ele>729.25</ele><time>2026-03-30T09:05:12.999Z</time></trkpt><trkpt lat="40.162096274422495" lon="8.661101205567432"><ele>727.0</ele><time>2026-03-30T09:05:13.999Z</time></trkpt><trkpt lat="40.161966040282195" lon="8.66102806176091"><ele>727.0</ele><time>2026-03-30T09:05:14.999Z</time></trkpt><trkpt lat="40.16184585498623" lon="8.660917375953431"><ele>727.0</ele><time>2026-03-30T09:05:15.999Z</time></trkpt><trkpt lat="40.16171482727886" lon="8.660816344354473"><ele>727.0</ele><time>2026-03-30T09:05:16.999Z</time></trkpt><trkpt lat="40.16157832947833" lon="8.660731700239"><ele>725.75</ele><time>2026-03-30T09:05:17.999Z</time></trkpt><trkpt lat="40.16145164671107" lon="8.66061831528032"><ele>724.5</ele><time>2026-03-30T09:05:18.999Z</time></trkpt><trkpt lat="40.16133332851085" lon="8.660475774223496"><ele>723.25</ele><time>2026-03-30T09:05:19.999Z</time></trkpt><trkpt lat="40.16125211066717" lon="8.660347607154582"><ele>722.0</ele><time>2026-03-30T09:05:20.999Z</time></trkpt><trkpt lat="40.16115106429096" lon="8.660174486271812"><ele>722.0</ele><time>2026-03-30T09:05:21.999Z</time></trkpt><trkpt lat="40.16105480644746" lon="8.659996421766778"><ele>722.0</ele><time>2026-03-30T09:05:22.999Z</time></trkpt><trkpt lat="40.160934031189136" lon="8.65983101207367"><ele>722.0</ele><time>2026-03-30T09:05:23.999Z</time></trkpt><trkpt lat="40.16080095526486" lon="8.659691088344427"><ele>719.6666666666666</ele><time>2026-03-30T09:05:24.999Z</time></trkpt><trkpt lat="40.16064148129081" lon="8.659602267119586"><ele>717.3333333333334</ele><time>2026-03-30T09:05:25.999Z</time></trkpt><trkpt lat="40.16047883635283" lon="8.659545403291116"><ele>715.0</ele><time>2026-03-30T09:05:26.999Z</time></trkpt><trkpt lat="40.16031123237139" lon="8.659533100671906"><ele>715.0</ele><time>2026-03-30T09:05:27.999Z</time></trkpt><trkpt lat="40.160147340290344" lon="8.659563703868535"><ele>715.0</ele><time>2026-03-30T09:05:28.999Z</time></trkpt><trkpt lat="40.15998069407072" lon="8.6596443208717"><ele>715.0</ele><time>2026-03-30T09:05:29.999Z</time></trkpt><trkpt lat="40.15982103393117" lon="8.659748929781383"><ele>716.3333333333334</ele><time>2026-03-30T09:05:30.999Z</time></trkpt><trkpt lat="40.159660529813436" lon="8.659851958666273"><ele>717.6666666666666</ele><time>2026-03-30T09:05:31.999Z</time></trkpt><trkpt lat="40.15950382394549" lon="8.65995827089656"><ele>719.0</ele><time>2026-03-30T09:05:32.999Z</time></trkpt><trkpt lat="40.15936065498119" lon="8.660080633340087"><ele>719.0</ele><time>2026-03-30T09:05:33.999Z</time></trkpt><trkpt lat="40.15923129472744" lon="8.660204675933729"><ele>719.0</ele><time>2026-03-30T09:05:34.999Z</time></trkpt><trkpt lat="40.15910132208076" lon="8.66032428810567"><ele>719.0</ele><time>2026-03-30T09:05:35.999Z</time></trkpt><trkpt lat="40.15896938727313" lon="8.660420128194135"><ele>715.0</ele><time>2026-03-30T09:05:36.999Z</time></trkpt><trkpt lat="40.15882296222355" lon="8.660455767926193"><ele>711.0</ele><time>2026-03-30T09:05:37.999Z</time></trkpt><trkpt lat="40.15868733792868" lon="8.660466886888246"><ele>707.0</ele><time>2026-03-30T09:05:38.999Z</time></trkpt><trkpt lat="40.1585825710771" lon="8.660400581112775"><ele>703.0</ele><time>2026-03-30T09:05:39.999Z</time></trkpt><trkpt lat="40.1584773716323" lon="8.660316937904998"><ele>706.3333333333334</ele><time>2026-03-30T09:05:40.999Z</time></trkpt><trkpt lat="40.158356615002404" lon="8.660208051541291"><ele>709.6666666666666</ele><time>2026-03-30T09:05:41.999Z</time></trkpt><trkpt lat="40.15823133616458" lon="8.660094534925253"><ele>713.0</ele><time>2026-03-30T09:05:42.999Z</time></trkpt><trkpt lat="40.15808727556584" lon="8.659963999567038"><ele>709.0</ele><time>2026-03-30T09:05:44Z</time></trkpt><trkpt lat="40.157968485603554" lon="8.659852577250918"><ele>705.0</ele><time>2026-03-30T09:05:45Z</time></trkpt><trkpt lat="40.15786501407619" lon="8.659725136776387"><ele>701.0</ele><time>2026-03-30T09:05:46Z</time></trkpt><trkpt lat="40.15778434283315" lon="8.659568715198478"><ele>697.0</ele><time>2026-03-30T09:05:47Z</time></trkpt><trkpt lat="40.15772788478996" lon="8.659393720492675"><ele>697.0</ele><time>2026-03-30T09:05:48Z</time></trkpt><trkpt lat="40.15770233506631" lon="8.659221881023"><ele>697.0</ele><time>2026-03-30T09:05:49Z</time></trkpt><trkpt lat="40.157710536951534" lon="8.659048191800485"><ele>697.0</ele><time>2026-03-30T09:05:50Z</time></trkpt><trkpt lat="40.15773524781208" lon="8.658871170485902"><ele>697.0</ele><time>2026-03-30T09:05:51Z</time></trkpt><trkpt lat="40.15775013293553" lon="8.658677051552036"><ele>694.6666666666667</ele><time>2026-03-30T09:05:52Z</time></trkpt><trkpt lat="40.15778296815569" lon="8.658488422120092"><ele>692.3333333333334</ele><time>2026-03-30T09:05:53Z</time></trkpt><trkpt lat="40.15781291264769" lon="8.658289190796184"><ele>690.0</ele><time>2026-03-30T09:05:54Z</time></trkpt><trkpt lat="40.15783869317891" lon="8.658083967531907"><ele>690.0</ele><time>2026-03-30T09:05:55Z</time></trkpt><trkpt lat="40.15786904885609" lon="8.657874727449206"><ele>690.0</ele><time>2026-03-30T09:05:56Z</time></trkpt><trkpt lat="40.157899126365415" lon="8.657660259465452"><ele>690.0</ele><time>2026-03-30T09:05:57Z</time></trkpt><trkpt lat="40.157926732989715" lon="8.657441407489074"><ele>688.3333333333334</ele><time>2026-03-30T09:05:58Z</time></trkpt><trkpt lat="40.15795434724386" lon="8.657216145738344"><ele>686.6666666666667</ele><time>2026-03-30T09:05:59Z</time></trkpt><trkpt lat="40.15798163163981" lon="8.65698836053767"><ele>685.0</ele><time>2026-03-30T09:06:00Z</time></trkpt><trkpt lat="40.158012840478904" lon="8.656761748220365"><ele>684.6666666666667</ele><time>2026-03-30T09:06:01Z</time></trkpt><trkpt lat="40.15804399632235" lon="8.656542405256063"><ele>684.3333333333334</ele><time>2026-03-30T09:06:02Z</time></trkpt><trkpt lat="40.158075344291" lon="8.656337641305301"><ele>684.0</ele><time>2026-03-30T09:06:03Z</time></trkpt><trkpt lat="40.158103647155436" lon="8.65613611274191"><ele>686.0</ele><time>2026-03-30T09:06:04Z</time></trkpt><trkpt lat="40.15812936829398" lon="8.655951335418631"><ele>688.0</ele><time>2026-03-30T09:06:05Z</time></trkpt><trkpt lat="40.158152479885636" lon="8.655784754009757"><ele>690.0</ele><time>2026-03-30T09:06:06Z</time></trkpt><trkpt lat="40.15816571383748" lon="8.655624756089559"><ele>692.0</ele><time>2026-03-30T09:06:07Z</time></trkpt><trkpt lat="40.158151343680494" lon="8.655475343864508"><ele>692.0</ele><time>2026-03-30T09:06:08Z</time></trkpt><trkpt lat="40.15809773962608" lon="8.655347368988554"><ele>692.0</ele><time>2026-03-30T09:06:09Z</time></trkpt><trkpt lat="40.15799947581287" lon="8.655266388273459"><ele>692.0</ele><time>2026-03-30T09:06:10Z</time></trkpt><trkpt lat="40.15789698470944" lon="8.65520668335882"><ele>692.0</ele><time>2026-03-30T09:06:11Z</time></trkpt><trkpt lat="40.15778428167074" lon="8.6552517535188"><ele>692.0</ele><time>2026-03-30T09:06:12Z</time></trkpt><trkpt lat="40.157689571516826" lon="8.65534224238965"><ele>692.0</ele><time>2026-03-30T09:06:13Z</time></trkpt><trkpt lat="40.15760700206328" lon="8.65547428635204"><ele>692.0</ele><time>2026-03-30T09:06:14Z</time></trkpt><trkpt lat="40.157520799520775" lon="8.655593969198238"><ele>692.0</ele><time>2026-03-30T09:06:15Z</time></trkpt><trkpt lat="40.15743152304726" lon="8.655716568777288"><ele>694.0</ele><time>2026-03-30T09:06:16Z</time></trkpt><trkpt lat="40.15732309550881" lon="8.655842909317032"><ele>696.0</ele><time>2026-03-30T09:06:17Z</time></trkpt><trkpt lat="40.15720447948697" lon="8.655967692812371"><ele>698.0</ele><time>2026-03-30T09:06:18Z</time></trkpt><trkpt lat="40.15708239622286" lon="8.656084839142295"><ele>700.0</ele><time>2026-03-30T09:06:19Z</time></trkpt><trkpt lat="40.15695297571951" lon="8.656198692604665"><ele>697.3333333333334</ele><time>2026-03-30T09:06:20Z</time></trkpt><trkpt lat="40.15681427464877" lon="8.656314077750183"><ele>694.6666666666666</ele><time>2026-03-30T09:06:21Z</time></trkpt><trkpt lat="40.156660306144865" lon="8.6564104785978"><ele>692.0</ele><time>2026-03-30T09:06:22Z</time></trkpt><trkpt lat="40.156504180587945" lon="8.656518925393202"><ele>692.0</ele><time>2026-03-30T09:06:23Z</time></trkpt><trkpt lat="40.156358561003614" lon="8.656661025410434"><ele>692.0</ele><time>2026-03-30T09:06:24Z</time></trkpt><trkpt lat="40.15620539380847" lon="8.656795999812314"><ele>692.0</ele><time>2026-03-30T09:06:25Z</time></trkpt><trkpt lat="40.156058895559724" lon="8.65695703836111"><ele>689.3333333333333</ele><time>2026-03-30T09:06:26Z</time></trkpt><trkpt lat="40.15590752748347" lon="8.657119934463397"><ele>686.6666666666666</ele><time>2026-03-30T09:06:27Z</time></trkpt><trkpt lat="40.15576235690485" lon="8.657289630519648"><ele>684.0</ele><time>2026-03-30T09:06:28Z</time></trkpt><trkpt lat="40.1556277087849" lon="8.65746715781187"><ele>684.0</ele><time>2026-03-30T09:06:29Z</time></trkpt><trkpt lat="40.15547549075707" lon="8.657616461448074"><ele>684.0</ele><time>2026-03-30T09:06:30Z</time></trkpt><trkpt lat="40.15532573740436" lon="8.657765078549554"><ele>684.0</ele><time>2026-03-30T09:06:31Z</time></trkpt><trkpt lat="40.15518274643131" lon="8.657930919597312"><ele>681.3333333333334</ele><time>2026-03-30T09:06:32Z</time></trkpt><trkpt lat="40.15502601464505" lon="8.65807760907222"><ele>678.6666666666667</ele><time>2026-03-30T09:06:33Z</time></trkpt><trkpt lat="40.15487159239592" lon="8.658225910823036"><ele>676.0</ele><time>2026-03-30T09:06:34Z</time></trkpt><trkpt lat="40.15472064872548" lon="8.65837094666478"><ele>676.0</ele><time>2026-03-30T09:06:35Z</time></trkpt><trkpt lat="40.1545762259984" lon="8.658514017785775"><ele>676.0</ele><time>2026-03-30T09:06:36Z</time></trkpt><trkpt lat="40.15444153141669" lon="8.65866671049388"><ele>676.0</ele><time>2026-03-30T09:06:37Z</time></trkpt><trkpt lat="40.1543245385757" lon="8.658833838172304"><ele>674.6666666666667</ele><time>2026-03-30T09:06:38Z</time></trkpt><trkpt lat="40.15421630786748" lon="8.65901911707698"><ele>673.3333333333334</ele><time>2026-03-30T09:06:39Z</time></trkpt><trkpt lat="40.154116918750525" lon="8.659226020361642"><ele>672.0</ele><time>2026-03-30T09:06:40Z</time></trkpt><trkpt lat="40.15402826178897" lon="8.659441974455062"><ele>668.0</ele><time>2026-03-30T09:06:41Z</time></trkpt><trkpt lat="40.15396223359358" lon="8.6596619848904"><ele>664.0</ele><time>2026-03-30T09:06:42Z</time></trkpt><trkpt lat="40.15389946035514" lon="8.65987632870861"><ele>660.0</ele><time>2026-03-30T09:06:43Z</time></trkpt><trkpt lat="40.1538302625171" lon="8.660073250517923"><ele>660.0</ele><time>2026-03-30T09:06:44Z</time></trkpt><trkpt lat="40.15375076673804" lon="8.660259021890688"><ele>660.0</ele><time>2026-03-30T09:06:45Z</time></trkpt><trkpt lat="40.153650715843966" lon="8.66041304083739"><ele>660.0</ele><time>2026-03-30T09:06:46Z</time></trkpt><trkpt lat="40.15354693809087" lon="8.660550727888635"><ele>657.25</ele><time>2026-03-30T09:06:47Z</time></trkpt><trkpt lat="40.15344261935305" lon="8.660650943353883"><ele>654.5</ele><time>2026-03-30T09:06:48Z</time></trkpt><trkpt lat="40.15333631453253" lon="8.660700303636045"><ele>651.75</ele><time>2026-03-30T09:06:49Z</time></trkpt><trkpt lat="40.153224709109146" lon="8.660694812160557"><ele>649.0</ele><time>2026-03-30T09:06:50Z</time></trkpt><trkpt lat="40.15310398294528" lon="8.66063658302788"><ele>646.6666666666667</ele><time>2026-03-30T09:06:51Z</time></trkpt><trkpt lat="40.15298221481203" lon="8.66054073237292"><ele>644.3333333333334</ele><time>2026-03-30T09:06:52Z</time></trkpt><trkpt lat="40.1528482164295" lon="8.66044112131272"><ele>642.0</ele><time>2026-03-30T09:06:53Z</time></trkpt><trkpt lat="40.152697874272086" lon="8.660348194841077"><ele>641.6666666666666</ele><time>2026-03-30T09:06:54Z</time></trkpt><trkpt lat="40.152535253111026" lon="8.660279999151857"><ele>641.3333333333333</ele><time>2026-03-30T09:06:55Z</time></trkpt><trkpt lat="40.15235190458394" lon="8.66026838897501"><ele>641.0</ele><time>2026-03-30T09:06:56Z</time></trkpt><trkpt lat="40.152163575785046" lon="8.660306276214177"><ele>641.0</ele><time>2026-03-30T09:06:57Z</time></trkpt><trkpt lat="40.15198776979393" lon="8.660368066203493"><ele>641.0</ele><time>2026-03-30T09:06:58Z</time></trkpt><trkpt lat="40.151834332220005" lon="8.660442811255793"><ele>641.0</ele><time>2026-03-30T09:06:59Z</time></trkpt><trkpt lat="40.15168643711885" lon="8.660517622884184"><ele>641.0</ele><time>2026-03-30T09:07:00Z</time></trkpt><trkpt lat="40.15154243597658" lon="8.660606218819403"><ele>641.0</ele><time>2026-03-30T09:07:01Z</time></trkpt><trkpt lat="40.15142163561206" lon="8.660729787150713"><ele>641.0</ele><time>2026-03-30T09:07:02Z</time></trkpt><trkpt lat="40.15130738664729" lon="8.660885299976218"><ele>642.6666666666666</ele><time>2026-03-30T09:07:03Z</time></trkpt><trkpt lat="40.1511890937118" lon="8.66102950804158"><ele>644.3333333333334</ele><time>2026-03-30T09:07:04Z</time></trkpt><trkpt lat="40.15103886753928" lon="8.661126392775243"><ele>646.0</ele><time>2026-03-30T09:07:05Z</time></trkpt><trkpt lat="40.15089958540518" lon="8.66122643413955"><ele>641.6666666666667</ele><time>2026-03-30T09:07:06Z</time></trkpt><trkpt lat="40.15076046929649" lon="8.661318764755913"><ele>637.3333333333334</ele><time>2026-03-30T09:07:07Z</time></trkpt><trkpt lat="40.150619737508066" lon="8.661408136463852"><ele>633.0</ele><time>2026-03-30T09:07:08Z</time></trkpt><trkpt lat="40.150471762801835" lon="8.661477595351764"><ele>631.3333333333334</ele><time>2026-03-30T09:07:09Z</time></trkpt><trkpt lat="40.150317838474585" lon="8.661531917097397"><ele>629.6666666666667</ele><time>2026-03-30T09:07:10Z</time></trkpt><trkpt lat="40.15016031135698" lon="8.66156669671998"><ele>628.0</ele><time>2026-03-30T09:07:11Z</time></trkpt><trkpt lat="40.15001215432701" lon="8.661551096299725"><ele>624.3333333333334</ele><time>2026-03-30T09:07:12Z</time></trkpt><trkpt lat="40.14984887042935" lon="8.66152176427913"><ele>620.6666666666666</ele><time>2026-03-30T09:07:13Z</time></trkpt><trkpt lat="40.149679290641714" lon="8.661505444814438"><ele>617.0</ele><time>2026-03-30T09:07:13.999Z</time></trkpt><trkpt lat="40.149519933686484" lon="8.66145336900094"><ele>617.0</ele><time>2026-03-30T09:07:14.999Z</time></trkpt><trkpt lat="40.14937799206246" lon="8.661363638882332"><ele>617.0</ele><time>2026-03-30T09:07:15.999Z</time></trkpt><trkpt lat="40.149241759595945" lon="8.661268531946826"><ele>617.0</ele><time>2026-03-30T09:07:16.999Z</time></trkpt><trkpt lat="40.1491142469732" lon="8.661155555754448"><ele>615.3333333333333</ele><time>2026-03-30T09:07:17.999Z</time></trkpt><trkpt lat="40.148994814416625" lon="8.66102006356478"><ele>613.6666666666666</ele><time>2026-03-30T09:07:18.999Z</time></trkpt><trkpt lat="40.14887489352183" lon="8.660871704421078"><ele>612.0</ele><time>2026-03-30T09:07:19.999Z</time></trkpt><trkpt lat="40.14875610372293" lon="8.66071528814944"><ele>612.0</ele><time>2026-03-30T09:07:20.999Z</time></trkpt><trkpt lat="40.148670859208906" lon="8.660547221213243"><ele>612.0</ele><time>2026-03-30T09:07:21.999Z</time></trkpt><trkpt lat="40.14858943264101" lon="8.660363292742899"><ele>612.0</ele><time>2026-03-30T09:07:22.999Z</time></trkpt><trkpt lat="40.148512185959916" lon="8.660178424450885"><ele>613.3333333333334</ele><time>2026-03-30T09:07:23.999Z</time></trkpt><trkpt lat="40.14846263691821" lon="8.659977282314621"><ele>614.6666666666667</ele><time>2026-03-30T09:07:24.999Z</time></trkpt><trkpt lat="40.14842762515093" lon="8.659776684215096"><ele>616.0</ele><time>2026-03-30T09:07:25.999Z</time></trkpt><trkpt lat="40.14844966096727" lon="8.659585233203329"><ele>617.0</ele><time>2026-03-30T09:07:26.999Z</time></trkpt><trkpt lat="40.14844134226158" lon="8.65940572605662"><ele>618.0</ele><time>2026-03-30T09:07:27.999Z</time></trkpt><trkpt lat="40.14842310712835" lon="8.659243583641853"><ele>619.0</ele><time>2026-03-30T09:07:28.999Z</time></trkpt><trkpt lat="40.148348748125656" lon="8.659098153808978"><ele>620.0</ele><time>2026-03-30T09:07:29.999Z</time></trkpt><trkpt lat="40.14822248883943" lon="8.658998900654648"><ele>616.25</ele><time>2026-03-30T09:07:30.999Z</time></trkpt><trkpt lat="40.14808726828529" lon="8.658938377292674"><ele>612.5</ele><time>2026-03-30T09:07:31.999Z</time></trkpt><trkpt lat="40.1479478680171" lon="8.658951295679481"><ele>608.75</ele><time>2026-03-30T09:07:32.999Z</time></trkpt><trkpt lat="40.147839200783295" lon="8.658873829711698"><ele>605.0</ele><time>2026-03-30T09:07:33.999Z</time></trkpt><trkpt lat="40.14775425114477" lon="8.658777339831468"><ele>605.0</ele><time>2026-03-30T09:07:34.999Z</time></trkpt><trkpt lat="40.147712526841886" lon="8.658641178358208"><ele>605.0</ele><time>2026-03-30T09:07:35.999Z</time></trkpt><trkpt lat="40.14772045942752" lon="8.658480596145994"><ele>605.0</ele><time>2026-03-30T09:07:36.999Z</time></trkpt><trkpt lat="40.14772045943106" lon="8.658298688086724"><ele>605.0</ele><time>2026-03-30T09:07:37.999Z</time></trkpt><trkpt lat="40.147715752315065" lon="8.658110450110723"><ele>602.6666666666666</ele><time>2026-03-30T09:07:38.999Z</time></trkpt><trkpt lat="40.14771470657576" lon="8.65772660790599"><ele>600.3333333333334</ele><time>2026-03-30T09:07:40.999Z</time></trkpt><trkpt lat="40.14771294523123" lon="8.65752298152087"><ele>598.0</ele><time>2026-03-30T09:07:41.999Z</time></trkpt><trkpt lat="40.14771469228541" lon="8.657315598480904"><ele>598.0</ele><time>2026-03-30T09:07:42.999Z</time></trkpt><trkpt lat="40.14771471370775" lon="8.65711794033086"><ele>598.0</ele><time>2026-03-30T09:07:43.999Z</time></trkpt><trkpt lat="40.147705965737444" lon="8.656928051915944"><ele>598.0</ele><time>2026-03-30T09:07:44.999Z</time></trkpt><trkpt lat="40.14768752047721" lon="8.656739358518152"><ele>598.0</ele><time>2026-03-30T09:07:45.999Z</time></trkpt><trkpt lat="40.147666660909955" lon="8.656556521349463"><ele>597.6666666666667</ele><time>2026-03-30T09:07:46.999Z</time></trkpt><trkpt lat="40.14763751926053" lon="8.656376974484287"><ele>597.3333333333334</ele><time>2026-03-30T09:07:47.999Z</time></trkpt><trkpt lat="40.14756534419848" lon="8.656027020329757"><ele>597.0</ele><time>2026-03-30T09:07:50Z</time></trkpt><trkpt lat="40.14753320406128" lon="8.655853244035189"><ele>597.75</ele><time>2026-03-30T09:07:51Z</time></trkpt><trkpt lat="40.14750221177434" lon="8.65567442239104"><ele>598.5</ele><time>2026-03-30T09:07:52Z</time></trkpt><trkpt lat="40.147470412261825" lon="8.655494018915734"><ele>599.25</ele><time>2026-03-30T09:07:53Z</time></trkpt><trkpt lat="40.14745322389016" lon="8.655327003574204"><ele>600.0</ele><time>2026-03-30T09:07:54Z</time></trkpt><trkpt lat="40.14741412492101" lon="8.655211601147592"><ele>600.4</ele><time>2026-03-30T09:07:55Z</time></trkpt><trkpt lat="40.1473508243001" lon="8.655111584116632"><ele>600.8</ele><time>2026-03-30T09:07:56Z</time></trkpt><trkpt lat="40.147257249679484" lon="8.65508143611576"><ele>601.2</ele><time>2026-03-30T09:07:57Z</time></trkpt><trkpt lat="40.1471642683214" lon="8.655156459719892"><ele>601.6</ele><time>2026-03-30T09:07:58Z</time></trkpt><trkpt lat="40.14710302443948" lon="8.655286202697878"><ele>602.0</ele><time>2026-03-30T09:07:59Z</time></trkpt><trkpt lat="40.14705616042302" lon="8.655415704391073"><ele>602.0</ele><time>2026-03-30T09:08:00Z</time></trkpt><trkpt lat="40.14703183539658" lon="8.655571315952889"><ele>602.0</ele><time>2026-03-30T09:08:01Z</time></trkpt><trkpt lat="40.1470173781841" lon="8.655732315566025"><ele>602.0</ele><time>2026-03-30T09:08:02Z</time></trkpt><trkpt lat="40.14700831039565" lon="8.655907819835921"><ele>602.0</ele><time>2026-03-30T09:08:03Z</time></trkpt><trkpt lat="40.1470009338167" lon="8.656057706067555"><ele>599.0</ele><time>2026-03-30T09:08:04Z</time></trkpt><trkpt lat="40.14698402984231" lon="8.656222887178494"><ele>596.0</ele><time>2026-03-30T09:08:05Z</time></trkpt><trkpt lat="40.14694155362583" lon="8.656383901355044"><ele>593.0</ele><time>2026-03-30T09:08:06Z</time></trkpt><trkpt lat="40.146865174952055" lon="8.656518731209989"><ele>590.0</ele><time>2026-03-30T09:08:07Z</time></trkpt><trkpt lat="40.14678945890395" lon="8.656664886137238"><ele>590.0</ele><time>2026-03-30T09:08:08Z</time></trkpt><trkpt lat="40.14676230624444" lon="8.656812000563784"><ele>590.0</ele><time>2026-03-30T09:08:09Z</time></trkpt><trkpt lat="40.146645633853986" lon="8.65717007486491"><ele>590.0</ele><time>2026-03-30T09:08:11Z</time></trkpt><trkpt lat="40.14658020240116" lon="8.65733523511974"><ele>591.3333333333333</ele><time>2026-03-30T09:08:12Z</time></trkpt><trkpt lat="40.14650737901429" lon="8.657507322096"><ele>592.6666666666666</ele><time>2026-03-30T09:08:13Z</time></trkpt><trkpt lat="40.146402419038274" lon="8.657646665194024"><ele>594.0</ele><time>2026-03-30T09:08:14Z</time></trkpt><trkpt lat="40.146296333697876" lon="8.657803777942357"><ele>589.75</ele><time>2026-03-30T09:08:15Z</time></trkpt><trkpt lat="40.14619430830768" lon="8.657949458202664"><ele>585.5</ele><time>2026-03-30T09:08:16Z</time></trkpt><trkpt lat="40.14609010737505" lon="8.658091631420973"><ele>581.25</ele><time>2026-03-30T09:08:17Z</time></trkpt><trkpt lat="40.145981743388575" lon="8.65821305129094"><ele>577.0</ele><time>2026-03-30T09:08:18Z</time></trkpt><trkpt lat="40.14585667154408" lon="8.658327595547712"><ele>577.0</ele><time>2026-03-30T09:08:19Z</time></trkpt><trkpt lat="40.145725897760784" lon="8.658433768950461"><ele>577.0</ele><time>2026-03-30T09:08:20Z</time></trkpt><trkpt lat="40.14559455383348" lon="8.658540748746963"><ele>577.0</ele><time>2026-03-30T09:08:21Z</time></trkpt><trkpt lat="40.14547591007042" lon="8.65867154177367"><ele>574.6666666666667</ele><time>2026-03-30T09:08:22Z</time></trkpt><trkpt lat="40.14535731036389" lon="8.658806303438165"><ele>572.3333333333334</ele><time>2026-03-30T09:08:23Z</time></trkpt><trkpt lat="40.14525323039962" lon="8.658960475345863"><ele>570.0</ele><time>2026-03-30T09:08:24Z</time></trkpt><trkpt lat="40.14516400461276" lon="8.659139168826847"><ele>570.0</ele><time>2026-03-30T09:08:25Z</time></trkpt><trkpt lat="40.1450837387317" lon="8.65932721608523"><ele>570.0</ele><time>2026-03-30T09:08:26Z</time></trkpt><trkpt lat="40.14500338346902" lon="8.65950277712978"><ele>570.0</ele><time>2026-03-30T09:08:27Z</time></trkpt><trkpt lat="40.14492357578855" lon="8.659673077320859"><ele>568.25</ele><time>2026-03-30T09:08:28Z</time></trkpt><trkpt lat="40.144841575711446" lon="8.65984376612279"><ele>566.5</ele><time>2026-03-30T09:08:29Z</time></trkpt><trkpt lat="40.144734457241306" lon="8.659974482669675"><ele>564.75</ele><time>2026-03-30T09:08:30Z</time></trkpt><trkpt lat="40.14461694764564" lon="8.660082487064455"><ele>563.0</ele><time>2026-03-30T09:08:31Z</time></trkpt><trkpt lat="40.14448912430054" lon="8.660130293915287"><ele>563.0</ele><time>2026-03-30T09:08:32Z</time></trkpt><trkpt lat="40.14435453463262" lon="8.660137361131426"><ele>563.0</ele><time>2026-03-30T09:08:33Z</time></trkpt><trkpt lat="40.144204027438576" lon="8.660139743399707"><ele>563.0</ele><time>2026-03-30T09:08:34Z</time></trkpt><trkpt lat="40.14405933058874" lon="8.660131155408342"><ele>563.0</ele><time>2026-03-30T09:08:35Z</time></trkpt><trkpt lat="40.143915538543325" lon="8.660106267754115"><ele>559.3333333333333</ele><time>2026-03-30T09:08:36Z</time></trkpt><trkpt lat="40.14377605821887" lon="8.660060758175685"><ele>555.6666666666666</ele><time>2026-03-30T09:08:37Z</time></trkpt><trkpt lat="40.143629049009846" lon="8.659998001281735"><ele>552.0</ele><time>2026-03-30T09:08:38Z</time></trkpt><trkpt lat="40.14348033504896" lon="8.659932656882903"><ele>552.0</ele><time>2026-03-30T09:08:39Z</time></trkpt><trkpt lat="40.143335833098696" lon="8.659859599075808"><ele>552.0</ele><time>2026-03-30T09:08:40Z</time></trkpt><trkpt lat="40.143196934297244" lon="8.659774574541027"><ele>552.0</ele><time>2026-03-30T09:08:41Z</time></trkpt><trkpt lat="40.1430664682164" lon="8.659681805092282"><ele>552.0</ele><time>2026-03-30T09:08:42Z</time></trkpt><trkpt lat="40.142949755227704" lon="8.65957087765079"><ele>552.0</ele><time>2026-03-30T09:08:43Z</time></trkpt><trkpt lat="40.14283426246991" lon="8.659457855721305"><ele>552.0</ele><time>2026-03-30T09:08:44Z</time></trkpt><trkpt lat="40.142715638188285" lon="8.659354701109844"><ele>552.0</ele><time>2026-03-30T09:08:45Z</time></trkpt><trkpt lat="40.14258044021974" lon="8.659305276592196"><ele>552.0</ele><time>2026-03-30T09:08:46Z</time></trkpt><trkpt lat="40.14254051117142" lon="8.6591911691219"><ele>552.0</ele><time>2026-03-30T09:08:47Z</time></trkpt><trkpt lat="40.14244234922024" lon="8.659166714082106"><ele>552.0</ele><time>2026-03-30T09:08:48Z</time></trkpt><trkpt lat="40.14215315863519" lon="8.65923448709889"><ele>551.6</ele><time>2026-03-30T09:08:49Z</time></trkpt><trkpt lat="40.14202244904113" lon="8.659227561937419"><ele>551.2</ele><time>2026-03-30T09:08:50Z</time></trkpt><trkpt lat="40.1419008052609" lon="8.659213883386446"><ele>550.8</ele><time>2026-03-30T09:08:51Z</time></trkpt><trkpt lat="40.141796507451176" lon="8.65920337763106"><ele>550.4</ele><time>2026-03-30T09:08:52Z</time></trkpt><trkpt lat="40.14172270850997" lon="8.65917664703543"><ele>550.0</ele><time>2026-03-30T09:08:53Z</time></trkpt><trkpt lat="40.1416670968789" lon="8.659133833053726"><ele>550.0</ele><time>2026-03-30T09:08:54.999Z</time></trkpt><trkpt lat="40.141665500579336" lon="8.658978637971853"><ele>550.0</ele><time>2026-03-30T09:08:57.999Z</time></trkpt><trkpt lat="40.14166916543405" lon="8.658839549230711"><ele>550.0</ele><time>2026-03-30T09:08:59.999Z</time></trkpt><trkpt lat="40.14167882842444" lon="8.658682839433235"><ele>550.0</ele><time>2026-03-30T09:09:01.999Z</time></trkpt><trkpt lat="40.14168524179658" lon="8.658594694656449"><ele>550.0</ele><time>2026-03-30T09:09:02.999Z</time></trkpt><trkpt lat="40.141694372308855" lon="8.658500680535484"><ele>550.3333333333334</ele><time>2026-03-30T09:09:03.999Z</time></trkpt><trkpt lat="40.141704887707924" lon="8.658404262000394"><ele>550.6666666666667</ele><time>2026-03-30T09:09:04.999Z</time></trkpt><trkpt lat="40.14171719496306" lon="8.658295074585649"><ele>551.0</ele><time>2026-03-30T09:09:05.999Z</time></trkpt><trkpt lat="40.14172975488773" lon="8.658186046759873"><ele>551.3333333333334</ele><time>2026-03-30T09:09:06.999Z</time></trkpt><trkpt lat="40.14174281983828" lon="8.658076196449109"><ele>551.6666666666666</ele><time>2026-03-30T09:09:07.999Z</time></trkpt><trkpt lat="40.14176001525422" lon="8.657969929771072"><ele>552.0</ele><time>2026-03-30T09:09:08.999Z</time></trkpt><trkpt lat="40.141789841577626" lon="8.657863919526312"><ele>551.4</ele><time>2026-03-30T09:09:09.999Z</time></trkpt><trkpt lat="40.14181741496573" lon="8.657748038873972"><ele>550.8000000000001</ele><time>2026-03-30T09:09:10.999Z</time></trkpt><trkpt lat="40.14184172502719" lon="8.657602375436467"><ele>550.2</ele><time>2026-03-30T09:09:11.999Z</time></trkpt><trkpt lat="40.14188901995992" lon="8.657481007516854"><ele>549.6</ele><time>2026-03-30T09:09:12.999Z</time></trkpt><trkpt lat="40.1419328185084" lon="8.65735532145271"><ele>549.0</ele><time>2026-03-30T09:09:13.999Z</time></trkpt><trkpt lat="40.14199204282529" lon="8.657237424951314"><ele>549.0</ele><time>2026-03-30T09:09:14.999Z</time></trkpt><trkpt lat="40.14204011171009" lon="8.657107523590165"><ele>549.0</ele><time>2026-03-30T09:09:15.999Z</time></trkpt><trkpt lat="40.14210436641184" lon="8.657001114541538"><ele>549.0</ele><time>2026-03-30T09:09:16.999Z</time></trkpt><trkpt lat="40.142176962012314" lon="8.656909999364892"><ele>549.0</ele><time>2026-03-30T09:09:17.999Z</time></trkpt><trkpt lat="40.1422490562391" lon="8.65682311780903"><ele>549.0</ele><time>2026-03-30T09:09:18.999Z</time></trkpt><trkpt lat="40.14233631235393" lon="8.656787993754127"><ele>546.8</ele><time>2026-03-30T09:09:19.999Z</time></trkpt><trkpt lat="40.142427651814906" lon="8.656743631350812"><ele>544.5999999999999</ele><time>2026-03-30T09:09:20.999Z</time></trkpt><trkpt lat="40.14251922949354" lon="8.65670033699378"><ele>542.4</ele><time>2026-03-30T09:09:21.999Z</time></trkpt><trkpt lat="40.14261862342628" lon="8.656661169240243"><ele>540.1999999999999</ele><time>2026-03-30T09:09:22.999Z</time></trkpt><trkpt lat="40.142725430906864" lon="8.65663263095638"><ele>538.0</ele><time>2026-03-30T09:09:23.999Z</time></trkpt><trkpt lat="40.14282848756823" lon="8.656587374758788"><ele>538.0</ele><time>2026-03-30T09:09:24.999Z</time></trkpt><trkpt lat="40.14291698083107" lon="8.656516117824472"><ele>538.0</ele><time>2026-03-30T09:09:25.999Z</time></trkpt><trkpt lat="40.14299700209722" lon="8.656425128717931"><ele>538.0</ele><time>2026-03-30T09:09:26.999Z</time></trkpt><trkpt lat="40.14305210739197" lon="8.656296917145108"><ele>538.0</ele><time>2026-03-30T09:09:27.999Z</time></trkpt><trkpt lat="40.14309481972206" lon="8.656153889052417"><ele>538.0</ele><time>2026-03-30T09:09:28.999Z</time></trkpt><trkpt lat="40.14314507547105" lon="8.656018927410017"><ele>539.1999999999999</ele><time>2026-03-30T09:09:29.999Z</time></trkpt><trkpt lat="40.143215873815905" lon="8.655913310913576"><ele>540.4</ele><time>2026-03-30T09:09:30.999Z</time></trkpt><trkpt lat="40.14328142266277" lon="8.655811011852991"><ele>541.5999999999999</ele><time>2026-03-30T09:09:31.999Z</time></trkpt><trkpt lat="40.14328134349144" lon="8.655672264221504"><ele>542.8</ele><time>2026-03-30T09:09:32.999Z</time></trkpt><trkpt lat="40.143297628746275" lon="8.655556836093508"><ele>544.0</ele><time>2026-03-30T09:09:33.999Z</time></trkpt><trkpt lat="40.14331555702566" lon="8.655432652503578"><ele>544.0</ele><time>2026-03-30T09:09:34.999Z</time></trkpt><trkpt lat="40.143322257302465" lon="8.655301866670364"><ele>544.0</ele><time>2026-03-30T09:09:35.999Z</time></trkpt><trkpt lat="40.14332419335526" lon="8.655170024994803"><ele>544.0</ele><time>2026-03-30T09:09:36.999Z</time></trkpt><trkpt lat="40.14332457797935" lon="8.65503711368857"><ele>544.0</ele><time>2026-03-30T09:09:37.999Z</time></trkpt><trkpt lat="40.14333010532774" lon="8.654895910381958"><ele>544.0</ele><time>2026-03-30T09:09:38.999Z</time></trkpt><trkpt lat="40.14334211693357" lon="8.654749872584564"><ele>543.75</ele><time>2026-03-30T09:09:39.999Z</time></trkpt><trkpt lat="40.14335338562021" lon="8.654593497407802"><ele>543.5</ele><time>2026-03-30T09:09:40.999Z</time></trkpt><trkpt lat="40.143359608116775" lon="8.65443928409614"><ele>543.25</ele><time>2026-03-30T09:09:41.999Z</time></trkpt><trkpt lat="40.14337013688893" lon="8.654279448180233"><ele>543.0</ele><time>2026-03-30T09:09:42.999Z</time></trkpt><trkpt lat="40.143382969181275" lon="8.654117921184655"><ele>542.25</ele><time>2026-03-30T09:09:43.999Z</time></trkpt><trkpt lat="40.143402190544435" lon="8.65395309832777"><ele>541.5</ele><time>2026-03-30T09:09:44.999Z</time></trkpt><trkpt lat="40.14341199091512" lon="8.6537874929252"><ele>540.75</ele><time>2026-03-30T09:09:45.999Z</time></trkpt><trkpt lat="40.14341515874606" lon="8.653624028094676"><ele>540.0</ele><time>2026-03-30T09:09:46.999Z</time></trkpt><trkpt lat="40.14342152841809" lon="8.65346809457831"><ele>539.5</ele><time>2026-03-30T09:09:47.999Z</time></trkpt><trkpt lat="40.14342145866885" lon="8.653324466776159"><ele>539.0</ele><time>2026-03-30T09:09:48.999Z</time></trkpt><trkpt lat="40.143430911616214" lon="8.65318332764881"><ele>538.5</ele><time>2026-03-30T09:09:49.999Z</time></trkpt><trkpt lat="40.143459926637" lon="8.653038511998567"><ele>538.0</ele><time>2026-03-30T09:09:50.999Z</time></trkpt><trkpt lat="40.143497844566404" lon="8.65289146703758"><ele>536.75</ele><time>2026-03-30T09:09:51.999Z</time></trkpt><trkpt lat="40.14354015909635" lon="8.652739463732606"><ele>535.5</ele><time>2026-03-30T09:09:52.999Z</time></trkpt><trkpt lat="40.14358016731668" lon="8.652582290149452"><ele>534.25</ele><time>2026-03-30T09:09:53.999Z</time></trkpt><trkpt lat="40.14362620005465" lon="8.652432636000311"><ele>533.0</ele><time>2026-03-30T09:09:54.999Z</time></trkpt><trkpt lat="40.14366883762427" lon="8.652278052537218"><ele>533.0</ele><time>2026-03-30T09:09:55.999Z</time></trkpt><trkpt lat="40.14371517664888" lon="8.652127602805383"><ele>533.0</ele><time>2026-03-30T09:09:56.999Z</time></trkpt><trkpt lat="40.14377693181842" lon="8.651989995125504"><ele>533.0</ele><time>2026-03-30T09:09:57.999Z</time></trkpt><trkpt lat="40.14385012512031" lon="8.65186160781036"><ele>533.0</ele><time>2026-03-30T09:09:58.999Z</time></trkpt><trkpt lat="40.14392646614588" lon="8.651740923699801"><ele>531.8</ele><time>2026-03-30T09:09:59.999Z</time></trkpt><trkpt lat="40.14400401802084" lon="8.65162503809538"><ele>530.5999999999999</ele><time>2026-03-30T09:10:00.999Z</time></trkpt><trkpt lat="40.144077824496755" lon="8.651508394342319"><ele>529.4000000000001</ele><time>2026-03-30T09:10:01.999Z</time></trkpt><trkpt lat="40.144150553949046" lon="8.651398723897808"><ele>528.2</ele><time>2026-03-30T09:10:02.999Z</time></trkpt><trkpt lat="40.14421756779821" lon="8.651294445991743"><ele>527.0</ele><time>2026-03-30T09:10:03.999Z</time></trkpt><trkpt lat="40.14428080665461" lon="8.651196445878208"><ele>528.4</ele><time>2026-03-30T09:10:04.999Z</time></trkpt><trkpt lat="40.14433881833922" lon="8.651110903703705"><ele>529.8000000000001</ele><time>2026-03-30T09:10:05.999Z</time></trkpt><trkpt lat="40.14438234068043" lon="8.651033576164222"><ele>531.2</ele><time>2026-03-30T09:10:06.999Z</time></trkpt><trkpt lat="40.144409357532076" lon="8.65095449624556"><ele>532.6</ele><time>2026-03-30T09:10:08Z</time></trkpt><trkpt lat="40.14437239101305" lon="8.650813727758253"><ele>534.0</ele><time>2026-03-30T09:10:10Z</time></trkpt><trkpt lat="40.14426193262259" lon="8.650779740606573"><ele>534.0</ele><time>2026-03-30T09:10:12Z</time></trkpt><trkpt lat="40.144142614235356" lon="8.650840962536977"><ele>534.0</ele><time>2026-03-30T09:10:14Z</time></trkpt><trkpt lat="40.14407128789876" lon="8.650857931435679"><ele>534.0</ele><time>2026-03-30T09:10:15Z</time></trkpt><trkpt lat="40.14399100102604" lon="8.650885503761968"><ele>534.0</ele><time>2026-03-30T09:10:16Z</time></trkpt><trkpt lat="40.14390484564133" lon="8.650915145011242"><ele>534.0</ele><time>2026-03-30T09:10:17Z</time></trkpt><trkpt lat="40.1438110042728" lon="8.650876257905377"><ele>532.5</ele><time>2026-03-30T09:10:18Z</time></trkpt><trkpt lat="40.14371727912778" lon="8.650832251082218"><ele>531.0</ele><time>2026-03-30T09:10:19Z</time></trkpt><trkpt lat="40.14363074658621" lon="8.650787867938975"><ele>529.5</ele><time>2026-03-30T09:10:20Z</time></trkpt><trkpt lat="40.14355021856143" lon="8.650760753730145"><ele>528.0</ele><time>2026-03-30T09:10:21Z</time></trkpt><trkpt lat="40.14346949359303" lon="8.650742336601581"><ele>526.5</ele><time>2026-03-30T09:10:22Z</time></trkpt><trkpt lat="40.14338825009288" lon="8.650701641734809"><ele>525.0</ele><time>2026-03-30T09:10:23Z</time></trkpt><trkpt lat="40.14330482072737" lon="8.650669189744551"><ele>525.0</ele><time>2026-03-30T09:10:24Z</time></trkpt><trkpt lat="40.1432172521862" lon="8.650644551575711"><ele>525.0</ele><time>2026-03-30T09:10:25Z</time></trkpt><trkpt lat="40.143136850534" lon="8.650591444611534"><ele>525.0</ele><time>2026-03-30T09:10:26Z</time></trkpt><trkpt lat="40.14305525442612" lon="8.650540864670543"><ele>525.0</ele><time>2026-03-30T09:10:27Z</time></trkpt><trkpt lat="40.14297527144696" lon="8.65051185356614"><ele>525.0</ele><time>2026-03-30T09:10:28Z</time></trkpt><trkpt lat="40.14289908775495" lon="8.650506056825037"><ele>525.0</ele><time>2026-03-30T09:10:29Z</time></trkpt><trkpt lat="40.142822707215934" lon="8.650504315354365"><ele>524.0</ele><time>2026-03-30T09:10:30Z</time></trkpt><trkpt lat="40.14274902785298" lon="8.650496094017047"><ele>523.0</ele><time>2026-03-30T09:10:31Z</time></trkpt><trkpt lat="40.14268154703057" lon="8.650488708945344"><ele>522.0</ele><time>2026-03-30T09:10:32Z</time></trkpt><trkpt lat="40.14261783263915" lon="8.650476496893612"><ele>521.0</ele><time>2026-03-30T09:10:33Z</time></trkpt><trkpt lat="40.14255246186044" lon="8.650478060454375"><ele>520.0</ele><time>2026-03-30T09:10:34Z</time></trkpt><trkpt lat="40.14247884957002" lon="8.650481714076799"><ele>519.0</ele><time>2026-03-30T09:10:35Z</time></trkpt><trkpt lat="40.14240049937041" lon="8.650492885837048"><ele>518.0</ele><time>2026-03-30T09:10:36Z</time></trkpt><trkpt lat="40.1423173853477" lon="8.650518088865642"><ele>518.0</ele><time>2026-03-30T09:10:37Z</time></trkpt><trkpt lat="40.142236114713405" lon="8.65054240401378"><ele>518.0</ele><time>2026-03-30T09:10:38Z</time></trkpt><trkpt lat="40.14217360334166" lon="8.650565145169773"><ele>518.0</ele><time>2026-03-30T09:10:39Z</time></trkpt><trkpt lat="40.14206267729188" lon="8.650582947501192"><ele>518.0</ele><time>2026-03-30T09:10:41Z</time></trkpt><trkpt lat="40.141988490302715" lon="8.650628819157886"><ele>518.0</ele><time>2026-03-30T09:10:42Z</time></trkpt><trkpt lat="40.14190918700403" lon="8.650670860379838"><ele>518.0</ele><time>2026-03-30T09:10:43Z</time></trkpt><trkpt lat="40.14183148390505" lon="8.65073330457417"><ele>518.0</ele><time>2026-03-30T09:10:44Z</time></trkpt><trkpt lat="40.14175776260919" lon="8.65080950466039"><ele>518.0</ele><time>2026-03-30T09:10:45Z</time></trkpt><trkpt lat="40.14169486389968" lon="8.650850634732853"><ele>518.0</ele><time>2026-03-30T09:10:46Z</time></trkpt><trkpt lat="40.14164509684657" lon="8.650907580177018"><ele>518.0</ele><time>2026-03-30T09:10:47Z</time></trkpt><trkpt lat="40.14158350561034" lon="8.651036037229622"><ele>518.0</ele><time>2026-03-30T09:10:49Z</time></trkpt><trkpt lat="40.14153688994382" lon="8.651146632300124"><ele>518.0</ele><time>2026-03-30T09:10:51Z</time></trkpt><trkpt lat="40.14147658287936" lon="8.651230237830273"><ele>515.6666666666666</ele><time>2026-03-30T09:10:53Z</time></trkpt><trkpt lat="40.141386058994485" lon="8.65124458079152"><ele>513.3333333333333</ele><time>2026-03-30T09:10:55Z</time></trkpt><trkpt lat="40.14128608025157" lon="8.651235209229851"><ele>511.0</ele><time>2026-03-30T09:10:57Z</time></trkpt><trkpt lat="40.1412222706979" lon="8.651221202487314"><ele>508.66666666666663</ele><time>2026-03-30T09:10:58Z</time></trkpt><trkpt lat="40.14116233150529" lon="8.651195669185839"><ele>506.3333333333333</ele><time>2026-03-30T09:10:59Z</time></trkpt><trkpt lat="40.14109616518313" lon="8.651178548820363"><ele>504.0</ele><time>2026-03-30T09:11:00Z</time></trkpt><trkpt lat="40.140974125916294" lon="8.651187848724728"><ele>504.0</ele><time>2026-03-30T09:11:02Z</time></trkpt><trkpt lat="40.14086337490517" lon="8.651166729431774"><ele>504.0</ele><time>2026-03-30T09:11:04Z</time></trkpt><trkpt lat="40.14079683295592" lon="8.65114937757207"><ele>504.0</ele><time>2026-03-30T09:11:05Z</time></trkpt><trkpt lat="40.140724217788154" lon="8.651085151728111"><ele>504.0</ele><time>2026-03-30T09:11:06Z</time></trkpt><trkpt lat="40.140664310041444" lon="8.65099081186647"><ele>504.0</ele><time>2026-03-30T09:11:06.999Z</time></trkpt><trkpt lat="40.14061422151065" lon="8.65090148231014"><ele>504.0</ele><time>2026-03-30T09:11:07.999Z</time></trkpt><trkpt lat="40.140556536657805" lon="8.650824411262379"><ele>503.2857142857143</ele><time>2026-03-30T09:11:08.999Z</time></trkpt><trkpt lat="40.14049372312999" lon="8.650772038438546"><ele>502.57142857142856</ele><time>2026-03-30T09:11:09.999Z</time></trkpt><trkpt lat="40.14042841346131" lon="8.65072329439812"><ele>501.8571428571429</ele><time>2026-03-30T09:11:10.999Z</time></trkpt><trkpt lat="40.14036553415638" lon="8.650670637427591"><ele>501.14285714285717</ele><time>2026-03-30T09:11:11.999Z</time></trkpt><trkpt lat="40.140297467074525" lon="8.65062195712767"><ele>500.42857142857144</ele><time>2026-03-30T09:11:12.999Z</time></trkpt><trkpt lat="40.14024078215385" lon="8.65056126996752"><ele>499.7142857142858</ele><time>2026-03-30T09:11:13.999Z</time></trkpt><trkpt lat="40.14017500725487" lon="8.65051872920425"><ele>499.00000000000006</ele><time>2026-03-30T09:11:14.999Z</time></trkpt><trkpt lat="40.1401184477168" lon="8.65046554547034"><ele>499.00000000000006</ele><time>2026-03-30T09:11:15.999Z</time></trkpt><trkpt lat="40.14006110789587" lon="8.65041701512884"><ele>499.0</ele><time>2026-03-30T09:11:16.999Z</time></trkpt><trkpt lat="40.14000515720223" lon="8.650361949980368"><ele>499.0</ele><time>2026-03-30T09:11:17.999Z</time></trkpt><trkpt lat="40.13995173340792" lon="8.65030939697219"><ele>499.0</ele><time>2026-03-30T09:11:18.999Z</time></trkpt><trkpt lat="40.13988373075752" lon="8.650221564143523"><ele>499.00000000000006</ele><time>2026-03-30T09:11:20.999Z</time></trkpt><trkpt lat="40.139801915096115" lon="8.650120941095857"><ele>499.0</ele><time>2026-03-30T09:11:22.999Z</time></trkpt><trkpt lat="40.13975367001939" lon="8.650038119275811"><ele>498.6</ele><time>2026-03-30T09:11:23.999Z</time></trkpt><trkpt lat="40.13971733810768" lon="8.649937053777808"><ele>498.2</ele><time>2026-03-30T09:11:24.999Z</time></trkpt><trkpt lat="40.139698391012296" lon="8.649820718166936"><ele>497.80000000000007</ele><time>2026-03-30T09:11:25.999Z</time></trkpt><trkpt lat="40.139710332896236" lon="8.64968920792487"><ele>497.40000000000003</ele><time>2026-03-30T09:11:26.999Z</time></trkpt><trkpt lat="40.13975212283306" lon="8.64955396606208"><ele>497.0</ele><time>2026-03-30T09:11:27.999Z</time></trkpt><trkpt lat="40.1397998060756" lon="8.649449241949192"><ele>496.99999999999994</ele><time>2026-03-30T09:11:28.999Z</time></trkpt><trkpt lat="40.13983910085973" lon="8.649351189717258"><ele>497.0</ele><time>2026-03-30T09:11:29.999Z</time></trkpt><trkpt lat="40.139865177654286" lon="8.649241587635718"><ele>497.0</ele><time>2026-03-30T09:11:30.999Z</time></trkpt><trkpt lat="40.139867367228916" lon="8.649138957372328"><ele>497.0</ele><time>2026-03-30T09:11:31.999Z</time></trkpt><trkpt lat="40.13984099369639" lon="8.649041730497945"><ele>496.99999999999994</ele><time>2026-03-30T09:11:32.999Z</time></trkpt><trkpt lat="40.13980427569056" lon="8.64895943644176"><ele>497.0</ele><time>2026-03-30T09:11:33.999Z</time></trkpt><trkpt lat="40.13974435990382" lon="8.648875867355695"><ele>497.0</ele><time>2026-03-30T09:11:34.999Z</time></trkpt><trkpt lat="40.13968391443895" lon="8.648797778737576"><ele>497.00000000000006</ele><time>2026-03-30T09:11:35.999Z</time></trkpt><trkpt lat="40.13959522813786" lon="8.648761674180193"><ele>497.00000000000006</ele><time>2026-03-30T09:11:36.999Z</time></trkpt><trkpt lat="40.13948237778528" lon="8.648788889697219"><ele>497.0</ele><time>2026-03-30T09:11:37.999Z</time></trkpt><trkpt lat="40.13937656919766" lon="8.648836036942985"><ele>497.0</ele><time>2026-03-30T09:11:38.999Z</time></trkpt><trkpt lat="40.139260531044435" lon="8.64888181132846"><ele>497.0</ele><time>2026-03-30T09:11:39.999Z</time></trkpt><trkpt lat="40.139142483538336" lon="8.648931328725233"><ele>497.0</ele><time>2026-03-30T09:11:40.999Z</time></trkpt><trkpt lat="40.13901821781992" lon="8.648991927457443"><ele>497.0</ele><time>2026-03-30T09:11:41.999Z</time></trkpt><trkpt lat="40.13890537008957" lon="8.649095840860992"><ele>497.0</ele><time>2026-03-30T09:11:42.999Z</time></trkpt><trkpt lat="40.138779873802115" lon="8.649172067087314"><ele>496.0</ele><time>2026-03-30T09:11:43.999Z</time></trkpt><trkpt lat="40.13866331296781" lon="8.64927714623649"><ele>495.0</ele><time>2026-03-30T09:11:44.999Z</time></trkpt><trkpt lat="40.13856123777437" lon="8.649407734658935"><ele>494.0</ele><time>2026-03-30T09:11:45.999Z</time></trkpt><trkpt lat="40.1384641709487" lon="8.64954140635554"><ele>493.0</ele><time>2026-03-30T09:11:46.999Z</time></trkpt><trkpt lat="40.13836962736673" lon="8.649689011379397"><ele>493.0</ele><time>2026-03-30T09:11:47.999Z</time></trkpt><trkpt lat="40.138276572043175" lon="8.649839929057668"><ele>493.0</ele><time>2026-03-30T09:11:48.999Z</time></trkpt><trkpt lat="40.138174339368014" lon="8.649974838771357"><ele>493.0</ele><time>2026-03-30T09:11:49.999Z</time></trkpt><trkpt lat="40.138091009308575" lon="8.65013696911079"><ele>493.0</ele><time>2026-03-30T09:11:50.999Z</time></trkpt><trkpt lat="40.13803095904685" lon="8.650318624380837"><ele>495.25</ele><time>2026-03-30T09:11:51.999Z</time></trkpt><trkpt lat="40.137986645260845" lon="8.650502228985932"><ele>497.5</ele><time>2026-03-30T09:11:52.999Z</time></trkpt><trkpt lat="40.137936699988984" lon="8.650681661005539"><ele>499.75</ele><time>2026-03-30T09:11:53.999Z</time></trkpt><trkpt lat="40.13788042031061" lon="8.65085622574096"><ele>502.0</ele><time>2026-03-30T09:11:54.999Z</time></trkpt><trkpt lat="40.137817122839145" lon="8.651030289495996"><ele>496.33333333333337</ele><time>2026-03-30T09:11:55.999Z</time></trkpt><trkpt lat="40.137746443838616" lon="8.651206830294361"><ele>490.66666666666663</ele><time>2026-03-30T09:11:56.999Z</time></trkpt><trkpt lat="40.13767127009865" lon="8.651381469854899"><ele>485.0</ele><time>2026-03-30T09:11:57.999Z</time></trkpt><trkpt lat="40.13758977516709" lon="8.65155061047457"><ele>485.0</ele><time>2026-03-30T09:11:58.999Z</time></trkpt><trkpt lat="40.1375139223974" lon="8.651724950651172"><ele>485.0</ele><time>2026-03-30T09:11:59.999Z</time></trkpt><trkpt lat="40.13740788266527" lon="8.651861671769671"><ele>485.0</ele><time>2026-03-30T09:12:00.999Z</time></trkpt><trkpt lat="40.137284728899886" lon="8.651945092307821"><ele>485.0</ele><time>2026-03-30T09:12:02Z</time></trkpt><trkpt lat="40.137158826368875" lon="8.652023301828866"><ele>483.25</ele><time>2026-03-30T09:12:03Z</time></trkpt><trkpt lat="40.13702796986974" lon="8.652059916426373"><ele>481.5</ele><time>2026-03-30T09:12:04Z</time></trkpt><trkpt lat="40.13689806480497" lon="8.652114017606436"><ele>479.75</ele><time>2026-03-30T09:12:05Z</time></trkpt><trkpt lat="40.136766153302396" lon="8.652175177098151"><ele>478.0</ele><time>2026-03-30T09:12:06Z</time></trkpt><trkpt lat="40.13663591714093" lon="8.65221877608136"><ele>483.25</ele><time>2026-03-30T09:12:07Z</time></trkpt><trkpt lat="40.1365067992994" lon="8.65226398478854"><ele>488.5</ele><time>2026-03-30T09:12:08Z</time></trkpt><trkpt lat="40.136376163372546" lon="8.652320113214753"><ele>493.75</ele><time>2026-03-30T09:12:09Z</time></trkpt><trkpt lat="40.13625116119012" lon="8.652397938585256"><ele>499.0</ele><time>2026-03-30T09:12:10Z</time></trkpt><trkpt lat="40.136129259231105" lon="8.65248615632375"><ele>499.0</ele><time>2026-03-30T09:12:11Z</time></trkpt><trkpt lat="40.13602667952298" lon="8.652608016982384"><ele>499.0</ele><time>2026-03-30T09:12:12Z</time></trkpt><trkpt lat="40.135919816747965" lon="8.652717581241248"><ele>499.0</ele><time>2026-03-30T09:12:13Z</time></trkpt><trkpt lat="40.13580976194603" lon="8.652828961910563"><ele>499.0</ele><time>2026-03-30T09:12:14Z</time></trkpt><trkpt lat="40.13568419330873" lon="8.652910843147728"><ele>494.5</ele><time>2026-03-30T09:12:15Z</time></trkpt><trkpt lat="40.135557378279955" lon="8.652986580365244"><ele>490.0</ele><time>2026-03-30T09:12:16Z</time></trkpt><trkpt lat="40.13542561553973" lon="8.653041706470427"><ele>485.5</ele><time>2026-03-30T09:12:17Z</time></trkpt><trkpt lat="40.135285220249514" lon="8.653065761117373"><ele>481.0</ele><time>2026-03-30T09:12:18Z</time></trkpt><trkpt lat="40.13513969949344" lon="8.653079673662956"><ele>481.0</ele><time>2026-03-30T09:12:19Z</time></trkpt><trkpt lat="40.134992527185304" lon="8.653090405787346"><ele>481.0</ele><time>2026-03-30T09:12:20Z</time></trkpt><trkpt lat="40.13484286009735" lon="8.653100039342695"><ele>481.0</ele><time>2026-03-30T09:12:21Z</time></trkpt><trkpt lat="40.13469144661046" lon="8.653108792085884"><ele>481.0</ele><time>2026-03-30T09:12:22Z</time></trkpt><trkpt lat="40.1345370529442" lon="8.653118024913564"><ele>483.0</ele><time>2026-03-30T09:12:23Z</time></trkpt><trkpt lat="40.13438160869764" lon="8.653128009078628"><ele>485.0</ele><time>2026-03-30T09:12:24Z</time></trkpt><trkpt lat="40.13422766628294" lon="8.653140377471951"><ele>487.0</ele><time>2026-03-30T09:12:25Z</time></trkpt><trkpt lat="40.134078211538686" lon="8.653150676365568"><ele>487.0</ele><time>2026-03-30T09:12:26Z</time></trkpt><trkpt lat="40.13393942801303" lon="8.653149598488206"><ele>487.0</ele><time>2026-03-30T09:12:27Z</time></trkpt><trkpt lat="40.133824999806805" lon="8.653102432948863"><ele>487.0</ele><time>2026-03-30T09:12:28Z</time></trkpt><trkpt lat="40.13373455486034" lon="8.653002169608456"><ele>487.0</ele><time>2026-03-30T09:12:29Z</time></trkpt><trkpt lat="40.13367315061198" lon="8.652857356356318"><ele>488.5</ele><time>2026-03-30T09:12:30Z</time></trkpt><trkpt lat="40.133615852454156" lon="8.652704835172822"><ele>490.0</ele><time>2026-03-30T09:12:31Z</time></trkpt><trkpt lat="40.13355563154057" lon="8.65253913006263"><ele>491.5</ele><time>2026-03-30T09:12:32Z</time></trkpt><trkpt lat="40.13348779858117" lon="8.652377693276357"><ele>493.0</ele><time>2026-03-30T09:12:33Z</time></trkpt><trkpt lat="40.13340786955834" lon="8.652228264093932"><ele>493.0</ele><time>2026-03-30T09:12:34Z</time></trkpt><trkpt lat="40.13329863953157" lon="8.652108849318134"><ele>493.0</ele><time>2026-03-30T09:12:35Z</time></trkpt><trkpt lat="40.13315883314031" lon="8.65203473425813"><ele>493.0</ele><time>2026-03-30T09:12:36Z</time></trkpt><trkpt lat="40.1330180470533" lon="8.65199681522618"><ele>493.0</ele><time>2026-03-30T09:12:37Z</time></trkpt><trkpt lat="40.13291394149888" lon="8.651926616494853"><ele>492.75</ele><time>2026-03-30T09:12:38Z</time></trkpt><trkpt lat="40.13282308363654" lon="8.651853822971082"><ele>492.5</ele><time>2026-03-30T09:12:39Z</time></trkpt><trkpt lat="40.132780013423385" lon="8.65171798430986"><ele>492.25</ele><time>2026-03-30T09:12:40Z</time></trkpt><trkpt lat="40.1327560909178" lon="8.65155913124718"><ele>492.0</ele><time>2026-03-30T09:12:41Z</time></trkpt><trkpt lat="40.1327343446703" lon="8.651386770015995"><ele>492.0</ele><time>2026-03-30T09:12:42Z</time></trkpt><trkpt lat="40.13269771169504" lon="8.65120615986061"><ele>492.0</ele><time>2026-03-30T09:12:43Z</time></trkpt><trkpt lat="40.13263895920085" lon="8.65104299170773"><ele>492.0</ele><time>2026-03-30T09:12:44Z</time></trkpt><trkpt lat="40.13257434751439" lon="8.650885385334224"><ele>492.0</ele><time>2026-03-30T09:12:45Z</time></trkpt><trkpt lat="40.132535043809916" lon="8.650734522367154"><ele>492.25</ele><time>2026-03-30T09:12:46Z</time></trkpt><trkpt lat="40.132534284456526" lon="8.65057316885846"><ele>492.5</ele><time>2026-03-30T09:12:47Z</time></trkpt><trkpt lat="40.13256717553106" lon="8.650403801754296"><ele>492.75</ele><time>2026-03-30T09:12:48Z</time></trkpt><trkpt lat="40.13261470213673" lon="8.650235605654013"><ele>493.0</ele><time>2026-03-30T09:12:49Z</time></trkpt><trkpt lat="40.132664692600045" lon="8.650060716830653"><ele>491.25</ele><time>2026-03-30T09:12:50Z</time></trkpt><trkpt lat="40.13269600411264" lon="8.649884550113214"><ele>489.5</ele><time>2026-03-30T09:12:51Z</time></trkpt><trkpt lat="40.132701716564576" lon="8.649699213396492"><ele>487.75</ele><time>2026-03-30T09:12:52Z</time></trkpt><trkpt lat="40.13268679592405" lon="8.64952242381618"><ele>486.0</ele><time>2026-03-30T09:12:53Z</time></trkpt><trkpt lat="40.132670103277086" lon="8.649353723440713"><ele>485.25</ele><time>2026-03-30T09:12:54Z</time></trkpt><trkpt lat="40.132649957775314" lon="8.649191084350443"><ele>484.5</ele><time>2026-03-30T09:12:55Z</time></trkpt><trkpt lat="40.13263168860232" lon="8.649030439817833"><ele>483.75</ele><time>2026-03-30T09:12:56Z</time></trkpt><trkpt lat="40.13261696515211" lon="8.648872538248813"><ele>483.0</ele><time>2026-03-30T09:12:57Z</time></trkpt><trkpt lat="40.1326060480434" lon="8.648718456751816"><ele>482.59999999999997</ele><time>2026-03-30T09:12:58Z</time></trkpt><trkpt lat="40.132603223577455" lon="8.648565500505565"><ele>482.19999999999993</ele><time>2026-03-30T09:12:59Z</time></trkpt><trkpt lat="40.132604195451655" lon="8.648422833940478"><ele>481.8</ele><time>2026-03-30T09:13:00Z</time></trkpt><trkpt lat="40.13260646633225" lon="8.648294739030524"><ele>481.4</ele><time>2026-03-30T09:13:01Z</time></trkpt><trkpt lat="40.132608955525804" lon="8.648179541113848"><ele>481.0</ele><time>2026-03-30T09:13:02Z</time></trkpt><trkpt lat="40.132608942339814" lon="8.64807646098818"><ele>480.99999999999994</ele><time>2026-03-30T09:13:03Z</time></trkpt><trkpt lat="40.13261541130667" lon="8.647974447602778"><ele>481.0</ele><time>2026-03-30T09:13:04Z</time></trkpt><trkpt lat="40.13262189011665" lon="8.647874626863652"><ele>480.99999999999994</ele><time>2026-03-30T09:13:05Z</time></trkpt><trkpt lat="40.13262628864897" lon="8.647776177631133"><ele>480.99999999999994</ele><time>2026-03-30T09:13:06Z</time></trkpt><trkpt lat="40.13262672113052" lon="8.647679515048202"><ele>481.0</ele><time>2026-03-30T09:13:07Z</time></trkpt><trkpt lat="40.13263121888897" lon="8.64758730502036"><ele>480.99999999999994</ele><time>2026-03-30T09:13:08Z</time></trkpt><trkpt lat="40.132625245766384" lon="8.647501849395312"><ele>480.99999999999994</ele><time>2026-03-30T09:13:09Z</time></trkpt><trkpt lat="40.1326080946575" lon="8.647402011906161"><ele>480.6</ele><time>2026-03-30T09:13:11Z</time></trkpt><trkpt lat="40.13257537113671" lon="8.647279078540386"><ele>480.20000000000005</ele><time>2026-03-30T09:13:50.999Z</time></trkpt><trkpt lat="40.13252487331195" lon="8.647118135789853"><ele>479.79999999999995</ele><time>2026-03-30T09:13:52.999Z</time></trkpt><trkpt lat="40.132489103767035" lon="8.647011156016948"><ele>479.4</ele><time>2026-03-30T09:13:53.999Z</time></trkpt><trkpt lat="40.13242536388729" lon="8.646913500597059"><ele>479.0</ele><time>2026-03-30T09:13:54.999Z</time></trkpt><trkpt lat="40.13232639867866" lon="8.646838189383853"><ele>476.75</ele><time>2026-03-30T09:13:55.999Z</time></trkpt><trkpt lat="40.13220640030883" lon="8.646777768198332"><ele>474.5</ele><time>2026-03-30T09:13:56.999Z</time></trkpt><trkpt lat="40.13208524270311" lon="8.64671118836473"><ele>472.25</ele><time>2026-03-30T09:13:57.999Z</time></trkpt><trkpt lat="40.13195907893191" lon="8.646646514544166"><ele>470.0</ele><time>2026-03-30T09:13:58.999Z</time></trkpt><trkpt lat="40.13182629366463" lon="8.646592480305378"><ele>470.0</ele><time>2026-03-30T09:13:59.999Z</time></trkpt><trkpt lat="40.131708921473795" lon="8.64651930384501"><ele>470.0</ele><time>2026-03-30T09:14:00.999Z</time></trkpt><trkpt lat="40.13159732351279" lon="8.646444618660285"><ele>470.0</ele><time>2026-03-30T09:14:01.999Z</time></trkpt><trkpt lat="40.13151738896208" lon="8.646303822621109"><ele>470.0</ele><time>2026-03-30T09:14:02.999Z</time></trkpt><trkpt lat="40.13145635193726" lon="8.646140684068328"><ele>465.25</ele><time>2026-03-30T09:14:03.999Z</time></trkpt><trkpt lat="40.1314059802324" lon="8.645965796346292"><ele>460.5</ele><time>2026-03-30T09:14:04.999Z</time></trkpt><trkpt lat="40.13138267793007" lon="8.645775691007616"><ele>455.75</ele><time>2026-03-30T09:14:05.999Z</time></trkpt><trkpt lat="40.13135361870565" lon="8.645586522482835"><ele>451.0</ele><time>2026-03-30T09:14:06.999Z</time></trkpt><trkpt lat="40.13131104005852" lon="8.64540034040511"><ele>454.0</ele><time>2026-03-30T09:14:08Z</time></trkpt><trkpt lat="40.131293388909135" lon="8.645205093875727"><ele>457.0</ele><time>2026-03-30T09:14:09Z</time></trkpt><trkpt lat="40.13129271225328" lon="8.645002389338211"><ele>460.0</ele><time>2026-03-30T09:14:10Z</time></trkpt><trkpt lat="40.13130569667072" lon="8.644803447543982"><ele>460.0</ele><time>2026-03-30T09:14:11Z</time></trkpt><trkpt lat="40.13132162999757" lon="8.644611246457465"><ele>460.0</ele><time>2026-03-30T09:14:12Z</time></trkpt><trkpt lat="40.13135401395371" lon="8.644422665258373"><ele>460.0</ele><time>2026-03-30T09:14:13Z</time></trkpt><trkpt lat="40.131405893976634" lon="8.644237272987475"><ele>460.0</ele><time>2026-03-30T09:14:14Z</time></trkpt><trkpt lat="40.131479482697564" lon="8.644058978653085"><ele>462.25</ele><time>2026-03-30T09:14:15Z</time></trkpt><trkpt lat="40.13156238472192" lon="8.643891273066853"><ele>464.5</ele><time>2026-03-30T09:14:16Z</time></trkpt><trkpt lat="40.13165879080758" lon="8.643736292575356"><ele>466.75</ele><time>2026-03-30T09:14:17Z</time></trkpt><trkpt lat="40.13174822297869" lon="8.643595188921912"><ele>469.0</ele><time>2026-03-30T09:14:18Z</time></trkpt><trkpt lat="40.13179639688327" lon="8.643417658182777"><ele>469.0</ele><time>2026-03-30T09:14:19Z</time></trkpt><trkpt lat="40.13181899563442" lon="8.643194560235106"><ele>469.0</ele><time>2026-03-30T09:14:20Z</time></trkpt><trkpt lat="40.13181925208687" lon="8.642946219303774"><ele>469.0</ele><time>2026-03-30T09:14:21Z</time></trkpt><trkpt lat="40.13180850706325" lon="8.642683645192852"><ele>468.33333333333337</ele><time>2026-03-30T09:14:22Z</time></trkpt><trkpt lat="40.13180165987444" lon="8.64245058575764"><ele>467.66666666666663</ele><time>2026-03-30T09:14:23Z</time></trkpt><trkpt lat="40.13179455163641" lon="8.642179404888468"><ele>467.0</ele><time>2026-03-30T09:14:24Z</time></trkpt><trkpt lat="40.13157395017971" lon="8.642037218695707"><ele>476.3333333333333</ele><time>2026-03-30T09:14:25Z</time></trkpt><trkpt lat="40.13148365679212" lon="8.64187006984293"><ele>485.66666666666663</ele><time>2026-03-30T09:14:26Z</time></trkpt><trkpt lat="40.1313496310232" lon="8.641732684299022"><ele>495.0</ele><time>2026-03-30T09:14:27Z</time></trkpt><trkpt lat="40.13122596310243" lon="8.641639176611942"><ele>495.0</ele><time>2026-03-30T09:14:28Z</time></trkpt><trkpt lat="40.131566205913806" lon="8.641866518716917"><ele>495.0</ele><time>2026-03-30T09:14:29Z</time></trkpt><trkpt lat="40.13148795026813" lon="8.641857898062286"><ele>495.0</ele><time>2026-03-30T09:14:30Z</time></trkpt><trkpt lat="40.13140974833531" lon="8.641903496709142"><ele>495.0</ele><time>2026-03-30T09:14:31Z</time></trkpt><trkpt lat="40.13136672806233" lon="8.642022367597914"><ele>495.0</ele><time>2026-03-30T09:14:32Z</time></trkpt><trkpt lat="40.13136563451682" lon="8.642155984503797"><ele>495.0</ele><time>2026-03-30T09:14:33Z</time></trkpt><trkpt lat="40.131341124974035" lon="8.642295988882994"><ele>495.0</ele><time>2026-03-30T09:14:34Z</time></trkpt><trkpt lat="40.131290727304666" lon="8.642427524729982"><ele>491.0</ele><time>2026-03-30T09:14:35Z</time></trkpt><trkpt lat="40.13122957622349" lon="8.642570195495217"><ele>487.0</ele><time>2026-03-30T09:14:36Z</time></trkpt><trkpt lat="40.13115353601747" lon="8.642716547395079"><ele>483.0</ele><time>2026-03-30T09:14:37Z</time></trkpt><trkpt lat="40.13105352665576" lon="8.64284204900001"><ele>479.0</ele><time>2026-03-30T09:14:38Z</time></trkpt><trkpt lat="40.130952731757155" lon="8.643000342341487"><ele>474.66666666666663</ele><time>2026-03-30T09:14:39Z</time></trkpt><trkpt lat="40.130837213861994" lon="8.643127024832898"><ele>470.33333333333337</ele><time>2026-03-30T09:14:40Z</time></trkpt><trkpt lat="40.13072772822418" lon="8.643280477580989"><ele>466.0</ele><time>2026-03-30T09:14:41Z</time></trkpt><trkpt lat="40.130612156032825" lon="8.643432118422343"><ele>472.0</ele><time>2026-03-30T09:14:42Z</time></trkpt><trkpt lat="40.13050424235408" lon="8.64357795876676"><ele>478.0</ele><time>2026-03-30T09:14:43Z</time></trkpt><trkpt lat="40.13041379766503" lon="8.643753009740418"><ele>484.0</ele><time>2026-03-30T09:14:44Z</time></trkpt><trkpt lat="40.13036128483685" lon="8.64394779655263"><ele>484.0</ele><time>2026-03-30T09:14:45Z</time></trkpt><trkpt lat="40.13034436991069" lon="8.644153058091376"><ele>484.0</ele><time>2026-03-30T09:14:46Z</time></trkpt><trkpt lat="40.13030985269673" lon="8.64435271095016"><ele>484.0</ele><time>2026-03-30T09:14:47Z</time></trkpt><trkpt lat="40.13025046820208" lon="8.644538792620462"><ele>481.6666666666667</ele><time>2026-03-30T09:14:48Z</time></trkpt><trkpt lat="40.13017769588194" lon="8.644727695439862"><ele>479.33333333333337</ele><time>2026-03-30T09:14:49Z</time></trkpt><trkpt lat="40.13009177137407" lon="8.64490748939411"><ele>477.0</ele><time>2026-03-30T09:14:50Z</time></trkpt><trkpt lat="40.13001750592931" lon="8.645094408762732"><ele>471.33333333333337</ele><time>2026-03-30T09:14:51Z</time></trkpt><trkpt lat="40.12998040876437" lon="8.645306925445189"><ele>465.6666666666667</ele><time>2026-03-30T09:14:52Z</time></trkpt><trkpt lat="40.1299288241631" lon="8.645497557152643"><ele>460.0</ele><time>2026-03-30T09:14:53Z</time></trkpt><trkpt lat="40.12983376379778" lon="8.645620264879618"><ele>464.6666666666667</ele><time>2026-03-30T09:14:54Z</time></trkpt><trkpt lat="40.129795217536305" lon="8.645716458576155"><ele>469.33333333333337</ele><time>2026-03-30T09:14:55Z</time></trkpt><trkpt lat="40.12977122798203" lon="8.645807883323156"><ele>474.0</ele><time>2026-03-30T09:14:56Z</time></trkpt><trkpt lat="40.1297665539531" lon="8.645918120433894"><ele>478.66666666666663</ele><time>2026-03-30T09:14:57Z</time></trkpt><trkpt lat="40.12976342311015" lon="8.646038349896338"><ele>483.3333333333333</ele><time>2026-03-30T09:14:58Z</time></trkpt><trkpt lat="40.12977622245246" lon="8.646145041077935"><ele>488.0</ele><time>2026-03-30T09:14:59Z</time></trkpt><trkpt lat="40.12976359356632" lon="8.646268755760586"><ele>488.0</ele><time>2026-03-30T09:15:01Z</time></trkpt><trkpt lat="40.129917117570706" lon="8.646343520702361"><ele>487.99999999999994</ele><time>2026-03-30T09:15:05Z</time></trkpt><trkpt lat="40.12987325232492" lon="8.646278248844085"><ele>487.99999999999994</ele><time>2026-03-30T09:16:56Z</time></trkpt><trkpt lat="40.12982787681146" lon="8.64635000240697"><ele>488.0</ele><time>2026-03-30T09:17:19Z</time></trkpt><trkpt lat="40.12973103571939" lon="8.646393517878986"><ele>488.0</ele><time>2026-03-30T09:17:22Z</time></trkpt><trkpt lat="40.129695867865465" lon="8.646466143246595"><ele>487.99999999999994</ele><time>2026-03-30T09:17:24Z</time></trkpt><trkpt lat="40.12965456980282" lon="8.646543856324726"><ele>488.0</ele><time>2026-03-30T09:17:26Z</time></trkpt><trkpt lat="40.12959380346449" lon="8.646676255285444"><ele>488.0</ele><time>2026-03-30T09:17:28Z</time></trkpt><trkpt lat="40.12957586639407" lon="8.646771346179314"><ele>488.0</ele><time>2026-03-30T09:17:29Z</time></trkpt><trkpt lat="40.12955719372432" lon="8.646879187076133"><ele>487.99999999999994</ele><time>2026-03-30T09:17:30Z</time></trkpt><trkpt lat="40.129523616859466" lon="8.64698746757095"><ele>488.0</ele><time>2026-03-30T09:17:31Z</time></trkpt><trkpt lat="40.12946138413219" lon="8.647102884107891"><ele>482.75</ele><time>2026-03-30T09:17:32Z</time></trkpt><trkpt lat="40.12936509606544" lon="8.647187127469312"><ele>477.5</ele><time>2026-03-30T09:17:33Z</time></trkpt><trkpt lat="40.129287924574676" lon="8.647303737163533"><ele>472.25</ele><time>2026-03-30T09:17:34Z</time></trkpt><trkpt lat="40.129247111588114" lon="8.647448021775325"><ele>467.0</ele><time>2026-03-30T09:17:35Z</time></trkpt><trkpt lat="40.129178025985844" lon="8.647573425972752"><ele>467.0</ele><time>2026-03-30T09:17:36Z</time></trkpt><trkpt lat="40.1290938968228" lon="8.647710465288402"><ele>467.0</ele><time>2026-03-30T09:17:37Z</time></trkpt><trkpt lat="40.12900034128936" lon="8.64784221621571"><ele>467.0</ele><time>2026-03-30T09:17:38Z</time></trkpt><trkpt lat="40.12889808910154" lon="8.647972598592384"><ele>467.0</ele><time>2026-03-30T09:17:39Z</time></trkpt><trkpt lat="40.12880225621428" lon="8.648116342334136"><ele>467.0</ele><time>2026-03-30T09:17:40Z</time></trkpt><trkpt lat="40.128691906976584" lon="8.648247503524187"><ele>467.0</ele><time>2026-03-30T09:17:41Z</time></trkpt><trkpt lat="40.12858233540208" lon="8.648374080110568"><ele>467.0</ele><time>2026-03-30T09:17:42Z</time></trkpt><trkpt lat="40.1284568104006" lon="8.648474757519207"><ele>467.0</ele><time>2026-03-30T09:17:43Z</time></trkpt><trkpt lat="40.12832715064895" lon="8.648574185889345"><ele>463.75</ele><time>2026-03-30T09:17:44Z</time></trkpt><trkpt lat="40.12821013032404" lon="8.648686012617901"><ele>460.5</ele><time>2026-03-30T09:17:45Z</time></trkpt><trkpt lat="40.128094489946804" lon="8.648806294285064"><ele>457.25</ele><time>2026-03-30T09:17:46Z</time></trkpt><trkpt lat="40.12796109046497" lon="8.648891551042196"><ele>454.0</ele><time>2026-03-30T09:17:47Z</time></trkpt><trkpt lat="40.12780944810308" lon="8.648929173147652"><ele>454.0</ele><time>2026-03-30T09:17:48Z</time></trkpt><trkpt lat="40.12765803896768" lon="8.648952683798996"><ele>454.0</ele><time>2026-03-30T09:17:49Z</time></trkpt><trkpt lat="40.12750705612365" lon="8.648978971512287"><ele>454.0</ele><time>2026-03-30T09:17:50Z</time></trkpt><trkpt lat="40.12735642652971" lon="8.648996140625972"><ele>450.6666666666667</ele><time>2026-03-30T09:17:51Z</time></trkpt><trkpt lat="40.12720747277146" lon="8.648967215879985"><ele>447.33333333333337</ele><time>2026-03-30T09:17:52Z</time></trkpt><trkpt lat="40.12706828064244" lon="8.648888125560976"><ele>444.0</ele><time>2026-03-30T09:17:53Z</time></trkpt><trkpt lat="40.1269374871415" lon="8.648777261137889"><ele>444.0</ele><time>2026-03-30T09:17:54Z</time></trkpt><trkpt lat="40.12681171639273" lon="8.648649919514138"><ele>444.0</ele><time>2026-03-30T09:17:55Z</time></trkpt><trkpt lat="40.126702146871004" lon="8.648509446930102"><ele>444.0</ele><time>2026-03-30T09:17:56Z</time></trkpt><trkpt lat="40.12660246978124" lon="8.648365987435064"><ele>444.75</ele><time>2026-03-30T09:17:57Z</time></trkpt><trkpt lat="40.12651806975191" lon="8.64819717467281"><ele>445.5</ele><time>2026-03-30T09:17:58Z</time></trkpt><trkpt lat="40.126449073445954" lon="8.648025545777232"><ele>446.25</ele><time>2026-03-30T09:17:59Z</time></trkpt><trkpt lat="40.12638540071728" lon="8.647868987718601"><ele>447.0</ele><time>2026-03-30T09:18:00Z</time></trkpt><trkpt lat="40.126317908083145" lon="8.647745565854116"><ele>447.0</ele><time>2026-03-30T09:18:01Z</time></trkpt><trkpt lat="40.126234772611184" lon="8.647664230195744"><ele>447.00000000000006</ele><time>2026-03-30T09:18:02Z</time></trkpt><trkpt lat="40.126136267361865" lon="8.647645712858179"><ele>447.00000000000006</ele><time>2026-03-30T09:18:03Z</time></trkpt><trkpt lat="40.12603470428054" lon="8.647684595629714"><ele>447.0</ele><time>2026-03-30T09:18:04Z</time></trkpt><trkpt lat="40.125943250748186" lon="8.647766093076774"><ele>447.0</ele><time>2026-03-30T09:18:05Z</time></trkpt><trkpt lat="40.12587019145117" lon="8.647869276828716"><ele>447.0</ele><time>2026-03-30T09:18:06Z</time></trkpt><trkpt lat="40.12579589878906" lon="8.647988904711335"><ele>447.0</ele><time>2026-03-30T09:18:07Z</time></trkpt><trkpt lat="40.125721642479455" lon="8.648106952073134"><ele>447.0</ele><time>2026-03-30T09:18:08Z</time></trkpt><trkpt lat="40.12563862995487" lon="8.648215014256476"><ele>447.0</ele><time>2026-03-30T09:18:09Z</time></trkpt><trkpt lat="40.125555979082066" lon="8.6482963406795"><ele>446.40000000000003</ele><time>2026-03-30T09:18:10Z</time></trkpt><trkpt lat="40.1254676944446" lon="8.648342033965891"><ele>445.80000000000007</ele><time>2026-03-30T09:18:11Z</time></trkpt><trkpt lat="40.12537189026836" lon="8.648370529894583"><ele>445.2</ele><time>2026-03-30T09:18:12Z</time></trkpt><trkpt lat="40.12527426373518" lon="8.648371040768138"><ele>444.6</ele><time>2026-03-30T09:18:13Z</time></trkpt><trkpt lat="40.12517590775008" lon="8.648335944088057"><ele>444.0</ele><time>2026-03-30T09:18:14Z</time></trkpt><trkpt lat="40.12507601437809" lon="8.648285696746008"><ele>444.0</ele><time>2026-03-30T09:18:15Z</time></trkpt><trkpt lat="40.12497697403203" lon="8.648215846430386"><ele>444.0</ele><time>2026-03-30T09:18:16Z</time></trkpt><trkpt lat="40.124873176093146" lon="8.648131409475583"><ele>444.0</ele><time>2026-03-30T09:18:17Z</time></trkpt><trkpt lat="40.12475698158853" lon="8.648050351990053"><ele>444.0</ele><time>2026-03-30T09:18:18Z</time></trkpt><trkpt lat="40.12463271345106" lon="8.647970856527209"><ele>443.66666666666663</ele><time>2026-03-30T09:18:19Z</time></trkpt><trkpt lat="40.12450504307768" lon="8.647888403940051"><ele>443.3333333333333</ele><time>2026-03-30T09:18:20Z</time></trkpt><trkpt lat="40.124385587174" lon="8.647803253698157"><ele>443.0</ele><time>2026-03-30T09:18:21Z</time></trkpt><trkpt lat="40.12415062862339" lon="8.647642769567446"><ele>442.3333333333333</ele><time>2026-03-30T09:18:23Z</time></trkpt><trkpt lat="40.12392579879109" lon="8.64751406060667"><ele>441.66666666666663</ele><time>2026-03-30T09:18:25Z</time></trkpt><trkpt lat="40.123812742105336" lon="8.647483112878446"><ele>441.0</ele><time>2026-03-30T09:18:26Z</time></trkpt><trkpt lat="40.12369368181335" lon="8.647491618876327"><ele>441.0</ele><time>2026-03-30T09:18:27Z</time></trkpt><trkpt lat="40.123576327124105" lon="8.64754998356026"><ele>441.0</ele><time>2026-03-30T09:18:28Z</time></trkpt><trkpt lat="40.1234723838177" lon="8.647657535579828"><ele>441.0</ele><time>2026-03-30T09:18:29Z</time></trkpt><trkpt lat="40.12338936883539" lon="8.647801198121364"><ele>441.0</ele><time>2026-03-30T09:18:30Z</time></trkpt><trkpt lat="40.123307167502766" lon="8.64795031144973"><ele>441.75</ele><time>2026-03-30T09:18:31Z</time></trkpt><trkpt lat="40.1232049989562" lon="8.648085021590191"><ele>442.5</ele><time>2026-03-30T09:18:32Z</time></trkpt><trkpt lat="40.12309896742764" lon="8.648222195862546"><ele>443.25</ele><time>2026-03-30T09:18:33Z</time></trkpt><trkpt lat="40.122995976691925" lon="8.648366045460387"><ele>444.0</ele><time>2026-03-30T09:18:34Z</time></trkpt><trkpt lat="40.1228976204712" lon="8.648517845522438"><ele>439.0</ele><time>2026-03-30T09:18:35Z</time></trkpt><trkpt lat="40.12280263625391" lon="8.648673183170407"><ele>434.0</ele><time>2026-03-30T09:18:36Z</time></trkpt><trkpt lat="40.122702809119644" lon="8.648829336768982"><ele>429.0</ele><time>2026-03-30T09:18:37Z</time></trkpt><trkpt lat="40.122604784923006" lon="8.648982518912707"><ele>429.0</ele><time>2026-03-30T09:18:38Z</time></trkpt><trkpt lat="40.122509620306296" lon="8.64913432276247"><ele>429.0</ele><time>2026-03-30T09:18:39Z</time></trkpt><trkpt lat="40.12241347939211" lon="8.649279939429466"><ele>429.0</ele><time>2026-03-30T09:18:40Z</time></trkpt><trkpt lat="40.12231738482855" lon="8.64942706252564"><ele>429.0</ele><time>2026-03-30T09:18:41Z</time></trkpt><trkpt lat="40.12221606966255" lon="8.649579505033712"><ele>429.0</ele><time>2026-03-30T09:18:42Z</time></trkpt><trkpt lat="40.12211023841005" lon="8.649733606081577"><ele>429.0</ele><time>2026-03-30T09:18:43Z</time></trkpt><trkpt lat="40.12199752703355" lon="8.649885374536373"><ele>429.0</ele><time>2026-03-30T09:18:44Z</time></trkpt><trkpt lat="40.121870321797935" lon="8.650022138811174"><ele>429.0</ele><time>2026-03-30T09:18:45Z</time></trkpt><trkpt lat="40.121743638026956" lon="8.650152887163962"><ele>429.0</ele><time>2026-03-30T09:18:46Z</time></trkpt><trkpt lat="40.121602923779015" lon="8.650272688740658"><ele>429.0</ele><time>2026-03-30T09:18:47Z</time></trkpt><trkpt lat="40.12145748067811" lon="8.650378876971365"><ele>424.66666666666663</ele><time>2026-03-30T09:18:48Z</time></trkpt><trkpt lat="40.12130176841336" lon="8.650476085892432"><ele>420.3333333333333</ele><time>2026-03-30T09:18:49Z</time></trkpt><trkpt lat="40.121144540331095" lon="8.650562484970454"><ele>416.0</ele><time>2026-03-30T09:18:50Z</time></trkpt><trkpt lat="40.12099043596403" lon="8.650647644953683"><ele>416.0</ele><time>2026-03-30T09:18:51Z</time></trkpt><trkpt lat="40.120841413495896" lon="8.650729996256675"><ele>416.0</ele><time>2026-03-30T09:18:52Z</time></trkpt><trkpt lat="40.120703323768744" lon="8.650829059955576"><ele>416.0</ele><time>2026-03-30T09:18:53Z</time></trkpt><trkpt lat="40.120564533992344" lon="8.650923858056872"><ele>414.3333333333333</ele><time>2026-03-30T09:18:54Z</time></trkpt><trkpt lat="40.12043460642038" lon="8.651050275071965"><ele>412.66666666666663</ele><time>2026-03-30T09:18:55Z</time></trkpt><trkpt lat="40.120314195714336" lon="8.651207669658984"><ele>411.0</ele><time>2026-03-30T09:18:56Z</time></trkpt><trkpt lat="40.12019445599463" lon="8.651367115259127"><ele>411.0</ele><time>2026-03-30T09:18:57Z</time></trkpt><trkpt lat="40.120071334620626" lon="8.651527392276801"><ele>411.0</ele><time>2026-03-30T09:18:58Z</time></trkpt><trkpt lat="40.11994746474047" lon="8.651686384189992"><ele>411.0</ele><time>2026-03-30T09:18:59Z</time></trkpt><trkpt lat="40.11982947699741" lon="8.651841885572539"><ele>408.66666666666663</ele><time>2026-03-30T09:19:00Z</time></trkpt><trkpt lat="40.119712807130746" lon="8.65198960039601"><ele>406.3333333333333</ele><time>2026-03-30T09:19:01Z</time></trkpt><trkpt lat="40.11958087897132" lon="8.652100740845157"><ele>404.0</ele><time>2026-03-30T09:19:02Z</time></trkpt><trkpt lat="40.119444577350016" lon="8.652198123114315"><ele>404.0</ele><time>2026-03-30T09:19:03Z</time></trkpt><trkpt lat="40.119300953761" lon="8.652275596009112"><ele>404.0</ele><time>2026-03-30T09:19:04Z</time></trkpt><trkpt lat="40.11915655005819" lon="8.652330148727291"><ele>404.0</ele><time>2026-03-30T09:19:05Z</time></trkpt><trkpt lat="40.11901016487498" lon="8.652345995960689"><ele>402.0</ele><time>2026-03-30T09:19:06Z</time></trkpt><trkpt lat="40.11886353404566" lon="8.65231535072544"><ele>400.0</ele><time>2026-03-30T09:19:07Z</time></trkpt><trkpt lat="40.11871579721594" lon="8.652259715635427"><ele>398.0</ele><time>2026-03-30T09:19:08Z</time></trkpt><trkpt lat="40.11855562281072" lon="8.652206454037742"><ele>398.0</ele><time>2026-03-30T09:19:09Z</time></trkpt><trkpt lat="40.11840420700263" lon="8.652140193416843"><ele>398.0</ele><time>2026-03-30T09:19:10Z</time></trkpt><trkpt lat="40.118261633568224" lon="8.652091215560596"><ele>398.0</ele><time>2026-03-30T09:19:11Z</time></trkpt><trkpt lat="40.1181168441939" lon="8.652108202130846"><ele>397.3333333333333</ele><time>2026-03-30T09:19:12Z</time></trkpt><trkpt lat="40.11798208335082" lon="8.652197079694247"><ele>396.66666666666663</ele><time>2026-03-30T09:19:13Z</time></trkpt><trkpt lat="40.11785412732626" lon="8.652313086853757"><ele>396.0</ele><time>2026-03-30T09:19:14Z</time></trkpt><trkpt lat="40.11771805509871" lon="8.652415260141915"><ele>396.0</ele><time>2026-03-30T09:19:15Z</time></trkpt><trkpt lat="40.11757703435794" lon="8.652512142954407"><ele>396.0</ele><time>2026-03-30T09:19:16Z</time></trkpt><trkpt lat="40.117433665487745" lon="8.652609486772334"><ele>396.0</ele><time>2026-03-30T09:19:17Z</time></trkpt><trkpt lat="40.11728068803661" lon="8.652664487229012"><ele>395.33333333333337</ele><time>2026-03-30T09:19:18Z</time></trkpt><trkpt lat="40.117130514691624" lon="8.652741214662736"><ele>394.6666666666667</ele><time>2026-03-30T09:19:19Z</time></trkpt><trkpt lat="40.11698176160223" lon="8.652778138750406"><ele>394.0</ele><time>2026-03-30T09:19:20Z</time></trkpt><trkpt lat="40.11683892570502" lon="8.652806594272834"><ele>394.0</ele><time>2026-03-30T09:19:21Z</time></trkpt><trkpt lat="40.11670039521104" lon="8.652794611060617"><ele>394.0</ele><time>2026-03-30T09:19:22Z</time></trkpt><trkpt lat="40.116593345524045" lon="8.652695706368377"><ele>394.0</ele><time>2026-03-30T09:19:23Z</time></trkpt><trkpt lat="40.11651938945273" lon="8.652570882250942"><ele>394.0</ele><time>2026-03-30T09:19:24Z</time></trkpt><trkpt lat="40.11643942481598" lon="8.652433935708519"><ele>392.5</ele><time>2026-03-30T09:19:25Z</time></trkpt><trkpt lat="40.11636656199448" lon="8.652281622153936"><ele>391.0</ele><time>2026-03-30T09:19:26Z</time></trkpt><trkpt lat="40.116274638229235" lon="8.65214267799573"><ele>389.5</ele><time>2026-03-30T09:19:27Z</time></trkpt><trkpt lat="40.11617724393182" lon="8.651998046902523"><ele>388.0</ele><time>2026-03-30T09:19:28Z</time></trkpt><trkpt lat="40.116093758059364" lon="8.651847514437613"><ele>388.0</ele><time>2026-03-30T09:19:29Z</time></trkpt><trkpt lat="40.11601415187313" lon="8.6517056603197"><ele>388.0</ele><time>2026-03-30T09:19:30Z</time></trkpt><trkpt lat="40.115932468969554" lon="8.651587066966934"><ele>388.0</ele><time>2026-03-30T09:19:31Z</time></trkpt><trkpt lat="40.115834575441966" lon="8.651513290834643"><ele>388.0</ele><time>2026-03-30T09:19:32Z</time></trkpt><trkpt lat="40.11572077088817" lon="8.651491981735083"><ele>388.2</ele><time>2026-03-30T09:19:33Z</time></trkpt><trkpt lat="40.11561231743402" lon="8.651518135641046"><ele>388.4</ele><time>2026-03-30T09:19:34Z</time></trkpt><trkpt lat="40.11552941559977" lon="8.651595076551626"><ele>388.59999999999997</ele><time>2026-03-30T09:19:35Z</time></trkpt><trkpt lat="40.115485767592794" lon="8.651716841096723"><ele>388.79999999999995</ele><time>2026-03-30T09:19:36Z</time></trkpt><trkpt lat="40.11548395329009" lon="8.651849658404995"><ele>389.0</ele><time>2026-03-30T09:19:37Z</time></trkpt><trkpt lat="40.11549742620109" lon="8.651992330414819"><ele>389.0</ele><time>2026-03-30T09:19:38Z</time></trkpt><trkpt lat="40.11549339339939" lon="8.652134352834421"><ele>389.0</ele><time>2026-03-30T09:19:39Z</time></trkpt><trkpt lat="40.11548032817314" lon="8.652291618885396"><ele>389.0</ele><time>2026-03-30T09:19:40Z</time></trkpt><trkpt lat="40.11546609924214" lon="8.652458156836055"><ele>389.0</ele><time>2026-03-30T09:19:41Z</time></trkpt><trkpt lat="40.115454675119494" lon="8.652635055244016"><ele>386.75</ele><time>2026-03-30T09:19:42Z</time></trkpt><trkpt lat="40.115442488548965" lon="8.652821405827595"><ele>384.5</ele><time>2026-03-30T09:19:43Z</time></trkpt><trkpt lat="40.115404210912004" lon="8.653007147681922"><ele>382.25</ele><time>2026-03-30T09:19:44Z</time></trkpt><trkpt lat="40.11536448331672" lon="8.653191817155665"><ele>380.0</ele><time>2026-03-30T09:19:45Z</time></trkpt><trkpt lat="40.1153100062073" lon="8.653366302582128"><ele>380.0</ele><time>2026-03-30T09:19:46Z</time></trkpt><trkpt lat="40.115236290733826" lon="8.653524759650454"><ele>380.0</ele><time>2026-03-30T09:19:47Z</time></trkpt><trkpt lat="40.11514497840079" lon="8.653676217682868"><ele>380.0</ele><time>2026-03-30T09:19:48Z</time></trkpt><trkpt lat="40.115061219782206" lon="8.653836146005291"><ele>380.0</ele><time>2026-03-30T09:19:49Z</time></trkpt><trkpt lat="40.114963594880685" lon="8.653976965602658"><ele>377.5</ele><time>2026-03-30T09:19:50Z</time></trkpt><trkpt lat="40.11486263019729" lon="8.654117958319468"><ele>375.0</ele><time>2026-03-30T09:19:51Z</time></trkpt><trkpt lat="40.11473687909232" lon="8.65421915063905"><ele>372.5</ele><time>2026-03-30T09:19:52Z</time></trkpt><trkpt lat="40.114612181440584" lon="8.654325684734527"><ele>370.0</ele><time>2026-03-30T09:19:53Z</time></trkpt><trkpt lat="40.114493900886714" lon="8.654433018612252"><ele>367.0</ele><time>2026-03-30T09:19:54Z</time></trkpt><trkpt lat="40.11436738222613" lon="8.654498396488803"><ele>364.0</ele><time>2026-03-30T09:19:55Z</time></trkpt><trkpt lat="40.114240273286285" lon="8.654524855087285"><ele>361.0</ele><time>2026-03-30T09:19:56Z</time></trkpt><trkpt lat="40.11411261937171" lon="8.654485942952912"><ele>358.0</ele><time>2026-03-30T09:19:57Z</time></trkpt><trkpt lat="40.11398234400294" lon="8.65447822326771"><ele>358.0</ele><time>2026-03-30T09:19:58Z</time></trkpt><trkpt lat="40.11385640161949" lon="8.65444484659922"><ele>358.0</ele><time>2026-03-30T09:19:59Z</time></trkpt><trkpt lat="40.11372695926738" lon="8.654432165854132"><ele>358.0</ele><time>2026-03-30T09:20:00Z</time></trkpt><trkpt lat="40.113602477882935" lon="8.65446947696284"><ele>358.0</ele><time>2026-03-30T09:20:01Z</time></trkpt><trkpt lat="40.11348929728062" lon="8.654538735134453"><ele>358.0</ele><time>2026-03-30T09:20:02Z</time></trkpt><trkpt lat="40.11339853227804" lon="8.65464763780409"><ele>358.0</ele><time>2026-03-30T09:20:03Z</time></trkpt><trkpt lat="40.11331779574835" lon="8.654767372966084"><ele>358.0</ele><time>2026-03-30T09:20:04Z</time></trkpt><trkpt lat="40.113229026339724" lon="8.654873755763537"><ele>358.0</ele><time>2026-03-30T09:20:05Z</time></trkpt><trkpt lat="40.113119985509044" lon="8.654963897021952"><ele>358.5</ele><time>2026-03-30T09:20:06Z</time></trkpt><trkpt lat="40.11299792475986" lon="8.655047760392616"><ele>359.0</ele><time>2026-03-30T09:20:07Z</time></trkpt><trkpt lat="40.11286750051992" lon="8.655130240653754"><ele>359.5</ele><time>2026-03-30T09:20:08Z</time></trkpt><trkpt lat="40.112734219262286" lon="8.655208536017245"><ele>360.0</ele><time>2026-03-30T09:20:09Z</time></trkpt><trkpt lat="40.11260172153568" lon="8.655272235355703"><ele>357.0</ele><time>2026-03-30T09:20:10Z</time></trkpt><trkpt lat="40.11246938734932" lon="8.65534154289582"><ele>354.0</ele><time>2026-03-30T09:20:11Z</time></trkpt><trkpt lat="40.112334226530194" lon="8.655391140719333"><ele>351.0</ele><time>2026-03-30T09:20:12Z</time></trkpt><trkpt lat="40.11219304052862" lon="8.65537809997362"><ele>348.0</ele><time>2026-03-30T09:20:13Z</time></trkpt><trkpt lat="40.112049531730705" lon="8.655381750986384"><ele>346.5</ele><time>2026-03-30T09:20:14Z</time></trkpt><trkpt lat="40.11190202118992" lon="8.655367370968047"><ele>345.0</ele><time>2026-03-30T09:20:15Z</time></trkpt><trkpt lat="40.11176332218076" lon="8.655359915541954"><ele>343.5</ele><time>2026-03-30T09:20:16Z</time></trkpt><trkpt lat="40.11164297235036" lon="8.655341255501922"><ele>342.0</ele><time>2026-03-30T09:20:17Z</time></trkpt><trkpt lat="40.1115296122033" lon="8.655267649803095"><ele>342.0</ele><time>2026-03-30T09:20:18Z</time></trkpt><trkpt lat="40.11145426876081" lon="8.65512558022244"><ele>342.0</ele><time>2026-03-30T09:20:19Z</time></trkpt><trkpt lat="40.11135844157323" lon="8.655005983303745"><ele>342.0</ele><time>2026-03-30T09:20:20Z</time></trkpt><trkpt lat="40.11126046747656" lon="8.654890568125108"><ele>342.0</ele><time>2026-03-30T09:20:21Z</time></trkpt><trkpt lat="40.111134262243354" lon="8.654821432136929"><ele>342.0</ele><time>2026-03-30T09:20:22Z</time></trkpt><trkpt lat="40.11099338745121" lon="8.654792694392814"><ele>342.0</ele><time>2026-03-30T09:20:23Z</time></trkpt><trkpt lat="40.11085271276104" lon="8.654795871706522"><ele>342.0</ele><time>2026-03-30T09:20:24Z</time></trkpt><trkpt lat="40.11072090858254" lon="8.65481517361944"><ele>342.0</ele><time>2026-03-30T09:20:25Z</time></trkpt><trkpt lat="40.11059402442018" lon="8.65482998206463"><ele>341.20000000000005</ele><time>2026-03-30T09:20:25.999Z</time></trkpt><trkpt lat="40.11048345830469" lon="8.654825591808107"><ele>340.4</ele><time>2026-03-30T09:20:26.999Z</time></trkpt><trkpt lat="40.110398726878664" lon="8.654782325884645"><ele>339.6</ele><time>2026-03-30T09:20:27.999Z</time></trkpt><trkpt lat="40.1103359502677" lon="8.654691880417294"><ele>338.79999999999995</ele><time>2026-03-30T09:20:28.999Z</time></trkpt><trkpt lat="40.110295363162194" lon="8.654564919240983"><ele>338.0</ele><time>2026-03-30T09:20:29.999Z</time></trkpt><trkpt lat="40.11026536981107" lon="8.654423718151687"><ele>338.0</ele><time>2026-03-30T09:20:30.999Z</time></trkpt><trkpt lat="40.110243806599854" lon="8.65429381299399"><ele>338.0</ele><time>2026-03-30T09:20:31.999Z</time></trkpt><trkpt lat="40.11022363940396" lon="8.65418631754198"><ele>338.0</ele><time>2026-03-30T09:20:32.999Z</time></trkpt><trkpt lat="40.110202925025234" lon="8.654092042244834"><ele>338.0</ele><time>2026-03-30T09:20:33.999Z</time></trkpt><trkpt lat="40.110175547430664" lon="8.654002903851406"><ele>338.0</ele><time>2026-03-30T09:20:34.999Z</time></trkpt><trkpt lat="40.110135861104794" lon="8.653904011174621"><ele>338.0</ele><time>2026-03-30T09:20:35.999Z</time></trkpt><trkpt lat="40.11008629829782" lon="8.653797714317317"><ele>338.0</ele><time>2026-03-30T09:20:36.999Z</time></trkpt><trkpt lat="40.110016856556804" lon="8.653703460458484"><ele>338.0</ele><time>2026-03-30T09:20:37.999Z</time></trkpt><trkpt lat="40.10992434821712" lon="8.65364361921729"><ele>338.0</ele><time>2026-03-30T09:20:38.999Z</time></trkpt><trkpt lat="40.109817713287356" lon="8.653612383124319"><ele>338.0</ele><time>2026-03-30T09:20:39.999Z</time></trkpt><trkpt lat="40.109696834403806" lon="8.65361997316033"><ele>338.0</ele><time>2026-03-30T09:20:40.999Z</time></trkpt><trkpt lat="40.10958062160338" lon="8.653659416879204"><ele>336.25</ele><time>2026-03-30T09:20:41.999Z</time></trkpt><trkpt lat="40.10946489768607" lon="8.653729295623183"><ele>334.5</ele><time>2026-03-30T09:20:42.999Z</time></trkpt><trkpt lat="40.10934868286471" lon="8.653805491639552"><ele>332.75</ele><time>2026-03-30T09:20:43.999Z</time></trkpt><trkpt lat="40.10922638454163" lon="8.653877287688102"><ele>331.0</ele><time>2026-03-30T09:20:44.999Z</time></trkpt><trkpt lat="40.10909870256761" lon="8.653948690905954"><ele>331.0</ele><time>2026-03-30T09:20:45.999Z</time></trkpt><trkpt lat="40.10896959287233" lon="8.654020958314119"><ele>331.0</ele><time>2026-03-30T09:20:46.999Z</time></trkpt><trkpt lat="40.108841054565765" lon="8.654071791261043"><ele>331.0</ele><time>2026-03-30T09:20:47.999Z</time></trkpt><trkpt lat="40.108706301967395" lon="8.654086141220498"><ele>331.0</ele><time>2026-03-30T09:20:48.999Z</time></trkpt><trkpt lat="40.10856422024289" lon="8.654074319974999"><ele>331.0</ele><time>2026-03-30T09:20:49.999Z</time></trkpt><trkpt lat="40.108424587264345" lon="8.654069554230922"><ele>331.0</ele><time>2026-03-30T09:20:50.999Z</time></trkpt><trkpt lat="40.10829493920069" lon="8.654108190271039"><ele>331.0</ele><time>2026-03-30T09:20:51.999Z</time></trkpt><trkpt lat="40.108178308692935" lon="8.654201126054266"><ele>331.0</ele><time>2026-03-30T09:20:52.999Z</time></trkpt><trkpt lat="40.1080718781021" lon="8.654317687922385"><ele>330.25</ele><time>2026-03-30T09:20:53.999Z</time></trkpt><trkpt lat="40.107970587974734" lon="8.654428764471557"><ele>329.5</ele><time>2026-03-30T09:20:54.999Z</time></trkpt><trkpt lat="40.10786460468115" lon="8.654504697120922"><ele>328.75</ele><time>2026-03-30T09:20:55.999Z</time></trkpt><trkpt lat="40.107742838627054" lon="8.65453788128206"><ele>328.0</ele><time>2026-03-30T09:20:56.999Z</time></trkpt><trkpt lat="40.10761831339723" lon="8.654490707627726"><ele>325.75</ele><time>2026-03-30T09:20:57.999Z</time></trkpt><trkpt lat="40.10748018222496" lon="8.654465986018115"><ele>323.5</ele><time>2026-03-30T09:20:58.999Z</time></trkpt><trkpt lat="40.10734174320223" lon="8.654416758999854"><ele>321.25</ele><time>2026-03-30T09:20:59.999Z</time></trkpt><trkpt lat="40.10720013408328" lon="8.654374549367366"><ele>319.0</ele><time>2026-03-30T09:21:00.999Z</time></trkpt><trkpt lat="40.107063845337656" lon="8.65431330750351"><ele>318.25</ele><time>2026-03-30T09:21:01.999Z</time></trkpt><trkpt lat="40.106930952870336" lon="8.654215243938246"><ele>317.5</ele><time>2026-03-30T09:21:02.999Z</time></trkpt><trkpt lat="40.10681906161255" lon="8.654094083835236"><ele>316.75</ele><time>2026-03-30T09:21:03.999Z</time></trkpt><trkpt lat="40.10673473676322" lon="8.653962952089545"><ele>316.0</ele><time>2026-03-30T09:21:04.999Z</time></trkpt><trkpt lat="40.10670297918018" lon="8.653804749813808"><ele>316.0</ele><time>2026-03-30T09:21:05.999Z</time></trkpt><trkpt lat="40.10668055730396" lon="8.653649198984512"><ele>316.0</ele><time>2026-03-30T09:21:06.999Z</time></trkpt><trkpt lat="40.10665960855677" lon="8.653496672254187"><ele>316.0</ele><time>2026-03-30T09:21:07.999Z</time></trkpt><trkpt lat="40.1066239057813" lon="8.653354548615205"><ele>316.0</ele><time>2026-03-30T09:21:08.999Z</time></trkpt><trkpt lat="40.10653852613134" lon="8.653259157834148"><ele>316.6</ele><time>2026-03-30T09:21:09.999Z</time></trkpt><trkpt lat="40.1064358138956" lon="8.653234724977272"><ele>317.20000000000005</ele><time>2026-03-30T09:21:10.999Z</time></trkpt><trkpt lat="40.10633010995042" lon="8.653272986186577"><ele>317.79999999999995</ele><time>2026-03-30T09:21:11.999Z</time></trkpt><trkpt lat="40.106238795421426" lon="8.653359478516666"><ele>318.4</ele><time>2026-03-30T09:21:12.999Z</time></trkpt><trkpt lat="40.10615650413787" lon="8.653465149717507"><ele>319.0</ele><time>2026-03-30T09:21:13.999Z</time></trkpt><trkpt lat="40.10607095887716" lon="8.653578399975785"><ele>316.25</ele><time>2026-03-30T09:21:14.999Z</time></trkpt><trkpt lat="40.10597944317199" lon="8.65369209172583"><ele>313.5</ele><time>2026-03-30T09:21:15.999Z</time></trkpt><trkpt lat="40.105891533279916" lon="8.65380020908497"><ele>310.75</ele><time>2026-03-30T09:21:16.999Z</time></trkpt><trkpt lat="40.10579564772798" lon="8.653903553152999"><ele>308.0</ele><time>2026-03-30T09:21:17.999Z</time></trkpt><trkpt lat="40.105695999791884" lon="8.653992078161771"><ele>307.5</ele><time>2026-03-30T09:21:18.999Z</time></trkpt><trkpt lat="40.1055825646372" lon="8.654041419888634"><ele>307.0</ele><time>2026-03-30T09:21:19.999Z</time></trkpt><trkpt lat="40.10546059382803" lon="8.6540569644232"><ele>306.5</ele><time>2026-03-30T09:21:20.999Z</time></trkpt><trkpt lat="40.10533294321366" lon="8.654056454188714"><ele>306.0</ele><time>2026-03-30T09:21:21.999Z</time></trkpt><trkpt lat="40.105196937632115" lon="8.654050166692505"><ele>306.0</ele><time>2026-03-30T09:21:22.999Z</time></trkpt><trkpt lat="40.105066573468676" lon="8.654043277251096"><ele>306.0</ele><time>2026-03-30T09:21:23.999Z</time></trkpt><trkpt lat="40.104936125257026" lon="8.654035229073344"><ele>306.0</ele><time>2026-03-30T09:21:24.999Z</time></trkpt><trkpt lat="40.10480668520931" lon="8.654025053105544"><ele>306.0</ele><time>2026-03-30T09:21:25.999Z</time></trkpt><trkpt lat="40.10468226234687" lon="8.65399646352835"><ele>303.75</ele><time>2026-03-30T09:21:26.999Z</time></trkpt><trkpt lat="40.104553954098755" lon="8.653952335066307"><ele>301.5</ele><time>2026-03-30T09:21:27.999Z</time></trkpt><trkpt lat="40.10441668752127" lon="8.653909055906425"><ele>299.25</ele><time>2026-03-30T09:21:28.999Z</time></trkpt><trkpt lat="40.1042792565937" lon="8.65387638214301"><ele>297.0</ele><time>2026-03-30T09:21:29.999Z</time></trkpt><trkpt lat="40.10415174014738" lon="8.653831523624717"><ele>297.75</ele><time>2026-03-30T09:21:30.999Z</time></trkpt><trkpt lat="40.104022078053795" lon="8.653803752811617"><ele>298.5</ele><time>2026-03-30T09:21:31.999Z</time></trkpt><trkpt lat="40.1038999966082" lon="8.653752930594974"><ele>299.25</ele><time>2026-03-30T09:21:32.999Z</time></trkpt><trkpt lat="40.10378670755046" lon="8.653675776480096"><ele>300.0</ele><time>2026-03-30T09:21:33.999Z</time></trkpt><trkpt lat="40.10368077192135" lon="8.653590675916055"><ele>300.0</ele><time>2026-03-30T09:21:34.999Z</time></trkpt><trkpt lat="40.10357484014396" lon="8.653512532023301"><ele>300.0</ele><time>2026-03-30T09:21:35.999Z</time></trkpt><trkpt lat="40.10347027955118" lon="8.653439792446257"><ele>300.0</ele><time>2026-03-30T09:21:36.999Z</time></trkpt><trkpt lat="40.10337192949358" lon="8.653365711428606"><ele>300.0</ele><time>2026-03-30T09:21:37.999Z</time></trkpt><trkpt lat="40.10327425196883" lon="8.653309459819152"><ele>300.0</ele><time>2026-03-30T09:21:38.999Z</time></trkpt><trkpt lat="40.10317190661619" lon="8.653307841542752"><ele>300.0</ele><time>2026-03-30T09:21:39.999Z</time></trkpt><trkpt lat="40.10307003845939" lon="8.653340199268703"><ele>300.0</ele><time>2026-03-30T09:21:40.999Z</time></trkpt><trkpt lat="40.10297888787923" lon="8.653394920608902"><ele>300.0</ele><time>2026-03-30T09:21:41.999Z</time></trkpt><trkpt lat="40.10289722241014" lon="8.65346683417809"><ele>300.0</ele><time>2026-03-30T09:21:42.999Z</time></trkpt><trkpt lat="40.102820193179696" lon="8.653545185649309"><ele>300.0</ele><time>2026-03-30T09:21:43.999Z</time></trkpt><trkpt lat="40.10274327330059" lon="8.653621706781882"><ele>300.0</ele><time>2026-03-30T09:21:44.999Z</time></trkpt><trkpt lat="40.102663530228796" lon="8.653698374303183"><ele>300.0</ele><time>2026-03-30T09:21:45.999Z</time></trkpt><trkpt lat="40.1025780034407" lon="8.65377523276819"><ele>300.0</ele><time>2026-03-30T09:21:46.999Z</time></trkpt><trkpt lat="40.102489840554256" lon="8.65384944822324"><ele>300.0</ele><time>2026-03-30T09:21:47.999Z</time></trkpt><trkpt lat="40.1023990570847" lon="8.653921572731518"><ele>298.0</ele><time>2026-03-30T09:21:48.999Z</time></trkpt><trkpt lat="40.10230146424836" lon="8.653982071829516"><ele>296.0</ele><time>2026-03-30T09:21:49.999Z</time></trkpt><trkpt lat="40.102199454470195" lon="8.654038920966542"><ele>294.0</ele><time>2026-03-30T09:21:50.999Z</time></trkpt><trkpt lat="40.10208933574123" lon="8.654083581945931"><ele>292.0</ele><time>2026-03-30T09:21:51.999Z</time></trkpt><trkpt lat="40.10198089728605" lon="8.654132889107492"><ele>290.0</ele><time>2026-03-30T09:21:52.999Z</time></trkpt><trkpt lat="40.101875360918925" lon="8.654182116773"><ele>290.0</ele><time>2026-03-30T09:21:53.999Z</time></trkpt><trkpt lat="40.10177269946877" lon="8.654229292593504"><ele>290.0</ele><time>2026-03-30T09:21:54.999Z</time></trkpt><trkpt lat="40.101668387063114" lon="8.654270162450823"><ele>290.0</ele><time>2026-03-30T09:21:55.999Z</time></trkpt><trkpt lat="40.10155866083471" lon="8.654306465512951"><ele>290.0</ele><time>2026-03-30T09:21:56.999Z</time></trkpt><trkpt lat="40.10144091021165" lon="8.65433995651293"><ele>290.5</ele><time>2026-03-30T09:21:57.999Z</time></trkpt><trkpt lat="40.10131784301403" lon="8.654372535801928"><ele>291.0</ele><time>2026-03-30T09:21:58.999Z</time></trkpt><trkpt lat="40.10119659918533" lon="8.654405003230934"><ele>291.5</ele><time>2026-03-30T09:21:59.999Z</time></trkpt><trkpt lat="40.10107858548909" lon="8.654431253618005"><ele>292.0</ele><time>2026-03-30T09:22:00.999Z</time></trkpt><trkpt lat="40.100850569338206" lon="8.654491213422133"><ele>288.25</ele><time>2026-03-30T09:22:02.999Z</time></trkpt><trkpt lat="40.100645740548856" lon="8.654545280449337"><ele>284.5</ele><time>2026-03-30T09:22:04.999Z</time></trkpt><trkpt lat="40.10055256714265" lon="8.65456743255526"><ele>280.75</ele><time>2026-03-30T09:22:05.999Z</time></trkpt><trkpt lat="40.100461779119655" lon="8.654584371065713"><ele>277.0</ele><time>2026-03-30T09:22:06.999Z</time></trkpt><trkpt lat="40.10037309869852" lon="8.654600211801144"><ele>277.0</ele><time>2026-03-30T09:22:07.999Z</time></trkpt><trkpt lat="40.10028490208033" lon="8.65462071154416"><ele>277.0</ele><time>2026-03-30T09:22:08.999Z</time></trkpt><trkpt lat="40.100197307073735" lon="8.654642723121702"><ele>277.0</ele><time>2026-03-30T09:22:09.999Z</time></trkpt><trkpt lat="40.100107836824655" lon="8.65466627962983"><ele>277.0</ele><time>2026-03-30T09:22:10.999Z</time></trkpt><trkpt lat="40.100017137906356" lon="8.654693035393544"><ele>277.0</ele><time>2026-03-30T09:22:11.999Z</time></trkpt><trkpt lat="40.09992455337932" lon="8.654716879384797"><ele>276.16666666666663</ele><time>2026-03-30T09:22:12.999Z</time></trkpt><trkpt lat="40.09983495044465" lon="8.654740225823094"><ele>275.3333333333333</ele><time>2026-03-30T09:22:13.999Z</time></trkpt><trkpt lat="40.09974761033339" lon="8.654761005306288"><ele>274.5</ele><time>2026-03-30T09:22:14.999Z</time></trkpt><trkpt lat="40.09966260885298" lon="8.654782067810276"><ele>273.6666666666667</ele><time>2026-03-30T09:22:15.999Z</time></trkpt><trkpt lat="40.099575620763666" lon="8.654803261448246"><ele>272.83333333333337</ele><time>2026-03-30T09:22:16.999Z</time></trkpt><trkpt lat="40.09949108879383" lon="8.654831300673578"><ele>272.0</ele><time>2026-03-30T09:22:17.999Z</time></trkpt><trkpt lat="40.099410808004215" lon="8.654859226989226"><ele>272.0</ele><time>2026-03-30T09:22:18.999Z</time></trkpt><trkpt lat="40.099325511355936" lon="8.654877195642195"><ele>272.0</ele><time>2026-03-30T09:22:19.999Z</time></trkpt><trkpt lat="40.099243419489994" lon="8.654870397618998"><ele>272.0</ele><time>2026-03-30T09:22:20.999Z</time></trkpt><trkpt lat="40.099176443784856" lon="8.654854477104797"><ele>272.0</ele><time>2026-03-30T09:22:21.999Z</time></trkpt><trkpt lat="40.099069499465145" lon="8.654820529034975"><ele>272.0</ele><time>2026-03-30T09:22:23.999Z</time></trkpt><trkpt lat="40.098964611626876" lon="8.654823822335661"><ele>271.0</ele><time>2026-03-30T09:22:25.999Z</time></trkpt><trkpt lat="40.09890311594744" lon="8.654844835999517"><ele>270.0</ele><time>2026-03-30T09:22:26.999Z</time></trkpt><trkpt lat="40.09878763696823" lon="8.654867471018104"><ele>269.0</ele><time>2026-03-30T09:22:28.999Z</time></trkpt><trkpt lat="40.098717692176336" lon="8.65487782110233"><ele>268.0</ele><time>2026-03-30T09:22:29.999Z</time></trkpt><trkpt lat="40.09865243134297" lon="8.654906040807498"><ele>267.0</ele><time>2026-03-30T09:22:30.999Z</time></trkpt><trkpt lat="40.09858488924986" lon="8.654906848303817"><ele>266.0</ele><time>2026-03-30T09:22:31.999Z</time></trkpt><trkpt lat="40.098511716654905" lon="8.654917337074437"><ele>266.0</ele><time>2026-03-30T09:22:32.999Z</time></trkpt><trkpt lat="40.09843173540395" lon="8.65493157182571"><ele>266.0</ele><time>2026-03-30T09:22:33.999Z</time></trkpt><trkpt lat="40.098368845210956" lon="8.654886266140823"><ele>266.0</ele><time>2026-03-30T09:22:34.999Z</time></trkpt><trkpt lat="40.09830945481513" lon="8.654853573288847"><ele>266.0</ele><time>2026-03-30T09:22:35.999Z</time></trkpt><trkpt lat="40.09824243054303" lon="8.654830127899052"><ele>266.0</ele><time>2026-03-30T09:22:36.999Z</time></trkpt><trkpt lat="40.09813684065039" lon="8.654815204545125"><ele>266.0</ele><time>2026-03-30T09:22:38.999Z</time></trkpt><trkpt lat="40.098049606746535" lon="8.654853198474004"><ele>266.0</ele><time>2026-03-30T09:22:41.999Z</time></trkpt><trkpt lat="40.097969697896865" lon="8.654855247281494"><ele>266.0</ele><time>2026-03-30T09:22:43.999Z</time></trkpt><trkpt lat="40.09788832708593" lon="8.654882341333778"><ele>266.0</ele><time>2026-03-30T09:22:45.999Z</time></trkpt><trkpt lat="40.09780609098306" lon="8.654903367911984"><ele>266.0</ele><time>2026-03-30T09:22:47.999Z</time></trkpt><trkpt lat="40.097716043749124" lon="8.654936056460317"><ele>266.0</ele><time>2026-03-30T09:22:49.999Z</time></trkpt><trkpt lat="40.09765688603248" lon="8.655002344593424"><ele>266.0</ele><time>2026-03-30T09:22:51.999Z</time></trkpt><trkpt lat="40.09759737514069" lon="8.655042359734614"><ele>266.0</ele><time>2026-03-30T09:22:54.999Z</time></trkpt><trkpt lat="40.097533038971704" lon="8.655088914935371"><ele>266.0</ele><time>2026-03-30T09:22:56.999Z</time></trkpt><trkpt lat="40.097434332512414" lon="8.655151009217208"><ele>266.0</ele><time>2026-03-30T09:22:58.999Z</time></trkpt><trkpt lat="40.09737309596415" lon="8.655179089995949"><ele>266.0</ele><time>2026-03-30T09:22:59.999Z</time></trkpt><trkpt lat="40.09730381610191" lon="8.65520346160286"><ele>266.0</ele><time>2026-03-30T09:23:00.999Z</time></trkpt><trkpt lat="40.09723250258224" lon="8.655210230733818"><ele>266.0</ele><time>2026-03-30T09:23:01.999Z</time></trkpt><trkpt lat="40.09715538602167" lon="8.655240232820853"><ele>265.5</ele><time>2026-03-30T09:23:02.999Z</time></trkpt><trkpt lat="40.097085143577075" lon="8.655256501376476"><ele>265.0</ele><time>2026-03-30T09:23:03.999Z</time></trkpt><trkpt lat="40.09699037323659" lon="8.655302088839747"><ele>264.5</ele><time>2026-03-30T09:23:05.999Z</time></trkpt><trkpt lat="40.096882194677065" lon="8.65533230438302"><ele>264.0</ele><time>2026-03-30T09:23:07.999Z</time></trkpt><trkpt lat="40.09679276335292" lon="8.65534102919858"><ele>263.5</ele><time>2026-03-30T09:23:10Z</time></trkpt><trkpt lat="40.09672895325196" lon="8.655355515066303"><ele>263.0</ele><time>2026-03-30T09:23:13Z</time></trkpt><trkpt lat="40.09664786831592" lon="8.655394904803043"><ele>261.0</ele><time>2026-03-30T09:23:16Z</time></trkpt><trkpt lat="40.096582795221664" lon="8.655432231334272"><ele>259.0</ele><time>2026-03-30T09:23:18Z</time></trkpt><trkpt lat="40.096493167009356" lon="8.6554515007043"><ele>257.0</ele><time>2026-03-30T09:23:20Z</time></trkpt><trkpt lat="40.09637634603863" lon="8.655474645268585"><ele>255.0</ele><time>2026-03-30T09:23:22Z</time></trkpt><trkpt lat="40.09627331838145" lon="8.655517036511725"><ele>253.0</ele><time>2026-03-30T09:23:24Z</time></trkpt><trkpt lat="40.09615787569513" lon="8.655538121999173"><ele>253.00000000000003</ele><time>2026-03-30T09:23:26Z</time></trkpt><trkpt lat="40.09608645887964" lon="8.65551183963065"><ele>253.0</ele><time>2026-03-30T09:23:27Z</time></trkpt><trkpt lat="40.09604801389989" lon="8.655442632000929"><ele>253.00000000000003</ele><time>2026-03-30T09:23:28Z</time></trkpt><trkpt lat="40.09599693237845" lon="8.655383789532602"><ele>253.00000000000003</ele><time>2026-03-30T09:23:29Z</time></trkpt><trkpt lat="40.09594420245969" lon="8.655322079545668"><ele>253.0</ele><time>2026-03-30T09:23:30Z</time></trkpt><trkpt lat="40.095889338209275" lon="8.655257871774397"><ele>253.00000000000003</ele><time>2026-03-30T09:23:31Z</time></trkpt><trkpt lat="40.095834787466124" lon="8.655194030895405"><ele>253.00000000000003</ele><time>2026-03-30T09:23:32Z</time></trkpt><trkpt lat="40.0957775596068" lon="8.655127056970112"><ele>252.99999999999997</ele><time>2026-03-30T09:23:33Z</time></trkpt><trkpt lat="40.09572365786074" lon="8.655063800054217"><ele>253.0</ele><time>2026-03-30T09:23:34Z</time></trkpt><trkpt lat="40.095667304084905" lon="8.654997088807285"><ele>253.0</ele><time>2026-03-30T09:23:35Z</time></trkpt><trkpt lat="40.095611797898194" lon="8.65493138078989"><ele>253.0</ele><time>2026-03-30T09:23:36Z</time></trkpt><trkpt lat="40.09555256255024" lon="8.65486415837638"><ele>252.99999999999997</ele><time>2026-03-30T09:23:37Z</time></trkpt><trkpt lat="40.09549354376359" lon="8.65480124931529"><ele>253.0</ele><time>2026-03-30T09:23:38Z</time></trkpt><trkpt lat="40.09543301335099" lon="8.654741345030768"><ele>252.99999999999997</ele><time>2026-03-30T09:23:39Z</time></trkpt><trkpt lat="40.0953664420726" lon="8.654683826709942"><ele>253.0</ele><time>2026-03-30T09:23:40Z</time></trkpt><trkpt lat="40.09530204407941" lon="8.654632412117984"><ele>253.0</ele><time>2026-03-30T09:23:41Z</time></trkpt><trkpt lat="40.09523384677948" lon="8.654579363633232"><ele>253.0</ele><time>2026-03-30T09:23:42Z</time></trkpt><trkpt lat="40.09516610268302" lon="8.654529190555525"><ele>252.99999999999997</ele><time>2026-03-30T09:23:43Z</time></trkpt><trkpt lat="40.09509991752123" lon="8.654480171963895"><ele>253.0</ele><time>2026-03-30T09:23:44Z</time></trkpt><trkpt lat="40.09503166548487" lon="8.654429622687339"><ele>253.49999999999997</ele><time>2026-03-30T09:23:45Z</time></trkpt><trkpt lat="40.09495789636637" lon="8.654397154487125"><ele>254.0</ele><time>2026-03-30T09:23:46Z</time></trkpt><trkpt lat="40.094889399983096" lon="8.654343480226446"><ele>254.5</ele><time>2026-03-30T09:23:47Z</time></trkpt><trkpt lat="40.09481886467998" lon="8.654291965637562"><ele>255.0</ele><time>2026-03-30T09:23:48Z</time></trkpt><trkpt lat="40.094756045691966" lon="8.654215805792996"><ele>255.49999999999997</ele><time>2026-03-30T09:23:49Z</time></trkpt><trkpt lat="40.09468651511547" lon="8.654160164400034"><ele>256.0</ele><time>2026-03-30T09:23:50Z</time></trkpt><trkpt lat="40.09461598439005" lon="8.6541037229513"><ele>255.99999999999997</ele><time>2026-03-30T09:23:51Z</time></trkpt><trkpt lat="40.094542867089636" lon="8.654049745394277"><ele>256.0</ele><time>2026-03-30T09:23:52Z</time></trkpt><trkpt lat="40.09446211424523" lon="8.654017672647191"><ele>256.0</ele><time>2026-03-30T09:23:53Z</time></trkpt><trkpt lat="40.09438697446657" lon="8.6539637812213"><ele>256.0</ele><time>2026-03-30T09:23:54Z</time></trkpt><trkpt lat="40.09430990365672" lon="8.65391351970318"><ele>255.99999999999997</ele><time>2026-03-30T09:23:55Z</time></trkpt><trkpt lat="40.09422911199105" lon="8.653867255856348"><ele>256.0</ele><time>2026-03-30T09:23:56Z</time></trkpt><trkpt lat="40.09415308388346" lon="8.65380483743523"><ele>255.0</ele><time>2026-03-30T09:23:57Z</time></trkpt><trkpt lat="40.09407080211649" lon="8.653762231106102"><ele>254.00000000000003</ele><time>2026-03-30T09:23:58Z</time></trkpt><trkpt lat="40.09398110834511" lon="8.653737395718775"><ele>253.00000000000003</ele><time>2026-03-30T09:23:59Z</time></trkpt><trkpt lat="40.09389572510865" lon="8.653696712527932"><ele>252.0</ele><time>2026-03-30T09:24:00Z</time></trkpt><trkpt lat="40.09381082382017" lon="8.653652131633999"><ele>251.0</ele><time>2026-03-30T09:24:01Z</time></trkpt><trkpt lat="40.09372236717996" lon="8.653607940243328"><ele>253.4</ele><time>2026-03-30T09:24:02Z</time></trkpt><trkpt lat="40.09363579361558" lon="8.653555731213373"><ele>255.8</ele><time>2026-03-30T09:24:03Z</time></trkpt><trkpt lat="40.0935498266495" lon="8.653508798785058"><ele>258.20000000000005</ele><time>2026-03-30T09:24:04Z</time></trkpt><trkpt lat="40.09346250310169" lon="8.653460995887517"><ele>260.6</ele><time>2026-03-30T09:24:05Z</time></trkpt><trkpt lat="40.09336868439704" lon="8.653416597430889"><ele>263.0</ele><time>2026-03-30T09:24:06Z</time></trkpt><trkpt lat="40.093276457989994" lon="8.653367368451221"><ele>261.8</ele><time>2026-03-30T09:24:07Z</time></trkpt><trkpt lat="40.09318225967409" lon="8.653317636278198"><ele>260.6</ele><time>2026-03-30T09:24:08Z</time></trkpt><trkpt lat="40.09308373442959" lon="8.653263953101996"><ele>259.4</ele><time>2026-03-30T09:24:09Z</time></trkpt><trkpt lat="40.09298599630927" lon="8.653196811583488"><ele>258.2</ele><time>2026-03-30T09:24:10Z</time></trkpt><trkpt lat="40.09289065642563" lon="8.653127459848541"><ele>257.0</ele><time>2026-03-30T09:24:11Z</time></trkpt><trkpt lat="40.0927908852011" lon="8.653046850287419"><ele>257.0</ele><time>2026-03-30T09:24:12Z</time></trkpt><trkpt lat="40.0926927518931" lon="8.652965188864274"><ele>257.0</ele><time>2026-03-30T09:24:13Z</time></trkpt><trkpt lat="40.09259131668913" lon="8.652875323636584"><ele>257.0</ele><time>2026-03-30T09:24:14Z</time></trkpt><trkpt lat="40.09249103043909" lon="8.652780377469242"><ele>257.0</ele><time>2026-03-30T09:24:15Z</time></trkpt><trkpt lat="40.09239340865731" lon="8.652677427081588"><ele>256.25</ele><time>2026-03-30T09:24:16Z</time></trkpt><trkpt lat="40.09229488498011" lon="8.652568841074151"><ele>255.5</ele><time>2026-03-30T09:24:17Z</time></trkpt><trkpt lat="40.09219299550021" lon="8.652460525166278"><ele>254.75</ele><time>2026-03-30T09:24:18Z</time></trkpt><trkpt lat="40.09209816414683" lon="8.652342161921444"><ele>254.0</ele><time>2026-03-30T09:24:19Z</time></trkpt><trkpt lat="40.0920040838432" lon="8.652217705889575"><ele>254.0</ele><time>2026-03-30T09:24:20Z</time></trkpt><trkpt lat="40.09190423314872" lon="8.652098780524193"><ele>254.0</ele><time>2026-03-30T09:24:21Z</time></trkpt><trkpt lat="40.09180185410277" lon="8.651980628801168"><ele>254.0</ele><time>2026-03-30T09:24:22Z</time></trkpt><trkpt lat="40.091701984405674" lon="8.651861574163224"><ele>254.0</ele><time>2026-03-30T09:24:23Z</time></trkpt><trkpt lat="40.09159707919463" lon="8.651737975298744"><ele>254.25</ele><time>2026-03-30T09:24:24Z</time></trkpt><trkpt lat="40.09149068029895" lon="8.651610233620833"><ele>254.5</ele><time>2026-03-30T09:24:25Z</time></trkpt><trkpt lat="40.09137798093039" lon="8.651485496560833"><ele>254.75</ele><time>2026-03-30T09:24:26Z</time></trkpt><trkpt lat="40.091258345182354" lon="8.651373442127577"><ele>255.0</ele><time>2026-03-30T09:24:27Z</time></trkpt><trkpt lat="40.091135136831994" lon="8.65126985134339"><ele>255.0</ele><time>2026-03-30T09:24:28Z</time></trkpt><trkpt lat="40.09100376220325" lon="8.651182172020924"><ele>255.0</ele><time>2026-03-30T09:24:29Z</time></trkpt><trkpt lat="40.090868221637294" lon="8.651099825263122"><ele>255.0</ele><time>2026-03-30T09:24:30Z</time></trkpt><trkpt lat="40.090732014957275" lon="8.651023749704992"><ele>255.0</ele><time>2026-03-30T09:24:31Z</time></trkpt><trkpt lat="40.090596170973946" lon="8.650950102169276"><ele>257.0</ele><time>2026-03-30T09:24:32Z</time></trkpt><trkpt lat="40.090462491313545" lon="8.650872080495317"><ele>259.0</ele><time>2026-03-30T09:24:33Z</time></trkpt><trkpt lat="40.09032358217959" lon="8.65079750881189"><ele>261.0</ele><time>2026-03-30T09:24:34Z</time></trkpt><trkpt lat="40.0901827098208" lon="8.650726509445985"><ele>263.0</ele><time>2026-03-30T09:24:35Z</time></trkpt><trkpt lat="40.09004552079623" lon="8.650651705627503"><ele>259.6666666666667</ele><time>2026-03-30T09:24:36Z</time></trkpt><trkpt lat="40.08991122090599" lon="8.650570124358849"><ele>256.3333333333333</ele><time>2026-03-30T09:24:37Z</time></trkpt><trkpt lat="40.08977726481039" lon="8.650475207480165"><ele>253.0</ele><time>2026-03-30T09:24:37.999Z</time></trkpt><trkpt lat="40.08965201494849" lon="8.650358649306158"><ele>257.0</ele><time>2026-03-30T09:24:38.999Z</time></trkpt><trkpt lat="40.08953522788116" lon="8.650227582644943"><ele>261.0</ele><time>2026-03-30T09:24:39.999Z</time></trkpt><trkpt lat="40.08942073656287" lon="8.65008771251699"><ele>265.0</ele><time>2026-03-30T09:24:40.999Z</time></trkpt><trkpt lat="40.0893024062481" lon="8.649946375513343"><ele>265.0</ele><time>2026-03-30T09:24:41.999Z</time></trkpt><trkpt lat="40.089185655304476" lon="8.64980738383219"><ele>265.0</ele><time>2026-03-30T09:24:42.999Z</time></trkpt><trkpt lat="40.08906632580264" lon="8.6496699331968"><ele>265.0</ele><time>2026-03-30T09:24:43.999Z</time></trkpt><trkpt lat="40.088945254153764" lon="8.64953764894636"><ele>264.75</ele><time>2026-03-30T09:24:44.999Z</time></trkpt><trkpt lat="40.08882882377562" lon="8.64940520588172"><ele>264.5</ele><time>2026-03-30T09:24:45.999Z</time></trkpt><trkpt lat="40.088721676132415" lon="8.649281258154376"><ele>264.25</ele><time>2026-03-30T09:24:46.999Z</time></trkpt><trkpt lat="40.088630379517795" lon="8.649160449749552"><ele>264.0</ele><time>2026-03-30T09:24:48Z</time></trkpt><trkpt lat="40.08856093955062" lon="8.649024314272156"><ele>264.0</ele><time>2026-03-30T09:24:49Z</time></trkpt><trkpt lat="40.08852175841045" lon="8.648871456165502"><ele>264.0</ele><time>2026-03-30T09:24:50Z</time></trkpt><trkpt lat="40.08851953373251" lon="8.64871002545701"><ele>264.0</ele><time>2026-03-30T09:24:51Z</time></trkpt><trkpt lat="40.08854958138397" lon="8.648543205034596"><ele>264.0</ele><time>2026-03-30T09:24:52Z</time></trkpt><trkpt lat="40.08860736709429" lon="8.648376809402563"><ele>264.0</ele><time>2026-03-30T09:24:53Z</time></trkpt><trkpt lat="40.08868198291908" lon="8.648214306573824"><ele>264.0</ele><time>2026-03-30T09:24:54Z</time></trkpt><trkpt lat="40.08875637433516" lon="8.64804939561452"><ele>264.0</ele><time>2026-03-30T09:24:55Z</time></trkpt><trkpt lat="40.088833944011505" lon="8.647880891318527"><ele>264.0</ele><time>2026-03-30T09:24:56Z</time></trkpt><trkpt lat="40.08891727636505" lon="8.647717123004885"><ele>264.6666666666667</ele><time>2026-03-30T09:24:57Z</time></trkpt><trkpt lat="40.089036331384335" lon="8.647586860436464"><ele>265.33333333333337</ele><time>2026-03-30T09:24:58Z</time></trkpt><trkpt lat="40.08916521921887" lon="8.647473969354875"><ele>266.0</ele><time>2026-03-30T09:24:59Z</time></trkpt><trkpt lat="40.08928570002869" lon="8.647370853855048"><ele>266.0</ele><time>2026-03-30T09:25:00Z</time></trkpt><trkpt lat="40.08939648111092" lon="8.647275695413015"><ele>266.0</ele><time>2026-03-30T09:25:01Z</time></trkpt><trkpt lat="40.08948883395963" lon="8.647164831183641"><ele>266.0</ele><time>2026-03-30T09:25:02Z</time></trkpt><trkpt lat="40.08955306321767" lon="8.647027417544493"><ele>266.0</ele><time>2026-03-30T09:25:03Z</time></trkpt><trkpt lat="40.08958161580533" lon="8.646852928851281"><ele>264.5</ele><time>2026-03-30T09:25:04Z</time></trkpt><trkpt lat="40.089570087056124" lon="8.64667351139773"><ele>263.0</ele><time>2026-03-30T09:25:05Z</time></trkpt><trkpt lat="40.089562502104805" lon="8.646496183292605"><ele>261.5</ele><time>2026-03-30T09:25:06Z</time></trkpt><trkpt lat="40.08959042742507" lon="8.646316480764435"><ele>260.0</ele><time>2026-03-30T09:25:07Z</time></trkpt><trkpt lat="40.08965565192547" lon="8.646157447095963"><ele>261.0</ele><time>2026-03-30T09:25:08Z</time></trkpt><trkpt lat="40.08974653926752" lon="8.646022759425543"><ele>262.0</ele><time>2026-03-30T09:25:09Z</time></trkpt><trkpt lat="40.089858432071146" lon="8.645912583545666"><ele>263.0</ele><time>2026-03-30T09:25:10Z</time></trkpt><trkpt lat="40.089977191347145" lon="8.645819240260714"><ele>264.0</ele><time>2026-03-30T09:25:11Z</time></trkpt><trkpt lat="40.09009625583748" lon="8.645720227225866"><ele>264.0</ele><time>2026-03-30T09:25:12Z</time></trkpt><trkpt lat="40.09019090094626" lon="8.645605981704994"><ele>264.0</ele><time>2026-03-30T09:25:13Z</time></trkpt><trkpt lat="40.0902405114216" lon="8.645460844193146"><ele>264.0</ele><time>2026-03-30T09:25:14Z</time></trkpt><trkpt lat="40.09024633284457" lon="8.645303138284127"><ele>264.0</ele><time>2026-03-30T09:25:15Z</time></trkpt><trkpt lat="40.0902088706813" lon="8.645144619767615"><ele>263.5</ele><time>2026-03-30T09:25:16Z</time></trkpt><trkpt lat="40.09012677564076" lon="8.645017072096083"><ele>263.0</ele><time>2026-03-30T09:25:17Z</time></trkpt><trkpt lat="40.09001765898084" lon="8.644921453462665"><ele>262.5</ele><time>2026-03-30T09:25:18Z</time></trkpt><trkpt lat="40.08989768720159" lon="8.644838749593761"><ele>262.0</ele><time>2026-03-30T09:25:19Z</time></trkpt><trkpt lat="40.089775622857594" lon="8.64474870463672"><ele>261.5</ele><time>2026-03-30T09:25:20Z</time></trkpt><trkpt lat="40.08966403091405" lon="8.644634334872874"><ele>261.0</ele><time>2026-03-30T09:25:21Z</time></trkpt><trkpt lat="40.08955946633109" lon="8.644514831401182"><ele>260.5</ele><time>2026-03-30T09:25:22Z</time></trkpt><trkpt lat="40.089465280814565" lon="8.644382011501623"><ele>260.0</ele><time>2026-03-30T09:25:23Z</time></trkpt><trkpt lat="40.0893886391891" lon="8.644224616160965"><ele>260.0</ele><time>2026-03-30T09:25:24Z</time></trkpt><trkpt lat="40.089334768757205" lon="8.644052717901754"><ele>260.0</ele><time>2026-03-30T09:25:25Z</time></trkpt><trkpt lat="40.08930168436132" lon="8.643869659343132"><ele>260.0</ele><time>2026-03-30T09:25:26Z</time></trkpt><trkpt lat="40.089278490647786" lon="8.643682008130538"><ele>260.0</ele><time>2026-03-30T09:25:27Z</time></trkpt><trkpt lat="40.08925590618554" lon="8.643492172597982"><ele>260.33333333333337</ele><time>2026-03-30T09:25:28Z</time></trkpt><trkpt lat="40.08923235942019" lon="8.643297384101693"><ele>260.6666666666667</ele><time>2026-03-30T09:25:29Z</time></trkpt><trkpt lat="40.08920739777901" lon="8.643098954392999"><ele>261.0</ele><time>2026-03-30T09:25:30Z</time></trkpt><trkpt lat="40.08917809137226" lon="8.64289855740499"><ele>262.0</ele><time>2026-03-30T09:25:31Z</time></trkpt><trkpt lat="40.08913997030724" lon="8.642699649850082"><ele>263.0</ele><time>2026-03-30T09:25:32Z</time></trkpt><trkpt lat="40.08907117224056" lon="8.64251307943922"><ele>264.0</ele><time>2026-03-30T09:25:33Z</time></trkpt><trkpt lat="40.08896700046092" lon="8.64234914138704"><ele>261.6666666666667</ele><time>2026-03-30T09:25:34Z</time></trkpt><trkpt lat="40.08888493315617" lon="8.642167232624136"><ele>259.33333333333337</ele><time>2026-03-30T09:25:35Z</time></trkpt><trkpt lat="40.08879300849128" lon="8.641999739429927"><ele>257.0</ele><time>2026-03-30T09:25:36Z</time></trkpt><trkpt lat="40.08874182198971" lon="8.641793015676445"><ele>257.0</ele><time>2026-03-30T09:25:37Z</time></trkpt><trkpt lat="40.08872692542846" lon="8.641565386880249"><ele>257.0</ele><time>2026-03-30T09:25:38Z</time></trkpt><trkpt lat="40.08867454672552" lon="8.641344459592133"><ele>257.0</ele><time>2026-03-30T09:25:39Z</time></trkpt><trkpt lat="40.088638863713285" lon="8.641124893705705"><ele>257.6666666666667</ele><time>2026-03-30T09:25:40Z</time></trkpt><trkpt lat="40.08860645048937" lon="8.640903717643457"><ele>258.3333333333333</ele><time>2026-03-30T09:25:41Z</time></trkpt><trkpt lat="40.08857926794487" lon="8.640650021097981"><ele>259.0</ele><time>2026-03-30T09:25:42Z</time></trkpt><trkpt lat="40.08859022078057" lon="8.64042098239637"><ele>258.66666666666663</ele><time>2026-03-30T09:25:43Z</time></trkpt><trkpt lat="40.08861437861707" lon="8.640162153879286"><ele>258.3333333333333</ele><time>2026-03-30T09:25:44Z</time></trkpt><trkpt lat="40.08863859626259" lon="8.639911852321996"><ele>258.0</ele><time>2026-03-30T09:25:45Z</time></trkpt><trkpt lat="40.088664766176215" lon="8.639636743212897"><ele>258.0</ele><time>2026-03-30T09:25:46Z</time></trkpt><trkpt lat="40.088702490008814" lon="8.639369521269066"><ele>258.0</ele><time>2026-03-30T09:25:47Z</time></trkpt><trkpt lat="40.08861804685365" lon="8.639553755288407"><ele>258.0</ele><time>2026-03-30T09:25:48Z</time></trkpt><trkpt lat="40.088641201916104" lon="8.639342365871448"><ele>257.6666666666667</ele><time>2026-03-30T09:25:49Z</time></trkpt><trkpt lat="40.08866128344875" lon="8.639124044245904"><ele>257.33333333333337</ele><time>2026-03-30T09:25:50Z</time></trkpt><trkpt lat="40.08867533029453" lon="8.638903727325475"><ele>257.0</ele><time>2026-03-30T09:25:51Z</time></trkpt><trkpt lat="40.08868279552029" lon="8.63868179746493"><ele>256.6666666666667</ele><time>2026-03-30T09:25:52Z</time></trkpt><trkpt lat="40.08867905899573" lon="8.638454636614988"><ele>256.3333333333333</ele><time>2026-03-30T09:25:53Z</time></trkpt><trkpt lat="40.08867828485755" lon="8.638225152865294"><ele>256.0</ele><time>2026-03-30T09:25:54Z</time></trkpt><trkpt lat="40.08867686848699" lon="8.637993154301162"><ele>256.3333333333333</ele><time>2026-03-30T09:25:55Z</time></trkpt><trkpt lat="40.08868163230126" lon="8.637761649455829"><ele>256.6666666666667</ele><time>2026-03-30T09:25:56Z</time></trkpt><trkpt lat="40.08869037994346" lon="8.637520389914709"><ele>257.0</ele><time>2026-03-30T09:25:57Z</time></trkpt><trkpt lat="40.08868957111119" lon="8.637284230345578"><ele>257.0</ele><time>2026-03-30T09:25:58Z</time></trkpt><trkpt lat="40.08867319902839" lon="8.637047774786938"><ele>257.0</ele><time>2026-03-30T09:25:59Z</time></trkpt><trkpt lat="40.08863455075243" lon="8.636816886272923"><ele>257.0</ele><time>2026-03-30T09:26:00Z</time></trkpt><trkpt lat="40.088583657514654" lon="8.636587314175538"><ele>258.0</ele><time>2026-03-30T09:26:01Z</time></trkpt><trkpt lat="40.088531491103105" lon="8.636354580244832"><ele>259.0</ele><time>2026-03-30T09:26:02Z</time></trkpt><trkpt lat="40.08848076933455" lon="8.636122465632422"><ele>260.0</ele><time>2026-03-30T09:26:03Z</time></trkpt><trkpt lat="40.08843167961218" lon="8.635881791622662"><ele>260.33333333333337</ele><time>2026-03-30T09:26:04Z</time></trkpt><trkpt lat="40.08838473614309" lon="8.635647255655497"><ele>260.6666666666667</ele><time>2026-03-30T09:26:05Z</time></trkpt><trkpt lat="40.08832828225014" lon="8.635417164213612"><ele>261.0</ele><time>2026-03-30T09:26:06Z</time></trkpt><trkpt lat="40.08827259885612" lon="8.635184819888206"><ele>259.3333333333333</ele><time>2026-03-30T09:26:07Z</time></trkpt><trkpt lat="40.08821581706786" lon="8.63494853741156"><ele>257.66666666666663</ele><time>2026-03-30T09:26:08Z</time></trkpt><trkpt lat="40.088173306810404" lon="8.634706218471774"><ele>256.0</ele><time>2026-03-30T09:26:09Z</time></trkpt><trkpt lat="40.088129894964744" lon="8.634463554859902"><ele>255.33333333333331</ele><time>2026-03-30T09:26:10Z</time></trkpt><trkpt lat="40.08809095525169" lon="8.634222020215347"><ele>254.66666666666669</ele><time>2026-03-30T09:26:11Z</time></trkpt><trkpt lat="40.08803499500577" lon="8.633977521728605"><ele>254.0</ele><time>2026-03-30T09:26:12Z</time></trkpt><trkpt lat="40.08797869723882" lon="8.633738778327396"><ele>255.0</ele><time>2026-03-30T09:26:13Z</time></trkpt><trkpt lat="40.08792442437241" lon="8.633500951506331"><ele>256.0</ele><time>2026-03-30T09:26:14Z</time></trkpt><trkpt lat="40.0878722515824" lon="8.633263612489479"><ele>257.0</ele><time>2026-03-30T09:26:15Z</time></trkpt><trkpt lat="40.08782988162689" lon="8.633022072207009"><ele>257.6666666666667</ele><time>2026-03-30T09:26:16Z</time></trkpt><trkpt lat="40.08778166543098" lon="8.632775404001155"><ele>258.3333333333333</ele><time>2026-03-30T09:26:17Z</time></trkpt><trkpt lat="40.08773163010533" lon="8.632521638604358"><ele>259.0</ele><time>2026-03-30T09:26:18Z</time></trkpt><trkpt lat="40.0876854616529" lon="8.632288183214504"><ele>259.0</ele><time>2026-03-30T09:26:19Z</time></trkpt><trkpt lat="40.08764406575531" lon="8.632068709494419"><ele>259.0</ele><time>2026-03-30T09:26:20Z</time></trkpt><trkpt lat="40.08758612982123" lon="8.631792225506379"><ele>259.0</ele><time>2026-03-30T09:26:21Z</time></trkpt><trkpt lat="40.08752390361389" lon="8.631552823835838"><ele>259.66666666666663</ele><time>2026-03-30T09:26:22Z</time></trkpt><trkpt lat="40.087484977600894" lon="8.631323426995472"><ele>260.3333333333333</ele><time>2026-03-30T09:26:23Z</time></trkpt><trkpt lat="40.087434896682296" lon="8.631141464676926"><ele>261.0</ele><time>2026-03-30T09:26:24Z</time></trkpt><trkpt lat="40.08732711685746" lon="8.630939582986004"><ele>261.3333333333333</ele><time>2026-03-30T09:26:25Z</time></trkpt><trkpt lat="40.08717132247963" lon="8.630758518926706"><ele>261.66666666666663</ele><time>2026-03-30T09:26:26Z</time></trkpt><trkpt lat="40.08704705656797" lon="8.630500443259917"><ele>262.0</ele><time>2026-03-30T09:26:27Z</time></trkpt><trkpt lat="40.08692915879393" lon="8.63026815166471"><ele>263.0</ele><time>2026-03-30T09:26:28Z</time></trkpt><trkpt lat="40.08688947044486" lon="8.630181125544114"><ele>264.0</ele><time>2026-03-30T09:26:29Z</time></trkpt><trkpt lat="40.08683505391908" lon="8.630012062033083"><ele>265.0</ele><time>2026-03-30T09:26:30Z</time></trkpt><trkpt lat="40.086815720751616" lon="8.629842022894255"><ele>266.0</ele><time>2026-03-30T09:26:31Z</time></trkpt><trkpt lat="40.08683864010897" lon="8.629664391152692"><ele>266.0</ele><time>2026-03-30T09:26:32Z</time></trkpt><trkpt lat="40.08690005432459" lon="8.629512557131406"><ele>266.0</ele><time>2026-03-30T09:26:33Z</time></trkpt><trkpt lat="40.08696818614584" lon="8.629349197287892"><ele>266.0</ele><time>2026-03-30T09:26:34Z</time></trkpt><trkpt lat="40.08702325032002" lon="8.62917980559108"><ele>266.0</ele><time>2026-03-30T09:26:35Z</time></trkpt><trkpt lat="40.08708987994793" lon="8.629001739669109"><ele>267.6666666666667</ele><time>2026-03-30T09:26:36Z</time></trkpt><trkpt lat="40.08712914852095" lon="8.628795810849752"><ele>269.3333333333333</ele><time>2026-03-30T09:26:37Z</time></trkpt><trkpt lat="40.08714764050083" lon="8.628571440032355"><ele>271.0</ele><time>2026-03-30T09:26:38Z</time></trkpt><trkpt lat="40.08718808297604" lon="8.62834132567675"><ele>272.5</ele><time>2026-03-30T09:26:39Z</time></trkpt><trkpt lat="40.08721137572479" lon="8.628130331622263"><ele>274.0</ele><time>2026-03-30T09:26:40Z</time></trkpt><trkpt lat="40.08721558720226" lon="8.62794183698357"><ele>275.5</ele><time>2026-03-30T09:26:41Z</time></trkpt><trkpt lat="40.08721043001102" lon="8.627769085188103"><ele>277.0</ele><time>2026-03-30T09:26:42Z</time></trkpt><trkpt lat="40.087151304520916" lon="8.627605988459651"><ele>278.3333333333333</ele><time>2026-03-30T09:26:43Z</time></trkpt><trkpt lat="40.08704910449448" lon="8.627461290159134"><ele>279.6666666666667</ele><time>2026-03-30T09:26:44Z</time></trkpt><trkpt lat="40.08691467498698" lon="8.627340007514572"><ele>281.0</ele><time>2026-03-30T09:26:45Z</time></trkpt><trkpt lat="40.08679033348518" lon="8.627222747247744"><ele>281.0</ele><time>2026-03-30T09:26:46Z</time></trkpt><trkpt lat="40.08664121305514" lon="8.627124026170128"><ele>281.0</ele><time>2026-03-30T09:26:47Z</time></trkpt><trkpt lat="40.086500601411245" lon="8.627051750053555"><ele>281.0</ele><time>2026-03-30T09:26:48Z</time></trkpt><trkpt lat="40.0863674933721" lon="8.626944006188664"><ele>280.0</ele><time>2026-03-30T09:26:49Z</time></trkpt><trkpt lat="40.08626901550523" lon="8.626808056859371"><ele>279.0</ele><time>2026-03-30T09:26:50Z</time></trkpt><trkpt lat="40.086186080664966" lon="8.626647697478173"><ele>278.0</ele><time>2026-03-30T09:26:51Z</time></trkpt><trkpt lat="40.08610609990292" lon="8.626465696718613"><ele>278.0</ele><time>2026-03-30T09:26:52Z</time></trkpt><trkpt lat="40.08601907516405" lon="8.626289079204229"><ele>278.0</ele><time>2026-03-30T09:26:53Z</time></trkpt><trkpt lat="40.08592474991994" lon="8.626117847680716"><ele>278.0</ele><time>2026-03-30T09:26:54Z</time></trkpt><trkpt lat="40.085827961015205" lon="8.625941377156225"><ele>277.0</ele><time>2026-03-30T09:26:55Z</time></trkpt><trkpt lat="40.08574414780286" lon="8.62574222660311"><ele>276.0</ele><time>2026-03-30T09:26:56Z</time></trkpt><trkpt lat="40.08564680001181" lon="8.625550325647145"><ele>275.0</ele><time>2026-03-30T09:26:57Z</time></trkpt><trkpt lat="40.085535857275126" lon="8.62536349817111"><ele>275.0</ele><time>2026-03-30T09:26:58Z</time></trkpt><trkpt lat="40.08544170269241" lon="8.625163420471994"><ele>275.0</ele><time>2026-03-30T09:26:59Z</time></trkpt><trkpt lat="40.08533943411396" lon="8.624962132770303"><ele>275.0</ele><time>2026-03-30T09:27:00Z</time></trkpt><trkpt lat="40.085239235951846" lon="8.624767768173058"><ele>275.0</ele><time>2026-03-30T09:27:01Z</time></trkpt><trkpt lat="40.085134795921284" lon="8.624570143824991"><ele>275.0</ele><time>2026-03-30T09:27:02Z</time></trkpt><trkpt lat="40.08503239364143" lon="8.624375328731237"><ele>275.0</ele><time>2026-03-30T09:27:03Z</time></trkpt><trkpt lat="40.084930370083626" lon="8.624177188429144"><ele>274.0</ele><time>2026-03-30T09:27:04Z</time></trkpt><trkpt lat="40.08483618000656" lon="8.623993501567245"><ele>273.0</ele><time>2026-03-30T09:27:05Z</time></trkpt><trkpt lat="40.08475138140895" lon="8.623819310924953"><ele>272.0</ele><time>2026-03-30T09:27:06Z</time></trkpt><trkpt lat="40.08467322430746" lon="8.623652183465111"><ele>272.6666666666667</ele><time>2026-03-30T09:27:07Z</time></trkpt><trkpt lat="40.08463508603882" lon="8.62347106317339"><ele>273.3333333333333</ele><time>2026-03-30T09:27:08Z</time></trkpt><trkpt lat="40.084611482365766" lon="8.623275949876813"><ele>274.0</ele><time>2026-03-30T09:27:09Z</time></trkpt><trkpt lat="40.0845938402535" lon="8.62306844134013"><ele>274.0</ele><time>2026-03-30T09:27:10Z</time></trkpt><trkpt lat="40.08463195226663" lon="8.622857394980102"><ele>274.0</ele><time>2026-03-30T09:27:11Z</time></trkpt><trkpt lat="40.084680371651814" lon="8.622653633944086"><ele>274.0</ele><time>2026-03-30T09:27:12Z</time></trkpt><trkpt lat="40.08472593078609" lon="8.62244170576182"><ele>274.66666666666663</ele><time>2026-03-30T09:27:13Z</time></trkpt><trkpt lat="40.084781434900854" lon="8.622237372596791"><ele>275.3333333333333</ele><time>2026-03-30T09:27:14Z</time></trkpt><trkpt lat="40.084835931154785" lon="8.622027472444824"><ele>276.0</ele><time>2026-03-30T09:27:15Z</time></trkpt><trkpt lat="40.084888657423186" lon="8.621811496900134"><ele>278.3333333333333</ele><time>2026-03-30T09:27:16Z</time></trkpt><trkpt lat="40.084944553383835" lon="8.621594520237217"><ele>280.66666666666663</ele><time>2026-03-30T09:27:17Z</time></trkpt><trkpt lat="40.08499789703758" lon="8.62137375081705"><ele>283.0</ele><time>2026-03-30T09:27:18Z</time></trkpt><trkpt lat="40.08505649902577" lon="8.621161172742564"><ele>283.0</ele><time>2026-03-30T09:27:19Z</time></trkpt><trkpt lat="40.085112961844" lon="8.620948325259912"><ele>283.0</ele><time>2026-03-30T09:27:20Z</time></trkpt><trkpt lat="40.08517102908881" lon="8.620732823251032"><ele>283.0</ele><time>2026-03-30T09:27:21Z</time></trkpt><trkpt lat="40.08522817987022" lon="8.620520568072582"><ele>283.66666666666663</ele><time>2026-03-30T09:27:22Z</time></trkpt><trkpt lat="40.08528375027594" lon="8.62030531313858"><ele>284.3333333333333</ele><time>2026-03-30T09:27:23Z</time></trkpt><trkpt lat="40.0853399535932" lon="8.620087760033423"><ele>285.0</ele><time>2026-03-30T09:27:24Z</time></trkpt><trkpt lat="40.085395260240546" lon="8.619872111782223"><ele>285.0</ele><time>2026-03-30T09:27:25Z</time></trkpt><trkpt lat="40.085451364182184" lon="8.619656644350508"><ele>285.0</ele><time>2026-03-30T09:27:26Z</time></trkpt><trkpt lat="40.08550485875464" lon="8.619443239878443"><ele>285.0</ele><time>2026-03-30T09:27:27Z</time></trkpt><trkpt lat="40.085559594445456" lon="8.619231998563329"><ele>286.0</ele><time>2026-03-30T09:27:28Z</time></trkpt><trkpt lat="40.08561238949259" lon="8.619020884820296"><ele>287.0</ele><time>2026-03-30T09:27:29Z</time></trkpt><trkpt lat="40.08563969529594" lon="8.618806540232955"><ele>288.0</ele><time>2026-03-30T09:27:30Z</time></trkpt><trkpt lat="40.08562433874533" lon="8.618594250577615"><ele>289.3333333333333</ele><time>2026-03-30T09:27:31Z</time></trkpt><trkpt lat="40.08557931436017" lon="8.618408436348332"><ele>290.66666666666663</ele><time>2026-03-30T09:27:32Z</time></trkpt><trkpt lat="40.08548932877111" lon="8.618237091561278"><ele>292.0</ele><time>2026-03-30T09:27:33Z</time></trkpt><trkpt lat="40.08537829388201" lon="8.618092497088284"><ele>292.0</ele><time>2026-03-30T09:27:34Z</time></trkpt><trkpt lat="40.085259552084985" lon="8.617966049807546"><ele>292.0</ele><time>2026-03-30T09:27:35Z</time></trkpt><trkpt lat="40.08513400310772" lon="8.61786519245601"><ele>292.0</ele><time>2026-03-30T09:27:36Z</time></trkpt><trkpt lat="40.08499939960674" lon="8.617799520772389"><ele>292.0</ele><time>2026-03-30T09:27:37Z</time></trkpt><trkpt lat="40.0848544674596" lon="8.617786113802325"><ele>293.0</ele><time>2026-03-30T09:27:38Z</time></trkpt><trkpt lat="40.08471547374237" lon="8.617818666438989"><ele>294.0</ele><time>2026-03-30T09:27:39Z</time></trkpt><trkpt lat="40.08457901731532" lon="8.617888758863923"><ele>295.0</ele><time>2026-03-30T09:27:40Z</time></trkpt><trkpt lat="40.08444234196825" lon="8.617912708400285"><ele>296.0</ele><time>2026-03-30T09:27:41Z</time></trkpt><trkpt lat="40.08432182671238" lon="8.617952133125247"><ele>296.0</ele><time>2026-03-30T09:27:42Z</time></trkpt><trkpt lat="40.08420817530372" lon="8.617947490604616"><ele>296.0</ele><time>2026-03-30T09:27:43Z</time></trkpt><trkpt lat="40.08410569090806" lon="8.6179228325467"><ele>296.0</ele><time>2026-03-30T09:27:44Z</time></trkpt><trkpt lat="40.08400877032055" lon="8.617886223080129"><ele>296.0</ele><time>2026-03-30T09:27:45Z</time></trkpt><trkpt lat="40.083921107903194" lon="8.61784236557736"><ele>296.0</ele><time>2026-03-30T09:27:46Z</time></trkpt><trkpt lat="40.08383786793595" lon="8.617798811544933"><ele>296.6</ele><time>2026-03-30T09:27:47Z</time></trkpt><trkpt lat="40.08374999142315" lon="8.6177558674024"><ele>297.20000000000005</ele><time>2026-03-30T09:27:48Z</time></trkpt><trkpt lat="40.08365934260042" lon="8.617720813605564"><ele>297.79999999999995</ele><time>2026-03-30T09:27:49Z</time></trkpt><trkpt lat="40.08357524636887" lon="8.617669519616936"><ele>298.4</ele><time>2026-03-30T09:27:50Z</time></trkpt><trkpt lat="40.08349676534926" lon="8.617614167372784"><ele>299.0</ele><time>2026-03-30T09:27:51Z</time></trkpt><trkpt lat="40.083418258578206" lon="8.61755229369517"><ele>299.0</ele><time>2026-03-30T09:27:52Z</time></trkpt><trkpt lat="40.08333715536065" lon="8.617501923566895"><ele>299.0</ele><time>2026-03-30T09:27:53Z</time></trkpt><trkpt lat="40.083254011171206" lon="8.617456774165392"><ele>299.0</ele><time>2026-03-30T09:27:54Z</time></trkpt><trkpt lat="40.08316409843621" lon="8.6174104414663"><ele>299.0</ele><time>2026-03-30T09:27:55Z</time></trkpt><trkpt lat="40.08307092623014" lon="8.617366371776837"><ele>299.0</ele><time>2026-03-30T09:27:56Z</time></trkpt><trkpt lat="40.082981458018544" lon="8.617319797167719"><ele>298.5</ele><time>2026-03-30T09:27:57Z</time></trkpt><trkpt lat="40.08290188193493" lon="8.617286124636141"><ele>298.0</ele><time>2026-03-30T09:27:58Z</time></trkpt><trkpt lat="40.08282315210214" lon="8.617247542679921"><ele>297.5</ele><time>2026-03-30T09:27:59Z</time></trkpt><trkpt lat="40.0827445667875" lon="8.617202635647578"><ele>297.0</ele><time>2026-03-30T09:28:00Z</time></trkpt><trkpt lat="40.08267117610294" lon="8.617151566277691"><ele>296.5</ele><time>2026-03-30T09:28:01Z</time></trkpt><trkpt lat="40.08260139839421" lon="8.617092749730793"><ele>296.0</ele><time>2026-03-30T09:28:02Z</time></trkpt><trkpt lat="40.08254711033689" lon="8.61701134555029"><ele>296.2</ele><time>2026-03-30T09:28:03Z</time></trkpt><trkpt lat="40.082506854439536" lon="8.61691537612841"><ele>296.40000000000003</ele><time>2026-03-30T09:28:04Z</time></trkpt><trkpt lat="40.08248446586465" lon="8.61681092214877"><ele>296.6</ele><time>2026-03-30T09:28:05Z</time></trkpt><trkpt lat="40.082411925626026" lon="8.616637818837203"><ele>296.8</ele><time>2026-03-30T09:28:07Z</time></trkpt><trkpt lat="40.08237597466004" lon="8.616552330911881"><ele>297.0</ele><time>2026-03-30T09:28:08Z</time></trkpt><trkpt lat="40.082337884667226" lon="8.616460578728232"><ele>297.0</ele><time>2026-03-30T09:28:09Z</time></trkpt><trkpt lat="40.08230250676644" lon="8.616371900561713"><ele>297.0</ele><time>2026-03-30T09:28:10Z</time></trkpt><trkpt lat="40.082264900976746" lon="8.61629480779963"><ele>297.0</ele><time>2026-03-30T09:28:11Z</time></trkpt><trkpt lat="40.0822309536669" lon="8.616215298852673"><ele>297.0</ele><time>2026-03-30T09:28:12Z</time></trkpt><trkpt lat="40.082197132843405" lon="8.616134258872734"><ele>297.0</ele><time>2026-03-30T09:28:13Z</time></trkpt><trkpt lat="40.08214220597684" lon="8.616056527254543"><ele>297.0</ele><time>2026-03-30T09:28:14Z</time></trkpt><trkpt lat="40.08209242778878" lon="8.615974212761937"><ele>297.0</ele><time>2026-03-30T09:28:15Z</time></trkpt><trkpt lat="40.08204322517383" lon="8.615888599225064"><ele>297.3333333333333</ele><time>2026-03-30T09:28:16Z</time></trkpt><trkpt lat="40.08199925724675" lon="8.61580146547637"><ele>297.6666666666667</ele><time>2026-03-30T09:28:17Z</time></trkpt><trkpt lat="40.08195969603912" lon="8.61570920624465"><ele>298.0</ele><time>2026-03-30T09:28:18Z</time></trkpt><trkpt lat="40.08192578479871" lon="8.615608283183175"><ele>298.33333333333337</ele><time>2026-03-30T09:28:19Z</time></trkpt><trkpt lat="40.08191981894141" lon="8.615496749517046"><ele>298.6666666666667</ele><time>2026-03-30T09:28:20Z</time></trkpt><trkpt lat="40.08188324156141" lon="8.615397608025646"><ele>299.0</ele><time>2026-03-30T09:28:21Z</time></trkpt><trkpt lat="40.0818522911726" lon="8.615298076593648"><ele>299.6666666666667</ele><time>2026-03-30T09:28:22Z</time></trkpt><trkpt lat="40.081802849112144" lon="8.615217215081953"><ele>300.33333333333337</ele><time>2026-03-30T09:28:23Z</time></trkpt><trkpt lat="40.08175315075471" lon="8.615146804407617"><ele>301.0</ele><time>2026-03-30T09:28:24Z</time></trkpt><trkpt lat="40.08171593212191" lon="8.615056575388484"><ele>301.6666666666667</ele><time>2026-03-30T09:28:25Z</time></trkpt><trkpt lat="40.0816695050423" lon="8.614976897134133"><ele>302.3333333333333</ele><time>2026-03-30T09:28:26Z</time></trkpt><trkpt lat="40.081630269222394" lon="8.61488727718059"><ele>303.0</ele><time>2026-03-30T09:28:27Z</time></trkpt><trkpt lat="40.08159584423745" lon="8.614785518352166"><ele>302.5</ele><time>2026-03-30T09:28:28Z</time></trkpt><trkpt lat="40.081561221320776" lon="8.614685092626768"><ele>302.0</ele><time>2026-03-30T09:28:29Z</time></trkpt><trkpt lat="40.08152697437841" lon="8.614584679712214"><ele>301.5</ele><time>2026-03-30T09:28:30Z</time></trkpt><trkpt lat="40.08149282498531" lon="8.614476276400081"><ele>301.0</ele><time>2026-03-30T09:28:31Z</time></trkpt><trkpt lat="40.081451046169775" lon="8.614375248084993"><ele>300.5</ele><time>2026-03-30T09:28:32Z</time></trkpt><trkpt lat="40.08145305650837" lon="8.614260167307531"><ele>300.0</ele><time>2026-03-30T09:28:33Z</time></trkpt><trkpt lat="40.08144402896432" lon="8.614154716740648"><ele>300.0</ele><time>2026-03-30T09:28:34Z</time></trkpt><trkpt lat="40.08142453473816" lon="8.614055564930677"><ele>300.0</ele><time>2026-03-30T09:28:35Z</time></trkpt><trkpt lat="40.0813962530646" lon="8.613947097720201"><ele>300.0</ele><time>2026-03-30T09:28:36Z</time></trkpt><trkpt lat="40.08133471935889" lon="8.613860374433093"><ele>300.0</ele><time>2026-03-30T09:28:37Z</time></trkpt><trkpt lat="40.081265197426525" lon="8.61377651841392"><ele>300.0</ele><time>2026-03-30T09:28:38Z</time></trkpt><trkpt lat="40.08120330445372" lon="8.613692502914759"><ele>300.0</ele><time>2026-03-30T09:28:39Z</time></trkpt><trkpt lat="40.08113866841046" lon="8.613607381850631"><ele>300.8333333333333</ele><time>2026-03-30T09:28:40Z</time></trkpt><trkpt lat="40.08107246920839" lon="8.613519210164016"><ele>301.6666666666667</ele><time>2026-03-30T09:28:41Z</time></trkpt><trkpt lat="40.08102757643644" lon="8.613428067059708"><ele>302.5</ele><time>2026-03-30T09:28:42Z</time></trkpt><trkpt lat="40.08099839890019" lon="8.613332262927084"><ele>303.33333333333337</ele><time>2026-03-30T09:28:43Z</time></trkpt><trkpt lat="40.080967864389386" lon="8.613245537066886"><ele>304.1666666666667</ele><time>2026-03-30T09:28:44Z</time></trkpt><trkpt lat="40.08093307420763" lon="8.61315858995824"><ele>305.0</ele><time>2026-03-30T09:28:45Z</time></trkpt><trkpt lat="40.080914524010375" lon="8.61306089583607"><ele>305.0</ele><time>2026-03-30T09:28:46Z</time></trkpt><trkpt lat="40.08087297625354" lon="8.612998551616133"><ele>305.0</ele><time>2026-03-30T09:28:48Z</time></trkpt><trkpt lat="40.08085631321484" lon="8.612886762379583"><ele>305.0</ele><time>2026-03-30T09:28:51Z</time></trkpt><trkpt lat="40.0808413792651" lon="8.612772706064302"><ele>305.0</ele><time>2026-03-30T09:28:53Z</time></trkpt><trkpt lat="40.080840149860705" lon="8.612656669514822"><ele>305.0</ele><time>2026-03-30T09:28:55Z</time></trkpt><trkpt lat="40.08081664966403" lon="8.61252742774721"><ele>305.0</ele><time>2026-03-30T09:28:57Z</time></trkpt><trkpt lat="40.08079441383783" lon="8.612376970587077"><ele>305.6</ele><time>2026-03-30T09:28:59Z</time></trkpt><trkpt lat="40.08081252241689" lon="8.612211683889445"><ele>306.2</ele><time>2026-03-30T09:29:01Z</time></trkpt><trkpt lat="40.080816108883575" lon="8.612127382649483"><ele>306.8</ele><time>2026-03-30T09:29:02Z</time></trkpt><trkpt lat="40.08081888940644" lon="8.611975066927222"><ele>307.4</ele><time>2026-03-30T09:29:04Z</time></trkpt><trkpt lat="40.08079791711042" lon="8.611831691658509"><ele>308.0</ele><time>2026-03-30T09:29:06Z</time></trkpt><trkpt lat="40.08078025208112" lon="8.611752678726111"><ele>308.0</ele><time>2026-03-30T09:29:07Z</time></trkpt><trkpt lat="40.080762132652886" lon="8.61166841544509"><ele>308.0</ele><time>2026-03-30T09:29:08Z</time></trkpt><trkpt lat="40.080745003459434" lon="8.611510352499929"><ele>308.0</ele><time>2026-03-30T09:29:10Z</time></trkpt><trkpt lat="40.08076354611374" lon="8.611365906407775"><ele>308.0</ele><time>2026-03-30T09:29:12Z</time></trkpt><trkpt lat="40.08079173091682" lon="8.611292180864027"><ele>308.0</ele><time>2026-03-30T09:29:13Z</time></trkpt><trkpt lat="40.08082895215541" lon="8.611209078135943"><ele>308.0</ele><time>2026-03-30T09:29:14Z</time></trkpt><trkpt lat="40.08087166894374" lon="8.611116088557877"><ele>307.0</ele><time>2026-03-30T09:29:15Z</time></trkpt><trkpt lat="40.08092073301892" lon="8.611011481439883"><ele>306.0</ele><time>2026-03-30T09:29:16Z</time></trkpt><trkpt lat="40.08097363726292" lon="8.610904629144919"><ele>305.0</ele><time>2026-03-30T09:29:17Z</time></trkpt><trkpt lat="40.0810337842143" lon="8.61079675324326"><ele>304.0</ele><time>2026-03-30T09:29:18Z</time></trkpt><trkpt lat="40.08109939213475" lon="8.61068449846213"><ele>303.0</ele><time>2026-03-30T09:29:19Z</time></trkpt><trkpt lat="40.081152694148074" lon="8.610565107099037"><ele>303.0</ele><time>2026-03-30T09:29:20Z</time></trkpt><trkpt lat="40.08121710234921" lon="8.610465768160049"><ele>303.0</ele><time>2026-03-30T09:29:21Z</time></trkpt><trkpt lat="40.08128020932844" lon="8.610364280435528"><ele>303.0</ele><time>2026-03-30T09:29:22Z</time></trkpt><trkpt lat="40.08134434238547" lon="8.610259878670865"><ele>303.0</ele><time>2026-03-30T09:29:23Z</time></trkpt><trkpt lat="40.0814774673789" lon="8.610043464880532"><ele>302.2</ele><time>2026-03-30T09:29:25Z</time></trkpt><trkpt lat="40.08153949566809" lon="8.609932339159425"><ele>301.4</ele><time>2026-03-30T09:29:26Z</time></trkpt><trkpt lat="40.08161709897229" lon="8.609838901564373"><ele>300.59999999999997</ele><time>2026-03-30T09:29:27Z</time></trkpt><trkpt lat="40.081680332039554" lon="8.609727045317323"><ele>299.8</ele><time>2026-03-30T09:29:28Z</time></trkpt><trkpt lat="40.08174123673275" lon="8.609615567377238"><ele>299.0</ele><time>2026-03-30T09:29:29Z</time></trkpt><trkpt lat="40.08179989920444" lon="8.609509352619407"><ele>298.59999999999997</ele><time>2026-03-30T09:29:30Z</time></trkpt><trkpt lat="40.08185929126718" lon="8.609396469581029"><ele>298.2</ele><time>2026-03-30T09:29:31Z</time></trkpt><trkpt lat="40.08191306431663" lon="8.609283484217125"><ele>297.79999999999995</ele><time>2026-03-30T09:29:32Z</time></trkpt><trkpt lat="40.08195757779369" lon="8.609167318286927"><ele>297.4</ele><time>2026-03-30T09:29:33Z</time></trkpt><trkpt lat="40.08198910022872" lon="8.609047984914248"><ele>297.0</ele><time>2026-03-30T09:29:34Z</time></trkpt><trkpt lat="40.082013874958264" lon="8.608936247052661"><ele>297.0</ele><time>2026-03-30T09:29:35Z</time></trkpt><trkpt lat="40.082039161701935" lon="8.608831809265522"><ele>297.0</ele><time>2026-03-30T09:29:36Z</time></trkpt><trkpt lat="40.082063452659085" lon="8.608731314741698"><ele>297.0</ele><time>2026-03-30T09:29:37Z</time></trkpt><trkpt lat="40.082086828871546" lon="8.608639472585208"><ele>297.0</ele><time>2026-03-30T09:29:38Z</time></trkpt><trkpt lat="40.082109037788484" lon="8.608536694674324"><ele>297.0</ele><time>2026-03-30T09:29:39Z</time></trkpt><trkpt lat="40.082141229646226" lon="8.608434379428282"><ele>297.0</ele><time>2026-03-30T09:29:40Z</time></trkpt><trkpt lat="40.08217909751003" lon="8.608323290991546"><ele>297.0</ele><time>2026-03-30T09:29:41Z</time></trkpt><trkpt lat="40.08222747541612" lon="8.608216710902408"><ele>297.0</ele><time>2026-03-30T09:29:42Z</time></trkpt><trkpt lat="40.08228931200024" lon="8.60812020402079"><ele>297.0</ele><time>2026-03-30T09:29:43Z</time></trkpt><trkpt lat="40.08235489078336" lon="8.608027585540658"><ele>297.0</ele><time>2026-03-30T09:29:44Z</time></trkpt><trkpt lat="40.08242059046895" lon="8.607933829664043"><ele>297.0</ele><time>2026-03-30T09:29:45Z</time></trkpt><trkpt lat="40.0824871178419" lon="8.607839458348998"><ele>296.0</ele><time>2026-03-30T09:29:46Z</time></trkpt><trkpt lat="40.082534325023346" lon="8.60773056919674"><ele>295.0</ele><time>2026-03-30T09:29:47Z</time></trkpt><trkpt lat="40.08257338474672" lon="8.607612972590108"><ele>294.0</ele><time>2026-03-30T09:29:48Z</time></trkpt><trkpt lat="40.08255030859923" lon="8.60747970344008"><ele>293.0</ele><time>2026-03-30T09:29:49Z</time></trkpt><trkpt lat="40.08250451405388" lon="8.607354201969416"><ele>292.0</ele><time>2026-03-30T09:29:50Z</time></trkpt><trkpt lat="40.08243816705258" lon="8.607241089549253"><ele>292.25</ele><time>2026-03-30T09:29:51Z</time></trkpt><trkpt lat="40.08235795255643" lon="8.607139669540794"><ele>292.5</ele><time>2026-03-30T09:29:52Z</time></trkpt><trkpt lat="40.0822629662384" lon="8.607048304475803"><ele>292.75</ele><time>2026-03-30T09:29:53Z</time></trkpt><trkpt lat="40.08216489086077" lon="8.606947371527452"><ele>293.0</ele><time>2026-03-30T09:29:54Z</time></trkpt><trkpt lat="40.08205703370553" lon="8.606855041466277"><ele>290.75</ele><time>2026-03-30T09:29:55Z</time></trkpt><trkpt lat="40.08194246790254" lon="8.606783047592916"><ele>288.5</ele><time>2026-03-30T09:29:56Z</time></trkpt><trkpt lat="40.08184120850172" lon="8.606700120736388"><ele>286.25</ele><time>2026-03-30T09:29:57Z</time></trkpt><trkpt lat="40.081731994711284" lon="8.606643489774859"><ele>284.0</ele><time>2026-03-30T09:29:58Z</time></trkpt><trkpt lat="40.081613770272234" lon="8.606621335532614"><ele>283.25</ele><time>2026-03-30T09:29:59Z</time></trkpt><trkpt lat="40.08149368079057" lon="8.60662625323651"><ele>282.5</ele><time>2026-03-30T09:30:00Z</time></trkpt><trkpt lat="40.08136788684336" lon="8.606620319687474"><ele>281.75</ele><time>2026-03-30T09:30:01Z</time></trkpt><trkpt lat="40.08123925587541" lon="8.606635326629736"><ele>281.0</ele><time>2026-03-30T09:30:02Z</time></trkpt><trkpt lat="40.08110194459386" lon="8.606651346322769"><ele>281.0</ele><time>2026-03-30T09:30:03Z</time></trkpt><trkpt lat="40.08095965694677" lon="8.606670431677285"><ele>281.0</ele><time>2026-03-30T09:30:04Z</time></trkpt><trkpt lat="40.08081246299295" lon="8.606686917345673"><ele>281.0</ele><time>2026-03-30T09:30:05Z</time></trkpt><trkpt lat="40.080669620766514" lon="8.606701266735211"><ele>281.0</ele><time>2026-03-30T09:30:06Z</time></trkpt><trkpt lat="40.08053231022525" lon="8.606707143779845"><ele>279.75</ele><time>2026-03-30T09:30:07Z</time></trkpt><trkpt lat="40.08040029335835" lon="8.606703897239536"><ele>278.5</ele><time>2026-03-30T09:30:08Z</time></trkpt><trkpt lat="40.080268421862" lon="8.606704161451512"><ele>277.25</ele><time>2026-03-30T09:30:09Z</time></trkpt><trkpt lat="40.08013799187085" lon="8.606673344277633"><ele>276.0</ele><time>2026-03-30T09:30:10Z</time></trkpt><trkpt lat="40.08000410239182" lon="8.606648563849445"><ele>276.0</ele><time>2026-03-30T09:30:11Z</time></trkpt><trkpt lat="40.07986866055849" lon="8.60662119355043"><ele>276.0</ele><time>2026-03-30T09:30:12Z</time></trkpt><trkpt lat="40.07973227494038" lon="8.60658823684269"><ele>276.0</ele><time>2026-03-30T09:30:13Z</time></trkpt><trkpt lat="40.079591970351785" lon="8.606557934347064"><ele>276.0</ele><time>2026-03-30T09:30:14Z</time></trkpt><trkpt lat="40.07945011905964" lon="8.606534036690187"><ele>276.0</ele><time>2026-03-30T09:30:15Z</time></trkpt><trkpt lat="40.079304712297315" lon="8.606526240123962"><ele>276.0</ele><time>2026-03-30T09:30:16Z</time></trkpt><trkpt lat="40.07915637423444" lon="8.606538456919964"><ele>276.0</ele><time>2026-03-30T09:30:17Z</time></trkpt><trkpt lat="40.079006431733156" lon="8.606568354410319"><ele>276.0</ele><time>2026-03-30T09:30:18Z</time></trkpt><trkpt lat="40.07885506860762" lon="8.60660425409227"><ele>274.0</ele><time>2026-03-30T09:30:19Z</time></trkpt><trkpt lat="40.07869876227972" lon="8.606641616128867"><ele>272.0</ele><time>2026-03-30T09:30:20Z</time></trkpt><trkpt lat="40.07854012984677" lon="8.606683288717923"><ele>270.0</ele><time>2026-03-30T09:30:21Z</time></trkpt><trkpt lat="40.07838139149447" lon="8.606719490991008"><ele>268.3333333333333</ele><time>2026-03-30T09:30:22Z</time></trkpt><trkpt lat="40.078228155368784" lon="8.606751695337644"><ele>266.66666666666663</ele><time>2026-03-30T09:30:23Z</time></trkpt><trkpt lat="40.07807163071322" lon="8.606787317782704"><ele>265.0</ele><time>2026-03-30T09:30:24Z</time></trkpt><trkpt lat="40.07791131546817" lon="8.606821740280022"><ele>265.0</ele><time>2026-03-30T09:30:25Z</time></trkpt><trkpt lat="40.07774882827439" lon="8.606851598436052"><ele>265.0</ele><time>2026-03-30T09:30:26Z</time></trkpt><trkpt lat="40.07759723192202" lon="8.606863571703824"><ele>265.0</ele><time>2026-03-30T09:30:27Z</time></trkpt><trkpt lat="40.077460644358204" lon="8.606854784169924"><ele>264.75</ele><time>2026-03-30T09:30:28Z</time></trkpt><trkpt lat="40.07732460562919" lon="8.606838769733036"><ele>264.5</ele><time>2026-03-30T09:30:29Z</time></trkpt><trkpt lat="40.077185526009536" lon="8.606772940335913"><ele>264.25</ele><time>2026-03-30T09:30:30Z</time></trkpt><trkpt lat="40.077064382019294" lon="8.606656273753746"><ele>264.0</ele><time>2026-03-30T09:30:31Z</time></trkpt><trkpt lat="40.076972408342975" lon="8.606511756701375"><ele>264.0</ele><time>2026-03-30T09:30:32Z</time></trkpt><trkpt lat="40.07691302179454" lon="8.606362500311116"><ele>264.0</ele><time>2026-03-30T09:30:33Z</time></trkpt><trkpt lat="40.076880314545306" lon="8.606213027950709"><ele>264.0</ele><time>2026-03-30T09:30:34Z</time></trkpt><trkpt lat="40.07683254669207" lon="8.606047389175469"><ele>264.0</ele><time>2026-03-30T09:30:35Z</time></trkpt><trkpt lat="40.076805729367216" lon="8.605861452794354"><ele>262.3333333333333</ele><time>2026-03-30T09:30:36Z</time></trkpt><trkpt lat="40.076806225830026" lon="8.605664794395599"><ele>260.66666666666663</ele><time>2026-03-30T09:30:37Z</time></trkpt><trkpt lat="40.07682192496537" lon="8.605468576717039"><ele>259.0</ele><time>2026-03-30T09:30:38Z</time></trkpt><trkpt lat="40.07684723059536" lon="8.605268069465446"><ele>257.3333333333333</ele><time>2026-03-30T09:30:39Z</time></trkpt><trkpt lat="40.076871684470085" lon="8.605069132240931"><ele>255.66666666666669</ele><time>2026-03-30T09:30:40Z</time></trkpt><trkpt lat="40.076897722549546" lon="8.604874869429446"><ele>254.0</ele><time>2026-03-30T09:30:41Z</time></trkpt><trkpt lat="40.0769311672437" lon="8.60468958283416"><ele>254.0</ele><time>2026-03-30T09:30:42Z</time></trkpt><trkpt lat="40.07698318044589" lon="8.60451692718409"><ele>254.0</ele><time>2026-03-30T09:30:43Z</time></trkpt><trkpt lat="40.077049340662356" lon="8.604348115825536"><ele>254.0</ele><time>2026-03-30T09:30:44Z</time></trkpt><trkpt lat="40.07712169860008" lon="8.604182496089217"><ele>254.0</ele><time>2026-03-30T09:30:45Z</time></trkpt><trkpt lat="40.077192624051776" lon="8.604016042768686"><ele>253.75</ele><time>2026-03-30T09:30:46Z</time></trkpt><trkpt lat="40.07726721189583" lon="8.603843542071917"><ele>253.5</ele><time>2026-03-30T09:30:47Z</time></trkpt><trkpt lat="40.07733941722357" lon="8.603678945744736"><ele>253.25</ele><time>2026-03-30T09:30:48Z</time></trkpt><trkpt lat="40.07741032584291" lon="8.603518769248893"><ele>253.0</ele><time>2026-03-30T09:30:49Z</time></trkpt><trkpt lat="40.07747378761025" lon="8.603356063776644"><ele>251.75</ele><time>2026-03-30T09:30:50Z</time></trkpt><trkpt lat="40.07751974674133" lon="8.603187736350348"><ele>250.5</ele><time>2026-03-30T09:30:51Z</time></trkpt><trkpt lat="40.07753699126407" lon="8.603015930787606"><ele>249.25</ele><time>2026-03-30T09:30:52Z</time></trkpt><trkpt lat="40.077528232953675" lon="8.60285332546464"><ele>248.0</ele><time>2026-03-30T09:30:53Z</time></trkpt><trkpt lat="40.07749491836859" lon="8.60269684842734"><ele>248.25</ele><time>2026-03-30T09:30:54Z</time></trkpt><trkpt lat="40.07743155808363" lon="8.602560956029691"><ele>248.5</ele><time>2026-03-30T09:30:55Z</time></trkpt><trkpt lat="40.07734969734229" lon="8.602449353792254"><ele>248.75</ele><time>2026-03-30T09:30:56Z</time></trkpt><trkpt lat="40.07725677526659" lon="8.602351454312846"><ele>249.0</ele><time>2026-03-30T09:30:57Z</time></trkpt><trkpt lat="40.07716502645346" lon="8.602233704311008"><ele>249.0</ele><time>2026-03-30T09:30:58Z</time></trkpt><trkpt lat="40.07706947097994" lon="8.60210382074319"><ele>249.0</ele><time>2026-03-30T09:30:59Z</time></trkpt><trkpt lat="40.07695724124611" lon="8.601990841525593"><ele>249.0</ele><time>2026-03-30T09:31:00Z</time></trkpt><trkpt lat="40.07682258924156" lon="8.601909515992501"><ele>249.0</ele><time>2026-03-30T09:31:01Z</time></trkpt><trkpt lat="40.07667254754558" lon="8.601860667762063"><ele>245.33333333333331</ele><time>2026-03-30T09:31:02Z</time></trkpt><trkpt lat="40.07651802345531" lon="8.601823523018957"><ele>241.66666666666666</ele><time>2026-03-30T09:31:03Z</time></trkpt><trkpt lat="40.076371493491095" lon="8.601778261517744"><ele>238.0</ele><time>2026-03-30T09:31:04Z</time></trkpt><trkpt lat="40.07622416467347" lon="8.601729166676158"><ele>238.0</ele><time>2026-03-30T09:31:05Z</time></trkpt><trkpt lat="40.076076104943525" lon="8.601697114562585"><ele>238.0</ele><time>2026-03-30T09:31:06Z</time></trkpt><trkpt lat="40.07593064751103" lon="8.601711413246305"><ele>238.0</ele><time>2026-03-30T09:31:07Z</time></trkpt><trkpt lat="40.07577782103117" lon="8.601771395630657"><ele>237.0</ele><time>2026-03-30T09:31:08Z</time></trkpt><trkpt lat="40.07562724040552" lon="8.60182550232199"><ele>236.0</ele><time>2026-03-30T09:31:09Z</time></trkpt><trkpt lat="40.075472791633146" lon="8.601901482226994"><ele>235.0</ele><time>2026-03-30T09:31:10Z</time></trkpt><trkpt lat="40.075302032911125" lon="8.601976459208664"><ele>235.66666666666666</ele><time>2026-03-30T09:31:11Z</time></trkpt><trkpt lat="40.07512920293498" lon="8.602089540731388"><ele>236.33333333333331</ele><time>2026-03-30T09:31:12Z</time></trkpt><trkpt lat="40.074966124605496" lon="8.602223002368152"><ele>237.0</ele><time>2026-03-30T09:31:13Z</time></trkpt><trkpt lat="40.074823725835984" lon="8.602374377136414"><ele>235.33333333333331</ele><time>2026-03-30T09:31:14Z</time></trkpt><trkpt lat="40.074696378886266" lon="8.602565523227122"><ele>233.66666666666666</ele><time>2026-03-30T09:31:15Z</time></trkpt><trkpt lat="40.074591412877545" lon="8.602752898949998"><ele>232.0</ele><time>2026-03-30T09:31:16Z</time></trkpt><trkpt lat="40.07449686153484" lon="8.60291831469073"><ele>232.0</ele><time>2026-03-30T09:31:17Z</time></trkpt><trkpt lat="40.0744022549665" lon="8.603072247525878"><ele>232.0</ele><time>2026-03-30T09:31:19Z</time></trkpt><trkpt lat="40.07428456927112" lon="8.60316684952168"><ele>232.0</ele><time>2026-03-30T09:31:20Z</time></trkpt><trkpt lat="40.07415269706967" lon="8.603242283537323"><ele>232.0</ele><time>2026-03-30T09:31:21Z</time></trkpt><trkpt lat="40.07400248066725" lon="8.603321242140424"><ele>229.33333333333331</ele><time>2026-03-30T09:31:22Z</time></trkpt><trkpt lat="40.073842370060824" lon="8.60339999539407"><ele>226.66666666666669</ele><time>2026-03-30T09:31:23Z</time></trkpt><trkpt lat="40.0736859376227" lon="8.603497604948892"><ele>224.0</ele><time>2026-03-30T09:31:24Z</time></trkpt><trkpt lat="40.07352636438838" lon="8.60358800534405"><ele>225.33333333333334</ele><time>2026-03-30T09:31:25Z</time></trkpt><trkpt lat="40.073379090299866" lon="8.60369491843796"><ele>226.66666666666669</ele><time>2026-03-30T09:31:26Z</time></trkpt><trkpt lat="40.07325170601097" lon="8.603826494881707"><ele>228.0</ele><time>2026-03-30T09:31:27Z</time></trkpt><trkpt lat="40.073131341636795" lon="8.60397857623023"><ele>225.75</ele><time>2026-03-30T09:31:28Z</time></trkpt><trkpt lat="40.07300519672452" lon="8.604089654972201"><ele>223.5</ele><time>2026-03-30T09:31:29Z</time></trkpt><trkpt lat="40.072887190048846" lon="8.604176219375889"><ele>221.25</ele><time>2026-03-30T09:31:30Z</time></trkpt><trkpt lat="40.0727634831137" lon="8.604209867563497"><ele>219.0</ele><time>2026-03-30T09:31:31Z</time></trkpt><trkpt lat="40.07265419763132" lon="8.604179920464494"><ele>219.0</ele><time>2026-03-30T09:31:32Z</time></trkpt><trkpt lat="40.07257192478524" lon="8.604117358522881"><ele>218.99999999999997</ele><time>2026-03-30T09:31:33Z</time></trkpt><trkpt lat="40.07249451451658" lon="8.604038707958509"><ele>218.99999999999997</ele><time>2026-03-30T09:31:34Z</time></trkpt><trkpt lat="40.072506785084286" lon="8.603904878820071"><ele>219.0</ele><time>2026-03-30T09:31:35Z</time></trkpt><trkpt lat="40.072471022256025" lon="8.603745762442971"><ele>219.0</ele><time>2026-03-30T09:31:36Z</time></trkpt><trkpt lat="40.07243734404205" lon="8.603588037390695"><ele>217.25</ele><time>2026-03-30T09:31:37Z</time></trkpt><trkpt lat="40.07240117426306" lon="8.603426100584286"><ele>215.5</ele><time>2026-03-30T09:31:38Z</time></trkpt><trkpt lat="40.07235861258767" lon="8.60325400492969"><ele>213.75</ele><time>2026-03-30T09:31:39Z</time></trkpt><trkpt lat="40.07229144441546" lon="8.603097713809719"><ele>212.0</ele><time>2026-03-30T09:31:40Z</time></trkpt><trkpt lat="40.07220806568613" lon="8.602963117017513"><ele>212.0</ele><time>2026-03-30T09:31:41Z</time></trkpt><trkpt lat="40.0720821837067" lon="8.602885680484391"><ele>212.0</ele><time>2026-03-30T09:31:42Z</time></trkpt><trkpt lat="40.07194351937188" lon="8.602834040943595"><ele>212.0</ele><time>2026-03-30T09:31:43Z</time></trkpt><trkpt lat="40.07179716230705" lon="8.602787530617874"><ele>212.0</ele><time>2026-03-30T09:31:44Z</time></trkpt><trkpt lat="40.07164274698019" lon="8.602735946628465"><ele>210.66666666666669</ele><time>2026-03-30T09:31:45Z</time></trkpt><trkpt lat="40.07148514811403" lon="8.602679028189227"><ele>209.33333333333331</ele><time>2026-03-30T09:31:46Z</time></trkpt><trkpt lat="40.071325277368615" lon="8.602626111689267"><ele>208.0</ele><time>2026-03-30T09:31:47Z</time></trkpt><trkpt lat="40.07117080900537" lon="8.6025725516303"><ele>208.0</ele><time>2026-03-30T09:31:48Z</time></trkpt><trkpt lat="40.071020574898974" lon="8.602517859480045"><ele>208.0</ele><time>2026-03-30T09:31:49Z</time></trkpt><trkpt lat="40.07085995535959" lon="8.602465763734138"><ele>208.0</ele><time>2026-03-30T09:31:50Z</time></trkpt><trkpt lat="40.07068511735657" lon="8.602447746737045"><ele>205.66666666666666</ele><time>2026-03-30T09:31:51Z</time></trkpt><trkpt lat="40.07050291021682" lon="8.602461535811312"><ele>203.33333333333331</ele><time>2026-03-30T09:31:52Z</time></trkpt><trkpt lat="40.07032343290578" lon="8.602478955465877"><ele>201.0</ele><time>2026-03-30T09:31:53Z</time></trkpt><trkpt lat="40.07014931980971" lon="8.602500816776386"><ele>201.0</ele><time>2026-03-30T09:31:54Z</time></trkpt><trkpt lat="40.06997934221679" lon="8.602519381287678"><ele>201.0</ele><time>2026-03-30T09:31:55Z</time></trkpt><trkpt lat="40.069832474941194" lon="8.60254257774161"><ele>201.0</ele><time>2026-03-30T09:31:56Z</time></trkpt><trkpt lat="40.06970199587978" lon="8.602616838137141"><ele>199.66666666666669</ele><time>2026-03-30T09:31:57Z</time></trkpt><trkpt lat="40.06958270287508" lon="8.602746840754847"><ele>198.33333333333334</ele><time>2026-03-30T09:31:58Z</time></trkpt><trkpt lat="40.069475369283445" lon="8.602908252246085"><ele>197.0</ele><time>2026-03-30T09:31:59Z</time></trkpt><trkpt lat="40.06937560830901" lon="8.603072097231111"><ele>196.75</ele><time>2026-03-30T09:32:00Z</time></trkpt><trkpt lat="40.06927754895253" lon="8.60322302824845"><ele>196.5</ele><time>2026-03-30T09:32:01Z</time></trkpt><trkpt lat="40.069170598439186" lon="8.603358526963978"><ele>196.25</ele><time>2026-03-30T09:32:02Z</time></trkpt><trkpt lat="40.069065710164935" lon="8.603486165499652"><ele>196.0</ele><time>2026-03-30T09:32:03Z</time></trkpt><trkpt lat="40.068943819559195" lon="8.603573999565496"><ele>195.25</ele><time>2026-03-30T09:32:04Z</time></trkpt><trkpt lat="40.06882028801436" lon="8.603626522602582"><ele>194.5</ele><time>2026-03-30T09:32:05Z</time></trkpt><trkpt lat="40.0686890922273" lon="8.603623507512262"><ele>193.75</ele><time>2026-03-30T09:32:06Z</time></trkpt><trkpt lat="40.068538228620795" lon="8.60360710148336"><ele>193.0</ele><time>2026-03-30T09:32:07Z</time></trkpt><trkpt lat="40.068374386865386" lon="8.603600964200787"><ele>191.0</ele><time>2026-03-30T09:32:08Z</time></trkpt><trkpt lat="40.06821118599436" lon="8.603564146391049"><ele>189.0</ele><time>2026-03-30T09:32:09Z</time></trkpt><trkpt lat="40.06804759741917" lon="8.603531869713974"><ele>187.0</ele><time>2026-03-30T09:32:10Z</time></trkpt><trkpt lat="40.06789470099631" lon="8.603458530138957"><ele>187.0</ele><time>2026-03-30T09:32:11Z</time></trkpt><trkpt lat="40.06773158984096" lon="8.603407263332995"><ele>187.0</ele><time>2026-03-30T09:32:12Z</time></trkpt><trkpt lat="40.06758777480033" lon="8.603316547148381"><ele>187.0</ele><time>2026-03-30T09:32:13Z</time></trkpt><trkpt lat="40.06744873008993" lon="8.603243731046657"><ele>185.0</ele><time>2026-03-30T09:32:14Z</time></trkpt><trkpt lat="40.06734837901029" lon="8.603096940030202"><ele>183.0</ele><time>2026-03-30T09:32:15Z</time></trkpt><trkpt lat="40.067244380918325" lon="8.602944056357654"><ele>181.0</ele><time>2026-03-30T09:32:16Z</time></trkpt><trkpt lat="40.067141458738256" lon="8.602773337858547"><ele>181.0</ele><time>2026-03-30T09:32:17Z</time></trkpt><trkpt lat="40.067027684166106" lon="8.602613516474912"><ele>181.0</ele><time>2026-03-30T09:32:18Z</time></trkpt><trkpt lat="40.066928647997926" lon="8.602443198201398"><ele>181.0</ele><time>2026-03-30T09:32:19Z</time></trkpt><trkpt lat="40.06682045789539" lon="8.60229208577871"><ele>181.0</ele><time>2026-03-30T09:32:20Z</time></trkpt><trkpt lat="40.06669816797574" lon="8.602163625709457"><ele>181.0</ele><time>2026-03-30T09:32:21Z</time></trkpt><trkpt lat="40.06656047089407" lon="8.60207230979438"><ele>181.0</ele><time>2026-03-30T09:32:22Z</time></trkpt><trkpt lat="40.06640881666746" lon="8.602022836208535"><ele>179.33333333333334</ele><time>2026-03-30T09:32:23Z</time></trkpt><trkpt lat="40.066253422966675" lon="8.602008726034663"><ele>177.66666666666666</ele><time>2026-03-30T09:32:24Z</time></trkpt><trkpt lat="40.06609106093027" lon="8.602033054387594"><ele>176.0</ele><time>2026-03-30T09:32:25Z</time></trkpt><trkpt lat="40.0659269302547" lon="8.602101669459056"><ele>173.66666666666666</ele><time>2026-03-30T09:32:26Z</time></trkpt><trkpt lat="40.0657605237949" lon="8.602143523191902"><ele>171.33333333333334</ele><time>2026-03-30T09:32:27Z</time></trkpt><trkpt lat="40.06559992333879" lon="8.602193283454657"><ele>169.0</ele><time>2026-03-30T09:32:28Z</time></trkpt><trkpt lat="40.06544613819819" lon="8.602240932088735"><ele>169.0</ele><time>2026-03-30T09:32:29Z</time></trkpt><trkpt lat="40.06530194468145" lon="8.602299069034851"><ele>169.0</ele><time>2026-03-30T09:32:30Z</time></trkpt><trkpt lat="40.06516484103231" lon="8.602295132977067"><ele>169.0</ele><time>2026-03-30T09:32:31Z</time></trkpt><trkpt lat="40.06504033233102" lon="8.602285575364705"><ele>169.0</ele><time>2026-03-30T09:32:32Z</time></trkpt><trkpt lat="40.064940189283966" lon="8.602184339948979"><ele>167.75</ele><time>2026-03-30T09:32:33Z</time></trkpt><trkpt lat="40.064879936962306" lon="8.602050235016245"><ele>166.5</ele><time>2026-03-30T09:32:34Z</time></trkpt><trkpt lat="40.06485522247241" lon="8.601882505954054"><ele>165.25</ele><time>2026-03-30T09:32:35Z</time></trkpt><trkpt lat="40.06483088140855" lon="8.60170960926918"><ele>164.0</ele><time>2026-03-30T09:32:36Z</time></trkpt><trkpt lat="40.0648042632118" lon="8.60153200936858"><ele>164.0</ele><time>2026-03-30T09:32:37Z</time></trkpt><trkpt lat="40.06478292705887" lon="8.6013381009851"><ele>164.0</ele><time>2026-03-30T09:32:38Z</time></trkpt><trkpt lat="40.0647594825282" lon="8.601133201036001"><ele>164.0</ele><time>2026-03-30T09:32:39Z</time></trkpt><trkpt lat="40.064733158453976" lon="8.600936947925359"><ele>163.33333333333331</ele><time>2026-03-30T09:32:40Z</time></trkpt><trkpt lat="40.06470759850251" lon="8.600742091862887"><ele>162.66666666666666</ele><time>2026-03-30T09:32:41Z</time></trkpt><trkpt lat="40.064683981576" lon="8.600535628383474"><ele>162.0</ele><time>2026-03-30T09:32:42Z</time></trkpt><trkpt lat="40.06465183335728" lon="8.600328189387485"><ele>160.66666666666666</ele><time>2026-03-30T09:32:43Z</time></trkpt><trkpt lat="40.06461796711672" lon="8.600129504565796"><ele>159.33333333333331</ele><time>2026-03-30T09:32:44Z</time></trkpt><trkpt lat="40.06458797120876" lon="8.599934875806033"><ele>158.0</ele><time>2026-03-30T09:32:45Z</time></trkpt><trkpt lat="40.064597850050944" lon="8.599749924655965"><ele>158.0</ele><time>2026-03-30T09:32:46Z</time></trkpt><trkpt lat="40.06463405945954" lon="8.59959718671775"><ele>158.0</ele><time>2026-03-30T09:32:47Z</time></trkpt><trkpt lat="40.06471889433674" lon="8.599479335551052"><ele>158.0</ele><time>2026-03-30T09:32:48Z</time></trkpt><trkpt lat="40.06482716734299" lon="8.599357013079537"><ele>158.0</ele><time>2026-03-30T09:32:49Z</time></trkpt><trkpt lat="40.06492562898073" lon="8.59921379212187"><ele>158.25</ele><time>2026-03-30T09:32:50Z</time></trkpt><trkpt lat="40.065004725678094" lon="8.599066085588168"><ele>158.5</ele><time>2026-03-30T09:32:51Z</time></trkpt><trkpt lat="40.06505303435963" lon="8.598888990806296"><ele>158.75</ele><time>2026-03-30T09:32:52Z</time></trkpt><trkpt lat="40.06505207722307" lon="8.598685542835026"><ele>159.0</ele><time>2026-03-30T09:32:53Z</time></trkpt><trkpt lat="40.06504059325774" lon="8.598483836346713"><ele>158.0</ele><time>2026-03-30T09:32:54Z</time></trkpt><trkpt lat="40.06503652810001" lon="8.598286680319534"><ele>157.0</ele><time>2026-03-30T09:32:55Z</time></trkpt><trkpt lat="40.06503597292853" lon="8.598083176887013"><ele>156.0</ele><time>2026-03-30T09:32:56Z</time></trkpt><trkpt lat="40.065019379030744" lon="8.597872966907156"><ele>155.33333333333334</ele><time>2026-03-30T09:32:57Z</time></trkpt><trkpt lat="40.064976192936186" lon="8.597666325602553"><ele>154.66666666666669</ele><time>2026-03-30T09:32:58Z</time></trkpt><trkpt lat="40.064912810992226" lon="8.597460923099446"><ele>154.0</ele><time>2026-03-30T09:32:59Z</time></trkpt><trkpt lat="40.0648412800455" lon="8.597253447057497"><ele>152.33333333333334</ele><time>2026-03-30T09:33:00Z</time></trkpt><trkpt lat="40.064770688009496" lon="8.59704611374991"><ele>150.66666666666666</ele><time>2026-03-30T09:33:00.999Z</time></trkpt><trkpt lat="40.064704561715146" lon="8.596826095138054"><ele>149.0</ele><time>2026-03-30T09:33:01.999Z</time></trkpt><trkpt lat="40.06463721988779" lon="8.596605446413887"><ele>149.0</ele><time>2026-03-30T09:33:02.999Z</time></trkpt><trkpt lat="40.06457429854743" lon="8.59639179345316"><ele>149.0</ele><time>2026-03-30T09:33:03.999Z</time></trkpt><trkpt lat="40.06451201980011" lon="8.596182265549192"><ele>149.0</ele><time>2026-03-30T09:33:04.999Z</time></trkpt><trkpt lat="40.06445174764758" lon="8.595973090575313"><ele>148.66666666666666</ele><time>2026-03-30T09:33:05.999Z</time></trkpt><trkpt lat="40.06439114039224" lon="8.595766494607757"><ele>148.33333333333334</ele><time>2026-03-30T09:33:06.999Z</time></trkpt><trkpt lat="40.06432026152138" lon="8.595569789212906"><ele>148.0</ele><time>2026-03-30T09:33:07.999Z</time></trkpt><trkpt lat="40.064222771654414" lon="8.595378660939293"><ele>147.0</ele><time>2026-03-30T09:33:08.999Z</time></trkpt><trkpt lat="40.06410640025212" lon="8.595199678089296"><ele>146.0</ele><time>2026-03-30T09:33:09.999Z</time></trkpt><trkpt lat="40.0639781005393" lon="8.595027190850796"><ele>145.0</ele><time>2026-03-30T09:33:10.999Z</time></trkpt><trkpt lat="40.06384928726337" lon="8.594854835705624"><ele>145.0</ele><time>2026-03-30T09:33:11.999Z</time></trkpt><trkpt lat="40.063720681957214" lon="8.594674382739802"><ele>145.0</ele><time>2026-03-30T09:33:12.999Z</time></trkpt><trkpt lat="40.063592118707405" lon="8.59449042266088"><ele>145.0</ele><time>2026-03-30T09:33:13.999Z</time></trkpt><trkpt lat="40.06346307402249" lon="8.59430759421533"><ele>144.33333333333334</ele><time>2026-03-30T09:33:14.999Z</time></trkpt><trkpt lat="40.063329088798895" lon="8.59412208177246"><ele>143.66666666666666</ele><time>2026-03-30T09:33:15.999Z</time></trkpt><trkpt lat="40.06319654767745" lon="8.593935817790333"><ele>143.0</ele><time>2026-03-30T09:33:16.999Z</time></trkpt><trkpt lat="40.06306393184574" lon="8.593748906598382"><ele>142.0</ele><time>2026-03-30T09:33:17.999Z</time></trkpt><trkpt lat="40.06292961713568" lon="8.593558525354366"><ele>141.0</ele><time>2026-03-30T09:33:18.999Z</time></trkpt><trkpt lat="40.06279798413962" lon="8.593365511999137"><ele>140.0</ele><time>2026-03-30T09:33:19.999Z</time></trkpt><trkpt lat="40.06266270678475" lon="8.59317569839817"><ele>140.0</ele><time>2026-03-30T09:33:20.999Z</time></trkpt><trkpt lat="40.06252625740171" lon="8.59298508760751"><ele>140.0</ele><time>2026-03-30T09:33:21.999Z</time></trkpt><trkpt lat="40.06239111092843" lon="8.592798593512082"><ele>140.0</ele><time>2026-03-30T09:33:22.999Z</time></trkpt><trkpt lat="40.062263979966446" lon="8.592618831775667"><ele>139.0</ele><time>2026-03-30T09:33:23.999Z</time></trkpt><trkpt lat="40.062137553650025" lon="8.592437310557512"><ele>138.0</ele><time>2026-03-30T09:33:24.999Z</time></trkpt><trkpt lat="40.06201120540619" lon="8.592256018324516"><ele>137.0</ele><time>2026-03-30T09:33:25.999Z</time></trkpt><trkpt lat="40.06188138748809" lon="8.592075451079928"><ele>137.0</ele><time>2026-03-30T09:33:26.999Z</time></trkpt><trkpt lat="40.06174723920199" lon="8.591898852039304"><ele>137.0</ele><time>2026-03-30T09:33:27.999Z</time></trkpt><trkpt lat="40.06160705983573" lon="8.59173127190598"><ele>137.0</ele><time>2026-03-30T09:33:29Z</time></trkpt><trkpt lat="40.06146156582804" lon="8.591572030840146"><ele>136.66666666666666</ele><time>2026-03-30T09:33:30Z</time></trkpt><trkpt lat="40.06131469267066" lon="8.591413427752775"><ele>136.33333333333334</ele><time>2026-03-30T09:33:31Z</time></trkpt><trkpt lat="40.06117049762671" lon="8.59125083302858"><ele>136.0</ele><time>2026-03-30T09:33:32Z</time></trkpt><trkpt lat="40.06102972185645" lon="8.591087337983929"><ele>135.33333333333334</ele><time>2026-03-30T09:33:33Z</time></trkpt><trkpt lat="40.06089365916352" lon="8.590932302829662"><ele>134.66666666666666</ele><time>2026-03-30T09:33:34Z</time></trkpt><trkpt lat="40.06076374210404" lon="8.59078821381942"><ele>134.0</ele><time>2026-03-30T09:33:35Z</time></trkpt><trkpt lat="40.06065175305437" lon="8.59064283054412"><ele>133.0</ele><time>2026-03-30T09:33:36Z</time></trkpt><trkpt lat="40.06056303506771" lon="8.590474627371684"><ele>132.0</ele><time>2026-03-30T09:33:37Z</time></trkpt><trkpt lat="40.060508718379" lon="8.590282399020596"><ele>131.0</ele><time>2026-03-30T09:33:38Z</time></trkpt><trkpt lat="40.060491806209086" lon="8.590078584308873"><ele>131.0</ele><time>2026-03-30T09:33:39Z</time></trkpt><trkpt lat="40.060510914185585" lon="8.589863545708312"><ele>131.0</ele><time>2026-03-30T09:33:40Z</time></trkpt><trkpt lat="40.06057628560471" lon="8.589663173125167"><ele>131.0</ele><time>2026-03-30T09:33:41Z</time></trkpt><trkpt lat="40.06062248887277" lon="8.589451119380438"><ele>131.0</ele><time>2026-03-30T09:33:42Z</time></trkpt><trkpt lat="40.06068356260158" lon="8.5892464408575"><ele>131.0</ele><time>2026-03-30T09:33:43Z</time></trkpt><trkpt lat="40.060731831442226" lon="8.589053015814493"><ele>131.0</ele><time>2026-03-30T09:33:44Z</time></trkpt><trkpt lat="40.06076124613815" lon="8.588853165294335"><ele>130.66666666666666</ele><time>2026-03-30T09:33:45Z</time></trkpt><trkpt lat="40.06075886120356" lon="8.588647191284533"><ele>130.33333333333334</ele><time>2026-03-30T09:33:46Z</time></trkpt><trkpt lat="40.06072953505862" lon="8.588436396009444"><ele>130.0</ele><time>2026-03-30T09:33:47Z</time></trkpt><trkpt lat="40.06068572469944" lon="8.588222742251501"><ele>130.0</ele><time>2026-03-30T09:33:48Z</time></trkpt><trkpt lat="40.06064861490638" lon="8.588010096259904"><ele>130.0</ele><time>2026-03-30T09:33:49Z</time></trkpt><trkpt lat="40.06060722757722" lon="8.587802765917072"><ele>130.0</ele><time>2026-03-30T09:33:50Z</time></trkpt><trkpt lat="40.06054280643305" lon="8.587607918667482"><ele>129.33333333333334</ele><time>2026-03-30T09:33:51Z</time></trkpt><trkpt lat="40.060448392149326" lon="8.587437329684454"><ele>128.66666666666666</ele><time>2026-03-30T09:33:52Z</time></trkpt><trkpt lat="40.060325884057875" lon="8.58729606429256"><ele>128.0</ele><time>2026-03-30T09:33:53Z</time></trkpt><trkpt lat="40.060186138392154" lon="8.58718824784049"><ele>128.0</ele><time>2026-03-30T09:33:54Z</time></trkpt><trkpt lat="40.06003506372355" lon="8.587094203520161"><ele>128.0</ele><time>2026-03-30T09:33:55Z</time></trkpt><trkpt lat="40.05988173953074" lon="8.586997324414927"><ele>128.0</ele><time>2026-03-30T09:33:56Z</time></trkpt><trkpt lat="40.05972853050995" lon="8.586900551575479"><ele>126.33333333333333</ele><time>2026-03-30T09:33:57Z</time></trkpt><trkpt lat="40.0595755275497" lon="8.586793942178105"><ele>124.66666666666666</ele><time>2026-03-30T09:33:58Z</time></trkpt><trkpt lat="40.05942116979412" lon="8.586679069580354"><ele>123.0</ele><time>2026-03-30T09:33:59Z</time></trkpt><trkpt lat="40.05927847415397" lon="8.58655358550702"><ele>123.0</ele><time>2026-03-30T09:34:00Z</time></trkpt><trkpt lat="40.05914447717082" lon="8.586425830922078"><ele>123.0</ele><time>2026-03-30T09:34:01Z</time></trkpt><trkpt lat="40.059015005333265" lon="8.58629183477255"><ele>123.0</ele><time>2026-03-30T09:34:02Z</time></trkpt><trkpt lat="40.05888142702503" lon="8.586149030743158"><ele>121.33333333333334</ele><time>2026-03-30T09:34:03Z</time></trkpt><trkpt lat="40.05874652743548" lon="8.586005728860185"><ele>119.66666666666667</ele><time>2026-03-30T09:34:04Z</time></trkpt><trkpt lat="40.05860703286851" lon="8.585860646489214"><ele>118.0</ele><time>2026-03-30T09:34:05Z</time></trkpt><trkpt lat="40.05846428458454" lon="8.585718544088245"><ele>118.0</ele><time>2026-03-30T09:34:06Z</time></trkpt><trkpt lat="40.05832384808428" lon="8.585580734267507"><ele>118.0</ele><time>2026-03-30T09:34:07Z</time></trkpt><trkpt lat="40.058180824798704" lon="8.585458295273783"><ele>118.0</ele><time>2026-03-30T09:34:08Z</time></trkpt><trkpt lat="40.05802243277235" lon="8.585363678537206"><ele>115.33333333333334</ele><time>2026-03-30T09:34:09Z</time></trkpt><trkpt lat="40.05785198900611" lon="8.585302834361887"><ele>112.66666666666666</ele><time>2026-03-30T09:34:10Z</time></trkpt><trkpt lat="40.057679689803024" lon="8.585276581967934"><ele>110.0</ele><time>2026-03-30T09:34:11Z</time></trkpt><trkpt lat="40.0575098475503" lon="8.585292645373702"><ele>110.33333333333333</ele><time>2026-03-30T09:34:12Z</time></trkpt><trkpt lat="40.057346338386054" lon="8.585306470895427"><ele>110.66666666666666</ele><time>2026-03-30T09:34:13Z</time></trkpt><trkpt lat="40.05719252811129" lon="8.58531167580822"><ele>111.0</ele><time>2026-03-30T09:34:14Z</time></trkpt><trkpt lat="40.05705502436791" lon="8.585283204901426"><ele>111.0</ele><time>2026-03-30T09:34:15Z</time></trkpt><trkpt lat="40.05691925143614" lon="8.585215266742583"><ele>111.0</ele><time>2026-03-30T09:34:16Z</time></trkpt><trkpt lat="40.05682010337711" lon="8.585109321596972"><ele>111.0</ele><time>2026-03-30T09:34:17Z</time></trkpt><trkpt lat="40.056747306052415" lon="8.584966315999628"><ele>111.0</ele><time>2026-03-30T09:34:18Z</time></trkpt><trkpt lat="40.05671891436991" lon="8.584802515408626"><ele>111.0</ele><time>2026-03-30T09:34:19Z</time></trkpt><trkpt lat="40.05670411093895" lon="8.584603550231877"><ele>111.0</ele><time>2026-03-30T09:34:20Z</time></trkpt><trkpt lat="40.056702996903056" lon="8.584399844967036"><ele>111.0</ele><time>2026-03-30T09:34:21Z</time></trkpt><trkpt lat="40.05672125522845" lon="8.584193954793253"><ele>109.0</ele><time>2026-03-30T09:34:22Z</time></trkpt><trkpt lat="40.05674285000531" lon="8.583979620231077"><ele>107.0</ele><time>2026-03-30T09:34:23Z</time></trkpt><trkpt lat="40.05676341240991" lon="8.58376145280771"><ele>105.0</ele><time>2026-03-30T09:34:24Z</time></trkpt><trkpt lat="40.05678512901464" lon="8.583547076146084"><ele>104.75</ele><time>2026-03-30T09:34:25Z</time></trkpt><trkpt lat="40.05680662327216" lon="8.583346360416519"><ele>104.5</ele><time>2026-03-30T09:34:26Z</time></trkpt><trkpt lat="40.05680837579616" lon="8.58315552785821"><ele>104.25</ele><time>2026-03-30T09:34:27Z</time></trkpt><trkpt lat="40.05682392619182" lon="8.582985114537463"><ele>104.0</ele><time>2026-03-30T09:34:28Z</time></trkpt><trkpt lat="40.05680928788439" lon="8.582825019979358"><ele>104.0</ele><time>2026-03-30T09:34:29Z</time></trkpt><trkpt lat="40.05675615476806" lon="8.582652350353008"><ele>104.0</ele><time>2026-03-30T09:34:30Z</time></trkpt><trkpt lat="40.056661064141785" lon="8.582494287343247"><ele>104.0</ele><time>2026-03-30T09:34:31Z</time></trkpt><trkpt lat="40.05653907447852" lon="8.58234918947025"><ele>104.0</ele><time>2026-03-30T09:34:32Z</time></trkpt><trkpt lat="40.05639462709641" lon="8.582220539509002"><ele>104.0</ele><time>2026-03-30T09:34:33Z</time></trkpt><trkpt lat="40.05625247132811" lon="8.582095906798566"><ele>104.0</ele><time>2026-03-30T09:34:34Z</time></trkpt><trkpt lat="40.05611181469225" lon="8.581954951104212"><ele>103.0</ele><time>2026-03-30T09:34:35Z</time></trkpt><trkpt lat="40.0559628369547" lon="8.581806769466962"><ele>102.0</ele><time>2026-03-30T09:34:36Z</time></trkpt><trkpt lat="40.055827664712545" lon="8.581633103584847"><ele>101.0</ele><time>2026-03-30T09:34:37Z</time></trkpt><trkpt lat="40.0557328657569" lon="8.58141780918526"><ele>101.0</ele><time>2026-03-30T09:34:38Z</time></trkpt><trkpt lat="40.055616254306166" lon="8.581217006931976"><ele>101.0</ele><time>2026-03-30T09:34:39Z</time></trkpt><trkpt lat="40.05553216722037" lon="8.581012900930554"><ele>101.0</ele><time>2026-03-30T09:34:40Z</time></trkpt><trkpt lat="40.05545737180555" lon="8.580804318474208"><ele>98.66666666666666</ele><time>2026-03-30T09:34:41Z</time></trkpt><trkpt lat="40.055396557973964" lon="8.580592099818187"><ele>96.33333333333333</ele><time>2026-03-30T09:34:42Z</time></trkpt><trkpt lat="40.05534927872319" lon="8.580382543077768"><ele>94.0</ele><time>2026-03-30T09:34:43Z</time></trkpt><trkpt lat="40.05531789990831" lon="8.58016654043341"><ele>92.0</ele><time>2026-03-30T09:34:44Z</time></trkpt><trkpt lat="40.055307269628216" lon="8.579948465664907"><ele>90.0</ele><time>2026-03-30T09:34:45Z</time></trkpt><trkpt lat="40.05531929373914" lon="8.579737928292632"><ele>88.0</ele><time>2026-03-30T09:34:46Z</time></trkpt><trkpt lat="40.055351867796254" lon="8.57954037274216"><ele>87.25</ele><time>2026-03-30T09:34:47Z</time></trkpt><trkpt lat="40.05538301334702" lon="8.579355659155073"><ele>86.5</ele><time>2026-03-30T09:34:48Z</time></trkpt><trkpt lat="40.05538943735143" lon="8.579183422212767"><ele>85.75</ele><time>2026-03-30T09:34:49Z</time></trkpt><trkpt lat="40.05535133263206" lon="8.579019981971198"><ele>85.0</ele><time>2026-03-30T09:34:50Z</time></trkpt><trkpt lat="40.05527125599138" lon="8.578862816895333"><ele>85.0</ele><time>2026-03-30T09:34:51Z</time></trkpt><trkpt lat="40.055166310025065" lon="8.57872162738126"><ele>85.0</ele><time>2026-03-30T09:34:52Z</time></trkpt><trkpt lat="40.055043219534696" lon="8.578583993693528"><ele>85.0</ele><time>2026-03-30T09:34:53Z</time></trkpt><trkpt lat="40.0549304896147" lon="8.578433951656804"><ele>84.0</ele><time>2026-03-30T09:34:54Z</time></trkpt><trkpt lat="40.05483280921347" lon="8.578266561138198"><ele>83.0</ele><time>2026-03-30T09:34:55Z</time></trkpt><trkpt lat="40.05474312372126" lon="8.578104328321576"><ele>82.0</ele><time>2026-03-30T09:34:56Z</time></trkpt><trkpt lat="40.05465150135258" lon="8.57795181377183"><ele>81.0</ele><time>2026-03-30T09:34:57Z</time></trkpt><trkpt lat="40.0545573596529" lon="8.57780282911913"><ele>80.0</ele><time>2026-03-30T09:34:58Z</time></trkpt><trkpt lat="40.05446423206016" lon="8.577655972657105"><ele>79.0</ele><time>2026-03-30T09:34:59Z</time></trkpt><trkpt lat="40.05437297761464" lon="8.577505559803267"><ele>78.0</ele><time>2026-03-30T09:35:00Z</time></trkpt><trkpt lat="40.054290646254174" lon="8.577361531640427"><ele>78.0</ele><time>2026-03-30T09:35:01Z</time></trkpt><trkpt lat="40.05419960931491" lon="8.577240141777319"><ele>78.0</ele><time>2026-03-30T09:35:02Z</time></trkpt><trkpt lat="40.05409563106793" lon="8.577148706968734"><ele>78.0</ele><time>2026-03-30T09:35:03Z</time></trkpt><trkpt lat="40.05398327904125" lon="8.577089812535183"><ele>78.0</ele><time>2026-03-30T09:35:04Z</time></trkpt><trkpt lat="40.05385698939045" lon="8.577073997386472"><ele>77.25</ele><time>2026-03-30T09:35:05Z</time></trkpt><trkpt lat="40.053729985704415" lon="8.577095185118951"><ele>76.5</ele><time>2026-03-30T09:35:06Z</time></trkpt><trkpt lat="40.053603135469814" lon="8.577143395435108"><ele>75.75</ele><time>2026-03-30T09:35:06.999Z</time></trkpt><trkpt lat="40.05347713048505" lon="8.577207310966946"><ele>75.0</ele><time>2026-03-30T09:35:07.999Z</time></trkpt><trkpt lat="40.05336895255727" lon="8.577328774920739"><ele>74.0</ele><time>2026-03-30T09:35:08.999Z</time></trkpt><trkpt lat="40.05325601303334" lon="8.577412629200206"><ele>73.0</ele><time>2026-03-30T09:35:09.999Z</time></trkpt><trkpt lat="40.05315282633629" lon="8.577507923583433"><ele>72.0</ele><time>2026-03-30T09:35:10.999Z</time></trkpt><trkpt lat="40.05305774038878" lon="8.577611768514934"><ele>71.0</ele><time>2026-03-30T09:35:11.999Z</time></trkpt><trkpt lat="40.052975972464345" lon="8.57772831126738"><ele>71.25</ele><time>2026-03-30T09:35:12.999Z</time></trkpt><trkpt lat="40.0529155734374" lon="8.577878888855508"><ele>71.5</ele><time>2026-03-30T09:35:13.999Z</time></trkpt><trkpt lat="40.05283727817553" lon="8.578018337511486"><ele>71.75</ele><time>2026-03-30T09:35:14.999Z</time></trkpt><trkpt lat="40.05275783230011" lon="8.578155813587355"><ele>72.0</ele><time>2026-03-30T09:35:15.999Z</time></trkpt><trkpt lat="40.05265286613703" lon="8.578262192367978"><ele>72.0</ele><time>2026-03-30T09:35:16.999Z</time></trkpt><trkpt lat="40.052533162752106" lon="8.578338490671923"><ele>72.0</ele><time>2026-03-30T09:35:17.999Z</time></trkpt><trkpt lat="40.05240848361925" lon="8.578365574797633"><ele>72.0</ele><time>2026-03-30T09:35:18.999Z</time></trkpt><trkpt lat="40.05231164429469" lon="8.578375168745382"><ele>72.0</ele><time>2026-03-30T09:35:19.999Z</time></trkpt><trkpt lat="40.05222115907713" lon="8.578354820520058"><ele>72.0</ele><time>2026-03-30T09:35:20.999Z</time></trkpt><trkpt lat="40.052116200017274" lon="8.578310071079667"><ele>71.0</ele><time>2026-03-30T09:35:21.999Z</time></trkpt><trkpt lat="40.052000926438446" lon="8.578259544843341"><ele>70.0</ele><time>2026-03-30T09:35:22.999Z</time></trkpt><trkpt lat="40.051887320842084" lon="8.578178661063715"><ele>69.0</ele><time>2026-03-30T09:35:24Z</time></trkpt><trkpt lat="40.05176935485227" lon="8.578099392417057"><ele>68.0</ele><time>2026-03-30T09:35:25Z</time></trkpt><trkpt lat="40.05164166728951" lon="8.578020963743205"><ele>67.5</ele><time>2026-03-30T09:35:26Z</time></trkpt><trkpt lat="40.05150712689481" lon="8.577946654488231"><ele>67.0</ele><time>2026-03-30T09:35:27Z</time></trkpt><trkpt lat="40.05138039730507" lon="8.577845475313426"><ele>66.5</ele><time>2026-03-30T09:35:28Z</time></trkpt><trkpt lat="40.05123547798847" lon="8.577795791109425"><ele>66.0</ele><time>2026-03-30T09:35:29Z</time></trkpt><trkpt lat="40.05110174945357" lon="8.577727979618578"><ele>64.75</ele><time>2026-03-30T09:35:30Z</time></trkpt><trkpt lat="40.0509730391729" lon="8.577682832438159"><ele>63.5</ele><time>2026-03-30T09:35:31Z</time></trkpt><trkpt lat="40.05084360688071" lon="8.57764710739599"><ele>62.25</ele><time>2026-03-30T09:35:32Z</time></trkpt><trkpt lat="40.0507199480264" lon="8.57760494698431"><ele>61.0</ele><time>2026-03-30T09:35:33Z</time></trkpt><trkpt lat="40.05060860035948" lon="8.57756190836924"><ele>60.99999999999999</ele><time>2026-03-30T09:35:34Z</time></trkpt><trkpt lat="40.05053889333066" lon="8.57749943545414"><ele>61.0</ele><time>2026-03-30T09:35:35Z</time></trkpt><trkpt lat="40.05051430788807" lon="8.577404468288396"><ele>61.0</ele><time>2026-03-30T09:35:36Z</time></trkpt><trkpt lat="40.050487441176024" lon="8.577318313289586"><ele>61.0</ele><time>2026-03-30T09:35:37Z</time></trkpt><trkpt lat="40.050444601387774" lon="8.577225047704175"><ele>60.99999999999999</ele><time>2026-03-30T09:35:38Z</time></trkpt><trkpt lat="40.05037715892141" lon="8.577145370503231"><ele>61.0</ele><time>2026-03-30T09:35:39Z</time></trkpt><trkpt lat="40.05029934365052" lon="8.577095292538447"><ele>60.99999999999999</ele><time>2026-03-30T09:35:40Z</time></trkpt><trkpt lat="40.05023043208978" lon="8.577039602865161"><ele>61.0</ele><time>2026-03-30T09:35:41Z</time></trkpt><trkpt lat="40.050169932870105" lon="8.576976807248386"><ele>61.0</ele><time>2026-03-30T09:35:42Z</time></trkpt><trkpt lat="40.050102502420955" lon="8.576929346008187"><ele>61.0</ele><time>2026-03-30T09:35:43Z</time></trkpt><trkpt lat="40.05005834990871" lon="8.57685997965871"><ele>60.99999999999999</ele><time>2026-03-30T09:35:44Z</time></trkpt><trkpt lat="40.05005931269037" lon="8.576754820909509"><ele>61.0</ele><time>2026-03-30T09:35:45Z</time></trkpt><trkpt lat="40.05005636045175" lon="8.576645829659462"><ele>59.99999999999999</ele><time>2026-03-30T09:35:46Z</time></trkpt><trkpt lat="40.050029100692385" lon="8.576545578237567"><ele>59.0</ele><time>2026-03-30T09:35:47Z</time></trkpt><trkpt lat="40.049968535387585" lon="8.576467216252638"><ele>58.0</ele><time>2026-03-30T09:35:48Z</time></trkpt><trkpt lat="40.049903067851496" lon="8.576404402790612"><ele>57.0</ele><time>2026-03-30T09:35:49Z</time></trkpt><trkpt lat="40.049827261546874" lon="8.576333832543733"><ele>55.99999999999999</ele><time>2026-03-30T09:35:50Z</time></trkpt><trkpt lat="40.0497559992408" lon="8.57625623294133"><ele>55.0</ele><time>2026-03-30T09:35:51Z</time></trkpt><trkpt lat="40.04967681933573" lon="8.5761778678536"><ele>54.4</ele><time>2026-03-30T09:35:52Z</time></trkpt><trkpt lat="40.04959233091123" lon="8.576102989852776"><ele>53.8</ele><time>2026-03-30T09:35:53Z</time></trkpt><trkpt lat="40.049511253750424" lon="8.576029641810479"><ele>53.2</ele><time>2026-03-30T09:35:54Z</time></trkpt><trkpt lat="40.04942488284725" lon="8.575955725155097"><ele>52.6</ele><time>2026-03-30T09:35:55Z</time></trkpt><trkpt lat="40.04933337057009" lon="8.575876239405378"><ele>52.0</ele><time>2026-03-30T09:35:56Z</time></trkpt><trkpt lat="40.0492485226717" lon="8.575796552898023"><ele>52.0</ele><time>2026-03-30T09:35:57Z</time></trkpt><trkpt lat="40.0491673057733" lon="8.575723425804902"><ele>52.0</ele><time>2026-03-30T09:35:58Z</time></trkpt><trkpt lat="40.049091189263414" lon="8.575646206832063"><ele>52.0</ele><time>2026-03-30T09:35:59Z</time></trkpt><trkpt lat="40.04900448425995" lon="8.575581826927264"><ele>52.0</ele><time>2026-03-30T09:36:00Z</time></trkpt><trkpt lat="40.04891060349962" lon="8.57552776011887"><ele>52.0</ele><time>2026-03-30T09:36:01Z</time></trkpt><trkpt lat="40.04881227412105" lon="8.57548187867777"><ele>51.2</ele><time>2026-03-30T09:36:02Z</time></trkpt><trkpt lat="40.04871156489492" lon="8.57543621617858"><ele>50.400000000000006</ele><time>2026-03-30T09:36:03Z</time></trkpt><trkpt lat="40.04860233525893" lon="8.575414889372103"><ele>49.599999999999994</ele><time>2026-03-30T09:36:04Z</time></trkpt><trkpt lat="40.04848568762607" lon="8.575404226901522"><ele>48.8</ele><time>2026-03-30T09:36:05Z</time></trkpt><trkpt lat="40.04837808856682" lon="8.575382588785484"><ele>48.0</ele><time>2026-03-30T09:36:06Z</time></trkpt><trkpt lat="40.04828470857704" lon="8.575361761250326"><ele>46.599999999999994</ele><time>2026-03-30T09:36:07Z</time></trkpt><trkpt lat="40.048188071041594" lon="8.575336817507317"><ele>45.199999999999996</ele><time>2026-03-30T09:36:08Z</time></trkpt><trkpt lat="40.048100884944766" lon="8.575270986193113"><ele>43.8</ele><time>2026-03-30T09:36:09Z</time></trkpt><trkpt lat="40.048003459482345" lon="8.575208136951114"><ele>42.4</ele><time>2026-03-30T09:36:10Z</time></trkpt><trkpt lat="40.047902881770895" lon="8.575143912937675"><ele>41.0</ele><time>2026-03-30T09:36:11Z</time></trkpt><trkpt lat="40.047805600577" lon="8.575070671988277"><ele>41.0</ele><time>2026-03-30T09:36:12Z</time></trkpt><trkpt lat="40.04771716710177" lon="8.574994573498499"><ele>41.0</ele><time>2026-03-30T09:36:13Z</time></trkpt><trkpt lat="40.04763370490388" lon="8.574922513398352"><ele>41.0</ele><time>2026-03-30T09:36:14Z</time></trkpt><trkpt lat="40.04755666076185" lon="8.574842269334132"><ele>41.0</ele><time>2026-03-30T09:36:15Z</time></trkpt><trkpt lat="40.04747816202174" lon="8.574752012100994"><ele>41.0</ele><time>2026-03-30T09:36:16Z</time></trkpt><trkpt lat="40.047403417284436" lon="8.57464967236058"><ele>41.0</ele><time>2026-03-30T09:36:17Z</time></trkpt><trkpt lat="40.04733819954566" lon="8.574530622416429"><ele>41.0</ele><time>2026-03-30T09:36:18Z</time></trkpt><trkpt lat="40.047268275851636" lon="8.57440966312842"><ele>41.0</ele><time>2026-03-30T09:36:19Z</time></trkpt><trkpt lat="40.0471906534313" lon="8.574286448015235"><ele>41.0</ele><time>2026-03-30T09:36:20Z</time></trkpt><trkpt lat="40.04711343876341" lon="8.574162937682082"><ele>41.0</ele><time>2026-03-30T09:36:21Z</time></trkpt><trkpt lat="40.04703233914762" lon="8.574038401510876"><ele>41.0</ele><time>2026-03-30T09:36:22Z</time></trkpt><trkpt lat="40.046952644851025" lon="8.573905631902266"><ele>41.0</ele><time>2026-03-30T09:36:23Z</time></trkpt><trkpt lat="40.04687175248186" lon="8.573769252615843"><ele>41.0</ele><time>2026-03-30T09:36:24Z</time></trkpt><trkpt lat="40.04678650569038" lon="8.57362978555715"><ele>41.25</ele><time>2026-03-30T09:36:25Z</time></trkpt><trkpt lat="40.046704870826545" lon="8.573502867418615"><ele>41.5</ele><time>2026-03-30T09:36:26Z</time></trkpt><trkpt lat="40.046612355050705" lon="8.573362346566089"><ele>41.75</ele><time>2026-03-30T09:36:27Z</time></trkpt><trkpt lat="40.04652897289142" lon="8.57322598061295"><ele>42.0</ele><time>2026-03-30T09:36:28Z</time></trkpt><trkpt lat="40.04645716492602" lon="8.573111671044378"><ele>41.4</ele><time>2026-03-30T09:36:29Z</time></trkpt><trkpt lat="40.04639577339067" lon="8.573007490883882"><ele>40.800000000000004</ele><time>2026-03-30T09:36:30Z</time></trkpt><trkpt lat="40.04632854347122" lon="8.572895401405416"><ele>40.2</ele><time>2026-03-30T09:36:31Z</time></trkpt><trkpt lat="40.0462573262764" lon="8.572779226081806"><ele>39.6</ele><time>2026-03-30T09:36:32Z</time></trkpt><trkpt lat="40.04618242934705" lon="8.57265868084679"><ele>39.0</ele><time>2026-03-30T09:36:33Z</time></trkpt><trkpt lat="40.04610427145096" lon="8.572535990764365"><ele>38.666666666666664</ele><time>2026-03-30T09:36:34Z</time></trkpt><trkpt lat="40.04602765439398" lon="8.572408853879717"><ele>38.33333333333333</ele><time>2026-03-30T09:36:35Z</time></trkpt><trkpt lat="40.04586928352979" lon="8.572142938091723"><ele>38.0</ele><time>2026-03-30T09:36:37Z</time></trkpt><trkpt lat="40.045782747582194" lon="8.572007457808493"><ele>37.25</ele><time>2026-03-30T09:36:38Z</time></trkpt><trkpt lat="40.04569602592648" lon="8.571866528131146"><ele>36.5</ele><time>2026-03-30T09:36:39Z</time></trkpt><trkpt lat="40.04560351982046" lon="8.571723795330671"><ele>35.75</ele><time>2026-03-30T09:36:40Z</time></trkpt><trkpt lat="40.045510409681675" lon="8.571575102025792"><ele>35.0</ele><time>2026-03-30T09:36:41Z</time></trkpt><trkpt lat="40.045416663029485" lon="8.57142570206419"><ele>35.0</ele><time>2026-03-30T09:36:42Z</time></trkpt><trkpt lat="40.04532043873431" lon="8.571271839889405"><ele>35.0</ele><time>2026-03-30T09:36:43Z</time></trkpt><trkpt lat="40.04522384053241" lon="8.571116789247874"><ele>35.0</ele><time>2026-03-30T09:36:44Z</time></trkpt><trkpt lat="40.0451261223866" lon="8.570962288898201"><ele>34.666666666666664</ele><time>2026-03-30T09:36:45Z</time></trkpt><trkpt lat="40.04502871338178" lon="8.57080759458481"><ele>34.333333333333336</ele><time>2026-03-30T09:36:46Z</time></trkpt><trkpt lat="40.044936793639586" lon="8.570648804376427"><ele>34.0</ele><time>2026-03-30T09:36:47Z</time></trkpt><trkpt lat="40.044838253622174" lon="8.570495057455572"><ele>34.66666666666667</ele><time>2026-03-30T09:36:48Z</time></trkpt><trkpt lat="40.04474114895662" lon="8.570331668812395"><ele>35.333333333333336</ele><time>2026-03-30T09:36:49Z</time></trkpt><trkpt lat="40.044646725525354" lon="8.570167318391789"><ele>36.0</ele><time>2026-03-30T09:36:50Z</time></trkpt><trkpt lat="40.04454837132509" lon="8.569998960889148"><ele>36.0</ele><time>2026-03-30T09:36:51Z</time></trkpt><trkpt lat="40.04444557247867" lon="8.569832956749377"><ele>36.0</ele><time>2026-03-30T09:36:52Z</time></trkpt><trkpt lat="40.044333743569375" lon="8.56967520664647"><ele>36.0</ele><time>2026-03-30T09:36:53Z</time></trkpt><trkpt lat="40.04420852220373" lon="8.569526822111168"><ele>34.333333333333336</ele><time>2026-03-30T09:36:54Z</time></trkpt><trkpt lat="40.0440729758076" lon="8.56939142017921"><ele>32.66666666666667</ele><time>2026-03-30T09:36:55Z</time></trkpt><trkpt lat="40.043932013418015" lon="8.56927426111962"><ele>31.0</ele><time>2026-03-30T09:36:56Z</time></trkpt><trkpt lat="40.04378694374714" lon="8.569157809720853"><ele>31.0</ele><time>2026-03-30T09:36:57Z</time></trkpt><trkpt lat="40.04364182365162" lon="8.569039943399584"><ele>31.0</ele><time>2026-03-30T09:36:58Z</time></trkpt><trkpt lat="40.04349566673402" lon="8.56892088413028"><ele>31.0</ele><time>2026-03-30T09:36:59Z</time></trkpt><trkpt lat="40.04334964900715" lon="8.568800578696631"><ele>30.666666666666668</ele><time>2026-03-30T09:37:00Z</time></trkpt><trkpt lat="40.043210309376974" lon="8.568681922613473"><ele>30.333333333333336</ele><time>2026-03-30T09:37:01Z</time></trkpt><trkpt lat="40.04307443207692" lon="8.568568040591714"><ele>30.0</ele><time>2026-03-30T09:37:02Z</time></trkpt><trkpt lat="40.04293990223135" lon="8.56846206335134"><ele>30.0</ele><time>2026-03-30T09:37:03Z</time></trkpt><trkpt lat="40.04280576606617" lon="8.568359905456163"><ele>30.0</ele><time>2026-03-30T09:37:04Z</time></trkpt><trkpt lat="40.04267378641894" lon="8.568259967580065"><ele>30.0</ele><time>2026-03-30T09:37:05Z</time></trkpt><trkpt lat="40.04254209712726" lon="8.568157731445151"><ele>29.333333333333336</ele><time>2026-03-30T09:37:06Z</time></trkpt><trkpt lat="40.04228563743433" lon="8.56795574801353"><ele>28.666666666666668</ele><time>2026-03-30T09:37:08Z</time></trkpt><trkpt lat="40.042158655543915" lon="8.56785161964919"><ele>28.0</ele><time>2026-03-30T09:37:09Z</time></trkpt><trkpt lat="40.042027530310236" lon="8.56774374810206"><ele>28.0</ele><time>2026-03-30T09:37:10Z</time></trkpt><trkpt lat="40.041893042911944" lon="8.567632826046937"><ele>28.0</ele><time>2026-03-30T09:37:11Z</time></trkpt><trkpt lat="40.04175913811332" lon="8.567512441455406"><ele>28.0</ele><time>2026-03-30T09:37:12Z</time></trkpt><trkpt lat="40.04162102597585" lon="8.56739122117749"><ele>28.0</ele><time>2026-03-30T09:37:13Z</time></trkpt><trkpt lat="40.04147921875067" lon="8.567270040474165"><ele>28.0</ele><time>2026-03-30T09:37:14Z</time></trkpt><trkpt lat="40.041334191976915" lon="8.56715826681669"><ele>28.0</ele><time>2026-03-30T09:37:15Z</time></trkpt><trkpt lat="40.04118734127565" lon="8.567043585034757"><ele>28.0</ele><time>2026-03-30T09:37:16Z</time></trkpt><trkpt lat="40.04103907100685" lon="8.566928158145895"><ele>28.0</ele><time>2026-03-30T09:37:17Z</time></trkpt><trkpt lat="40.04089038756772" lon="8.566811859500772"><ele>28.0</ele><time>2026-03-30T09:37:18Z</time></trkpt><trkpt lat="40.04073844769632" lon="8.566693416592901"><ele>26.666666666666668</ele><time>2026-03-30T09:37:19Z</time></trkpt><trkpt lat="40.04058552023248" lon="8.566569325040533"><ele>25.333333333333336</ele><time>2026-03-30T09:37:20Z</time></trkpt><trkpt lat="40.04043161016778" lon="8.566448835660887"><ele>24.0</ele><time>2026-03-30T09:37:21Z</time></trkpt><trkpt lat="40.040274005342226" lon="8.566330051037001"><ele>24.0</ele><time>2026-03-30T09:37:22Z</time></trkpt><trkpt lat="40.04011684381011" lon="8.566207215992133"><ele>24.0</ele><time>2026-03-30T09:37:23Z</time></trkpt><trkpt lat="40.03995980675794" lon="8.566084089553273"><ele>24.0</ele><time>2026-03-30T09:37:24Z</time></trkpt><trkpt lat="40.03980126556972" lon="8.565960730197386"><ele>23.666666666666668</ele><time>2026-03-30T09:37:25Z</time></trkpt><trkpt lat="40.03964566908665" lon="8.56583033486564"><ele>23.333333333333336</ele><time>2026-03-30T09:37:26Z</time></trkpt><trkpt lat="40.039489009679386" lon="8.565700901504256"><ele>23.0</ele><time>2026-03-30T09:37:27Z</time></trkpt><trkpt lat="40.03933075576472" lon="8.565574200979428"><ele>23.0</ele><time>2026-03-30T09:37:28Z</time></trkpt><trkpt lat="40.03916988328111" lon="8.565449116596916"><ele>23.0</ele><time>2026-03-30T09:37:29Z</time></trkpt><trkpt lat="40.03900664075888" lon="8.56532083973653"><ele>23.0</ele><time>2026-03-30T09:37:30Z</time></trkpt><trkpt lat="40.038844050543794" lon="8.565191295014632"><ele>23.333333333333336</ele><time>2026-03-30T09:37:31Z</time></trkpt><trkpt lat="40.03868369083795" lon="8.565062163006644"><ele>23.666666666666668</ele><time>2026-03-30T09:37:32Z</time></trkpt><trkpt lat="40.03852320918422" lon="8.564934181663542"><ele>24.0</ele><time>2026-03-30T09:37:33Z</time></trkpt><trkpt lat="40.03836309363059" lon="8.564806291188601"><ele>22.666666666666668</ele><time>2026-03-30T09:37:34Z</time></trkpt><trkpt lat="40.03820435739174" lon="8.564677348049408"><ele>21.333333333333336</ele><time>2026-03-30T09:37:35Z</time></trkpt><trkpt lat="40.03804710477908" lon="8.564551428856992"><ele>20.0</ele><time>2026-03-30T09:37:36Z</time></trkpt><trkpt lat="40.03788987818869" lon="8.564424717777488"><ele>19.666666666666668</ele><time>2026-03-30T09:37:37Z</time></trkpt><trkpt lat="40.03773180557595" lon="8.564297328282372"><ele>19.333333333333332</ele><time>2026-03-30T09:37:38Z</time></trkpt><trkpt lat="40.03757628809596" lon="8.564172190078176"><ele>19.0</ele><time>2026-03-30T09:37:39Z</time></trkpt><trkpt lat="40.037420485363896" lon="8.564049560184726"><ele>18.666666666666664</ele><time>2026-03-30T09:37:40Z</time></trkpt><trkpt lat="40.03726131722911" lon="8.563925023285039"><ele>18.333333333333332</ele><time>2026-03-30T09:37:41Z</time></trkpt><trkpt lat="40.03710337400198" lon="8.563798048525436"><ele>18.0</ele><time>2026-03-30T09:37:42Z</time></trkpt><trkpt lat="40.03694262412916" lon="8.563671573085124"><ele>18.0</ele><time>2026-03-30T09:37:43Z</time></trkpt><trkpt lat="40.03677666980196" lon="8.563544927074558"><ele>18.0</ele><time>2026-03-30T09:37:44Z</time></trkpt><trkpt lat="40.03661056604786" lon="8.56341264159827"><ele>18.0</ele><time>2026-03-30T09:37:45Z</time></trkpt><trkpt lat="40.03644490289317" lon="8.563276045427859"><ele>18.0</ele><time>2026-03-30T09:37:46Z</time></trkpt><trkpt lat="40.036277215102416" lon="8.563138328999104"><ele>18.0</ele><time>2026-03-30T09:37:47Z</time></trkpt><trkpt lat="40.03610997289474" lon="8.562997868406155"><ele>18.0</ele><time>2026-03-30T09:37:48Z</time></trkpt><trkpt lat="40.03594157651423" lon="8.562860615651418"><ele>18.333333333333332</ele><time>2026-03-30T09:37:49Z</time></trkpt><trkpt lat="40.035770619399955" lon="8.562725433620983"><ele>18.666666666666664</ele><time>2026-03-30T09:37:50Z</time></trkpt><trkpt lat="40.03560148025213" lon="8.562587386807472"><ele>19.0</ele><time>2026-03-30T09:37:51Z</time></trkpt><trkpt lat="40.03543251187287" lon="8.562451934255268"><ele>19.0</ele><time>2026-03-30T09:37:52Z</time></trkpt><trkpt lat="40.035265019260244" lon="8.562317667286962"><ele>19.0</ele><time>2026-03-30T09:37:53Z</time></trkpt><trkpt lat="40.03509867610784" lon="8.562186237007243"><ele>19.0</ele><time>2026-03-30T09:37:54Z</time></trkpt><trkpt lat="40.034934497365434" lon="8.56205479220676"><ele>18.666666666666664</ele><time>2026-03-30T09:37:55Z</time></trkpt><trkpt lat="40.03476786252492" lon="8.561925704537881"><ele>18.333333333333332</ele><time>2026-03-30T09:37:56Z</time></trkpt><trkpt lat="40.034599968513945" lon="8.561794099959222"><ele>18.0</ele><time>2026-03-30T09:37:57Z</time></trkpt><trkpt lat="40.03443600299102" lon="8.561661675752982"><ele>18.0</ele><time>2026-03-30T09:37:58Z</time></trkpt><trkpt lat="40.03427123711459" lon="8.561527954823967"><ele>18.0</ele><time>2026-03-30T09:37:59Z</time></trkpt><trkpt lat="40.034104153041625" lon="8.561394025732417"><ele>18.0</ele><time>2026-03-30T09:38:00Z</time></trkpt><trkpt lat="40.03393354657894" lon="8.561260261550242"><ele>18.0</ele><time>2026-03-30T09:38:01Z</time></trkpt><trkpt lat="40.03376088670785" lon="8.561126329178496"><ele>18.0</ele><time>2026-03-30T09:38:02Z</time></trkpt><trkpt lat="40.03358812412613" lon="8.560989060945339"><ele>18.0</ele><time>2026-03-30T09:38:03Z</time></trkpt><trkpt lat="40.033415672849316" lon="8.560847137841787"><ele>18.0</ele><time>2026-03-30T09:38:04Z</time></trkpt><trkpt lat="40.033245721508614" lon="8.560706152831598"><ele>18.0</ele><time>2026-03-30T09:38:05Z</time></trkpt><trkpt lat="40.03307433729813" lon="8.560572048787424"><ele>18.0</ele><time>2026-03-30T09:38:06Z</time></trkpt><trkpt lat="40.032902059352914" lon="8.560438651024633"><ele>18.666666666666668</ele><time>2026-03-30T09:38:07Z</time></trkpt><trkpt lat="40.03273137150352" lon="8.56030411945745"><ele>19.333333333333336</ele><time>2026-03-30T09:38:08Z</time></trkpt><trkpt lat="40.03256132498138" lon="8.560165984130848"><ele>20.0</ele><time>2026-03-30T09:38:09Z</time></trkpt><trkpt lat="40.03239204267434" lon="8.560026886340559"><ele>20.0</ele><time>2026-03-30T09:38:10Z</time></trkpt><trkpt lat="40.03222351786541" lon="8.559887953819624"><ele>20.0</ele><time>2026-03-30T09:38:11Z</time></trkpt><trkpt lat="40.03204854334861" lon="8.559751985686233"><ele>20.0</ele><time>2026-03-30T09:38:12Z</time></trkpt><trkpt lat="40.03187413293866" lon="8.559620605626279"><ele>20.333333333333336</ele><time>2026-03-30T09:38:13Z</time></trkpt><trkpt lat="40.03169936569575" lon="8.559488422251924"><ele>20.666666666666668</ele><time>2026-03-30T09:38:14Z</time></trkpt><trkpt lat="40.03152805633102" lon="8.559348360703481"><ele>21.0</ele><time>2026-03-30T09:38:15Z</time></trkpt><trkpt lat="40.03135500991781" lon="8.559204818201108"><ele>20.333333333333332</ele><time>2026-03-30T09:38:16Z</time></trkpt><trkpt lat="40.03118276996836" lon="8.559061330128888"><ele>19.666666666666664</ele><time>2026-03-30T09:38:17Z</time></trkpt><trkpt lat="40.0310094439527" lon="8.558921597466563"><ele>19.0</ele><time>2026-03-30T09:38:18Z</time></trkpt><trkpt lat="40.030833618143866" lon="8.55878222715872"><ele>19.333333333333332</ele><time>2026-03-30T09:38:19Z</time></trkpt><trkpt lat="40.03065700817381" lon="8.558644306745052"><ele>19.666666666666668</ele><time>2026-03-30T09:38:20Z</time></trkpt><trkpt lat="40.03048139340283" lon="8.55850406040514"><ele>20.0</ele><time>2026-03-30T09:38:21Z</time></trkpt><trkpt lat="40.0303057499587" lon="8.558364074665125"><ele>20.0</ele><time>2026-03-30T09:38:22Z</time></trkpt><trkpt lat="40.03012914029219" lon="8.558223607267353"><ele>20.0</ele><time>2026-03-30T09:38:23Z</time></trkpt><trkpt lat="40.02995454685642" lon="8.558083639154031"><ele>20.0</ele><time>2026-03-30T09:38:24Z</time></trkpt><trkpt lat="40.029780464088944" lon="8.557943863030687"><ele>20.666666666666668</ele><time>2026-03-30T09:38:25Z</time></trkpt><trkpt lat="40.02960576939159" lon="8.557804880877901"><ele>21.333333333333332</ele><time>2026-03-30T09:38:26Z</time></trkpt><trkpt lat="40.02943088089673" lon="8.557666822165496"><ele>22.0</ele><time>2026-03-30T09:38:27Z</time></trkpt><trkpt lat="40.02925563637131" lon="8.557526899089778"><ele>21.0</ele><time>2026-03-30T09:38:28Z</time></trkpt><trkpt lat="40.02908205965528" lon="8.557386855678509"><ele>20.0</ele><time>2026-03-30T09:38:29Z</time></trkpt><trkpt lat="40.0289091583784" lon="8.55724776732165"><ele>19.0</ele><time>2026-03-30T09:38:30Z</time></trkpt><trkpt lat="40.02873557398232" lon="8.557105157746037"><ele>19.0</ele><time>2026-03-30T09:38:31Z</time></trkpt><trkpt lat="40.02855959965659" lon="8.55696500688461"><ele>19.0</ele><time>2026-03-30T09:38:32Z</time></trkpt><trkpt lat="40.028381416365356" lon="8.556829217273778"><ele>19.0</ele><time>2026-03-30T09:38:33Z</time></trkpt><trkpt lat="40.028203530780175" lon="8.556690227849812"><ele>19.0</ele><time>2026-03-30T09:38:34Z</time></trkpt><trkpt lat="40.02802950438958" lon="8.556552084263439"><ele>19.0</ele><time>2026-03-30T09:38:35Z</time></trkpt><trkpt lat="40.02785678732018" lon="8.556408621786948"><ele>19.0</ele><time>2026-03-30T09:38:36Z</time></trkpt><trkpt lat="40.02768309780818" lon="8.55626659453053"><ele>19.0</ele><time>2026-03-30T09:38:37Z</time></trkpt><trkpt lat="40.02750916060221" lon="8.55612739412859"><ele>19.0</ele><time>2026-03-30T09:38:38Z</time></trkpt><trkpt lat="40.02733287825673" lon="8.5559865994765"><ele>19.0</ele><time>2026-03-30T09:38:39Z</time></trkpt><trkpt lat="40.02715819157324" lon="8.555842342899128"><ele>18.666666666666664</ele><time>2026-03-30T09:38:40Z</time></trkpt><trkpt lat="40.02698176467424" lon="8.555699082637712"><ele>18.333333333333332</ele><time>2026-03-30T09:38:41.001Z</time></trkpt><trkpt lat="40.02680351561859" lon="8.555557067365928"><ele>18.0</ele><time>2026-03-30T09:38:42.001Z</time></trkpt><trkpt lat="40.02662594612486" lon="8.555415815805976"><ele>16.666666666666668</ele><time>2026-03-30T09:38:43.001Z</time></trkpt><trkpt lat="40.02644807688883" lon="8.555275253584231"><ele>15.333333333333334</ele><time>2026-03-30T09:38:44.001Z</time></trkpt><trkpt lat="40.02626834465442" lon="8.555133726014452"><ele>14.0</ele><time>2026-03-30T09:38:45.001Z</time></trkpt><trkpt lat="40.026091867649136" lon="8.554991987088751"><ele>14.0</ele><time>2026-03-30T09:38:46.001Z</time></trkpt><trkpt lat="40.02591741827434" lon="8.554850369403855"><ele>14.0</ele><time>2026-03-30T09:38:47.001Z</time></trkpt><trkpt lat="40.02574215579729" lon="8.554712653587492"><ele>14.0</ele><time>2026-03-30T09:38:48.001Z</time></trkpt><trkpt lat="40.02556556132053" lon="8.554573582043346"><ele>14.666666666666668</ele><time>2026-03-30T09:38:49.001Z</time></trkpt><trkpt lat="40.02539003235438" lon="8.554433291166468"><ele>15.333333333333332</ele><time>2026-03-30T09:38:50.001Z</time></trkpt><trkpt lat="40.02521680427072" lon="8.554295769634408"><ele>16.0</ele><time>2026-03-30T09:38:51.001Z</time></trkpt><trkpt lat="40.02504469573328" lon="8.55415672771816"><ele>15.666666666666666</ele><time>2026-03-30T09:38:52.001Z</time></trkpt><trkpt lat="40.0248725198385" lon="8.554016696448322"><ele>15.333333333333332</ele><time>2026-03-30T09:38:53.001Z</time></trkpt><trkpt lat="40.02470014166843" lon="8.553875396870774"><ele>15.0</ele><time>2026-03-30T09:38:54.001Z</time></trkpt><trkpt lat="40.02452622297965" lon="8.55373325212065"><ele>15.0</ele><time>2026-03-30T09:38:55.001Z</time></trkpt><trkpt lat="40.02435165958111" lon="8.553590456776488"><ele>15.0</ele><time>2026-03-30T09:38:56.001Z</time></trkpt><trkpt lat="40.02417478694804" lon="8.553448985568457"><ele>15.0</ele><time>2026-03-30T09:38:57.001Z</time></trkpt><trkpt lat="40.02399666232195" lon="8.55331359328536"><ele>15.333333333333332</ele><time>2026-03-30T09:38:58.001Z</time></trkpt><trkpt lat="40.02381762659344" lon="8.553176746033431"><ele>15.666666666666666</ele><time>2026-03-30T09:38:59.001Z</time></trkpt><trkpt lat="40.023642163984185" lon="8.553035396481329"><ele>16.0</ele><time>2026-03-30T09:39:00.001Z</time></trkpt><trkpt lat="40.023470083218776" lon="8.552891077026487"><ele>16.0</ele><time>2026-03-30T09:39:01.001Z</time></trkpt><trkpt lat="40.02329780747073" lon="8.552749650894375"><ele>16.0</ele><time>2026-03-30T09:39:02.001Z</time></trkpt><trkpt lat="40.02312690287689" lon="8.552610645080085"><ele>16.0</ele><time>2026-03-30T09:39:03.001Z</time></trkpt><trkpt lat="40.02295554170821" lon="8.552473754733196"><ele>16.0</ele><time>2026-03-30T09:39:04.001Z</time></trkpt><trkpt lat="40.022783984884825" lon="8.552338907705659"><ele>16.0</ele><time>2026-03-30T09:39:05.001Z</time></trkpt><trkpt lat="40.02260924784711" lon="8.552201579792355"><ele>16.0</ele><time>2026-03-30T09:39:06.001Z</time></trkpt><trkpt lat="40.0224275582288" lon="8.552073235788352"><ele>15.333333333333332</ele><time>2026-03-30T09:39:07.001Z</time></trkpt><trkpt lat="40.02225196768484" lon="8.551913550218327"><ele>14.666666666666668</ele><time>2026-03-30T09:39:08.001Z</time></trkpt><trkpt lat="40.02207123701569" lon="8.551770501206526"><ele>14.0</ele><time>2026-03-30T09:39:09.001Z</time></trkpt><trkpt lat="40.021887704681724" lon="8.551625234573354"><ele>14.0</ele><time>2026-03-30T09:39:10.001Z</time></trkpt><trkpt lat="40.02169028044165" lon="8.551490101978398"><ele>14.0</ele><time>2026-03-30T09:39:11.001Z</time></trkpt><trkpt lat="40.02150166705093" lon="8.55134098414187"><ele>14.0</ele><time>2026-03-30T09:39:12.001Z</time></trkpt><trkpt lat="40.0213217642291" lon="8.551174069247562"><ele>14.0</ele><time>2026-03-30T09:39:13.001Z</time></trkpt><trkpt lat="40.02113230099661" lon="8.5510228857197"><ele>14.0</ele><time>2026-03-30T09:39:14.001Z</time></trkpt><trkpt lat="40.020932748830624" lon="8.550886602665381"><ele>14.0</ele><time>2026-03-30T09:39:15.001Z</time></trkpt><trkpt lat="40.02074192726989" lon="8.550731208755018"><ele>14.0</ele><time>2026-03-30T09:39:16.001Z</time></trkpt><trkpt lat="40.02054726241747" lon="8.5505761372853"><ele>14.0</ele><time>2026-03-30T09:39:17.001Z</time></trkpt><trkpt lat="40.02035436126254" lon="8.550419232565568"><ele>14.0</ele><time>2026-03-30T09:39:18.001Z</time></trkpt><trkpt lat="40.02016208979124" lon="8.550263430214848"><ele>14.0</ele><time>2026-03-30T09:39:18.999Z</time></trkpt><trkpt lat="40.01996962553503" lon="8.550107206362217"><ele>14.0</ele><time>2026-03-30T09:39:19.999Z</time></trkpt><trkpt lat="40.01978149771086" lon="8.549950318672522"><ele>14.0</ele><time>2026-03-30T09:39:20.999Z</time></trkpt><trkpt lat="40.01959744684106" lon="8.549794874129246"><ele>14.0</ele><time>2026-03-30T09:39:21.999Z</time></trkpt><trkpt lat="40.01941442518189" lon="8.549642897644809"><ele>14.333333333333334</ele><time>2026-03-30T09:39:23Z</time></trkpt><trkpt lat="40.01923088303974" lon="8.549497688317416"><ele>14.666666666666668</ele><time>2026-03-30T09:39:24Z</time></trkpt><trkpt lat="40.01904584916507" lon="8.549354863228166"><ele>15.0</ele><time>2026-03-30T09:39:25Z</time></trkpt><trkpt lat="40.01886121817105" lon="8.549210362655108"><ele>15.0</ele><time>2026-03-30T09:39:26Z</time></trkpt><trkpt lat="40.01867818387363" lon="8.549067250213223"><ele>15.0</ele><time>2026-03-30T09:39:27Z</time></trkpt><trkpt lat="40.01849940310247" lon="8.548914956738479"><ele>15.0</ele><time>2026-03-30T09:39:28Z</time></trkpt><trkpt lat="40.01832365542221" lon="8.5487600445063"><ele>16.0</ele><time>2026-03-30T09:39:29Z</time></trkpt><trkpt lat="40.01814556601273" lon="8.548615539774543"><ele>17.0</ele><time>2026-03-30T09:39:30Z</time></trkpt><trkpt lat="40.01796645115583" lon="8.548482817646141"><ele>18.0</ele><time>2026-03-30T09:39:31Z</time></trkpt><trkpt lat="40.01779323095399" lon="8.548350430092727"><ele>18.0</ele><time>2026-03-30T09:39:32Z</time></trkpt><trkpt lat="40.01762240414805" lon="8.548211762670391"><ele>18.0</ele><time>2026-03-30T09:39:33Z</time></trkpt><trkpt lat="40.0174524975496" lon="8.548071512185329"><ele>18.0</ele><time>2026-03-30T09:39:34Z</time></trkpt><trkpt lat="40.017281528922574" lon="8.547931076230586"><ele>17.333333333333332</ele><time>2026-03-30T09:39:35Z</time></trkpt><trkpt lat="40.01710641737049" lon="8.547791715163566"><ele>16.666666666666664</ele><time>2026-03-30T09:39:36Z</time></trkpt><trkpt lat="40.01692784196578" lon="8.547651606817798"><ele>16.0</ele><time>2026-03-30T09:39:37Z</time></trkpt><trkpt lat="40.01674561770356" lon="8.547508184890832"><ele>15.0</ele><time>2026-03-30T09:39:38Z</time></trkpt><trkpt lat="40.01655941926756" lon="8.547368075810095"><ele>14.0</ele><time>2026-03-30T09:39:39Z</time></trkpt><trkpt lat="40.01637086305626" lon="8.547226760614619"><ele>13.0</ele><time>2026-03-30T09:39:40Z</time></trkpt><trkpt lat="40.01618655808371" lon="8.547077362262524"><ele>13.0</ele><time>2026-03-30T09:39:41Z</time></trkpt><trkpt lat="40.01600427296208" lon="8.546924049144337"><ele>13.0</ele><time>2026-03-30T09:39:42Z</time></trkpt><trkpt lat="40.01582070322007" lon="8.546772591757577"><ele>13.0</ele><time>2026-03-30T09:39:43Z</time></trkpt><trkpt lat="40.015637226179884" lon="8.546622890826612"><ele>13.0</ele><time>2026-03-30T09:39:44Z</time></trkpt><trkpt lat="40.01545471033936" lon="8.546474776219759"><ele>13.0</ele><time>2026-03-30T09:39:45Z</time></trkpt><trkpt lat="40.015273356044254" lon="8.546330415665606"><ele>13.0</ele><time>2026-03-30T09:39:46Z</time></trkpt><trkpt lat="40.01509401427402" lon="8.546186524788554"><ele>13.333333333333332</ele><time>2026-03-30T09:39:47Z</time></trkpt><trkpt lat="40.01491307089801" lon="8.546042071329389"><ele>13.666666666666668</ele><time>2026-03-30T09:39:48Z</time></trkpt><trkpt lat="40.0147332087312" lon="8.545899502956665"><ele>14.0</ele><time>2026-03-30T09:39:49Z</time></trkpt><trkpt lat="40.01455368736143" lon="8.54575510306941"><ele>14.0</ele><time>2026-03-30T09:39:50Z</time></trkpt><trkpt lat="40.01437514258203" lon="8.545610114644523"><ele>14.0</ele><time>2026-03-30T09:39:51Z</time></trkpt><trkpt lat="40.014196204839315" lon="8.545467481497099"><ele>14.0</ele><time>2026-03-30T09:39:52Z</time></trkpt><trkpt lat="40.01401894132054" lon="8.545324304416079"><ele>14.0</ele><time>2026-03-30T09:39:53Z</time></trkpt><trkpt lat="40.013839422301864" lon="8.545184667194277"><ele>14.0</ele><time>2026-03-30T09:39:54Z</time></trkpt><trkpt lat="40.01366177445328" lon="8.545042451508895"><ele>14.0</ele><time>2026-03-30T09:39:55Z</time></trkpt><trkpt lat="40.013483909504664" lon="8.5448989050338"><ele>13.0</ele><time>2026-03-30T09:39:56Z</time></trkpt><trkpt lat="40.01330601688709" lon="8.54475224891968"><ele>12.0</ele><time>2026-03-30T09:39:57Z</time></trkpt><trkpt lat="40.01312801293727" lon="8.544609496245975"><ele>11.0</ele><time>2026-03-30T09:39:58Z</time></trkpt><trkpt lat="40.012950683728356" lon="8.54446767129608"><ele>11.0</ele><time>2026-03-30T09:39:59Z</time></trkpt><trkpt lat="40.01277617231356" lon="8.544331481047246"><ele>11.0</ele><time>2026-03-30T09:40:00Z</time></trkpt><trkpt lat="40.012605344831385" lon="8.54420040803306"><ele>11.0</ele><time>2026-03-30T09:40:01Z</time></trkpt><trkpt lat="40.01243328581621" lon="8.544065009914915"><ele>10.666666666666666</ele><time>2026-03-30T09:40:02Z</time></trkpt><trkpt lat="40.01226020174389" lon="8.543925255396259"><ele>10.333333333333334</ele><time>2026-03-30T09:40:03Z</time></trkpt><trkpt lat="40.01208552017798" lon="8.543781969268277"><ele>10.0</ele><time>2026-03-30T09:40:04Z</time></trkpt><trkpt lat="40.01190682366078" lon="8.543637178563207"><ele>10.0</ele><time>2026-03-30T09:40:05Z</time></trkpt><trkpt lat="40.0117282530618" lon="8.543490849181675"><ele>10.0</ele><time>2026-03-30T09:40:06Z</time></trkpt><trkpt lat="40.01154666200523" lon="8.543347115605629"><ele>10.0</ele><time>2026-03-30T09:40:07Z</time></trkpt><trkpt lat="40.01136559426033" lon="8.543204447657102"><ele>9.666666666666668</ele><time>2026-03-30T09:40:08Z</time></trkpt><trkpt lat="40.01118426088461" lon="8.543055912662144"><ele>9.333333333333334</ele><time>2026-03-30T09:40:09Z</time></trkpt><trkpt lat="40.01099980826084" lon="8.542907888865853"><ele>9.0</ele><time>2026-03-30T09:40:10Z</time></trkpt><trkpt lat="40.01081431785523" lon="8.542757543837808"><ele>9.0</ele><time>2026-03-30T09:40:11Z</time></trkpt><trkpt lat="40.01062640242782" lon="8.542612567552412"><ele>9.0</ele><time>2026-03-30T09:40:12Z</time></trkpt><trkpt lat="40.01043888694262" lon="8.54246529071731"><ele>9.0</ele><time>2026-03-30T09:40:13Z</time></trkpt><trkpt lat="40.01025352711803" lon="8.542317244496612"><ele>9.0</ele><time>2026-03-30T09:40:14Z</time></trkpt><trkpt lat="40.01006916873558" lon="8.542165865389821"><ele>9.0</ele><time>2026-03-30T09:40:15Z</time></trkpt><trkpt lat="40.00988574275919" lon="8.542015042833503"><ele>9.0</ele><time>2026-03-30T09:40:16Z</time></trkpt><trkpt lat="40.00970259202397" lon="8.54186747351562"><ele>9.0</ele><time>2026-03-30T09:40:17Z</time></trkpt><trkpt lat="40.009518854254246" lon="8.541724920112499"><ele>9.0</ele><time>2026-03-30T09:40:18Z</time></trkpt><trkpt lat="40.0093361186885" lon="8.541578774596358"><ele>9.0</ele><time>2026-03-30T09:40:19Z</time></trkpt><trkpt lat="40.009153801949786" lon="8.541429968294478"><ele>9.0</ele><time>2026-03-30T09:40:20Z</time></trkpt><trkpt lat="40.00897338221161" lon="8.541276051415737"><ele>9.0</ele><time>2026-03-30T09:40:21Z</time></trkpt><trkpt lat="40.00879127958876" lon="8.541123858659905"><ele>9.0</ele><time>2026-03-30T09:40:22Z</time></trkpt><trkpt lat="40.008605945773844" lon="8.540977676539994"><ele>9.333333333333334</ele><time>2026-03-30T09:40:23Z</time></trkpt><trkpt lat="40.00841856415096" lon="8.54083486434649"><ele>9.666666666666668</ele><time>2026-03-30T09:40:24Z</time></trkpt><trkpt lat="40.00823309870606" lon="8.540687559385791"><ele>10.0</ele><time>2026-03-30T09:40:25Z</time></trkpt><trkpt lat="40.008046106854906" lon="8.540535608851641"><ele>8.666666666666668</ele><time>2026-03-30T09:40:26Z</time></trkpt><trkpt lat="40.0078552521545" lon="8.540387234365351"><ele>7.333333333333334</ele><time>2026-03-30T09:40:27Z</time></trkpt><trkpt lat="40.00766739885589" lon="8.540236426627118"><ele>6.0</ele><time>2026-03-30T09:40:28Z</time></trkpt><trkpt lat="40.00747883421015" lon="8.540090796746707"><ele>5.666666666666667</ele><time>2026-03-30T09:40:29Z</time></trkpt><trkpt lat="40.00729219060793" lon="8.539949105536925"><ele>5.333333333333334</ele><time>2026-03-30T09:40:30Z</time></trkpt><trkpt lat="40.007109404454255" lon="8.539805072063716"><ele>5.0</ele><time>2026-03-30T09:40:31Z</time></trkpt><trkpt lat="40.00692837029138" lon="8.539656314409227"><ele>5.333333333333334</ele><time>2026-03-30T09:40:32Z</time></trkpt><trkpt lat="40.00674835951289" lon="8.539509067276512"><ele>5.666666666666667</ele><time>2026-03-30T09:40:33Z</time></trkpt><trkpt lat="40.00656748825512" lon="8.539365080268968"><ele>6.0</ele><time>2026-03-30T09:40:34Z</time></trkpt><trkpt lat="40.00638662029434" lon="8.539219655204276"><ele>5.333333333333333</ele><time>2026-03-30T09:40:35Z</time></trkpt><trkpt lat="40.00620640357352" lon="8.53907268125742"><ele>4.666666666666666</ele><time>2026-03-30T09:40:36Z</time></trkpt><trkpt lat="40.00602722307993" lon="8.53892727285724"><ele>4.0</ele><time>2026-03-30T09:40:37Z</time></trkpt><trkpt lat="40.00584654450259" lon="8.538781706090647"><ele>4.0</ele><time>2026-03-30T09:40:38Z</time></trkpt><trkpt lat="40.00566755778997" lon="8.53863282237771"><ele>4.0</ele><time>2026-03-30T09:40:39.001Z</time></trkpt><trkpt lat="40.005489055606965" lon="8.538481688720355"><ele>4.0</ele><time>2026-03-30T09:40:40.001Z</time></trkpt><trkpt lat="40.00530901861373" lon="8.538333688510557"><ele>4.0</ele><time>2026-03-30T09:40:41.001Z</time></trkpt><trkpt lat="40.00513551286623" lon="8.538187378452578"><ele>4.0</ele><time>2026-03-30T09:40:42.001Z</time></trkpt><trkpt lat="40.004967342641535" lon="8.538044278041667"><ele>4.0</ele><time>2026-03-30T09:40:43.001Z</time></trkpt><trkpt lat="40.00480811139863" lon="8.537897970549263"><ele>3.333333333333333</ele><time>2026-03-30T09:40:44.001Z</time></trkpt><trkpt lat="40.004655173585064" lon="8.537748210168305"><ele>2.6666666666666665</ele><time>2026-03-30T09:40:45.001Z</time></trkpt><trkpt lat="40.00453008511853" lon="8.537566908905568"><ele>2.0</ele><time>2026-03-30T09:40:46.001Z</time></trkpt><trkpt lat="40.00443551776259" lon="8.537356389559456"><ele>2.0</ele><time>2026-03-30T09:40:47.001Z</time></trkpt><trkpt lat="40.004340763676495" lon="8.537141730753088"><ele>2.0</ele><time>2026-03-30T09:40:48.001Z</time></trkpt><trkpt lat="40.004225993998745" lon="8.53693957888017"><ele>2.0</ele><time>2026-03-30T09:40:49.001Z</time></trkpt><trkpt lat="40.00411674988686" lon="8.536728442557799"><ele>2.6666666666666665</ele><time>2026-03-30T09:40:50.001Z</time></trkpt><trkpt lat="40.00401397708672" lon="8.536507077792148"><ele>3.333333333333333</ele><time>2026-03-30T09:40:51.001Z</time></trkpt><trkpt lat="40.00390554198948" lon="8.53628711936399"><ele>4.0</ele><time>2026-03-30T09:40:52.001Z</time></trkpt><trkpt lat="40.00379797490662" lon="8.536072317155702"><ele>4.0</ele><time>2026-03-30T09:40:53.001Z</time></trkpt><trkpt lat="40.00369676937162" lon="8.535862041828679"><ele>4.0</ele><time>2026-03-30T09:40:54.001Z</time></trkpt><trkpt lat="40.003599183092284" lon="8.535651230633448"><ele>4.0</ele><time>2026-03-30T09:40:55.001Z</time></trkpt><trkpt lat="40.00349476688736" lon="8.535439114592343"><ele>3.6666666666666665</ele><time>2026-03-30T09:40:56.001Z</time></trkpt><trkpt lat="40.003395781449974" lon="8.535240347806818"><ele>3.333333333333333</ele><time>2026-03-30T09:40:57.001Z</time></trkpt><trkpt lat="40.00330480516797" lon="8.535059877679025"><ele>3.0</ele><time>2026-03-30T09:40:58.001Z</time></trkpt><trkpt lat="40.003223698701206" lon="8.53489857928569"><ele>2.8</ele><time>2026-03-30T09:40:59.001Z</time></trkpt><trkpt lat="40.00315146647988" lon="8.534750986136967"><ele>2.5999999999999996</ele><time>2026-03-30T09:41:00.001Z</time></trkpt><trkpt lat="40.00308779938115" lon="8.534627402020492"><ele>2.4000000000000004</ele><time>2026-03-30T09:41:01.001Z</time></trkpt><trkpt lat="40.00303631067533" lon="8.534523019166219"><ele>2.2</ele><time>2026-03-30T09:41:02.001Z</time></trkpt><trkpt lat="40.0030051040132" lon="8.534432926108172"><ele>2.0</ele><time>2026-03-30T09:41:03.001Z</time></trkpt><trkpt lat="40.00298223921117" lon="8.534332518112963"><ele>2.4000000000000004</ele><time>2026-03-30T09:41:04.001Z</time></trkpt><trkpt lat="40.0029741068485" lon="8.534226179493642"><ele>2.8000000000000003</ele><time>2026-03-30T09:41:05.001Z</time></trkpt><trkpt lat="40.00297521460084" lon="8.5341141071017"><ele>3.2</ele><time>2026-03-30T09:41:06.001Z</time></trkpt><trkpt lat="40.00297178743925" lon="8.534008248319164"><ele>3.6</ele><time>2026-03-30T09:41:07.001Z</time></trkpt><trkpt lat="40.00294642486571" lon="8.533920226415042"><ele>4.0</ele><time>2026-03-30T09:41:08.001Z</time></trkpt><trkpt lat="40.00281929806416" lon="8.533854291586856"><ele>4.0</ele><time>2026-03-30T09:41:10.001Z</time></trkpt><trkpt lat="40.00275708507345" lon="8.533837862829163"><ele>4.0</ele><time>2026-03-30T09:41:11.001Z</time></trkpt><trkpt lat="40.002676212689714" lon="8.53392696021785"><ele>4.0</ele><time>2026-03-30T09:41:12.001Z</time></trkpt><trkpt lat="40.00262252173577" lon="8.53400916570084"><ele>4.0</ele><time>2026-03-30T09:41:13.001Z</time></trkpt><trkpt lat="40.00257008820375" lon="8.53411478287069"><ele>4.0</ele><time>2026-03-30T09:41:14.001Z</time></trkpt><trkpt lat="40.00249842990038" lon="8.534218856528184"><ele>3.25</ele><time>2026-03-30T09:41:15.001Z</time></trkpt><trkpt lat="40.00239657831601" lon="8.53430393566385"><ele>2.5</ele><time>2026-03-30T09:41:16.001Z</time></trkpt><trkpt lat="40.00227205019282" lon="8.534377462296698"><ele>1.75</ele><time>2026-03-30T09:41:17.001Z</time></trkpt><trkpt lat="40.002150842521644" lon="8.534449879185841"><ele>1.0</ele><time>2026-03-30T09:41:18.001Z</time></trkpt><trkpt lat="40.0020284733688" lon="8.534534368353594"><ele>1.3333333333333333</ele><time>2026-03-30T09:41:19.001Z</time></trkpt><trkpt lat="40.0018914660608" lon="8.53462186484518"><ele>1.6666666666666665</ele><time>2026-03-30T09:41:20.001Z</time></trkpt><trkpt lat="40.001738591963296" lon="8.534701638851814"><ele>2.0</ele><time>2026-03-30T09:41:21.001Z</time></trkpt><trkpt lat="40.00158963283837" lon="8.5347865373655"><ele>1.3333333333333333</ele><time>2026-03-30T09:41:22.001Z</time></trkpt><trkpt lat="40.00143521188391" lon="8.534861064445748"><ele>0.6666666666666666</ele><time>2026-03-30T09:41:23.001Z</time></trkpt><trkpt lat="40.001260371815945" lon="8.534919361602531"><ele>0.0</ele><time>2026-03-30T09:41:24.001Z</time></trkpt><trkpt lat="40.001095634274904" lon="8.534989843098492"><ele>0.0</ele><time>2026-03-30T09:41:25Z</time></trkpt><trkpt lat="40.00092796309249" lon="8.53509095133374"><ele>0.0</ele><time>2026-03-30T09:41:26Z</time></trkpt><trkpt lat="40.00084845261535" lon="8.535246364973945"><ele>0.0</ele><time>2026-03-30T09:41:27Z</time></trkpt><trkpt lat="40.00069948701624" lon="8.535358668705493"><ele>0.0</ele><time>2026-03-30T09:41:28Z</time></trkpt><trkpt lat="40.0005376908814" lon="8.535458132142507"><ele>0.0</ele><time>2026-03-30T09:41:29Z</time></trkpt><trkpt lat="40.0003777101577" lon="8.53555367436479"><ele>0.0</ele><time>2026-03-30T09:41:30Z</time></trkpt><trkpt lat="40.00021728288363" lon="8.535651340028183"><ele>0.0</ele><time>2026-03-30T09:41:31Z</time></trkpt><trkpt lat="40.00005690319192" lon="8.535756879327359"><ele>0.0</ele><time>2026-03-30T09:41:32Z</time></trkpt><trkpt lat="39.999907116697486" lon="8.53588764701434"><ele>0.0</ele><time>2026-03-30T09:41:33Z</time></trkpt><trkpt lat="39.99977150899048" lon="8.536050038858702"><ele>0.0</ele><time>2026-03-30T09:41:34Z</time></trkpt><trkpt lat="39.99962676647285" lon="8.536208526743339"><ele>0.0</ele><time>2026-03-30T09:41:35Z</time></trkpt><trkpt lat="39.99947678110917" lon="8.53636454547599"><ele>0.0</ele><time>2026-03-30T09:41:36Z</time></trkpt><trkpt lat="39.9993384374279" lon="8.536515282415198"><ele>0.0</ele><time>2026-03-30T09:41:37Z</time></trkpt><trkpt lat="39.999208472782456" lon="8.53665979308223"><ele>0.0</ele><time>2026-03-30T09:41:38Z</time></trkpt><trkpt lat="39.999087748595784" lon="8.53679975100931"><ele>0.0</ele><time>2026-03-30T09:41:39Z</time></trkpt><trkpt lat="39.998966666152704" lon="8.536937066375614"><ele>0.5</ele><time>2026-03-30T09:41:40Z</time></trkpt><trkpt lat="39.99884993850948" lon="8.537067199742152"><ele>1.0</ele><time>2026-03-30T09:41:41Z</time></trkpt><trkpt lat="39.99874227243114" lon="8.537191764637413"><ele>1.5</ele><time>2026-03-30T09:41:42Z</time></trkpt><trkpt lat="39.99864385790773" lon="8.537310030660024"><ele>2.0</ele><time>2026-03-30T09:41:43Z</time></trkpt><trkpt lat="39.99854652239342" lon="8.537418995338175"><ele>2.0</ele><time>2026-03-30T09:41:44Z</time></trkpt><trkpt lat="39.998455087251024" lon="8.537525099513841"><ele>2.0</ele><time>2026-03-30T09:41:45Z</time></trkpt><trkpt lat="39.99835571282279" lon="8.537617335838446"><ele>2.0</ele><time>2026-03-30T09:41:46Z</time></trkpt><trkpt lat="39.99826234704496" lon="8.537722441199508"><ele>2.0</ele><time>2026-03-30T09:41:47Z</time></trkpt><trkpt lat="39.99816954701821" lon="8.5378294597281"><ele>2.0</ele><time>2026-03-30T09:41:48Z</time></trkpt><trkpt lat="39.9980713798769" lon="8.537941943081876"><ele>2.0</ele><time>2026-03-30T09:41:49Z</time></trkpt><trkpt lat="39.99796337945478" lon="8.538027304994362"><ele>2.0</ele><time>2026-03-30T09:41:50Z</time></trkpt><trkpt lat="39.99786709242492" lon="8.538137545093354"><ele>2.0</ele><time>2026-03-30T09:41:51Z</time></trkpt><trkpt lat="39.9977480061598" lon="8.538214246415608"><ele>2.0</ele><time>2026-03-30T09:41:52Z</time></trkpt><trkpt lat="39.99762643723278" lon="8.538284904093118"><ele>2.0</ele><time>2026-03-30T09:41:53Z</time></trkpt><trkpt lat="39.997506580707544" lon="8.538350101245168"><ele>2.0</ele><time>2026-03-30T09:41:54Z</time></trkpt><trkpt lat="39.997390095118135" lon="8.538413943534524"><ele>2.0</ele><time>2026-03-30T09:41:55Z</time></trkpt><trkpt lat="39.99727944353319" lon="8.538469869169926"><ele>2.2</ele><time>2026-03-30T09:41:56Z</time></trkpt><trkpt lat="39.9971718747477" lon="8.538522996729911"><ele>2.4000000000000004</ele><time>2026-03-30T09:41:57Z</time></trkpt><trkpt lat="39.99707096338102" lon="8.538567285553944"><ele>2.5999999999999996</ele><time>2026-03-30T09:41:58Z</time></trkpt><trkpt lat="39.99696649171668" lon="8.538619195624241"><ele>2.8</ele><time>2026-03-30T09:41:59Z</time></trkpt><trkpt lat="39.99686536303718" lon="8.538662715825406"><ele>3.0</ele><time>2026-03-30T09:42:00Z</time></trkpt><trkpt lat="39.99677323827878" lon="8.538709571604496"><ele>3.2</ele><time>2026-03-30T09:42:01Z</time></trkpt><trkpt lat="39.99668686216167" lon="8.538752687049248"><ele>3.4</ele><time>2026-03-30T09:42:02Z</time></trkpt><trkpt lat="39.99659589692214" lon="8.538786269539596"><ele>3.6000000000000005</ele><time>2026-03-30T09:42:03Z</time></trkpt><trkpt lat="39.99650531470824" lon="8.538836491446148"><ele>3.8000000000000003</ele><time>2026-03-30T09:42:04Z</time></trkpt><trkpt lat="39.99640879223373" lon="8.53888426306062"><ele>4.0</ele><time>2026-03-30T09:42:05Z</time></trkpt><trkpt lat="39.9963097916317" lon="8.5389263922842"><ele>4.2</ele><time>2026-03-30T09:42:06Z</time></trkpt><trkpt lat="39.99621370159882" lon="8.538969872007712"><ele>4.4</ele><time>2026-03-30T09:42:07Z</time></trkpt><trkpt lat="39.99612153022432" lon="8.539016062124865"><ele>4.6</ele><time>2026-03-30T09:42:08Z</time></trkpt><trkpt lat="39.99603507932299" lon="8.53905401227968"><ele>4.8</ele><time>2026-03-30T09:42:09Z</time></trkpt><trkpt lat="39.99595619792094" lon="8.539087656506329"><ele>5.0</ele><time>2026-03-30T09:42:10Z</time></trkpt><trkpt lat="39.995881469190266" lon="8.539116556794749"><ele>5.5</ele><time>2026-03-30T09:42:11Z</time></trkpt><trkpt lat="39.995803784516774" lon="8.539144232828633"><ele>6.0</ele><time>2026-03-30T09:42:12Z</time></trkpt><trkpt lat="39.99572482255068" lon="8.539175833900623"><ele>6.5</ele><time>2026-03-30T09:42:13Z</time></trkpt><trkpt lat="39.99565286365373" lon="8.539204349936034"><ele>7.0</ele><time>2026-03-30T09:42:14Z</time></trkpt><trkpt lat="39.99558273685369" lon="8.539225690270408"><ele>7.499999999999999</ele><time>2026-03-30T09:42:15Z</time></trkpt><trkpt lat="39.995514928706385" lon="8.53924443698368"><ele>8.0</ele><time>2026-03-30T09:42:16Z</time></trkpt><trkpt lat="39.99544696419617" lon="8.539273411118186"><ele>7.999999999999999</ele><time>2026-03-30T09:42:17Z</time></trkpt><trkpt lat="39.995384898868664" lon="8.539339073670973"><ele>8.0</ele><time>2026-03-30T09:42:18Z</time></trkpt><trkpt lat="39.995328718124746" lon="8.53940191843665"><ele>8.0</ele><time>2026-03-30T09:42:19Z</time></trkpt><trkpt lat="39.99527616628841" lon="8.539471793189236"><ele>8.0</ele><time>2026-03-30T09:42:20Z</time></trkpt><trkpt lat="39.9952193302636" lon="8.53953761076031"><ele>7.999999999999999</ele><time>2026-03-30T09:42:21Z</time></trkpt><trkpt lat="39.99516609015942" lon="8.539602680607"><ele>8.0</ele><time>2026-03-30T09:42:22Z</time></trkpt><trkpt lat="39.995111565386765" lon="8.539678485277866"><ele>8.200000000000001</ele><time>2026-03-30T09:42:23Z</time></trkpt><trkpt lat="39.995046948921456" lon="8.539762632803859"><ele>8.4</ele><time>2026-03-30T09:42:24Z</time></trkpt><trkpt lat="39.99497213837103" lon="8.539843874330202"><ele>8.600000000000001</ele><time>2026-03-30T09:42:25Z</time></trkpt><trkpt lat="39.99489281378468" lon="8.539936315306107"><ele>8.8</ele><time>2026-03-30T09:42:26Z</time></trkpt><trkpt lat="39.994807788367716" lon="8.54004164651757"><ele>9.0</ele><time>2026-03-30T09:42:27Z</time></trkpt><trkpt lat="39.994725253082684" lon="8.540148981858179"><ele>9.0</ele><time>2026-03-30T09:42:28Z</time></trkpt><trkpt lat="39.994639804197405" lon="8.540259114778944"><ele>9.0</ele><time>2026-03-30T09:42:29Z</time></trkpt><trkpt lat="39.99455054992603" lon="8.540359669357622"><ele>9.0</ele><time>2026-03-30T09:42:30Z</time></trkpt><trkpt lat="39.99436536446448" lon="8.54058326089132"><ele>8.8</ele><time>2026-03-30T09:42:32Z</time></trkpt><trkpt lat="39.99427508413777" lon="8.540689930131022"><ele>8.600000000000001</ele><time>2026-03-30T09:42:33Z</time></trkpt><trkpt lat="39.99419088743258" lon="8.540788703869458"><ele>8.4</ele><time>2026-03-30T09:42:34.001Z</time></trkpt><trkpt lat="39.99411428508668" lon="8.540883914956318"><ele>8.200000000000001</ele><time>2026-03-30T09:42:35.001Z</time></trkpt><trkpt lat="39.99406589848493" lon="8.540947090344748"><ele>8.0</ele><time>2026-03-30T09:42:36.001Z</time></trkpt><trkpt lat="39.99406972128223" lon="8.541057609213512"><ele>8.0</ele><time>2026-03-30T09:42:38.001Z</time></trkpt><trkpt lat="39.99413844175106" lon="8.541037898351615"><ele>8.0</ele><time>2026-03-30T09:42:39.001Z</time></trkpt><trkpt lat="39.994122847099476" lon="8.540887805491446"><ele>8.0</ele><time>2026-03-30T09:42:44.001Z</time></trkpt><trkpt lat="39.994157939744255" lon="8.540801997010604"><ele>8.0</ele><time>2026-03-30T09:42:47.001Z</time></trkpt><trkpt lat="39.994242873973285" lon="8.540767304640141"><ele>8.0</ele><time>2026-03-30T09:42:49.001Z</time></trkpt><trkpt lat="39.99431719747401" lon="8.540675142080826"><ele>7.999999999999999</ele><time>2026-03-30T09:42:52.001Z</time></trkpt><trkpt lat="39.99440790259622" lon="8.540560655515927"><ele>8.0</ele><time>2026-03-30T09:42:54.001Z</time></trkpt><trkpt lat="39.99445725277024" lon="8.540502290573459"><ele>8.0</ele><time>2026-03-30T09:42:55.001Z</time></trkpt><trkpt lat="39.9945317892798" lon="8.54040773112999"><ele>8.0</ele><time>2026-03-30T09:42:57.001Z</time></trkpt><trkpt lat="39.994494226428074" lon="8.540341207587755"><ele>7.999999999999999</ele><time>2026-03-30T09:43:00.001Z</time></trkpt><trkpt lat="39.99445855238636" lon="8.540408977207566"><ele>8.0</ele><time>2026-03-30T09:43:02.001Z</time></trkpt><trkpt lat="39.99443899966271" lon="8.540493884864638"><ele>8.0</ele><time>2026-03-30T09:43:04.001Z</time></trkpt><trkpt lat="39.99438025330349" lon="8.540555303739724"><ele>8.0</ele><time>2026-03-30T09:43:06.001Z</time></trkpt><trkpt lat="39.994319918839494" lon="8.540618073379758"><ele>8.0</ele><time>2026-03-30T09:43:08.001Z</time></trkpt><trkpt lat="39.99425295547479" lon="8.540694591686952"><ele>8.0</ele><time>2026-03-30T09:43:10.001Z</time></trkpt><trkpt lat="39.99419207335702" lon="8.54074926636752"><ele>8.0</ele><time>2026-03-30T09:43:13.001Z</time></trkpt><trkpt lat="39.99422797471302" lon="8.54055893608233"><ele>7.999999999999999</ele><time>2026-03-30T09:51:00Z</time></trkpt><trkpt lat="39.99420499412827" lon="8.54068140702178"><ele>8.0</ele><time>2026-03-30T09:51:03Z</time></trkpt><trkpt lat="39.99419008284597" lon="8.540771643057262"><ele>8.0</ele><time>2026-03-30T10:05:58Z</time></trkpt><trkpt lat="39.9941472608106" lon="8.54083669250716"><ele>8.0</ele><time>2026-03-30T10:09:22.999Z</time></trkpt><trkpt lat="39.99411589562552" lon="8.540917622788024"><ele>7.999999999999999</ele><time>2026-03-30T10:09:29.999Z</time></trkpt><trkpt lat="39.994095310571154" lon="8.541017593711667"><ele>8.0</ele><time>2026-03-30T10:09:31.999Z</time></trkpt><trkpt lat="39.99416160700433" lon="8.54093745609428"><ele>8.0</ele><time>2026-03-30T10:11:00.999Z</time></trkpt><trkpt lat="39.994172465767974" lon="8.540839083125585"><ele>8.0</ele><time>2026-03-30T10:14:40Z</time></trkpt><trkpt lat="39.994238255948616" lon="8.540782676910355"><ele>8.0</ele><time>2026-03-30T10:14:42Z</time></trkpt><trkpt lat="39.994352175812644" lon="8.540636695540389"><ele>8.0</ele><time>2026-03-30T10:14:45Z</time></trkpt><trkpt lat="39.99441168189504" lon="8.540564936802415"><ele>8.0</ele><time>2026-03-30T10:14:46Z</time></trkpt><trkpt lat="39.99447567824501" lon="8.5404834192864"><ele>8.0</ele><time>2026-03-30T10:14:47Z</time></trkpt><trkpt lat="39.994538506306405" lon="8.540409509011157"><ele>8.0</ele><time>2026-03-30T10:14:48Z</time></trkpt><trkpt lat="39.9946060558989" lon="8.540328454830343"><ele>8.0</ele><time>2026-03-30T10:14:49Z</time></trkpt><trkpt lat="39.99467462229195" lon="8.540240337529259"><ele>8.0</ele><time>2026-03-30T10:14:50Z</time></trkpt><trkpt lat="39.99474755310238" lon="8.54015304019958"><ele>8.0</ele><time>2026-03-30T10:14:51Z</time></trkpt><trkpt lat="39.994818317046224" lon="8.540061803255586"><ele>8.200000000000001</ele><time>2026-03-30T10:14:52Z</time></trkpt><trkpt lat="39.99488334198934" lon="8.539974847006405"><ele>8.4</ele><time>2026-03-30T10:14:53Z</time></trkpt><trkpt lat="39.99494257812938" lon="8.539902540120716"><ele>8.600000000000001</ele><time>2026-03-30T10:14:54Z</time></trkpt><trkpt lat="39.995044900173966" lon="8.539771943088978"><ele>8.8</ele><time>2026-03-30T10:14:56Z</time></trkpt><trkpt lat="39.99514873509603" lon="8.539670964136834"><ele>9.0</ele><time>2026-03-30T10:14:58Z</time></trkpt><trkpt lat="39.995195516273846" lon="8.539614132563766"><ele>9.142857142857144</ele><time>2026-03-30T10:14:59Z</time></trkpt><trkpt lat="39.99524707964646" lon="8.539551491206005"><ele>9.285714285714286</ele><time>2026-03-30T10:15:00Z</time></trkpt><trkpt lat="39.99529731913221" lon="8.539487830880377"><ele>9.428571428571429</ele><time>2026-03-30T10:15:01Z</time></trkpt><trkpt lat="39.99535160994257" lon="8.539424357745856"><ele>9.571428571428573</ele><time>2026-03-30T10:15:02Z</time></trkpt><trkpt lat="39.99540880018745" lon="8.539359400158892"><ele>9.714285714285715</ele><time>2026-03-30T10:15:03Z</time></trkpt><trkpt lat="39.99546734592986" lon="8.539294233272297"><ele>9.857142857142858</ele><time>2026-03-30T10:15:04Z</time></trkpt><trkpt lat="39.99552933853709" lon="8.539265924594085"><ele>10.0</ele><time>2026-03-30T10:15:05Z</time></trkpt><trkpt lat="39.99559980287379" lon="8.539259283425157"><ele>9.6</ele><time>2026-03-30T10:15:06Z</time></trkpt><trkpt lat="39.99568951765032" lon="8.539230077917217"><ele>9.2</ele><time>2026-03-30T10:15:07Z</time></trkpt><trkpt lat="39.99578824157361" lon="8.539193762998355"><ele>8.8</ele><time>2026-03-30T10:15:08Z</time></trkpt><trkpt lat="39.99588480025304" lon="8.539156513951584"><ele>8.4</ele><time>2026-03-30T10:15:09Z</time></trkpt><trkpt lat="39.99597585821299" lon="8.539121855271476"><ele>8.0</ele><time>2026-03-30T10:15:10Z</time></trkpt><trkpt lat="39.996068416909544" lon="8.539079547767493"><ele>7.4</ele><time>2026-03-30T10:15:11Z</time></trkpt><trkpt lat="39.99616426837007" lon="8.539035735195503"><ele>6.800000000000001</ele><time>2026-03-30T10:15:12Z</time></trkpt><trkpt lat="39.996270685570124" lon="8.53898709310111"><ele>6.2</ele><time>2026-03-30T10:15:13Z</time></trkpt><trkpt lat="39.99637984130476" lon="8.538933423803517"><ele>5.6</ele><time>2026-03-30T10:15:14Z</time></trkpt><trkpt lat="39.99648448631491" lon="8.538864528349965"><ele>5.0</ele><time>2026-03-30T10:15:15Z</time></trkpt><trkpt lat="39.996597316078095" lon="8.538826534054815"><ele>4.666666666666667</ele><time>2026-03-30T10:15:16Z</time></trkpt><trkpt lat="39.996709740525596" lon="8.538771343294226"><ele>4.333333333333333</ele><time>2026-03-30T10:15:17Z</time></trkpt><trkpt lat="39.99682574049688" lon="8.538716640025939"><ele>4.0</ele><time>2026-03-30T10:15:18Z</time></trkpt><trkpt lat="39.99706078682227" lon="8.538606521162631"><ele>3.75</ele><time>2026-03-30T10:15:20Z</time></trkpt><trkpt lat="39.99718195886541" lon="8.53854988931682"><ele>3.5</ele><time>2026-03-30T10:15:21Z</time></trkpt><trkpt lat="39.99730984166667" lon="8.538490322544344"><ele>3.25</ele><time>2026-03-30T10:15:22Z</time></trkpt><trkpt lat="39.9974385514123" lon="8.538428833288423"><ele>3.0</ele><time>2026-03-30T10:15:23Z</time></trkpt><trkpt lat="39.99756711048163" lon="8.538361724933948"><ele>2.75</ele><time>2026-03-30T10:15:24Z</time></trkpt><trkpt lat="39.99769396761249" lon="8.538289660328658"><ele>2.5</ele><time>2026-03-30T10:15:25Z</time></trkpt><trkpt lat="39.997822092696346" lon="8.538199170031834"><ele>2.25</ele><time>2026-03-30T10:15:26Z</time></trkpt><trkpt lat="39.99793944009306" lon="8.538089537651828"><ele>2.0</ele><time>2026-03-30T10:15:27Z</time></trkpt><trkpt lat="39.99805939341141" lon="8.537980115467743"><ele>2.0</ele><time>2026-03-30T10:15:28Z</time></trkpt><trkpt lat="39.998164731164316" lon="8.53786456663141"><ele>2.0</ele><time>2026-03-30T10:15:29Z</time></trkpt><trkpt lat="39.99826536758262" lon="8.537742512772873"><ele>2.0</ele><time>2026-03-30T10:15:30Z</time></trkpt><trkpt lat="39.99837084261515" lon="8.537610462872784"><ele>2.0</ele><time>2026-03-30T10:15:31Z</time></trkpt><trkpt lat="39.99849261122351" lon="8.537512070280298"><ele>2.0</ele><time>2026-03-30T10:15:31.998Z</time></trkpt><trkpt lat="39.99860286169663" lon="8.537390886952698"><ele>2.0</ele><time>2026-03-30T10:15:32.998Z</time></trkpt><trkpt lat="39.9987159504826" lon="8.537270469149977"><ele>2.0</ele><time>2026-03-30T10:15:33.998Z</time></trkpt><trkpt lat="39.99905728186191" lon="8.536875348205243"><ele>1.0</ele><time>2026-03-30T10:15:36.998Z</time></trkpt><trkpt lat="39.999174579610745" lon="8.536740601513348"><ele>0.0</ele><time>2026-03-30T10:15:37.998Z</time></trkpt><trkpt lat="39.9992880028654" lon="8.536612748247675"><ele>-1.0</ele><time>2026-03-30T10:15:38.998Z</time></trkpt><trkpt lat="39.999407141506865" lon="8.536482009606614"><ele>-1.0</ele><time>2026-03-30T10:15:39.998Z</time></trkpt><trkpt lat="39.999531636981516" lon="8.536346504475526"><ele>-1.0</ele><time>2026-03-30T10:15:40.998Z</time></trkpt><trkpt lat="39.99965591769525" lon="8.536208181995704"><ele>-1.0</ele><time>2026-03-30T10:15:41.998Z</time></trkpt><trkpt lat="39.999786299330864" lon="8.536068816459295"><ele>-0.6666666666666666</ele><time>2026-03-30T10:15:42.998Z</time></trkpt><trkpt lat="39.999916775034386" lon="8.535929922991071"><ele>-0.3333333333333333</ele><time>2026-03-30T10:15:43.998Z</time></trkpt><trkpt lat="40.0000455365982" lon="8.53579709050681"><ele>0.0</ele><time>2026-03-30T10:15:44.998Z</time></trkpt><trkpt lat="40.00019264582203" lon="8.535698370710005"><ele>0.0</ele><time>2026-03-30T10:15:45.998Z</time></trkpt><trkpt lat="40.000333816853775" lon="8.535609110361571"><ele>0.0</ele><time>2026-03-30T10:15:46.998Z</time></trkpt><trkpt lat="40.000475014148364" lon="8.535522626631492"><ele>0.0</ele><time>2026-03-30T10:15:47.998Z</time></trkpt><trkpt lat="40.00062208165292" lon="8.535432547379639"><ele>0.0</ele><time>2026-03-30T10:15:48.998Z</time></trkpt><trkpt lat="40.00076049237967" lon="8.535324018303168"><ele>0.0</ele><time>2026-03-30T10:15:49.998Z</time></trkpt><trkpt lat="40.000908586011874" lon="8.535241461588104"><ele>0.0</ele><time>2026-03-30T10:15:50.998Z</time></trkpt><trkpt lat="40.00105764818795" lon="8.535155675872335"><ele>0.0</ele><time>2026-03-30T10:15:51.998Z</time></trkpt><trkpt lat="40.00120164726797" lon="8.53507059828565"><ele>0.0</ele><time>2026-03-30T10:15:52.998Z</time></trkpt><trkpt lat="40.00134712334972" lon="8.534985080512206"><ele>0.0</ele><time>2026-03-30T10:15:53.998Z</time></trkpt><trkpt lat="40.00148254250738" lon="8.53490154534447"><ele>0.0</ele><time>2026-03-30T10:15:54.998Z</time></trkpt><trkpt lat="40.00160512046029" lon="8.53482553759609"><ele>0.0</ele><time>2026-03-30T10:15:55.998Z</time></trkpt><trkpt lat="40.001739080725045" lon="8.534747097909976"><ele>0.0</ele><time>2026-03-30T10:15:56.999Z</time></trkpt><trkpt lat="40.001871928015134" lon="8.53466783057624"><ele>0.0</ele><time>2026-03-30T10:15:57.999Z</time></trkpt><trkpt lat="40.00200062710304" lon="8.53458652226651"><ele>0.25</ele><time>2026-03-30T10:15:58.999Z</time></trkpt><trkpt lat="40.00212057332135" lon="8.534511901507097"><ele>0.5</ele><time>2026-03-30T10:15:59.999Z</time></trkpt><trkpt lat="40.002239348530566" lon="8.534438869780944"><ele>0.75</ele><time>2026-03-30T10:16:00.999Z</time></trkpt><trkpt lat="40.00235532601067" lon="8.534369183337216"><ele>1.0</ele><time>2026-03-30T10:16:01.999Z</time></trkpt><trkpt lat="40.00255843107874" lon="8.534274986293394"><ele>1.4285714285714284</ele><time>2026-03-30T10:16:03.999Z</time></trkpt><trkpt lat="40.00263857578038" lon="8.534268571532667"><ele>1.857142857142857</ele><time>2026-03-30T10:16:04.999Z</time></trkpt><trkpt lat="40.002710801659205" lon="8.534284769697939"><ele>2.2857142857142856</ele><time>2026-03-30T10:16:05.999Z</time></trkpt><trkpt lat="40.002782273219154" lon="8.534315611622043"><ele>2.714285714285714</ele><time>2026-03-30T10:16:06.999Z</time></trkpt><trkpt lat="40.00285201863156" lon="8.53433075819217"><ele>3.1428571428571423</ele><time>2026-03-30T10:16:07.999Z</time></trkpt><trkpt lat="40.00291850016814" lon="8.534304990963244"><ele>3.571428571428571</ele><time>2026-03-30T10:16:08.999Z</time></trkpt><trkpt lat="40.00296850364123" lon="8.534233760957076"><ele>4.0</ele><time>2026-03-30T10:16:09.999Z</time></trkpt><trkpt lat="40.002989395730516" lon="8.534133054915005"><ele>4.0</ele><time>2026-03-30T10:16:10.999Z</time></trkpt><trkpt lat="40.00297671542403" lon="8.534010658780975"><ele>4.0</ele><time>2026-03-30T10:16:11.999Z</time></trkpt><trkpt lat="40.002931527203465" lon="8.53388970963488"><ele>4.0</ele><time>2026-03-30T10:16:12.999Z</time></trkpt><trkpt lat="40.00284697248713" lon="8.533773976529787"><ele>4.0</ele><time>2026-03-30T10:16:13.999Z</time></trkpt><trkpt lat="40.002759833593416" lon="8.53365944078385"><ele>4.0</ele><time>2026-03-30T10:16:14.999Z</time></trkpt><trkpt lat="40.00270184860414" lon="8.533512575789837"><ele>3.6666666666666665</ele><time>2026-03-30T10:16:15.999Z</time></trkpt><trkpt lat="40.002688175116496" lon="8.53332759532442"><ele>3.333333333333333</ele><time>2026-03-30T10:16:16.999Z</time></trkpt><trkpt lat="40.00265487992258" lon="8.533133629598982"><ele>3.0</ele><time>2026-03-30T10:16:17.999Z</time></trkpt><trkpt lat="40.00263927072962" lon="8.532922330427118"><ele>3.0</ele><time>2026-03-30T10:16:18.999Z</time></trkpt><trkpt lat="40.00261571483853" lon="8.532714883673016"><ele>3.0</ele><time>2026-03-30T10:16:19.999Z</time></trkpt><trkpt lat="40.002589138252326" lon="8.532510242264955"><ele>3.0</ele><time>2026-03-30T10:16:20.999Z</time></trkpt><trkpt lat="40.002565010886414" lon="8.532306469452658"><ele>3.0</ele><time>2026-03-30T10:16:21.999Z</time></trkpt><trkpt lat="40.002541058921146" lon="8.532096890825162"><ele>3.0</ele><time>2026-03-30T10:16:22.999Z</time></trkpt><trkpt lat="40.002516937208945" lon="8.531882791723291"><ele>3.0</ele><time>2026-03-30T10:16:23.999Z</time></trkpt><trkpt lat="40.00249383340391" lon="8.531662338697029"><ele>3.0</ele><time>2026-03-30T10:16:24.999Z</time></trkpt><trkpt lat="40.002470310205595" lon="8.53143838670735"><ele>3.0</ele><time>2026-03-30T10:16:25.999Z</time></trkpt><trkpt lat="40.00242743788845" lon="8.531210717272266"><ele>3.0</ele><time>2026-03-30T10:16:27Z</time></trkpt><trkpt lat="40.0023665735332" lon="8.530991584992579"><ele>3.666666666666667</ele><time>2026-03-30T10:16:28Z</time></trkpt><trkpt lat="40.002289182507354" lon="8.53078434708738"><ele>4.333333333333334</ele><time>2026-03-30T10:16:29Z</time></trkpt><trkpt lat="40.002204851185596" lon="8.530581850011567"><ele>5.0</ele><time>2026-03-30T10:16:30Z</time></trkpt><trkpt lat="40.00213851590054" lon="8.530367601486425"><ele>5.333333333333334</ele><time>2026-03-30T10:16:31Z</time></trkpt><trkpt lat="40.002045110642385" lon="8.530162982621837"><ele>5.666666666666667</ele><time>2026-03-30T10:16:32Z</time></trkpt><trkpt lat="40.00196777725616" lon="8.529952431114447"><ele>6.0</ele><time>2026-03-30T10:16:33Z</time></trkpt><trkpt lat="40.00188739931263" lon="8.529737902046493"><ele>5.666666666666667</ele><time>2026-03-30T10:16:34Z</time></trkpt><trkpt lat="40.001803028934006" lon="8.529526892747766"><ele>5.333333333333334</ele><time>2026-03-30T10:16:35Z</time></trkpt><trkpt lat="40.001722086920786" lon="8.529311315432405"><ele>5.0</ele><time>2026-03-30T10:16:36Z</time></trkpt><trkpt lat="40.00165385994271" lon="8.529085159266437"><ele>4.666666666666667</ele><time>2026-03-30T10:16:37Z</time></trkpt><trkpt lat="40.0015907519508" lon="8.528855477018368"><ele>4.333333333333333</ele><time>2026-03-30T10:16:38Z</time></trkpt><trkpt lat="40.001531054486335" lon="8.528620045989848"><ele>4.0</ele><time>2026-03-30T10:16:39Z</time></trkpt><trkpt lat="40.00147864273746" lon="8.528386654046338"><ele>4.0</ele><time>2026-03-30T10:16:40Z</time></trkpt><trkpt lat="40.00143007884573" lon="8.528147190107862"><ele>4.0</ele><time>2026-03-30T10:16:41Z</time></trkpt><trkpt lat="40.00138692993466" lon="8.527898734403797"><ele>4.0</ele><time>2026-03-30T10:16:42Z</time></trkpt><trkpt lat="40.00134595610979" lon="8.527655057602546"><ele>4.333333333333333</ele><time>2026-03-30T10:16:43Z</time></trkpt><trkpt lat="40.00129609951957" lon="8.52741408712663"><ele>4.666666666666667</ele><time>2026-03-30T10:16:44Z</time></trkpt><trkpt lat="40.001252904957006" lon="8.52718001173335"><ele>5.0</ele><time>2026-03-30T10:16:45Z</time></trkpt><trkpt lat="40.00122191279992" lon="8.526963919838119"><ele>4.5</ele><time>2026-03-30T10:16:46Z</time></trkpt><trkpt lat="40.00119813657816" lon="8.526767752290837"><ele>4.0</ele><time>2026-03-30T10:16:47Z</time></trkpt><trkpt lat="40.0011743210683" lon="8.52657788290015"><ele>3.5</ele><time>2026-03-30T10:16:48Z</time></trkpt><trkpt lat="40.001146433809836" lon="8.526398794613415"><ele>3.0</ele><time>2026-03-30T10:16:49Z</time></trkpt><trkpt lat="40.00112440832989" lon="8.52622574326421"><ele>3.0</ele><time>2026-03-30T10:16:50Z</time></trkpt><trkpt lat="40.0011096784445" lon="8.526058318651645"><ele>3.0</ele><time>2026-03-30T10:16:51Z</time></trkpt><trkpt lat="40.001099348889035" lon="8.525884750257413"><ele>3.0</ele><time>2026-03-30T10:16:52Z</time></trkpt><trkpt lat="40.00109112711433" lon="8.525704279375747"><ele>3.0</ele><time>2026-03-30T10:16:53Z</time></trkpt><trkpt lat="40.00108087634931" lon="8.525519947457896"><ele>3.25</ele><time>2026-03-30T10:16:54Z</time></trkpt><trkpt lat="40.001064895170956" lon="8.525334141951852"><ele>3.5</ele><time>2026-03-30T10:16:55Z</time></trkpt><trkpt lat="40.00104669132093" lon="8.525144866422385"><ele>3.75</ele><time>2026-03-30T10:16:56Z</time></trkpt><trkpt lat="40.00102642223003" lon="8.52495429930378"><ele>4.0</ele><time>2026-03-30T10:16:57Z</time></trkpt><trkpt lat="40.001011204269645" lon="8.524761138037412"><ele>4.0</ele><time>2026-03-30T10:16:58Z</time></trkpt><trkpt lat="40.0009939099629" lon="8.524565998551076"><ele>4.0</ele><time>2026-03-30T10:16:59Z</time></trkpt><trkpt lat="40.00097820148554" lon="8.524369122781968"><ele>4.0</ele><time>2026-03-30T10:17:00Z</time></trkpt><trkpt lat="40.00096332184163" lon="8.524168620328016"><ele>4.0</ele><time>2026-03-30T10:17:01Z</time></trkpt><trkpt lat="40.000951247090505" lon="8.523966556003009"><ele>4.0</ele><time>2026-03-30T10:17:02Z</time></trkpt><trkpt lat="40.0009369228628" lon="8.52376468543565"><ele>4.0</ele><time>2026-03-30T10:17:03Z</time></trkpt><trkpt lat="40.00092155554415" lon="8.523562332892762"><ele>4.0</ele><time>2026-03-30T10:17:04Z</time></trkpt><trkpt lat="40.000897157800885" lon="8.523359195941252"><ele>4.0</ele><time>2026-03-30T10:17:05Z</time></trkpt><trkpt lat="40.00088133480837" lon="8.523149400813436"><ele>4.0</ele><time>2026-03-30T10:17:06Z</time></trkpt><trkpt lat="40.00086890704135" lon="8.522938789487819"><ele>4.0</ele><time>2026-03-30T10:17:07Z</time></trkpt><trkpt lat="40.00085682388368" lon="8.522721636374607"><ele>4.0</ele><time>2026-03-30T10:17:08Z</time></trkpt><trkpt lat="40.000839191962896" lon="8.522506053582875"><ele>4.0</ele><time>2026-03-30T10:17:09Z</time></trkpt><trkpt lat="40.00081973376009" lon="8.522286369153676"><ele>4.0</ele><time>2026-03-30T10:17:10Z</time></trkpt><trkpt lat="40.00079964698704" lon="8.522065876017718"><ele>4.0</ele><time>2026-03-30T10:17:11Z</time></trkpt><trkpt lat="40.000793469318076" lon="8.521841901825173"><ele>4.0</ele><time>2026-03-30T10:17:12Z</time></trkpt><trkpt lat="40.000775715604" lon="8.521622370206547"><ele>4.0</ele><time>2026-03-30T10:17:13Z</time></trkpt><trkpt lat="40.000758481538206" lon="8.521400966052301"><ele>4.0</ele><time>2026-03-30T10:17:14Z</time></trkpt><trkpt lat="40.000741233598944" lon="8.521175552359212"><ele>4.0</ele><time>2026-03-30T10:17:15Z</time></trkpt><trkpt lat="40.00070998577682" lon="8.520953874763052"><ele>4.0</ele><time>2026-03-30T10:17:16Z</time></trkpt><trkpt lat="40.00069368369762" lon="8.520723898633646"><ele>4.0</ele><time>2026-03-30T10:17:17Z</time></trkpt><trkpt lat="40.00068060236028" lon="8.52049960908935"><ele>4.0</ele><time>2026-03-30T10:17:18Z</time></trkpt><trkpt lat="40.000665210142685" lon="8.52026919828655"><ele>4.0</ele><time>2026-03-30T10:17:19Z</time></trkpt><trkpt lat="40.0006482739517" lon="8.52004572942981"><ele>4.0</ele><time>2026-03-30T10:17:20.001Z</time></trkpt><trkpt lat="40.00062919833495" lon="8.519813358640945"><ele>4.0</ele><time>2026-03-30T10:17:21.001Z</time></trkpt><trkpt lat="40.00060991305252" lon="8.519580345497387"><ele>4.0</ele><time>2026-03-30T10:17:22.001Z</time></trkpt><trkpt lat="40.000604206815694" lon="8.519356702670247"><ele>4.0</ele><time>2026-03-30T10:17:23.001Z</time></trkpt><trkpt lat="40.00063126873846" lon="8.519149113821902"><ele>4.0</ele><time>2026-03-30T10:17:24.001Z</time></trkpt><trkpt lat="40.00066728518596" lon="8.518946346748553"><ele>4.0</ele><time>2026-03-30T10:17:25.001Z</time></trkpt><trkpt lat="40.00071341800529" lon="8.518736739464588"><ele>4.0</ele><time>2026-03-30T10:17:26.001Z</time></trkpt><trkpt lat="40.00074566356875" lon="8.518519935499208"><ele>4.0</ele><time>2026-03-30T10:17:27.001Z</time></trkpt><trkpt lat="40.000796791274944" lon="8.518304556367443"><ele>3.333333333333333</ele><time>2026-03-30T10:17:28.001Z</time></trkpt><trkpt lat="40.000843790613054" lon="8.518092628440854"><ele>2.6666666666666665</ele><time>2026-03-30T10:17:29.001Z</time></trkpt><trkpt lat="40.00088783102253" lon="8.517875166108624"><ele>2.0</ele><time>2026-03-30T10:17:30.001Z</time></trkpt><trkpt lat="40.000922391669135" lon="8.517654880765157"><ele>2.0</ele><time>2026-03-30T10:17:31.001Z</time></trkpt><trkpt lat="40.000943094457284" lon="8.51742878792941"><ele>2.0</ele><time>2026-03-30T10:17:32.001Z</time></trkpt><trkpt lat="40.00097597037183" lon="8.517199649376996"><ele>2.0</ele><time>2026-03-30T10:17:33.001Z</time></trkpt><trkpt lat="40.000970996305014" lon="8.516962137151868"><ele>2.333333333333333</ele><time>2026-03-30T10:17:34.001Z</time></trkpt><trkpt lat="40.00098367726192" lon="8.516724294834521"><ele>2.6666666666666665</ele><time>2026-03-30T10:17:35.001Z</time></trkpt><trkpt lat="40.00099469418646" lon="8.516487738708852"><ele>3.0</ele><time>2026-03-30T10:17:36.001Z</time></trkpt><trkpt lat="40.00100203863565" lon="8.516247625449076"><ele>2.6666666666666665</ele><time>2026-03-30T10:17:37.001Z</time></trkpt><trkpt lat="40.00100622571498" lon="8.516007955769362"><ele>2.333333333333333</ele><time>2026-03-30T10:17:37.996Z</time></trkpt><trkpt lat="40.00101110976491" lon="8.51576354733537"><ele>2.0</ele><time>2026-03-30T10:17:38.996Z</time></trkpt><trkpt lat="40.00101526437954" lon="8.515517381633359"><ele>2.0</ele><time>2026-03-30T10:17:39.996Z</time></trkpt><trkpt lat="40.00102087335721" lon="8.515272562156907"><ele>2.0</ele><time>2026-03-30T10:17:40.996Z</time></trkpt><trkpt lat="40.00102182519726" lon="8.515029095945199"><ele>2.0</ele><time>2026-03-30T10:17:41.996Z</time></trkpt><trkpt lat="40.001018756157386" lon="8.51478432479512"><ele>2.0</ele><time>2026-03-30T10:17:42.996Z</time></trkpt><trkpt lat="40.00100101150896" lon="8.514537275141597"><ele>2.0</ele><time>2026-03-30T10:17:43.996Z</time></trkpt><trkpt lat="40.00096846304229" lon="8.514284515011955"><ele>2.0</ele><time>2026-03-30T10:17:44.996Z</time></trkpt><trkpt lat="40.000931437662345" lon="8.514028125593295"><ele>2.0</ele><time>2026-03-30T10:17:45.996Z</time></trkpt><trkpt lat="40.00089546972308" lon="8.51377239732833"><ele>2.0</ele><time>2026-03-30T10:17:46.996Z</time></trkpt><trkpt lat="40.000863293717956" lon="8.51351731251155"><ele>2.0</ele><time>2026-03-30T10:17:47.996Z</time></trkpt><trkpt lat="40.00083305373101" lon="8.51326063036856"><ele>2.333333333333333</ele><time>2026-03-30T10:17:48.996Z</time></trkpt><trkpt lat="40.000800568350364" lon="8.513003900715026"><ele>2.6666666666666665</ele><time>2026-03-30T10:17:49.996Z</time></trkpt><trkpt lat="40.00076932759587" lon="8.512744671757929"><ele>3.0</ele><time>2026-03-30T10:17:50.997Z</time></trkpt><trkpt lat="40.00074325541137" lon="8.512489770963722"><ele>3.333333333333333</ele><time>2026-03-30T10:17:51.997Z</time></trkpt><trkpt lat="40.00071480269085" lon="8.512233603078009"><ele>3.6666666666666665</ele><time>2026-03-30T10:17:52.997Z</time></trkpt><trkpt lat="40.00068310040677" lon="8.511981691293872"><ele>4.0</ele><time>2026-03-30T10:17:53.997Z</time></trkpt><trkpt lat="40.0006484994808" lon="8.511727071827224"><ele>3.333333333333333</ele><time>2026-03-30T10:17:54.997Z</time></trkpt><trkpt lat="40.000615014673926" lon="8.511473013869319"><ele>2.6666666666666665</ele><time>2026-03-30T10:17:55.997Z</time></trkpt><trkpt lat="40.000586422950796" lon="8.511217981315752"><ele>2.0</ele><time>2026-03-30T10:17:56.997Z</time></trkpt><trkpt lat="40.00055747420997" lon="8.51096195986722"><ele>2.0</ele><time>2026-03-30T10:17:57.997Z</time></trkpt><trkpt lat="40.00053191743975" lon="8.51070605927153"><ele>2.0</ele><time>2026-03-30T10:17:58.998Z</time></trkpt><trkpt lat="40.000514389960294" lon="8.510447289747072"><ele>2.0</ele><time>2026-03-30T10:17:59.998Z</time></trkpt><trkpt lat="40.00050052781382" lon="8.510189221152272"><ele>2.0</ele><time>2026-03-30T10:18:00.998Z</time></trkpt><trkpt lat="40.0004880505366" lon="8.509944578713691"><ele>2.0</ele><time>2026-03-30T10:18:01.998Z</time></trkpt><trkpt lat="40.00047807704191" lon="8.50971300644714"><ele>2.0</ele><time>2026-03-30T10:18:02.998Z</time></trkpt><trkpt lat="40.000466298157725" lon="8.50948910836125"><ele>3.0</ele><time>2026-03-30T10:18:03.998Z</time></trkpt><trkpt lat="40.000458876962725" lon="8.509276859240074"><ele>4.0</ele><time>2026-03-30T10:18:04.998Z</time></trkpt><trkpt lat="40.00044803208903" lon="8.509068402877277"><ele>5.0</ele><time>2026-03-30T10:18:05.998Z</time></trkpt><trkpt lat="40.000435214146506" lon="8.508851143817179"><ele>4.666666666666667</ele><time>2026-03-30T10:18:06.998Z</time></trkpt><trkpt lat="40.00042389038894" lon="8.508630598569484"><ele>4.333333333333333</ele><time>2026-03-30T10:18:07.998Z</time></trkpt><trkpt lat="40.000413267438454" lon="8.508413788560432"><ele>4.0</ele><time>2026-03-30T10:18:08.998Z</time></trkpt><trkpt lat="40.000404635606614" lon="8.508190246938153"><ele>4.0</ele><time>2026-03-30T10:18:09.998Z</time></trkpt><trkpt lat="40.00039746939358" lon="8.507959459963839"><ele>4.0</ele><time>2026-03-30T10:18:10.998Z</time></trkpt><trkpt lat="40.00039553211684" lon="8.507722544699668"><ele>4.0</ele><time>2026-03-30T10:18:11.998Z</time></trkpt><trkpt lat="40.000392650073785" lon="8.507480789193302"><ele>3.0</ele><time>2026-03-30T10:18:12.999Z</time></trkpt><trkpt lat="40.00039303638747" lon="8.507236392732892"><ele>2.0</ele><time>2026-03-30T10:18:13.999Z</time></trkpt><trkpt lat="40.00039987609192" lon="8.506986359634787"><ele>1.0</ele><time>2026-03-30T10:18:14.999Z</time></trkpt><trkpt lat="40.000413423049984" lon="8.506735458867478"><ele>1.0</ele><time>2026-03-30T10:18:15.999Z</time></trkpt><trkpt lat="40.00043131572119" lon="8.506485089309017"><ele>1.0</ele><time>2026-03-30T10:18:16.999Z</time></trkpt><trkpt lat="40.00044637071917" lon="8.506236090479195"><ele>1.0</ele><time>2026-03-30T10:18:17.999Z</time></trkpt><trkpt lat="40.00045297360701" lon="8.505980096924064"><ele>1.3333333333333333</ele><time>2026-03-30T10:18:18.999Z</time></trkpt><trkpt lat="40.0004636417547" lon="8.505724519985382"><ele>1.6666666666666665</ele><time>2026-03-30T10:18:19.999Z</time></trkpt><trkpt lat="40.00047632952227" lon="8.505467287142595"><ele>2.0</ele><time>2026-03-30T10:18:20.999Z</time></trkpt><trkpt lat="40.000488065470364" lon="8.505211444267308"><ele>2.0</ele><time>2026-03-30T10:18:21.999Z</time></trkpt><trkpt lat="40.000498528876385" lon="8.50495821038264"><ele>2.0</ele><time>2026-03-30T10:18:22.999Z</time></trkpt><trkpt lat="40.00050698677866" lon="8.504713623148183"><ele>2.0</ele><time>2026-03-30T10:18:23.999Z</time></trkpt><trkpt lat="40.00051603559566" lon="8.504475860846647"><ele>2.0</ele><time>2026-03-30T10:18:24.999Z</time></trkpt><trkpt lat="40.000512152949845" lon="8.504240483527553"><ele>2.0</ele><time>2026-03-30T10:18:25.999Z</time></trkpt><trkpt lat="40.000482933890005" lon="8.50400784247631"><ele>2.0</ele><time>2026-03-30T10:18:26.999Z</time></trkpt><trkpt lat="40.000418808324135" lon="8.503781220017016"><ele>1.6666666666666665</ele><time>2026-03-30T10:18:27.999Z</time></trkpt><trkpt lat="40.000327017131674" lon="8.503563483945074"><ele>1.3333333333333333</ele><time>2026-03-30T10:18:28.999Z</time></trkpt><trkpt lat="40.000215803179614" lon="8.503359099305202"><ele>1.0</ele><time>2026-03-30T10:18:29.999Z</time></trkpt><trkpt lat="40.0000932430821" lon="8.50316492234098"><ele>1.0</ele><time>2026-03-30T10:18:30.999Z</time></trkpt><trkpt lat="39.99997065296329" lon="8.502969513119924"><ele>1.0</ele><time>2026-03-30T10:18:31.999Z</time></trkpt><trkpt lat="39.999857346747746" lon="8.50276473535889"><ele>1.0</ele><time>2026-03-30T10:18:32.999Z</time></trkpt><trkpt lat="39.99974917529877" lon="8.502552074031879"><ele>1.3333333333333333</ele><time>2026-03-30T10:18:33.999Z</time></trkpt><trkpt lat="39.999654818773806" lon="8.502333591305266"><ele>1.6666666666666665</ele><time>2026-03-30T10:18:34.999Z</time></trkpt><trkpt lat="39.99957193065414" lon="8.502107629778244"><ele>2.0</ele><time>2026-03-30T10:18:36Z</time></trkpt><trkpt lat="39.999494614381064" lon="8.501877315624029"><ele>2.0</ele><time>2026-03-30T10:18:37Z</time></trkpt><trkpt lat="39.99941596222498" lon="8.501644362358563"><ele>2.0</ele><time>2026-03-30T10:18:38Z</time></trkpt><trkpt lat="39.99933762589273" lon="8.501411085380383"><ele>2.0</ele><time>2026-03-30T10:18:39Z</time></trkpt><trkpt lat="39.99926273131165" lon="8.501173748904812"><ele>2.0</ele><time>2026-03-30T10:18:40Z</time></trkpt><trkpt lat="39.99918663459306" lon="8.50093539976867"><ele>2.0</ele><time>2026-03-30T10:18:41Z</time></trkpt><trkpt lat="39.99911008577845" lon="8.500698764605154"><ele>2.0</ele><time>2026-03-30T10:18:42Z</time></trkpt><trkpt lat="39.9990339293887" lon="8.500462380788882"><ele>2.6666666666666665</ele><time>2026-03-30T10:18:43Z</time></trkpt><trkpt lat="39.99895794497148" lon="8.500226229809655"><ele>3.333333333333333</ele><time>2026-03-30T10:18:44Z</time></trkpt><trkpt lat="39.99888310053141" lon="8.499990435312583"><ele>4.0</ele><time>2026-03-30T10:18:45Z</time></trkpt><trkpt lat="39.99880897986457" lon="8.499753428364846"><ele>4.0</ele><time>2026-03-30T10:18:46Z</time></trkpt><trkpt lat="39.99874108598513" lon="8.499511286855013"><ele>4.0</ele><time>2026-03-30T10:18:47Z</time></trkpt><trkpt lat="39.998687269832736" lon="8.499262435466552"><ele>4.0</ele><time>2026-03-30T10:18:48Z</time></trkpt><trkpt lat="39.998647059676685" lon="8.499008284554767"><ele>4.0</ele><time>2026-03-30T10:18:49Z</time></trkpt><trkpt lat="39.99862225323715" lon="8.498747548849193"><ele>4.0</ele><time>2026-03-30T10:18:50Z</time></trkpt><trkpt lat="39.99859788981779" lon="8.498487775548712"><ele>4.0</ele><time>2026-03-30T10:18:51Z</time></trkpt><trkpt lat="39.99857509017413" lon="8.498227551449933"><ele>4.0</ele><time>2026-03-30T10:18:52Z</time></trkpt><trkpt lat="39.998548823267164" lon="8.497964888902608"><ele>4.0</ele><time>2026-03-30T10:18:53Z</time></trkpt><trkpt lat="39.998522905788306" lon="8.49770136207878"><ele>4.0</ele><time>2026-03-30T10:18:54Z</time></trkpt><trkpt lat="39.99849432388359" lon="8.49743899072181"><ele>4.333333333333333</ele><time>2026-03-30T10:18:55Z</time></trkpt><trkpt lat="39.99846708635061" lon="8.497174327228093"><ele>4.666666666666667</ele><time>2026-03-30T10:18:56Z</time></trkpt><trkpt lat="39.99844237537926" lon="8.496904164358707"><ele>5.0</ele><time>2026-03-30T10:18:57Z</time></trkpt><trkpt lat="39.998418348818625" lon="8.496634747046443"><ele>5.0</ele><time>2026-03-30T10:18:58Z</time></trkpt><trkpt lat="39.99839263065799" lon="8.496363179787455"><ele>5.0</ele><time>2026-03-30T10:18:59Z</time></trkpt><trkpt lat="39.99836720082941" lon="8.496096482652462"><ele>5.0</ele><time>2026-03-30T10:19:00Z</time></trkpt><trkpt lat="39.99834031668597" lon="8.495830159294613"><ele>5.333333333333334</ele><time>2026-03-30T10:19:01Z</time></trkpt><trkpt lat="39.99831273415808" lon="8.495562853576036"><ele>5.666666666666667</ele><time>2026-03-30T10:19:02Z</time></trkpt><trkpt lat="39.9982845204603" lon="8.49529477232338"><ele>6.0</ele><time>2026-03-30T10:19:03Z</time></trkpt><trkpt lat="39.998258661542515" lon="8.495026071037426"><ele>6.0</ele><time>2026-03-30T10:19:04Z</time></trkpt><trkpt lat="39.998231870780934" lon="8.494754099235328"><ele>6.0</ele><time>2026-03-30T10:19:05Z</time></trkpt><trkpt lat="39.99820574746537" lon="8.494481233521983"><ele>6.0</ele><time>2026-03-30T10:19:06Z</time></trkpt><trkpt lat="39.998181887602875" lon="8.494205341525323"><ele>6.333333333333334</ele><time>2026-03-30T10:19:07Z</time></trkpt><trkpt lat="39.99815944673662" lon="8.493932780975813"><ele>6.666666666666667</ele><time>2026-03-30T10:19:08.001Z</time></trkpt><trkpt lat="39.998139073568275" lon="8.493660463287283"><ele>7.0</ele><time>2026-03-30T10:19:09.001Z</time></trkpt><trkpt lat="39.99812894992177" lon="8.493387334298816"><ele>7.0</ele><time>2026-03-30T10:19:10.001Z</time></trkpt><trkpt lat="39.99812870755576" lon="8.493114704165993"><ele>7.0</ele><time>2026-03-30T10:19:11.001Z</time></trkpt><trkpt lat="39.998132482614835" lon="8.492840988296706"><ele>7.0</ele><time>2026-03-30T10:19:12.001Z</time></trkpt><trkpt lat="39.99814196862528" lon="8.492566982011542"><ele>7.0</ele><time>2026-03-30T10:19:13.001Z</time></trkpt><trkpt lat="39.99815502523081" lon="8.492295142846233"><ele>7.0</ele><time>2026-03-30T10:19:14.001Z</time></trkpt><trkpt lat="39.99817260716077" lon="8.492025724625512"><ele>7.0</ele><time>2026-03-30T10:19:15.001Z</time></trkpt><trkpt lat="39.99819258431637" lon="8.49175862223324"><ele>7.333333333333334</ele><time>2026-03-30T10:19:16.001Z</time></trkpt><trkpt lat="39.99821096072353" lon="8.49149106737963"><ele>7.666666666666666</ele><time>2026-03-30T10:19:17.001Z</time></trkpt><trkpt lat="39.99822496175632" lon="8.491222992578772"><ele>8.0</ele><time>2026-03-30T10:19:18.001Z</time></trkpt><trkpt lat="39.998239474396215" lon="8.490956164955236"><ele>8.0</ele><time>2026-03-30T10:19:19.001Z</time></trkpt><trkpt lat="39.99825591024042" lon="8.490689409100998"><ele>8.0</ele><time>2026-03-30T10:19:20.001Z</time></trkpt><trkpt lat="39.99827161964121" lon="8.490420657758019"><ele>8.0</ele><time>2026-03-30T10:19:21.001Z</time></trkpt><trkpt lat="39.998285379533996" lon="8.490152637723044"><ele>8.666666666666666</ele><time>2026-03-30T10:19:22.001Z</time></trkpt><trkpt lat="39.99829209021959" lon="8.489887260475026"><ele>9.333333333333334</ele><time>2026-03-30T10:19:23.001Z</time></trkpt><trkpt lat="39.99828499945793" lon="8.489618061240346"><ele>10.0</ele><time>2026-03-30T10:19:24.001Z</time></trkpt><trkpt lat="39.99826883535533" lon="8.489348338616463"><ele>10.0</ele><time>2026-03-30T10:19:25.001Z</time></trkpt><trkpt lat="39.998246758604395" lon="8.489079899696618"><ele>10.0</ele><time>2026-03-30T10:19:26.001Z</time></trkpt><trkpt lat="39.99822120671918" lon="8.48881347557936"><ele>10.0</ele><time>2026-03-30T10:19:27.001Z</time></trkpt><trkpt lat="39.99818877415984" lon="8.488547089427373"><ele>10.0</ele><time>2026-03-30T10:19:28.001Z</time></trkpt><trkpt lat="39.998151379378434" lon="8.488279235030523"><ele>10.0</ele><time>2026-03-30T10:19:29.001Z</time></trkpt><trkpt lat="39.998111440761825" lon="8.48801183183044"><ele>10.0</ele><time>2026-03-30T10:19:30.001Z</time></trkpt><trkpt lat="39.99806618562034" lon="8.487742836455341"><ele>10.0</ele><time>2026-03-30T10:19:31.001Z</time></trkpt><trkpt lat="39.99802207123662" lon="8.487475793883284"><ele>10.0</ele><time>2026-03-30T10:19:32.001Z</time></trkpt><trkpt lat="39.99798372143336" lon="8.48720764985534"><ele>10.0</ele><time>2026-03-30T10:19:33.001Z</time></trkpt><trkpt lat="39.997946691602614" lon="8.486933532127438"><ele>10.0</ele><time>2026-03-30T10:19:34.001Z</time></trkpt><trkpt lat="39.99790637485003" lon="8.486661803688813"><ele>10.0</ele><time>2026-03-30T10:19:35.001Z</time></trkpt><trkpt lat="39.99786196994453" lon="8.486392294407667"><ele>10.0</ele><time>2026-03-30T10:19:36.001Z</time></trkpt><trkpt lat="39.99782051197049" lon="8.48612418267315"><ele>10.0</ele><time>2026-03-30T10:19:37.001Z</time></trkpt><trkpt lat="39.997776296170024" lon="8.485857874081162"><ele>10.0</ele><time>2026-03-30T10:19:38.001Z</time></trkpt><trkpt lat="39.99773347440299" lon="8.485592210976739"><ele>10.0</ele><time>2026-03-30T10:19:39.001Z</time></trkpt><trkpt lat="39.997690382306644" lon="8.485326959029633"><ele>10.0</ele><time>2026-03-30T10:19:40.001Z</time></trkpt><trkpt lat="39.997647227234545" lon="8.485060514221717"><ele>10.0</ele><time>2026-03-30T10:19:41.001Z</time></trkpt><trkpt lat="39.997606706947685" lon="8.484793760968515"><ele>10.0</ele><time>2026-03-30T10:19:42.001Z</time></trkpt><trkpt lat="39.99756807744215" lon="8.484528575466127"><ele>10.0</ele><time>2026-03-30T10:19:43.002Z</time></trkpt><trkpt lat="39.99752875312963" lon="8.484265028447703"><ele>10.0</ele><time>2026-03-30T10:19:43.998Z</time></trkpt><trkpt lat="39.997488657385226" lon="8.483997128842555"><ele>10.0</ele><time>2026-03-30T10:19:44.998Z</time></trkpt><trkpt lat="39.99744966818721" lon="8.483731105798684"><ele>10.0</ele><time>2026-03-30T10:19:45.998Z</time></trkpt><trkpt lat="39.99741153236595" lon="8.483467478262062"><ele>10.0</ele><time>2026-03-30T10:19:46.998Z</time></trkpt><trkpt lat="39.9973745332921" lon="8.483204002593824"><ele>10.0</ele><time>2026-03-30T10:19:47.998Z</time></trkpt><trkpt lat="39.99733828552148" lon="8.482938394235093"><ele>9.333333333333334</ele><time>2026-03-30T10:19:48.998Z</time></trkpt><trkpt lat="39.99730241891955" lon="8.4826705880478"><ele>8.666666666666666</ele><time>2026-03-30T10:19:49.998Z</time></trkpt><trkpt lat="39.997263832449086" lon="8.482403907367361"><ele>8.0</ele><time>2026-03-30T10:19:50.998Z</time></trkpt><trkpt lat="39.99722213296727" lon="8.482136297190968"><ele>8.5</ele><time>2026-03-30T10:19:51.998Z</time></trkpt><trkpt lat="39.99714216521912" lon="8.481602277448903"><ele>9.0</ele><time>2026-03-30T10:19:53.998Z</time></trkpt><trkpt lat="39.99704032140555" lon="8.481347437261853"><ele>8.333333333333334</ele><time>2026-03-30T10:19:54.998Z</time></trkpt><trkpt lat="39.99696256986271" lon="8.481090718205337"><ele>7.666666666666667</ele><time>2026-03-30T10:19:55.998Z</time></trkpt><trkpt lat="39.99688725393952" lon="8.480830654970221"><ele>7.0</ele><time>2026-03-30T10:19:56.999Z</time></trkpt><trkpt lat="39.99681116320192" lon="8.480567784114998"><ele>7.666666666666667</ele><time>2026-03-30T10:19:57.999Z</time></trkpt><trkpt lat="39.99673790162189" lon="8.480304476540311"><ele>8.333333333333334</ele><time>2026-03-30T10:19:58.999Z</time></trkpt><trkpt lat="39.99666584760484" lon="8.480039109608784"><ele>9.0</ele><time>2026-03-30T10:19:59.999Z</time></trkpt><trkpt lat="39.99659906803722" lon="8.479773724498218"><ele>9.0</ele><time>2026-03-30T10:20:00.999Z</time></trkpt><trkpt lat="39.99652832914114" lon="8.479511910641524"><ele>9.0</ele><time>2026-03-30T10:20:01.999Z</time></trkpt><trkpt lat="39.9964561628485" lon="8.479254648829418"><ele>9.0</ele><time>2026-03-30T10:20:02.999Z</time></trkpt><trkpt lat="39.99638641117211" lon="8.479001546666428"><ele>9.0</ele><time>2026-03-30T10:20:03.999Z</time></trkpt><trkpt lat="39.996314217886095" lon="8.478745495228269"><ele>9.0</ele><time>2026-03-30T10:20:04.999Z</time></trkpt><trkpt lat="39.99624420125161" lon="8.478491203476578"><ele>9.0</ele><time>2026-03-30T10:20:05.999Z</time></trkpt><trkpt lat="39.996169578311424" lon="8.478237778918709"><ele>9.0</ele><time>2026-03-30T10:20:06.999Z</time></trkpt><trkpt lat="39.996095882140075" lon="8.477982984999144"><ele>9.0</ele><time>2026-03-30T10:20:07.999Z</time></trkpt><trkpt lat="39.99602326340987" lon="8.477727311862006"><ele>9.0</ele><time>2026-03-30T10:20:08.999Z</time></trkpt><trkpt lat="39.9959493082312" lon="8.477469969112606"><ele>9.333333333333334</ele><time>2026-03-30T10:20:09.999Z</time></trkpt><trkpt lat="39.995877982061906" lon="8.477212871567852"><ele>9.666666666666668</ele><time>2026-03-30T10:20:10.999Z</time></trkpt><trkpt lat="39.99580909981247" lon="8.47695895248464"><ele>10.0</ele><time>2026-03-30T10:20:12Z</time></trkpt><trkpt lat="39.99574154882021" lon="8.476708969586864"><ele>10.0</ele><time>2026-03-30T10:20:13Z</time></trkpt><trkpt lat="39.99567198297363" lon="8.476462330283505"><ele>10.0</ele><time>2026-03-30T10:20:14Z</time></trkpt><trkpt lat="39.995602916255024" lon="8.476216208949296"><ele>10.0</ele><time>2026-03-30T10:20:15Z</time></trkpt><trkpt lat="39.99553148593526" lon="8.475970671523829"><ele>10.0</ele><time>2026-03-30T10:20:16Z</time></trkpt><trkpt lat="39.995454636380906" lon="8.475726770371061"><ele>10.0</ele><time>2026-03-30T10:20:17Z</time></trkpt><trkpt lat="39.995371040882794" lon="8.475493411409229"><ele>10.0</ele><time>2026-03-30T10:20:18Z</time></trkpt><trkpt lat="39.99528185379063" lon="8.47526204154948"><ele>10.0</ele><time>2026-03-30T10:20:19Z</time></trkpt><trkpt lat="39.99519172807253" lon="8.47502962741871"><ele>10.0</ele><time>2026-03-30T10:20:20Z</time></trkpt><trkpt lat="39.99509572178947" lon="8.474799986464783"><ele>10.0</ele><time>2026-03-30T10:20:21Z</time></trkpt><trkpt lat="39.99499972138372" lon="8.47456506210397"><ele>9.333333333333334</ele><time>2026-03-30T10:20:22Z</time></trkpt><trkpt lat="39.99490503112336" lon="8.474329692400792"><ele>8.666666666666666</ele><time>2026-03-30T10:20:23Z</time></trkpt><trkpt lat="39.99480817543557" lon="8.474095338594449"><ele>8.0</ele><time>2026-03-30T10:20:24Z</time></trkpt><trkpt lat="39.99470953603549" lon="8.47386019123973"><ele>8.666666666666666</ele><time>2026-03-30T10:20:25Z</time></trkpt><trkpt lat="39.99461696077977" lon="8.473625529025176"><ele>9.333333333333334</ele><time>2026-03-30T10:20:26Z</time></trkpt><trkpt lat="39.99453737764808" lon="8.473380559086714"><ele>10.0</ele><time>2026-03-30T10:20:27Z</time></trkpt><trkpt lat="39.99447837071143" lon="8.473128434107462"><ele>10.0</ele><time>2026-03-30T10:20:28Z</time></trkpt><trkpt lat="39.99443619563132" lon="8.472871637502665"><ele>10.0</ele><time>2026-03-30T10:20:29Z</time></trkpt><trkpt lat="39.99439801603064" lon="8.472614028915997"><ele>10.0</ele><time>2026-03-30T10:20:30Z</time></trkpt><trkpt lat="39.99435803803043" lon="8.472352947765277"><ele>9.666666666666668</ele><time>2026-03-30T10:20:31Z</time></trkpt><trkpt lat="39.994311004723805" lon="8.47209168344146"><ele>9.333333333333334</ele><time>2026-03-30T10:20:32Z</time></trkpt><trkpt lat="39.99425267571897" lon="8.471834397276014"><ele>9.0</ele><time>2026-03-30T10:20:33Z</time></trkpt><trkpt lat="39.99418873065576" lon="8.471583063655862"><ele>8.333333333333334</ele><time>2026-03-30T10:20:34Z</time></trkpt><trkpt lat="39.994113279541814" lon="8.47133386912324"><ele>7.666666666666667</ele><time>2026-03-30T10:20:35Z</time></trkpt><trkpt lat="39.994038896452615" lon="8.47108190157697"><ele>7.0</ele><time>2026-03-30T10:20:36Z</time></trkpt><trkpt lat="39.993963933126814" lon="8.470832452187317"><ele>7.0</ele><time>2026-03-30T10:20:37.001Z</time></trkpt><trkpt lat="39.99388652488692" lon="8.47058092550605"><ele>7.0</ele><time>2026-03-30T10:20:38.001Z</time></trkpt><trkpt lat="39.993807320925754" lon="8.470330022564127"><ele>7.0</ele><time>2026-03-30T10:20:39.001Z</time></trkpt><trkpt lat="39.99373398336302" lon="8.47007299628132"><ele>7.666666666666667</ele><time>2026-03-30T10:20:40.001Z</time></trkpt><trkpt lat="39.99366006288054" lon="8.469816968666072"><ele>8.333333333333334</ele><time>2026-03-30T10:20:41.001Z</time></trkpt><trkpt lat="39.993585722390065" lon="8.469558892387779"><ele>9.0</ele><time>2026-03-30T10:20:42.001Z</time></trkpt><trkpt lat="39.993508401438575" lon="8.469303390326527"><ele>9.333333333333334</ele><time>2026-03-30T10:20:43.001Z</time></trkpt><trkpt lat="39.99343056649708" lon="8.469046572095442"><ele>9.666666666666668</ele><time>2026-03-30T10:20:44.001Z</time></trkpt><trkpt lat="39.993351147933225" lon="8.46878442372349"><ele>10.0</ele><time>2026-03-30T10:20:45.001Z</time></trkpt><trkpt lat="39.99326961881258" lon="8.468521792180143"><ele>10.0</ele><time>2026-03-30T10:20:46.001Z</time></trkpt><trkpt lat="39.993187696788056" lon="8.468258028747561"><ele>10.0</ele><time>2026-03-30T10:20:47.001Z</time></trkpt><trkpt lat="39.99310919681063" lon="8.467995815061972"><ele>10.0</ele><time>2026-03-30T10:20:48.001Z</time></trkpt><trkpt lat="39.99303266579631" lon="8.467730311448062"><ele>10.0</ele><time>2026-03-30T10:20:49.001Z</time></trkpt><trkpt lat="39.992952684224875" lon="8.46746739838706"><ele>10.0</ele><time>2026-03-30T10:20:50.001Z</time></trkpt><trkpt lat="39.99287749863701" lon="8.46720140194116"><ele>10.0</ele><time>2026-03-30T10:20:51.001Z</time></trkpt><trkpt lat="39.99280931934224" lon="8.466930282617486"><ele>10.0</ele><time>2026-03-30T10:20:52.001Z</time></trkpt><trkpt lat="39.99273891988171" lon="8.466656310074516"><ele>10.0</ele><time>2026-03-30T10:20:53.001Z</time></trkpt><trkpt lat="39.992667488237814" lon="8.466383497730778"><ele>10.0</ele><time>2026-03-30T10:20:54.001Z</time></trkpt><trkpt lat="39.99259477819641" lon="8.466112998853141"><ele>10.0</ele><time>2026-03-30T10:20:55.001Z</time></trkpt><trkpt lat="39.992527866984695" lon="8.465840304770946"><ele>10.0</ele><time>2026-03-30T10:20:56.001Z</time></trkpt><trkpt lat="39.992463672873605" lon="8.465566722911095"><ele>10.0</ele><time>2026-03-30T10:20:57.001Z</time></trkpt><trkpt lat="39.99239796439001" lon="8.465291164447118"><ele>10.0</ele><time>2026-03-30T10:20:58.001Z</time></trkpt><trkpt lat="39.99232740166522" lon="8.465017870296398"><ele>10.0</ele><time>2026-03-30T10:20:59.001Z</time></trkpt><trkpt lat="39.99225217059467" lon="8.464742372443236"><ele>10.0</ele><time>2026-03-30T10:21:00.001Z</time></trkpt><trkpt lat="39.992171571160334" lon="8.46447797176326"><ele>9.666666666666668</ele><time>2026-03-30T10:21:01.001Z</time></trkpt><trkpt lat="39.99207410050942" lon="8.464228196114034"><ele>9.333333333333334</ele><time>2026-03-30T10:21:02.001Z</time></trkpt><trkpt lat="39.99195780223718" lon="8.463994647903554"><ele>9.0</ele><time>2026-03-30T10:21:03.001Z</time></trkpt><trkpt lat="39.991833093613124" lon="8.46377267951253"><ele>9.0</ele><time>2026-03-30T10:21:04.001Z</time></trkpt><trkpt lat="39.99172207187939" lon="8.46354088326784"><ele>9.0</ele><time>2026-03-30T10:21:05.001Z</time></trkpt><trkpt lat="39.991601596452895" lon="8.463320044603641"><ele>9.0</ele><time>2026-03-30T10:21:06.001Z</time></trkpt><trkpt lat="39.99148182867354" lon="8.463101666872644"><ele>10.0</ele><time>2026-03-30T10:21:07.001Z</time></trkpt><trkpt lat="39.99136053788748" lon="8.46288051220919"><ele>11.0</ele><time>2026-03-30T10:21:08.002Z</time></trkpt><trkpt lat="39.991239629314784" lon="8.462660054512845"><ele>12.0</ele><time>2026-03-30T10:21:09.002Z</time></trkpt><trkpt lat="39.9911053025817" lon="8.462451532185344"><ele>12.0</ele><time>2026-03-30T10:21:10.002Z</time></trkpt><trkpt lat="39.99098742106715" lon="8.462229536816372"><ele>12.0</ele><time>2026-03-30T10:21:11.002Z</time></trkpt><trkpt lat="39.99086736773488" lon="8.46200778584931"><ele>12.0</ele><time>2026-03-30T10:21:12.002Z</time></trkpt><trkpt lat="39.99074495766346" lon="8.46178908475225"><ele>11.0</ele><time>2026-03-30T10:21:13.002Z</time></trkpt><trkpt lat="39.99061594057395" lon="8.461576613498021"><ele>10.0</ele><time>2026-03-30T10:21:14.002Z</time></trkpt><trkpt lat="39.99047725186461" lon="8.461372074632292"><ele>9.0</ele><time>2026-03-30T10:21:15.002Z</time></trkpt><trkpt lat="39.99034086303814" lon="8.461160947035308"><ele>8.666666666666666</ele><time>2026-03-30T10:21:16.002Z</time></trkpt><trkpt lat="39.99018897280033" lon="8.460972825966602"><ele>8.333333333333332</ele><time>2026-03-30T10:21:17.002Z</time></trkpt><trkpt lat="39.990030677744514" lon="8.460790992330486"><ele>8.0</ele><time>2026-03-30T10:21:18.002Z</time></trkpt><trkpt lat="39.98986508432247" lon="8.460619926565903"><ele>8.0</ele><time>2026-03-30T10:21:19.002Z</time></trkpt><trkpt lat="39.989685408130924" lon="8.460474410585908"><ele>8.0</ele><time>2026-03-30T10:21:20.002Z</time></trkpt><trkpt lat="39.98951261369877" lon="8.460318582734324"><ele>8.0</ele><time>2026-03-30T10:21:21.002Z</time></trkpt><trkpt lat="39.98933283367374" lon="8.460169414108062"><ele>8.0</ele><time>2026-03-30T10:21:22.002Z</time></trkpt><trkpt lat="39.98915159039746" lon="8.460026741218732"><ele>8.0</ele><time>2026-03-30T10:21:23.002Z</time></trkpt><trkpt lat="39.98896949977824" lon="8.459889306041774"><ele>8.0</ele><time>2026-03-30T10:21:24.002Z</time></trkpt><trkpt lat="39.988804035571945" lon="8.459729083208687"><ele>8.0</ele><time>2026-03-30T10:21:25.002Z</time></trkpt><trkpt lat="39.988630612670825" lon="8.459592385689929"><ele>8.0</ele><time>2026-03-30T10:21:26.002Z</time></trkpt><trkpt lat="39.988447424332136" lon="8.459471300249133"><ele>8.0</ele><time>2026-03-30T10:21:27.002Z</time></trkpt><trkpt lat="39.988269876142006" lon="8.459338871274928"><ele>8.0</ele><time>2026-03-30T10:21:28.002Z</time></trkpt><trkpt lat="39.98809235483315" lon="8.459206805791931"><ele>8.0</ele><time>2026-03-30T10:21:29.002Z</time></trkpt><trkpt lat="39.987893392184" lon="8.459137580896586"><ele>8.0</ele><time>2026-03-30T10:21:30.002Z</time></trkpt><trkpt lat="39.9877007822256" lon="8.459037985769603"><ele>7.666666666666666</ele><time>2026-03-30T10:21:31.002Z</time></trkpt><trkpt lat="39.98750648603817" lon="8.458964391485258"><ele>7.333333333333334</ele><time>2026-03-30T10:21:32.002Z</time></trkpt><trkpt lat="39.9873192642252" lon="8.458866910779133"><ele>7.0</ele><time>2026-03-30T10:21:33.002Z</time></trkpt><trkpt lat="39.98715002544853" lon="8.458729270622186"><ele>7.0</ele><time>2026-03-30T10:21:34.002Z</time></trkpt><trkpt lat="39.98699122252445" lon="8.45856903887503"><ele>7.0</ele><time>2026-03-30T10:21:35.002Z</time></trkpt><trkpt lat="39.98683602344853" lon="8.45840081580656"><ele>7.0</ele><time>2026-03-30T10:21:36.002Z</time></trkpt><trkpt lat="39.9866728746798" lon="8.458244835699226"><ele>7.0</ele><time>2026-03-30T10:21:37.002Z</time></trkpt><trkpt lat="39.986521761198134" lon="8.45806792241671"><ele>7.0</ele><time>2026-03-30T10:21:38.002Z</time></trkpt><trkpt lat="39.98636307897809" lon="8.457900914826242"><ele>7.0</ele><time>2026-03-30T10:21:39.002Z</time></trkpt><trkpt lat="39.98620812486643" lon="8.457733522072456"><ele>7.0</ele><time>2026-03-30T10:21:40.002Z</time></trkpt><trkpt lat="39.98605753274049" lon="8.457565857581"><ele>7.0</ele><time>2026-03-30T10:21:41.003Z</time></trkpt><trkpt lat="39.985917577867305" lon="8.457404770794149"><ele>7.0</ele><time>2026-03-30T10:21:42.003Z</time></trkpt><trkpt lat="39.98579435238123" lon="8.457238366001839"><ele>6.333333333333334</ele><time>2026-03-30T10:21:43.003Z</time></trkpt><trkpt lat="39.98569039279199" lon="8.457063242609898"><ele>5.666666666666667</ele><time>2026-03-30T10:21:44.003Z</time></trkpt><trkpt lat="39.9855906841276" lon="8.456895873824827"><ele>5.0</ele><time>2026-03-30T10:21:45.003Z</time></trkpt><trkpt lat="39.98551072919105" lon="8.456711325591073"><ele>5.0</ele><time>2026-03-30T10:21:46.003Z</time></trkpt><trkpt lat="39.98545990910969" lon="8.456503879446442"><ele>5.0</ele><time>2026-03-30T10:21:47.003Z</time></trkpt><trkpt lat="39.98540639441597" lon="8.456298505252077"><ele>5.0</ele><time>2026-03-30T10:21:48.003Z</time></trkpt><trkpt lat="39.98535776147559" lon="8.456090501557698"><ele>5.333333333333334</ele><time>2026-03-30T10:21:49.003Z</time></trkpt><trkpt lat="39.98531189291986" lon="8.455879424053371"><ele>5.666666666666667</ele><time>2026-03-30T10:21:50Z</time></trkpt><trkpt lat="39.985256292984374" lon="8.455684384774669"><ele>6.0</ele><time>2026-03-30T10:21:51Z</time></trkpt><trkpt lat="39.985217892858834" lon="8.455489147691114"><ele>6.25</ele><time>2026-03-30T10:21:52Z</time></trkpt><trkpt lat="39.985196024346756" lon="8.45529527926599"><ele>6.5</ele><time>2026-03-30T10:21:53Z</time></trkpt><trkpt lat="39.98516478063467" lon="8.455118761920417"><ele>6.75</ele><time>2026-03-30T10:21:54Z</time></trkpt><trkpt lat="39.98513477354321" lon="8.454952590927599"><ele>7.0</ele><time>2026-03-30T10:21:55Z</time></trkpt><trkpt lat="39.98510887278491" lon="8.454816223545865"><ele>7.0</ele><time>2026-03-30T10:21:56Z</time></trkpt><trkpt lat="39.985086755089384" lon="8.454705463785967"><ele>6.999999999999999</ele><time>2026-03-30T10:21:57Z</time></trkpt><trkpt lat="39.985067109273736" lon="8.454608725603363"><ele>6.999999999999999</ele><time>2026-03-30T10:21:58Z</time></trkpt><trkpt lat="39.984926048507575" lon="8.454584955778452"><ele>7.0</ele><time>2026-03-30T10:21:59Z</time></trkpt><trkpt lat="39.98485019481456" lon="8.45456606925832"><ele>7.0</ele><time>2026-03-30T10:22:00Z</time></trkpt><trkpt lat="39.98477098711205" lon="8.454579913866953"><ele>6.8</ele><time>2026-03-30T10:22:01Z</time></trkpt><trkpt lat="39.9846912190213" lon="8.454630048280574"><ele>6.6</ele><time>2026-03-30T10:22:02Z</time></trkpt><trkpt lat="39.98461535452534" lon="8.454702885423975"><ele>6.3999999999999995</ele><time>2026-03-30T10:22:03Z</time></trkpt><trkpt lat="39.98453044083241" lon="8.45476967944924"><ele>6.199999999999999</ele><time>2026-03-30T10:22:04Z</time></trkpt><trkpt lat="39.984432220961395" lon="8.454824002633861"><ele>6.0</ele><time>2026-03-30T10:22:05Z</time></trkpt><trkpt lat="39.9843415345589" lon="8.454908069665816"><ele>6.0</ele><time>2026-03-30T10:22:06Z</time></trkpt><trkpt lat="39.984199319496305" lon="8.454893483454299"><ele>6.0</ele><time>2026-03-30T10:22:07Z</time></trkpt><trkpt lat="39.98407081261699" lon="8.454897141811951"><ele>6.0</ele><time>2026-03-30T10:22:08Z</time></trkpt><trkpt lat="39.98393503912563" lon="8.454872531164263"><ele>6.0</ele><time>2026-03-30T10:22:09Z</time></trkpt><trkpt lat="39.98379801472773" lon="8.454831079100282"><ele>6.0</ele><time>2026-03-30T10:22:10Z</time></trkpt><trkpt lat="39.983645854220974" lon="8.454802552434426"><ele>6.0</ele><time>2026-03-30T10:22:11Z</time></trkpt><trkpt lat="39.98349961739018" lon="8.45474636837175"><ele>6.0</ele><time>2026-03-30T10:22:12Z</time></trkpt><trkpt lat="39.9833488954551" lon="8.454706507296793"><ele>6.333333333333334</ele><time>2026-03-30T10:22:13Z</time></trkpt><trkpt lat="39.98319225320977" lon="8.45466508048329"><ele>6.666666666666667</ele><time>2026-03-30T10:22:14Z</time></trkpt><trkpt lat="39.98303373671049" lon="8.454636073606688"><ele>7.0</ele><time>2026-03-30T10:22:15Z</time></trkpt><trkpt lat="39.98287593620012" lon="8.454580590354137"><ele>7.0</ele><time>2026-03-30T10:22:16Z</time></trkpt><trkpt lat="39.982560917624085" lon="8.454444899191321"><ele>7.0</ele><time>2026-03-30T10:22:18Z</time></trkpt><trkpt lat="39.98240051012169" lon="8.454404524324502"><ele>7.0</ele><time>2026-03-30T10:22:19Z</time></trkpt><trkpt lat="39.98223547691519" lon="8.454363163246844"><ele>7.0</ele><time>2026-03-30T10:22:20.001Z</time></trkpt><trkpt lat="39.98207331187224" lon="8.454322521001966"><ele>7.0</ele><time>2026-03-30T10:22:21.001Z</time></trkpt><trkpt lat="39.981896185303384" lon="8.454277563339444"><ele>7.0</ele><time>2026-03-30T10:22:22.001Z</time></trkpt><trkpt lat="39.98171966012492" lon="8.454232686033627"><ele>7.0</ele><time>2026-03-30T10:22:23.001Z</time></trkpt><trkpt lat="39.98154343975164" lon="8.45418923862023"><ele>7.0</ele><time>2026-03-30T10:22:24.001Z</time></trkpt><trkpt lat="39.98136185155028" lon="8.454146501405194"><ele>7.0</ele><time>2026-03-30T10:22:25.001Z</time></trkpt><trkpt lat="39.98117201295" lon="8.454119465300058"><ele>7.0</ele><time>2026-03-30T10:22:26.001Z</time></trkpt><trkpt lat="39.980986373484384" lon="8.454112045566976"><ele>7.0</ele><time>2026-03-30T10:22:27.001Z</time></trkpt><trkpt lat="39.98079887082694" lon="8.45411279688677"><ele>6.666666666666667</ele><time>2026-03-30T10:22:28.001Z</time></trkpt><trkpt lat="39.98061118750679" lon="8.454122679871794"><ele>6.333333333333334</ele><time>2026-03-30T10:22:29.001Z</time></trkpt><trkpt lat="39.98042584985907" lon="8.454132760197805"><ele>6.0</ele><time>2026-03-30T10:22:30.001Z</time></trkpt><trkpt lat="39.98024193096402" lon="8.454137338697063"><ele>6.0</ele><time>2026-03-30T10:22:31.001Z</time></trkpt><trkpt lat="39.980060140147096" lon="8.45414779905784"><ele>6.0</ele><time>2026-03-30T10:22:32.001Z</time></trkpt><trkpt lat="39.979875049319155" lon="8.454154463287034"><ele>6.0</ele><time>2026-03-30T10:22:33.001Z</time></trkpt><trkpt lat="39.97968857607898" lon="8.454167336280399"><ele>7.0</ele><time>2026-03-30T10:22:34.001Z</time></trkpt><trkpt lat="39.979504800137775" lon="8.454179284091282"><ele>8.0</ele><time>2026-03-30T10:22:35.001Z</time></trkpt><trkpt lat="39.979322726917616" lon="8.454187955036895"><ele>9.0</ele><time>2026-03-30T10:22:36.001Z</time></trkpt><trkpt lat="39.97913932394524" lon="8.454193659199001"><ele>9.666666666666666</ele><time>2026-03-30T10:22:37.001Z</time></trkpt><trkpt lat="39.978957752451244" lon="8.454200472520002"><ele>10.333333333333332</ele><time>2026-03-30T10:22:38.001Z</time></trkpt><trkpt lat="39.9787792337447" lon="8.4542094744179"><ele>11.0</ele><time>2026-03-30T10:22:39.001Z</time></trkpt><trkpt lat="39.97860100540903" lon="8.454219470220062"><ele>11.0</ele><time>2026-03-30T10:22:40.001Z</time></trkpt><trkpt lat="39.97843410572116" lon="8.454230286379373"><ele>11.0</ele><time>2026-03-30T10:22:41.001Z</time></trkpt><trkpt lat="39.9782728450757" lon="8.454238520535114"><ele>11.0</ele><time>2026-03-30T10:22:42.001Z</time></trkpt><trkpt lat="39.978121813395006" lon="8.454240019078483"><ele>11.0</ele><time>2026-03-30T10:22:43.001Z</time></trkpt><trkpt lat="39.97797828348885" lon="8.454225142386347"><ele>11.0</ele><time>2026-03-30T10:22:44.001Z</time></trkpt><trkpt lat="39.977850777719965" lon="8.454209831844969"><ele>11.0</ele><time>2026-03-30T10:22:45.001Z</time></trkpt><trkpt lat="39.977745394890455" lon="8.454193823355784"><ele>11.0</ele><time>2026-03-30T10:22:46.001Z</time></trkpt><trkpt lat="39.977646317391766" lon="8.454147528678732"><ele>11.0</ele><time>2026-03-30T10:22:47.001Z</time></trkpt><trkpt lat="39.97755092460578" lon="8.454112653830622"><ele>11.0</ele><time>2026-03-30T10:22:48.001Z</time></trkpt><trkpt lat="39.977455653641535" lon="8.454091041441039"><ele>11.0</ele><time>2026-03-30T10:22:49.001Z</time></trkpt><trkpt lat="39.97736935786109" lon="8.454046863252085"><ele>11.0</ele><time>2026-03-30T10:22:50.001Z</time></trkpt><trkpt lat="39.977284433164776" lon="8.454007066199063"><ele>11.0</ele><time>2026-03-30T10:22:51.001Z</time></trkpt><trkpt lat="39.977194724600885" lon="8.4539737929069"><ele>10.8</ele><time>2026-03-30T10:22:52.001Z</time></trkpt><trkpt lat="39.97710225439725" lon="8.453934944808719"><ele>10.600000000000001</ele><time>2026-03-30T10:22:53.001Z</time></trkpt><trkpt lat="39.97701609534891" lon="8.45388761966478"><ele>10.4</ele><time>2026-03-30T10:22:54.001Z</time></trkpt><trkpt lat="39.97693123678559" lon="8.453841168279949"><ele>10.2</ele><time>2026-03-30T10:22:55.001Z</time></trkpt><trkpt lat="39.97684011272559" lon="8.453797718225061"><ele>10.0</ele><time>2026-03-30T10:22:56.001Z</time></trkpt><trkpt lat="39.976747992974836" lon="8.45375702557573"><ele>9.6</ele><time>2026-03-30T10:22:57.001Z</time></trkpt><trkpt lat="39.976656312135695" lon="8.453716228737159"><ele>9.2</ele><time>2026-03-30T10:22:58.001Z</time></trkpt><trkpt lat="39.976566551179076" lon="8.453671670165868"><ele>8.8</ele><time>2026-03-30T10:22:59.002Z</time></trkpt><trkpt lat="39.9764774960093" lon="8.453630371853702"><ele>8.4</ele><time>2026-03-30T10:23:00.002Z</time></trkpt><trkpt lat="39.97638997580676" lon="8.4535905660808"><ele>8.0</ele><time>2026-03-30T10:23:01.002Z</time></trkpt><trkpt lat="39.97630353902435" lon="8.453553083877207"><ele>8.0</ele><time>2026-03-30T10:23:02.002Z</time></trkpt><trkpt lat="39.97621552215068" lon="8.45351458845911"><ele>8.0</ele><time>2026-03-30T10:23:03.002Z</time></trkpt><trkpt lat="39.976124927704014" lon="8.453456277560893"><ele>8.0</ele><time>2026-03-30T10:23:04.002Z</time></trkpt><trkpt lat="39.97601352270679" lon="8.453403664061781"><ele>8.0</ele><time>2026-03-30T10:23:05.002Z</time></trkpt><trkpt lat="39.97588289769283" lon="8.453341973348527"><ele>7.333333333333333</ele><time>2026-03-30T10:23:06.002Z</time></trkpt><trkpt lat="39.97574597282265" lon="8.453277307423068"><ele>6.666666666666666</ele><time>2026-03-30T10:23:07.002Z</time></trkpt><trkpt lat="39.97560067272753" lon="8.453208686014245"><ele>6.0</ele><time>2026-03-30T10:23:08.002Z</time></trkpt><trkpt lat="39.97545437854938" lon="8.453139595318836"><ele>6.0</ele><time>2026-03-30T10:23:09.002Z</time></trkpt><trkpt lat="39.97530737164918" lon="8.453070167838577"><ele>6.0</ele><time>2026-03-30T10:23:10.002Z</time></trkpt><trkpt lat="39.97515180004428" lon="8.45301880558974"><ele>6.0</ele><time>2026-03-30T10:23:11.002Z</time></trkpt><trkpt lat="39.97500356366976" lon="8.452934497359543"><ele>6.333333333333334</ele><time>2026-03-30T10:23:12.002Z</time></trkpt><trkpt lat="39.97484963985428" lon="8.452855291998102"><ele>6.666666666666667</ele><time>2026-03-30T10:23:13.002Z</time></trkpt><trkpt lat="39.974686538783416" lon="8.452786252099411"><ele>7.0</ele><time>2026-03-30T10:23:14.002Z</time></trkpt><trkpt lat="39.974518768021326" lon="8.452713311569862"><ele>7.0</ele><time>2026-03-30T10:23:15.002Z</time></trkpt><trkpt lat="39.9743520430803" lon="8.452638323452264"><ele>7.0</ele><time>2026-03-30T10:23:16.002Z</time></trkpt><trkpt lat="39.97418098744588" lon="8.452561646825872"><ele>7.0</ele><time>2026-03-30T10:23:17.002Z</time></trkpt><trkpt lat="39.974003279639746" lon="8.452498618356337"><ele>7.333333333333334</ele><time>2026-03-30T10:23:18.002Z</time></trkpt><trkpt lat="39.97382077488893" lon="8.45246345129698"><ele>7.666666666666666</ele><time>2026-03-30T10:23:19.002Z</time></trkpt><trkpt lat="39.97363722276582" lon="8.452450776000495"><ele>8.0</ele><time>2026-03-30T10:23:20.002Z</time></trkpt><trkpt lat="39.97345001069959" lon="8.452456681949405"><ele>8.0</ele><time>2026-03-30T10:23:21.002Z</time></trkpt><trkpt lat="39.97326217500594" lon="8.452471980014108"><ele>8.0</ele><time>2026-03-30T10:23:22.002Z</time></trkpt><trkpt lat="39.9730726132286" lon="8.452487352462532"><ele>8.0</ele><time>2026-03-30T10:23:23.002Z</time></trkpt><trkpt lat="39.97287904769528" lon="8.452497909166349"><ele>8.0</ele><time>2026-03-30T10:23:24.002Z</time></trkpt><trkpt lat="39.97268539264525" lon="8.45250838963868"><ele>8.0</ele><time>2026-03-30T10:23:25.002Z</time></trkpt><trkpt lat="39.97248569876996" lon="8.452520902868534"><ele>8.0</ele><time>2026-03-30T10:23:26.002Z</time></trkpt><trkpt lat="39.97228495868267" lon="8.452534343780641"><ele>8.0</ele><time>2026-03-30T10:23:27.002Z</time></trkpt><trkpt lat="39.97208144754624" lon="8.452554226835623"><ele>8.0</ele><time>2026-03-30T10:23:28.002Z</time></trkpt><trkpt lat="39.97187479305591" lon="8.452572776828505"><ele>8.0</ele><time>2026-03-30T10:23:29.002Z</time></trkpt><trkpt lat="39.97166795407879" lon="8.452589996332676"><ele>8.0</ele><time>2026-03-30T10:23:30.002Z</time></trkpt><trkpt lat="39.97145677729892" lon="8.452605492984246"><ele>8.0</ele><time>2026-03-30T10:23:31.002Z</time></trkpt><trkpt lat="39.971242517717116" lon="8.452616636519954"><ele>8.0</ele><time>2026-03-30T10:23:32.002Z</time></trkpt><trkpt lat="39.97103188398026" lon="8.452628482116298"><ele>8.0</ele><time>2026-03-30T10:23:33.002Z</time></trkpt><trkpt lat="39.97081615906478" lon="8.452650158467499"><ele>8.0</ele><time>2026-03-30T10:23:34.002Z</time></trkpt><trkpt lat="39.97059794295421" lon="8.45266899312885"><ele>8.0</ele><time>2026-03-30T10:23:35.002Z</time></trkpt><trkpt lat="39.97037659266306" lon="8.452663395300776"><ele>8.0</ele><time>2026-03-30T10:23:36.003Z</time></trkpt><trkpt lat="39.970158010746246" lon="8.452698287573211"><ele>8.0</ele><time>2026-03-30T10:23:37.003Z</time></trkpt><trkpt lat="39.96993248732093" lon="8.452709733497397"><ele>8.0</ele><time>2026-03-30T10:23:38.003Z</time></trkpt><trkpt lat="39.96970833961116" lon="8.452724063038968"><ele>8.333333333333332</ele><time>2026-03-30T10:23:39.003Z</time></trkpt><trkpt lat="39.96948366068568" lon="8.45273882458724"><ele>8.666666666666666</ele><time>2026-03-30T10:23:40.003Z</time></trkpt><trkpt lat="39.9692604036728" lon="8.452754302581718"><ele>9.0</ele><time>2026-03-30T10:23:41.003Z</time></trkpt><trkpt lat="39.96903465651376" lon="8.452769497244194"><ele>9.0</ele><time>2026-03-30T10:23:42.003Z</time></trkpt><trkpt lat="39.96881061760821" lon="8.45278551614131"><ele>9.0</ele><time>2026-03-30T10:23:43.003Z</time></trkpt><trkpt lat="39.9685828959787" lon="8.452802996333876"><ele>8.5</ele><time>2026-03-30T10:23:44.003Z</time></trkpt><trkpt lat="39.96835751676462" lon="8.452820913024784"><ele>8.0</ele><time>2026-03-30T10:23:45.003Z</time></trkpt><trkpt lat="39.96812884556798" lon="8.452837200792574"><ele>8.0</ele><time>2026-03-30T10:23:46.003Z</time></trkpt><trkpt lat="39.96789825586102" lon="8.45284840262785"><ele>8.0</ele><time>2026-03-30T10:23:47.003Z</time></trkpt><trkpt lat="39.96766811510592" lon="8.452861253584596"><ele>8.0</ele><time>2026-03-30T10:23:48.003Z</time></trkpt><trkpt lat="39.96743401998376" lon="8.452884847127782"><ele>8.0</ele><time>2026-03-30T10:23:49.003Z</time></trkpt><trkpt lat="39.967201484582326" lon="8.452907499383816"><ele>8.0</ele><time>2026-03-30T10:23:50.003Z</time></trkpt><trkpt lat="39.96696895231456" lon="8.452903683544468"><ele>8.0</ele><time>2026-03-30T10:23:51.003Z</time></trkpt><trkpt lat="39.96673882228559" lon="8.452945028246345"><ele>7.5</ele><time>2026-03-30T10:23:52.003Z</time></trkpt><trkpt lat="39.966505450588755" lon="8.452970441807977"><ele>7.0</ele><time>2026-03-30T10:23:53.003Z</time></trkpt><trkpt lat="39.966272624978316" lon="8.453005895962677"><ele>7.0</ele><time>2026-03-30T10:23:54.003Z</time></trkpt><trkpt lat="39.96603912682497" lon="8.453056513301906"><ele>7.0</ele><time>2026-03-30T10:23:55.003Z</time></trkpt><trkpt lat="39.96581094555804" lon="8.453110628589906"><ele>6.5</ele><time>2026-03-30T10:23:56Z</time></trkpt><trkpt lat="39.96558020000002" lon="8.45316574257053"><ele>6.0</ele><time>2026-03-30T10:23:57Z</time></trkpt><trkpt lat="39.96535258960764" lon="8.453227259024487"><ele>6.0</ele><time>2026-03-30T10:23:58Z</time></trkpt><trkpt lat="39.965117222564196" lon="8.453273860154491"><ele>6.0</ele><time>2026-03-30T10:23:59Z</time></trkpt><trkpt lat="39.96488695919423" lon="8.453332450884645"><ele>6.5</ele><time>2026-03-30T10:24:00Z</time></trkpt><trkpt lat="39.96465743449588" lon="8.453391197100979"><ele>7.0</ele><time>2026-03-30T10:24:01Z</time></trkpt><trkpt lat="39.96443122261894" lon="8.453449095399373"><ele>7.0</ele><time>2026-03-30T10:24:02Z</time></trkpt><trkpt lat="39.96420581809233" lon="8.453506787069683"><ele>7.0</ele><time>2026-03-30T10:24:03Z</time></trkpt><trkpt lat="39.963979350228364" lon="8.453564750906471"><ele>7.5</ele><time>2026-03-30T10:24:04Z</time></trkpt><trkpt lat="39.96375330708778" lon="8.453622606028624"><ele>8.0</ele><time>2026-03-30T10:24:05Z</time></trkpt><trkpt lat="39.96353042662355" lon="8.45368034250801"><ele>8.0</ele><time>2026-03-30T10:24:06Z</time></trkpt><trkpt lat="39.96330765662327" lon="8.453759737959729"><ele>8.0</ele><time>2026-03-30T10:24:07Z</time></trkpt><trkpt lat="39.96308470720291" lon="8.453812215019001"><ele>7.0</ele><time>2026-03-30T10:24:08Z</time></trkpt><trkpt lat="39.962862144336725" lon="8.453868704358182"><ele>6.0</ele><time>2026-03-30T10:24:09Z</time></trkpt><trkpt lat="39.962638809724346" lon="8.453919162460936"><ele>6.5</ele><time>2026-03-30T10:24:10Z</time></trkpt><trkpt lat="39.96241684684661" lon="8.453953338517723"><ele>7.0</ele><time>2026-03-30T10:24:11Z</time></trkpt><trkpt lat="39.96219034301774" lon="8.453964789516878"><ele>7.0</ele><time>2026-03-30T10:24:12Z</time></trkpt><trkpt lat="39.96196481602419" lon="8.453952597653041"><ele>7.0</ele><time>2026-03-30T10:24:13Z</time></trkpt><trkpt lat="39.96174177298387" lon="8.453924812273495"><ele>7.5</ele><time>2026-03-30T10:24:14Z</time></trkpt><trkpt lat="39.96151716304043" lon="8.453884721472821"><ele>8.0</ele><time>2026-03-30T10:24:15Z</time></trkpt><trkpt lat="39.96129342325347" lon="8.45384351613801"><ele>8.0</ele><time>2026-03-30T10:24:16Z</time></trkpt><trkpt lat="39.96107198122638" lon="8.453806132975174"><ele>8.0</ele><time>2026-03-30T10:24:17Z</time></trkpt><trkpt lat="39.96084690601122" lon="8.453770084294206"><ele>9.0</ele><time>2026-03-30T10:24:18Z</time></trkpt><trkpt lat="39.96062348479771" lon="8.4537314549423"><ele>10.0</ele><time>2026-03-30T10:24:19Z</time></trkpt><trkpt lat="39.96040030378216" lon="8.453689219780024"><ele>10.0</ele><time>2026-03-30T10:24:20Z</time></trkpt><trkpt lat="39.96017757629375" lon="8.453650176194234"><ele>10.0</ele><time>2026-03-30T10:24:21Z</time></trkpt><trkpt lat="39.95995616072984" lon="8.453611329737694"><ele>10.0</ele><time>2026-03-30T10:24:22Z</time></trkpt><trkpt lat="39.95973271210751" lon="8.45357090576134"><ele>10.0</ele><time>2026-03-30T10:24:23Z</time></trkpt><trkpt lat="39.959511081026264" lon="8.453531776814101"><ele>10.0</ele><time>2026-03-30T10:24:24.001Z</time></trkpt><trkpt lat="39.959288928400284" lon="8.453508666274205"><ele>10.0</ele><time>2026-03-30T10:24:25.001Z</time></trkpt><trkpt lat="39.95906420796874" lon="8.453498485093641"><ele>9.666666666666668</ele><time>2026-03-30T10:24:26.001Z</time></trkpt><trkpt lat="39.95883932639026" lon="8.453502165384533"><ele>9.333333333333334</ele><time>2026-03-30T10:24:27.001Z</time></trkpt><trkpt lat="39.95861544567466" lon="8.453514986319071"><ele>9.0</ele><time>2026-03-30T10:24:28.001Z</time></trkpt><trkpt lat="39.95838970455403" lon="8.453533813537565"><ele>8.5</ele><time>2026-03-30T10:24:29.001Z</time></trkpt><trkpt lat="39.958163478658975" lon="8.453556531870454"><ele>8.0</ele><time>2026-03-30T10:24:30.001Z</time></trkpt><trkpt lat="39.95793478262381" lon="8.453586610948298"><ele>8.0</ele><time>2026-03-30T10:24:31.001Z</time></trkpt><trkpt lat="39.95770541681376" lon="8.453622366864087"><ele>8.0</ele><time>2026-03-30T10:24:32.001Z</time></trkpt><trkpt lat="39.957477879342186" lon="8.453658539113578"><ele>9.0</ele><time>2026-03-30T10:24:33.001Z</time></trkpt><trkpt lat="39.957248004182" lon="8.453702057332084"><ele>10.0</ele><time>2026-03-30T10:24:34.001Z</time></trkpt><trkpt lat="39.95701929848282" lon="8.453746567281073"><ele>8.5</ele><time>2026-03-30T10:24:35.001Z</time></trkpt><trkpt lat="39.95679033057473" lon="8.453793995342354"><ele>7.0</ele><time>2026-03-30T10:24:36.001Z</time></trkpt><trkpt lat="39.95655752450428" lon="8.453848518086753"><ele>7.0</ele><time>2026-03-30T10:24:37.001Z</time></trkpt><trkpt lat="39.95632886845531" lon="8.453901814957266"><ele>7.0</ele><time>2026-03-30T10:24:38.001Z</time></trkpt><trkpt lat="39.956097287419276" lon="8.453952781167715"><ele>7.5</ele><time>2026-03-30T10:24:39.001Z</time></trkpt><trkpt lat="39.95586801248261" lon="8.454005405032973"><ele>8.0</ele><time>2026-03-30T10:24:40.001Z</time></trkpt><trkpt lat="39.95563596891451" lon="8.45405314564986"><ele>8.0</ele><time>2026-03-30T10:24:41.001Z</time></trkpt><trkpt lat="39.955405480547824" lon="8.4540952372711"><ele>8.0</ele><time>2026-03-30T10:24:42.001Z</time></trkpt><trkpt lat="39.955178657804346" lon="8.454136876618216"><ele>8.5</ele><time>2026-03-30T10:24:43.001Z</time></trkpt><trkpt lat="39.95495309140616" lon="8.454176768014628"><ele>9.0</ele><time>2026-03-30T10:24:44.001Z</time></trkpt><trkpt lat="39.95472901584924" lon="8.45421919631245"><ele>9.0</ele><time>2026-03-30T10:24:45.001Z</time></trkpt><trkpt lat="39.95450135736704" lon="8.45426701997923"><ele>9.0</ele><time>2026-03-30T10:24:46.001Z</time></trkpt><trkpt lat="39.95427667154559" lon="8.454315155939295"><ele>10.0</ele><time>2026-03-30T10:24:47.001Z</time></trkpt><trkpt lat="39.95405166260785" lon="8.454363082437204"><ele>11.0</ele><time>2026-03-30T10:24:48.001Z</time></trkpt><trkpt lat="39.953827566432636" lon="8.454412398280926"><ele>11.0</ele><time>2026-03-30T10:24:49.001Z</time></trkpt><trkpt lat="39.95360062468837" lon="8.45445838416166"><ele>11.0</ele><time>2026-03-30T10:24:50.001Z</time></trkpt><trkpt lat="39.95337195974403" lon="8.454504053265424"><ele>10.0</ele><time>2026-03-30T10:24:51.001Z</time></trkpt><trkpt lat="39.953149320754115" lon="8.454555247970262"><ele>9.0</ele><time>2026-03-30T10:24:52.001Z</time></trkpt><trkpt lat="39.952923651194126" lon="8.454616303480684"><ele>8.0</ele><time>2026-03-30T10:24:53.001Z</time></trkpt><trkpt lat="39.95270425677605" lon="8.454687663409949"><ele>7.0</ele><time>2026-03-30T10:24:54.001Z</time></trkpt><trkpt lat="39.95248739556217" lon="8.454773864303162"><ele>7.0</ele><time>2026-03-30T10:24:55.001Z</time></trkpt><trkpt lat="39.95227016054103" lon="8.454868405582191"><ele>7.0</ele><time>2026-03-30T10:24:56.001Z</time></trkpt><trkpt lat="39.95205246713158" lon="8.454962315025696"><ele>7.0</ele><time>2026-03-30T10:24:57.001Z</time></trkpt><trkpt lat="39.95183764343593" lon="8.455054096730741"><ele>7.0</ele><time>2026-03-30T10:24:58.001Z</time></trkpt><trkpt lat="39.95162155055912" lon="8.455132875802057"><ele>7.0</ele><time>2026-03-30T10:24:59.001Z</time></trkpt><trkpt lat="39.951407044878074" lon="8.45521675491236"><ele>7.0</ele><time>2026-03-30T10:25:00.002Z</time></trkpt><trkpt lat="39.95119018725076" lon="8.455303739398389"><ele>7.0</ele><time>2026-03-30T10:25:01.002Z</time></trkpt><trkpt lat="39.95097260686522" lon="8.455383778702204"><ele>7.0</ele><time>2026-03-30T10:25:02.002Z</time></trkpt><trkpt lat="39.95074988651052" lon="8.45544994498332"><ele>6.333333333333334</ele><time>2026-03-30T10:25:03.002Z</time></trkpt><trkpt lat="39.95052924138442" lon="8.455488405384763"><ele>5.666666666666667</ele><time>2026-03-30T10:25:04.002Z</time></trkpt><trkpt lat="39.95031203914005" lon="8.455508030851608"><ele>5.0</ele><time>2026-03-30T10:25:05.002Z</time></trkpt><trkpt lat="39.95009522611219" lon="8.455536456822248"><ele>5.333333333333334</ele><time>2026-03-30T10:25:06.002Z</time></trkpt><trkpt lat="39.94988196436411" lon="8.455576382135643"><ele>5.666666666666667</ele><time>2026-03-30T10:25:07.002Z</time></trkpt><trkpt lat="39.94967609630947" lon="8.455620800153042"><ele>6.0</ele><time>2026-03-30T10:25:08.002Z</time></trkpt><trkpt lat="39.94947073977517" lon="8.455667224332261"><ele>6.0</ele><time>2026-03-30T10:25:09.002Z</time></trkpt><trkpt lat="39.9492677984243" lon="8.455708982007929"><ele>6.0</ele><time>2026-03-30T10:25:10.002Z</time></trkpt><trkpt lat="39.94906714334402" lon="8.455750885160697"><ele>6.0</ele><time>2026-03-30T10:25:11.002Z</time></trkpt><trkpt lat="39.94886426996941" lon="8.455790324375808"><ele>6.0</ele><time>2026-03-30T10:25:12.002Z</time></trkpt><trkpt lat="39.948660268180625" lon="8.455830529781888"><ele>6.0</ele><time>2026-03-30T10:25:13.002Z</time></trkpt><trkpt lat="39.94846037384671" lon="8.455869838046414"><ele>6.0</ele><time>2026-03-30T10:25:14.002Z</time></trkpt><trkpt lat="39.94826723019304" lon="8.45590511405447"><ele>6.0</ele><time>2026-03-30T10:25:15.002Z</time></trkpt><trkpt lat="39.94807948904001" lon="8.455941668784222"><ele>6.0</ele><time>2026-03-30T10:25:16.002Z</time></trkpt><trkpt lat="39.94789618649697" lon="8.4559767823456"><ele>6.0</ele><time>2026-03-30T10:25:17.002Z</time></trkpt><trkpt lat="39.94771664844095" lon="8.456011635143142"><ele>6.0</ele><time>2026-03-30T10:25:18.002Z</time></trkpt><trkpt lat="39.947542179376825" lon="8.456048267508264"><ele>6.0</ele><time>2026-03-30T10:25:19.002Z</time></trkpt><trkpt lat="39.94736488672085" lon="8.456086992522913"><ele>6.0</ele><time>2026-03-30T10:25:20.002Z</time></trkpt><trkpt lat="39.94720006837387" lon="8.45611933442021"><ele>6.0</ele><time>2026-03-30T10:25:21.002Z</time></trkpt><trkpt lat="39.94704162364451" lon="8.45614911452443"><ele>6.0</ele><time>2026-03-30T10:25:22.002Z</time></trkpt><trkpt lat="39.9468876916625" lon="8.456181054310642"><ele>6.0</ele><time>2026-03-30T10:25:23.002Z</time></trkpt><trkpt lat="39.946734142885376" lon="8.456213278692747"><ele>6.666666666666666</ele><time>2026-03-30T10:25:24.002Z</time></trkpt><trkpt lat="39.94657500290795" lon="8.456243889806014"><ele>7.333333333333333</ele><time>2026-03-30T10:25:25.002Z</time></trkpt><trkpt lat="39.94641000374617" lon="8.456270431397245"><ele>8.0</ele><time>2026-03-30T10:25:26.002Z</time></trkpt><trkpt lat="39.94624402757593" lon="8.456299723458335"><ele>7.0</ele><time>2026-03-30T10:25:27.002Z</time></trkpt><trkpt lat="39.946076421003134" lon="8.456331374620454"><ele>6.0</ele><time>2026-03-30T10:25:28.002Z</time></trkpt><trkpt lat="39.945902404980984" lon="8.456371568908219"><ele>5.0</ele><time>2026-03-30T10:25:29.002Z</time></trkpt><trkpt lat="39.94572182361668" lon="8.456414037726967"><ele>5.0</ele><time>2026-03-30T10:25:30.002Z</time></trkpt><trkpt lat="39.94553584338559" lon="8.456455696505262"><ele>5.0</ele><time>2026-03-30T10:25:31.002Z</time></trkpt><trkpt lat="39.94534850565082" lon="8.456496603830315"><ele>5.0</ele><time>2026-03-30T10:25:32.002Z</time></trkpt><trkpt lat="39.94515612866347" lon="8.456531958019847"><ele>5.0</ele><time>2026-03-30T10:25:33.002Z</time></trkpt><trkpt lat="39.944967345647036" lon="8.456560574459797"><ele>5.0</ele><time>2026-03-30T10:25:34.002Z</time></trkpt><trkpt lat="39.94478364069091" lon="8.456595033105652"><ele>5.0</ele><time>2026-03-30T10:25:35.002Z</time></trkpt><trkpt lat="39.944597841743" lon="8.4566341967265"><ele>5.0</ele><time>2026-03-30T10:25:36.002Z</time></trkpt><trkpt lat="39.9444129871294" lon="8.456671967677263"><ele>5.0</ele><time>2026-03-30T10:25:37.003Z</time></trkpt><trkpt lat="39.94422363412113" lon="8.456712167726506"><ele>5.0</ele><time>2026-03-30T10:25:38.003Z</time></trkpt><trkpt lat="39.94403351603851" lon="8.456750640014326"><ele>5.0</ele><time>2026-03-30T10:25:39.003Z</time></trkpt><trkpt lat="39.94384063009185" lon="8.456784997453418"><ele>5.0</ele><time>2026-03-30T10:25:40.003Z</time></trkpt><trkpt lat="39.94364905509942" lon="8.45682188821481"><ele>5.0</ele><time>2026-03-30T10:25:41.003Z</time></trkpt><trkpt lat="39.943456725353805" lon="8.456857919389043"><ele>5.0</ele><time>2026-03-30T10:25:42.003Z</time></trkpt><trkpt lat="39.94326812954989" lon="8.45689410094718"><ele>5.0</ele><time>2026-03-30T10:25:43.003Z</time></trkpt><trkpt lat="39.94308698274853" lon="8.45693609582714"><ele>5.0</ele><time>2026-03-30T10:25:44.003Z</time></trkpt><trkpt lat="39.94291168820656" lon="8.456979218933466"><ele>5.0</ele><time>2026-03-30T10:25:45.003Z</time></trkpt><trkpt lat="39.942745858171904" lon="8.457033188817295"><ele>5.0</ele><time>2026-03-30T10:25:46.003Z</time></trkpt><trkpt lat="39.94258271676485" lon="8.457092193873624"><ele>5.0</ele><time>2026-03-30T10:25:47.003Z</time></trkpt><trkpt lat="39.94242513437676" lon="8.457153348675064"><ele>4.333333333333334</ele><time>2026-03-30T10:25:48.003Z</time></trkpt><trkpt lat="39.942258323448534" lon="8.457190358374893"><ele>3.666666666666667</ele><time>2026-03-30T10:25:49.003Z</time></trkpt><trkpt lat="39.94209800776932" lon="8.457263388281508"><ele>3.0</ele><time>2026-03-30T10:25:50.003Z</time></trkpt><trkpt lat="39.94193057512582" lon="8.457319849316379"><ele>3.0</ele><time>2026-03-30T10:25:51.003Z</time></trkpt><trkpt lat="39.941759762616094" lon="8.45735675708132"><ele>3.0</ele><time>2026-03-30T10:25:52.003Z</time></trkpt><trkpt lat="39.94159352285497" lon="8.457432140667112"><ele>3.0</ele><time>2026-03-30T10:25:53.003Z</time></trkpt><trkpt lat="39.941420942791034" lon="8.457486501132731"><ele>3.0</ele><time>2026-03-30T10:25:54.004Z</time></trkpt><trkpt lat="39.941243866740784" lon="8.457547694453883"><ele>3.0</ele><time>2026-03-30T10:25:55.003Z</time></trkpt><trkpt lat="39.94106921420277" lon="8.457608728195599"><ele>3.0</ele><time>2026-03-30T10:25:56.003Z</time></trkpt><trkpt lat="39.94088392467023" lon="8.457650297717624"><ele>3.0</ele><time>2026-03-30T10:25:57.003Z</time></trkpt><trkpt lat="39.94069968915724" lon="8.45771238513137"><ele>3.0</ele><time>2026-03-30T10:25:58.003Z</time></trkpt><trkpt lat="39.94051635183738" lon="8.457774278452545"><ele>3.0</ele><time>2026-03-30T10:25:59.003Z</time></trkpt><trkpt lat="39.94033307526026" lon="8.45783615127665"><ele>3.0</ele><time>2026-03-30T10:26:00.003Z</time></trkpt><trkpt lat="39.94014515184648" lon="8.457899592855915"><ele>3.0</ele><time>2026-03-30T10:26:01.003Z</time></trkpt><trkpt lat="39.93996064754915" lon="8.457961880130693"><ele>3.0</ele><time>2026-03-30T10:26:02.002Z</time></trkpt><trkpt lat="39.93977803215128" lon="8.458044627926906"><ele>3.0</ele><time>2026-03-30T10:26:03.002Z</time></trkpt><trkpt lat="39.939589774533296" lon="8.458087084134538"><ele>3.0</ele><time>2026-03-30T10:26:04.002Z</time></trkpt><trkpt lat="39.93940487724259" lon="8.45814950409167"><ele>3.0</ele><time>2026-03-30T10:26:05.002Z</time></trkpt><trkpt lat="39.93921780240029" lon="8.458210510688112"><ele>4.0</ele><time>2026-03-30T10:26:06.002Z</time></trkpt><trkpt lat="39.93845222752445" lon="8.458239638359254"><ele>4.333333333333333</ele><time>2026-03-30T10:26:10.001Z</time></trkpt><trkpt lat="39.9382681488305" lon="8.458212846614554"><ele>4.666666666666667</ele><time>2026-03-30T10:26:11.001Z</time></trkpt><trkpt lat="39.93808438431185" lon="8.458185863707339"><ele>5.0</ele><time>2026-03-30T10:26:12.001Z</time></trkpt><trkpt lat="39.93772324997982" lon="8.458146928758332"><ele>5.0</ele><time>2026-03-30T10:26:14.001Z</time></trkpt><trkpt lat="39.937548193798634" lon="8.458133037000257"><ele>5.0</ele><time>2026-03-30T10:26:15.001Z</time></trkpt><trkpt lat="39.93738412630845" lon="8.458113852394646"><ele>5.0</ele><time>2026-03-30T10:26:16.001Z</time></trkpt><trkpt lat="39.937228011667194" lon="8.458092533736625"><ele>5.0</ele><time>2026-03-30T10:26:17.001Z</time></trkpt><trkpt lat="39.9370740649725" lon="8.458064116082806"><ele>5.0</ele><time>2026-03-30T10:26:18.001Z</time></trkpt><trkpt lat="39.93691921143531" lon="8.458023395300675"><ele>5.0</ele><time>2026-03-30T10:26:19.001Z</time></trkpt><trkpt lat="39.936769466045796" lon="8.457959799804605"><ele>6.0</ele><time>2026-03-30T10:26:20.001Z</time></trkpt><trkpt lat="39.936627265838354" lon="8.457868150832486"><ele>7.0</ele><time>2026-03-30T10:26:21.001Z</time></trkpt><trkpt lat="39.93649318413334" lon="8.457765981193116"><ele>8.0</ele><time>2026-03-30T10:26:22.001Z</time></trkpt><trkpt lat="39.93635984589295" lon="8.45765302146295"><ele>8.0</ele><time>2026-03-30T10:26:23.001Z</time></trkpt><trkpt lat="39.93622679778985" lon="8.457537715427929"><ele>8.0</ele><time>2026-03-30T10:26:24.001Z</time></trkpt><trkpt lat="39.93609103944417" lon="8.457426764158845"><ele>8.0</ele><time>2026-03-30T10:26:25.001Z</time></trkpt><trkpt lat="39.935954927848854" lon="8.457317455846736"><ele>9.0</ele><time>2026-03-30T10:26:26.001Z</time></trkpt><trkpt lat="39.93581692179738" lon="8.45720860015771"><ele>10.0</ele><time>2026-03-30T10:26:27.001Z</time></trkpt><trkpt lat="39.93567582231666" lon="8.457092252341699"><ele>11.0</ele><time>2026-03-30T10:26:28.001Z</time></trkpt><trkpt lat="39.935532567955704" lon="8.456972739025069"><ele>12.0</ele><time>2026-03-30T10:26:29.001Z</time></trkpt><trkpt lat="39.935391079941134" lon="8.456852199782357"><ele>13.0</ele><time>2026-03-30T10:26:30.001Z</time></trkpt><trkpt lat="39.93525229483188" lon="8.456728928161931"><ele>14.0</ele><time>2026-03-30T10:26:31.001Z</time></trkpt><trkpt lat="39.935109178449196" lon="8.45660073017321"><ele>14.0</ele><time>2026-03-30T10:26:32.001Z</time></trkpt><trkpt lat="39.93496443370677" lon="8.456484623610685"><ele>14.0</ele><time>2026-03-30T10:26:33.001Z</time></trkpt><trkpt lat="39.93480671185741" lon="8.456408151046762"><ele>14.0</ele><time>2026-03-30T10:26:34.001Z</time></trkpt><trkpt lat="39.93464577944175" lon="8.456381743236326"><ele>14.0</ele><time>2026-03-30T10:26:35.001Z</time></trkpt><trkpt lat="39.93448347776515" lon="8.456395929652132"><ele>14.0</ele><time>2026-03-30T10:26:36.001Z</time></trkpt><trkpt lat="39.93432765561537" lon="8.456453996190648"><ele>14.0</ele><time>2026-03-30T10:26:37.001Z</time></trkpt><trkpt lat="39.93417575892704" lon="8.456545316898225"><ele>14.333333333333334</ele><time>2026-03-30T10:26:38.001Z</time></trkpt><trkpt lat="39.93402339304927" lon="8.456647748596172"><ele>14.666666666666668</ele><time>2026-03-30T10:26:39.001Z</time></trkpt><trkpt lat="39.9338591248847" lon="8.456719929011388"><ele>15.0</ele><time>2026-03-30T10:26:40.001Z</time></trkpt><trkpt lat="39.933701015995226" lon="8.456826323496907"><ele>15.0</ele><time>2026-03-30T10:26:41.001Z</time></trkpt><trkpt lat="39.933526381176556" lon="8.45689920895031"><ele>15.0</ele><time>2026-03-30T10:26:42.001Z</time></trkpt><trkpt lat="39.93335004663106" lon="8.456962314784732"><ele>15.0</ele><time>2026-03-30T10:26:43.001Z</time></trkpt><trkpt lat="39.93316942012959" lon="8.457020237314572"><ele>15.0</ele><time>2026-03-30T10:26:44.001Z</time></trkpt><trkpt lat="39.932990538442404" lon="8.457082906080963"><ele>15.0</ele><time>2026-03-30T10:26:45.001Z</time></trkpt><trkpt lat="39.93280963218679" lon="8.457149355162104"><ele>15.0</ele><time>2026-03-30T10:26:46.001Z</time></trkpt><trkpt lat="39.932626898431465" lon="8.457212923721642"><ele>13.333333333333334</ele><time>2026-03-30T10:26:47.001Z</time></trkpt><trkpt lat="39.93244366469846" lon="8.457272182665012"><ele>11.666666666666668</ele><time>2026-03-30T10:26:48.001Z</time></trkpt><trkpt lat="39.932258967694594" lon="8.457334898634716"><ele>10.0</ele><time>2026-03-30T10:26:49.001Z</time></trkpt><trkpt lat="39.9320833394323" lon="8.457395378284959"><ele>10.0</ele><time>2026-03-30T10:26:50.001Z</time></trkpt><trkpt lat="39.93191481474245" lon="8.457435110667198"><ele>10.0</ele><time>2026-03-30T10:26:51.001Z</time></trkpt><trkpt lat="39.93174710984043" lon="8.457447091790774"><ele>10.0</ele><time>2026-03-30T10:26:52.001Z</time></trkpt><trkpt lat="39.931583503323324" lon="8.457427962997025"><ele>9.666666666666668</ele><time>2026-03-30T10:26:53.001Z</time></trkpt><trkpt lat="39.93141915279549" lon="8.457388872021214"><ele>9.333333333333334</ele><time>2026-03-30T10:26:54.001Z</time></trkpt><trkpt lat="39.93125987599448" lon="8.457344265314946"><ele>9.0</ele><time>2026-03-30T10:26:55.001Z</time></trkpt><trkpt lat="39.93110348423493" lon="8.457286298355717"><ele>9.0</ele><time>2026-03-30T10:26:56.001Z</time></trkpt><trkpt lat="39.93095159912855" lon="8.457208263953236"><ele>9.0</ele><time>2026-03-30T10:26:57.001Z</time></trkpt><trkpt lat="39.93080553255365" lon="8.457110919543906"><ele>9.0</ele><time>2026-03-30T10:26:58.002Z</time></trkpt><trkpt lat="39.93067385680344" lon="8.456986355390605"><ele>11.666666666666668</ele><time>2026-03-30T10:26:59.002Z</time></trkpt><trkpt lat="39.93054231352137" lon="8.456858532065043"><ele>14.333333333333334</ele><time>2026-03-30T10:27:00.002Z</time></trkpt><trkpt lat="39.93040482475857" lon="8.456740916645764"><ele>17.0</ele><time>2026-03-30T10:27:01.002Z</time></trkpt><trkpt lat="39.93026269802367" lon="8.456624279620298"><ele>17.0</ele><time>2026-03-30T10:27:02.002Z</time></trkpt><trkpt lat="39.930120861739184" lon="8.45650456097283"><ele>17.0</ele><time>2026-03-30T10:27:03.002Z</time></trkpt><trkpt lat="39.929979957619985" lon="8.45638274138686"><ele>17.0</ele><time>2026-03-30T10:27:04.002Z</time></trkpt><trkpt lat="39.92983728071067" lon="8.45625913021258"><ele>17.666666666666668</ele><time>2026-03-30T10:27:05.002Z</time></trkpt><trkpt lat="39.92969217003747" lon="8.456133685414498"><ele>18.333333333333332</ele><time>2026-03-30T10:27:06.002Z</time></trkpt><trkpt lat="39.92954963875588" lon="8.456001584894722"><ele>19.0</ele><time>2026-03-30T10:27:07.002Z</time></trkpt><trkpt lat="39.929402975580636" lon="8.455877551866049"><ele>19.0</ele><time>2026-03-30T10:27:08.002Z</time></trkpt><trkpt lat="39.92925416562614" lon="8.455759746698114"><ele>19.0</ele><time>2026-03-30T10:27:09.002Z</time></trkpt><trkpt lat="39.92910271034658" lon="8.455637909964032"><ele>19.0</ele><time>2026-03-30T10:27:10.002Z</time></trkpt><trkpt lat="39.9289471679614" lon="8.455525226012437"><ele>19.0</ele><time>2026-03-30T10:27:11.002Z</time></trkpt><trkpt lat="39.928778403101504" lon="8.45543260905359"><ele>19.0</ele><time>2026-03-30T10:27:12.002Z</time></trkpt><trkpt lat="39.92860714758293" lon="8.455363445308398"><ele>19.0</ele><time>2026-03-30T10:27:13.002Z</time></trkpt><trkpt lat="39.928429249808204" lon="8.455302035311243"><ele>18.666666666666664</ele><time>2026-03-30T10:27:14.002Z</time></trkpt><trkpt lat="39.928252368622246" lon="8.455219236819906"><ele>18.333333333333332</ele><time>2026-03-30T10:27:15.002Z</time></trkpt><trkpt lat="39.92806982517853" lon="8.455152668962203"><ele>18.0</ele><time>2026-03-30T10:27:16.002Z</time></trkpt><trkpt lat="39.92788417993837" lon="8.455097040594167"><ele>18.0</ele><time>2026-03-30T10:27:17.002Z</time></trkpt><trkpt lat="39.92770263890017" lon="8.45502404319747"><ele>18.0</ele><time>2026-03-30T10:27:18.002Z</time></trkpt><trkpt lat="39.92751673996167" lon="8.45495319602916"><ele>18.0</ele><time>2026-03-30T10:27:19.002Z</time></trkpt><trkpt lat="39.927328324190746" lon="8.454889015435395"><ele>17.333333333333332</ele><time>2026-03-30T10:27:20.002Z</time></trkpt><trkpt lat="39.927145373478304" lon="8.454797118208766"><ele>16.666666666666664</ele><time>2026-03-30T10:27:21.002Z</time></trkpt><trkpt lat="39.926959018542036" lon="8.454728177399696"><ele>16.0</ele><time>2026-03-30T10:27:22.002Z</time></trkpt><trkpt lat="39.92677039114955" lon="8.454668056961454"><ele>15.333333333333332</ele><time>2026-03-30T10:27:23.002Z</time></trkpt><trkpt lat="39.926575066959344" lon="8.454623106776822"><ele>14.666666666666668</ele><time>2026-03-30T10:27:24.002Z</time></trkpt><trkpt lat="39.92637816460658" lon="8.45461469952451"><ele>14.0</ele><time>2026-03-30T10:27:25.002Z</time></trkpt><trkpt lat="39.92617977453663" lon="8.454596747621773"><ele>14.0</ele><time>2026-03-30T10:27:26.002Z</time></trkpt><trkpt lat="39.925986683992285" lon="8.454581241805615"><ele>14.0</ele><time>2026-03-30T10:27:27.002Z</time></trkpt><trkpt lat="39.92579921933216" lon="8.45453770757513"><ele>14.0</ele><time>2026-03-30T10:27:28.002Z</time></trkpt><trkpt lat="39.92561627803384" lon="8.454523189483728"><ele>13.333333333333334</ele><time>2026-03-30T10:27:29.002Z</time></trkpt><trkpt lat="39.925445450627414" lon="8.4544537606479"><ele>12.666666666666668</ele><time>2026-03-30T10:27:30.002Z</time></trkpt><trkpt lat="39.92529370279572" lon="8.454330823605224"><ele>12.0</ele><time>2026-03-30T10:27:31.002Z</time></trkpt><trkpt lat="39.92514371525519" lon="8.454201065075768"><ele>11.333333333333334</ele><time>2026-03-30T10:27:32.002Z</time></trkpt><trkpt lat="39.92498947043467" lon="8.454068727718697"><ele>10.666666666666668</ele><time>2026-03-30T10:27:33.002Z</time></trkpt><trkpt lat="39.92482838851173" lon="8.45395087356203"><ele>10.0</ele><time>2026-03-30T10:27:34.002Z</time></trkpt><trkpt lat="39.924673355025476" lon="8.45381740059923"><ele>10.333333333333334</ele><time>2026-03-30T10:27:35.002Z</time></trkpt><trkpt lat="39.92451656085393" lon="8.453689490354474"><ele>10.666666666666666</ele><time>2026-03-30T10:27:36.002Z</time></trkpt><trkpt lat="39.92435740415522" lon="8.453563443894339"><ele>11.0</ele><time>2026-03-30T10:27:37.002Z</time></trkpt><trkpt lat="39.92419527728321" lon="8.453438521496004"><ele>11.0</ele><time>2026-03-30T10:27:38.002Z</time></trkpt><trkpt lat="39.92402816782511" lon="8.453320480661205"><ele>11.0</ele><time>2026-03-30T10:27:39.002Z</time></trkpt><trkpt lat="39.92386544693717" lon="8.453184868422328"><ele>11.0</ele><time>2026-03-30T10:27:40.002Z</time></trkpt><trkpt lat="39.923696068007494" lon="8.453063724925835"><ele>11.333333333333332</ele><time>2026-03-30T10:27:41.002Z</time></trkpt><trkpt lat="39.92352303546762" lon="8.452939968236464"><ele>11.666666666666666</ele><time>2026-03-30T10:27:42.002Z</time></trkpt><trkpt lat="39.92334465202293" lon="8.45283219136104"><ele>12.0</ele><time>2026-03-30T10:27:43.002Z</time></trkpt><trkpt lat="39.92317053194138" lon="8.452706991323629"><ele>10.666666666666666</ele><time>2026-03-30T10:27:44.003Z</time></trkpt><trkpt lat="39.92300478556612" lon="8.45256038183906"><ele>9.333333333333332</ele><time>2026-03-30T10:27:45.003Z</time></trkpt><trkpt lat="39.92283723057735" lon="8.452418453973054"><ele>8.0</ele><time>2026-03-30T10:27:46.003Z</time></trkpt><trkpt lat="39.92267083230158" lon="8.452274053133301"><ele>8.0</ele><time>2026-03-30T10:27:47.003Z</time></trkpt><trkpt lat="39.92250442457081" lon="8.452131973528942"><ele>8.0</ele><time>2026-03-30T10:27:48.003Z</time></trkpt><trkpt lat="39.92233797864177" lon="8.451989861380355"><ele>8.0</ele><time>2026-03-30T10:27:49.003Z</time></trkpt><trkpt lat="39.92216323955377" lon="8.451863359319674"><ele>8.0</ele><time>2026-03-30T10:27:50.003Z</time></trkpt><trkpt lat="39.92199987639502" lon="8.45171451507566"><ele>8.0</ele><time>2026-03-30T10:27:51.003Z</time></trkpt><trkpt lat="39.92183525690487" lon="8.451568632734055"><ele>8.0</ele><time>2026-03-30T10:27:52.003Z</time></trkpt><trkpt lat="39.92166964641599" lon="8.451426422421623"><ele>8.0</ele><time>2026-03-30T10:27:53.003Z</time></trkpt><trkpt lat="39.921506453040074" lon="8.451280146958618"><ele>8.0</ele><time>2026-03-30T10:27:54.003Z</time></trkpt><trkpt lat="39.92134912439195" lon="8.451135318298725"><ele>8.0</ele><time>2026-03-30T10:27:55.003Z</time></trkpt><trkpt lat="39.92119864225277" lon="8.451002665418414"><ele>8.0</ele><time>2026-03-30T10:27:56.003Z</time></trkpt><trkpt lat="39.92105428972705" lon="8.450895601290739"><ele>8.0</ele><time>2026-03-30T10:27:57.003Z</time></trkpt><trkpt lat="39.92091278633392" lon="8.450824895651326"><ele>8.0</ele><time>2026-03-30T10:27:58.003Z</time></trkpt><trkpt lat="39.920766278286216" lon="8.450803915860966"><ele>7.75</ele><time>2026-03-30T10:27:59.003Z</time></trkpt><trkpt lat="39.92062745751817" lon="8.450839690338803"><ele>7.5</ele><time>2026-03-30T10:28:00.003Z</time></trkpt><trkpt lat="39.9204990376475" lon="8.450929524458013"><ele>7.25</ele><time>2026-03-30T10:28:01.003Z</time></trkpt><trkpt lat="39.920367874035456" lon="8.451020645971258"><ele>7.0</ele><time>2026-03-30T10:28:02.003Z</time></trkpt><trkpt lat="39.92023910964698" lon="8.45113638949456"><ele>7.0</ele><time>2026-03-30T10:28:03.003Z</time></trkpt><trkpt lat="39.920113807911285" lon="8.451264191877875"><ele>7.0</ele><time>2026-03-30T10:28:04.003Z</time></trkpt><trkpt lat="39.91998182210888" lon="8.451352943946691"><ele>7.0</ele><time>2026-03-30T10:28:05.003Z</time></trkpt><trkpt lat="39.919838125537666" lon="8.451409489271647"><ele>6.333333333333334</ele><time>2026-03-30T10:28:06.003Z</time></trkpt><trkpt lat="39.91968060581437" lon="8.451418158487854"><ele>5.666666666666667</ele><time>2026-03-30T10:28:07.003Z</time></trkpt><trkpt lat="39.91952676150643" lon="8.451362697299867"><ele>5.0</ele><time>2026-03-30T10:28:08.001Z</time></trkpt><trkpt lat="39.91936591104664" lon="8.451327240329341"><ele>4.666666666666667</ele><time>2026-03-30T10:28:09.001Z</time></trkpt><trkpt lat="39.9192002599882" lon="8.451302874999268"><ele>4.333333333333333</ele><time>2026-03-30T10:28:10.001Z</time></trkpt><trkpt lat="39.919030103652084" lon="8.451264311968963"><ele>4.0</ele><time>2026-03-30T10:28:11.001Z</time></trkpt><trkpt lat="39.91885406518947" lon="8.451231300592754"><ele>3.6666666666666665</ele><time>2026-03-30T10:28:12.001Z</time></trkpt><trkpt lat="39.91867435205272" lon="8.45119229843951"><ele>3.333333333333333</ele><time>2026-03-30T10:28:13.001Z</time></trkpt><trkpt lat="39.918492196011286" lon="8.45114951304396"><ele>3.0</ele><time>2026-03-30T10:28:14.001Z</time></trkpt><trkpt lat="39.91831039954234" lon="8.45111214110751"><ele>2.6666666666666665</ele><time>2026-03-30T10:28:15.001Z</time></trkpt><trkpt lat="39.91813083990881" lon="8.45110088613283"><ele>2.333333333333333</ele><time>2026-03-30T10:28:16.001Z</time></trkpt><trkpt lat="39.91795374824245" lon="8.451131537491786"><ele>2.0</ele><time>2026-03-30T10:28:17.001Z</time></trkpt><trkpt lat="39.91777265076271" lon="8.451177019541447"><ele>2.333333333333333</ele><time>2026-03-30T10:28:18.001Z</time></trkpt><trkpt lat="39.917607528665044" lon="8.451302666735456"><ele>2.6666666666666665</ele><time>2026-03-30T10:28:19.001Z</time></trkpt><trkpt lat="39.91744352025485" lon="8.4514197643189"><ele>3.0</ele><time>2026-03-30T10:28:20.001Z</time></trkpt><trkpt lat="39.917277582762715" lon="8.451550357694968"><ele>3.333333333333333</ele><time>2026-03-30T10:28:21.001Z</time></trkpt><trkpt lat="39.91711172148943" lon="8.451676508808314"><ele>3.6666666666666665</ele><time>2026-03-30T10:28:22.001Z</time></trkpt><trkpt lat="39.91692994112466" lon="8.451805141912946"><ele>4.0</ele><time>2026-03-30T10:28:23.001Z</time></trkpt><trkpt lat="39.916751737259304" lon="8.451938090180878"><ele>4.0</ele><time>2026-03-30T10:28:24.001Z</time></trkpt><trkpt lat="39.916585385667084" lon="8.452065176301756"><ele>4.0</ele><time>2026-03-30T10:28:25.001Z</time></trkpt><trkpt lat="39.91641860460269" lon="8.452164144437189"><ele>4.0</ele><time>2026-03-30T10:28:26.001Z</time></trkpt><trkpt lat="39.916285799160995" lon="8.452281368984892"><ele>4.0</ele><time>2026-03-30T10:28:27.001Z</time></trkpt><trkpt lat="39.91616584376103" lon="8.452367700189248"><ele>4.0</ele><time>2026-03-30T10:28:28.001Z</time></trkpt><trkpt lat="39.916059278742914" lon="8.452435568995108"><ele>4.0</ele><time>2026-03-30T10:28:29.001Z</time></trkpt><trkpt lat="39.9159661822606" lon="8.45245718595212"><ele>4.0</ele><time>2026-03-30T10:28:30.001Z</time></trkpt><trkpt lat="39.915885298362504" lon="8.452416147950261"><ele>4.0</ele><time>2026-03-30T10:28:31.001Z</time></trkpt><trkpt lat="39.9158386166541" lon="8.45232711006327"><ele>4.0</ele><time>2026-03-30T10:28:32.001Z</time></trkpt><trkpt lat="39.915832226504165" lon="8.452217884335617"><ele>4.0</ele><time>2026-03-30T10:28:33.001Z</time></trkpt><trkpt lat="39.915828578992354" lon="8.45209542891921"><ele>4.0</ele><time>2026-03-30T10:28:34.001Z</time></trkpt><trkpt lat="39.91581886057361" lon="8.451974930881157"><ele>4.0</ele><time>2026-03-30T10:28:35.001Z</time></trkpt><trkpt lat="39.91581978817669" lon="8.451818788836817"><ele>4.0</ele><time>2026-03-30T10:28:36.001Z</time></trkpt><trkpt lat="39.91583093402159" lon="8.451630932601937"><ele>4.0</ele><time>2026-03-30T10:28:37.001Z</time></trkpt><trkpt lat="39.91582729145336" lon="8.451437610974288"><ele>4.0</ele><time>2026-03-30T10:28:38.001Z</time></trkpt><trkpt lat="39.91581868021154" lon="8.451223465549555"><ele>4.0</ele><time>2026-03-30T10:28:39.001Z</time></trkpt><trkpt lat="39.91578867248646" lon="8.451017122649885"><ele>4.333333333333333</ele><time>2026-03-30T10:28:40.001Z</time></trkpt><trkpt lat="39.91573724829594" lon="8.450804754631749"><ele>4.666666666666667</ele><time>2026-03-30T10:28:41.001Z</time></trkpt><trkpt lat="39.915660268211155" lon="8.450604211513573"><ele>5.0</ele><time>2026-03-30T10:28:42.001Z</time></trkpt><trkpt lat="39.91557119707238" lon="8.45041305879434"><ele>5.0</ele><time>2026-03-30T10:28:43.001Z</time></trkpt><trkpt lat="39.91547153610476" lon="8.450222406841336"><ele>5.0</ele><time>2026-03-30T10:28:44.001Z</time></trkpt><trkpt lat="39.91537266446603" lon="8.450028780042292"><ele>5.0</ele><time>2026-03-30T10:28:45.001Z</time></trkpt><trkpt lat="39.91527431449868" lon="8.449826826912483"><ele>5.0</ele><time>2026-03-30T10:28:46.001Z</time></trkpt><trkpt lat="39.915179045442905" lon="8.449623210611405"><ele>5.0</ele><time>2026-03-30T10:28:47.001Z</time></trkpt><trkpt lat="39.91508076308915" lon="8.44941348516061"><ele>5.0</ele><time>2026-03-30T10:28:48.001Z</time></trkpt><trkpt lat="39.91497963919552" lon="8.449200134201837"><ele>5.0</ele><time>2026-03-30T10:28:49.001Z</time></trkpt><trkpt lat="39.91487517676332" lon="8.448986106750091"><ele>5.0</ele><time>2026-03-30T10:28:50.001Z</time></trkpt><trkpt lat="39.91477802912542" lon="8.448778682753767"><ele>5.0</ele><time>2026-03-30T10:28:51.001Z</time></trkpt><trkpt lat="39.91468642245432" lon="8.44858241308407"><ele>4.666666666666667</ele><time>2026-03-30T10:28:52.001Z</time></trkpt><trkpt lat="39.91459743770342" lon="8.44839126447944"><ele>4.333333333333333</ele><time>2026-03-30T10:28:53.001Z</time></trkpt><trkpt lat="39.914510704984224" lon="8.448204856612994"><ele>4.0</ele><time>2026-03-30T10:28:54.001Z</time></trkpt><trkpt lat="39.914420039053844" lon="8.44801531868686"><ele>3.6666666666666665</ele><time>2026-03-30T10:28:55.001Z</time></trkpt><trkpt lat="39.914328695051125" lon="8.447818526935105"><ele>3.333333333333333</ele><time>2026-03-30T10:28:56.001Z</time></trkpt><trkpt lat="39.914236021674405" lon="8.447621786273112"><ele>3.0</ele><time>2026-03-30T10:28:57.001Z</time></trkpt><trkpt lat="39.91414031763475" lon="8.447423151814398"><ele>3.0</ele><time>2026-03-30T10:28:58.001Z</time></trkpt><trkpt lat="39.91405029146368" lon="8.44721357841992"><ele>3.0</ele><time>2026-03-30T10:28:59.001Z</time></trkpt><trkpt lat="39.91395938669113" lon="8.44700308811573"><ele>3.0</ele><time>2026-03-30T10:29:00.001Z</time></trkpt><trkpt lat="39.91386188550912" lon="8.446796205057284"><ele>3.0</ele><time>2026-03-30T10:29:01.001Z</time></trkpt><trkpt lat="39.91376137808602" lon="8.446587821960879"><ele>3.0</ele><time>2026-03-30T10:29:02.001Z</time></trkpt><trkpt lat="39.913661118361276" lon="8.446375319295251"><ele>3.0</ele><time>2026-03-30T10:29:03.001Z</time></trkpt><trkpt lat="39.913559901418886" lon="8.446162025322279"><ele>2.6666666666666665</ele><time>2026-03-30T10:29:04.001Z</time></trkpt><trkpt lat="39.91345877330009" lon="8.445945144361845"><ele>2.333333333333333</ele><time>2026-03-30T10:29:05.001Z</time></trkpt><trkpt lat="39.91335678649733" lon="8.445727440196412"><ele>2.0</ele><time>2026-03-30T10:29:06.001Z</time></trkpt><trkpt lat="39.91325188179286" lon="8.445512157613182"><ele>2.333333333333333</ele><time>2026-03-30T10:29:07.001Z</time></trkpt><trkpt lat="39.91315338258725" lon="8.44529947932821"><ele>2.6666666666666665</ele><time>2026-03-30T10:29:08.001Z</time></trkpt><trkpt lat="39.91305491144742" lon="8.445082126198077"><ele>3.0</ele><time>2026-03-30T10:29:09.001Z</time></trkpt><trkpt lat="39.912955448292124" lon="8.444863580802838"><ele>3.0</ele><time>2026-03-30T10:29:10.001Z</time></trkpt><trkpt lat="39.912855143906995" lon="8.44464784396205"><ele>3.0</ele><time>2026-03-30T10:29:11.001Z</time></trkpt><trkpt lat="39.912748659811975" lon="8.444432707002075"><ele>3.0</ele><time>2026-03-30T10:29:12.001Z</time></trkpt><trkpt lat="39.912644421646085" lon="8.444216917696968"><ele>3.0</ele><time>2026-03-30T10:29:13.001Z</time></trkpt><trkpt lat="39.91254516017781" lon="8.44400535489567"><ele>3.0</ele><time>2026-03-30T10:29:14.001Z</time></trkpt><trkpt lat="39.91245124905841" lon="8.443803288299305"><ele>3.0</ele><time>2026-03-30T10:29:15.001Z</time></trkpt><trkpt lat="39.91235858578773" lon="8.443608663135889"><ele>3.333333333333333</ele><time>2026-03-30T10:29:16.001Z</time></trkpt><trkpt lat="39.91227101721646" lon="8.443421581892734"><ele>3.6666666666666665</ele><time>2026-03-30T10:29:17.001Z</time></trkpt><trkpt lat="39.912183139848864" lon="8.443234004808433"><ele>4.0</ele><time>2026-03-30T10:29:18.001Z</time></trkpt><trkpt lat="39.91209327236165" lon="8.443043511626742"><ele>4.0</ele><time>2026-03-30T10:29:19.002Z</time></trkpt><trkpt lat="39.91200410477881" lon="8.442851062359845"><ele>4.0</ele><time>2026-03-30T10:29:20.002Z</time></trkpt><trkpt lat="39.91191650749024" lon="8.442658430062954"><ele>4.0</ele><time>2026-03-30T10:29:21.002Z</time></trkpt><trkpt lat="39.91183394447392" lon="8.442474627657466"><ele>4.0</ele><time>2026-03-30T10:29:22.002Z</time></trkpt><trkpt lat="39.91174971592766" lon="8.442304777817107"><ele>4.0</ele><time>2026-03-30T10:29:23.002Z</time></trkpt><trkpt lat="39.91167457547152" lon="8.442146702446877"><ele>4.0</ele><time>2026-03-30T10:29:24.002Z</time></trkpt><trkpt lat="39.9115993453611" lon="8.441980631592282"><ele>4.0</ele><time>2026-03-30T10:29:25.002Z</time></trkpt><trkpt lat="39.911521722693486" lon="8.441812327359877"><ele>4.0</ele><time>2026-03-30T10:29:26.002Z</time></trkpt><trkpt lat="39.911446060177596" lon="8.44164046692029"><ele>4.0</ele><time>2026-03-30T10:29:27.002Z</time></trkpt><trkpt lat="39.91136377853214" lon="8.441467170057148"><ele>4.0</ele><time>2026-03-30T10:29:28.002Z</time></trkpt><trkpt lat="39.91128434001197" lon="8.441290293551642"><ele>4.333333333333333</ele><time>2026-03-30T10:29:29.002Z</time></trkpt><trkpt lat="39.91120545993984" lon="8.441111187077318"><ele>4.666666666666667</ele><time>2026-03-30T10:29:30.002Z</time></trkpt><trkpt lat="39.911126102274345" lon="8.440929175290238"><ele>5.0</ele><time>2026-03-30T10:29:31.002Z</time></trkpt><trkpt lat="39.911039022577846" lon="8.440752117202093"><ele>5.0</ele><time>2026-03-30T10:29:32.002Z</time></trkpt><trkpt lat="39.91095003418146" lon="8.440575128029415"><ele>5.0</ele><time>2026-03-30T10:29:33.002Z</time></trkpt><trkpt lat="39.91086383968496" lon="8.440399014730128"><ele>5.0</ele><time>2026-03-30T10:29:34.002Z</time></trkpt><trkpt lat="39.91077244401432" lon="8.44022939375184"><ele>5.0</ele><time>2026-03-30T10:29:35.002Z</time></trkpt><trkpt lat="39.91070191469662" lon="8.440038853475086"><ele>5.0</ele><time>2026-03-30T10:29:36.002Z</time></trkpt><trkpt lat="39.91061260433192" lon="8.439871534122485"><ele>5.0</ele><time>2026-03-30T10:29:37.002Z</time></trkpt><trkpt lat="39.91053490414273" lon="8.43969773821996"><ele>5.0</ele><time>2026-03-30T10:29:38.002Z</time></trkpt><trkpt lat="39.9104370622438" lon="8.43954022509836"><ele>5.0</ele><time>2026-03-30T10:29:39.002Z</time></trkpt><trkpt lat="39.910314992794824" lon="8.439402436499643"><ele>5.0</ele><time>2026-03-30T10:29:40.002Z</time></trkpt><trkpt lat="39.9101849409573" lon="8.439280738951037"><ele>5.0</ele><time>2026-03-30T10:29:41.002Z</time></trkpt><trkpt lat="39.910063590827605" lon="8.439149008218903"><ele>5.0</ele><time>2026-03-30T10:29:42.002Z</time></trkpt><trkpt lat="39.909910632945866" lon="8.43907156251657"><ele>5.0</ele><time>2026-03-30T10:29:43.002Z</time></trkpt><trkpt lat="39.909745342999365" lon="8.439024621118556"><ele>5.0</ele><time>2026-03-30T10:29:44.002Z</time></trkpt><trkpt lat="39.90957946149701" lon="8.438976761534574"><ele>5.0</ele><time>2026-03-30T10:29:45.002Z</time></trkpt><trkpt lat="39.90941176757664" lon="8.438922580845526"><ele>5.0</ele><time>2026-03-30T10:29:46.002Z</time></trkpt><trkpt lat="39.9092434379747" lon="8.438860551567602"><ele>5.666666666666667</ele><time>2026-03-30T10:29:47.002Z</time></trkpt><trkpt lat="39.90907805337822" lon="8.438797727947337"><ele>6.333333333333334</ele><time>2026-03-30T10:29:48.002Z</time></trkpt><trkpt lat="39.90890539741787" lon="8.438737083687508"><ele>7.0</ele><time>2026-03-30T10:29:49.002Z</time></trkpt><trkpt lat="39.90873212588133" lon="8.438667767479217"><ele>7.0</ele><time>2026-03-30T10:29:50.002Z</time></trkpt><trkpt lat="39.90856369594501" lon="8.438606946758991"><ele>7.0</ele><time>2026-03-30T10:29:51.002Z</time></trkpt><trkpt lat="39.90839679880158" lon="8.438544108262674"><ele>7.0</ele><time>2026-03-30T10:29:52.002Z</time></trkpt><trkpt lat="39.90822953998114" lon="8.438481040866725"><ele>6.0</ele><time>2026-03-30T10:29:53.002Z</time></trkpt><trkpt lat="39.90805963079732" lon="8.438416459940726"><ele>5.0</ele><time>2026-03-30T10:29:54.002Z</time></trkpt><trkpt lat="39.90789692968864" lon="8.438350390500291"><ele>4.0</ele><time>2026-03-30T10:29:55.002Z</time></trkpt><trkpt lat="39.907737743714335" lon="8.438295360199028"><ele>4.0</ele><time>2026-03-30T10:29:56.002Z</time></trkpt><trkpt lat="39.90758759508353" lon="8.438238621079712"><ele>4.0</ele><time>2026-03-30T10:29:57.002Z</time></trkpt><trkpt lat="39.907439757997764" lon="8.438182691962488"><ele>4.0</ele><time>2026-03-30T10:29:58.002Z</time></trkpt><trkpt lat="39.90728977965377" lon="8.438120907143286"><ele>4.666666666666666</ele><time>2026-03-30T10:29:59.002Z</time></trkpt><trkpt lat="39.907143061917395" lon="8.438059579700445"><ele>5.333333333333333</ele><time>2026-03-30T10:30:00.002Z</time></trkpt><trkpt lat="39.90699314451202" lon="8.438001721929881"><ele>6.0</ele><time>2026-03-30T10:30:01.002Z</time></trkpt><trkpt lat="39.90684007346983" lon="8.437939335370904"><ele>6.666666666666666</ele><time>2026-03-30T10:30:02.002Z</time></trkpt><trkpt lat="39.90668764867925" lon="8.437877709689444"><ele>7.333333333333333</ele><time>2026-03-30T10:30:03.002Z</time></trkpt><trkpt lat="39.90652962187843" lon="8.43781919888566"><ele>8.0</ele><time>2026-03-30T10:30:04.002Z</time></trkpt><trkpt lat="39.906372816456056" lon="8.437751118945009"><ele>8.0</ele><time>2026-03-30T10:30:05.002Z</time></trkpt><trkpt lat="39.906215731619795" lon="8.437678470724869"><ele>8.0</ele><time>2026-03-30T10:30:06.002Z</time></trkpt><trkpt lat="39.90605352316023" lon="8.437605745568066"><ele>8.0</ele><time>2026-03-30T10:30:07.003Z</time></trkpt><trkpt lat="39.90588806388502" lon="8.437537259385673"><ele>8.0</ele><time>2026-03-30T10:30:08.003Z</time></trkpt><trkpt lat="39.90571410615109" lon="8.437478488214516"><ele>8.0</ele><time>2026-03-30T10:30:09.003Z</time></trkpt><trkpt lat="39.90553503718142" lon="8.437419384042103"><ele>8.0</ele><time>2026-03-30T10:30:10.003Z</time></trkpt><trkpt lat="39.90535019920588" lon="8.437355804519711"><ele>8.0</ele><time>2026-03-30T10:30:11.003Z</time></trkpt><trkpt lat="39.905166096996126" lon="8.437275335258128"><ele>8.0</ele><time>2026-03-30T10:30:12.003Z</time></trkpt><trkpt lat="39.90497240847007" lon="8.437191920884981"><ele>8.0</ele><time>2026-03-30T10:30:13.003Z</time></trkpt><trkpt lat="39.904777587239266" lon="8.437116075576814"><ele>8.0</ele><time>2026-03-30T10:30:14.001Z</time></trkpt><trkpt lat="39.904575575383404" lon="8.437038284813541"><ele>8.0</ele><time>2026-03-30T10:30:15.001Z</time></trkpt><trkpt lat="39.90436298593652" lon="8.43695667350545"><ele>8.0</ele><time>2026-03-30T10:30:16.001Z</time></trkpt><trkpt lat="39.90414815263221" lon="8.436871964354363"><ele>8.0</ele><time>2026-03-30T10:30:17.001Z</time></trkpt><trkpt lat="39.90394564427005" lon="8.436790178758589"><ele>8.0</ele><time>2026-03-30T10:30:18.001Z</time></trkpt><trkpt lat="39.90374334014159" lon="8.436711253654277"><ele>8.0</ele><time>2026-03-30T10:30:19.001Z</time></trkpt><trkpt lat="39.903546618208196" lon="8.436631398187902"><ele>8.0</ele><time>2026-03-30T10:30:20.001Z</time></trkpt><trkpt lat="39.90334171188356" lon="8.436551862904235"><ele>8.0</ele><time>2026-03-30T10:30:21.001Z</time></trkpt><trkpt lat="39.90314782405586" lon="8.436475824793757"><ele>8.0</ele><time>2026-03-30T10:30:22.001Z</time></trkpt><trkpt lat="39.90295166084344" lon="8.436397462637034"><ele>8.0</ele><time>2026-03-30T10:30:23.001Z</time></trkpt><trkpt lat="39.90275523664898" lon="8.436311876743588"><ele>8.0</ele><time>2026-03-30T10:30:24.001Z</time></trkpt><trkpt lat="39.902557066028976" lon="8.436228610875814"><ele>8.0</ele><time>2026-03-30T10:30:25.001Z</time></trkpt><trkpt lat="39.9023569318443" lon="8.436157513036955"><ele>8.333333333333332</ele><time>2026-03-30T10:30:26.001Z</time></trkpt><trkpt lat="39.90215468727433" lon="8.43608686824324"><ele>8.666666666666666</ele><time>2026-03-30T10:30:27.001Z</time></trkpt><trkpt lat="39.90195117513355" lon="8.43601434848287"><ele>9.0</ele><time>2026-03-30T10:30:28.001Z</time></trkpt><trkpt lat="39.90174211604046" lon="8.435927038403449"><ele>9.0</ele><time>2026-03-30T10:30:29.001Z</time></trkpt><trkpt lat="39.90151883725865" lon="8.435826297198117"><ele>9.0</ele><time>2026-03-30T10:30:30.001Z</time></trkpt><trkpt lat="39.90127797798928" lon="8.435728380243546"><ele>9.0</ele><time>2026-03-30T10:30:31.001Z</time></trkpt><trkpt lat="39.901008714324504" lon="8.435647448344595"><ele>9.0</ele><time>2026-03-30T10:30:32.001Z</time></trkpt><trkpt lat="39.90078996442059" lon="8.43554015801774"><ele>11.0</ele><time>2026-03-30T10:30:33.001Z</time></trkpt><trkpt lat="39.90057479465577" lon="8.435464667864197"><ele>13.0</ele><time>2026-03-30T10:30:34.001Z</time></trkpt><trkpt lat="39.900353101607315" lon="8.435365562142758"><ele>13.0</ele><time>2026-03-30T10:30:35.001Z</time></trkpt><trkpt lat="39.900132566646874" lon="8.435273994340907"><ele>13.0</ele><time>2026-03-30T10:30:36.001Z</time></trkpt><trkpt lat="39.89990852909212" lon="8.435191851848954"><ele>12.5</ele><time>2026-03-30T10:30:37.001Z</time></trkpt><trkpt lat="39.899688856861175" lon="8.435118501564853"><ele>12.0</ele><time>2026-03-30T10:30:38.001Z</time></trkpt><trkpt lat="39.89947009041436" lon="8.435031920850857"><ele>12.0</ele><time>2026-03-30T10:30:39.001Z</time></trkpt><trkpt lat="39.89924786644796" lon="8.43493673010236"><ele>12.0</ele><time>2026-03-30T10:30:40.001Z</time></trkpt><trkpt lat="39.89903218904187" lon="8.434843654476914"><ele>12.0</ele><time>2026-03-30T10:30:41.001Z</time></trkpt><trkpt lat="39.89881577921658" lon="8.434763188132232"><ele>12.0</ele><time>2026-03-30T10:30:42.001Z</time></trkpt><trkpt lat="39.8985966774304" lon="8.43468068229864"><ele>14.5</ele><time>2026-03-30T10:30:43.001Z</time></trkpt><trkpt lat="39.89837911480001" lon="8.43459046681143"><ele>17.0</ele><time>2026-03-30T10:30:44.001Z</time></trkpt><trkpt lat="39.89815638402598" lon="8.43453437670241"><ele>17.0</ele><time>2026-03-30T10:30:45.001Z</time></trkpt><trkpt lat="39.89791827174537" lon="8.434533275851894"><ele>17.0</ele><time>2026-03-30T10:30:46.001Z</time></trkpt><trkpt lat="39.897684390698714" lon="8.434568672752834"><ele>16.0</ele><time>2026-03-30T10:30:47.001Z</time></trkpt><trkpt lat="39.8974432608158" lon="8.434582144468482"><ele>15.0</ele><time>2026-03-30T10:30:48.001Z</time></trkpt><trkpt lat="39.8971870443896" lon="8.434599935903078"><ele>15.0</ele><time>2026-03-30T10:30:49.001Z</time></trkpt><trkpt lat="39.89692809698684" lon="8.434634727278569"><ele>15.0</ele><time>2026-03-30T10:30:50.001Z</time></trkpt><trkpt lat="39.896678275216274" lon="8.43464495229689"><ele>12.0</ele><time>2026-03-30T10:30:51.001Z</time></trkpt><trkpt lat="39.896427302921424" lon="8.434659720762763"><ele>9.0</ele><time>2026-03-30T10:30:52.001Z</time></trkpt><trkpt lat="39.896174450336495" lon="8.434674869797519"><ele>9.0</ele><time>2026-03-30T10:30:53.001Z</time></trkpt><trkpt lat="39.89592109994684" lon="8.434691194971615"><ele>9.0</ele><time>2026-03-30T10:30:54.001Z</time></trkpt><trkpt lat="39.89566642022399" lon="8.434708798995537"><ele>9.0</ele><time>2026-03-30T10:30:55.001Z</time></trkpt><trkpt lat="39.89541448238028" lon="8.434724513939127"><ele>9.0</ele><time>2026-03-30T10:30:56.001Z</time></trkpt><trkpt lat="39.8951594553059" lon="8.434743822297975"><ele>9.5</ele><time>2026-03-30T10:30:57.001Z</time></trkpt><trkpt lat="39.89490744190212" lon="8.434759068835678"><ele>10.0</ele><time>2026-03-30T10:30:58.001Z</time></trkpt><trkpt lat="39.89465798884334" lon="8.434767103070401"><ele>10.0</ele><time>2026-03-30T10:30:59.001Z</time></trkpt><trkpt lat="39.89440549093015" lon="8.434779710014043"><ele>10.0</ele><time>2026-03-30T10:31:00.001Z</time></trkpt><trkpt lat="39.89415144398169" lon="8.4347875874002"><ele>9.5</ele><time>2026-03-30T10:31:01.001Z</time></trkpt><trkpt lat="39.893896121456315" lon="8.4348080118454"><ele>9.0</ele><time>2026-03-30T10:31:02.001Z</time></trkpt><trkpt lat="39.89364047191599" lon="8.434826342757153"><ele>9.0</ele><time>2026-03-30T10:31:03.001Z</time></trkpt><trkpt lat="39.8933859673261" lon="8.43485216841183"><ele>9.0</ele><time>2026-03-30T10:31:04.001Z</time></trkpt><trkpt lat="39.8931339103387" lon="8.434869899660438"><ele>9.0</ele><time>2026-03-30T10:31:05.001Z</time></trkpt><trkpt lat="39.892884475546474" lon="8.434880869538391"><ele>9.0</ele><time>2026-03-30T10:31:06.001Z</time></trkpt><trkpt lat="39.89263574632051" lon="8.43489001941944"><ele>9.0</ele><time>2026-03-30T10:31:07.001Z</time></trkpt><trkpt lat="39.89238578583113" lon="8.434899952628072"><ele>9.0</ele><time>2026-03-30T10:31:08.001Z</time></trkpt><trkpt lat="39.8921312627983" lon="8.43491599710195"><ele>9.0</ele><time>2026-03-30T10:31:09.001Z</time></trkpt><trkpt lat="39.89187555768772" lon="8.434935587926098"><ele>9.0</ele><time>2026-03-30T10:31:10.001Z</time></trkpt><trkpt lat="39.891624154209985" lon="8.434956889804358"><ele>8.5</ele><time>2026-03-30T10:31:11.001Z</time></trkpt><trkpt lat="39.8913733465843" lon="8.434977203138127"><ele>8.0</ele><time>2026-03-30T10:31:12.001Z</time></trkpt><trkpt lat="39.89112567979536" lon="8.434991434028493"><ele>8.5</ele><time>2026-03-30T10:31:13.001Z</time></trkpt><trkpt lat="39.8908777969343" lon="8.435006319804613"><ele>9.0</ele><time>2026-03-30T10:31:14.001Z</time></trkpt><trkpt lat="39.89062708240902" lon="8.435017295717772"><ele>9.0</ele><time>2026-03-30T10:31:15.001Z</time></trkpt><trkpt lat="39.89038012210012" lon="8.435026314959272"><ele>9.0</ele><time>2026-03-30T10:31:16.001Z</time></trkpt><trkpt lat="39.890128715695944" lon="8.435055088769433"><ele>8.0</ele><time>2026-03-30T10:31:17.002Z</time></trkpt><trkpt lat="39.88988041215465" lon="8.435103836381892"><ele>7.0</ele><time>2026-03-30T10:31:18.002Z</time></trkpt><trkpt lat="39.889638037276434" lon="8.435180968153858"><ele>7.0</ele><time>2026-03-30T10:31:19.002Z</time></trkpt><trkpt lat="39.88939891835775" lon="8.43527405880007"><ele>7.0</ele><time>2026-03-30T10:31:20.002Z</time></trkpt><trkpt lat="39.8891655736964" lon="8.435387148780329"><ele>7.0</ele><time>2026-03-30T10:31:21.002Z</time></trkpt><trkpt lat="39.88893505397418" lon="8.435515598488895"><ele>7.0</ele><time>2026-03-30T10:31:22.002Z</time></trkpt><trkpt lat="39.88870246129626" lon="8.435644412029436"><ele>7.0</ele><time>2026-03-30T10:31:23.002Z</time></trkpt><trkpt lat="39.888470371763326" lon="8.435765103979548"><ele>7.0</ele><time>2026-03-30T10:31:24.002Z</time></trkpt><trkpt lat="39.88823893959567" lon="8.43587941910098"><ele>5.5</ele><time>2026-03-30T10:31:25.002Z</time></trkpt><trkpt lat="39.888006284029466" lon="8.435999635844917"><ele>4.0</ele><time>2026-03-30T10:31:26.002Z</time></trkpt><trkpt lat="39.887775238453635" lon="8.436123054385302"><ele>3.5</ele><time>2026-03-30T10:31:27.002Z</time></trkpt><trkpt lat="39.887547820959924" lon="8.436246659234792"><ele>3.0</ele><time>2026-03-30T10:31:28.002Z</time></trkpt><trkpt lat="39.88731886990986" lon="8.43636661875737"><ele>2.5</ele><time>2026-03-30T10:31:29.002Z</time></trkpt><trkpt lat="39.887093187454944" lon="8.436482442671702"><ele>2.0</ele><time>2026-03-30T10:31:30.002Z</time></trkpt><trkpt lat="39.88686132617785" lon="8.436601958212249"><ele>2.5</ele><time>2026-03-30T10:31:31.002Z</time></trkpt><trkpt lat="39.886632308261134" lon="8.436721246475186"><ele>3.0</ele><time>2026-03-30T10:31:32.002Z</time></trkpt><trkpt lat="39.88640355068426" lon="8.436836411379684"><ele>3.0</ele><time>2026-03-30T10:31:33.002Z</time></trkpt><trkpt lat="39.8861764493571" lon="8.436951056001178"><ele>3.0</ele><time>2026-03-30T10:31:34.002Z</time></trkpt><trkpt lat="39.885953221070324" lon="8.437067391918653"><ele>2.5</ele><time>2026-03-30T10:31:35.002Z</time></trkpt><trkpt lat="39.885732924375574" lon="8.437187767447847"><ele>2.0</ele><time>2026-03-30T10:31:36.002Z</time></trkpt><trkpt lat="39.8855135555252" lon="8.437305345481764"><ele>2.0</ele><time>2026-03-30T10:31:37.002Z</time></trkpt><trkpt lat="39.88530746918552" lon="8.43741330170031"><ele>2.0</ele><time>2026-03-30T10:31:38.002Z</time></trkpt><trkpt lat="39.8851097924022" lon="8.437521918922886"><ele>2.0</ele><time>2026-03-30T10:31:39.002Z</time></trkpt><trkpt lat="39.88492414786838" lon="8.437619968909177"><ele>2.6666666666666665</ele><time>2026-03-30T10:31:40.002Z</time></trkpt><trkpt lat="39.88474904611085" lon="8.437709335316244"><ele>3.333333333333333</ele><time>2026-03-30T10:31:41.002Z</time></trkpt><trkpt lat="39.884583242981655" lon="8.437793526377003"><ele>4.0</ele><time>2026-03-30T10:31:42.002Z</time></trkpt><trkpt lat="39.8844267219218" lon="8.437877341816142"><ele>4.0</ele><time>2026-03-30T10:31:43.002Z</time></trkpt><trkpt lat="39.88428530129338" lon="8.437949257903368"><ele>4.0</ele><time>2026-03-30T10:31:44.002Z</time></trkpt><trkpt lat="39.88416086521609" lon="8.43801337781363"><ele>4.0</ele><time>2026-03-30T10:31:45.002Z</time></trkpt><trkpt lat="39.88405747248903" lon="8.438066184062107"><ele>4.0</ele><time>2026-03-30T10:31:46.002Z</time></trkpt><trkpt lat="39.883970908890255" lon="8.43811318963363"><ele>3.833333333333333</ele><time>2026-03-30T10:31:47.002Z</time></trkpt><trkpt lat="39.88388620655799" lon="8.438162809773845"><ele>3.6666666666666665</ele><time>2026-03-30T10:31:48.002Z</time></trkpt><trkpt lat="39.88380648654285" lon="8.438213883646727"><ele>3.5</ele><time>2026-03-30T10:31:49.002Z</time></trkpt><trkpt lat="39.883730273823076" lon="8.438251786418276"><ele>3.333333333333333</ele><time>2026-03-30T10:31:50.002Z</time></trkpt><trkpt lat="39.883653077784544" lon="8.438282995068136"><ele>3.1666666666666665</ele><time>2026-03-30T10:31:51.002Z</time></trkpt><trkpt lat="39.88357783197381" lon="8.438316101241016"><ele>3.0</ele><time>2026-03-30T10:31:52.002Z</time></trkpt><trkpt lat="39.88349027789009" lon="8.438354904790291"><ele>3.0</ele><time>2026-03-30T10:31:53.002Z</time></trkpt><trkpt lat="39.88340359901512" lon="8.43839479419523"><ele>3.0</ele><time>2026-03-30T10:31:54.002Z</time></trkpt><trkpt lat="39.883337853012435" lon="8.438442439856999"><ele>3.0</ele><time>2026-03-30T10:31:55.002Z</time></trkpt><trkpt lat="39.883286376423214" lon="8.438495817615765"><ele>3.0</ele><time>2026-03-30T10:31:56.002Z</time></trkpt><trkpt lat="39.88327833554875" lon="8.438584580679947"><ele>3.0</ele><time>2026-03-30T10:31:57.002Z</time></trkpt><trkpt lat="39.88329809623893" lon="8.438682117404692"><ele>3.0</ele><time>2026-03-30T10:31:58.002Z</time></trkpt><trkpt lat="39.883333602755144" lon="8.43878092509458"><ele>2.8333333333333335</ele><time>2026-03-30T10:31:59.002Z</time></trkpt><trkpt lat="39.88335850957215" lon="8.438880108075088"><ele>2.6666666666666665</ele><time>2026-03-30T10:32:00.002Z</time></trkpt><trkpt lat="39.88335656021984" lon="8.438983017997538"><ele>2.5</ele><time>2026-03-30T10:32:01.002Z</time></trkpt><trkpt lat="39.88332320899152" lon="8.439079890798217"><ele>2.333333333333333</ele><time>2026-03-30T10:32:02.002Z</time></trkpt><trkpt lat="39.88326569458174" lon="8.439165803528404"><ele>2.1666666666666665</ele><time>2026-03-30T10:32:03.002Z</time></trkpt><trkpt lat="39.88318124699114" lon="8.439225041487658"><ele>2.0</ele><time>2026-03-30T10:32:04.002Z</time></trkpt><trkpt lat="39.88308124952607" lon="8.439248943824806"><ele>2.0</ele><time>2026-03-30T10:32:05.002Z</time></trkpt><trkpt lat="39.8829741367556" lon="8.439254958959035"><ele>2.0</ele><time>2026-03-30T10:32:06.002Z</time></trkpt><trkpt lat="39.882866009430145" lon="8.439269905136825"><ele>2.0</ele><time>2026-03-30T10:32:07.002Z</time></trkpt><trkpt lat="39.88275045488901" lon="8.439293245331315"><ele>2.0</ele><time>2026-03-30T10:32:08.002Z</time></trkpt><trkpt lat="39.88263122999271" lon="8.439314907419623"><ele>2.0</ele><time>2026-03-30T10:32:09.002Z</time></trkpt><trkpt lat="39.88251034439188" lon="8.439321399782616"><ele>2.0</ele><time>2026-03-30T10:32:10.002Z</time></trkpt><trkpt lat="39.8823908743918" lon="8.439316529943216"><ele>2.0</ele><time>2026-03-30T10:32:11.002Z</time></trkpt><trkpt lat="39.882265182526574" lon="8.439316899362934"><ele>2.0</ele><time>2026-03-30T10:32:12.002Z</time></trkpt><trkpt lat="39.88213414108119" lon="8.439315141854758"><ele>2.0</ele><time>2026-03-30T10:32:13.002Z</time></trkpt><trkpt lat="39.88200605054023" lon="8.43931428277681"><ele>2.0</ele><time>2026-03-30T10:32:14.002Z</time></trkpt><trkpt lat="39.881888776282246" lon="8.43931190175375"><ele>2.0</ele><time>2026-03-30T10:32:15.002Z</time></trkpt><trkpt lat="39.88176921054665" lon="8.439309885445164"><ele>2.0</ele><time>2026-03-30T10:32:16.003Z</time></trkpt><trkpt lat="39.881647657481736" lon="8.439303709523086"><ele>2.0</ele><time>2026-03-30T10:32:17.003Z</time></trkpt><trkpt lat="39.881528978820526" lon="8.439298949628652"><ele>2.0</ele><time>2026-03-30T10:32:18.003Z</time></trkpt><trkpt lat="39.88141594849049" lon="8.439298561110764"><ele>2.0</ele><time>2026-03-30T10:32:19.003Z</time></trkpt><trkpt lat="39.881303284419374" lon="8.43930394141742"><ele>2.0</ele><time>2026-03-30T10:32:20.002Z</time></trkpt><trkpt lat="39.881192323004726" lon="8.439307506782292"><ele>2.0</ele><time>2026-03-30T10:32:21.002Z</time></trkpt><trkpt lat="39.88107810706899" lon="8.439313843081855"><ele>2.0</ele><time>2026-03-30T10:32:22.002Z</time></trkpt><trkpt lat="39.88096736715797" lon="8.439332361910386"><ele>2.0</ele><time>2026-03-30T10:32:23.002Z</time></trkpt><trkpt lat="39.88086027143599" lon="8.439361112901082"><ele>2.0</ele><time>2026-03-30T10:32:24.002Z</time></trkpt><trkpt lat="39.88075135369531" lon="8.439398206422688"><ele>2.0</ele><time>2026-03-30T10:32:25.002Z</time></trkpt><trkpt lat="39.88064736920843" lon="8.439430700963218"><ele>2.0</ele><time>2026-03-30T10:32:26.001Z</time></trkpt><trkpt lat="39.880545821689644" lon="8.43945949377838"><ele>2.0</ele><time>2026-03-30T10:32:27.001Z</time></trkpt><trkpt lat="39.880443336916386" lon="8.439488661742098"><ele>2.0</ele><time>2026-03-30T10:32:28.001Z</time></trkpt><trkpt lat="39.88033522996023" lon="8.439504697164878"><ele>2.0</ele><time>2026-03-30T10:32:29.001Z</time></trkpt><trkpt lat="39.88022531054196" lon="8.439499153555829"><ele>2.0</ele><time>2026-03-30T10:32:30.001Z</time></trkpt><trkpt lat="39.8801118784783" lon="8.439479701495312"><ele>2.0</ele><time>2026-03-30T10:32:31.001Z</time></trkpt><trkpt lat="39.87999973347398" lon="8.43945412983782"><ele>2.0</ele><time>2026-03-30T10:32:32.001Z</time></trkpt><trkpt lat="39.87989380305423" lon="8.439432180281623"><ele>2.0</ele><time>2026-03-30T10:32:33.001Z</time></trkpt><trkpt lat="39.879798280036695" lon="8.43941143626978"><ele>2.0</ele><time>2026-03-30T10:32:34.001Z</time></trkpt><trkpt lat="39.87970669635073" lon="8.43939139905484"><ele>2.0</ele><time>2026-03-30T10:32:35.001Z</time></trkpt><trkpt lat="39.879620983007094" lon="8.439371986137452"><ele>1.9999999999999998</ele><time>2026-03-30T10:32:36.001Z</time></trkpt><trkpt lat="39.87954242990802" lon="8.439355828243595"><ele>2.0</ele><time>2026-03-30T10:32:37.001Z</time></trkpt><trkpt lat="39.87946935924465" lon="8.439342288283722"><ele>2.0</ele><time>2026-03-30T10:32:38.001Z</time></trkpt><trkpt lat="39.87940148545155" lon="8.439337512950503"><ele>2.0</ele><time>2026-03-30T10:32:39.001Z</time></trkpt><trkpt lat="39.87931090573766" lon="8.439334085037297"><ele>1.9999999999999998</ele><time>2026-03-30T10:32:41.001Z</time></trkpt><trkpt lat="39.879239753234025" lon="8.439298899661663"><ele>2.0</ele><time>2026-03-30T10:32:44.001Z</time></trkpt><trkpt lat="39.87917169124855" lon="8.439285660348538"><ele>2.0</ele><time>2026-03-30T10:32:48.001Z</time></trkpt><trkpt lat="39.87910842066034" lon="8.439273353052299"><ele>1.9999999999999998</ele><time>2026-03-30T10:32:52.001Z</time></trkpt><trkpt lat="39.87904441307993" lon="8.43926094855299"><ele>2.0</ele><time>2026-03-30T10:32:56.001Z</time></trkpt><trkpt lat="39.878971879776394" lon="8.439267351187222"><ele>2.0</ele><time>2026-03-30T10:32:58.001Z</time></trkpt><trkpt lat="39.878911172737695" lon="8.439232538978198"><ele>1.9999999999999998</ele><time>2026-03-30T10:33:01.001Z</time></trkpt><trkpt lat="39.87893197083736" lon="8.439317743757142"><ele>2.0</ele><time>2026-03-30T10:33:08.001Z</time></trkpt><trkpt lat="39.878950951096115" lon="8.43920876854861"><ele>2.0</ele><time>2026-03-30T10:33:11.001Z</time></trkpt><trkpt lat="39.87889156448183" lon="8.439236562728915"><ele>2.0</ele><time>2026-03-30T10:35:53.001Z</time></trkpt><trkpt lat="39.87881286852466" lon="8.43921352360246"><ele>1.9999999999999998</ele><time>2026-03-30T10:36:16.002Z</time></trkpt><trkpt lat="39.87874463176866" lon="8.439189473662754"><ele>2.0</ele><time>2026-03-30T10:36:25.002Z</time></trkpt><trkpt lat="39.8786826395535" lon="8.439169347943976"><ele>2.0</ele><time>2026-03-30T10:36:33.001Z</time></trkpt><trkpt lat="39.87862873289442" lon="8.439120776610707"><ele>1.9999999999999998</ele><time>2026-03-30T10:36:42.001Z</time></trkpt><trkpt lat="39.87856925558397" lon="8.439062283257405"><ele>2.0</ele><time>2026-03-30T10:36:50.001Z</time></trkpt><trkpt lat="39.8785122632401" lon="8.439012879374461"><ele>2.0</ele><time>2026-03-30T10:36:57.001Z</time></trkpt><trkpt lat="39.8784478246587" lon="8.439006718521561"><ele>2.142857142857143</ele><time>2026-03-30T10:37:04.001Z</time></trkpt><trkpt lat="39.87838126453348" lon="8.438984249076476"><ele>2.2857142857142856</ele><time>2026-03-30T10:37:11.001Z</time></trkpt><trkpt lat="39.878316862807914" lon="8.438962020433811"><ele>2.4285714285714284</ele><time>2026-03-30T10:37:19.001Z</time></trkpt><trkpt lat="39.878247299105695" lon="8.438948202203973"><ele>2.571428571428571</ele><time>2026-03-30T10:37:30.001Z</time></trkpt><trkpt lat="39.87817667929226" lon="8.438930222430926"><ele>2.7142857142857144</ele><time>2026-03-30T10:37:38.001Z</time></trkpt><trkpt lat="39.87811029736694" lon="8.438912098463732"><ele>2.8571428571428568</ele><time>2026-03-30T10:37:45.001Z</time></trkpt><trkpt lat="39.878050080280225" lon="8.438885006167865"><ele>3.0</ele><time>2026-03-30T10:38:03.001Z</time></trkpt><trkpt lat="39.87798158403854" lon="8.438866980725557"><ele>2.9999999999999996</ele><time>2026-03-30T10:38:10.001Z</time></trkpt><trkpt lat="39.87791734668717" lon="8.438856629736973"><ele>3.0</ele><time>2026-03-30T10:38:17.001Z</time></trkpt><trkpt lat="39.877860312385906" lon="8.438797488363852"><ele>3.0</ele><time>2026-03-30T10:38:34.002Z</time></trkpt><trkpt lat="39.87779223535773" lon="8.438798139700632"><ele>3.0</ele><time>2026-03-30T10:38:40.001Z</time></trkpt><trkpt lat="39.877729706343175" lon="8.438786116234683"><ele>3.0</ele><time>2026-03-30T10:38:46.001Z</time></trkpt><trkpt lat="39.87765347397129" lon="8.438785415300046"><ele>2.9999999999999996</ele><time>2026-03-30T10:38:53Z</time></trkpt><trkpt lat="39.8775996114782" lon="8.438835768046065"><ele>3.0</ele><time>2026-03-30T10:39:58.001Z</time></trkpt><trkpt lat="39.87751573698479" lon="8.438867895658706"><ele>4.333333333333333</ele><time>2026-03-30T10:40:06.001Z</time></trkpt><trkpt lat="39.87742427529154" lon="8.4389062184769"><ele>5.666666666666666</ele><time>2026-03-30T10:40:17.001Z</time></trkpt><trkpt lat="39.87736931826172" lon="8.43895514332496"><ele>7.0</ele><time>2026-03-30T10:40:22.001Z</time></trkpt><trkpt lat="39.87730511729579" lon="8.438980673577584"><ele>8.333333333333332</ele><time>2026-03-30T10:40:28.001Z</time></trkpt><trkpt lat="39.877244196751775" lon="8.439016825681183"><ele>9.666666666666666</ele><time>2026-03-30T10:40:33.001Z</time></trkpt><trkpt lat="39.87718948441443" lon="8.439065802546532"><ele>11.0</ele><time>2026-03-30T10:40:39.001Z</time></trkpt><trkpt lat="39.877115301579344" lon="8.439126325155048"><ele>11.0</ele><time>2026-03-30T10:40:45.993Z</time></trkpt><trkpt lat="39.87704862485838" lon="8.439180323853614"><ele>11.0</ele><time>2026-03-30T10:40:52.993Z</time></trkpt><trkpt lat="39.87698171771436" lon="8.439250283026439"><ele>11.0</ele><time>2026-03-30T10:40:59.994Z</time></trkpt><trkpt lat="39.87689752031881" lon="8.4393154426787"><ele>11.0</ele><time>2026-03-30T10:41:07.995Z</time></trkpt><trkpt lat="39.87683619450505" lon="8.439343264078477"><ele>11.0</ele><time>2026-03-30T10:41:12.997Z</time></trkpt><trkpt lat="39.876783892536245" lon="8.439408752494831"><ele>11.0</ele><time>2026-03-30T10:41:19.997Z</time></trkpt><trkpt lat="39.87672273865193" lon="8.439442217227388"><ele>11.166666666666666</ele><time>2026-03-30T10:41:27.997Z</time></trkpt><trkpt lat="39.87663816219097" lon="8.439481222504089"><ele>11.333333333333332</ele><time>2026-03-30T10:41:39.998Z</time></trkpt><trkpt lat="39.87649136563008" lon="8.439540656850573"><ele>11.5</ele><time>2026-03-30T10:41:54.998Z</time></trkpt><trkpt lat="39.876431806329066" lon="8.43956758664538"><ele>11.666666666666666</ele><time>2026-03-30T10:41:59.998Z</time></trkpt><trkpt lat="39.87636181410139" lon="8.439571267583451"><ele>11.833333333333334</ele><time>2026-03-30T10:42:05.998Z</time></trkpt><trkpt lat="39.87628985192746" lon="8.439565798756545"><ele>12.0</ele><time>2026-03-30T10:42:12.999Z</time></trkpt><trkpt lat="39.876220294823284" lon="8.439579557776462"><ele>11.999999999999998</ele><time>2026-03-30T10:42:19.999Z</time></trkpt><trkpt lat="39.876158303196625" lon="8.439605038769018"><ele>12.0</ele><time>2026-03-30T10:42:34.999Z</time></trkpt><trkpt lat="39.876085766554205" lon="8.439621370685536"><ele>12.0</ele><time>2026-03-30T10:42:41.999Z</time></trkpt><trkpt lat="39.876014187321545" lon="8.439635175372604"><ele>12.0</ele><time>2026-03-30T10:42:48Z</time></trkpt><trkpt lat="39.875941048156605" lon="8.439640266167489"><ele>12.0</ele><time>2026-03-30T10:42:53.993Z</time></trkpt><trkpt lat="39.87587745873342" lon="8.439619615134285"><ele>11.999999999999998</ele><time>2026-03-30T10:42:59.994Z</time></trkpt><trkpt lat="39.87580497494732" lon="8.439620416473296"><ele>12.0</ele><time>2026-03-30T10:43:05.995Z</time></trkpt><trkpt lat="39.87573849595574" lon="8.439625254660067"><ele>13.285714285714285</ele><time>2026-03-30T10:43:11.996Z</time></trkpt><trkpt lat="39.875676707025804" lon="8.439641090384772"><ele>14.571428571428571</ele><time>2026-03-30T10:43:17.997Z</time></trkpt><trkpt lat="39.875606972684125" lon="8.439650949713029"><ele>15.857142857142858</ele><time>2026-03-30T10:43:23.997Z</time></trkpt><trkpt lat="39.87554276998585" lon="8.439657256866875"><ele>17.142857142857142</ele><time>2026-03-30T10:43:29.998Z</time></trkpt><trkpt lat="39.875478012284574" lon="8.439669026012979"><ele>18.428571428571427</ele><time>2026-03-30T10:43:35.998Z</time></trkpt><trkpt lat="39.87540791309146" lon="8.439686230499358"><ele>19.714285714285715</ele><time>2026-03-30T10:43:43.998Z</time></trkpt><trkpt lat="39.8753467184605" lon="8.43971410100426"><ele>21.0</ele><time>2026-03-30T10:43:48.999Z</time></trkpt><trkpt lat="39.8752695804795" lon="8.43971372351286"><ele>21.0</ele><time>2026-03-30T10:43:55.999Z</time></trkpt><trkpt lat="39.875200850342" lon="8.439726435924541"><ele>21.0</ele><time>2026-03-30T10:44:01.999Z</time></trkpt><trkpt lat="39.875130356081556" lon="8.439726146857517"><ele>21.0</ele><time>2026-03-30T10:44:07.999Z</time></trkpt><trkpt lat="39.8750612966568" lon="8.43971812755355"><ele>21.0</ele><time>2026-03-30T10:44:14Z</time></trkpt><trkpt lat="39.8749919366671" lon="8.43970128457939"><ele>21.0</ele><time>2026-03-30T10:44:20Z</time></trkpt><trkpt lat="39.87492375841778" lon="8.439691271920287"><ele>21.0</ele><time>2026-03-30T10:44:26Z</time></trkpt><trkpt lat="39.87485853100103" lon="8.439682094801622"><ele>21.0</ele><time>2026-03-30T10:44:32Z</time></trkpt><trkpt lat="39.874794148028535" lon="8.439693369964344"><ele>21.0</ele><time>2026-03-30T10:44:38Z</time></trkpt><trkpt lat="39.874722635051775" lon="8.439682136561812"><ele>21.0</ele><time>2026-03-30T10:44:45.001Z</time></trkpt><trkpt lat="39.874656682917724" lon="8.439687988749762"><ele>21.0</ele><time>2026-03-30T10:44:52.001Z</time></trkpt><trkpt lat="39.87458644581124" lon="8.439687834884909"><ele>21.0</ele><time>2026-03-30T10:45:07Z</time></trkpt><trkpt lat="39.87452436663211" lon="8.439706820154676"><ele>21.0</ele><time>2026-03-30T10:45:12Z</time></trkpt><trkpt lat="39.87446064344016" lon="8.43972268962055"><ele>21.0</ele><time>2026-03-30T10:45:19Z</time></trkpt><trkpt lat="39.874391561741064" lon="8.439729565760523"><ele>21.0</ele><time>2026-03-30T10:45:26.001Z</time></trkpt><trkpt lat="39.87432734626715" lon="8.43974940771369"><ele>21.142857142857142</ele><time>2026-03-30T10:45:32.001Z</time></trkpt><trkpt lat="39.874266483234265" lon="8.439776480882767"><ele>21.285714285714285</ele><time>2026-03-30T10:45:40.001Z</time></trkpt><trkpt lat="39.87420126876853" lon="8.439792607542765"><ele>21.42857142857143</ele><time>2026-03-30T10:45:47.001Z</time></trkpt><trkpt lat="39.874127165116455" lon="8.439800473220123"><ele>21.57142857142857</ele><time>2026-03-30T10:45:54.001Z</time></trkpt><trkpt lat="39.87405750861724" lon="8.43982397983775"><ele>21.714285714285715</ele><time>2026-03-30T10:46:09.002Z</time></trkpt><trkpt lat="39.87399119199467" lon="8.439830433507698"><ele>21.857142857142858</ele><time>2026-03-30T10:46:16.002Z</time></trkpt><trkpt lat="39.87392482934206" lon="8.439843145520241"><ele>22.0</ele><time>2026-03-30T10:46:22.002Z</time></trkpt><trkpt lat="39.873859191419136" lon="8.439825566538143"><ele>22.0</ele><time>2026-03-30T10:46:29.002Z</time></trkpt><trkpt lat="39.87379058771094" lon="8.439829048086757"><ele>22.0</ele><time>2026-03-30T10:46:36.003Z</time></trkpt><trkpt lat="39.87372633743655" lon="8.439823920228486"><ele>22.0</ele><time>2026-03-30T10:46:42.003Z</time></trkpt><trkpt lat="39.87365717964051" lon="8.439841463756599"><ele>22.0</ele><time>2026-03-30T10:46:49.003Z</time></trkpt><trkpt lat="39.87358793782326" lon="8.439855551231506"><ele>22.0</ele><time>2026-03-30T10:46:55.003Z</time></trkpt><trkpt lat="39.87352466368465" lon="8.439867853510904"><ele>22.0</ele><time>2026-03-30T10:47:02.003Z</time></trkpt><trkpt lat="39.87345563057118" lon="8.439874053065866"><ele>22.0</ele><time>2026-03-30T10:47:09.002Z</time></trkpt><trkpt lat="39.873391270746986" lon="8.43986665108026"><ele>22.142857142857142</ele><time>2026-03-30T10:47:15.001Z</time></trkpt><trkpt lat="39.873324939497934" lon="8.439866481914551"><ele>22.285714285714285</ele><time>2026-03-30T10:47:22.001Z</time></trkpt><trkpt lat="39.87326083481243" lon="8.439846923452961"><ele>22.42857142857143</ele><time>2026-03-30T10:47:29.001Z</time></trkpt><trkpt lat="39.87318978071385" lon="8.439847209936872"><ele>22.57142857142857</ele><time>2026-03-30T10:47:36Z</time></trkpt><trkpt lat="39.873119284813114" lon="8.439846406996425"><ele>22.71428571428571</ele><time>2026-03-30T10:47:43Z</time></trkpt><trkpt lat="39.873053568204625" lon="8.439848952671243"><ele>22.857142857142858</ele><time>2026-03-30T10:47:49Z</time></trkpt><trkpt lat="39.87298849968657" lon="8.439844988301795"><ele>23.0</ele><time>2026-03-30T10:47:56Z</time></trkpt><trkpt lat="39.872921584220634" lon="8.43982255471913"><ele>23.0</ele><time>2026-03-30T10:48:03Z</time></trkpt><trkpt lat="39.87286195531965" lon="8.439795900183173"><ele>23.0</ele><time>2026-03-30T10:48:09Z</time></trkpt><trkpt lat="39.872798089248064" lon="8.439780524008176"><ele>23.0</ele><time>2026-03-30T10:48:15Z</time></trkpt><trkpt lat="39.87273288075567" lon="8.439744727992888"><ele>23.0</ele><time>2026-03-30T10:48:22Z</time></trkpt><trkpt lat="39.87267442469693" lon="8.439712021976595"><ele>23.0</ele><time>2026-03-30T10:48:28Z</time></trkpt><trkpt lat="39.872611188274746" lon="8.439706222829692"><ele>23.0</ele><time>2026-03-30T10:48:35Z</time></trkpt><trkpt lat="39.87255219776606" lon="8.439662470270145"><ele>23.0</ele><time>2026-03-30T10:48:42Z</time></trkpt><trkpt lat="39.87251967382966" lon="8.439590529643608"><ele>23.0</ele><time>2026-03-30T10:50:02Z</time></trkpt><trkpt lat="39.87254940088179" lon="8.439669138501866"><ele>23.0</ele><time>2026-03-30T10:51:12Z</time></trkpt><trkpt lat="39.87260961069412" lon="8.439708508334014"><ele>23.0</ele><time>2026-03-30T10:51:19.997Z</time></trkpt><trkpt lat="39.87267279834894" lon="8.439730236125584"><ele>23.0</ele><time>2026-03-30T10:53:30.999Z</time></trkpt><trkpt lat="39.87277895167786" lon="8.439767462544154"><ele>23.0</ele><time>2026-03-30T10:53:43Z</time></trkpt><trkpt lat="39.872848236436305" lon="8.439801148695976"><ele>23.0</ele><time>2026-03-30T10:53:50Z</time></trkpt><trkpt lat="39.872911353422424" lon="8.439821476115254"><ele>23.0</ele><time>2026-03-30T10:53:56Z</time></trkpt><trkpt lat="39.872974253747984" lon="8.439842251649752"><ele>23.0</ele><time>2026-03-30T10:54:04Z</time></trkpt><trkpt lat="39.87303967197627" lon="8.439864348292504"><ele>23.0</ele><time>2026-03-30T10:54:42Z</time></trkpt><trkpt lat="39.87310822185375" lon="8.439854595691841"><ele>23.0</ele><time>2026-03-30T10:55:16.001Z</time></trkpt><trkpt lat="39.8731716319414" lon="8.439853631816485"><ele>23.0</ele><time>2026-03-30T10:55:22.001Z</time></trkpt><trkpt lat="39.87324200633586" lon="8.4398646466598"><ele>23.0</ele><time>2026-03-30T10:55:28.999Z</time></trkpt><trkpt lat="39.87331326027724" lon="8.439867908433762"><ele>23.0</ele><time>2026-03-30T10:55:35.999Z</time></trkpt><trkpt lat="39.873380224731875" lon="8.439856552593357"><ele>23.0</ele><time>2026-03-30T10:55:50.999Z</time></trkpt><trkpt lat="39.8734541219344" lon="8.439870183330559"><ele>22.857142857142858</ele><time>2026-03-30T10:56:02Z</time></trkpt><trkpt lat="39.8735171686927" lon="8.43987127107581"><ele>22.71428571428571</ele><time>2026-03-30T10:56:08.001Z</time></trkpt><trkpt lat="39.873590891131194" lon="8.43985452261032"><ele>22.57142857142857</ele><time>2026-03-30T10:56:15.001Z</time></trkpt><trkpt lat="39.87365494023237" lon="8.439844572536593"><ele>22.42857142857143</ele><time>2026-03-30T10:56:21Z</time></trkpt><trkpt lat="39.873741460137296" lon="8.439835508274953"><ele>22.285714285714285</ele><time>2026-03-30T10:56:29Z</time></trkpt><trkpt lat="39.87381110926257" lon="8.43983938210709"><ele>22.142857142857142</ele><time>2026-03-30T10:56:35Z</time></trkpt><trkpt lat="39.87387955220235" lon="8.439849362396401"><ele>22.0</ele><time>2026-03-30T10:56:41.001Z</time></trkpt><trkpt lat="39.873947716740695" lon="8.439867623838555"><ele>22.0</ele><time>2026-03-30T10:56:47Z</time></trkpt><trkpt lat="39.8740092627928" lon="8.439844277833375"><ele>22.0</ele><time>2026-03-30T10:56:52.001Z</time></trkpt><trkpt lat="39.87407852374523" lon="8.439843354899017"><ele>22.0</ele><time>2026-03-30T10:56:58Z</time></trkpt><trkpt lat="39.87414272524363" lon="8.439827413196493"><ele>22.0</ele><time>2026-03-30T10:57:03.001Z</time></trkpt><trkpt lat="39.87421397844263" lon="8.439823832625935"><ele>22.0</ele><time>2026-03-30T10:57:10.001Z</time></trkpt><trkpt lat="39.87427581547554" lon="8.439802937644137"><ele>22.0</ele><time>2026-03-30T10:57:15.001Z</time></trkpt><trkpt lat="39.8743454205646" lon="8.439774994678071"><ele>22.0</ele><time>2026-03-30T10:57:21.001Z</time></trkpt><trkpt lat="39.87441310989449" lon="8.439743577329388"><ele>21.857142857142858</ele><time>2026-03-30T10:57:27.001Z</time></trkpt><trkpt lat="39.874481538176575" lon="8.439726006684714"><ele>21.714285714285715</ele><time>2026-03-30T10:57:32.992Z</time></trkpt><trkpt lat="39.87454656773347" lon="8.439726155641273"><ele>21.57142857142857</ele><time>2026-03-30T10:57:39.993Z</time></trkpt><trkpt lat="39.87461150794203" lon="8.439712552050374"><ele>21.42857142857143</ele><time>2026-03-30T10:58:09.997Z</time></trkpt><trkpt lat="39.87467655989761" lon="8.439712065136012"><ele>21.285714285714285</ele><time>2026-03-30T10:58:16.997Z</time></trkpt><trkpt lat="39.874735436198016" lon="8.439741495980607"><ele>21.142857142857142</ele><time>2026-03-30T10:58:23.998Z</time></trkpt><trkpt lat="39.874809702825395" lon="8.439722627019894"><ele>21.0</ele><time>2026-03-30T10:58:28.998Z</time></trkpt><trkpt lat="39.874875287923814" lon="8.439733662634834"><ele>21.0</ele><time>2026-03-30T10:58:34.999Z</time></trkpt><trkpt lat="39.8749654075803" lon="8.43970172789813"><ele>21.0</ele><time>2026-03-30T10:58:46Z</time></trkpt><trkpt lat="39.87503192501308" lon="8.439718173097852"><ele>21.0</ele><time>2026-03-30T10:58:53.999Z</time></trkpt><trkpt lat="39.875108178024206" lon="8.439728072267783"><ele>21.0</ele><time>2026-03-30T10:58:59.999Z</time></trkpt><trkpt lat="39.87518080998474" lon="8.43973142481238"><ele>21.0</ele><time>2026-03-30T10:59:05.999Z</time></trkpt><trkpt lat="39.875248626396655" lon="8.439736998903221"><ele>21.0</ele><time>2026-03-30T10:59:11.999Z</time></trkpt><trkpt lat="39.87532755138619" lon="8.439727813082431"><ele>21.0</ele><time>2026-03-30T10:59:24Z</time></trkpt><trkpt lat="39.875396446352546" lon="8.439716635104094"><ele>21.0</ele><time>2026-03-30T10:59:30Z</time></trkpt><trkpt lat="39.87546325042746" lon="8.439739480739478"><ele>21.0</ele><time>2026-03-30T10:59:35.992Z</time></trkpt><trkpt lat="39.875543502248334" lon="8.439753770948183"><ele>21.0</ele><time>2026-03-30T10:59:41.994Z</time></trkpt><trkpt lat="39.875617400184126" lon="8.439739753817213"><ele>21.0</ele><time>2026-03-30T10:59:47.996Z</time></trkpt><trkpt lat="39.875687016629904" lon="8.439717833575"><ele>21.0</ele><time>2026-03-30T10:59:53.997Z</time></trkpt><trkpt lat="39.8757578285127" lon="8.439728348381493"><ele>21.0</ele><time>2026-03-30T10:59:59.998Z</time></trkpt><trkpt lat="39.875825352903746" lon="8.439730594184141"><ele>21.0</ele><time>2026-03-30T11:00:05.999Z</time></trkpt><trkpt lat="39.87590395291372" lon="8.439720030839185"><ele>21.0</ele><time>2026-03-30T11:00:13Z</time></trkpt><trkpt lat="39.875967006023444" lon="8.439715428107176"><ele>21.0</ele><time>2026-03-30T11:00:18.001Z</time></trkpt><trkpt lat="39.876030231553734" lon="8.439703061567098"><ele>21.0</ele><time>2026-03-30T11:00:24Z</time></trkpt><trkpt lat="39.876103474957915" lon="8.439697060832826"><ele>21.0</ele><time>2026-03-30T11:00:31.001Z</time></trkpt><trkpt lat="39.87616945851934" lon="8.439690156521273"><ele>21.0</ele><time>2026-03-30T11:00:37.001Z</time></trkpt><trkpt lat="39.876233402277144" lon="8.439672933941567"><ele>21.0</ele><time>2026-03-30T11:00:43.001Z</time></trkpt><trkpt lat="39.87630482971977" lon="8.439661375047153"><ele>21.285714285714285</ele><time>2026-03-30T11:00:50.002Z</time></trkpt><trkpt lat="39.87637673621094" lon="8.439652357515532"><ele>21.57142857142857</ele><time>2026-03-30T11:00:57.002Z</time></trkpt><trkpt lat="39.87644922049413" lon="8.439613473440048"><ele>21.857142857142858</ele><time>2026-03-30T11:01:04.002Z</time></trkpt><trkpt lat="39.87651038202612" lon="8.43959297712418"><ele>22.142857142857142</ele><time>2026-03-30T11:01:10.002Z</time></trkpt><trkpt lat="39.87657288581869" lon="8.439562718211636"><ele>22.428571428571427</ele><time>2026-03-30T11:01:16.002Z</time></trkpt><trkpt lat="39.87663761474684" lon="8.439523910693433"><ele>22.714285714285715</ele><time>2026-03-30T11:01:23.003Z</time></trkpt><trkpt lat="39.87670448481181" lon="8.43948977195353"><ele>23.0</ele><time>2026-03-30T11:01:30.003Z</time></trkpt><trkpt lat="39.87676722877928" lon="8.43946813245485"><ele>21.28571428571429</ele><time>2026-03-30T11:01:38.003Z</time></trkpt><trkpt lat="39.8768154807219" lon="8.439415022848518"><ele>19.57142857142857</ele><time>2026-03-30T11:01:42.995Z</time></trkpt><trkpt lat="39.8768659891961" lon="8.439354665890493"><ele>17.857142857142858</ele><time>2026-03-30T11:01:48.996Z</time></trkpt><trkpt lat="39.87693055617577" lon="8.43932178695073"><ele>16.142857142857142</ele><time>2026-03-30T11:01:54.997Z</time></trkpt><trkpt lat="39.87698568473828" lon="8.439275513614437"><ele>14.428571428571427</ele><time>2026-03-30T11:02:00.998Z</time></trkpt><trkpt lat="39.87703612616716" lon="8.439225518343715"><ele>12.714285714285715</ele><time>2026-03-30T11:02:06.999Z</time></trkpt><trkpt lat="39.87709773482499" lon="8.439186770296017"><ele>11.0</ele><time>2026-03-30T11:02:12.999Z</time></trkpt><trkpt lat="39.87715971937798" lon="8.439141592500873"><ele>11.0</ele><time>2026-03-30T11:02:20Z</time></trkpt><trkpt lat="39.87721257703002" lon="8.439095066803116"><ele>11.0</ele><time>2026-03-30T11:02:26Z</time></trkpt><trkpt lat="39.877273157994914" lon="8.439048588861995"><ele>11.0</ele><time>2026-03-30T11:02:33.001Z</time></trkpt><trkpt lat="39.87732893393498" lon="8.439008154010418"><ele>11.0</ele><time>2026-03-30T11:02:39.001Z</time></trkpt><trkpt lat="39.87739084330599" lon="8.43896469579794"><ele>11.0</ele><time>2026-03-30T11:02:45.002Z</time></trkpt><trkpt lat="39.87745122428083" lon="8.438916786386514"><ele>11.0</ele><time>2026-03-30T11:02:51.001Z</time></trkpt><trkpt lat="39.877518749850715" lon="8.43887952984688"><ele>11.0</ele><time>2026-03-30T11:02:57.002Z</time></trkpt><trkpt lat="39.877583896152" lon="8.438848200390266"><ele>9.857142857142858</ele><time>2026-03-30T11:03:03.002Z</time></trkpt><trkpt lat="39.87764926001893" lon="8.43882324485712"><ele>8.714285714285714</ele><time>2026-03-30T11:03:09.002Z</time></trkpt><trkpt lat="39.87771762455898" lon="8.438816435426746"><ele>7.571428571428571</ele><time>2026-03-30T11:03:15.002Z</time></trkpt><trkpt lat="39.877782443657864" lon="8.438822782252517"><ele>6.428571428571429</ele><time>2026-03-30T11:03:21.002Z</time></trkpt><trkpt lat="39.87784701310044" lon="8.438838372510432"><ele>5.285714285714286</ele><time>2026-03-30T11:03:27.002Z</time></trkpt><trkpt lat="39.877918042684854" lon="8.438861218752265"><ele>4.142857142857142</ele><time>2026-03-30T11:03:33.003Z</time></trkpt><trkpt lat="39.87798074707836" lon="8.438877546495554"><ele>3.0</ele><time>2026-03-30T11:03:39.003Z</time></trkpt><trkpt lat="39.878050907409204" lon="8.438909726565736"><ele>2.9999999999999996</ele><time>2026-03-30T11:03:46.003Z</time></trkpt><trkpt lat="39.87811291954403" lon="8.438929009565502"><ele>3.0</ele><time>2026-03-30T11:03:51.996Z</time></trkpt><trkpt lat="39.87817903479633" lon="8.438951918176834"><ele>3.0</ele><time>2026-03-30T11:03:57.997Z</time></trkpt><trkpt lat="39.878243396402844" lon="8.438979038517703"><ele>3.0</ele><time>2026-03-30T11:04:03.998Z</time></trkpt><trkpt lat="39.878313715804886" lon="8.439015483967545"><ele>3.0</ele><time>2026-03-30T11:04:10.999Z</time></trkpt><trkpt lat="39.878380296494264" lon="8.439032608695188"><ele>2.9999999999999996</ele><time>2026-03-30T11:04:17Z</time></trkpt><trkpt lat="39.87844746299979" lon="8.43905174137061"><ele>3.0</ele><time>2026-03-30T11:04:23Z</time></trkpt><trkpt lat="39.87850957266298" lon="8.439075778064288"><ele>2.8571428571428568</ele><time>2026-03-30T11:04:29Z</time></trkpt><trkpt lat="39.87856969213428" lon="8.439109282159363"><ele>2.7142857142857144</ele><time>2026-03-30T11:04:35.001Z</time></trkpt><trkpt lat="39.878628589912935" lon="8.439146712230094"><ele>2.571428571428571</ele><time>2026-03-30T11:04:41.001Z</time></trkpt><trkpt lat="39.8786930832709" lon="8.439178234617062"><ele>2.4285714285714284</ele><time>2026-03-30T11:04:47.001Z</time></trkpt><trkpt lat="39.87876061312829" lon="8.439208829776755"><ele>2.2857142857142856</ele><time>2026-03-30T11:04:54.002Z</time></trkpt><trkpt lat="39.87882824467015" lon="8.439229953061929"><ele>2.142857142857143</ele><time>2026-03-30T11:05:00.002Z</time></trkpt><trkpt lat="39.878896903341534" lon="8.43924047736046"><ele>2.0</ele><time>2026-03-30T11:05:07.002Z</time></trkpt><trkpt lat="39.878929095063434" lon="8.439162861045377"><ele>2.0</ele><time>2026-03-30T11:05:13.002Z</time></trkpt><trkpt lat="39.878915340329954" lon="8.439252239449209"><ele>2.0</ele><time>2026-03-30T11:07:11.002Z</time></trkpt><trkpt lat="39.879025463174955" lon="8.43927844269204"><ele>2.0</ele><time>2026-03-30T11:09:08.001Z</time></trkpt><trkpt lat="39.879235353705994" lon="8.43929663575145"><ele>2.0</ele><time>2026-03-30T11:09:18.001Z</time></trkpt><trkpt lat="39.87930656549895" lon="8.439307997427221"><ele>2.0</ele><time>2026-03-30T11:09:21.002Z</time></trkpt><trkpt lat="39.87938228509734" lon="8.43931004177568"><ele>1.9999999999999998</ele><time>2026-03-30T11:09:24.002Z</time></trkpt><trkpt lat="39.87945856562869" lon="8.439327498186927"><ele>2.0</ele><time>2026-03-30T11:09:27.002Z</time></trkpt><trkpt lat="39.879531591338" lon="8.439346962943972"><ele>2.0</ele><time>2026-03-30T11:09:30.002Z</time></trkpt><trkpt lat="39.87960418704073" lon="8.43935679997983"><ele>1.9999999999999998</ele><time>2026-03-30T11:09:33.002Z</time></trkpt><trkpt lat="39.87967623782608" lon="8.43937645328417"><ele>2.0</ele><time>2026-03-30T11:09:36.002Z</time></trkpt><trkpt lat="39.879748101147655" lon="8.439395024796186"><ele>2.0</ele><time>2026-03-30T11:09:39.002Z</time></trkpt><trkpt lat="39.87982302499862" lon="8.43940252936433"><ele>2.0</ele><time>2026-03-30T11:09:42.002Z</time></trkpt><trkpt lat="39.87989635876268" lon="8.439407113546013"><ele>1.9999999999999998</ele><time>2026-03-30T11:09:45.002Z</time></trkpt><trkpt lat="39.879967637710635" lon="8.43943205554105"><ele>2.0</ele><time>2026-03-30T11:09:48.002Z</time></trkpt><trkpt lat="39.8800335192548" lon="8.439453845526605"><ele>2.0</ele><time>2026-03-30T11:09:51.002Z</time></trkpt><trkpt lat="39.88009738993276" lon="8.439474657699922"><ele>1.9999999999999998</ele><time>2026-03-30T11:09:55.002Z</time></trkpt><trkpt lat="39.88016660636636" lon="8.439486555450841"><ele>2.0</ele><time>2026-03-30T11:09:59.002Z</time></trkpt><trkpt lat="39.880238982485324" lon="8.439502391244602"><ele>2.0</ele><time>2026-03-30T11:10:03.002Z</time></trkpt><trkpt lat="39.88031111139819" lon="8.439497709111302"><ele>1.9999999999999998</ele><time>2026-03-30T11:10:07.001Z</time></trkpt><trkpt lat="39.880391326137634" lon="8.439484988088052"><ele>2.0</ele><time>2026-03-30T11:10:11.001Z</time></trkpt><trkpt lat="39.88046591888393" lon="8.439477998455104"><ele>2.0</ele><time>2026-03-30T11:10:14.001Z</time></trkpt><trkpt lat="39.880540681896" lon="8.4394556717126"><ele>2.0</ele><time>2026-03-30T11:10:17.001Z</time></trkpt><trkpt lat="39.880612189693" lon="8.439433539943275"><ele>1.9999999999999998</ele><time>2026-03-30T11:10:20.001Z</time></trkpt><trkpt lat="39.88068293107266" lon="8.439398818020754"><ele>2.0</ele><time>2026-03-30T11:10:23.001Z</time></trkpt><trkpt lat="39.88075443356042" lon="8.43936833364575"><ele>1.9999999999999998</ele><time>2026-03-30T11:10:26.001Z</time></trkpt><trkpt lat="39.880829631971" lon="8.439341898046035"><ele>2.0</ele><time>2026-03-30T11:10:29.001Z</time></trkpt><trkpt lat="39.880903148507265" lon="8.439323452291335"><ele>2.0</ele><time>2026-03-30T11:10:32.001Z</time></trkpt><trkpt lat="39.88098164743533" lon="8.439315984820507"><ele>2.0</ele><time>2026-03-30T11:10:35.001Z</time></trkpt><trkpt lat="39.8810616779579" lon="8.439303946728751"><ele>1.9999999999999998</ele><time>2026-03-30T11:10:38.001Z</time></trkpt><trkpt lat="39.88114022865634" lon="8.43929721396439"><ele>2.0</ele><time>2026-03-30T11:10:41.001Z</time></trkpt><trkpt lat="39.88122572468824" lon="8.43927983348831"><ele>1.9999999999999998</ele><time>2026-03-30T11:10:44.001Z</time></trkpt><trkpt lat="39.88129466013945" lon="8.439285538304482"><ele>2.0</ele><time>2026-03-30T11:10:46.001Z</time></trkpt><trkpt lat="39.88138639395266" lon="8.43928917810953"><ele>2.0</ele><time>2026-03-30T11:10:49.001Z</time></trkpt><trkpt lat="39.88147961716473" lon="8.43928191269247"><ele>2.0</ele><time>2026-03-30T11:10:52.001Z</time></trkpt><trkpt lat="39.881571088373896" lon="8.43929222052908"><ele>1.9999999999999998</ele><time>2026-03-30T11:10:55.001Z</time></trkpt><trkpt lat="39.88163494893788" lon="8.439288532185389"><ele>2.0</ele><time>2026-03-30T11:10:57.001Z</time></trkpt><trkpt lat="39.88171945699376" lon="8.43929169792322"><ele>1.9999999999999998</ele><time>2026-03-30T11:11:00.001Z</time></trkpt><trkpt lat="39.8817824074432" lon="8.439298222602147"><ele>2.0</ele><time>2026-03-30T11:11:02.001Z</time></trkpt><trkpt lat="39.88187155897281" lon="8.439283863487832"><ele>2.0</ele><time>2026-03-30T11:11:05.001Z</time></trkpt><trkpt lat="39.88194019642143" lon="8.439307837654155"><ele>2.0</ele><time>2026-03-30T11:11:07.001Z</time></trkpt><trkpt lat="39.8820118769133" lon="8.439340055940544"><ele>1.9999999999999998</ele><time>2026-03-30T11:11:09.001Z</time></trkpt><trkpt lat="39.88208652149527" lon="8.439339347309023"><ele>2.0</ele><time>2026-03-30T11:11:11.001Z</time></trkpt><trkpt lat="39.88217317854793" lon="8.439334788693024"><ele>2.0</ele><time>2026-03-30T11:11:14.001Z</time></trkpt><trkpt lat="39.88224130557497" lon="8.439324360409895"><ele>1.9999999999999998</ele><time>2026-03-30T11:11:16.001Z</time></trkpt><trkpt lat="39.882316872009405" lon="8.439325057781847"><ele>2.0</ele><time>2026-03-30T11:11:18.001Z</time></trkpt><trkpt lat="39.882392900305994" lon="8.439321757843997"><ele>2.0</ele><time>2026-03-30T11:11:20.001Z</time></trkpt><trkpt lat="39.882466474531" lon="8.439325936611928"><ele>1.9999999999999998</ele><time>2026-03-30T11:11:22.001Z</time></trkpt><trkpt lat="39.88253672239183" lon="8.439327898685825"><ele>2.0</ele><time>2026-03-30T11:11:24.001Z</time></trkpt><trkpt lat="39.88261143758803" lon="8.439326625538378"><ele>2.0</ele><time>2026-03-30T11:11:26.001Z</time></trkpt><trkpt lat="39.88268513357169" lon="8.439320102588281"><ele>2.0</ele><time>2026-03-30T11:11:28.001Z</time></trkpt><trkpt lat="39.882756088536944" lon="8.43930822992917"><ele>1.9999999999999998</ele><time>2026-03-30T11:11:30.001Z</time></trkpt><trkpt lat="39.88282895210722" lon="8.439300014565676"><ele>2.0</ele><time>2026-03-30T11:11:32.001Z</time></trkpt><trkpt lat="39.8829046696303" lon="8.43929504620036"><ele>2.0</ele><time>2026-03-30T11:11:34.001Z</time></trkpt><trkpt lat="39.882977965352204" lon="8.439271020342513"><ele>1.9999999999999998</ele><time>2026-03-30T11:11:36.001Z</time></trkpt><trkpt lat="39.88304207487371" lon="8.439244395805789"><ele>2.0</ele><time>2026-03-30T11:11:38.001Z</time></trkpt><trkpt lat="39.88311468303325" lon="8.439226624637879"><ele>2.0</ele><time>2026-03-30T11:11:40.001Z</time></trkpt><trkpt lat="39.88318769001434" lon="8.439196051416952"><ele>1.9999999999999998</ele><time>2026-03-30T11:11:42.001Z</time></trkpt><trkpt lat="39.88326060055937" lon="8.439156859289525"><ele>2.0</ele><time>2026-03-30T11:11:44.002Z</time></trkpt><trkpt lat="39.88333649994335" lon="8.439111501292881"><ele>2.0</ele><time>2026-03-30T11:11:46.002Z</time></trkpt><trkpt lat="39.88340783832598" lon="8.439060636151794"><ele>2.0</ele><time>2026-03-30T11:11:48.002Z</time></trkpt><trkpt lat="39.88347292722057" lon="8.439015835983694"><ele>1.9999999999999998</ele><time>2026-03-30T11:11:50.002Z</time></trkpt><trkpt lat="39.88354431433458" lon="8.4389697556306"><ele>2.0</ele><time>2026-03-30T11:11:52.002Z</time></trkpt><trkpt lat="39.88361731357392" lon="8.438914955388812"><ele>1.9999999999999998</ele><time>2026-03-30T11:11:54.002Z</time></trkpt><trkpt lat="39.883683307993046" lon="8.438857153077823"><ele>2.0</ele><time>2026-03-30T11:11:56.002Z</time></trkpt><trkpt lat="39.88374808092674" lon="8.438797255868284"><ele>2.0</ele><time>2026-03-30T11:11:58.002Z</time></trkpt><trkpt lat="39.88380806293022" lon="8.438729260011465"><ele>2.0</ele><time>2026-03-30T11:12:00.002Z</time></trkpt><trkpt lat="39.88386557302693" lon="8.438658357016033"><ele>1.9999999999999998</ele><time>2026-03-30T11:12:02.002Z</time></trkpt><trkpt lat="39.883922393822345" lon="8.43858944938335"><ele>2.0</ele><time>2026-03-30T11:12:04.002Z</time></trkpt><trkpt lat="39.8839739387256" lon="8.438523918084444"><ele>2.0</ele><time>2026-03-30T11:12:06.002Z</time></trkpt><trkpt lat="39.88402283131978" lon="8.43846573754279"><ele>1.9999999999999998</ele><time>2026-03-30T11:12:08.002Z</time></trkpt><trkpt lat="39.88407443962058" lon="8.438414451997726"><ele>2.0</ele><time>2026-03-30T11:12:10.002Z</time></trkpt><trkpt lat="39.8841269904882" lon="8.438365565704565"><ele>2.0</ele><time>2026-03-30T11:12:12Z</time></trkpt><trkpt lat="39.884176500575585" lon="8.438299607239175"><ele>1.9999999999999998</ele><time>2026-03-30T11:12:14Z</time></trkpt><trkpt lat="39.88422810867911" lon="8.438235429776876"><ele>2.0</ele><time>2026-03-30T11:12:16Z</time></trkpt><trkpt lat="39.88427680893951" lon="8.438171924491506"><ele>2.0</ele><time>2026-03-30T11:12:18Z</time></trkpt><trkpt lat="39.88433014867671" lon="8.438116222167919"><ele>2.0</ele><time>2026-03-30T11:12:20Z</time></trkpt><trkpt lat="39.88438243745004" lon="8.438061459304622"><ele>1.9999999999999998</ele><time>2026-03-30T11:12:22Z</time></trkpt><trkpt lat="39.88443314539033" lon="8.437999087147297"><ele>2.0</ele><time>2026-03-30T11:12:24Z</time></trkpt><trkpt lat="39.884492403671594" lon="8.437953704682416"><ele>2.0</ele><time>2026-03-30T11:12:26Z</time></trkpt><trkpt lat="39.88454729758002" lon="8.437894764274857"><ele>1.9999999999999998</ele><time>2026-03-30T11:12:28Z</time></trkpt><trkpt lat="39.884607692856015" lon="8.437843235700937"><ele>2.0</ele><time>2026-03-30T11:12:30Z</time></trkpt><trkpt lat="39.884680158932085" lon="8.43779462858648"><ele>2.0</ele><time>2026-03-30T11:12:32Z</time></trkpt><trkpt lat="39.884762164808315" lon="8.43774245386415"><ele>2.0</ele><time>2026-03-30T11:12:34Z</time></trkpt><trkpt lat="39.884853440628234" lon="8.437688969609615"><ele>2.0</ele><time>2026-03-30T11:12:36Z</time></trkpt><trkpt lat="39.88494005250413" lon="8.437637535623471"><ele>2.0</ele><time>2026-03-30T11:12:38Z</time></trkpt><trkpt lat="39.88503305395264" lon="8.437590467917929"><ele>2.0</ele><time>2026-03-30T11:12:40Z</time></trkpt><trkpt lat="39.88513056930428" lon="8.437544930331166"><ele>2.0</ele><time>2026-03-30T11:12:42Z</time></trkpt><trkpt lat="39.88522596752537" lon="8.437494524901652"><ele>2.0</ele><time>2026-03-30T11:12:44Z</time></trkpt><trkpt lat="39.88534474036071" lon="8.437429674921605"><ele>2.0</ele><time>2026-03-30T11:12:46Z</time></trkpt><trkpt lat="39.8854256509908" lon="8.437387679026259"><ele>2.0</ele><time>2026-03-30T11:12:47Z</time></trkpt><trkpt lat="39.88551642379322" lon="8.4373385797903"><ele>2.0</ele><time>2026-03-30T11:12:48Z</time></trkpt><trkpt lat="39.88561331063657" lon="8.437279906380127"><ele>2.0</ele><time>2026-03-30T11:12:49Z</time></trkpt><trkpt lat="39.885718398342156" lon="8.43722401094414"><ele>2.0</ele><time>2026-03-30T11:12:50Z</time></trkpt><trkpt lat="39.88582682133954" lon="8.437167123116984"><ele>2.0</ele><time>2026-03-30T11:12:51Z</time></trkpt><trkpt lat="39.88593725705676" lon="8.437094530960557"><ele>2.0</ele><time>2026-03-30T11:12:52Z</time></trkpt><trkpt lat="39.886060423580524" lon="8.437050638194568"><ele>2.0</ele><time>2026-03-30T11:12:53Z</time></trkpt><trkpt lat="39.88617766162216" lon="8.436989862780754"><ele>2.25</ele><time>2026-03-30T11:12:54.001Z</time></trkpt><trkpt lat="39.88630303380005" lon="8.436924870681686"><ele>2.5</ele><time>2026-03-30T11:12:55.001Z</time></trkpt><trkpt lat="39.88642977793037" lon="8.436859167402663"><ele>2.75</ele><time>2026-03-30T11:12:56.001Z</time></trkpt><trkpt lat="39.88655881911591" lon="8.436792150729476"><ele>3.0</ele><time>2026-03-30T11:12:57.001Z</time></trkpt><trkpt lat="39.88669002115934" lon="8.436723758720126"><ele>2.75</ele><time>2026-03-30T11:12:58.001Z</time></trkpt><trkpt lat="39.88682486019233" lon="8.43665347035511"><ele>2.5</ele><time>2026-03-30T11:12:59.001Z</time></trkpt><trkpt lat="39.88696074612655" lon="8.436573723468292"><ele>2.25</ele><time>2026-03-30T11:13:00.001Z</time></trkpt><trkpt lat="39.88709924752421" lon="8.436496874983156"><ele>2.0</ele><time>2026-03-30T11:13:01.001Z</time></trkpt><trkpt lat="39.88724070730327" lon="8.436431408906188"><ele>2.0</ele><time>2026-03-30T11:13:02.001Z</time></trkpt><trkpt lat="39.88737814399165" lon="8.436366720232877"><ele>2.0</ele><time>2026-03-30T11:13:03.001Z</time></trkpt><trkpt lat="39.887516411925375" lon="8.436298827838755"><ele>2.0</ele><time>2026-03-30T11:13:04.001Z</time></trkpt><trkpt lat="39.88765508808704" lon="8.43622731950232"><ele>2.0</ele><time>2026-03-30T11:13:05.001Z</time></trkpt><trkpt lat="39.88779205159459" lon="8.436146006197529"><ele>2.6666666666666665</ele><time>2026-03-30T11:13:06.001Z</time></trkpt><trkpt lat="39.8879311587518" lon="8.436064689130628"><ele>3.333333333333333</ele><time>2026-03-30T11:13:07.001Z</time></trkpt><trkpt lat="39.88807139249486" lon="8.435991861825633"><ele>4.0</ele><time>2026-03-30T11:13:08.001Z</time></trkpt><trkpt lat="39.88821213648542" lon="8.435922350717421"><ele>4.0</ele><time>2026-03-30T11:13:09.001Z</time></trkpt><trkpt lat="39.888356057510194" lon="8.43585232565206"><ele>4.0</ele><time>2026-03-30T11:13:10.001Z</time></trkpt><trkpt lat="39.88849886024876" lon="8.435778793967742"><ele>4.0</ele><time>2026-03-30T11:13:11.001Z</time></trkpt><trkpt lat="39.888644533693956" lon="8.435702995775914"><ele>5.0</ele><time>2026-03-30T11:13:12.001Z</time></trkpt><trkpt lat="39.88878825608342" lon="8.435633325885386"><ele>6.0</ele><time>2026-03-30T11:13:13.001Z</time></trkpt><trkpt lat="39.8889283139063" lon="8.435561636867474"><ele>7.0</ele><time>2026-03-30T11:13:14.001Z</time></trkpt><trkpt lat="39.88906781394173" lon="8.435488235612405"><ele>7.0</ele><time>2026-03-30T11:13:15.001Z</time></trkpt><trkpt lat="39.8892064815758" lon="8.435415328444337"><ele>7.0</ele><time>2026-03-30T11:13:16.001Z</time></trkpt><trkpt lat="39.88934954458991" lon="8.4353439015352"><ele>7.0</ele><time>2026-03-30T11:13:17.001Z</time></trkpt><trkpt lat="39.88949203261916" lon="8.435280446962135"><ele>7.0</ele><time>2026-03-30T11:13:18.001Z</time></trkpt><trkpt lat="39.88963650407902" lon="8.435222693450108"><ele>7.0</ele><time>2026-03-30T11:13:19.001Z</time></trkpt><trkpt lat="39.889786168214414" lon="8.435174362412113"><ele>7.0</ele><time>2026-03-30T11:13:20.001Z</time></trkpt><trkpt lat="39.8899405621308" lon="8.435138746089162"><ele>7.666666666666667</ele><time>2026-03-30T11:13:21.001Z</time></trkpt><trkpt lat="39.89009269095338" lon="8.435110448964728"><ele>8.333333333333334</ele><time>2026-03-30T11:13:22.001Z</time></trkpt><trkpt lat="39.89025178924277" lon="8.435085892911433"><ele>9.0</ele><time>2026-03-30T11:13:23.001Z</time></trkpt><trkpt lat="39.890408334689084" lon="8.435068244520139"><ele>9.0</ele><time>2026-03-30T11:13:24.001Z</time></trkpt><trkpt lat="39.89056614466039" lon="8.435055726687574"><ele>9.0</ele><time>2026-03-30T11:13:25.001Z</time></trkpt><trkpt lat="39.89073008632328" lon="8.435042535104161"><ele>9.0</ele><time>2026-03-30T11:13:26.001Z</time></trkpt><trkpt lat="39.890892746176874" lon="8.435029674532755"><ele>8.666666666666666</ele><time>2026-03-30T11:13:27.001Z</time></trkpt><trkpt lat="39.89104697104762" lon="8.435020856523078"><ele>8.333333333333332</ele><time>2026-03-30T11:13:28.001Z</time></trkpt><trkpt lat="39.89120417562485" lon="8.435015118206845"><ele>8.0</ele><time>2026-03-30T11:13:29.001Z</time></trkpt><trkpt lat="39.89136111327677" lon="8.435008574025687"><ele>8.0</ele><time>2026-03-30T11:13:30.001Z</time></trkpt><trkpt lat="39.89151834895558" lon="8.435000063305914"><ele>8.0</ele><time>2026-03-30T11:13:31.001Z</time></trkpt><trkpt lat="39.891678946394606" lon="8.434995513356489"><ele>8.0</ele><time>2026-03-30T11:13:32.001Z</time></trkpt><trkpt lat="39.89184506613876" lon="8.434997510334897"><ele>8.333333333333332</ele><time>2026-03-30T11:13:33.001Z</time></trkpt><trkpt lat="39.89200844455514" lon="8.43498783597081"><ele>8.666666666666666</ele><time>2026-03-30T11:13:34.001Z</time></trkpt><trkpt lat="39.892171769614286" lon="8.434974659117268"><ele>9.0</ele><time>2026-03-30T11:13:35.001Z</time></trkpt><trkpt lat="39.89233617461824" lon="8.434957288104215"><ele>9.0</ele><time>2026-03-30T11:13:36.001Z</time></trkpt><trkpt lat="39.892503974134634" lon="8.434939749700433"><ele>9.0</ele><time>2026-03-30T11:13:37.001Z</time></trkpt><trkpt lat="39.89267382090063" lon="8.434926469255792"><ele>9.0</ele><time>2026-03-30T11:13:38.001Z</time></trkpt><trkpt lat="39.892844724839556" lon="8.434917690896837"><ele>9.0</ele><time>2026-03-30T11:13:39.001Z</time></trkpt><trkpt lat="39.89301701353264" lon="8.43490955214167"><ele>9.0</ele><time>2026-03-30T11:13:40.001Z</time></trkpt><trkpt lat="39.89318902320363" lon="8.434903244533729"><ele>9.0</ele><time>2026-03-30T11:13:41.001Z</time></trkpt><trkpt lat="39.89336312698419" lon="8.434891684938046"><ele>9.0</ele><time>2026-03-30T11:13:42.001Z</time></trkpt><trkpt lat="39.89354103319977" lon="8.43488025086844"><ele>9.0</ele><time>2026-03-30T11:13:43.001Z</time></trkpt><trkpt lat="39.89372737326194" lon="8.434866738088505"><ele>9.0</ele><time>2026-03-30T11:13:44.001Z</time></trkpt><trkpt lat="39.89390848405944" lon="8.43485713877932"><ele>9.0</ele><time>2026-03-30T11:13:45.001Z</time></trkpt><trkpt lat="39.89408449893363" lon="8.434846359098323"><ele>9.0</ele><time>2026-03-30T11:13:46.001Z</time></trkpt><trkpt lat="39.89426030781886" lon="8.434835494330203"><ele>9.0</ele><time>2026-03-30T11:13:47.001Z</time></trkpt><trkpt lat="39.89443705169682" lon="8.434823432252363"><ele>9.333333333333334</ele><time>2026-03-30T11:13:48.001Z</time></trkpt><trkpt lat="39.89461233708216" lon="8.43481017690189"><ele>9.666666666666668</ele><time>2026-03-30T11:13:49.001Z</time></trkpt><trkpt lat="39.89478774331647" lon="8.434799433975916"><ele>10.0</ele><time>2026-03-30T11:13:50.001Z</time></trkpt><trkpt lat="39.89496374121287" lon="8.43478610064235"><ele>9.666666666666668</ele><time>2026-03-30T11:13:51.001Z</time></trkpt><trkpt lat="39.895141605500925" lon="8.43477532473244"><ele>9.333333333333334</ele><time>2026-03-30T11:13:52.001Z</time></trkpt><trkpt lat="39.89531952391459" lon="8.434761911412137"><ele>9.0</ele><time>2026-03-30T11:13:53.001Z</time></trkpt><trkpt lat="39.89549725057371" lon="8.43474950648313"><ele>9.0</ele><time>2026-03-30T11:13:54.001Z</time></trkpt><trkpt lat="39.89567335969151" lon="8.434736313644056"><ele>9.0</ele><time>2026-03-30T11:13:55.001Z</time></trkpt><trkpt lat="39.89585188441679" lon="8.43472581053332"><ele>9.0</ele><time>2026-03-30T11:13:56.001Z</time></trkpt><trkpt lat="39.89602798301832" lon="8.434717050682526"><ele>9.0</ele><time>2026-03-30T11:13:57.001Z</time></trkpt><trkpt lat="39.89620402014568" lon="8.434706063530871"><ele>9.0</ele><time>2026-03-30T11:13:58.001Z</time></trkpt><trkpt lat="39.896382657732005" lon="8.434695466305312"><ele>9.0</ele><time>2026-03-30T11:13:59.001Z</time></trkpt><trkpt lat="39.896563603080004" lon="8.434680697730752"><ele>9.0</ele><time>2026-03-30T11:14:00.001Z</time></trkpt><trkpt lat="39.896743535371435" lon="8.43466869007232"><ele>9.0</ele><time>2026-03-30T11:14:01.001Z</time></trkpt><trkpt lat="39.896926378214275" lon="8.434657418422168"><ele>9.0</ele><time>2026-03-30T11:14:02.001Z</time></trkpt><trkpt lat="39.89710614917834" lon="8.434647024702475"><ele>11.0</ele><time>2026-03-30T11:14:03.001Z</time></trkpt><trkpt lat="39.897286667023366" lon="8.434634677617817"><ele>13.0</ele><time>2026-03-30T11:14:04.001Z</time></trkpt><trkpt lat="39.8974681630763" lon="8.434619898817319"><ele>15.0</ele><time>2026-03-30T11:14:05.001Z</time></trkpt><trkpt lat="39.897648983985704" lon="8.434608987149153"><ele>15.666666666666668</ele><time>2026-03-30T11:14:06.002Z</time></trkpt><trkpt lat="39.89782886280451" lon="8.43459537502422"><ele>16.333333333333336</ele><time>2026-03-30T11:14:07.002Z</time></trkpt><trkpt lat="39.898013767896416" lon="8.434584984030884"><ele>17.0</ele><time>2026-03-30T11:14:08.002Z</time></trkpt><trkpt lat="39.89820330006889" lon="8.434590018665238"><ele>17.0</ele><time>2026-03-30T11:14:09.002Z</time></trkpt><trkpt lat="39.89839388851038" lon="8.43463484607622"><ele>17.0</ele><time>2026-03-30T11:14:10.002Z</time></trkpt><trkpt lat="39.89857938012007" lon="8.434701662761025"><ele>17.0</ele><time>2026-03-30T11:14:11.002Z</time></trkpt><trkpt lat="39.89874453991197" lon="8.434763601198167"><ele>15.333333333333334</ele><time>2026-03-30T11:14:12.002Z</time></trkpt><trkpt lat="39.89891986527085" lon="8.434840350892404"><ele>13.666666666666668</ele><time>2026-03-30T11:14:13.002Z</time></trkpt><trkpt lat="39.89909916039806" lon="8.434915410919901"><ele>12.0</ele><time>2026-03-30T11:14:14.002Z</time></trkpt><trkpt lat="39.89928351719271" lon="8.43498760409103"><ele>12.0</ele><time>2026-03-30T11:14:15.002Z</time></trkpt><trkpt lat="39.899468392588744" lon="8.435057070858557"><ele>12.0</ele><time>2026-03-30T11:14:16.002Z</time></trkpt><trkpt lat="39.899652969512104" lon="8.435130724201802"><ele>12.0</ele><time>2026-03-30T11:14:17.002Z</time></trkpt><trkpt lat="39.89983458381256" lon="8.435207143260449"><ele>12.0</ele><time>2026-03-30T11:14:18.001Z</time></trkpt><trkpt lat="39.90001744066204" lon="8.435279224282331"><ele>12.0</ele><time>2026-03-30T11:14:19.001Z</time></trkpt><trkpt lat="39.900202638191324" lon="8.435350320219095"><ele>12.0</ele><time>2026-03-30T11:14:20.001Z</time></trkpt><trkpt lat="39.90038793421675" lon="8.435422106063479"><ele>11.0</ele><time>2026-03-30T11:14:21.001Z</time></trkpt><trkpt lat="39.90057458126308" lon="8.435498460386361"><ele>10.0</ele><time>2026-03-30T11:14:22.001Z</time></trkpt><trkpt lat="39.90076159898861" lon="8.435572125174287"><ele>9.0</ele><time>2026-03-30T11:14:23.001Z</time></trkpt><trkpt lat="39.90094871889094" lon="8.43564647420272"><ele>9.0</ele><time>2026-03-30T11:14:24.001Z</time></trkpt><trkpt lat="39.901135729286935" lon="8.435722522501933"><ele>9.0</ele><time>2026-03-30T11:14:25.001Z</time></trkpt><trkpt lat="39.90132422156343" lon="8.43579681850962"><ele>9.0</ele><time>2026-03-30T11:14:26.001Z</time></trkpt><trkpt lat="39.9015112521303" lon="8.435872654526161"><ele>9.0</ele><time>2026-03-30T11:14:27.001Z</time></trkpt><trkpt lat="39.90170202691946" lon="8.435948197193271"><ele>9.0</ele><time>2026-03-30T11:14:28.001Z</time></trkpt><trkpt lat="39.90189324246032" lon="8.436022945188776"><ele>9.0</ele><time>2026-03-30T11:14:29.001Z</time></trkpt><trkpt lat="39.90208273017141" lon="8.436096065760955"><ele>9.333333333333334</ele><time>2026-03-30T11:14:30.001Z</time></trkpt><trkpt lat="39.90227120831563" lon="8.436165811975185"><ele>9.666666666666668</ele><time>2026-03-30T11:14:31.001Z</time></trkpt><trkpt lat="39.90246193536054" lon="8.436238707610691"><ele>10.0</ele><time>2026-03-30T11:14:32.001Z</time></trkpt><trkpt lat="39.90264908595393" lon="8.436314088840543"><ele>9.333333333333334</ele><time>2026-03-30T11:14:33.001Z</time></trkpt><trkpt lat="39.90283658807522" lon="8.436388510735137"><ele>8.666666666666666</ele><time>2026-03-30T11:14:34.001Z</time></trkpt><trkpt lat="39.903025336540345" lon="8.436460456306559"><ele>8.0</ele><time>2026-03-30T11:14:35.001Z</time></trkpt><trkpt lat="39.903207751125" lon="8.436534735135707"><ele>8.0</ele><time>2026-03-30T11:14:36.001Z</time></trkpt><trkpt lat="39.90338891650063" lon="8.436610998231824"><ele>8.0</ele><time>2026-03-30T11:14:37.001Z</time></trkpt><trkpt lat="39.90357157148909" lon="8.436687489731469"><ele>8.0</ele><time>2026-03-30T11:14:38.001Z</time></trkpt><trkpt lat="39.90375110740081" lon="8.43675681543328"><ele>8.0</ele><time>2026-03-30T11:14:39.001Z</time></trkpt><trkpt lat="39.90392960550601" lon="8.436826840669157"><ele>8.0</ele><time>2026-03-30T11:14:40.001Z</time></trkpt><trkpt lat="39.9041099819985" lon="8.43690198544747"><ele>8.0</ele><time>2026-03-30T11:14:41.001Z</time></trkpt><trkpt lat="39.90428821688072" lon="8.436973991505965"><ele>8.333333333333332</ele><time>2026-03-30T11:14:42.001Z</time></trkpt><trkpt lat="39.904468244110916" lon="8.437042935304591"><ele>8.666666666666666</ele><time>2026-03-30T11:14:43.001Z</time></trkpt><trkpt lat="39.90464840564538" lon="8.437110936667025"><ele>9.0</ele><time>2026-03-30T11:14:44.001Z</time></trkpt><trkpt lat="39.90482892816492" lon="8.437179793598112"><ele>8.666666666666666</ele><time>2026-03-30T11:14:45.001Z</time></trkpt><trkpt lat="39.905009615984746" lon="8.437251417785797"><ele>8.333333333333332</ele><time>2026-03-30T11:14:46.001Z</time></trkpt><trkpt lat="39.905187321715154" lon="8.437323778731146"><ele>8.0</ele><time>2026-03-30T11:14:47.001Z</time></trkpt><trkpt lat="39.905366785207725" lon="8.437397877173476"><ele>8.0</ele><time>2026-03-30T11:14:48.001Z</time></trkpt><trkpt lat="39.90554662573481" lon="8.43746932546587"><ele>8.0</ele><time>2026-03-30T11:14:49.001Z</time></trkpt><trkpt lat="39.90572748774174" lon="8.437544185127797"><ele>8.0</ele><time>2026-03-30T11:14:50.001Z</time></trkpt><trkpt lat="39.9059052174208" lon="8.43761425148937"><ele>8.0</ele><time>2026-03-30T11:14:51.001Z</time></trkpt><trkpt lat="39.906085835644724" lon="8.43768480981145"><ele>8.0</ele><time>2026-03-30T11:14:52.001Z</time></trkpt><trkpt lat="39.90626221284793" lon="8.437758925808597"><ele>8.0</ele><time>2026-03-30T11:14:53.001Z</time></trkpt><trkpt lat="39.90643787817212" lon="8.43783209579552"><ele>8.0</ele><time>2026-03-30T11:14:54.001Z</time></trkpt><trkpt lat="39.906613073855276" lon="8.437898486011658"><ele>8.0</ele><time>2026-03-30T11:14:55.001Z</time></trkpt><trkpt lat="39.90679123854365" lon="8.43796446182799"><ele>8.0</ele><time>2026-03-30T11:14:56.001Z</time></trkpt><trkpt lat="39.906966751302996" lon="8.438034151809315"><ele>7.333333333333333</ele><time>2026-03-30T11:14:57.001Z</time></trkpt><trkpt lat="39.90714523184108" lon="8.438102657761338"><ele>6.666666666666666</ele><time>2026-03-30T11:14:58.001Z</time></trkpt><trkpt lat="39.90732096848355" lon="8.438172464965307"><ele>6.0</ele><time>2026-03-30T11:14:59.001Z</time></trkpt><trkpt lat="39.90749870440252" lon="8.43824729609429"><ele>5.333333333333333</ele><time>2026-03-30T11:15:00.001Z</time></trkpt><trkpt lat="39.90767806513002" lon="8.438322106141348"><ele>4.666666666666666</ele><time>2026-03-30T11:15:01.001Z</time></trkpt><trkpt lat="39.90785782368806" lon="8.4383912036217"><ele>4.0</ele><time>2026-03-30T11:15:02.001Z</time></trkpt><trkpt lat="39.908043395483986" lon="8.438462887424908"><ele>4.0</ele><time>2026-03-30T11:15:03.001Z</time></trkpt><trkpt lat="39.90822538036376" lon="8.438534429786266"><ele>4.0</ele><time>2026-03-30T11:15:04.001Z</time></trkpt><trkpt lat="39.90840849550672" lon="8.43860792793738"><ele>4.0</ele><time>2026-03-30T11:15:05.001Z</time></trkpt><trkpt lat="39.908588122017385" lon="8.438682671008108"><ele>4.333333333333333</ele><time>2026-03-30T11:15:06.001Z</time></trkpt><trkpt lat="39.908770822363635" lon="8.438753430077089"><ele>4.666666666666667</ele><time>2026-03-30T11:15:07.001Z</time></trkpt><trkpt lat="39.90895219599312" lon="8.438824512586185"><ele>5.0</ele><time>2026-03-30T11:15:08.001Z</time></trkpt><trkpt lat="39.90913302020514" lon="8.438896613752783"><ele>5.0</ele><time>2026-03-30T11:15:09.001Z</time></trkpt><trkpt lat="39.909318063444985" lon="8.43897225639862"><ele>5.0</ele><time>2026-03-30T11:15:10.001Z</time></trkpt><trkpt lat="39.909499693171284" lon="8.439044666931915"><ele>5.0</ele><time>2026-03-30T11:15:11.001Z</time></trkpt><trkpt lat="39.90968631329142" lon="8.439120181852926"><ele>5.0</ele><time>2026-03-30T11:15:12.001Z</time></trkpt><trkpt lat="39.90987549288284" lon="8.439198468495041"><ele>5.0</ele><time>2026-03-30T11:15:13.001Z</time></trkpt><trkpt lat="39.91005509642692" lon="8.439284269615985"><ele>5.0</ele><time>2026-03-30T11:15:14.001Z</time></trkpt><trkpt lat="39.9102219200655" lon="8.439400835428318"><ele>5.0</ele><time>2026-03-30T11:15:15.001Z</time></trkpt><trkpt lat="39.910369698438934" lon="8.439558101532999"><ele>5.0</ele><time>2026-03-30T11:15:16.001Z</time></trkpt><trkpt lat="39.910496318168846" lon="8.439751825541276"><ele>5.0</ele><time>2026-03-30T11:15:17.001Z</time></trkpt><trkpt lat="39.91060325102983" lon="8.43996347436814"><ele>5.0</ele><time>2026-03-30T11:15:18.001Z</time></trkpt><trkpt lat="39.91070005946613" lon="8.44018647602725"><ele>5.0</ele><time>2026-03-30T11:15:19.001Z</time></trkpt><trkpt lat="39.91079877654903" lon="8.440409603927147"><ele>5.0</ele><time>2026-03-30T11:15:20.001Z</time></trkpt><trkpt lat="39.91090493336044" lon="8.44063392791593"><ele>5.0</ele><time>2026-03-30T11:15:21.001Z</time></trkpt><trkpt lat="39.91101384812464" lon="8.440853151379386"><ele>5.0</ele><time>2026-03-30T11:15:22.001Z</time></trkpt><trkpt lat="39.91112363024636" lon="8.441077117519628"><ele>5.0</ele><time>2026-03-30T11:15:23.001Z</time></trkpt><trkpt lat="39.91123295888221" lon="8.441305650254977"><ele>4.666666666666667</ele><time>2026-03-30T11:15:24.001Z</time></trkpt><trkpt lat="39.911341278851616" lon="8.441537014357216"><ele>4.333333333333333</ele><time>2026-03-30T11:15:25.001Z</time></trkpt><trkpt lat="39.91144892381463" lon="8.441760791787358"><ele>4.0</ele><time>2026-03-30T11:15:26.001Z</time></trkpt><trkpt lat="39.911555974277114" lon="8.441982202332182"><ele>4.0</ele><time>2026-03-30T11:15:27.001Z</time></trkpt><trkpt lat="39.911656651137456" lon="8.44220371720424"><ele>4.0</ele><time>2026-03-30T11:15:28.001Z</time></trkpt><trkpt lat="39.91175770809408" lon="8.442425232786885"><ele>4.0</ele><time>2026-03-30T11:15:29.001Z</time></trkpt><trkpt lat="39.91185954385908" lon="8.442646989892896"><ele>4.0</ele><time>2026-03-30T11:15:30.001Z</time></trkpt><trkpt lat="39.91196111765646" lon="8.442864242763752"><ele>4.0</ele><time>2026-03-30T11:15:31.001Z</time></trkpt><trkpt lat="39.91207044099522" lon="8.44307483536545"><ele>4.0</ele><time>2026-03-30T11:15:32.001Z</time></trkpt><trkpt lat="39.91217788941384" lon="8.443285942167533"><ele>4.0</ele><time>2026-03-30T11:15:33.001Z</time></trkpt><trkpt lat="39.91227926787019" lon="8.443501819364588"><ele>4.0</ele><time>2026-03-30T11:15:34.001Z</time></trkpt><trkpt lat="39.91237979903723" lon="8.443717543395161"><ele>4.0</ele><time>2026-03-30T11:15:35.001Z</time></trkpt><trkpt lat="39.91248212085762" lon="8.443932446510834"><ele>4.0</ele><time>2026-03-30T11:15:36.001Z</time></trkpt><trkpt lat="39.91258307623054" lon="8.444151395668536"><ele>4.0</ele><time>2026-03-30T11:15:37.001Z</time></trkpt><trkpt lat="39.91268461070656" lon="8.444369816548098"><ele>4.0</ele><time>2026-03-30T11:15:38.001Z</time></trkpt><trkpt lat="39.91278571526603" lon="8.44459012606729"><ele>3.6666666666666665</ele><time>2026-03-30T11:15:39.001Z</time></trkpt><trkpt lat="39.9128895197941" lon="8.444805927560248"><ele>3.333333333333333</ele><time>2026-03-30T11:15:40.001Z</time></trkpt><trkpt lat="39.912994029863036" lon="8.445025909733479"><ele>3.0</ele><time>2026-03-30T11:15:41.001Z</time></trkpt><trkpt lat="39.91309923874658" lon="8.445246750900415"><ele>2.6666666666666665</ele><time>2026-03-30T11:15:42.001Z</time></trkpt><trkpt lat="39.91320605377269" lon="8.445465778671812"><ele>2.333333333333333</ele><time>2026-03-30T11:15:43.001Z</time></trkpt><trkpt lat="39.91331179925333" lon="8.445686533507685"><ele>2.0</ele><time>2026-03-30T11:15:44.001Z</time></trkpt><trkpt lat="39.91341586399724" lon="8.445911280321448"><ele>2.0</ele><time>2026-03-30T11:15:45.001Z</time></trkpt><trkpt lat="39.91352092948221" lon="8.44613682257516"><ele>2.0</ele><time>2026-03-30T11:15:46.001Z</time></trkpt><trkpt lat="39.913626950611956" lon="8.446358746870711"><ele>2.0</ele><time>2026-03-30T11:15:47.001Z</time></trkpt><trkpt lat="39.91373179409949" lon="8.446578253782068"><ele>2.333333333333333</ele><time>2026-03-30T11:15:48.001Z</time></trkpt><trkpt lat="39.9138339298574" lon="8.446806831498503"><ele>2.6666666666666665</ele><time>2026-03-30T11:15:49.001Z</time></trkpt><trkpt lat="39.913940884853304" lon="8.447029982866415"><ele>3.0</ele><time>2026-03-30T11:15:50.001Z</time></trkpt><trkpt lat="39.91404850734845" lon="8.447249210219878"><ele>3.0</ele><time>2026-03-30T11:15:51.001Z</time></trkpt><trkpt lat="39.91415506842905" lon="8.447471865090572"><ele>3.0</ele><time>2026-03-30T11:15:52.001Z</time></trkpt><trkpt lat="39.914258985096936" lon="8.447694663335445"><ele>3.0</ele><time>2026-03-30T11:15:53.001Z</time></trkpt><trkpt lat="39.91436439562803" lon="8.447917379287057"><ele>3.333333333333333</ele><time>2026-03-30T11:15:54.001Z</time></trkpt><trkpt lat="39.91446910437705" lon="8.448140462641781"><ele>3.6666666666666665</ele><time>2026-03-30T11:15:55.001Z</time></trkpt><trkpt lat="39.914573913466945" lon="8.448366495948767"><ele>4.0</ele><time>2026-03-30T11:15:56.001Z</time></trkpt><trkpt lat="39.9146774517175" lon="8.44859226470926"><ele>4.333333333333333</ele><time>2026-03-30T11:15:57.001Z</time></trkpt><trkpt lat="39.914784282589714" lon="8.448816278514423"><ele>4.666666666666667</ele><time>2026-03-30T11:15:58.001Z</time></trkpt><trkpt lat="39.9148876883211" lon="8.449041555038063"><ele>5.0</ele><time>2026-03-30T11:15:59.001Z</time></trkpt><trkpt lat="39.91498938793685" lon="8.44926594654319"><ele>5.0</ele><time>2026-03-30T11:16:00.001Z</time></trkpt><trkpt lat="39.91509532274349" lon="8.44948734642374"><ele>5.0</ele><time>2026-03-30T11:16:01.001Z</time></trkpt><trkpt lat="39.91520350308489" lon="8.449709858381345"><ele>5.0</ele><time>2026-03-30T11:16:02.001Z</time></trkpt><trkpt lat="39.91531115092355" lon="8.449934623632936"><ele>5.0</ele><time>2026-03-30T11:16:03.002Z</time></trkpt><trkpt lat="39.91541526347569" lon="8.450157001683925"><ele>5.0</ele><time>2026-03-30T11:16:04.002Z</time></trkpt><trkpt lat="39.91551393464503" lon="8.450371242457857"><ele>5.0</ele><time>2026-03-30T11:16:05.002Z</time></trkpt><trkpt lat="39.91561314650748" lon="8.450576624650159"><ele>5.0</ele><time>2026-03-30T11:16:06.002Z</time></trkpt><trkpt lat="39.91570611072427" lon="8.4507885912919"><ele>5.0</ele><time>2026-03-30T11:16:07.002Z</time></trkpt><trkpt lat="39.91576920206939" lon="8.4510137623316"><ele>5.0</ele><time>2026-03-30T11:16:08.002Z</time></trkpt><trkpt lat="39.91579535095494" lon="8.451250637387316"><ele>4.666666666666667</ele><time>2026-03-30T11:16:09.002Z</time></trkpt><trkpt lat="39.91579314011629" lon="8.451482404011342"><ele>4.333333333333333</ele><time>2026-03-30T11:16:10.002Z</time></trkpt><trkpt lat="39.91578737392615" lon="8.451700798427797"><ele>4.0</ele><time>2026-03-30T11:16:11.002Z</time></trkpt><trkpt lat="39.91579092972516" lon="8.451909855717904"><ele>4.0</ele><time>2026-03-30T11:16:12.002Z</time></trkpt><trkpt lat="39.91579258112945" lon="8.452106781027885"><ele>4.0</ele><time>2026-03-30T11:16:13.002Z</time></trkpt><trkpt lat="39.915777858601295" lon="8.452292573903263"><ele>4.0</ele><time>2026-03-30T11:16:14.002Z</time></trkpt><trkpt lat="39.91574613474653" lon="8.452465942452383"><ele>4.0</ele><time>2026-03-30T11:16:15.002Z</time></trkpt><trkpt lat="39.91572536915601" lon="8.452628202253138"><ele>4.25</ele><time>2026-03-30T11:16:16.002Z</time></trkpt><trkpt lat="39.915740680019" lon="8.452800213893255"><ele>4.5</ele><time>2026-03-30T11:16:17.002Z</time></trkpt><trkpt lat="39.91577317853116" lon="8.452979178953818"><ele>4.75</ele><time>2026-03-30T11:16:18.002Z</time></trkpt><trkpt lat="39.91578787269442" lon="8.453171980486447"><ele>5.0</ele><time>2026-03-30T11:16:19.002Z</time></trkpt><trkpt lat="39.91578352548749" lon="8.453577184332694"><ele>4.333333333333334</ele><time>2026-03-30T11:16:21.002Z</time></trkpt><trkpt lat="39.915781286689395" lon="8.453791850353277"><ele>3.666666666666667</ele><time>2026-03-30T11:16:22.002Z</time></trkpt><trkpt lat="39.91577819036316" lon="8.454023300032423"><ele>3.0</ele><time>2026-03-30T11:16:23.002Z</time></trkpt><trkpt lat="39.9157743709991" lon="8.45426039897796"><ele>3.0</ele><time>2026-03-30T11:16:24.001Z</time></trkpt><trkpt lat="39.915778908169194" lon="8.454505772063117"><ele>3.0</ele><time>2026-03-30T11:16:25.001Z</time></trkpt><trkpt lat="39.915783187361946" lon="8.454753821141368"><ele>3.0</ele><time>2026-03-30T11:16:26.001Z</time></trkpt><trkpt lat="39.9157866422361" lon="8.454997338535836"><ele>3.0</ele><time>2026-03-30T11:16:27.001Z</time></trkpt><trkpt lat="39.91578672730679" lon="8.455237394815121"><ele>3.0</ele><time>2026-03-30T11:16:28.001Z</time></trkpt><trkpt lat="39.91578659577301" lon="8.455474256291263"><ele>3.0</ele><time>2026-03-30T11:16:29.001Z</time></trkpt><trkpt lat="39.91578626067049" lon="8.455703536778994"><ele>3.0</ele><time>2026-03-30T11:16:30.001Z</time></trkpt><trkpt lat="39.915784602857975" lon="8.455940540935014"><ele>3.0</ele><time>2026-03-30T11:16:31.001Z</time></trkpt><trkpt lat="39.91578179241502" lon="8.45617395605639"><ele>3.0</ele><time>2026-03-30T11:16:32.001Z</time></trkpt><trkpt lat="39.9157812424225" lon="8.4564061598821"><ele>3.333333333333333</ele><time>2026-03-30T11:16:33.001Z</time></trkpt><trkpt lat="39.91578305295359" lon="8.45663570486188"><ele>3.6666666666666665</ele><time>2026-03-30T11:16:34.001Z</time></trkpt><trkpt lat="39.91578586315126" lon="8.456862709414782"><ele>4.0</ele><time>2026-03-30T11:16:35.001Z</time></trkpt><trkpt lat="39.91578674020268" lon="8.457090376609658"><ele>4.333333333333333</ele><time>2026-03-30T11:16:36.001Z</time></trkpt><trkpt lat="39.91578661353245" lon="8.45732166806544"><ele>4.666666666666667</ele><time>2026-03-30T11:16:37.001Z</time></trkpt><trkpt lat="39.91578677254099" lon="8.457555360713403"><ele>5.0</ele><time>2026-03-30T11:16:38.001Z</time></trkpt><trkpt lat="39.91578653739924" lon="8.45779169057572"><ele>4.333333333333334</ele><time>2026-03-30T11:16:39.001Z</time></trkpt><trkpt lat="39.915789343188564" lon="8.458028501787512"><ele>3.666666666666667</ele><time>2026-03-30T11:16:40.001Z</time></trkpt><trkpt lat="39.91579052921777" lon="8.458267530640464"><ele>3.0</ele><time>2026-03-30T11:16:41.001Z</time></trkpt><trkpt lat="39.915789897783185" lon="8.458510027352792"><ele>3.0</ele><time>2026-03-30T11:16:42.001Z</time></trkpt><trkpt lat="39.915787569061926" lon="8.458752403364256"><ele>3.0</ele><time>2026-03-30T11:16:43.001Z</time></trkpt><trkpt lat="39.91578407184302" lon="8.4589957970968"><ele>3.0</ele><time>2026-03-30T11:16:44.001Z</time></trkpt><trkpt lat="39.915784341338" lon="8.45924231080673"><ele>3.0</ele><time>2026-03-30T11:16:45.001Z</time></trkpt><trkpt lat="39.915783915340896" lon="8.459487621734768"><ele>3.0</ele><time>2026-03-30T11:16:46.001Z</time></trkpt><trkpt lat="39.91578599864943" lon="8.45973172545049"><ele>3.0</ele><time>2026-03-30T11:16:47.001Z</time></trkpt><trkpt lat="39.915788110471766" lon="8.459974755817"><ele>3.0</ele><time>2026-03-30T11:16:48.001Z</time></trkpt><trkpt lat="39.915790852036146" lon="8.460220772757598"><ele>3.0</ele><time>2026-03-30T11:16:49.001Z</time></trkpt><trkpt lat="39.91579266452493" lon="8.460467660960648"><ele>3.0</ele><time>2026-03-30T11:16:50.001Z</time></trkpt><trkpt lat="39.91579448854086" lon="8.460718466001142"><ele>3.333333333333333</ele><time>2026-03-30T11:16:51.001Z</time></trkpt><trkpt lat="39.91579600133266" lon="8.460966171706739"><ele>3.6666666666666665</ele><time>2026-03-30T11:16:52.001Z</time></trkpt><trkpt lat="39.915797149158166" lon="8.461214211803691"><ele>4.0</ele><time>2026-03-30T11:16:53.001Z</time></trkpt><trkpt lat="39.91579666425774" lon="8.461460678191111"><ele>4.0</ele><time>2026-03-30T11:16:54.001Z</time></trkpt><trkpt lat="39.915793785574905" lon="8.461706361811183"><ele>4.0</ele><time>2026-03-30T11:16:55.001Z</time></trkpt><trkpt lat="39.9157918967981" lon="8.461951379191552"><ele>4.0</ele><time>2026-03-30T11:16:56.001Z</time></trkpt><trkpt lat="39.915791106819235" lon="8.462194771075943"><ele>4.333333333333333</ele><time>2026-03-30T11:16:57.001Z</time></trkpt><trkpt lat="39.91579303341304" lon="8.46243738142169"><ele>4.666666666666667</ele><time>2026-03-30T11:16:58.001Z</time></trkpt><trkpt lat="39.91579511486708" lon="8.462679552611995"><ele>5.0</ele><time>2026-03-30T11:16:59.001Z</time></trkpt><trkpt lat="39.91579590072535" lon="8.462923665591745"><ele>4.333333333333334</ele><time>2026-03-30T11:17:00.001Z</time></trkpt><trkpt lat="39.91579572387254" lon="8.463168737909019"><ele>3.666666666666667</ele><time>2026-03-30T11:17:01.001Z</time></trkpt><trkpt lat="39.915795310560455" lon="8.463416438558026"><ele>3.0</ele><time>2026-03-30T11:17:02.001Z</time></trkpt><trkpt lat="39.91579418215934" lon="8.46366698359427"><ele>3.333333333333333</ele><time>2026-03-30T11:17:03.001Z</time></trkpt><trkpt lat="39.91579374525659" lon="8.46391982292782"><ele>3.6666666666666665</ele><time>2026-03-30T11:17:04.001Z</time></trkpt><trkpt lat="39.91579301696634" lon="8.464171094140193"><ele>4.0</ele><time>2026-03-30T11:17:05.001Z</time></trkpt><trkpt lat="39.91579380982294" lon="8.464424419630916"><ele>3.0</ele><time>2026-03-30T11:17:06.001Z</time></trkpt><trkpt lat="39.915795745922566" lon="8.464681210534271"><ele>2.0</ele><time>2026-03-30T11:17:07.001Z</time></trkpt><trkpt lat="39.91579831744812" lon="8.465201046345742"><ele>2.333333333333333</ele><time>2026-03-30T11:17:09.001Z</time></trkpt><trkpt lat="39.91579837917796" lon="8.46546381977584"><ele>2.6666666666666665</ele><time>2026-03-30T11:17:10.001Z</time></trkpt><trkpt lat="39.91580388736088" lon="8.465729631196908"><ele>3.0</ele><time>2026-03-30T11:17:11.001Z</time></trkpt><trkpt lat="39.915827235785734" lon="8.466008770215234"><ele>3.0</ele><time>2026-03-30T11:17:12.001Z</time></trkpt><trkpt lat="39.91585941985609" lon="8.466295930057324"><ele>3.0</ele><time>2026-03-30T11:17:13.001Z</time></trkpt><trkpt lat="39.91589265162772" lon="8.46657660345742"><ele>3.0</ele><time>2026-03-30T11:17:14.001Z</time></trkpt><trkpt lat="39.91591982100195" lon="8.466851368554382"><ele>3.0</ele><time>2026-03-30T11:17:15.001Z</time></trkpt><trkpt lat="39.91594706532452" lon="8.46712404960628"><ele>3.0</ele><time>2026-03-30T11:17:16.001Z</time></trkpt><trkpt lat="39.91597440062601" lon="8.467397201505399"><ele>3.0</ele><time>2026-03-30T11:17:17.001Z</time></trkpt><trkpt lat="39.91600226093872" lon="8.467670888555261"><ele>2.6666666666666665</ele><time>2026-03-30T11:17:18.001Z</time></trkpt><trkpt lat="39.916029749378644" lon="8.467946147557937"><ele>2.333333333333333</ele><time>2026-03-30T11:17:19.001Z</time></trkpt><trkpt lat="39.91605835945965" lon="8.468221514031221"><ele>2.0</ele><time>2026-03-30T11:17:20.001Z</time></trkpt><trkpt lat="39.91608789144371" lon="8.46849460813152"><ele>2.0</ele><time>2026-03-30T11:17:21.001Z</time></trkpt><trkpt lat="39.91611797758257" lon="8.46876686975988"><ele>2.0</ele><time>2026-03-30T11:17:22.001Z</time></trkpt><trkpt lat="39.91614820061065" lon="8.469037857520844"><ele>2.0</ele><time>2026-03-30T11:17:23.001Z</time></trkpt><trkpt lat="39.916175850308115" lon="8.469306247547781"><ele>2.0</ele><time>2026-03-30T11:17:24.001Z</time></trkpt><trkpt lat="39.91620541860297" lon="8.46957612970305"><ele>2.0</ele><time>2026-03-30T11:17:25.001Z</time></trkpt><trkpt lat="39.91623464764698" lon="8.469845722335315"><ele>2.0</ele><time>2026-03-30T11:17:26.001Z</time></trkpt><trkpt lat="39.916263264842065" lon="8.470115361412475"><ele>2.0</ele><time>2026-03-30T11:17:27.001Z</time></trkpt><trkpt lat="39.916291706197576" lon="8.470386317016706"><ele>2.0</ele><time>2026-03-30T11:17:28.001Z</time></trkpt><trkpt lat="39.91632060409069" lon="8.470660191575526"><ele>2.0</ele><time>2026-03-30T11:17:29.001Z</time></trkpt><trkpt lat="39.91634998239087" lon="8.470932730814688"><ele>2.0</ele><time>2026-03-30T11:17:30.001Z</time></trkpt><trkpt lat="39.91637770496365" lon="8.471209691166395"><ele>2.0</ele><time>2026-03-30T11:17:31.001Z</time></trkpt><trkpt lat="39.916406814774994" lon="8.471481642500187"><ele>2.0</ele><time>2026-03-30T11:17:32.001Z</time></trkpt><trkpt lat="39.916435981388375" lon="8.47175410637646"><ele>2.0</ele><time>2026-03-30T11:17:33.001Z</time></trkpt><trkpt lat="39.91646552985753" lon="8.472023633074633"><ele>2.0</ele><time>2026-03-30T11:17:34.001Z</time></trkpt><trkpt lat="39.916494035530306" lon="8.47228931839954"><ele>2.0</ele><time>2026-03-30T11:17:35.001Z</time></trkpt><trkpt lat="39.916518674541265" lon="8.472560639160271"><ele>2.0</ele><time>2026-03-30T11:17:36.001Z</time></trkpt><trkpt lat="39.91654925255437" lon="8.472821054924477"><ele>2.0</ele><time>2026-03-30T11:17:37.001Z</time></trkpt><trkpt lat="39.916584932104044" lon="8.4730804211319"><ele>2.0</ele><time>2026-03-30T11:17:38.001Z</time></trkpt><trkpt lat="39.916613706330196" lon="8.473337098187866"><ele>2.0</ele><time>2026-03-30T11:17:39.001Z</time></trkpt><trkpt lat="39.916641031894244" lon="8.473595262239769"><ele>2.0</ele><time>2026-03-30T11:17:40.001Z</time></trkpt><trkpt lat="39.916666646361" lon="8.473852713897202"><ele>2.0</ele><time>2026-03-30T11:17:41.001Z</time></trkpt><trkpt lat="39.91668967055948" lon="8.474107424076193"><ele>2.0</ele><time>2026-03-30T11:17:42.001Z</time></trkpt><trkpt lat="39.916712525676616" lon="8.474360584241852"><ele>2.0</ele><time>2026-03-30T11:17:43.001Z</time></trkpt><trkpt lat="39.91672704522404" lon="8.47461650666096"><ele>2.0</ele><time>2026-03-30T11:17:44.001Z</time></trkpt><trkpt lat="39.9167119485928" lon="8.474870701585308"><ele>2.0</ele><time>2026-03-30T11:17:45.001Z</time></trkpt><trkpt lat="39.91668393801183" lon="8.475124367562117"><ele>2.0</ele><time>2026-03-30T11:17:46.001Z</time></trkpt><trkpt lat="39.9166597160708" lon="8.47538521191649"><ele>2.0</ele><time>2026-03-30T11:17:47.001Z</time></trkpt><trkpt lat="39.91663479868508" lon="8.475650987239923"><ele>2.333333333333333</ele><time>2026-03-30T11:17:48.001Z</time></trkpt><trkpt lat="39.916613941346775" lon="8.475915087256775"><ele>2.6666666666666665</ele><time>2026-03-30T11:17:49.001Z</time></trkpt><trkpt lat="39.91659526371797" lon="8.476182863783714"><ele>3.0</ele><time>2026-03-30T11:17:50.001Z</time></trkpt><trkpt lat="39.916576699681094" lon="8.476446157555714"><ele>3.0</ele><time>2026-03-30T11:17:51.001Z</time></trkpt><trkpt lat="39.91655775602845" lon="8.476710470927271"><ele>3.0</ele><time>2026-03-30T11:17:52.001Z</time></trkpt><trkpt lat="39.91653894625196" lon="8.476977573517122"><ele>3.0</ele><time>2026-03-30T11:17:53.001Z</time></trkpt><trkpt lat="39.91651805672607" lon="8.477242228154815"><ele>3.0</ele><time>2026-03-30T11:17:54.001Z</time></trkpt><trkpt lat="39.91649847663908" lon="8.477507860542117"><ele>3.0</ele><time>2026-03-30T11:17:55.001Z</time></trkpt><trkpt lat="39.916480639408654" lon="8.477775310590458"><ele>3.0</ele><time>2026-03-30T11:17:56.001Z</time></trkpt><trkpt lat="39.91646014349951" lon="8.478042583392494"><ele>2.6666666666666665</ele><time>2026-03-30T11:17:57.001Z</time></trkpt><trkpt lat="39.91643829907621" lon="8.478310468511639"><ele>2.333333333333333</ele><time>2026-03-30T11:17:58.001Z</time></trkpt><trkpt lat="39.91641557059443" lon="8.478577922776019"><ele>2.0</ele><time>2026-03-30T11:17:59.001Z</time></trkpt><trkpt lat="39.916394031047076" lon="8.478843687379522"><ele>2.0</ele><time>2026-03-30T11:18:00.001Z</time></trkpt><trkpt lat="39.91637364796848" lon="8.479111995507031"><ele>2.0</ele><time>2026-03-30T11:18:01.001Z</time></trkpt><trkpt lat="39.916353741149884" lon="8.4793817489198"><ele>2.0</ele><time>2026-03-30T11:18:02.001Z</time></trkpt><trkpt lat="39.916331968980174" lon="8.47964965210244"><ele>2.0</ele><time>2026-03-30T11:18:03.001Z</time></trkpt><trkpt lat="39.91631151318767" lon="8.479919713486193"><ele>2.0</ele><time>2026-03-30T11:18:04.001Z</time></trkpt><trkpt lat="39.916289654258335" lon="8.480187843945764"><ele>2.0</ele><time>2026-03-30T11:18:05.001Z</time></trkpt><trkpt lat="39.91627077788581" lon="8.48045817008212"><ele>2.0</ele><time>2026-03-30T11:18:06.001Z</time></trkpt><trkpt lat="39.91625089947504" lon="8.48072762024239"><ele>2.0</ele><time>2026-03-30T11:18:07.001Z</time></trkpt><trkpt lat="39.916230814771765" lon="8.48099706357952"><ele>2.0</ele><time>2026-03-30T11:18:08.001Z</time></trkpt><trkpt lat="39.916224866715744" lon="8.481266428755658"><ele>2.0</ele><time>2026-03-30T11:18:09.001Z</time></trkpt><trkpt lat="39.91624192367803" lon="8.481539994018275"><ele>2.0</ele><time>2026-03-30T11:18:10.001Z</time></trkpt><trkpt lat="39.916275447687966" lon="8.481812887176035"><ele>2.0</ele><time>2026-03-30T11:18:11.001Z</time></trkpt><trkpt lat="39.91631163851709" lon="8.482081906356822"><ele>1.6666666666666665</ele><time>2026-03-30T11:18:12.001Z</time></trkpt><trkpt lat="39.916346640174694" lon="8.482350847774592"><ele>1.3333333333333333</ele><time>2026-03-30T11:18:13.001Z</time></trkpt><trkpt lat="39.916378920682206" lon="8.4826212676995"><ele>1.0</ele><time>2026-03-30T11:18:14.001Z</time></trkpt><trkpt lat="39.916412139686734" lon="8.48288973239752"><ele>1.3333333333333333</ele><time>2026-03-30T11:18:15.001Z</time></trkpt><trkpt lat="39.91644650610568" lon="8.483157972599551"><ele>1.6666666666666665</ele><time>2026-03-30T11:18:16.001Z</time></trkpt><trkpt lat="39.916480170312425" lon="8.483428867527337"><ele>2.0</ele><time>2026-03-30T11:18:17.001Z</time></trkpt><trkpt lat="39.91651567938547" lon="8.483700482360485"><ele>2.0</ele><time>2026-03-30T11:18:18.001Z</time></trkpt><trkpt lat="39.916552363455615" lon="8.48397248335125"><ele>2.0</ele><time>2026-03-30T11:18:19.001Z</time></trkpt><trkpt lat="39.916590951641595" lon="8.484244068897201"><ele>2.0</ele><time>2026-03-30T11:18:20.001Z</time></trkpt><trkpt lat="39.916629161700115" lon="8.484514620623505"><ele>2.0</ele><time>2026-03-30T11:18:21.001Z</time></trkpt><trkpt lat="39.91666652393624" lon="8.484785283087724"><ele>2.0</ele><time>2026-03-30T11:18:22.001Z</time></trkpt><trkpt lat="39.91670499612067" lon="8.485058857273753"><ele>2.0</ele><time>2026-03-30T11:18:23.001Z</time></trkpt><trkpt lat="39.91673957172684" lon="8.48533393568054"><ele>1.6666666666666665</ele><time>2026-03-30T11:18:24.001Z</time></trkpt><trkpt lat="39.9167748153515" lon="8.485605844952644"><ele>1.3333333333333333</ele><time>2026-03-30T11:18:25.001Z</time></trkpt><trkpt lat="39.916810180113075" lon="8.485875041371031"><ele>1.0</ele><time>2026-03-30T11:18:26.001Z</time></trkpt><trkpt lat="39.91684524701823" lon="8.486144837622282"><ele>1.0</ele><time>2026-03-30T11:18:27.001Z</time></trkpt><trkpt lat="39.91687885724317" lon="8.48641466335352"><ele>1.0</ele><time>2026-03-30T11:18:28.001Z</time></trkpt><trkpt lat="39.9169147184798" lon="8.486683642122653"><ele>1.0</ele><time>2026-03-30T11:18:29.001Z</time></trkpt><trkpt lat="39.91695119537017" lon="8.486952659666903"><ele>1.3333333333333333</ele><time>2026-03-30T11:18:30.001Z</time></trkpt><trkpt lat="39.916987069711055" lon="8.487219732962735"><ele>1.6666666666666665</ele><time>2026-03-30T11:18:31.001Z</time></trkpt><trkpt lat="39.91702234419572" lon="8.487485989576431"><ele>2.0</ele><time>2026-03-30T11:18:32.001Z</time></trkpt><trkpt lat="39.91705888667784" lon="8.48775159600714"><ele>1.6666666666666665</ele><time>2026-03-30T11:18:33.001Z</time></trkpt><trkpt lat="39.91709617386384" lon="8.488017791474366"><ele>1.3333333333333333</ele><time>2026-03-30T11:18:34.001Z</time></trkpt><trkpt lat="39.91713089512864" lon="8.488280430419806"><ele>1.0</ele><time>2026-03-30T11:18:35.001Z</time></trkpt><trkpt lat="39.91716431080243" lon="8.48854014704374"><ele>1.0</ele><time>2026-03-30T11:18:36.001Z</time></trkpt><trkpt lat="39.917197921729205" lon="8.48879438018424"><ele>1.0</ele><time>2026-03-30T11:18:37.001Z</time></trkpt><trkpt lat="39.917232805301836" lon="8.489043836976228"><ele>1.0</ele><time>2026-03-30T11:18:38.001Z</time></trkpt><trkpt lat="39.91726628901384" lon="8.489292057207257"><ele>1.0</ele><time>2026-03-30T11:18:39.001Z</time></trkpt><trkpt lat="39.917297078686694" lon="8.489537055890626"><ele>1.0</ele><time>2026-03-30T11:18:40.001Z</time></trkpt><trkpt lat="39.91732952451913" lon="8.48977816807599"><ele>1.0</ele><time>2026-03-30T11:18:41.001Z</time></trkpt><trkpt lat="39.9173623014834" lon="8.49001395936569"><ele>1.0</ele><time>2026-03-30T11:18:42.001Z</time></trkpt><trkpt lat="39.91739167277259" lon="8.4902452802926"><ele>1.0</ele><time>2026-03-30T11:18:43.001Z</time></trkpt><trkpt lat="39.917422431954705" lon="8.4904712660142"><ele>1.0</ele><time>2026-03-30T11:18:44.001Z</time></trkpt><trkpt lat="39.91745869084543" lon="8.490692852507971"><ele>0.6666666666666666</ele><time>2026-03-30T11:18:45.001Z</time></trkpt><trkpt lat="39.91750138166291" lon="8.490908228334211"><ele>0.3333333333333333</ele><time>2026-03-30T11:18:46.001Z</time></trkpt><trkpt lat="39.917553028760885" lon="8.491117604027782"><ele>0.0</ele><time>2026-03-30T11:18:47.001Z</time></trkpt><trkpt lat="39.91761174314468" lon="8.491318550996226"><ele>0.6666666666666666</ele><time>2026-03-30T11:18:48.001Z</time></trkpt><trkpt lat="39.917677832158745" lon="8.49151910492973"><ele>1.3333333333333333</ele><time>2026-03-30T11:18:49.001Z</time></trkpt><trkpt lat="39.91774916135382" lon="8.491720958391033"><ele>2.0</ele><time>2026-03-30T11:18:50.001Z</time></trkpt><trkpt lat="39.91782160265176" lon="8.491920117324609"><ele>1.6666666666666665</ele><time>2026-03-30T11:18:51.001Z</time></trkpt><trkpt lat="39.91789670895616" lon="8.49211386497245"><ele>1.3333333333333333</ele><time>2026-03-30T11:18:52.001Z</time></trkpt><trkpt lat="39.91796938406069" lon="8.492300941238275"><ele>1.0</ele><time>2026-03-30T11:18:53.001Z</time></trkpt><trkpt lat="39.918039585256466" lon="8.49249268976698"><ele>1.0</ele><time>2026-03-30T11:18:54.001Z</time></trkpt><trkpt lat="39.918112732516725" lon="8.492684750040036"><ele>1.0</ele><time>2026-03-30T11:18:55.001Z</time></trkpt><trkpt lat="39.91818798579578" lon="8.492878457946764"><ele>1.0</ele><time>2026-03-30T11:18:56.001Z</time></trkpt><trkpt lat="39.91826547101363" lon="8.493071606547936"><ele>1.0</ele><time>2026-03-30T11:18:57.001Z</time></trkpt><trkpt lat="39.918341952533424" lon="8.493268643446507"><ele>1.0</ele><time>2026-03-30T11:18:58.001Z</time></trkpt><trkpt lat="39.918415459526834" lon="8.493468085763002"><ele>1.0</ele><time>2026-03-30T11:18:59.001Z</time></trkpt><trkpt lat="39.9184787766438" lon="8.493667932886115"><ele>1.3333333333333333</ele><time>2026-03-30T11:19:00.001Z</time></trkpt><trkpt lat="39.91853033373662" lon="8.493869526426243"><ele>1.6666666666666665</ele><time>2026-03-30T11:19:01.001Z</time></trkpt><trkpt lat="39.91857221719582" lon="8.494077529862533"><ele>2.0</ele><time>2026-03-30T11:19:02.001Z</time></trkpt><trkpt lat="39.91860665663593" lon="8.49428729868932"><ele>2.0</ele><time>2026-03-30T11:19:03.001Z</time></trkpt><trkpt lat="39.91863041761795" lon="8.49450041078321"><ele>2.0</ele><time>2026-03-30T11:19:04.001Z</time></trkpt><trkpt lat="39.91864338641669" lon="8.494715409633931"><ele>2.0</ele><time>2026-03-30T11:19:05.001Z</time></trkpt><trkpt lat="39.9186455046806" lon="8.494931545979643"><ele>2.0</ele><time>2026-03-30T11:19:06.001Z</time></trkpt><trkpt lat="39.91864016058075" lon="8.495147144595537"><ele>2.0</ele><time>2026-03-30T11:19:07.001Z</time></trkpt><trkpt lat="39.918626035092736" lon="8.495360802122597"><ele>2.0</ele><time>2026-03-30T11:19:08.001Z</time></trkpt><trkpt lat="39.91860169552431" lon="8.495568702983226"><ele>2.333333333333333</ele><time>2026-03-30T11:19:09.001Z</time></trkpt><trkpt lat="39.91857193404285" lon="8.495779281755713"><ele>2.6666666666666665</ele><time>2026-03-30T11:19:10.001Z</time></trkpt><trkpt lat="39.9185273814961" lon="8.495985263313353"><ele>3.0</ele><time>2026-03-30T11:19:11.001Z</time></trkpt><trkpt lat="39.91846881071612" lon="8.4961901220898"><ele>3.0</ele><time>2026-03-30T11:19:12.001Z</time></trkpt><trkpt lat="39.91839994112562" lon="8.496389031614383"><ele>3.0</ele><time>2026-03-30T11:19:13.001Z</time></trkpt><trkpt lat="39.91832296841385" lon="8.496578905233886"><ele>3.0</ele><time>2026-03-30T11:19:14.001Z</time></trkpt><trkpt lat="39.9182386773654" lon="8.496764778630933"><ele>3.0</ele><time>2026-03-30T11:19:15.001Z</time></trkpt><trkpt lat="39.9181423563226" lon="8.496943095736224"><ele>3.0</ele><time>2026-03-30T11:19:16.001Z</time></trkpt><trkpt lat="39.918041287214656" lon="8.497113415223392"><ele>3.0</ele><time>2026-03-30T11:19:17.001Z</time></trkpt><trkpt lat="39.917932206651045" lon="8.497280500435565"><ele>2.3333333333333335</ele><time>2026-03-30T11:19:18.001Z</time></trkpt><trkpt lat="39.917819762850236" lon="8.497446507202387"><ele>1.6666666666666665</ele><time>2026-03-30T11:19:19.001Z</time></trkpt><trkpt lat="39.917709955632496" lon="8.497616963341004"><ele>1.0</ele><time>2026-03-30T11:19:20.001Z</time></trkpt><trkpt lat="39.91759811034738" lon="8.497789941450682"><ele>0.6666666666666666</ele><time>2026-03-30T11:19:21.001Z</time></trkpt><trkpt lat="39.91748997220217" lon="8.497964279384464"><ele>0.3333333333333333</ele><time>2026-03-30T11:19:22.001Z</time></trkpt><trkpt lat="39.91738428923524" lon="8.498140782027516"><ele>0.0</ele><time>2026-03-30T11:19:23.001Z</time></trkpt><trkpt lat="39.91727479826727" lon="8.49831921998497"><ele>0.0</ele><time>2026-03-30T11:19:24.001Z</time></trkpt><trkpt lat="39.91716290336082" lon="8.498498099702095"><ele>0.0</ele><time>2026-03-30T11:19:25.001Z</time></trkpt><trkpt lat="39.91705039614674" lon="8.49867744730293"><ele>0.0</ele><time>2026-03-30T11:19:26.001Z</time></trkpt><trkpt lat="39.91693832461045" lon="8.49885635194835"><ele>0.0</ele><time>2026-03-30T11:19:27.001Z</time></trkpt><trkpt lat="39.91682674138181" lon="8.49903326666927"><ele>0.0</ele><time>2026-03-30T11:19:28.001Z</time></trkpt><trkpt lat="39.916711942495034" lon="8.49920902359715"><ele>0.0</ele><time>2026-03-30T11:19:29.001Z</time></trkpt><trkpt lat="39.91659920414073" lon="8.499390585808035"><ele>0.3333333333333333</ele><time>2026-03-30T11:19:30.001Z</time></trkpt><trkpt lat="39.91649023872971" lon="8.499573597810949"><ele>0.6666666666666666</ele><time>2026-03-30T11:19:31.001Z</time></trkpt><trkpt lat="39.91638868742956" lon="8.499772324667212"><ele>1.0</ele><time>2026-03-30T11:19:32.001Z</time></trkpt><trkpt lat="39.91629486337354" lon="8.499976445543396"><ele>1.3333333333333333</ele><time>2026-03-30T11:19:33.001Z</time></trkpt><trkpt lat="39.91620897178744" lon="8.500191343591977"><ele>1.6666666666666665</ele><time>2026-03-30T11:19:34.001Z</time></trkpt><trkpt lat="39.916133654359065" lon="8.50041292606531"><ele>2.0</ele><time>2026-03-30T11:19:35.001Z</time></trkpt><trkpt lat="39.91607559593526" lon="8.500646570079862"><ele>2.333333333333333</ele><time>2026-03-30T11:19:36.001Z</time></trkpt><trkpt lat="39.916032290108554" lon="8.500880219228366"><ele>2.6666666666666665</ele><time>2026-03-30T11:19:37.001Z</time></trkpt><trkpt lat="39.916002186469235" lon="8.50112000092757"><ele>3.0</ele><time>2026-03-30T11:19:38.001Z</time></trkpt><trkpt lat="39.915980109202366" lon="8.501359496361536"><ele>3.0</ele><time>2026-03-30T11:19:39.001Z</time></trkpt><trkpt lat="39.915972241954" lon="8.50160199875026"><ele>3.0</ele><time>2026-03-30T11:19:40.001Z</time></trkpt><trkpt lat="39.91597047754026" lon="8.501847980878386"><ele>3.0</ele><time>2026-03-30T11:19:41.001Z</time></trkpt><trkpt lat="39.91598015638404" lon="8.502091086231202"><ele>3.0</ele><time>2026-03-30T11:19:42.001Z</time></trkpt><trkpt lat="39.91600860266508" lon="8.502332695737648"><ele>3.0</ele><time>2026-03-30T11:19:43.001Z</time></trkpt><trkpt lat="39.91605029503492" lon="8.50257163388063"><ele>3.0</ele><time>2026-03-30T11:19:44.001Z</time></trkpt><trkpt lat="39.916102347888994" lon="8.502810817682958"><ele>3.0</ele><time>2026-03-30T11:19:45.001Z</time></trkpt><trkpt lat="39.91616722092099" lon="8.503042527782698"><ele>3.0</ele><time>2026-03-30T11:19:46.001Z</time></trkpt><trkpt lat="39.91624895360266" lon="8.503264500947344"><ele>3.0</ele><time>2026-03-30T11:19:47.001Z</time></trkpt><trkpt lat="39.91634246691243" lon="8.503478074129694"><ele>3.0</ele><time>2026-03-30T11:19:48.001Z</time></trkpt><trkpt lat="39.91644778719904" lon="8.503683226545444"><ele>3.0</ele><time>2026-03-30T11:19:49.001Z</time></trkpt><trkpt lat="39.916560262673585" lon="8.503882188648317"><ele>3.0</ele><time>2026-03-30T11:19:50.001Z</time></trkpt><trkpt lat="39.91667845554645" lon="8.504076670684602"><ele>3.0</ele><time>2026-03-30T11:19:51.001Z</time></trkpt><trkpt lat="39.91679425223705" lon="8.50427115815439"><ele>3.0</ele><time>2026-03-30T11:19:52.001Z</time></trkpt><trkpt lat="39.91691159875947" lon="8.504465725488425"><ele>3.0</ele><time>2026-03-30T11:19:53.001Z</time></trkpt><trkpt lat="39.9170261809367" lon="8.504662654669728"><ele>3.0</ele><time>2026-03-30T11:19:54.001Z</time></trkpt><trkpt lat="39.9171365742338" lon="8.504859956206436"><ele>3.0</ele><time>2026-03-30T11:19:55.001Z</time></trkpt><trkpt lat="39.91724614996867" lon="8.505058258606278"><ele>3.0</ele><time>2026-03-30T11:19:56.001Z</time></trkpt><trkpt lat="39.91734714010452" lon="8.505260803957206"><ele>3.0</ele><time>2026-03-30T11:19:57.001Z</time></trkpt><trkpt lat="39.917443645000205" lon="8.505470614144931"><ele>3.0</ele><time>2026-03-30T11:19:58.001Z</time></trkpt><trkpt lat="39.91752824492003" lon="8.505687181727943"><ele>3.0</ele><time>2026-03-30T11:19:59.001Z</time></trkpt><trkpt lat="39.917605690019684" lon="8.505909849983553"><ele>3.0</ele><time>2026-03-30T11:20:00.001Z</time></trkpt><trkpt lat="39.917673668349885" lon="8.506139656990026"><ele>3.0</ele><time>2026-03-30T11:20:01.001Z</time></trkpt><trkpt lat="39.91773248455221" lon="8.506374480214113"><ele>3.0</ele><time>2026-03-30T11:20:02.001Z</time></trkpt><trkpt lat="39.917785810698476" lon="8.506610201930489"><ele>3.0</ele><time>2026-03-30T11:20:03.001Z</time></trkpt><trkpt lat="39.91783562279827" lon="8.506847855361677"><ele>3.0</ele><time>2026-03-30T11:20:04.001Z</time></trkpt><trkpt lat="39.917888660452874" lon="8.507087005627454"><ele>3.0</ele><time>2026-03-30T11:20:05.001Z</time></trkpt><trkpt lat="39.91794273644098" lon="8.507322893008848"><ele>2.6666666666666665</ele><time>2026-03-30T11:20:06.001Z</time></trkpt><trkpt lat="39.91799679589078" lon="8.507562056898085"><ele>2.333333333333333</ele><time>2026-03-30T11:20:07.001Z</time></trkpt><trkpt lat="39.91804726676057" lon="8.507801044816933"><ele>2.0</ele><time>2026-03-30T11:20:08.001Z</time></trkpt><trkpt lat="39.91810321429858" lon="8.508039085234252"><ele>1.6666666666666665</ele><time>2026-03-30T11:20:09.001Z</time></trkpt><trkpt lat="39.91815810096578" lon="8.508275720428026"><ele>1.3333333333333333</ele><time>2026-03-30T11:20:10.001Z</time></trkpt><trkpt lat="39.918209907786824" lon="8.508515670219353"><ele>1.0</ele><time>2026-03-30T11:20:11.001Z</time></trkpt><trkpt lat="39.91825735245564" lon="8.508757976644638"><ele>0.6666666666666666</ele><time>2026-03-30T11:20:12.001Z</time></trkpt><trkpt lat="39.91829530495169" lon="8.5090074820546"><ele>0.3333333333333333</ele><time>2026-03-30T11:20:13.001Z</time></trkpt><trkpt lat="39.918320595483856" lon="8.509260349799824"><ele>0.0</ele><time>2026-03-30T11:20:14.001Z</time></trkpt><trkpt lat="39.918339410881124" lon="8.50951605289102"><ele>0.3333333333333333</ele><time>2026-03-30T11:20:15.001Z</time></trkpt><trkpt lat="39.91835742250798" lon="8.509773159425347"><ele>0.6666666666666666</ele><time>2026-03-30T11:20:16.001Z</time></trkpt><trkpt lat="39.91837526409233" lon="8.510026234167443"><ele>1.0</ele><time>2026-03-30T11:20:17.001Z</time></trkpt><trkpt lat="39.91839789428262" lon="8.510279836193085"><ele>0.6666666666666666</ele><time>2026-03-30T11:20:18.001Z</time></trkpt><trkpt lat="39.91842411970819" lon="8.510531244019516"><ele>0.3333333333333333</ele><time>2026-03-30T11:20:19.001Z</time></trkpt><trkpt lat="39.91845323878134" lon="8.51078308807554"><ele>0.0</ele><time>2026-03-30T11:20:20.001Z</time></trkpt><trkpt lat="39.91848166710217" lon="8.511035084684686"><ele>0.3333333333333333</ele><time>2026-03-30T11:20:21.001Z</time></trkpt><trkpt lat="39.91850841763532" lon="8.511290147315925"><ele>0.6666666666666666</ele><time>2026-03-30T11:20:22.001Z</time></trkpt><trkpt lat="39.918536960839454" lon="8.511545832182556"><ele>1.0</ele><time>2026-03-30T11:20:23.001Z</time></trkpt><trkpt lat="39.918563761638346" lon="8.511801773675584"><ele>1.0</ele><time>2026-03-30T11:20:24.001Z</time></trkpt><trkpt lat="39.918590650598624" lon="8.512060578798907"><ele>1.0</ele><time>2026-03-30T11:20:25.001Z</time></trkpt><trkpt lat="39.91861761021306" lon="8.512319234114784"><ele>1.0</ele><time>2026-03-30T11:20:26.001Z</time></trkpt><trkpt lat="39.918646439354866" lon="8.512577551011615"><ele>1.0</ele><time>2026-03-30T11:20:27.001Z</time></trkpt><trkpt lat="39.91867618979566" lon="8.512838023254462"><ele>1.0</ele><time>2026-03-30T11:20:28.001Z</time></trkpt><trkpt lat="39.9187068972453" lon="8.513095704490876"><ele>1.0</ele><time>2026-03-30T11:20:29.001Z</time></trkpt><trkpt lat="39.918736436100914" lon="8.513354423603326"><ele>1.3333333333333333</ele><time>2026-03-30T11:20:30.001Z</time></trkpt><trkpt lat="39.91876391440662" lon="8.51360878740725"><ele>1.6666666666666665</ele><time>2026-03-30T11:20:31.001Z</time></trkpt><trkpt lat="39.9187903438307" lon="8.513864405937195"><ele>2.0</ele><time>2026-03-30T11:20:32.001Z</time></trkpt><trkpt lat="39.91880944281395" lon="8.514121316101965"><ele>2.0</ele><time>2026-03-30T11:20:33.001Z</time></trkpt><trkpt lat="39.91880318919707" lon="8.51437910153072"><ele>2.0</ele><time>2026-03-30T11:20:34.001Z</time></trkpt><trkpt lat="39.91875249405167" lon="8.514634448846127"><ele>2.0</ele><time>2026-03-30T11:20:35.001Z</time></trkpt><trkpt lat="39.9186692570631" lon="8.514872051859703"><ele>2.0</ele><time>2026-03-30T11:20:36.001Z</time></trkpt><trkpt lat="39.91858091580116" lon="8.515105220750204"><ele>2.0</ele><time>2026-03-30T11:20:37.001Z</time></trkpt><trkpt lat="39.91850140484699" lon="8.515346728123218"><ele>2.0</ele><time>2026-03-30T11:20:38.001Z</time></trkpt><trkpt lat="39.91842674330056" lon="8.51559023698468"><ele>2.0</ele><time>2026-03-30T11:20:39.001Z</time></trkpt><trkpt lat="39.91835173528454" lon="8.515830246814103"><ele>2.0</ele><time>2026-03-30T11:20:40.001Z</time></trkpt><trkpt lat="39.91827357268864" lon="8.51607074369501"><ele>2.0</ele><time>2026-03-30T11:20:41.001Z</time></trkpt><trkpt lat="39.9181974269031" lon="8.516311511053102"><ele>2.0</ele><time>2026-03-30T11:20:42.001Z</time></trkpt><trkpt lat="39.918125003322594" lon="8.516548705808647"><ele>2.0</ele><time>2026-03-30T11:20:43.001Z</time></trkpt><trkpt lat="39.918048740993775" lon="8.516779902070796"><ele>2.0</ele><time>2026-03-30T11:20:44.001Z</time></trkpt><trkpt lat="39.91796816124568" lon="8.517007629615216"><ele>2.0</ele><time>2026-03-30T11:20:45.001Z</time></trkpt><trkpt lat="39.917903515476944" lon="8.517239849026351"><ele>2.0</ele><time>2026-03-30T11:20:46.001Z</time></trkpt><trkpt lat="39.91787245192559" lon="8.517485709676437"><ele>2.0</ele><time>2026-03-30T11:20:47.001Z</time></trkpt><trkpt lat="39.917875391543255" lon="8.517737660486775"><ele>1.3333333333333333</ele><time>2026-03-30T11:20:48.001Z</time></trkpt><trkpt lat="39.91790675425833" lon="8.517988622831748"><ele>0.6666666666666666</ele><time>2026-03-30T11:20:49.001Z</time></trkpt><trkpt lat="39.91795555169848" lon="8.518231831518278"><ele>0.0</ele><time>2026-03-30T11:20:50.001Z</time></trkpt><trkpt lat="39.91802109572734" lon="8.518467705609403"><ele>0.0</ele><time>2026-03-30T11:20:51.001Z</time></trkpt><trkpt lat="39.918098592475" lon="8.518695539054509"><ele>0.0</ele><time>2026-03-30T11:20:52.001Z</time></trkpt><trkpt lat="39.918178856862795" lon="8.518912949379189"><ele>0.0</ele><time>2026-03-30T11:20:53.001Z</time></trkpt><trkpt lat="39.91825617748858" lon="8.519109361344297"><ele>0.3333333333333333</ele><time>2026-03-30T11:20:54.001Z</time></trkpt><trkpt lat="39.91832516090218" lon="8.519297419421179"><ele>0.6666666666666666</ele><time>2026-03-30T11:20:55.001Z</time></trkpt><trkpt lat="39.91839093758181" lon="8.519480915466984"><ele>1.0</ele><time>2026-03-30T11:20:56.001Z</time></trkpt><trkpt lat="39.918451823899545" lon="8.519645469341972"><ele>0.5</ele><time>2026-03-30T11:20:57.001Z</time></trkpt><trkpt lat="39.91851165718414" lon="8.51980170795863"><ele>0.0</ele><time>2026-03-30T11:20:58.001Z</time></trkpt><trkpt lat="39.91856666349903" lon="8.519954499197125"><ele>-0.5</ele><time>2026-03-30T11:20:59.001Z</time></trkpt><trkpt lat="39.918608302742584" lon="8.520106749797023"><ele>-1.0</ele><time>2026-03-30T11:21:00.001Z</time></trkpt><trkpt lat="39.91864259028226" lon="8.520255548650724"><ele>-0.6000000000000001</ele><time>2026-03-30T11:21:01.001Z</time></trkpt><trkpt lat="39.91865952549416" lon="8.520402781041108"><ele>-0.20000000000000007</ele><time>2026-03-30T11:21:02.001Z</time></trkpt><trkpt lat="39.91865689582794" lon="8.520545982565551"><ele>0.20000000000000007</ele><time>2026-03-30T11:21:03.001Z</time></trkpt><trkpt lat="39.918665816078374" lon="8.520676185855738"><ele>0.6000000000000001</ele><time>2026-03-30T11:21:04.001Z</time></trkpt><trkpt lat="39.918713762686664" lon="8.520778534678177"><ele>1.0</ele><time>2026-03-30T11:21:05.001Z</time></trkpt><trkpt lat="39.91878599016581" lon="8.52086773609884"><ele>1.0</ele><time>2026-03-30T11:21:06.001Z</time></trkpt><trkpt lat="39.91886673780942" lon="8.520975437910096"><ele>1.0</ele><time>2026-03-30T11:21:07.001Z</time></trkpt><trkpt lat="39.91893812634953" lon="8.521102335363187"><ele>1.0</ele><time>2026-03-30T11:21:08.001Z</time></trkpt><trkpt lat="39.91899615565663" lon="8.521249803352491"><ele>1.0</ele><time>2026-03-30T11:21:09.001Z</time></trkpt><trkpt lat="39.919030290441874" lon="8.521410165651112"><ele>1.25</ele><time>2026-03-30T11:21:10.001Z</time></trkpt><trkpt lat="39.91904257797127" lon="8.521581759171077"><ele>1.5</ele><time>2026-03-30T11:21:11.001Z</time></trkpt><trkpt lat="39.919051197832594" lon="8.521752043963597"><ele>1.75</ele><time>2026-03-30T11:21:12.001Z</time></trkpt><trkpt lat="39.91905394989468" lon="8.521925981820491"><ele>2.0</ele><time>2026-03-30T11:21:13.001Z</time></trkpt><trkpt lat="39.919055263569064" lon="8.522103870991192"><ele>1.5</ele><time>2026-03-30T11:21:14.001Z</time></trkpt><trkpt lat="39.91904641443763" lon="8.52228794550352"><ele>1.0</ele><time>2026-03-30T11:21:15.001Z</time></trkpt><trkpt lat="39.919025310602535" lon="8.522474502461925"><ele>0.5</ele><time>2026-03-30T11:21:16.001Z</time></trkpt><trkpt lat="39.91899618613661" lon="8.52266559967402"><ele>0.0</ele><time>2026-03-30T11:21:17.001Z</time></trkpt><trkpt lat="39.9189631914603" lon="8.522856245138664"><ele>0.0</ele><time>2026-03-30T11:21:18.001Z</time></trkpt><trkpt lat="39.918924265500166" lon="8.523049373600472"><ele>0.0</ele><time>2026-03-30T11:21:19.001Z</time></trkpt><trkpt lat="39.91888604528574" lon="8.523242741535618"><ele>0.0</ele><time>2026-03-30T11:21:20.001Z</time></trkpt><trkpt lat="39.918846107636774" lon="8.52343858026035"><ele>0.0</ele><time>2026-03-30T11:21:21.001Z</time></trkpt><trkpt lat="39.918808392134494" lon="8.523633492716284"><ele>0.0</ele><time>2026-03-30T11:21:22.001Z</time></trkpt><trkpt lat="39.91877076328473" lon="8.523830187449956"><ele>0.0</ele><time>2026-03-30T11:21:23.001Z</time></trkpt><trkpt lat="39.918732523160415" lon="8.524028309114652"><ele>0.0</ele><time>2026-03-30T11:21:24.001Z</time></trkpt><trkpt lat="39.9186948186129" lon="8.524226661925391"><ele>0.0</ele><time>2026-03-30T11:21:25.001Z</time></trkpt><trkpt lat="39.91865831613833" lon="8.524425630417657"><ele>0.0</ele><time>2026-03-30T11:21:26.001Z</time></trkpt><trkpt lat="39.91861761628465" lon="8.524624748469112"><ele>-0.3333333333333333</ele><time>2026-03-30T11:21:27.001Z</time></trkpt><trkpt lat="39.918577344436684" lon="8.524825490991839"><ele>-0.6666666666666666</ele><time>2026-03-30T11:21:28.001Z</time></trkpt><trkpt lat="39.91853787025688" lon="8.525023318014687"><ele>-1.0</ele><time>2026-03-30T11:21:29.001Z</time></trkpt><trkpt lat="39.91849453519732" lon="8.525223076003824"><ele>-0.6666666666666666</ele><time>2026-03-30T11:21:30.001Z</time></trkpt><trkpt lat="39.91846461919111" lon="8.525433582261087"><ele>-0.3333333333333333</ele><time>2026-03-30T11:21:31.001Z</time></trkpt><trkpt lat="39.91843235495478" lon="8.525649657986607"><ele>0.0</ele><time>2026-03-30T11:21:32.001Z</time></trkpt><trkpt lat="39.91840885904212" lon="8.525874694975233"><ele>0.3333333333333333</ele><time>2026-03-30T11:21:33.001Z</time></trkpt><trkpt lat="39.918395552356394" lon="8.526107062437529"><ele>0.6666666666666666</ele><time>2026-03-30T11:21:34.001Z</time></trkpt><trkpt lat="39.91837759372516" lon="8.52634571106135"><ele>1.0</ele><time>2026-03-30T11:21:35.001Z</time></trkpt><trkpt lat="39.91835324004427" lon="8.526587210171312"><ele>1.0</ele><time>2026-03-30T11:21:36.001Z</time></trkpt><trkpt lat="39.91832313733366" lon="8.526824272137715"><ele>1.0</ele><time>2026-03-30T11:21:37.001Z</time></trkpt><trkpt lat="39.91829150409298" lon="8.527064970636966"><ele>1.0</ele><time>2026-03-30T11:21:38.001Z</time></trkpt><trkpt lat="39.918282810192366" lon="8.527319858630564"><ele>0.6666666666666666</ele><time>2026-03-30T11:21:39.001Z</time></trkpt><trkpt lat="39.918070126004366" lon="8.527429941000307"><ele>0.3333333333333333</ele><time>2026-03-30T11:21:40.001Z</time></trkpt><trkpt lat="39.918027074119685" lon="8.527655690366748"><ele>0.0</ele><time>2026-03-30T11:21:41.001Z</time></trkpt><trkpt lat="39.9179835824916" lon="8.527895170603342"><ele>0.6666666666666666</ele><time>2026-03-30T11:21:42.001Z</time></trkpt><trkpt lat="39.91794357178221" lon="8.528133861342404"><ele>1.3333333333333333</ele><time>2026-03-30T11:21:43.001Z</time></trkpt><trkpt lat="39.91790683026836" lon="8.5283661087591"><ele>2.0</ele><time>2026-03-30T11:21:44.001Z</time></trkpt><trkpt lat="39.91787757300147" lon="8.528592825240201"><ele>2.0</ele><time>2026-03-30T11:21:45.001Z</time></trkpt><trkpt lat="39.91786269238318" lon="8.528820401718669"><ele>2.0</ele><time>2026-03-30T11:21:46.001Z</time></trkpt><trkpt lat="39.91786050663478" lon="8.529052356473546"><ele>2.0</ele><time>2026-03-30T11:21:47.001Z</time></trkpt><trkpt lat="39.917861792370296" lon="8.529281920370478"><ele>2.0</ele><time>2026-03-30T11:21:48.001Z</time></trkpt><trkpt lat="39.91786286653453" lon="8.529506035816727"><ele>2.0</ele><time>2026-03-30T11:21:49.001Z</time></trkpt><trkpt lat="39.917873909436224" lon="8.529732708015326"><ele>2.0</ele><time>2026-03-30T11:21:50.001Z</time></trkpt><trkpt lat="39.917892424626466" lon="8.529951394336498"><ele>1.6666666666666665</ele><time>2026-03-30T11:21:51.001Z</time></trkpt><trkpt lat="39.917916363726164" lon="8.530173701728888"><ele>1.3333333333333333</ele><time>2026-03-30T11:21:52.001Z</time></trkpt><trkpt lat="39.91794616675277" lon="8.530389999632618"><ele>1.0</ele><time>2026-03-30T11:21:53.001Z</time></trkpt><trkpt lat="39.91798304719756" lon="8.53060186197458"><ele>1.0</ele><time>2026-03-30T11:21:54.001Z</time></trkpt><trkpt lat="39.91802542501381" lon="8.530815643951085"><ele>1.0</ele><time>2026-03-30T11:21:55.001Z</time></trkpt><trkpt lat="39.91806549003457" lon="8.531021476911931"><ele>1.0</ele><time>2026-03-30T11:21:56.001Z</time></trkpt><trkpt lat="39.9181094780851" lon="8.531226556332038"><ele>1.3333333333333333</ele><time>2026-03-30T11:21:57.001Z</time></trkpt><trkpt lat="39.91814918477048" lon="8.531437005644152"><ele>1.6666666666666665</ele><time>2026-03-30T11:21:58.001Z</time></trkpt><trkpt lat="39.91819076879101" lon="8.53164628558805"><ele>2.0</ele><time>2026-03-30T11:21:59.001Z</time></trkpt><trkpt lat="39.91823515633866" lon="8.531856098015082"><ele>2.0</ele><time>2026-03-30T11:22:00.001Z</time></trkpt><trkpt lat="39.91827737166372" lon="8.53206639552451"><ele>2.0</ele><time>2026-03-30T11:22:01.001Z</time></trkpt><trkpt lat="39.918317254196495" lon="8.532290473968962"><ele>2.0</ele><time>2026-03-30T11:22:02.001Z</time></trkpt><trkpt lat="39.91834774205527" lon="8.532505384380467"><ele>2.0</ele><time>2026-03-30T11:22:03.001Z</time></trkpt><trkpt lat="39.918387482888214" lon="8.532713528138256"><ele>2.0</ele><time>2026-03-30T11:22:04.001Z</time></trkpt><trkpt lat="39.91843549268799" lon="8.532925701013955"><ele>2.0</ele><time>2026-03-30T11:22:05.001Z</time></trkpt><trkpt lat="39.91847423681241" lon="8.533146385668694"><ele>1.6666666666666665</ele><time>2026-03-30T11:22:06.001Z</time></trkpt><trkpt lat="39.91851108318632" lon="8.533365929198636"><ele>1.3333333333333333</ele><time>2026-03-30T11:22:07.001Z</time></trkpt><trkpt lat="39.91854765264871" lon="8.533562994011556"><ele>1.0</ele><time>2026-03-30T11:22:08.001Z</time></trkpt><trkpt lat="39.918581075140224" lon="8.533751188794447"><ele>1.0</ele><time>2026-03-30T11:22:09.001Z</time></trkpt><trkpt lat="39.91861649397402" lon="8.533934408472803"><ele>1.0</ele><time>2026-03-30T11:22:10.001Z</time></trkpt><trkpt lat="39.91865389965732" lon="8.534101056468254"><ele>1.0</ele><time>2026-03-30T11:22:11.001Z</time></trkpt><trkpt lat="39.9186909322278" lon="8.534266265892878"><ele>1.0</ele><time>2026-03-30T11:22:12.001Z</time></trkpt><trkpt lat="39.918720779745755" lon="8.53443953698766"><ele>1.25</ele><time>2026-03-30T11:22:13.001Z</time></trkpt><trkpt lat="39.91875067973176" lon="8.534616674536144"><ele>1.5</ele><time>2026-03-30T11:22:14.001Z</time></trkpt><trkpt lat="39.918782185027744" lon="8.534794943755896"><ele>1.75</ele><time>2026-03-30T11:22:15.001Z</time></trkpt><trkpt lat="39.91881481730145" lon="8.534972610469046"><ele>2.0</ele><time>2026-03-30T11:22:16.001Z</time></trkpt><trkpt lat="39.91884672328159" lon="8.535147088397663"><ele>2.0</ele><time>2026-03-30T11:22:17.001Z</time></trkpt><trkpt lat="39.91888055162289" lon="8.535323891472542"><ele>2.0</ele><time>2026-03-30T11:22:18.001Z</time></trkpt><trkpt lat="39.918913658065335" lon="8.535499447666314"><ele>2.0</ele><time>2026-03-30T11:22:19.001Z</time></trkpt><trkpt lat="39.918938315670424" lon="8.535670326626514"><ele>2.0</ele><time>2026-03-30T11:22:20.001Z</time></trkpt><trkpt lat="39.91896881123803" lon="8.535834484664148"><ele>1.75</ele><time>2026-03-30T11:22:21.001Z</time></trkpt><trkpt lat="39.919002740930104" lon="8.536004635944545"><ele>1.5</ele><time>2026-03-30T11:22:22.001Z</time></trkpt><trkpt lat="39.91903958057955" lon="8.536175599901144"><ele>1.25</ele><time>2026-03-30T11:22:23.001Z</time></trkpt><trkpt lat="39.91907077218577" lon="8.53635451194945"><ele>1.0</ele><time>2026-03-30T11:22:24.001Z</time></trkpt><trkpt lat="39.91910266777272" lon="8.536526386921322"><ele>1.0</ele><time>2026-03-30T11:22:25.001Z</time></trkpt><trkpt lat="39.91912641903278" lon="8.536696081136363"><ele>1.0</ele><time>2026-03-30T11:22:26.001Z</time></trkpt><trkpt lat="39.91915049543921" lon="8.536867488046676"><ele>1.0</ele><time>2026-03-30T11:22:27.001Z</time></trkpt><trkpt lat="39.919157462202904" lon="8.53703324619314"><ele>1.0</ele><time>2026-03-30T11:22:28.001Z</time></trkpt><trkpt lat="39.919121325751945" lon="8.537181872110384"><ele>1.4</ele><time>2026-03-30T11:22:29.001Z</time></trkpt><trkpt lat="39.91904870728906" lon="8.537306511885223"><ele>1.8</ele><time>2026-03-30T11:22:30.001Z</time></trkpt><trkpt lat="39.91897392494906" lon="8.5374203054911"><ele>2.1999999999999997</ele><time>2026-03-30T11:22:31.001Z</time></trkpt><trkpt lat="39.918943707440015" lon="8.537542760525318"><ele>2.6</ele><time>2026-03-30T11:22:32.001Z</time></trkpt><trkpt lat="39.91895585684484" lon="8.537673668659655"><ele>3.0</ele><time>2026-03-30T11:22:33.001Z</time></trkpt><trkpt lat="39.91899924971872" lon="8.53779973196186"><ele>2.8</ele><time>2026-03-30T11:22:34.001Z</time></trkpt><trkpt lat="39.919076220619516" lon="8.537904226109642"><ele>2.5999999999999996</ele><time>2026-03-30T11:22:35.001Z</time></trkpt><trkpt lat="39.919174349495364" lon="8.537984590793668"><ele>2.4000000000000004</ele><time>2026-03-30T11:22:36.001Z</time></trkpt><trkpt lat="39.91927726718562" lon="8.538053872343726"><ele>2.2</ele><time>2026-03-30T11:22:37.001Z</time></trkpt><trkpt lat="39.91935520667973" lon="8.538145732851321"><ele>2.0</ele><time>2026-03-30T11:22:38.001Z</time></trkpt><trkpt lat="39.919412038972965" lon="8.538267967630295"><ele>2.0</ele><time>2026-03-30T11:22:39.001Z</time></trkpt><trkpt lat="39.91944995128004" lon="8.53842128103923"><ele>2.0</ele><time>2026-03-30T11:22:40.001Z</time></trkpt><trkpt lat="39.91946535306472" lon="8.53859503676337"><ele>2.0</ele><time>2026-03-30T11:22:41.001Z</time></trkpt><trkpt lat="39.91947325617506" lon="8.538776661843562"><ele>2.0</ele><time>2026-03-30T11:22:42.002Z</time></trkpt><trkpt lat="39.919481167757006" lon="8.5389491750203"><ele>2.0</ele><time>2026-03-30T11:22:43.002Z</time></trkpt><trkpt lat="39.919493023869265" lon="8.53912878387841"><ele>2.0</ele><time>2026-03-30T11:22:44.002Z</time></trkpt><trkpt lat="39.91951013486525" lon="8.539317488920851"><ele>2.0</ele><time>2026-03-30T11:22:45.002Z</time></trkpt><trkpt lat="39.91952683785495" lon="8.53951167650975"><ele>2.0</ele><time>2026-03-30T11:22:46.001Z</time></trkpt><trkpt lat="39.919544759738486" lon="8.539708847745315"><ele>2.0</ele><time>2026-03-30T11:22:47.001Z</time></trkpt><trkpt lat="39.91955880415128" lon="8.539910228946148"><ele>2.0</ele><time>2026-03-30T11:22:48.001Z</time></trkpt><trkpt lat="39.91957479811474" lon="8.540114222449011"><ele>2.0</ele><time>2026-03-30T11:22:49.001Z</time></trkpt><trkpt lat="39.919591630090586" lon="8.540317969783938"><ele>2.0</ele><time>2026-03-30T11:22:50.001Z</time></trkpt><trkpt lat="39.91960767749586" lon="8.540511308005723"><ele>2.0</ele><time>2026-03-30T11:22:51.001Z</time></trkpt><trkpt lat="39.919622647124555" lon="8.540694285268986"><ele>2.0</ele><time>2026-03-30T11:22:52.001Z</time></trkpt><trkpt lat="39.919635104211316" lon="8.540875159403504"><ele>2.0</ele><time>2026-03-30T11:22:53.001Z</time></trkpt><trkpt lat="39.91965149620367" lon="8.541064209602466"><ele>2.333333333333333</ele><time>2026-03-30T11:22:54.001Z</time></trkpt><trkpt lat="39.919668385582156" lon="8.54125921713683"><ele>2.6666666666666665</ele><time>2026-03-30T11:22:55.001Z</time></trkpt><trkpt lat="39.919686020987214" lon="8.54145561629205"><ele>3.0</ele><time>2026-03-30T11:22:56.001Z</time></trkpt><trkpt lat="39.91970487057745" lon="8.54165144537501"><ele>3.0</ele><time>2026-03-30T11:22:57.001Z</time></trkpt><trkpt lat="39.91971946101669" lon="8.541851503851705"><ele>3.0</ele><time>2026-03-30T11:22:58.001Z</time></trkpt><trkpt lat="39.91973226653891" lon="8.542055917050439"><ele>3.0</ele><time>2026-03-30T11:22:59.001Z</time></trkpt><trkpt lat="39.919746515058584" lon="8.54226315056555"><ele>3.0</ele><time>2026-03-30T11:23:00.001Z</time></trkpt><trkpt lat="39.919764730322214" lon="8.542472682446112"><ele>3.0</ele><time>2026-03-30T11:23:01.001Z</time></trkpt><trkpt lat="39.919780600811436" lon="8.542680770725132"><ele>3.0</ele><time>2026-03-30T11:23:02.001Z</time></trkpt><trkpt lat="39.91979525585721" lon="8.542894525485126"><ele>3.666666666666667</ele><time>2026-03-30T11:23:03.001Z</time></trkpt><trkpt lat="39.91981241335092" lon="8.54310868773977"><ele>4.333333333333334</ele><time>2026-03-30T11:23:04.001Z</time></trkpt><trkpt lat="39.919833882618605" lon="8.54332051581196"><ele>5.0</ele><time>2026-03-30T11:23:05.001Z</time></trkpt><trkpt lat="39.91985630719989" lon="8.54352661773411"><ele>5.0</ele><time>2026-03-30T11:23:06.001Z</time></trkpt><trkpt lat="39.919883355222915" lon="8.54373810271807"><ele>5.0</ele><time>2026-03-30T11:23:07.001Z</time></trkpt><trkpt lat="39.91991668043074" lon="8.543950265141921"><ele>5.0</ele><time>2026-03-30T11:23:08.001Z</time></trkpt><trkpt lat="39.91995962068913" lon="8.544167301080597"><ele>5.0</ele><time>2026-03-30T11:23:09.001Z</time></trkpt><trkpt lat="39.92001601846543" lon="8.544384827202599"><ele>5.0</ele><time>2026-03-30T11:23:10.001Z</time></trkpt><trkpt lat="39.920085098671066" lon="8.544602706395208"><ele>5.0</ele><time>2026-03-30T11:23:11.001Z</time></trkpt><trkpt lat="39.92015227561725" lon="8.54481562818487"><ele>5.0</ele><time>2026-03-30T11:23:12.001Z</time></trkpt><trkpt lat="39.92022065759691" lon="8.54502326929269"><ele>5.0</ele><time>2026-03-30T11:23:13.001Z</time></trkpt><trkpt lat="39.92028967864266" lon="8.545229745766097"><ele>5.0</ele><time>2026-03-30T11:23:14.001Z</time></trkpt><trkpt lat="39.92036339737519" lon="8.545432633227996"><ele>5.0</ele><time>2026-03-30T11:23:15.001Z</time></trkpt><trkpt lat="39.92044024498066" lon="8.545636104755172"><ele>5.0</ele><time>2026-03-30T11:23:16.001Z</time></trkpt><trkpt lat="39.92051879334439" lon="8.545843339998308"><ele>5.0</ele><time>2026-03-30T11:23:17.001Z</time></trkpt><trkpt lat="39.920581055941895" lon="8.546040217862721"><ele>4.25</ele><time>2026-03-30T11:23:18.001Z</time></trkpt><trkpt lat="39.92063413532877" lon="8.546233415774457"><ele>3.5</ele><time>2026-03-30T11:23:19.001Z</time></trkpt><trkpt lat="39.92068022952762" lon="8.546425160711825"><ele>2.75</ele><time>2026-03-30T11:23:20.001Z</time></trkpt><trkpt lat="39.92071269745828" lon="8.546599139845185"><ele>2.0</ele><time>2026-03-30T11:23:21.001Z</time></trkpt><trkpt lat="39.92073346447951" lon="8.546777071342813"><ele>2.0</ele><time>2026-03-30T11:23:22.001Z</time></trkpt><trkpt lat="39.92071445795418" lon="8.54695699287287"><ele>2.0</ele><time>2026-03-30T11:23:23.001Z</time></trkpt><trkpt lat="39.92065354888264" lon="8.547138274957963"><ele>2.0</ele><time>2026-03-30T11:23:24.001Z</time></trkpt><trkpt lat="39.92057609599144" lon="8.54731507595362"><ele>2.0</ele><time>2026-03-30T11:23:25.001Z</time></trkpt><trkpt lat="39.92049822080912" lon="8.547500509496299"><ele>2.0</ele><time>2026-03-30T11:23:26.001Z</time></trkpt><trkpt lat="39.92043689862009" lon="8.547698591801721"><ele>2.0</ele><time>2026-03-30T11:23:27.001Z</time></trkpt><trkpt lat="39.92037423009747" lon="8.547896405197685"><ele>2.0</ele><time>2026-03-30T11:23:28.001Z</time></trkpt><trkpt lat="39.92030114996205" lon="8.5480945690999"><ele>2.0</ele><time>2026-03-30T11:23:29.001Z</time></trkpt><trkpt lat="39.920221192146954" lon="8.548286988421383"><ele>2.0</ele><time>2026-03-30T11:23:30.001Z</time></trkpt><trkpt lat="39.92014049154563" lon="8.548479875185157"><ele>2.0</ele><time>2026-03-30T11:23:31.001Z</time></trkpt><trkpt lat="39.92005718978333" lon="8.548672591421052"><ele>2.333333333333333</ele><time>2026-03-30T11:23:32.001Z</time></trkpt><trkpt lat="39.9199733695609" lon="8.548863755762715"><ele>2.6666666666666665</ele><time>2026-03-30T11:23:33.001Z</time></trkpt><trkpt lat="39.919891532022476" lon="8.549053791090756"><ele>3.0</ele><time>2026-03-30T11:23:34.001Z</time></trkpt><trkpt lat="39.91981612554025" lon="8.549246804682147"><ele>3.0</ele><time>2026-03-30T11:23:35.001Z</time></trkpt><trkpt lat="39.91973889446042" lon="8.549434895169172"><ele>3.0</ele><time>2026-03-30T11:23:36.001Z</time></trkpt><trkpt lat="39.91966090152602" lon="8.549628272358778"><ele>3.0</ele><time>2026-03-30T11:23:37.001Z</time></trkpt><trkpt lat="39.91958172444776" lon="8.54981926001295"><ele>3.333333333333333</ele><time>2026-03-30T11:23:38.001Z</time></trkpt><trkpt lat="39.91949998354441" lon="8.550009995378845"><ele>3.6666666666666665</ele><time>2026-03-30T11:23:39.001Z</time></trkpt><trkpt lat="39.91941978840299" lon="8.55020683583941"><ele>4.0</ele><time>2026-03-30T11:23:40.001Z</time></trkpt><trkpt lat="39.91933752806007" lon="8.550404117450647"><ele>3.333333333333333</ele><time>2026-03-30T11:23:41.001Z</time></trkpt><trkpt lat="39.91925808132279" lon="8.550602450659678"><ele>2.6666666666666665</ele><time>2026-03-30T11:23:42.001Z</time></trkpt><trkpt lat="39.91917980628815" lon="8.550793747627573"><ele>2.0</ele><time>2026-03-30T11:23:43.001Z</time></trkpt><trkpt lat="39.91910274647344" lon="8.55097003209458"><ele>1.75</ele><time>2026-03-30T11:23:44.001Z</time></trkpt><trkpt lat="39.919030340407495" lon="8.551138419756297"><ele>1.5</ele><time>2026-03-30T11:23:45.001Z</time></trkpt><trkpt lat="39.91896248710113" lon="8.551307118474577"><ele>1.25</ele><time>2026-03-30T11:23:46.001Z</time></trkpt><trkpt lat="39.91889112969204" lon="8.551479500369087"><ele>1.0</ele><time>2026-03-30T11:23:47.001Z</time></trkpt><trkpt lat="39.918817577122375" lon="8.551653234772797"><ele>1.0</ele><time>2026-03-30T11:23:48.001Z</time></trkpt><trkpt lat="39.91874462099035" lon="8.55183159550085"><ele>1.0</ele><time>2026-03-30T11:23:49.001Z</time></trkpt><trkpt lat="39.91867084646301" lon="8.552012112999424"><ele>1.0</ele><time>2026-03-30T11:23:50.001Z</time></trkpt><trkpt lat="39.91859895863765" lon="8.552180245680491"><ele>1.5</ele><time>2026-03-30T11:23:51.001Z</time></trkpt><trkpt lat="39.918531274928476" lon="8.552343281235796"><ele>2.0</ele><time>2026-03-30T11:23:52.001Z</time></trkpt><trkpt lat="39.91846657952204" lon="8.552496445152375"><ele>2.5</ele><time>2026-03-30T11:23:53.001Z</time></trkpt><trkpt lat="39.91840887002629" lon="8.552644135913614"><ele>3.0</ele><time>2026-03-30T11:23:54.001Z</time></trkpt><trkpt lat="39.91835097003118" lon="8.552779819946299"><ele>3.2</ele><time>2026-03-30T11:23:55.001Z</time></trkpt><trkpt lat="39.91829835133597" lon="8.552912323369922"><ele>3.4</ele><time>2026-03-30T11:23:56.001Z</time></trkpt><trkpt lat="39.918246490350974" lon="8.553037890169744"><ele>3.6000000000000005</ele><time>2026-03-30T11:23:57.001Z</time></trkpt><trkpt lat="39.91819432761041" lon="8.553160414377206"><ele>3.8000000000000003</ele><time>2026-03-30T11:23:58.001Z</time></trkpt><trkpt lat="39.91814469118017" lon="8.553281417999031"><ele>4.0</ele><time>2026-03-30T11:23:59.001Z</time></trkpt><trkpt lat="39.91809419933815" lon="8.553403217748523"><ele>3.9999999999999996</ele><time>2026-03-30T11:24:00.001Z</time></trkpt><trkpt lat="39.91803608617002" lon="8.553521397915384"><ele>4.0</ele><time>2026-03-30T11:24:01.001Z</time></trkpt><trkpt lat="39.9179740202516" lon="8.553619426518294"><ele>4.0</ele><time>2026-03-30T11:24:02.001Z</time></trkpt><trkpt lat="39.91790730173792" lon="8.553686095488317"><ele>4.0</ele><time>2026-03-30T11:24:03.001Z</time></trkpt><trkpt lat="39.91784059309747" lon="8.553717618981707"><ele>3.9999999999999996</ele><time>2026-03-30T11:24:04.001Z</time></trkpt><trkpt lat="39.91777122757024" lon="8.553770440975097"><ele>4.0</ele><time>2026-03-30T11:24:07.001Z</time></trkpt><trkpt lat="39.91771191671447" lon="8.55388778549465"><ele>4.0</ele><time>2026-03-30T11:24:10.001Z</time></trkpt><trkpt lat="39.917716260816086" lon="8.553995393771187"><ele>4.0</ele><time>2026-03-30T11:24:11.001Z</time></trkpt><trkpt lat="39.91775669916742" lon="8.554130357721334"><ele>4.0</ele><time>2026-03-30T11:24:12.001Z</time></trkpt><trkpt lat="39.91780962108496" lon="8.554288963538678"><ele>4.0</ele><time>2026-03-30T11:24:13.001Z</time></trkpt><trkpt lat="39.91785086564151" lon="8.55446589473933"><ele>3.6666666666666665</ele><time>2026-03-30T11:24:14.001Z</time></trkpt><trkpt lat="39.917892285805145" lon="8.554664077058414"><ele>3.333333333333333</ele><time>2026-03-30T11:24:15.001Z</time></trkpt><trkpt lat="39.917933453853024" lon="8.554850619559971"><ele>3.0</ele><time>2026-03-30T11:24:16.001Z</time></trkpt><trkpt lat="39.91797519939307" lon="8.555030411234583"><ele>3.0</ele><time>2026-03-30T11:24:17.001Z</time></trkpt><trkpt lat="39.91802004141556" lon="8.555205710626195"><ele>3.0</ele><time>2026-03-30T11:24:18.001Z</time></trkpt><trkpt lat="39.91807158089614" lon="8.555386589476955"><ele>3.0</ele><time>2026-03-30T11:24:19.001Z</time></trkpt><trkpt lat="39.91812757124051" lon="8.55557062339377"><ele>3.0</ele><time>2026-03-30T11:24:20.001Z</time></trkpt><trkpt lat="39.91818257626729" lon="8.5557625487763"><ele>3.0</ele><time>2026-03-30T11:24:21.001Z</time></trkpt><trkpt lat="39.918238877030554" lon="8.555957237801985"><ele>3.0</ele><time>2026-03-30T11:24:22.001Z</time></trkpt><trkpt lat="39.91829502560764" lon="8.556148313717015"><ele>3.0</ele><time>2026-03-30T11:24:23.001Z</time></trkpt><trkpt lat="39.918352266971404" lon="8.556339859354061"><ele>3.333333333333333</ele><time>2026-03-30T11:24:24.001Z</time></trkpt><trkpt lat="39.918410427146945" lon="8.556531662655614"><ele>3.6666666666666665</ele><time>2026-03-30T11:24:25.001Z</time></trkpt><trkpt lat="39.9184683666924" lon="8.5567245044217"><ele>4.0</ele><time>2026-03-30T11:24:26.001Z</time></trkpt><trkpt lat="39.91852552702046" lon="8.556915351770975"><ele>4.0</ele><time>2026-03-30T11:24:27.001Z</time></trkpt><trkpt lat="39.91857966506769" lon="8.557111344696786"><ele>4.0</ele><time>2026-03-30T11:24:28.001Z</time></trkpt><trkpt lat="39.91863637454854" lon="8.557310463986093"><ele>4.0</ele><time>2026-03-30T11:24:29.001Z</time></trkpt><trkpt lat="39.91869311965267" lon="8.557512032231491"><ele>4.0</ele><time>2026-03-30T11:24:30.001Z</time></trkpt><trkpt lat="39.918749109681336" lon="8.557718071021668"><ele>4.0</ele><time>2026-03-30T11:24:31.001Z</time></trkpt><trkpt lat="39.91880905755419" lon="8.55792581653511"><ele>4.0</ele><time>2026-03-30T11:24:32.001Z</time></trkpt><trkpt lat="39.91887044461188" lon="8.558130777529811"><ele>4.333333333333333</ele><time>2026-03-30T11:24:33.001Z</time></trkpt><trkpt lat="39.91893202616657" lon="8.558329187831886"><ele>4.666666666666667</ele><time>2026-03-30T11:24:34.001Z</time></trkpt><trkpt lat="39.91899181348223" lon="8.558534160798157"><ele>5.0</ele><time>2026-03-30T11:24:35.001Z</time></trkpt><trkpt lat="39.91905160830507" lon="8.558739956712792"><ele>4.333333333333334</ele><time>2026-03-30T11:24:36.001Z</time></trkpt><trkpt lat="39.91911088352004" lon="8.558946411466865"><ele>3.666666666666667</ele><time>2026-03-30T11:24:37.001Z</time></trkpt><trkpt lat="39.91917073001016" lon="8.559154763331646"><ele>3.0</ele><time>2026-03-30T11:24:38.001Z</time></trkpt><trkpt lat="39.91922960255169" lon="8.559364146049793"><ele>3.0</ele><time>2026-03-30T11:24:39.001Z</time></trkpt><trkpt lat="39.91928829567494" lon="8.559573008722626"><ele>3.0</ele><time>2026-03-30T11:24:40.001Z</time></trkpt><trkpt lat="39.91934852778988" lon="8.559782731303907"><ele>3.0</ele><time>2026-03-30T11:24:41.001Z</time></trkpt><trkpt lat="39.919410090828954" lon="8.559991104944965"><ele>3.0</ele><time>2026-03-30T11:24:42.001Z</time></trkpt><trkpt lat="39.91947297942288" lon="8.560199980114431"><ele>3.0</ele><time>2026-03-30T11:24:43.001Z</time></trkpt><trkpt lat="39.91953523043814" lon="8.560410651080213"><ele>3.0</ele><time>2026-03-30T11:24:44.001Z</time></trkpt><trkpt lat="39.919597465012494" lon="8.560624271685892"><ele>3.333333333333333</ele><time>2026-03-30T11:24:45.001Z</time></trkpt><trkpt lat="39.91966012082617" lon="8.560840179118976"><ele>3.6666666666666665</ele><time>2026-03-30T11:24:46.001Z</time></trkpt><trkpt lat="39.91972253585501" lon="8.561058811886852"><ele>4.0</ele><time>2026-03-30T11:24:47.001Z</time></trkpt><trkpt lat="39.919783885142614" lon="8.561277194061526"><ele>4.0</ele><time>2026-03-30T11:24:48.001Z</time></trkpt><trkpt lat="39.919845841487366" lon="8.561499189622372"><ele>4.0</ele><time>2026-03-30T11:24:49.001Z</time></trkpt><trkpt lat="39.91990986992825" lon="8.561722481954613"><ele>4.0</ele><time>2026-03-30T11:24:50.001Z</time></trkpt><trkpt lat="39.919976144794845" lon="8.561947740427742"><ele>4.333333333333333</ele><time>2026-03-30T11:24:51.001Z</time></trkpt><trkpt lat="39.9200418883797" lon="8.56217302834349"><ele>4.666666666666667</ele><time>2026-03-30T11:24:52.001Z</time></trkpt><trkpt lat="39.92010660524958" lon="8.562401091041963"><ele>5.0</ele><time>2026-03-30T11:24:53.001Z</time></trkpt><trkpt lat="39.920171512197605" lon="8.562631443941546"><ele>4.666666666666667</ele><time>2026-03-30T11:24:54.001Z</time></trkpt><trkpt lat="39.92023851544167" lon="8.562860570899131"><ele>4.333333333333333</ele><time>2026-03-30T11:24:55.001Z</time></trkpt><trkpt lat="39.920306037786894" lon="8.563089250424204"><ele>4.0</ele><time>2026-03-30T11:24:56.001Z</time></trkpt><trkpt lat="39.92037354956104" lon="8.563320957763484"><ele>4.0</ele><time>2026-03-30T11:24:57.001Z</time></trkpt><trkpt lat="39.92044155384498" lon="8.563555288837716"><ele>4.0</ele><time>2026-03-30T11:24:58.001Z</time></trkpt><trkpt lat="39.92050945493757" lon="8.563794713525862"><ele>4.0</ele><time>2026-03-30T11:24:59.001Z</time></trkpt><trkpt lat="39.92057797794381" lon="8.564033856572479"><ele>4.666666666666666</ele><time>2026-03-30T11:25:00.001Z</time></trkpt><trkpt lat="39.92064543766075" lon="8.564278745008497"><ele>5.333333333333333</ele><time>2026-03-30T11:25:01.001Z</time></trkpt><trkpt lat="39.92071490050992" lon="8.564521275287499"><ele>6.0</ele><time>2026-03-30T11:25:02.001Z</time></trkpt><trkpt lat="39.920790237235934" lon="8.564759953112183"><ele>6.333333333333334</ele><time>2026-03-30T11:25:03.001Z</time></trkpt><trkpt lat="39.920866575306064" lon="8.564997036664304"><ele>6.666666666666667</ele><time>2026-03-30T11:25:04.001Z</time></trkpt><trkpt lat="39.9209418002103" lon="8.565236325376285"><ele>7.0</ele><time>2026-03-30T11:25:05.001Z</time></trkpt><trkpt lat="39.92101800645365" lon="8.565472499320547"><ele>7.0</ele><time>2026-03-30T11:25:06.001Z</time></trkpt><trkpt lat="39.92109513901376" lon="8.565708433563024"><ele>7.0</ele><time>2026-03-30T11:25:07.001Z</time></trkpt><trkpt lat="39.92117497153638" lon="8.56594085720645"><ele>7.0</ele><time>2026-03-30T11:25:08.001Z</time></trkpt><trkpt lat="39.92125478972269" lon="8.566169274557637"><ele>7.0</ele><time>2026-03-30T11:25:09.001Z</time></trkpt><trkpt lat="39.921334936080406" lon="8.566396678689829"><ele>7.0</ele><time>2026-03-30T11:25:10.001Z</time></trkpt><trkpt lat="39.92141375725349" lon="8.56662267601753"><ele>7.0</ele><time>2026-03-30T11:25:11.001Z</time></trkpt><trkpt lat="39.92149370014412" lon="8.56684711532424"><ele>8.0</ele><time>2026-03-30T11:25:12.001Z</time></trkpt><trkpt lat="39.92157589657307" lon="8.567070916423136"><ele>9.0</ele><time>2026-03-30T11:25:13.001Z</time></trkpt><trkpt lat="39.92165599898023" lon="8.567297933444431"><ele>10.0</ele><time>2026-03-30T11:25:14.001Z</time></trkpt><trkpt lat="39.92173563588397" lon="8.567527053708938"><ele>10.0</ele><time>2026-03-30T11:25:15Z</time></trkpt><trkpt lat="39.921817700372145" lon="8.56775572724226"><ele>10.0</ele><time>2026-03-30T11:25:16Z</time></trkpt><trkpt lat="39.92189171783926" lon="8.567993807454462"><ele>10.0</ele><time>2026-03-30T11:25:17Z</time></trkpt><trkpt lat="39.92195171022464" lon="8.568240444976189"><ele>10.333333333333334</ele><time>2026-03-30T11:25:18Z</time></trkpt><trkpt lat="39.92199325174684" lon="8.56849338933404"><ele>10.666666666666666</ele><time>2026-03-30T11:25:19Z</time></trkpt><trkpt lat="39.922016629415616" lon="8.568747888107898"><ele>11.0</ele><time>2026-03-30T11:25:20Z</time></trkpt><trkpt lat="39.92203141327591" lon="8.569005744929688"><ele>10.333333333333332</ele><time>2026-03-30T11:25:21Z</time></trkpt><trkpt lat="39.92204221668389" lon="8.569261612349045"><ele>9.666666666666666</ele><time>2026-03-30T11:25:22Z</time></trkpt><trkpt lat="39.922049839883876" lon="8.56951924419214"><ele>9.0</ele><time>2026-03-30T11:25:23Z</time></trkpt><trkpt lat="39.92205854907227" lon="8.569779324796622"><ele>9.0</ele><time>2026-03-30T11:25:24Z</time></trkpt><trkpt lat="39.922071052263334" lon="8.570034205917162"><ele>9.0</ele><time>2026-03-30T11:25:25Z</time></trkpt><trkpt lat="39.92208674381409" lon="8.570290098575176"><ele>9.0</ele><time>2026-03-30T11:25:26Z</time></trkpt><trkpt lat="39.922109303301454" lon="8.570548276225933"><ele>8.666666666666666</ele><time>2026-03-30T11:25:27Z</time></trkpt><trkpt lat="39.922142294033" lon="8.570802781183053"><ele>8.333333333333332</ele><time>2026-03-30T11:25:28Z</time></trkpt><trkpt lat="39.922192492432" lon="8.571051106423857"><ele>8.0</ele><time>2026-03-30T11:25:29Z</time></trkpt><trkpt lat="39.92225817123991" lon="8.571291792946123"><ele>7.333333333333333</ele><time>2026-03-30T11:25:30Z</time></trkpt><trkpt lat="39.92233567143915" lon="8.57152906573189"><ele>6.666666666666666</ele><time>2026-03-30T11:25:31Z</time></trkpt><trkpt lat="39.92242204715618" lon="8.571759200498333"><ele>6.0</ele><time>2026-03-30T11:25:32Z</time></trkpt><trkpt lat="39.92251856133057" lon="8.571987022101194"><ele>6.333333333333334</ele><time>2026-03-30T11:25:33Z</time></trkpt><trkpt lat="39.92261438584229" lon="8.572210144079182"><ele>6.666666666666667</ele><time>2026-03-30T11:25:34Z</time></trkpt><trkpt lat="39.922711034766586" lon="8.572434040475075"><ele>7.0</ele><time>2026-03-30T11:25:35Z</time></trkpt><trkpt lat="39.92280810493901" lon="8.572653530872996"><ele>6.666666666666667</ele><time>2026-03-30T11:25:36Z</time></trkpt><trkpt lat="39.92291204950368" lon="8.572863414622278"><ele>6.333333333333334</ele><time>2026-03-30T11:25:37Z</time></trkpt><trkpt lat="39.92303006650334" lon="8.573060570810519"><ele>6.0</ele><time>2026-03-30T11:25:38Z</time></trkpt><trkpt lat="39.92315518794395" lon="8.573249064588007"><ele>6.0</ele><time>2026-03-30T11:25:39Z</time></trkpt><trkpt lat="39.923289513429204" lon="8.57342720864669"><ele>6.0</ele><time>2026-03-30T11:25:40Z</time></trkpt><trkpt lat="39.92343160042866" lon="8.573592436312286"><ele>6.0</ele><time>2026-03-30T11:25:41Z</time></trkpt><trkpt lat="39.923581835626216" lon="8.573746657437214"><ele>6.333333333333334</ele><time>2026-03-30T11:25:42Z</time></trkpt><trkpt lat="39.92373478729424" lon="8.57389764428127"><ele>6.666666666666667</ele><time>2026-03-30T11:25:43Z</time></trkpt><trkpt lat="39.92389028086432" lon="8.57404436678765"><ele>7.0</ele><time>2026-03-30T11:25:44Z</time></trkpt><trkpt lat="39.92404295776867" lon="8.574189890852557"><ele>7.0</ele><time>2026-03-30T11:25:45Z</time></trkpt><trkpt lat="39.9241983807361" lon="8.57433290575519"><ele>7.0</ele><time>2026-03-30T11:25:46Z</time></trkpt><trkpt lat="39.92434919195056" lon="8.574471950177918"><ele>7.0</ele><time>2026-03-30T11:25:47Z</time></trkpt><trkpt lat="39.924500712646825" lon="8.574612047672613"><ele>7.0</ele><time>2026-03-30T11:25:48Z</time></trkpt><trkpt lat="39.92465087443847" lon="8.57475114803176"><ele>7.0</ele><time>2026-03-30T11:25:49Z</time></trkpt><trkpt lat="39.92480072746707" lon="8.57488986019611"><ele>7.0</ele><time>2026-03-30T11:25:50Z</time></trkpt><trkpt lat="39.924945612377996" lon="8.57502590827262"><ele>7.333333333333334</ele><time>2026-03-30T11:25:51Z</time></trkpt><trkpt lat="39.925082887766926" lon="8.57515657442766"><ele>7.666666666666666</ele><time>2026-03-30T11:25:52Z</time></trkpt><trkpt lat="39.925217232675564" lon="8.575278933878904"><ele>8.0</ele><time>2026-03-30T11:25:53Z</time></trkpt><trkpt lat="39.925346751104016" lon="8.575400891430965"><ele>8.0</ele><time>2026-03-30T11:25:54Z</time></trkpt><trkpt lat="39.92547039389151" lon="8.5755086850827"><ele>8.0</ele><time>2026-03-30T11:25:55Z</time></trkpt><trkpt lat="39.92558811104002" lon="8.57561120988712"><ele>8.0</ele><time>2026-03-30T11:25:56Z</time></trkpt><trkpt lat="39.925696091258985" lon="8.575715081997608"><ele>8.0</ele><time>2026-03-30T11:25:57Z</time></trkpt><trkpt lat="39.92580704361371" lon="8.575811808923085"><ele>8.25</ele><time>2026-03-30T11:25:58Z</time></trkpt><trkpt lat="39.92590781351616" lon="8.57593132994938"><ele>8.5</ele><time>2026-03-30T11:25:59Z</time></trkpt><trkpt lat="39.92600925947766" lon="8.576057884999068"><ele>8.75</ele><time>2026-03-30T11:26:00Z</time></trkpt><trkpt lat="39.92609781463069" lon="8.576206283824275"><ele>9.0</ele><time>2026-03-30T11:26:01Z</time></trkpt><trkpt lat="39.92617863514875" lon="8.576376525284386"><ele>9.0</ele><time>2026-03-30T11:26:02Z</time></trkpt><trkpt lat="39.92625715309709" lon="8.57655896233778"><ele>9.0</ele><time>2026-03-30T11:26:03Z</time></trkpt><trkpt lat="39.9263374544375" lon="8.576745828865967"><ele>9.0</ele><time>2026-03-30T11:26:04Z</time></trkpt><trkpt lat="39.92641976848838" lon="8.576923334830463"><ele>8.666666666666666</ele><time>2026-03-30T11:26:05Z</time></trkpt><trkpt lat="39.92650043265658" lon="8.577098709446501"><ele>8.333333333333332</ele><time>2026-03-30T11:26:06Z</time></trkpt><trkpt lat="39.9265762112497" lon="8.577268216440709"><ele>8.0</ele><time>2026-03-30T11:26:07Z</time></trkpt><trkpt lat="39.926643174670374" lon="8.577432070817991"><ele>8.0</ele><time>2026-03-30T11:26:08Z</time></trkpt><trkpt lat="39.926699530578716" lon="8.577587230412194"><ele>8.0</ele><time>2026-03-30T11:26:09Z</time></trkpt><trkpt lat="39.92674247651592" lon="8.57772947616669"><ele>8.0</ele><time>2026-03-30T11:26:10Z</time></trkpt><trkpt lat="39.92677525310784" lon="8.577864730351532"><ele>8.0</ele><time>2026-03-30T11:26:11Z</time></trkpt><trkpt lat="39.926790259734204" lon="8.577998367098232"><ele>8.333333333333332</ele><time>2026-03-30T11:26:12Z</time></trkpt><trkpt lat="39.92677565416428" lon="8.578121677905974"><ele>8.666666666666666</ele><time>2026-03-30T11:26:13Z</time></trkpt><trkpt lat="39.92674939886039" lon="8.57821313390718"><ele>9.0</ele><time>2026-03-30T11:26:14Z</time></trkpt><trkpt lat="39.92671082595806" lon="8.57830925116097"><ele>9.333333333333334</ele><time>2026-03-30T11:26:16Z</time></trkpt><trkpt lat="39.92667500989168" lon="8.578406724957963"><ele>9.666666666666668</ele><time>2026-03-30T11:26:18Z</time></trkpt><trkpt lat="39.926623957929756" lon="8.578524208519557"><ele>10.0</ele><time>2026-03-30T11:26:20Z</time></trkpt><trkpt lat="39.92658706149031" lon="8.578593631781372"><ele>10.0</ele><time>2026-03-30T11:26:21Z</time></trkpt><trkpt lat="39.926539751596" lon="8.57867367551144"><ele>10.0</ele><time>2026-03-30T11:26:22Z</time></trkpt><trkpt lat="39.92648429129335" lon="8.578751461450448"><ele>10.0</ele><time>2026-03-30T11:26:23Z</time></trkpt><trkpt lat="39.92640381149133" lon="8.57881209446366"><ele>10.0</ele><time>2026-03-30T11:26:24Z</time></trkpt><trkpt lat="39.92630324641961" lon="8.578860469631712"><ele>10.0</ele><time>2026-03-30T11:26:25Z</time></trkpt><trkpt lat="39.926191787564285" lon="8.578919116593271"><ele>9.75</ele><time>2026-03-30T11:26:26Z</time></trkpt><trkpt lat="39.926086778020746" lon="8.578985341136338"><ele>9.5</ele><time>2026-03-30T11:26:27Z</time></trkpt><trkpt lat="39.9259832572776" lon="8.579050925996413"><ele>9.25</ele><time>2026-03-30T11:26:28Z</time></trkpt><trkpt lat="39.92587610449567" lon="8.579118641850492"><ele>9.0</ele><time>2026-03-30T11:26:29Z</time></trkpt><trkpt lat="39.925765268533254" lon="8.579184845343383"><ele>8.75</ele><time>2026-03-30T11:26:30Z</time></trkpt><trkpt lat="39.925653058473976" lon="8.579252306881987"><ele>8.5</ele><time>2026-03-30T11:26:31Z</time></trkpt><trkpt lat="39.925533703793654" lon="8.579323075387572"><ele>8.25</ele><time>2026-03-30T11:26:32Z</time></trkpt><trkpt lat="39.92541768641599" lon="8.579390889993885"><ele>8.0</ele><time>2026-03-30T11:26:33Z</time></trkpt><trkpt lat="39.92530079880591" lon="8.579460913827663"><ele>7.5</ele><time>2026-03-30T11:26:34Z</time></trkpt><trkpt lat="39.925181301233415" lon="8.57952787731707"><ele>7.0</ele><time>2026-03-30T11:26:35Z</time></trkpt><trkpt lat="39.92506357121178" lon="8.579598584071665"><ele>6.5</ele><time>2026-03-30T11:26:36Z</time></trkpt><trkpt lat="39.92494284800016" lon="8.579667382761503"><ele>6.0</ele><time>2026-03-30T11:26:37Z</time></trkpt><trkpt lat="39.92481683192172" lon="8.579742195257788"><ele>6.0</ele><time>2026-03-30T11:26:38Z</time></trkpt><trkpt lat="39.92468868932764" lon="8.579818905972468"><ele>6.0</ele><time>2026-03-30T11:26:39Z</time></trkpt><trkpt lat="39.92455812470305" lon="8.579896952014376"><ele>6.0</ele><time>2026-03-30T11:26:40Z</time></trkpt><trkpt lat="39.92442774985568" lon="8.579971005273027"><ele>6.0</ele><time>2026-03-30T11:26:41Z</time></trkpt><trkpt lat="39.92429447112564" lon="8.580029242755003"><ele>6.666666666666666</ele><time>2026-03-30T11:26:42Z</time></trkpt><trkpt lat="39.92413517361256" lon="8.580059054329793"><ele>7.333333333333333</ele><time>2026-03-30T11:26:43Z</time></trkpt><trkpt lat="39.923968541374954" lon="8.580066001354691"><ele>8.0</ele><time>2026-03-30T11:26:44Z</time></trkpt><trkpt lat="39.92379691424315" lon="8.580070328469638"><ele>8.0</ele><time>2026-03-30T11:26:45Z</time></trkpt><trkpt lat="39.923615863718524" lon="8.580069904521284"><ele>8.0</ele><time>2026-03-30T11:26:46Z</time></trkpt><trkpt lat="39.923445019566174" lon="8.580071290484703"><ele>8.0</ele><time>2026-03-30T11:26:47Z</time></trkpt><trkpt lat="39.92349948054345" lon="8.58053673709154"><ele>7.666666666666666</ele><time>2026-03-30T11:26:48Z</time></trkpt><trkpt lat="39.92335530983715" lon="8.580615504401115"><ele>7.333333333333334</ele><time>2026-03-30T11:26:49Z</time></trkpt><trkpt lat="39.92321153717382" lon="8.58070621099328"><ele>7.0</ele><time>2026-03-30T11:26:50Z</time></trkpt><trkpt lat="39.92306766334632" lon="8.580792891896664"><ele>7.0</ele><time>2026-03-30T11:26:51Z</time></trkpt><trkpt lat="39.92292005764696" lon="8.580881405429036"><ele>7.0</ele><time>2026-03-30T11:26:52Z</time></trkpt><trkpt lat="39.92277296386171" lon="8.580964510639594"><ele>7.0</ele><time>2026-03-30T11:26:53Z</time></trkpt><trkpt lat="39.92247725406502" lon="8.581141234316519"><ele>6.666666666666667</ele><time>2026-03-30T11:26:55Z</time></trkpt><trkpt lat="39.92231646276789" lon="8.581231901900434"><ele>6.333333333333334</ele><time>2026-03-30T11:26:56Z</time></trkpt><trkpt lat="39.92215725728913" lon="8.581309861904268"><ele>6.0</ele><time>2026-03-30T11:26:57Z</time></trkpt><trkpt lat="39.921992584513255" lon="8.581392418859005"><ele>6.0</ele><time>2026-03-30T11:26:58Z</time></trkpt><trkpt lat="39.92183171327854" lon="8.581472327187713"><ele>6.0</ele><time>2026-03-30T11:26:59Z</time></trkpt><trkpt lat="39.92166874200815" lon="8.581552464773525"><ele>6.0</ele><time>2026-03-30T11:27:00Z</time></trkpt><trkpt lat="39.92150743118373" lon="8.58163373862531"><ele>5.666666666666667</ele><time>2026-03-30T11:27:01Z</time></trkpt><trkpt lat="39.92135124681327" lon="8.581721585352765"><ele>5.333333333333334</ele><time>2026-03-30T11:27:02Z</time></trkpt><trkpt lat="39.921187815316934" lon="8.581810969023595"><ele>5.0</ele><time>2026-03-30T11:27:03Z</time></trkpt><trkpt lat="39.921023982685035" lon="8.581900755159934"><ele>5.333333333333334</ele><time>2026-03-30T11:27:04Z</time></trkpt><trkpt lat="39.920858429174764" lon="8.581987289672758"><ele>5.666666666666667</ele><time>2026-03-30T11:27:05Z</time></trkpt><trkpt lat="39.92069546238553" lon="8.582071703565644"><ele>6.0</ele><time>2026-03-30T11:27:06Z</time></trkpt><trkpt lat="39.92052752779792" lon="8.5821575249348"><ele>6.0</ele><time>2026-03-30T11:27:07Z</time></trkpt><trkpt lat="39.92036099742042" lon="8.58224538903772"><ele>6.0</ele><time>2026-03-30T11:27:08Z</time></trkpt><trkpt lat="39.920194135199985" lon="8.582335581388522"><ele>6.0</ele><time>2026-03-30T11:27:09Z</time></trkpt><trkpt lat="39.920030484196246" lon="8.58242062975798"><ele>6.0</ele><time>2026-03-30T11:27:10Z</time></trkpt><trkpt lat="39.91986424459602" lon="8.5825197452408"><ele>6.0</ele><time>2026-03-30T11:27:11Z</time></trkpt><trkpt lat="39.91970195868034" lon="8.58261006473096"><ele>6.0</ele><time>2026-03-30T11:27:12Z</time></trkpt><trkpt lat="39.91954018425659" lon="8.58269761094651"><ele>6.0</ele><time>2026-03-30T11:27:13Z</time></trkpt><trkpt lat="39.91937454548273" lon="8.582785835601133"><ele>6.0</ele><time>2026-03-30T11:27:14Z</time></trkpt><trkpt lat="39.919202605572046" lon="8.582868604132365"><ele>6.0</ele><time>2026-03-30T11:27:15Z</time></trkpt><trkpt lat="39.91903716463079" lon="8.582953657058424"><ele>5.333333333333333</ele><time>2026-03-30T11:27:16Z</time></trkpt><trkpt lat="39.918871485323166" lon="8.583046784960645"><ele>4.666666666666666</ele><time>2026-03-30T11:27:17Z</time></trkpt><trkpt lat="39.91870138841419" lon="8.583139583544972"><ele>4.0</ele><time>2026-03-30T11:27:18Z</time></trkpt><trkpt lat="39.91853182734682" lon="8.583233587602084"><ele>5.0</ele><time>2026-03-30T11:27:19Z</time></trkpt><trkpt lat="39.91835873559438" lon="8.583324548758956"><ele>6.0</ele><time>2026-03-30T11:27:20Z</time></trkpt><trkpt lat="39.91818767274998" lon="8.583419358077013"><ele>7.0</ele><time>2026-03-30T11:27:21Z</time></trkpt><trkpt lat="39.918015944619825" lon="8.583512763243638"><ele>7.0</ele><time>2026-03-30T11:27:22Z</time></trkpt><trkpt lat="39.91784274822387" lon="8.58360442711446"><ele>7.0</ele><time>2026-03-30T11:27:23Z</time></trkpt><trkpt lat="39.91767094607546" lon="8.583704417098135"><ele>7.0</ele><time>2026-03-30T11:27:24Z</time></trkpt><trkpt lat="39.91749139185154" lon="8.583801314814023"><ele>6.666666666666667</ele><time>2026-03-30T11:27:25Z</time></trkpt><trkpt lat="39.917305205969406" lon="8.583900063065943"><ele>6.333333333333334</ele><time>2026-03-30T11:27:26Z</time></trkpt><trkpt lat="39.91712122838014" lon="8.584019536100563"><ele>6.0</ele><time>2026-03-30T11:27:27Z</time></trkpt><trkpt lat="39.91693722094666" lon="8.584152741464223"><ele>6.0</ele><time>2026-03-30T11:27:28Z</time></trkpt><trkpt lat="39.91675144763082" lon="8.58431504054435"><ele>6.0</ele><time>2026-03-30T11:27:29Z</time></trkpt><trkpt lat="39.916570109396545" lon="8.584436574077566"><ele>6.0</ele><time>2026-03-30T11:27:30Z</time></trkpt><trkpt lat="39.91639399607212" lon="8.584547772630277"><ele>6.0</ele><time>2026-03-30T11:27:31Z</time></trkpt><trkpt lat="39.91622890511912" lon="8.584659547373553"><ele>6.0</ele><time>2026-03-30T11:27:32Z</time></trkpt><trkpt lat="39.91607243972917" lon="8.584776736200427"><ele>6.0</ele><time>2026-03-30T11:27:33Z</time></trkpt><trkpt lat="39.91591996603491" lon="8.58489143156559"><ele>6.333333333333334</ele><time>2026-03-30T11:27:34Z</time></trkpt><trkpt lat="39.91576532192978" lon="8.584981697567084"><ele>6.666666666666667</ele><time>2026-03-30T11:27:35Z</time></trkpt><trkpt lat="39.915612687607585" lon="8.585067494433238"><ele>7.0</ele><time>2026-03-30T11:27:36Z</time></trkpt><trkpt lat="39.91547167013972" lon="8.585148405838423"><ele>7.0</ele><time>2026-03-30T11:27:37Z</time></trkpt><trkpt lat="39.91534689967013" lon="8.585233584708343"><ele>7.0</ele><time>2026-03-30T11:27:38Z</time></trkpt><trkpt lat="39.915225959615974" lon="8.585312856518367"><ele>7.0</ele><time>2026-03-30T11:27:39Z</time></trkpt><trkpt lat="39.91511880849396" lon="8.585384441619656"><ele>7.0</ele><time>2026-03-30T11:27:40Z</time></trkpt><trkpt lat="39.915021725291325" lon="8.585451059050081"><ele>7.199999999999999</ele><time>2026-03-30T11:27:41Z</time></trkpt><trkpt lat="39.91493741563069" lon="8.585485302278757"><ele>7.3999999999999995</ele><time>2026-03-30T11:27:42Z</time></trkpt><trkpt lat="39.91486464355119" lon="8.585495145175361"><ele>7.6000000000000005</ele><time>2026-03-30T11:27:43Z</time></trkpt><trkpt lat="39.91476759295522" lon="8.585526624692198"><ele>7.800000000000001</ele><time>2026-03-30T11:27:45Z</time></trkpt><trkpt lat="39.91474396023809" lon="8.58563965277907"><ele>8.0</ele><time>2026-03-30T11:27:47Z</time></trkpt><trkpt lat="39.91483939768575" lon="8.585707682830874"><ele>7.999999999999999</ele><time>2026-03-30T11:27:49Z</time></trkpt><trkpt lat="39.91490863600457" lon="8.585672060543567"><ele>8.0</ele><time>2026-03-30T11:27:50Z</time></trkpt><trkpt lat="39.91496596011524" lon="8.585599875793182"><ele>8.0</ele><time>2026-03-30T11:27:51Z</time></trkpt><trkpt lat="39.91503005466579" lon="8.585529654209035"><ele>8.0</ele><time>2026-03-30T11:27:52Z</time></trkpt><trkpt lat="39.91510807416784" lon="8.5854806504946"><ele>7.999999999999999</ele><time>2026-03-30T11:27:53Z</time></trkpt><trkpt lat="39.91519951003951" lon="8.585432304096763"><ele>8.0</ele><time>2026-03-30T11:27:54Z</time></trkpt><trkpt lat="39.915298625591674" lon="8.585369774777408"><ele>7.75</ele><time>2026-03-30T11:27:55Z</time></trkpt><trkpt lat="39.91540731630087" lon="8.58529672398322"><ele>7.5</ele><time>2026-03-30T11:27:56Z</time></trkpt><trkpt lat="39.91551616175908" lon="8.58522814127728"><ele>7.25</ele><time>2026-03-30T11:27:57Z</time></trkpt><trkpt lat="39.91562541561787" lon="8.58516306314047"><ele>7.0</ele><time>2026-03-30T11:27:58Z</time></trkpt><trkpt lat="39.91573633988489" lon="8.58509658348893"><ele>7.0</ele><time>2026-03-30T11:27:59Z</time></trkpt><trkpt lat="39.91584309234054" lon="8.585027454351536"><ele>7.0</ele><time>2026-03-30T11:28:00Z</time></trkpt><trkpt lat="39.915951041660605" lon="8.58495885757317"><ele>7.0</ele><time>2026-03-30T11:28:01Z</time></trkpt><trkpt lat="39.91605108215862" lon="8.584904582434387"><ele>7.0</ele><time>2026-03-30T11:28:02Z</time></trkpt><trkpt lat="39.91614612022417" lon="8.584835169357149"><ele>6.8</ele><time>2026-03-30T11:28:03Z</time></trkpt><trkpt lat="39.91623464050025" lon="8.584778176479599"><ele>6.6</ele><time>2026-03-30T11:28:04Z</time></trkpt><trkpt lat="39.916316657535276" lon="8.584738631415547"><ele>6.3999999999999995</ele><time>2026-03-30T11:28:05Z</time></trkpt><trkpt lat="39.91639739485253" lon="8.584729044377587"><ele>6.199999999999999</ele><time>2026-03-30T11:28:06Z</time></trkpt><trkpt lat="39.916479256418434" lon="8.584774240086803"><ele>6.0</ele><time>2026-03-30T11:28:07Z</time></trkpt><trkpt lat="39.91654658044741" lon="8.584868116458447"><ele>6.0</ele><time>2026-03-30T11:28:08Z</time></trkpt><trkpt lat="39.91658341357711" lon="8.58499988133908"><ele>6.0</ele><time>2026-03-30T11:28:09Z</time></trkpt><trkpt lat="39.91658808325342" lon="8.58514922181012"><ele>6.0</ele><time>2026-03-30T11:28:10Z</time></trkpt><trkpt lat="39.9165712513544" lon="8.585295291957337"><ele>6.0</ele><time>2026-03-30T11:28:11Z</time></trkpt><trkpt lat="39.9165345830269" lon="8.585450326205393"><ele>6.25</ele><time>2026-03-30T11:28:12Z</time></trkpt><trkpt lat="39.916491505938446" lon="8.58559782123089"><ele>6.5</ele><time>2026-03-30T11:28:13Z</time></trkpt><trkpt lat="39.91644830442705" lon="8.585748791919395"><ele>6.75</ele><time>2026-03-30T11:28:14Z</time></trkpt><trkpt lat="39.91641401685184" lon="8.585910168403773"><ele>7.0</ele><time>2026-03-30T11:28:15Z</time></trkpt><trkpt lat="39.91638035185125" lon="8.58607616002214"><ele>6.75</ele><time>2026-03-30T11:28:16Z</time></trkpt><trkpt lat="39.91634711759426" lon="8.586243933970119"><ele>6.5</ele><time>2026-03-30T11:28:17Z</time></trkpt><trkpt lat="39.91631112637232" lon="8.586415134220978"><ele>6.25</ele><time>2026-03-30T11:28:18Z</time></trkpt><trkpt lat="39.91627423480722" lon="8.58658957500247"><ele>6.0</ele><time>2026-03-30T11:28:19Z</time></trkpt><trkpt lat="39.91623667931337" lon="8.586767890735477"><ele>6.0</ele><time>2026-03-30T11:28:20Z</time></trkpt><trkpt lat="39.916196284645785" lon="8.586951989560115"><ele>6.0</ele><time>2026-03-30T11:28:21Z</time></trkpt><trkpt lat="39.91615682067463" lon="8.58713914471477"><ele>6.0</ele><time>2026-03-30T11:28:22Z</time></trkpt><trkpt lat="39.916115490939326" lon="8.587333272016485"><ele>6.0</ele><time>2026-03-30T11:28:23Z</time></trkpt><trkpt lat="39.91607119123171" lon="8.587532235272427"><ele>6.0</ele><time>2026-03-30T11:28:24Z</time></trkpt><trkpt lat="39.91602727932341" lon="8.587725487001215"><ele>6.0</ele><time>2026-03-30T11:28:25Z</time></trkpt><trkpt lat="39.91598486685926" lon="8.58792103233609"><ele>6.0</ele><time>2026-03-30T11:28:26Z</time></trkpt><trkpt lat="39.91594484788999" lon="8.58811819589358"><ele>6.0</ele><time>2026-03-30T11:28:27Z</time></trkpt><trkpt lat="39.91590340435024" lon="8.588317305084134"><ele>6.0</ele><time>2026-03-30T11:28:28Z</time></trkpt><trkpt lat="39.91586642605848" lon="8.588522466710764"><ele>5.0</ele><time>2026-03-30T11:28:29Z</time></trkpt><trkpt lat="39.915817724200096" lon="8.588725902678544"><ele>4.0</ele><time>2026-03-30T11:28:30Z</time></trkpt><trkpt lat="39.91577305798207" lon="8.588937647457465"><ele>3.0</ele><time>2026-03-30T11:28:31Z</time></trkpt><trkpt lat="39.91572700195824" lon="8.589145567850633"><ele>3.0</ele><time>2026-03-30T11:28:32Z</time></trkpt><trkpt lat="39.915695757161856" lon="8.589367872728497"><ele>3.0</ele><time>2026-03-30T11:28:33Z</time></trkpt><trkpt lat="39.9156756483577" lon="8.589594292237097"><ele>3.0</ele><time>2026-03-30T11:28:34Z</time></trkpt><trkpt lat="39.91567873632759" lon="8.589818543454607"><ele>3.666666666666667</ele><time>2026-03-30T11:28:35Z</time></trkpt><trkpt lat="39.915697589329845" lon="8.590042708976302"><ele>4.333333333333334</ele><time>2026-03-30T11:28:36Z</time></trkpt><trkpt lat="39.91573137681905" lon="8.590260232733852"><ele>5.0</ele><time>2026-03-30T11:28:37Z</time></trkpt><trkpt lat="39.91577983807138" lon="8.590475876953732"><ele>5.0</ele><time>2026-03-30T11:28:38Z</time></trkpt><trkpt lat="39.915833963397084" lon="8.590687861334247"><ele>5.0</ele><time>2026-03-30T11:28:39Z</time></trkpt><trkpt lat="39.915887322656964" lon="8.590889322841987"><ele>5.0</ele><time>2026-03-30T11:28:40Z</time></trkpt><trkpt lat="39.91593011809634" lon="8.59108644759807"><ele>5.333333333333334</ele><time>2026-03-30T11:28:41Z</time></trkpt><trkpt lat="39.91596992425079" lon="8.59128506326068"><ele>5.666666666666667</ele><time>2026-03-30T11:28:42Z</time></trkpt><trkpt lat="39.91601845975359" lon="8.591484004509647"><ele>6.0</ele><time>2026-03-30T11:28:43Z</time></trkpt><trkpt lat="39.91607453276705" lon="8.591689271754754"><ele>6.0</ele><time>2026-03-30T11:28:44Z</time></trkpt><trkpt lat="39.91612425976907" lon="8.591901045297575"><ele>6.0</ele><time>2026-03-30T11:28:45Z</time></trkpt><trkpt lat="39.916174211283504" lon="8.592114176578335"><ele>6.0</ele><time>2026-03-30T11:28:46Z</time></trkpt><trkpt lat="39.91622878495183" lon="8.592327010889836"><ele>6.0</ele><time>2026-03-30T11:28:47Z</time></trkpt><trkpt lat="39.916286000868865" lon="8.59254495358595"><ele>6.0</ele><time>2026-03-30T11:28:48Z</time></trkpt><trkpt lat="39.916340298520254" lon="8.59276584883105"><ele>6.0</ele><time>2026-03-30T11:28:49Z</time></trkpt><trkpt lat="39.916396668132556" lon="8.592990239821638"><ele>5.666666666666667</ele><time>2026-03-30T11:28:50Z</time></trkpt><trkpt lat="39.91645168110408" lon="8.593212707414999"><ele>5.333333333333334</ele><time>2026-03-30T11:28:51Z</time></trkpt><trkpt lat="39.916511293679385" lon="8.593441679677575"><ele>5.0</ele><time>2026-03-30T11:28:52Z</time></trkpt><trkpt lat="39.916568102911754" lon="8.593671525063055"><ele>5.333333333333334</ele><time>2026-03-30T11:28:53Z</time></trkpt><trkpt lat="39.916628919489746" lon="8.593908026104426"><ele>5.666666666666667</ele><time>2026-03-30T11:28:54Z</time></trkpt><trkpt lat="39.91668630945135" lon="8.594142966206725"><ele>6.0</ele><time>2026-03-30T11:28:55Z</time></trkpt><trkpt lat="39.91674315551357" lon="8.59437352976205"><ele>6.0</ele><time>2026-03-30T11:28:56Z</time></trkpt><trkpt lat="39.916799984749616" lon="8.594605832060628"><ele>6.0</ele><time>2026-03-30T11:28:57Z</time></trkpt><trkpt lat="39.91685426468963" lon="8.594838814460616"><ele>6.0</ele><time>2026-03-30T11:28:58Z</time></trkpt><trkpt lat="39.916900769945435" lon="8.595078213963005"><ele>6.0</ele><time>2026-03-30T11:28:59Z</time></trkpt><trkpt lat="39.916929060703985" lon="8.595319855846679"><ele>6.0</ele><time>2026-03-30T11:28:59.999Z</time></trkpt><trkpt lat="39.916938697082436" lon="8.595564881032868"><ele>6.0</ele><time>2026-03-30T11:29:00.999Z</time></trkpt><trkpt lat="39.91694052746273" lon="8.595814438919474"><ele>5.666666666666667</ele><time>2026-03-30T11:29:01.999Z</time></trkpt><trkpt lat="39.916928704813635" lon="8.596072835065955"><ele>5.333333333333334</ele><time>2026-03-30T11:29:02.999Z</time></trkpt><trkpt lat="39.91691688837616" lon="8.596330142118825"><ele>5.0</ele><time>2026-03-30T11:29:03.999Z</time></trkpt><trkpt lat="39.91690724102112" lon="8.596597075745597"><ele>5.0</ele><time>2026-03-30T11:29:04.999Z</time></trkpt><trkpt lat="39.91689726938096" lon="8.596863349876925"><ele>5.0</ele><time>2026-03-30T11:29:05.999Z</time></trkpt><trkpt lat="39.91688966614999" lon="8.597136377639421"><ele>5.0</ele><time>2026-03-30T11:29:06.999Z</time></trkpt><trkpt lat="39.916883279569014" lon="8.597400294457733"><ele>4.666666666666667</ele><time>2026-03-30T11:29:07.999Z</time></trkpt><trkpt lat="39.91687874325866" lon="8.597657243900027"><ele>4.333333333333333</ele><time>2026-03-30T11:29:08.999Z</time></trkpt><trkpt lat="39.916878421243375" lon="8.597916075502356"><ele>4.0</ele><time>2026-03-30T11:29:09.999Z</time></trkpt><trkpt lat="39.916874514200714" lon="8.59816808315995"><ele>4.0</ele><time>2026-03-30T11:29:10.999Z</time></trkpt><trkpt lat="39.91686871533658" lon="8.598403870399594"><ele>4.0</ele><time>2026-03-30T11:29:11.999Z</time></trkpt><trkpt lat="39.9168643734941" lon="8.598630468603211"><ele>4.0</ele><time>2026-03-30T11:29:12.999Z</time></trkpt><trkpt lat="39.9168569134638" lon="8.598852962094503"><ele>4.0</ele><time>2026-03-30T11:29:13.999Z</time></trkpt><trkpt lat="39.916850437399745" lon="8.599064487465803"><ele>4.0</ele><time>2026-03-30T11:29:14.999Z</time></trkpt><trkpt lat="39.916843122186485" lon="8.59928017787478"><ele>4.0</ele><time>2026-03-30T11:29:15.999Z</time></trkpt><trkpt lat="39.9168366488539" lon="8.599495886965814"><ele>4.333333333333333</ele><time>2026-03-30T11:29:16.999Z</time></trkpt><trkpt lat="39.91683236698011" lon="8.599706797386999"><ele>4.666666666666667</ele><time>2026-03-30T11:29:17.999Z</time></trkpt><trkpt lat="39.916828821894015" lon="8.59991988763643"><ele>5.0</ele><time>2026-03-30T11:29:18.999Z</time></trkpt><trkpt lat="39.91682258208704" lon="8.6001396680792"><ele>5.666666666666667</ele><time>2026-03-30T11:29:19.999Z</time></trkpt><trkpt lat="39.91681830287669" lon="8.600361576686618"><ele>6.333333333333334</ele><time>2026-03-30T11:29:20.999Z</time></trkpt><trkpt lat="39.9168123122454" lon="8.600579674777684"><ele>7.0</ele><time>2026-03-30T11:29:21.999Z</time></trkpt><trkpt lat="39.91680676281565" lon="8.600802061026661"><ele>7.0</ele><time>2026-03-30T11:29:22.999Z</time></trkpt><trkpt lat="39.916797525138904" lon="8.601024550024109"><ele>7.0</ele><time>2026-03-30T11:29:23.999Z</time></trkpt><trkpt lat="39.916785629857614" lon="8.601246733813621"><ele>7.0</ele><time>2026-03-30T11:29:25Z</time></trkpt><trkpt lat="39.91676366000725" lon="8.601467889747456"><ele>6.333333333333334</ele><time>2026-03-30T11:29:26Z</time></trkpt><trkpt lat="39.916738798249604" lon="8.601687854913239"><ele>5.666666666666667</ele><time>2026-03-30T11:29:27Z</time></trkpt><trkpt lat="39.91670426283214" lon="8.601904615043692"><ele>5.0</ele><time>2026-03-30T11:29:28Z</time></trkpt><trkpt lat="39.91666338770049" lon="8.602122035276784"><ele>5.0</ele><time>2026-03-30T11:29:29Z</time></trkpt><trkpt lat="39.916610231475545" lon="8.602340050985202"><ele>5.0</ele><time>2026-03-30T11:29:30Z</time></trkpt><trkpt lat="39.91654828225576" lon="8.602554979529492"><ele>5.0</ele><time>2026-03-30T11:29:31Z</time></trkpt><trkpt lat="39.91648449580759" lon="8.602764501126027"><ele>5.666666666666667</ele><time>2026-03-30T11:29:32Z</time></trkpt><trkpt lat="39.916410001734704" lon="8.602965131373608"><ele>6.333333333333334</ele><time>2026-03-30T11:29:33Z</time></trkpt><trkpt lat="39.916325884492466" lon="8.603164273812338"><ele>7.0</ele><time>2026-03-30T11:29:34Z</time></trkpt><trkpt lat="39.9162396490536" lon="8.60336421554736"><ele>7.0</ele><time>2026-03-30T11:29:35Z</time></trkpt><trkpt lat="39.91615237185659" lon="8.603553977219024"><ele>7.0</ele><time>2026-03-30T11:29:36Z</time></trkpt><trkpt lat="39.916067177855034" lon="8.603742250372228"><ele>7.0</ele><time>2026-03-30T11:29:37Z</time></trkpt><trkpt lat="39.91597940281765" lon="8.603932276964384"><ele>7.0</ele><time>2026-03-30T11:29:38Z</time></trkpt><trkpt lat="39.915891513765935" lon="8.604117903335947"><ele>7.0</ele><time>2026-03-30T11:29:39Z</time></trkpt><trkpt lat="39.915798114381424" lon="8.604300437775379"><ele>7.0</ele><time>2026-03-30T11:29:40Z</time></trkpt><trkpt lat="39.915708025444694" lon="8.604482596600569"><ele>7.666666666666667</ele><time>2026-03-30T11:29:41Z</time></trkpt><trkpt lat="39.915618458245845" lon="8.60466740311393"><ele>8.333333333333334</ele><time>2026-03-30T11:29:42Z</time></trkpt><trkpt lat="39.91552962356671" lon="8.60485165517285"><ele>9.0</ele><time>2026-03-30T11:29:43Z</time></trkpt><trkpt lat="39.91543934525235" lon="8.605030537938728"><ele>9.0</ele><time>2026-03-30T11:29:44Z</time></trkpt><trkpt lat="39.91535399397137" lon="8.605209723851928"><ele>9.0</ele><time>2026-03-30T11:29:45Z</time></trkpt><trkpt lat="39.91526911303634" lon="8.6053899424282"><ele>9.0</ele><time>2026-03-30T11:29:46Z</time></trkpt><trkpt lat="39.915188343318356" lon="8.605575380252017"><ele>8.666666666666666</ele><time>2026-03-30T11:29:47Z</time></trkpt><trkpt lat="39.91511130659161" lon="8.605768381781589"><ele>8.333333333333332</ele><time>2026-03-30T11:29:48Z</time></trkpt><trkpt lat="39.9150396828762" lon="8.605975635088877"><ele>8.0</ele><time>2026-03-30T11:29:49Z</time></trkpt><trkpt lat="39.91497132369576" lon="8.606182154162907"><ele>9.333333333333332</ele><time>2026-03-30T11:29:50Z</time></trkpt><trkpt lat="39.91490855383273" lon="8.606400879589089"><ele>10.666666666666666</ele><time>2026-03-30T11:29:51Z</time></trkpt><trkpt lat="39.91484659260164" lon="8.606624976419777"><ele>12.0</ele><time>2026-03-30T11:29:52Z</time></trkpt><trkpt lat="39.914784673284935" lon="8.606848336258434"><ele>11.333333333333334</ele><time>2026-03-30T11:29:53Z</time></trkpt><trkpt lat="39.91472558629909" lon="8.607071264043633"><ele>10.666666666666668</ele><time>2026-03-30T11:29:54Z</time></trkpt><trkpt lat="39.91466841722766" lon="8.607289420610345"><ele>10.0</ele><time>2026-03-30T11:29:55Z</time></trkpt><trkpt lat="39.91460942927814" lon="8.607507204472489"><ele>10.0</ele><time>2026-03-30T11:29:56Z</time></trkpt><trkpt lat="39.91453845032822" lon="8.607714771658843"><ele>10.0</ele><time>2026-03-30T11:29:57Z</time></trkpt><trkpt lat="39.914450602500374" lon="8.607920161764435"><ele>10.0</ele><time>2026-03-30T11:29:58Z</time></trkpt><trkpt lat="39.91434931688525" lon="8.608112946150584"><ele>10.666666666666668</ele><time>2026-03-30T11:29:59Z</time></trkpt><trkpt lat="39.91422493948869" lon="8.608285182110505"><ele>11.333333333333334</ele><time>2026-03-30T11:30:00Z</time></trkpt><trkpt lat="39.914088819519954" lon="8.608439139149734"><ele>12.0</ele><time>2026-03-30T11:30:01Z</time></trkpt><trkpt lat="39.913927590075986" lon="8.608545905300423"><ele>12.0</ele><time>2026-03-30T11:30:02Z</time></trkpt><trkpt lat="39.913777975066075" lon="8.608633612361947"><ele>12.0</ele><time>2026-03-30T11:30:03Z</time></trkpt><trkpt lat="39.913641430909436" lon="8.608714775506835"><ele>12.0</ele><time>2026-03-30T11:30:04Z</time></trkpt><trkpt lat="39.913525502668534" lon="8.608794332477213"><ele>12.0</ele><time>2026-03-30T11:30:05Z</time></trkpt><trkpt lat="39.91342149092034" lon="8.608872637329622"><ele>12.166666666666666</ele><time>2026-03-30T11:30:06Z</time></trkpt><trkpt lat="39.91334211714431" lon="8.608923158552644"><ele>12.333333333333332</ele><time>2026-03-30T11:30:07Z</time></trkpt><trkpt lat="39.913265378851506" lon="8.608944404165609"><ele>12.5</ele><time>2026-03-30T11:30:08Z</time></trkpt><trkpt lat="39.91319074326157" lon="8.608940588536166"><ele>12.666666666666666</ele><time>2026-03-30T11:30:09Z</time></trkpt><trkpt lat="39.913125347580085" lon="8.608943406608711"><ele>12.833333333333332</ele><time>2026-03-30T11:30:10Z</time></trkpt><trkpt lat="39.913064748729454" lon="8.609004231600041"><ele>13.0</ele><time>2026-03-30T11:30:12Z</time></trkpt><trkpt lat="39.913058191034814" lon="8.609102767363419"><ele>13.0</ele><time>2026-03-30T11:30:20Z</time></trkpt><trkpt lat="39.913049863103765" lon="8.609190268319237"><ele>13.0</ele><time>2026-03-30T11:30:33Z</time></trkpt><trkpt lat="39.91308701272484" lon="8.60934503995862"><ele>13.0</ele><time>2026-03-30T11:30:35Z</time></trkpt><trkpt lat="39.913132477788054" lon="8.60943548496284"><ele>13.0</ele><time>2026-03-30T11:30:36Z</time></trkpt><trkpt lat="39.91319635380971" lon="8.609531083759194"><ele>13.0</ele><time>2026-03-30T11:30:37Z</time></trkpt><trkpt lat="39.913272320298" lon="8.609642246180368"><ele>13.0</ele><time>2026-03-30T11:30:38Z</time></trkpt><trkpt lat="39.91334872596804" lon="8.609777213810931"><ele>13.0</ele><time>2026-03-30T11:30:39Z</time></trkpt><trkpt lat="39.91342632174962" lon="8.60991718593523"><ele>13.0</ele><time>2026-03-30T11:30:40Z</time></trkpt><trkpt lat="39.91351266730055" lon="8.610069969635692"><ele>13.0</ele><time>2026-03-30T11:30:41Z</time></trkpt><trkpt lat="39.91361563147108" lon="8.610229602997093"><ele>13.333333333333332</ele><time>2026-03-30T11:30:42Z</time></trkpt><trkpt lat="39.91371594572971" lon="8.610394611216453"><ele>13.666666666666668</ele><time>2026-03-30T11:30:43Z</time></trkpt><trkpt lat="39.91382152594896" lon="8.610566279362688"><ele>14.0</ele><time>2026-03-30T11:30:44Z</time></trkpt><trkpt lat="39.9139256790226" lon="8.610747014480188"><ele>14.0</ele><time>2026-03-30T11:30:45Z</time></trkpt><trkpt lat="39.914034512667484" lon="8.610933740392321"><ele>14.0</ele><time>2026-03-30T11:30:46Z</time></trkpt><trkpt lat="39.91415098525965" lon="8.611115581121254"><ele>14.0</ele><time>2026-03-30T11:30:47Z</time></trkpt><trkpt lat="39.91426607286793" lon="8.611297615990061"><ele>14.0</ele><time>2026-03-30T11:30:48Z</time></trkpt><trkpt lat="39.914376901829634" lon="8.611490465812729"><ele>14.0</ele><time>2026-03-30T11:30:49Z</time></trkpt><trkpt lat="39.91448949569534" lon="8.611675698421468"><ele>14.0</ele><time>2026-03-30T11:30:50Z</time></trkpt><trkpt lat="39.91460345241323" lon="8.611863998059713"><ele>14.0</ele><time>2026-03-30T11:30:51Z</time></trkpt><trkpt lat="39.91471312480635" lon="8.612051394724196"><ele>14.0</ele><time>2026-03-30T11:30:52Z</time></trkpt><trkpt lat="39.914826941654674" lon="8.612243711423389"><ele>14.0</ele><time>2026-03-30T11:30:53Z</time></trkpt><trkpt lat="39.91493625314659" lon="8.61243119614421"><ele>14.0</ele><time>2026-03-30T11:30:54Z</time></trkpt><trkpt lat="39.91504582872302" lon="8.612607288112622"><ele>14.0</ele><time>2026-03-30T11:30:55Z</time></trkpt><trkpt lat="39.915151026611916" lon="8.612774948529573"><ele>14.0</ele><time>2026-03-30T11:30:56Z</time></trkpt><trkpt lat="39.9152512952935" lon="8.612930188870292"><ele>14.25</ele><time>2026-03-30T11:30:57Z</time></trkpt><trkpt lat="39.91534576509365" lon="8.613082133208904"><ele>14.5</ele><time>2026-03-30T11:30:58Z</time></trkpt><trkpt lat="39.915431318508475" lon="8.613237006395128"><ele>14.75</ele><time>2026-03-30T11:30:59Z</time></trkpt><trkpt lat="39.91551348898959" lon="8.613383640777233"><ele>15.0</ele><time>2026-03-30T11:31:00Z</time></trkpt><trkpt lat="39.91559597344331" lon="8.613522984335399"><ele>15.0</ele><time>2026-03-30T11:31:01Z</time></trkpt><trkpt lat="39.915672680034845" lon="8.613646362770679"><ele>15.0</ele><time>2026-03-30T11:31:02Z</time></trkpt><trkpt lat="39.91574147528423" lon="8.613767983460107"><ele>15.0</ele><time>2026-03-30T11:31:03Z</time></trkpt><trkpt lat="39.91579985182355" lon="8.613895123123738"><ele>15.0</ele><time>2026-03-30T11:31:04Z</time></trkpt><trkpt lat="39.91584637473934" lon="8.614031367601148"><ele>14.8</ele><time>2026-03-30T11:31:05Z</time></trkpt><trkpt lat="39.91588893787962" lon="8.614160998642133"><ele>14.6</ele><time>2026-03-30T11:31:06Z</time></trkpt><trkpt lat="39.915934727350354" lon="8.614286045292115"><ele>14.399999999999999</ele><time>2026-03-30T11:31:07Z</time></trkpt><trkpt lat="39.91598066609812" lon="8.614399033187361"><ele>14.2</ele><time>2026-03-30T11:31:08Z</time></trkpt><trkpt lat="39.91601509809758" lon="8.614495895660578"><ele>14.0</ele><time>2026-03-30T11:31:09Z</time></trkpt><trkpt lat="39.91603783970992" lon="8.614578105456543"><ele>13.799999999999999</ele><time>2026-03-30T11:31:10Z</time></trkpt><trkpt lat="39.916057108123134" lon="8.614681233571876"><ele>13.599999999999998</ele><time>2026-03-30T11:31:12Z</time></trkpt><trkpt lat="39.91600019847876" lon="8.614756543966381"><ele>13.4</ele><time>2026-03-30T11:34:11Z</time></trkpt><trkpt lat="39.91593949091593" lon="8.614805906485019"><ele>13.2</ele><time>2026-03-30T11:34:13Z</time></trkpt><trkpt lat="39.91579799366033" lon="8.61486712945749"><ele>13.0</ele><time>2026-03-30T11:34:16Z</time></trkpt><trkpt lat="39.91569600999119" lon="8.614930824767226"><ele>12.833333333333332</ele><time>2026-03-30T11:34:18Z</time></trkpt><trkpt lat="39.91558970766415" lon="8.61500380829275"><ele>12.666666666666666</ele><time>2026-03-30T11:34:20Z</time></trkpt><trkpt lat="39.915537741404705" lon="8.615051741477245"><ele>12.5</ele><time>2026-03-30T11:34:21Z</time></trkpt><trkpt lat="39.91547860300212" lon="8.615108372249862"><ele>12.333333333333332</ele><time>2026-03-30T11:34:22Z</time></trkpt><trkpt lat="39.9154179126937" lon="8.615177791071941"><ele>12.166666666666666</ele><time>2026-03-30T11:34:23Z</time></trkpt><trkpt lat="39.91535573348162" lon="8.615251190607047"><ele>12.0</ele><time>2026-03-30T11:34:24Z</time></trkpt><trkpt lat="39.915293511598826" lon="8.615330690193538"><ele>11.8</ele><time>2026-03-30T11:34:25Z</time></trkpt><trkpt lat="39.915230055326376" lon="8.615419236863916"><ele>11.6</ele><time>2026-03-30T11:34:26Z</time></trkpt><trkpt lat="39.91516190350398" lon="8.61551647112193"><ele>11.4</ele><time>2026-03-30T11:34:27Z</time></trkpt><trkpt lat="39.915088183428956" lon="8.615615363287326"><ele>11.200000000000001</ele><time>2026-03-30T11:34:28Z</time></trkpt><trkpt lat="39.91501503156559" lon="8.615713771602389"><ele>11.0</ele><time>2026-03-30T11:34:29Z</time></trkpt><trkpt lat="39.91493645239425" lon="8.615808854794565"><ele>11.5</ele><time>2026-03-30T11:34:30Z</time></trkpt><trkpt lat="39.914850574677075" lon="8.61590540002233"><ele>12.0</ele><time>2026-03-30T11:34:31Z</time></trkpt><trkpt lat="39.914758345683545" lon="8.61600631725218"><ele>12.5</ele><time>2026-03-30T11:34:32Z</time></trkpt><trkpt lat="39.91465775048137" lon="8.616110165963697"><ele>13.0</ele><time>2026-03-30T11:34:33Z</time></trkpt><trkpt lat="39.91454949311813" lon="8.616220994549428"><ele>13.25</ele><time>2026-03-30T11:34:34Z</time></trkpt><trkpt lat="39.914436372060294" lon="8.616333720074586"><ele>13.5</ele><time>2026-03-30T11:34:35Z</time></trkpt><trkpt lat="39.91432510829397" lon="8.616443172352202"><ele>13.75</ele><time>2026-03-30T11:34:36Z</time></trkpt><trkpt lat="39.91420870674399" lon="8.616555760903823"><ele>14.0</ele><time>2026-03-30T11:34:37Z</time></trkpt><trkpt lat="39.91409250690224" lon="8.616670272618915"><ele>14.0</ele><time>2026-03-30T11:34:38Z</time></trkpt><trkpt lat="39.91397249073669" lon="8.61678470162814"><ele>14.0</ele><time>2026-03-30T11:34:39Z</time></trkpt><trkpt lat="39.91385298746797" lon="8.616897960755177"><ele>14.0</ele><time>2026-03-30T11:34:40Z</time></trkpt><trkpt lat="39.91373439523667" lon="8.617013038739946"><ele>14.0</ele><time>2026-03-30T11:34:41Z</time></trkpt><trkpt lat="39.91361856430779" lon="8.617130836901888"><ele>14.0</ele><time>2026-03-30T11:34:42Z</time></trkpt><trkpt lat="39.91350251185564" lon="8.617248731509958"><ele>14.0</ele><time>2026-03-30T11:34:43Z</time></trkpt><trkpt lat="39.913386937520016" lon="8.617365600888492"><ele>14.0</ele><time>2026-03-30T11:34:44Z</time></trkpt><trkpt lat="39.91326157887743" lon="8.617469060531603"><ele>14.0</ele><time>2026-03-30T11:34:45Z</time></trkpt><trkpt lat="39.913170658163885" lon="8.617623002663764"><ele>13.75</ele><time>2026-03-30T11:34:46Z</time></trkpt><trkpt lat="39.91307739461665" lon="8.617769254598926"><ele>13.5</ele><time>2026-03-30T11:34:47Z</time></trkpt><trkpt lat="39.912996220983295" lon="8.617926107193911"><ele>13.25</ele><time>2026-03-30T11:34:48Z</time></trkpt><trkpt lat="39.91292220937061" lon="8.618085950236996"><ele>13.0</ele><time>2026-03-30T11:34:49Z</time></trkpt><trkpt lat="39.91284561162536" lon="8.618247803640113"><ele>13.0</ele><time>2026-03-30T11:34:50Z</time></trkpt><trkpt lat="39.91276977797679" lon="8.61840915199861"><ele>13.0</ele><time>2026-03-30T11:34:51Z</time></trkpt><trkpt lat="39.91269270899937" lon="8.618573590661642"><ele>13.0</ele><time>2026-03-30T11:34:52Z</time></trkpt><trkpt lat="39.91261619333321" lon="8.618739150382702"><ele>13.0</ele><time>2026-03-30T11:34:53Z</time></trkpt><trkpt lat="39.91253894249693" lon="8.618907314948187"><ele>13.0</ele><time>2026-03-30T11:34:54Z</time></trkpt><trkpt lat="39.91246233224707" lon="8.619077687003374"><ele>13.0</ele><time>2026-03-30T11:34:55Z</time></trkpt><trkpt lat="39.91238488067497" lon="8.619245476387187"><ele>13.0</ele><time>2026-03-30T11:34:56Z</time></trkpt><trkpt lat="39.91230607492638" lon="8.619412372776907"><ele>12.333333333333332</ele><time>2026-03-30T11:34:57Z</time></trkpt><trkpt lat="39.91222265809238" lon="8.619573202959414"><ele>11.666666666666666</ele><time>2026-03-30T11:34:58Z</time></trkpt><trkpt lat="39.91213054098475" lon="8.619729405599223"><ele>11.0</ele><time>2026-03-30T11:34:59Z</time></trkpt><trkpt lat="39.9120303177998" lon="8.619881738058933"><ele>11.0</ele><time>2026-03-30T11:35:00Z</time></trkpt><trkpt lat="39.91192111858244" lon="8.62004186384897"><ele>11.0</ele><time>2026-03-30T11:35:01Z</time></trkpt><trkpt lat="39.91182180621693" lon="8.620201037194278"><ele>11.0</ele><time>2026-03-30T11:35:02Z</time></trkpt><trkpt lat="39.91172229900615" lon="8.620357822430002"><ele>11.666666666666666</ele><time>2026-03-30T11:35:03Z</time></trkpt><trkpt lat="39.91162220098154" lon="8.62050315717612"><ele>12.333333333333332</ele><time>2026-03-30T11:35:04Z</time></trkpt><trkpt lat="39.911522118073" lon="8.620654316829414"><ele>13.0</ele><time>2026-03-30T11:35:05Z</time></trkpt><trkpt lat="39.91142495130015" lon="8.620806757203963"><ele>13.0</ele><time>2026-03-30T11:35:06Z</time></trkpt><trkpt lat="39.91132087701929" lon="8.62095972410958"><ele>13.0</ele><time>2026-03-30T11:35:07Z</time></trkpt><trkpt lat="39.9112175971099" lon="8.6211151268402"><ele>13.0</ele><time>2026-03-30T11:35:08Z</time></trkpt><trkpt lat="39.91111063669906" lon="8.621270110716459"><ele>13.0</ele><time>2026-03-30T11:35:09Z</time></trkpt><trkpt lat="39.911004523870695" lon="8.621429340502148"><ele>13.0</ele><time>2026-03-30T11:35:10Z</time></trkpt><trkpt lat="39.910899152504534" lon="8.621591282614085"><ele>13.0</ele><time>2026-03-30T11:35:11Z</time></trkpt><trkpt lat="39.91079180901862" lon="8.62175394407733"><ele>13.0</ele><time>2026-03-30T11:35:12Z</time></trkpt><trkpt lat="39.91068658815915" lon="8.621916739460914"><ele>13.0</ele><time>2026-03-30T11:35:13Z</time></trkpt><trkpt lat="39.91057647708606" lon="8.622077157087135"><ele>13.0</ele><time>2026-03-30T11:35:14Z</time></trkpt><trkpt lat="39.91046773890541" lon="8.622241046959497"><ele>13.0</ele><time>2026-03-30T11:35:15Z</time></trkpt><trkpt lat="39.910361486126355" lon="8.622403355147318"><ele>13.0</ele><time>2026-03-30T11:35:16Z</time></trkpt><trkpt lat="39.91025626712078" lon="8.622568217988647"><ele>13.0</ele><time>2026-03-30T11:35:17Z</time></trkpt><trkpt lat="39.91015320088679" lon="8.622731446647906"><ele>13.333333333333332</ele><time>2026-03-30T11:35:18Z</time></trkpt><trkpt lat="39.910049447529445" lon="8.622894522387709"><ele>13.666666666666668</ele><time>2026-03-30T11:35:19Z</time></trkpt><trkpt lat="39.90994620205165" lon="8.623057212118765"><ele>14.0</ele><time>2026-03-30T11:35:20Z</time></trkpt><trkpt lat="39.909841674232936" lon="8.623220632933593"><ele>14.0</ele><time>2026-03-30T11:35:21Z</time></trkpt><trkpt lat="39.909738259311304" lon="8.623385390708087"><ele>14.0</ele><time>2026-03-30T11:35:22Z</time></trkpt><trkpt lat="39.909633739619146" lon="8.623548184550144"><ele>14.0</ele><time>2026-03-30T11:35:23Z</time></trkpt><trkpt lat="39.90953393294172" lon="8.623715747800318"><ele>13.666666666666668</ele><time>2026-03-30T11:35:24Z</time></trkpt><trkpt lat="39.90943261001467" lon="8.623883946039289"><ele>13.333333333333332</ele><time>2026-03-30T11:35:25Z</time></trkpt><trkpt lat="39.90933374455073" lon="8.624059279607758"><ele>13.0</ele><time>2026-03-30T11:35:26Z</time></trkpt><trkpt lat="39.909233003185285" lon="8.62423743157"><ele>13.0</ele><time>2026-03-30T11:35:27Z</time></trkpt><trkpt lat="39.909132653523045" lon="8.624417181093598"><ele>13.0</ele><time>2026-03-30T11:35:28Z</time></trkpt><trkpt lat="39.909030758846775" lon="8.624599191052651"><ele>13.0</ele><time>2026-03-30T11:35:29Z</time></trkpt><trkpt lat="39.90892563059261" lon="8.62478194820828"><ele>12.666666666666666</ele><time>2026-03-30T11:35:30Z</time></trkpt><trkpt lat="39.9088185249131" lon="8.624966188687203"><ele>12.333333333333332</ele><time>2026-03-30T11:35:31Z</time></trkpt><trkpt lat="39.90871005187583" lon="8.625150666049436"><ele>12.0</ele><time>2026-03-30T11:35:32Z</time></trkpt><trkpt lat="39.90860167644485" lon="8.625339081230294"><ele>12.0</ele><time>2026-03-30T11:35:33Z</time></trkpt><trkpt lat="39.90849509581086" lon="8.625533248579407"><ele>12.0</ele><time>2026-03-30T11:35:34Z</time></trkpt><trkpt lat="39.90838997238859" lon="8.625725042334041"><ele>12.0</ele><time>2026-03-30T11:35:35Z</time></trkpt><trkpt lat="39.90828239383722" lon="8.625916410554423"><ele>12.666666666666668</ele><time>2026-03-30T11:35:36Z</time></trkpt><trkpt lat="39.90817359542322" lon="8.626110201816628"><ele>13.333333333333334</ele><time>2026-03-30T11:35:37Z</time></trkpt><trkpt lat="39.908065528707105" lon="8.626305670245298"><ele>14.0</ele><time>2026-03-30T11:35:38Z</time></trkpt><trkpt lat="39.90795499622544" lon="8.626496925154365"><ele>14.0</ele><time>2026-03-30T11:35:39Z</time></trkpt><trkpt lat="39.90784617330938" lon="8.62668867313975"><ele>14.0</ele><time>2026-03-30T11:35:40Z</time></trkpt><trkpt lat="39.90774517909943" lon="8.626886815657542"><ele>14.0</ele><time>2026-03-30T11:35:41Z</time></trkpt><trkpt lat="39.90766056162968" lon="8.62709510355086"><ele>14.0</ele><time>2026-03-30T11:35:42Z</time></trkpt><trkpt lat="39.90759291484596" lon="8.627312873690688"><ele>14.0</ele><time>2026-03-30T11:35:43Z</time></trkpt><trkpt lat="39.90753207657024" lon="8.627533728131333"><ele>14.0</ele><time>2026-03-30T11:35:44Z</time></trkpt><trkpt lat="39.90748476209444" lon="8.627761039761"><ele>14.0</ele><time>2026-03-30T11:35:45Z</time></trkpt><trkpt lat="39.90743599469705" lon="8.627991178307607"><ele>14.0</ele><time>2026-03-30T11:35:46Z</time></trkpt><trkpt lat="39.90738025578097" lon="8.628220154584005"><ele>14.0</ele><time>2026-03-30T11:35:47Z</time></trkpt><trkpt lat="39.907320168734664" lon="8.628447193383693"><ele>13.333333333333334</ele><time>2026-03-30T11:35:48Z</time></trkpt><trkpt lat="39.90725890858922" lon="8.62867800228946"><ele>12.666666666666668</ele><time>2026-03-30T11:35:49Z</time></trkpt><trkpt lat="39.907197005572975" lon="8.62890472648296"><ele>12.0</ele><time>2026-03-30T11:35:50Z</time></trkpt><trkpt lat="39.907128751333715" lon="8.629132586373524"><ele>12.0</ele><time>2026-03-30T11:35:51Z</time></trkpt><trkpt lat="39.90705044788593" lon="8.62935779899051"><ele>12.0</ele><time>2026-03-30T11:35:52Z</time></trkpt><trkpt lat="39.90695988960118" lon="8.629576750360956"><ele>12.0</ele><time>2026-03-30T11:35:53Z</time></trkpt><trkpt lat="39.90685309583468" lon="8.629783293695334"><ele>12.666666666666668</ele><time>2026-03-30T11:35:54Z</time></trkpt><trkpt lat="39.90673550672616" lon="8.629979907696281"><ele>13.333333333333334</ele><time>2026-03-30T11:35:55Z</time></trkpt><trkpt lat="39.906607438102995" lon="8.630163547883324"><ele>14.0</ele><time>2026-03-30T11:35:56Z</time></trkpt><trkpt lat="39.90647355147852" lon="8.630342246942236"><ele>14.333333333333334</ele><time>2026-03-30T11:35:57Z</time></trkpt><trkpt lat="39.906340746467365" lon="8.630525406657032"><ele>14.666666666666668</ele><time>2026-03-30T11:35:58Z</time></trkpt><trkpt lat="39.906211315672515" lon="8.630715183037195"><ele>15.0</ele><time>2026-03-30T11:35:59Z</time></trkpt><trkpt lat="39.90608510217913" lon="8.630905136456176"><ele>15.0</ele><time>2026-03-30T11:36:00Z</time></trkpt><trkpt lat="39.905953999508604" lon="8.631096698710836"><ele>15.0</ele><time>2026-03-30T11:36:01Z</time></trkpt><trkpt lat="39.905815050713414" lon="8.631272518889444"><ele>15.0</ele><time>2026-03-30T11:36:02Z</time></trkpt><trkpt lat="39.90567986806127" lon="8.631457539380404"><ele>14.0</ele><time>2026-03-30T11:36:03Z</time></trkpt><trkpt lat="39.90554638353524" lon="8.631640903852462"><ele>13.0</ele><time>2026-03-30T11:36:04Z</time></trkpt><trkpt lat="39.90541735749834" lon="8.631816723727937"><ele>12.0</ele><time>2026-03-30T11:36:05Z</time></trkpt><trkpt lat="39.90529771500886" lon="8.631982166414431"><ele>12.0</ele><time>2026-03-30T11:36:06Z</time></trkpt><trkpt lat="39.90518597225192" lon="8.632148364274872"><ele>12.0</ele><time>2026-03-30T11:36:07Z</time></trkpt><trkpt lat="39.90507836664964" lon="8.632303668854156"><ele>12.0</ele><time>2026-03-30T11:36:08Z</time></trkpt><trkpt lat="39.90497457064608" lon="8.632454612855867"><ele>12.0</ele><time>2026-03-30T11:36:09Z</time></trkpt><trkpt lat="39.904879096565956" lon="8.632592984267296"><ele>12.0</ele><time>2026-03-30T11:36:10Z</time></trkpt><trkpt lat="39.90478363278005" lon="8.632721069891465"><ele>12.0</ele><time>2026-03-30T11:36:11Z</time></trkpt><trkpt lat="39.90469378949957" lon="8.63284554442375"><ele>12.0</ele><time>2026-03-30T11:36:12Z</time></trkpt><trkpt lat="39.9046170508625" lon="8.63296451134356"><ele>12.0</ele><time>2026-03-30T11:36:13Z</time></trkpt><trkpt lat="39.90454786772197" lon="8.633066877100104"><ele>12.0</ele><time>2026-03-30T11:36:14Z</time></trkpt><trkpt lat="39.9044892221105" lon="8.63313506352808"><ele>12.0</ele><time>2026-03-30T11:36:15Z</time></trkpt><trkpt lat="39.90440751107343" lon="8.633138741418518"><ele>12.0</ele><time>2026-03-30T11:36:17Z</time></trkpt><trkpt lat="39.904385722180145" lon="8.633035122628913"><ele>12.0</ele><time>2026-03-30T11:36:19Z</time></trkpt><trkpt lat="39.90440115121177" lon="8.632950785294263"><ele>12.0</ele><time>2026-03-30T11:36:20Z</time></trkpt><trkpt lat="39.9044144057968" lon="8.632865376582611"><ele>12.166666666666666</ele><time>2026-03-30T11:36:21Z</time></trkpt><trkpt lat="39.90442157775387" lon="8.632766859161412"><ele>12.333333333333332</ele><time>2026-03-30T11:36:22Z</time></trkpt><trkpt lat="39.90442429239192" lon="8.632666592794925"><ele>12.5</ele><time>2026-03-30T11:36:23Z</time></trkpt><trkpt lat="39.90443527691693" lon="8.632553486398395"><ele>12.666666666666666</ele><time>2026-03-30T11:36:24Z</time></trkpt><trkpt lat="39.904447929721364" lon="8.632423808304265"><ele>12.833333333333332</ele><time>2026-03-30T11:36:25Z</time></trkpt><trkpt lat="39.90446354121171" lon="8.632283813012483"><ele>13.0</ele><time>2026-03-30T11:36:26Z</time></trkpt><trkpt lat="39.904483709388806" lon="8.63213114565229"><ele>12.75</ele><time>2026-03-30T11:36:27Z</time></trkpt><trkpt lat="39.90450446213355" lon="8.631963246110432"><ele>12.5</ele><time>2026-03-30T11:36:28Z</time></trkpt><trkpt lat="39.90452494823578" lon="8.631787894164727"><ele>12.25</ele><time>2026-03-30T11:36:29Z</time></trkpt><trkpt lat="39.90454205011662" lon="8.631613681700172"><ele>12.0</ele><time>2026-03-30T11:36:30Z</time></trkpt><trkpt lat="39.904558653295105" lon="8.631433811755544"><ele>12.0</ele><time>2026-03-30T11:36:31Z</time></trkpt><trkpt lat="39.90457654720715" lon="8.631254038456024"><ele>12.0</ele><time>2026-03-30T11:36:32Z</time></trkpt><trkpt lat="39.90458442728118" lon="8.631066426461189"><ele>12.0</ele><time>2026-03-30T11:36:33Z</time></trkpt><trkpt lat="39.90458655053822" lon="8.630872557528333"><ele>12.0</ele><time>2026-03-30T11:36:34Z</time></trkpt><trkpt lat="39.90458518762967" lon="8.630668523356752"><ele>12.333333333333332</ele><time>2026-03-30T11:36:35Z</time></trkpt><trkpt lat="39.90457712836594" lon="8.630459179184113"><ele>12.666666666666666</ele><time>2026-03-30T11:36:36Z</time></trkpt><trkpt lat="39.904579927127386" lon="8.630244005269823"><ele>13.0</ele><time>2026-03-30T11:36:37Z</time></trkpt><trkpt lat="39.904587164748484" lon="8.630022246486744"><ele>13.0</ele><time>2026-03-30T11:36:38Z</time></trkpt><trkpt lat="39.904588849077676" lon="8.629796266281389"><ele>13.0</ele><time>2026-03-30T11:36:39Z</time></trkpt><trkpt lat="39.904584953863385" lon="8.629568087517915"><ele>13.0</ele><time>2026-03-30T11:36:40Z</time></trkpt><trkpt lat="39.90458582194551" lon="8.629337911767356"><ele>13.0</ele><time>2026-03-30T11:36:41Z</time></trkpt><trkpt lat="39.90457224675982" lon="8.629105478641682"><ele>13.0</ele><time>2026-03-30T11:36:42Z</time></trkpt><trkpt lat="39.90457095743423" lon="8.628877884739156"><ele>13.0</ele><time>2026-03-30T11:36:43Z</time></trkpt><trkpt lat="39.90455199824419" lon="8.628648470273673"><ele>13.333333333333332</ele><time>2026-03-30T11:36:44Z</time></trkpt><trkpt lat="39.9045117902886" lon="8.62841637365934"><ele>13.666666666666668</ele><time>2026-03-30T11:36:45Z</time></trkpt><trkpt lat="39.90446017018024" lon="8.628193449659582"><ele>14.0</ele><time>2026-03-30T11:36:46Z</time></trkpt><trkpt lat="39.90440566456661" lon="8.627978934556513"><ele>14.0</ele><time>2026-03-30T11:36:47Z</time></trkpt><trkpt lat="39.90435090291275" lon="8.627769624539441"><ele>14.0</ele><time>2026-03-30T11:36:48Z</time></trkpt><trkpt lat="39.904291981133305" lon="8.627562320032835"><ele>14.0</ele><time>2026-03-30T11:36:49Z</time></trkpt><trkpt lat="39.90423189753186" lon="8.627368736911563"><ele>14.0</ele><time>2026-03-30T11:36:50Z</time></trkpt><trkpt lat="39.904176069514925" lon="8.627196705657639"><ele>14.0</ele><time>2026-03-30T11:36:51Z</time></trkpt><trkpt lat="39.904130543390586" lon="8.627045279985449"><ele>14.0</ele><time>2026-03-30T11:36:52Z</time></trkpt><trkpt lat="39.90408317857058" lon="8.626906625899517"><ele>14.0</ele><time>2026-03-30T11:36:53Z</time></trkpt><trkpt lat="39.90402239017589" lon="8.626802920168391"><ele>13.6</ele><time>2026-03-30T11:36:54Z</time></trkpt><trkpt lat="39.90393837557572" lon="8.626729667323072"><ele>13.2</ele><time>2026-03-30T11:36:55Z</time></trkpt><trkpt lat="39.90385141347863" lon="8.626715607255715"><ele>12.799999999999999</ele><time>2026-03-30T11:36:56Z</time></trkpt><trkpt lat="39.90376274238387" lon="8.626755239570986"><ele>12.399999999999999</ele><time>2026-03-30T11:36:57Z</time></trkpt><trkpt lat="39.903677596736046" lon="8.626815821534583"><ele>12.0</ele><time>2026-03-30T11:36:58Z</time></trkpt><trkpt lat="39.903597975735636" lon="8.62688720781577"><ele>12.0</ele><time>2026-03-30T11:36:59Z</time></trkpt><trkpt lat="39.9035091414148" lon="8.626956406144005"><ele>12.0</ele><time>2026-03-30T11:37:00Z</time></trkpt><trkpt lat="39.90341139315931" lon="8.627018339877049"><ele>12.0</ele><time>2026-03-30T11:37:01Z</time></trkpt><trkpt lat="39.90330337949477" lon="8.627080959047372"><ele>12.0</ele><time>2026-03-30T11:37:02Z</time></trkpt><trkpt lat="39.90319858081671" lon="8.627147912925947"><ele>12.0</ele><time>2026-03-30T11:37:03Z</time></trkpt><trkpt lat="39.903092587544485" lon="8.627229505596532"><ele>12.0</ele><time>2026-03-30T11:37:04Z</time></trkpt><trkpt lat="39.902996106446295" lon="8.627343968249175"><ele>12.0</ele><time>2026-03-30T11:37:05Z</time></trkpt><trkpt lat="39.90290975021298" lon="8.627486627157593"><ele>12.0</ele><time>2026-03-30T11:37:06Z</time></trkpt><trkpt lat="39.902830376873716" lon="8.627639013446462"><ele>12.0</ele><time>2026-03-30T11:37:07Z</time></trkpt><trkpt lat="39.90275935029723" lon="8.627783648633253"><ele>12.0</ele><time>2026-03-30T11:37:08Z</time></trkpt><trkpt lat="39.902679835514675" lon="8.627916239816415"><ele>12.0</ele><time>2026-03-30T11:37:09Z</time></trkpt><trkpt lat="39.90259003576484" lon="8.628027215392489"><ele>12.0</ele><time>2026-03-30T11:37:10Z</time></trkpt><trkpt lat="39.902483907446516" lon="8.628117578157585"><ele>12.0</ele><time>2026-03-30T11:37:11Z</time></trkpt><trkpt lat="39.9023581272811" lon="8.628177612726184"><ele>12.5</ele><time>2026-03-30T11:37:12Z</time></trkpt><trkpt lat="39.902219870834045" lon="8.628198222015692"><ele>13.0</ele><time>2026-03-30T11:37:13Z</time></trkpt><trkpt lat="39.90207442320496" lon="8.62817543585812"><ele>13.5</ele><time>2026-03-30T11:37:14Z</time></trkpt><trkpt lat="39.901928296657545" lon="8.628108789501715"><ele>14.0</ele><time>2026-03-30T11:37:15Z</time></trkpt><trkpt lat="39.90178446781182" lon="8.628028360740563"><ele>14.0</ele><time>2026-03-30T11:37:16Z</time></trkpt><trkpt lat="39.90162189369514" lon="8.627969727348782"><ele>14.0</ele><time>2026-03-30T11:37:17Z</time></trkpt><trkpt lat="39.901444414646306" lon="8.627901546051326"><ele>14.0</ele><time>2026-03-30T11:37:18Z</time></trkpt><trkpt lat="39.90125983294745" lon="8.627827765002479"><ele>13.333333333333334</ele><time>2026-03-30T11:37:19Z</time></trkpt><trkpt lat="39.901071884729014" lon="8.627749641063993"><ele>12.666666666666668</ele><time>2026-03-30T11:37:20Z</time></trkpt><trkpt lat="39.90088094228044" lon="8.627663652846083"><ele>12.0</ele><time>2026-03-30T11:37:21Z</time></trkpt><trkpt lat="39.90068750399931" lon="8.627569473446902"><ele>12.0</ele><time>2026-03-30T11:37:22Z</time></trkpt><trkpt lat="39.900486114746606" lon="8.627471118888398"><ele>12.0</ele><time>2026-03-30T11:37:23Z</time></trkpt><trkpt lat="39.90027776125032" lon="8.627373072096143"><ele>12.0</ele><time>2026-03-30T11:37:24Z</time></trkpt><trkpt lat="39.90006823109349" lon="8.627270038584044"><ele>12.333333333333332</ele><time>2026-03-30T11:37:25Z</time></trkpt><trkpt lat="39.899860754772206" lon="8.627163695827745"><ele>12.666666666666666</ele><time>2026-03-30T11:37:26Z</time></trkpt><trkpt lat="39.899655336213335" lon="8.627059169909927"><ele>13.0</ele><time>2026-03-30T11:37:27Z</time></trkpt><trkpt lat="39.89944547941403" lon="8.626958486971546"><ele>12.5</ele><time>2026-03-30T11:37:28Z</time></trkpt><trkpt lat="39.89923397766059" lon="8.626856516205557"><ele>12.0</ele><time>2026-03-30T11:37:29Z</time></trkpt><trkpt lat="39.89901923777401" lon="8.626751877536561"><ele>12.0</ele><time>2026-03-30T11:37:30Z</time></trkpt><trkpt lat="39.89880365054799" lon="8.626646102639155"><ele>12.0</ele><time>2026-03-30T11:37:31Z</time></trkpt><trkpt lat="39.898587350662055" lon="8.626539557416983"><ele>11.5</ele><time>2026-03-30T11:37:32Z</time></trkpt><trkpt lat="39.89836970231785" lon="8.626434251560003"><ele>11.0</ele><time>2026-03-30T11:37:33Z</time></trkpt><trkpt lat="39.898152791660266" lon="8.626331361600462"><ele>11.0</ele><time>2026-03-30T11:37:34Z</time></trkpt><trkpt lat="39.897941334017396" lon="8.626222341824432"><ele>11.0</ele><time>2026-03-30T11:37:35Z</time></trkpt><trkpt lat="39.89772877591599" lon="8.626117456167666"><ele>10.5</ele><time>2026-03-30T11:37:36Z</time></trkpt><trkpt lat="39.89751571952996" lon="8.626015245800568"><ele>10.0</ele><time>2026-03-30T11:37:37Z</time></trkpt><trkpt lat="39.897304608336746" lon="8.625914775324167"><ele>10.0</ele><time>2026-03-30T11:37:38Z</time></trkpt><trkpt lat="39.897100872481545" lon="8.62581468963818"><ele>10.0</ele><time>2026-03-30T11:37:39Z</time></trkpt><trkpt lat="39.89690589210754" lon="8.625714985303722"><ele>10.0</ele><time>2026-03-30T11:37:40Z</time></trkpt><trkpt lat="39.8967237326008" lon="8.625622657102248"><ele>10.0</ele><time>2026-03-30T11:37:41Z</time></trkpt><trkpt lat="39.89655299288407" lon="8.625538353321193"><ele>10.0</ele><time>2026-03-30T11:37:42Z</time></trkpt><trkpt lat="39.89638291584615" lon="8.625456131978176"><ele>10.0</ele><time>2026-03-30T11:37:43Z</time></trkpt><trkpt lat="39.89620787321172" lon="8.625371282906006"><ele>10.0</ele><time>2026-03-30T11:37:44Z</time></trkpt><trkpt lat="39.89603425613482" lon="8.6252829918457"><ele>10.0</ele><time>2026-03-30T11:37:45Z</time></trkpt><trkpt lat="39.89585815397507" lon="8.625198694052802"><ele>10.0</ele><time>2026-03-30T11:37:46Z</time></trkpt><trkpt lat="39.89568289848831" lon="8.625114438646465"><ele>9.666666666666668</ele><time>2026-03-30T11:37:47Z</time></trkpt><trkpt lat="39.89550605851007" lon="8.625031116472005"><ele>9.333333333333334</ele><time>2026-03-30T11:37:48Z</time></trkpt><trkpt lat="39.89532837018865" lon="8.62494415720147"><ele>9.0</ele><time>2026-03-30T11:37:49Z</time></trkpt><trkpt lat="39.895152401276036" lon="8.624854050872681"><ele>9.333333333333334</ele><time>2026-03-30T11:37:50Z</time></trkpt><trkpt lat="39.894974826166994" lon="8.624765240160102"><ele>9.666666666666668</ele><time>2026-03-30T11:37:51Z</time></trkpt><trkpt lat="39.89479935900554" lon="8.624676102306386"><ele>10.0</ele><time>2026-03-30T11:37:52Z</time></trkpt><trkpt lat="39.89462462746974" lon="8.62458209474206"><ele>10.0</ele><time>2026-03-30T11:37:53Z</time></trkpt><trkpt lat="39.89444614714269" lon="8.624491274901505"><ele>10.0</ele><time>2026-03-30T11:37:54Z</time></trkpt><trkpt lat="39.8942647152971" lon="8.624405944792468"><ele>10.0</ele><time>2026-03-30T11:37:55Z</time></trkpt><trkpt lat="39.89408412569136" lon="8.624314364460847"><ele>9.666666666666668</ele><time>2026-03-30T11:37:56Z</time></trkpt><trkpt lat="39.893904208153025" lon="8.624221962999526"><ele>9.333333333333334</ele><time>2026-03-30T11:37:57Z</time></trkpt><trkpt lat="39.89371932352878" lon="8.624135850014481"><ele>9.0</ele><time>2026-03-30T11:37:58Z</time></trkpt><trkpt lat="39.893534193925596" lon="8.624049136241466"><ele>9.0</ele><time>2026-03-30T11:37:59Z</time></trkpt><trkpt lat="39.893348167425046" lon="8.623959715161343"><ele>9.0</ele><time>2026-03-30T11:38:00Z</time></trkpt><trkpt lat="39.89315882741917" lon="8.623869453657914"><ele>9.0</ele><time>2026-03-30T11:38:01Z</time></trkpt><trkpt lat="39.89296969640297" lon="8.6237749920471"><ele>9.0</ele><time>2026-03-30T11:38:02Z</time></trkpt><trkpt lat="39.89278220898876" lon="8.623683179812721"><ele>9.0</ele><time>2026-03-30T11:38:03Z</time></trkpt><trkpt lat="39.892599181936056" lon="8.623591581101692"><ele>9.0</ele><time>2026-03-30T11:38:04Z</time></trkpt><trkpt lat="39.89241419095704" lon="8.623501304485766"><ele>9.333333333333334</ele><time>2026-03-30T11:38:05Z</time></trkpt><trkpt lat="39.89222901834685" lon="8.623409120404117"><ele>9.666666666666668</ele><time>2026-03-30T11:38:06Z</time></trkpt><trkpt lat="39.892044065079844" lon="8.623315771119099"><ele>10.0</ele><time>2026-03-30T11:38:07Z</time></trkpt><trkpt lat="39.89185747649404" lon="8.623225328422567"><ele>10.0</ele><time>2026-03-30T11:38:08Z</time></trkpt><trkpt lat="39.891668512141855" lon="8.623135553402017"><ele>10.0</ele><time>2026-03-30T11:38:09Z</time></trkpt><trkpt lat="39.89147784614979" lon="8.623042354437755"><ele>10.0</ele><time>2026-03-30T11:38:10Z</time></trkpt><trkpt lat="39.89128697226021" lon="8.622944202433775"><ele>10.0</ele><time>2026-03-30T11:38:11Z</time></trkpt><trkpt lat="39.89109444460192" lon="8.62284470367116"><ele>10.0</ele><time>2026-03-30T11:38:12Z</time></trkpt><trkpt lat="39.89089842707631" lon="8.62274522244013"><ele>10.0</ele><time>2026-03-30T11:38:13Z</time></trkpt><trkpt lat="39.890699254052755" lon="8.622649997105638"><ele>9.666666666666668</ele><time>2026-03-30T11:38:14Z</time></trkpt><trkpt lat="39.89049988694095" lon="8.62254956387769"><ele>9.333333333333334</ele><time>2026-03-30T11:38:15Z</time></trkpt><trkpt lat="39.890296359900134" lon="8.622450481091985"><ele>9.0</ele><time>2026-03-30T11:38:16Z</time></trkpt><trkpt lat="39.89009298426581" lon="8.622346949218315"><ele>8.0</ele><time>2026-03-30T11:38:17Z</time></trkpt><trkpt lat="39.889888191826195" lon="8.622248065234013"><ele>7.0</ele><time>2026-03-30T11:38:18Z</time></trkpt><trkpt lat="39.88968270127285" lon="8.622148356708852"><ele>6.0</ele><time>2026-03-30T11:38:19Z</time></trkpt><trkpt lat="39.88947800252577" lon="8.622046929419245"><ele>6.0</ele><time>2026-03-30T11:38:20Z</time></trkpt><trkpt lat="39.88927216780921" lon="8.62194314359747"><ele>6.0</ele><time>2026-03-30T11:38:21Z</time></trkpt><trkpt lat="39.889064027963194" lon="8.621839497683325"><ele>6.0</ele><time>2026-03-30T11:38:22Z</time></trkpt><trkpt lat="39.88885479640938" lon="8.621738022703575"><ele>6.0</ele><time>2026-03-30T11:38:23Z</time></trkpt><trkpt lat="39.88864709626012" lon="8.621632329198075"><ele>6.0</ele><time>2026-03-30T11:38:24Z</time></trkpt><trkpt lat="39.888440117313664" lon="8.621526781027228"><ele>6.0</ele><time>2026-03-30T11:38:25Z</time></trkpt><trkpt lat="39.88823024926433" lon="8.62142572658992"><ele>6.0</ele><time>2026-03-30T11:38:26Z</time></trkpt><trkpt lat="39.88802261221585" lon="8.621323812249003"><ele>6.0</ele><time>2026-03-30T11:38:27Z</time></trkpt><trkpt lat="39.88781881621392" lon="8.621216538429769"><ele>6.0</ele><time>2026-03-30T11:38:28Z</time></trkpt><trkpt lat="39.88761352467472" lon="8.62111222378761"><ele>7.0</ele><time>2026-03-30T11:38:29Z</time></trkpt><trkpt lat="39.88740759128411" lon="8.621010424418415"><ele>8.0</ele><time>2026-03-30T11:38:30Z</time></trkpt><trkpt lat="39.88720437390305" lon="8.620908392174655"><ele>9.0</ele><time>2026-03-30T11:38:31Z</time></trkpt><trkpt lat="39.8870027511942" lon="8.6208077334015"><ele>9.0</ele><time>2026-03-30T11:38:32Z</time></trkpt><trkpt lat="39.886800099516854" lon="8.620711102508851"><ele>9.0</ele><time>2026-03-30T11:38:33Z</time></trkpt><trkpt lat="39.88659977435991" lon="8.62061329231533"><ele>9.0</ele><time>2026-03-30T11:38:34Z</time></trkpt><trkpt lat="39.88639944090307" lon="8.620512374359096"><ele>9.0</ele><time>2026-03-30T11:38:35Z</time></trkpt><trkpt lat="39.886200355187945" lon="8.620409176908945"><ele>9.0</ele><time>2026-03-30T11:38:36Z</time></trkpt><trkpt lat="39.885999953397345" lon="8.620306641607336"><ele>9.0</ele><time>2026-03-30T11:38:37Z</time></trkpt><trkpt lat="39.88579723104378" lon="8.620207466471863"><ele>9.666666666666666</ele><time>2026-03-30T11:38:38Z</time></trkpt><trkpt lat="39.885596885507276" lon="8.620111849444816"><ele>10.333333333333332</ele><time>2026-03-30T11:38:39Z</time></trkpt><trkpt lat="39.885393075516006" lon="8.620017183866551"><ele>11.0</ele><time>2026-03-30T11:38:40Z</time></trkpt><trkpt lat="39.88519196292154" lon="8.619917219505366"><ele>10.333333333333332</ele><time>2026-03-30T11:38:41Z</time></trkpt><trkpt lat="39.88498965025514" lon="8.619818781776956"><ele>9.666666666666666</ele><time>2026-03-30T11:38:42Z</time></trkpt><trkpt lat="39.88478787942351" lon="8.619720783723773"><ele>9.0</ele><time>2026-03-30T11:38:43Z</time></trkpt><trkpt lat="39.88458827103318" lon="8.619626227384417"><ele>9.0</ele><time>2026-03-30T11:38:44Z</time></trkpt><trkpt lat="39.88438761009713" lon="8.619530715453736"><ele>9.0</ele><time>2026-03-30T11:38:45Z</time></trkpt><trkpt lat="39.88418852108219" lon="8.619429728575238"><ele>9.0</ele><time>2026-03-30T11:38:46Z</time></trkpt><trkpt lat="39.883987861190256" lon="8.619333088408675"><ele>9.333333333333334</ele><time>2026-03-30T11:38:47Z</time></trkpt><trkpt lat="39.8837835000953" lon="8.619231286950535"><ele>9.666666666666668</ele><time>2026-03-30T11:38:48Z</time></trkpt><trkpt lat="39.8835799898858" lon="8.619130429536817"><ele>10.0</ele><time>2026-03-30T11:38:49Z</time></trkpt><trkpt lat="39.88337477614497" lon="8.619033862946823"><ele>9.0</ele><time>2026-03-30T11:38:50Z</time></trkpt><trkpt lat="39.88315827373861" lon="8.61893284894006"><ele>8.0</ele><time>2026-03-30T11:38:51Z</time></trkpt><trkpt lat="39.88292737941404" lon="8.618812165944657"><ele>8.0</ele><time>2026-03-30T11:38:52Z</time></trkpt><trkpt lat="39.882686003390624" lon="8.618684147830677"><ele>8.0</ele><time>2026-03-30T11:38:53Z</time></trkpt><trkpt lat="39.882439342121565" lon="8.618551683744748"><ele>9.0</ele><time>2026-03-30T11:38:54Z</time></trkpt><trkpt lat="39.88219326665067" lon="8.618419097905559"><ele>10.0</ele><time>2026-03-30T11:38:55Z</time></trkpt><trkpt lat="39.881969600066284" lon="8.61836420669072"><ele>10.0</ele><time>2026-03-30T11:38:57Z</time></trkpt><trkpt lat="39.8817669931779" lon="8.618266577893092"><ele>10.0</ele><time>2026-03-30T11:38:58Z</time></trkpt><trkpt lat="39.881562227279396" lon="8.618167262050838"><ele>10.0</ele><time>2026-03-30T11:38:59Z</time></trkpt><trkpt lat="39.88135528593684" lon="8.618068431093914"><ele>10.0</ele><time>2026-03-30T11:39:00Z</time></trkpt><trkpt lat="39.88114904907106" lon="8.61796945522394"><ele>10.0</ele><time>2026-03-30T11:39:01Z</time></trkpt><trkpt lat="39.88094167365536" lon="8.617868149452347"><ele>10.0</ele><time>2026-03-30T11:39:02Z</time></trkpt><trkpt lat="39.88073611167308" lon="8.617769366819642"><ele>9.666666666666668</ele><time>2026-03-30T11:39:03Z</time></trkpt><trkpt lat="39.88053096797047" lon="8.61767083180544"><ele>9.333333333333334</ele><time>2026-03-30T11:39:04Z</time></trkpt><trkpt lat="39.880323064945145" lon="8.617581152353262"><ele>9.0</ele><time>2026-03-30T11:39:05Z</time></trkpt><trkpt lat="39.880115675415986" lon="8.617483141602673"><ele>9.666666666666666</ele><time>2026-03-30T11:39:06Z</time></trkpt><trkpt lat="39.879905251683915" lon="8.617382150606026"><ele>10.333333333333332</ele><time>2026-03-30T11:39:07Z</time></trkpt><trkpt lat="39.879696041855794" lon="8.617280072515463"><ele>11.0</ele><time>2026-03-30T11:39:08Z</time></trkpt><trkpt lat="39.87948691519056" lon="8.617176721520252"><ele>11.0</ele><time>2026-03-30T11:39:09Z</time></trkpt><trkpt lat="39.87927640192054" lon="8.61707963308309"><ele>11.0</ele><time>2026-03-30T11:39:10Z</time></trkpt><trkpt lat="39.87906781665503" lon="8.61698645594615"><ele>11.0</ele><time>2026-03-30T11:39:11Z</time></trkpt><trkpt lat="39.87886041161451" lon="8.61688781587899"><ele>11.0</ele><time>2026-03-30T11:39:12Z</time></trkpt><trkpt lat="39.87864919436547" lon="8.616782462939737"><ele>11.0</ele><time>2026-03-30T11:39:13Z</time></trkpt><trkpt lat="39.87843879035618" lon="8.616681195932417"><ele>10.0</ele><time>2026-03-30T11:39:14Z</time></trkpt><trkpt lat="39.87822425040905" lon="8.616575935309179"><ele>9.0</ele><time>2026-03-30T11:39:15Z</time></trkpt><trkpt lat="39.87801501430551" lon="8.616475573836441"><ele>9.0</ele><time>2026-03-30T11:39:16Z</time></trkpt><trkpt lat="39.87780217509762" lon="8.616373107380323"><ele>9.0</ele><time>2026-03-30T11:39:17Z</time></trkpt><trkpt lat="39.87759274428375" lon="8.616277179600974"><ele>9.0</ele><time>2026-03-30T11:39:18Z</time></trkpt><trkpt lat="39.87738647960702" lon="8.616171328759021"><ele>8.666666666666666</ele><time>2026-03-30T11:39:19Z</time></trkpt><trkpt lat="39.87717782784473" lon="8.61606774832705"><ele>8.333333333333332</ele><time>2026-03-30T11:39:20Z</time></trkpt><trkpt lat="39.876973558322526" lon="8.615973958539163"><ele>8.0</ele><time>2026-03-30T11:39:21Z</time></trkpt><trkpt lat="39.8767681976585" lon="8.615879906239057"><ele>7.666666666666666</ele><time>2026-03-30T11:39:22Z</time></trkpt><trkpt lat="39.876563005632555" lon="8.615769938432612"><ele>7.333333333333334</ele><time>2026-03-30T11:39:23Z</time></trkpt><trkpt lat="39.87636149164544" lon="8.615674825003772"><ele>7.0</ele><time>2026-03-30T11:39:24Z</time></trkpt><trkpt lat="39.87615732121276" lon="8.61558599526095"><ele>7.0</ele><time>2026-03-30T11:39:25Z</time></trkpt><trkpt lat="39.87595172936836" lon="8.615489504266725"><ele>7.0</ele><time>2026-03-30T11:39:26Z</time></trkpt><trkpt lat="39.875744103607296" lon="8.61539226301423"><ele>7.0</ele><time>2026-03-30T11:39:27Z</time></trkpt><trkpt lat="39.87553552032062" lon="8.615290116824118"><ele>7.333333333333334</ele><time>2026-03-30T11:39:28Z</time></trkpt><trkpt lat="39.875327763125824" lon="8.615189868674543"><ele>7.666666666666666</ele><time>2026-03-30T11:39:29Z</time></trkpt><trkpt lat="39.87512118639877" lon="8.615093664208842"><ele>8.0</ele><time>2026-03-30T11:39:30Z</time></trkpt><trkpt lat="39.87490783874275" lon="8.614999408527153"><ele>8.0</ele><time>2026-03-30T11:39:31Z</time></trkpt><trkpt lat="39.87469214486449" lon="8.614897167476459"><ele>8.0</ele><time>2026-03-30T11:39:32Z</time></trkpt><trkpt lat="39.874481061644936" lon="8.614793237638844"><ele>8.0</ele><time>2026-03-30T11:39:33Z</time></trkpt><trkpt lat="39.87427270507899" lon="8.61468902231637"><ele>8.0</ele><time>2026-03-30T11:39:34Z</time></trkpt><trkpt lat="39.87406714012746" lon="8.6145948438722"><ele>8.0</ele><time>2026-03-30T11:39:35Z</time></trkpt><trkpt lat="39.87385557498171" lon="8.614493357812647"><ele>6.666666666666666</ele><time>2026-03-30T11:39:36Z</time></trkpt><trkpt lat="39.873641538238886" lon="8.614395472376422"><ele>5.333333333333333</ele><time>2026-03-30T11:39:37Z</time></trkpt><trkpt lat="39.87343218211211" lon="8.614297282234435"><ele>4.0</ele><time>2026-03-30T11:39:38Z</time></trkpt><trkpt lat="39.873233863185035" lon="8.61419240035609"><ele>4.0</ele><time>2026-03-30T11:39:39Z</time></trkpt><trkpt lat="39.87303506123133" lon="8.6140957913714"><ele>4.0</ele><time>2026-03-30T11:39:40Z</time></trkpt><trkpt lat="39.872824156747996" lon="8.613997392983885"><ele>4.0</ele><time>2026-03-30T11:39:41Z</time></trkpt><trkpt lat="39.872608946842576" lon="8.613895968984417"><ele>4.5</ele><time>2026-03-30T11:39:42Z</time></trkpt><trkpt lat="39.87239534515502" lon="8.613792543117185"><ele>5.0</ele><time>2026-03-30T11:39:43Z</time></trkpt><trkpt lat="39.87218200664867" lon="8.613682063924283"><ele>5.0</ele><time>2026-03-30T11:39:44Z</time></trkpt><trkpt lat="39.87196243407893" lon="8.613564681311752"><ele>5.0</ele><time>2026-03-30T11:39:45Z</time></trkpt><trkpt lat="39.87174392225878" lon="8.613449915812927"><ele>5.0</ele><time>2026-03-30T11:39:46Z</time></trkpt><trkpt lat="39.87152775764196" lon="8.613330786573915"><ele>5.0</ele><time>2026-03-30T11:39:47Z</time></trkpt><trkpt lat="39.871309878004475" lon="8.613209362158349"><ele>5.0</ele><time>2026-03-30T11:39:48Z</time></trkpt><trkpt lat="39.87109036551479" lon="8.613079953027206"><ele>5.0</ele><time>2026-03-30T11:39:49Z</time></trkpt><trkpt lat="39.87087132069791" lon="8.61295356715025"><ele>5.0</ele><time>2026-03-30T11:39:50Z</time></trkpt><trkpt lat="39.870649981260975" lon="8.612822543114042"><ele>5.0</ele><time>2026-03-30T11:39:51Z</time></trkpt><trkpt lat="39.870429942873294" lon="8.61269498126043"><ele>5.0</ele><time>2026-03-30T11:39:52Z</time></trkpt><trkpt lat="39.87020793095305" lon="8.612565445322504"><ele>5.0</ele><time>2026-03-30T11:39:53Z</time></trkpt><trkpt lat="39.86998456778423" lon="8.612437437626648"><ele>4.0</ele><time>2026-03-30T11:39:54Z</time></trkpt><trkpt lat="39.86975947249431" lon="8.612308361607688"><ele>3.0</ele><time>2026-03-30T11:39:55Z</time></trkpt><trkpt lat="39.86953458287496" lon="8.61218077999544"><ele>3.0</ele><time>2026-03-30T11:39:56Z</time></trkpt><trkpt lat="39.869311899483364" lon="8.612056796493016"><ele>3.0</ele><time>2026-03-30T11:39:57Z</time></trkpt><trkpt lat="39.86908813785818" lon="8.611935983222045"><ele>3.0</ele><time>2026-03-30T11:39:58Z</time></trkpt><trkpt lat="39.86886114218687" lon="8.611827571074777"><ele>3.0</ele><time>2026-03-30T11:39:59Z</time></trkpt><trkpt lat="39.868633299954" lon="8.611726910910516"><ele>3.0</ele><time>2026-03-30T11:40:00Z</time></trkpt><trkpt lat="39.86840012757341" lon="8.611641233767886"><ele>3.0</ele><time>2026-03-30T11:40:01Z</time></trkpt><trkpt lat="39.86816137310584" lon="8.611570358719906"><ele>3.0</ele><time>2026-03-30T11:40:02Z</time></trkpt><trkpt lat="39.86792614871945" lon="8.611501261425362"><ele>3.0</ele><time>2026-03-30T11:40:03Z</time></trkpt><trkpt lat="39.86768902214585" lon="8.61143679429379"><ele>3.0</ele><time>2026-03-30T11:40:04Z</time></trkpt><trkpt lat="39.86744480610812" lon="8.611386824726615"><ele>3.0</ele><time>2026-03-30T11:40:05Z</time></trkpt><trkpt lat="39.867186004162605" lon="8.611339999601789"><ele>3.0</ele><time>2026-03-30T11:40:06Z</time></trkpt><trkpt lat="39.86694586705132" lon="8.611323590264085"><ele>3.0</ele><time>2026-03-30T11:40:07Z</time></trkpt><trkpt lat="39.86669542510091" lon="8.611314426152147"><ele>2.5</ele><time>2026-03-30T11:40:08Z</time></trkpt><trkpt lat="39.86643595300656" lon="8.611314405439188"><ele>2.0</ele><time>2026-03-30T11:40:09Z</time></trkpt><trkpt lat="39.866176395203546" lon="8.61132472050982"><ele>2.0</ele><time>2026-03-30T11:40:10Z</time></trkpt><trkpt lat="39.865917466189934" lon="8.611347173668694"><ele>2.0</ele><time>2026-03-30T11:40:11Z</time></trkpt><trkpt lat="39.86565576678863" lon="8.611386187756839"><ele>2.0</ele><time>2026-03-30T11:40:12Z</time></trkpt><trkpt lat="39.86539560935981" lon="8.611438405230412"><ele>2.0</ele><time>2026-03-30T11:40:13Z</time></trkpt><trkpt lat="39.86514024420995" lon="8.611502450389558"><ele>2.5</ele><time>2026-03-30T11:40:14Z</time></trkpt><trkpt lat="39.86488350166274" lon="8.61157069232332"><ele>3.0</ele><time>2026-03-30T11:40:15Z</time></trkpt><trkpt lat="39.86462977238617" lon="8.6116502111823"><ele>3.0</ele><time>2026-03-30T11:40:16Z</time></trkpt><trkpt lat="39.86437379783115" lon="8.611740003118292"><ele>3.0</ele><time>2026-03-30T11:40:17Z</time></trkpt><trkpt lat="39.86411992714993" lon="8.61183029208307"><ele>3.0</ele><time>2026-03-30T11:40:18Z</time></trkpt><trkpt lat="39.863862178066114" lon="8.611917992648154"><ele>3.0</ele><time>2026-03-30T11:40:19Z</time></trkpt><trkpt lat="39.863604162677774" lon="8.611998301526047"><ele>3.0</ele><time>2026-03-30T11:40:20Z</time></trkpt><trkpt lat="39.8633448168714" lon="8.612060512764591"><ele>3.0</ele><time>2026-03-30T11:40:21Z</time></trkpt><trkpt lat="39.863084855502606" lon="8.6121240742944"><ele>3.0</ele><time>2026-03-30T11:40:22Z</time></trkpt><trkpt lat="39.862833983648976" lon="8.612207871325733"><ele>3.0</ele><time>2026-03-30T11:40:23Z</time></trkpt><trkpt lat="39.862593054561295" lon="8.612308071940035"><ele>4.5</ele><time>2026-03-30T11:40:24Z</time></trkpt><trkpt lat="39.86236894224697" lon="8.612416276468378"><ele>6.0</ele><time>2026-03-30T11:40:25Z</time></trkpt><trkpt lat="39.86216366387337" lon="8.612518688339806"><ele>6.0</ele><time>2026-03-30T11:40:26Z</time></trkpt><trkpt lat="39.86196302429726" lon="8.612623389541893"><ele>6.0</ele><time>2026-03-30T11:40:27Z</time></trkpt><trkpt lat="39.86178048452315" lon="8.612727257229164"><ele>6.0</ele><time>2026-03-30T11:40:28Z</time></trkpt><trkpt lat="39.86158849981899" lon="8.612839065002062"><ele>5.666666666666667</ele><time>2026-03-30T11:40:29Z</time></trkpt><trkpt lat="39.86138528417034" lon="8.612949169080458"><ele>5.333333333333334</ele><time>2026-03-30T11:40:30Z</time></trkpt><trkpt lat="39.861180857088755" lon="8.613056941969232"><ele>5.0</ele><time>2026-03-30T11:40:31Z</time></trkpt><trkpt lat="39.86097079305955" lon="8.61317105663973"><ele>5.5</ele><time>2026-03-30T11:40:32Z</time></trkpt><trkpt lat="39.86075668603352" lon="8.613287454119993"><ele>6.0</ele><time>2026-03-30T11:40:33Z</time></trkpt><trkpt lat="39.86054192784618" lon="8.613401519569848"><ele>6.0</ele><time>2026-03-30T11:40:34Z</time></trkpt><trkpt lat="39.860322714066285" lon="8.613520147875597"><ele>6.0</ele><time>2026-03-30T11:40:35Z</time></trkpt><trkpt lat="39.86010379758685" lon="8.613636010284532"><ele>5.0</ele><time>2026-03-30T11:40:36Z</time></trkpt><trkpt lat="39.859882356019654" lon="8.613753544492353"><ele>4.0</ele><time>2026-03-30T11:40:37Z</time></trkpt><trkpt lat="39.85965866101127" lon="8.61387707333698"><ele>4.0</ele><time>2026-03-30T11:40:38Z</time></trkpt><trkpt lat="39.85943608131258" lon="8.614003756371309"><ele>4.0</ele><time>2026-03-30T11:40:39Z</time></trkpt><trkpt lat="39.859213251294165" lon="8.61412442009761"><ele>3.5</ele><time>2026-03-30T11:40:40Z</time></trkpt><trkpt lat="39.85898790698007" lon="8.614243546061275"><ele>3.0</ele><time>2026-03-30T11:40:41Z</time></trkpt><trkpt lat="39.85876175594473" lon="8.614366535621878"><ele>3.0</ele><time>2026-03-30T11:40:42Z</time></trkpt><trkpt lat="39.85853352075674" lon="8.614490701485387"><ele>3.0</ele><time>2026-03-30T11:40:43Z</time></trkpt><trkpt lat="39.85830306457147" lon="8.6146155320812"><ele>3.0</ele><time>2026-03-30T11:40:44Z</time></trkpt><trkpt lat="39.858071626509144" lon="8.614740117870555"><ele>3.0</ele><time>2026-03-30T11:40:45Z</time></trkpt><trkpt lat="39.85783911030011" lon="8.614861861277811"><ele>2.5</ele><time>2026-03-30T11:40:46Z</time></trkpt><trkpt lat="39.85760579045511" lon="8.614984972648232"><ele>2.0</ele><time>2026-03-30T11:40:47Z</time></trkpt><trkpt lat="39.85737381803396" lon="8.61511026888433"><ele>2.0</ele><time>2026-03-30T11:40:48Z</time></trkpt><trkpt lat="39.85714003634874" lon="8.615238821476753"><ele>2.0</ele><time>2026-03-30T11:40:49Z</time></trkpt><trkpt lat="39.856907976724116" lon="8.615365883567248"><ele>3.0</ele><time>2026-03-30T11:40:50Z</time></trkpt><trkpt lat="39.85667281423098" lon="8.615491310239905"><ele>4.0</ele><time>2026-03-30T11:40:51Z</time></trkpt><trkpt lat="39.85643836608989" lon="8.615614358316837"><ele>4.0</ele><time>2026-03-30T11:40:52Z</time></trkpt><trkpt lat="39.856203229256074" lon="8.61574851721463"><ele>4.0</ele><time>2026-03-30T11:40:53Z</time></trkpt><trkpt lat="39.8559657182242" lon="8.61587720259378"><ele>5.0</ele><time>2026-03-30T11:40:54Z</time></trkpt><trkpt lat="39.85573140981136" lon="8.616003026604362"><ele>6.0</ele><time>2026-03-30T11:40:55Z</time></trkpt><trkpt lat="39.85549379837062" lon="8.616130763440731"><ele>4.5</ele><time>2026-03-30T11:40:56Z</time></trkpt><trkpt lat="39.85525529235003" lon="8.616259266155458"><ele>3.0</ele><time>2026-03-30T11:40:57Z</time></trkpt><trkpt lat="39.855018194757534" lon="8.61639054667203"><ele>3.0</ele><time>2026-03-30T11:40:58Z</time></trkpt><trkpt lat="39.85478132144407" lon="8.6165194355678"><ele>3.0</ele><time>2026-03-30T11:40:59Z</time></trkpt><trkpt lat="39.854540207314614" lon="8.616651036958267"><ele>3.0</ele><time>2026-03-30T11:41:00Z</time></trkpt><trkpt lat="39.85430271061896" lon="8.616779190593935"><ele>3.0</ele><time>2026-03-30T11:41:01Z</time></trkpt><trkpt lat="39.854065123502096" lon="8.61690846553928"><ele>2.5</ele><time>2026-03-30T11:41:02Z</time></trkpt><trkpt lat="39.85382512476912" lon="8.61703494893881"><ele>2.0</ele><time>2026-03-30T11:41:03Z</time></trkpt><trkpt lat="39.85358839180236" lon="8.617160726299607"><ele>2.0</ele><time>2026-03-30T11:41:04Z</time></trkpt><trkpt lat="39.85335202968267" lon="8.61728510045248"><ele>2.0</ele><time>2026-03-30T11:41:05Z</time></trkpt><trkpt lat="39.85311252740138" lon="8.617408462635431"><ele>2.0</ele><time>2026-03-30T11:41:06Z</time></trkpt><trkpt lat="39.852874644071676" lon="8.617532245295731"><ele>2.0</ele><time>2026-03-30T11:41:07Z</time></trkpt><trkpt lat="39.85263487636074" lon="8.617656879951024"><ele>2.0</ele><time>2026-03-30T11:41:08Z</time></trkpt><trkpt lat="39.852394658207245" lon="8.617780588440805"><ele>2.0</ele><time>2026-03-30T11:41:09Z</time></trkpt><trkpt lat="39.85215597795607" lon="8.617907062673408"><ele>2.0</ele><time>2026-03-30T11:41:10Z</time></trkpt><trkpt lat="39.85191943088552" lon="8.618035146707133"><ele>2.0</ele><time>2026-03-30T11:41:11Z</time></trkpt><trkpt lat="39.85168118127239" lon="8.61816468645554"><ele>3.0</ele><time>2026-03-30T11:41:12Z</time></trkpt><trkpt lat="39.85143991382349" lon="8.618293981332362"><ele>4.0</ele><time>2026-03-30T11:41:13Z</time></trkpt><trkpt lat="39.85119873497066" lon="8.618421541522354"><ele>4.0</ele><time>2026-03-30T11:41:14Z</time></trkpt><trkpt lat="39.85095914255281" lon="8.618559057963514"><ele>4.0</ele><time>2026-03-30T11:41:15Z</time></trkpt><trkpt lat="39.85071425044355" lon="8.618690006747546"><ele>4.5</ele><time>2026-03-30T11:41:16Z</time></trkpt><trkpt lat="39.85046604950772" lon="8.618821492616963"><ele>5.0</ele><time>2026-03-30T11:41:17Z</time></trkpt><trkpt lat="39.850214530446436" lon="8.618956426715853"><ele>4.5</ele><time>2026-03-30T11:41:18Z</time></trkpt><trkpt lat="39.84995203577632" lon="8.619090760584296"><ele>4.0</ele><time>2026-03-30T11:41:19Z</time></trkpt><trkpt lat="39.84969598351377" lon="8.61922003627286"><ele>4.0</ele><time>2026-03-30T11:41:20Z</time></trkpt><trkpt lat="39.84946410716257" lon="8.619349513046581"><ele>4.0</ele><time>2026-03-30T11:41:21Z</time></trkpt><trkpt lat="39.84922712540033" lon="8.619475836095075"><ele>5.0</ele><time>2026-03-30T11:41:22Z</time></trkpt><trkpt lat="39.84899213090343" lon="8.619598789409963"><ele>6.0</ele><time>2026-03-30T11:41:23Z</time></trkpt><trkpt lat="39.84875858496862" lon="8.61972364355978"><ele>6.0</ele><time>2026-03-30T11:41:24Z</time></trkpt><trkpt lat="39.84852615214962" lon="8.619843301494804"><ele>6.0</ele><time>2026-03-30T11:41:25Z</time></trkpt><trkpt lat="39.84829188512084" lon="8.61996270520267"><ele>5.5</ele><time>2026-03-30T11:41:26Z</time></trkpt><trkpt lat="39.848058395023536" lon="8.620080732434236"><ele>5.0</ele><time>2026-03-30T11:41:27Z</time></trkpt><trkpt lat="39.84782714021752" lon="8.620204495437516"><ele>5.0</ele><time>2026-03-30T11:41:28Z</time></trkpt><trkpt lat="39.84759369204274" lon="8.620330997894428"><ele>5.0</ele><time>2026-03-30T11:41:29Z</time></trkpt><trkpt lat="39.84736524831538" lon="8.620451752910975"><ele>5.0</ele><time>2026-03-30T11:41:30Z</time></trkpt><trkpt lat="39.84713503311242" lon="8.620575958475229"><ele>5.0</ele><time>2026-03-30T11:41:31Z</time></trkpt><trkpt lat="39.846901561314766" lon="8.62070091979998"><ele>5.5</ele><time>2026-03-30T11:41:32Z</time></trkpt><trkpt lat="39.84666561488829" lon="8.620823998995307"><ele>6.0</ele><time>2026-03-30T11:41:33Z</time></trkpt><trkpt lat="39.84643206195857" lon="8.620945449866626"><ele>6.0</ele><time>2026-03-30T11:41:34Z</time></trkpt><trkpt lat="39.84619622326975" lon="8.62107509871893"><ele>6.0</ele><time>2026-03-30T11:41:35Z</time></trkpt><trkpt lat="39.84596182658227" lon="8.62120855238498"><ele>6.0</ele><time>2026-03-30T11:41:36Z</time></trkpt><trkpt lat="39.845724422108226" lon="8.621339422898446"><ele>6.0</ele><time>2026-03-30T11:41:37Z</time></trkpt><trkpt lat="39.84548649072933" lon="8.621469304273091"><ele>6.0</ele><time>2026-03-30T11:41:38Z</time></trkpt><trkpt lat="39.845247496404916" lon="8.621594947042102"><ele>6.0</ele><time>2026-03-30T11:41:39Z</time></trkpt><trkpt lat="39.845011357809454" lon="8.6217205626818"><ele>7.0</ele><time>2026-03-30T11:41:40Z</time></trkpt><trkpt lat="39.84478080642339" lon="8.621845284105612"><ele>8.0</ele><time>2026-03-30T11:41:41Z</time></trkpt><trkpt lat="39.844555845970596" lon="8.62196785063256"><ele>8.5</ele><time>2026-03-30T11:41:42Z</time></trkpt><trkpt lat="39.84433496662795" lon="8.622085078815912"><ele>9.0</ele><time>2026-03-30T11:41:43Z</time></trkpt><trkpt lat="39.84411745085716" lon="8.622201506604991"><ele>9.0</ele><time>2026-03-30T11:41:44Z</time></trkpt><trkpt lat="39.84390236961947" lon="8.622315416561111"><ele>9.0</ele><time>2026-03-30T11:41:45Z</time></trkpt><trkpt lat="39.84368814577927" lon="8.62243000509899"><ele>9.0</ele><time>2026-03-30T11:41:46Z</time></trkpt><trkpt lat="39.84347395869599" lon="8.62254572795477"><ele>9.0</ele><time>2026-03-30T11:41:47Z</time></trkpt><trkpt lat="39.84325867929218" lon="8.622661579483363"><ele>9.0</ele><time>2026-03-30T11:41:48Z</time></trkpt><trkpt lat="39.84304403327342" lon="8.622777235894391"><ele>9.0</ele><time>2026-03-30T11:41:49Z</time></trkpt><trkpt lat="39.84283132170511" lon="8.622894160692487"><ele>8.0</ele><time>2026-03-30T11:41:50Z</time></trkpt><trkpt lat="39.84261814509039" lon="8.623011153959613"><ele>7.0</ele><time>2026-03-30T11:41:51Z</time></trkpt><trkpt lat="39.842404528563605" lon="8.623126697255993"><ele>7.0</ele><time>2026-03-30T11:41:52Z</time></trkpt><trkpt lat="39.84219036494724" lon="8.623240161364635"><ele>7.0</ele><time>2026-03-30T11:41:53Z</time></trkpt><trkpt lat="39.841976352544066" lon="8.62335299856275"><ele>6.5</ele><time>2026-03-30T11:41:54Z</time></trkpt><trkpt lat="39.84176314199376" lon="8.62346564007641"><ele>6.0</ele><time>2026-03-30T11:41:55Z</time></trkpt><trkpt lat="39.84155201529571" lon="8.623580866176303"><ele>7.0</ele><time>2026-03-30T11:41:56Z</time></trkpt><trkpt lat="39.84134253604075" lon="8.623695544672895"><ele>8.0</ele><time>2026-03-30T11:41:57Z</time></trkpt><trkpt lat="39.84113074851913" lon="8.623807086916312"><ele>7.0</ele><time>2026-03-30T11:41:58Z</time></trkpt><trkpt lat="39.840917563556644" lon="8.623917808721274"><ele>6.0</ele><time>2026-03-30T11:41:59Z</time></trkpt><trkpt lat="39.840706720076014" lon="8.624030016871432"><ele>6.0</ele><time>2026-03-30T11:42:00Z</time></trkpt><trkpt lat="39.84049974170367" lon="8.624143826426144"><ele>6.0</ele><time>2026-03-30T11:42:01Z</time></trkpt><trkpt lat="39.840296279467815" lon="8.624256648225375"><ele>6.0</ele><time>2026-03-30T11:42:02Z</time></trkpt><trkpt lat="39.84009224317826" lon="8.624367113122728"><ele>6.333333333333334</ele><time>2026-03-30T11:42:03Z</time></trkpt><trkpt lat="39.839886229524915" lon="8.624475631856392"><ele>6.666666666666667</ele><time>2026-03-30T11:42:04Z</time></trkpt><trkpt lat="39.83967868765703" lon="8.624587130455446"><ele>7.0</ele><time>2026-03-30T11:42:05Z</time></trkpt><trkpt lat="39.83947169665403" lon="8.624699571912146"><ele>7.333333333333334</ele><time>2026-03-30T11:42:06Z</time></trkpt><trkpt lat="39.83926543877347" lon="8.624812203056898"><ele>7.666666666666666</ele><time>2026-03-30T11:42:07Z</time></trkpt><trkpt lat="39.83906065265593" lon="8.624925109229348"><ele>8.0</ele><time>2026-03-30T11:42:08Z</time></trkpt><trkpt lat="39.838855246992146" lon="8.625036001179483"><ele>8.0</ele><time>2026-03-30T11:42:09Z</time></trkpt><trkpt lat="39.8386480028615" lon="8.625147196347026"><ele>8.0</ele><time>2026-03-30T11:42:10Z</time></trkpt><trkpt lat="39.83843989165757" lon="8.62525892399233"><ele>8.0</ele><time>2026-03-30T11:42:11Z</time></trkpt><trkpt lat="39.83822960502481" lon="8.625370111686824"><ele>9.5</ele><time>2026-03-30T11:42:12Z</time></trkpt><trkpt lat="39.838020219645614" lon="8.625482551344204"><ele>11.0</ele><time>2026-03-30T11:42:13Z</time></trkpt><trkpt lat="39.83781175878601" lon="8.62559632288502"><ele>11.0</ele><time>2026-03-30T11:42:14Z</time></trkpt><trkpt lat="39.83760279817857" lon="8.625707603881702"><ele>11.0</ele><time>2026-03-30T11:42:15Z</time></trkpt><trkpt lat="39.83739324784121" lon="8.62581862853496"><ele>11.0</ele><time>2026-03-30T11:42:16Z</time></trkpt><trkpt lat="39.83718476424842" lon="8.625928535362966"><ele>11.0</ele><time>2026-03-30T11:42:17Z</time></trkpt><trkpt lat="39.836979433472" lon="8.626035217528115"><ele>11.0</ele><time>2026-03-30T11:42:18Z</time></trkpt><trkpt lat="39.83677344808928" lon="8.626142483497732"><ele>10.666666666666666</ele><time>2026-03-30T11:42:19Z</time></trkpt><trkpt lat="39.836568053086715" lon="8.626250802019012"><ele>10.333333333333334</ele><time>2026-03-30T11:42:20Z</time></trkpt><trkpt lat="39.83636216186741" lon="8.626359776788215"><ele>10.0</ele><time>2026-03-30T11:42:21Z</time></trkpt><trkpt lat="39.83615749817699" lon="8.626472713489347"><ele>10.333333333333334</ele><time>2026-03-30T11:42:22Z</time></trkpt><trkpt lat="39.8359539279832" lon="8.626585097358353"><ele>10.666666666666666</ele><time>2026-03-30T11:42:23Z</time></trkpt><trkpt lat="39.8357501575731" lon="8.62669394348966"><ele>11.0</ele><time>2026-03-30T11:42:24Z</time></trkpt><trkpt lat="39.83554466476775" lon="8.626801026608709"><ele>11.0</ele><time>2026-03-30T11:42:25Z</time></trkpt><trkpt lat="39.83534060096943" lon="8.626907308602433"><ele>11.0</ele><time>2026-03-30T11:42:26Z</time></trkpt><trkpt lat="39.83513727800131" lon="8.62701182275455"><ele>11.0</ele><time>2026-03-30T11:42:27Z</time></trkpt><trkpt lat="39.834936336840805" lon="8.627116201858305"><ele>10.333333333333332</ele><time>2026-03-30T11:42:28Z</time></trkpt><trkpt lat="39.834735226455315" lon="8.627219348047213"><ele>9.666666666666666</ele><time>2026-03-30T11:42:29Z</time></trkpt><trkpt lat="39.834534280766526" lon="8.627323178842977"><ele>9.0</ele><time>2026-03-30T11:42:30Z</time></trkpt><trkpt lat="39.834330223890866" lon="8.627429104727321"><ele>9.333333333333334</ele><time>2026-03-30T11:42:31Z</time></trkpt><trkpt lat="39.83412884412998" lon="8.627532053941081"><ele>9.666666666666668</ele><time>2026-03-30T11:42:32Z</time></trkpt><trkpt lat="39.83392734743217" lon="8.62763580764198"><ele>10.0</ele><time>2026-03-30T11:42:33Z</time></trkpt><trkpt lat="39.83372598903909" lon="8.627738907325181"><ele>10.0</ele><time>2026-03-30T11:42:34Z</time></trkpt><trkpt lat="39.83352508530564" lon="8.627848278871346"><ele>10.0</ele><time>2026-03-30T11:42:35Z</time></trkpt><trkpt lat="39.83332641328663" lon="8.62796734718146"><ele>10.0</ele><time>2026-03-30T11:42:36Z</time></trkpt><trkpt lat="39.833126902538325" lon="8.628086526567628"><ele>10.0</ele><time>2026-03-30T11:42:37Z</time></trkpt><trkpt lat="39.832924929944205" lon="8.628199378940627"><ele>10.0</ele><time>2026-03-30T11:42:38Z</time></trkpt><trkpt lat="39.832717677324965" lon="8.628302015946398"><ele>10.0</ele><time>2026-03-30T11:42:39Z</time></trkpt><trkpt lat="39.83250538747802" lon="8.628404612374664"><ele>9.0</ele><time>2026-03-30T11:42:40Z</time></trkpt><trkpt lat="39.832295291059076" lon="8.628514261116035"><ele>8.0</ele><time>2026-03-30T11:42:41Z</time></trkpt><trkpt lat="39.832084577030386" lon="8.628628441485617"><ele>8.0</ele><time>2026-03-30T11:42:42Z</time></trkpt><trkpt lat="39.831873120316914" lon="8.62873616597831"><ele>8.0</ele><time>2026-03-30T11:42:43Z</time></trkpt><trkpt lat="39.83165842833576" lon="8.628842839624992"><ele>8.0</ele><time>2026-03-30T11:42:44Z</time></trkpt><trkpt lat="39.83143810918226" lon="8.628946962552353"><ele>8.0</ele><time>2026-03-30T11:42:45Z</time></trkpt><trkpt lat="39.83122885036623" lon="8.629051149734963"><ele>8.0</ele><time>2026-03-30T11:42:46Z</time></trkpt><trkpt lat="39.83103017905032" lon="8.629153756046614"><ele>8.0</ele><time>2026-03-30T11:42:47Z</time></trkpt><trkpt lat="39.830838429196945" lon="8.629250983789557"><ele>8.0</ele><time>2026-03-30T11:42:48Z</time></trkpt><trkpt lat="39.83065603030175" lon="8.62934499563173"><ele>6.666666666666666</ele><time>2026-03-30T11:42:49Z</time></trkpt><trkpt lat="39.830477265592855" lon="8.62943304983704"><ele>5.333333333333333</ele><time>2026-03-30T11:42:50Z</time></trkpt><trkpt lat="39.83030512999914" lon="8.629518055694062"><ele>4.0</ele><time>2026-03-30T11:42:51Z</time></trkpt><trkpt lat="39.83013271982449" lon="8.629605671712985"><ele>3.333333333333333</ele><time>2026-03-30T11:42:52Z</time></trkpt><trkpt lat="39.82996017286544" lon="8.62969414319268"><ele>2.6666666666666665</ele><time>2026-03-30T11:42:53Z</time></trkpt><trkpt lat="39.82978941567096" lon="8.62978597457593"><ele>2.0</ele><time>2026-03-30T11:42:54Z</time></trkpt><trkpt lat="39.82961629523536" lon="8.629876101309208"><ele>2.0</ele><time>2026-03-30T11:42:55Z</time></trkpt><trkpt lat="39.82943868140871" lon="8.629966576341165"><ele>2.0</ele><time>2026-03-30T11:42:56Z</time></trkpt><trkpt lat="39.82925811761034" lon="8.630055728389685"><ele>2.0</ele><time>2026-03-30T11:42:57Z</time></trkpt><trkpt lat="39.82907662038055" lon="8.630144296082255"><ele>2.0</ele><time>2026-03-30T11:42:58Z</time></trkpt><trkpt lat="39.828891335834875" lon="8.630232324529787"><ele>2.0</ele><time>2026-03-30T11:42:59Z</time></trkpt><trkpt lat="39.828705073488116" lon="8.630322888448688"><ele>2.0</ele><time>2026-03-30T11:43:00Z</time></trkpt><trkpt lat="39.82851906966089" lon="8.63042050268277"><ele>2.0</ele><time>2026-03-30T11:43:01Z</time></trkpt><trkpt lat="39.82833159748524" lon="8.630519465793943"><ele>2.0</ele><time>2026-03-30T11:43:02Z</time></trkpt><trkpt lat="39.828143401933275" lon="8.630614531139278"><ele>2.0</ele><time>2026-03-30T11:43:03Z</time></trkpt><trkpt lat="39.827951558804315" lon="8.63070674012547"><ele>2.0</ele><time>2026-03-30T11:43:04Z</time></trkpt><trkpt lat="39.827756868491775" lon="8.630799111720158"><ele>2.0</ele><time>2026-03-30T11:43:05Z</time></trkpt><trkpt lat="39.82756132556012" lon="8.630896062927235"><ele>2.0</ele><time>2026-03-30T11:43:06Z</time></trkpt><trkpt lat="39.82736736029844" lon="8.63099602772866"><ele>2.0</ele><time>2026-03-30T11:43:07Z</time></trkpt><trkpt lat="39.82717484080686" lon="8.631100507394631"><ele>2.0</ele><time>2026-03-30T11:43:08Z</time></trkpt><trkpt lat="39.826981441937484" lon="8.631205585627546"><ele>2.0</ele><time>2026-03-30T11:43:09Z</time></trkpt><trkpt lat="39.826786286098375" lon="8.631308887059467"><ele>3.0</ele><time>2026-03-30T11:43:10Z</time></trkpt><trkpt lat="39.826588788987046" lon="8.63141247521896"><ele>4.0</ele><time>2026-03-30T11:43:11Z</time></trkpt><trkpt lat="39.82639049909579" lon="8.631518158150902"><ele>5.0</ele><time>2026-03-30T11:43:12Z</time></trkpt><trkpt lat="39.826192196943744" lon="8.631624705783304"><ele>5.0</ele><time>2026-03-30T11:43:13Z</time></trkpt><trkpt lat="39.82599703649679" lon="8.631732996955039"><ele>5.0</ele><time>2026-03-30T11:43:14Z</time></trkpt><trkpt lat="39.82579689474627" lon="8.631839055261697"><ele>5.0</ele><time>2026-03-30T11:43:15Z</time></trkpt><trkpt lat="39.82559746200987" lon="8.63194496388465"><ele>5.0</ele><time>2026-03-30T11:43:16Z</time></trkpt><trkpt lat="39.825396679023726" lon="8.632049482227806"><ele>5.0</ele><time>2026-03-30T11:43:17Z</time></trkpt><trkpt lat="39.825193635018195" lon="8.632154389434001"><ele>5.0</ele><time>2026-03-30T11:43:18Z</time></trkpt><trkpt lat="39.82498889963062" lon="8.632263279563624"><ele>5.0</ele><time>2026-03-30T11:43:19Z</time></trkpt><trkpt lat="39.8247857642484" lon="8.632372713724562"><ele>5.0</ele><time>2026-03-30T11:43:20Z</time></trkpt><trkpt lat="39.824581436822434" lon="8.632484680029846"><ele>5.0</ele><time>2026-03-30T11:43:21Z</time></trkpt><trkpt lat="39.824376757992376" lon="8.632595991130106"><ele>4.333333333333334</ele><time>2026-03-30T11:43:22Z</time></trkpt><trkpt lat="39.8241720050893" lon="8.632710566559938"><ele>3.666666666666667</ele><time>2026-03-30T11:43:23Z</time></trkpt><trkpt lat="39.82396520130347" lon="8.632825860041036"><ele>3.0</ele><time>2026-03-30T11:43:24Z</time></trkpt><trkpt lat="39.823759578068454" lon="8.632942404306403"><ele>3.0</ele><time>2026-03-30T11:43:25Z</time></trkpt><trkpt lat="39.823550273862054" lon="8.633059265462567"><ele>3.0</ele><time>2026-03-30T11:43:26Z</time></trkpt><trkpt lat="39.82334282479688" lon="8.633180179379286"><ele>3.5</ele><time>2026-03-30T11:43:27Z</time></trkpt><trkpt lat="39.82313401126715" lon="8.633303711541554"><ele>4.0</ele><time>2026-03-30T11:43:28Z</time></trkpt><trkpt lat="39.82292596616603" lon="8.633426629833279"><ele>4.0</ele><time>2026-03-30T11:43:29Z</time></trkpt><trkpt lat="39.822716276467396" lon="8.633548672102568"><ele>4.0</ele><time>2026-03-30T11:43:30Z</time></trkpt><trkpt lat="39.822505183837116" lon="8.633670421850297"><ele>4.5</ele><time>2026-03-30T11:43:31Z</time></trkpt><trkpt lat="39.82229583430174" lon="8.63379313336108"><ele>5.0</ele><time>2026-03-30T11:43:32Z</time></trkpt><trkpt lat="39.82208688014239" lon="8.633915701029316"><ele>5.0</ele><time>2026-03-30T11:43:33Z</time></trkpt><trkpt lat="39.82187574203203" lon="8.634039670919275"><ele>5.0</ele><time>2026-03-30T11:43:34Z</time></trkpt><trkpt lat="39.82166385055017" lon="8.634159900681066"><ele>5.5</ele><time>2026-03-30T11:43:35Z</time></trkpt><trkpt lat="39.82145028935846" lon="8.63427799049327"><ele>6.0</ele><time>2026-03-30T11:43:36Z</time></trkpt><trkpt lat="39.821236405184955" lon="8.634394885270664"><ele>6.0</ele><time>2026-03-30T11:43:37Z</time></trkpt><trkpt lat="39.821020369805794" lon="8.634512741530585"><ele>6.0</ele><time>2026-03-30T11:43:38Z</time></trkpt><trkpt lat="39.82080572427385" lon="8.6346359643013"><ele>7.0</ele><time>2026-03-30T11:43:39Z</time></trkpt><trkpt lat="39.82059080815002" lon="8.634758211282866"><ele>8.0</ele><time>2026-03-30T11:43:40Z</time></trkpt><trkpt lat="39.82037524967173" lon="8.63488008861912"><ele>8.0</ele><time>2026-03-30T11:43:41Z</time></trkpt><trkpt lat="39.820159216631815" lon="8.63500135877347"><ele>8.0</ele><time>2026-03-30T11:43:42Z</time></trkpt><trkpt lat="39.81994239131237" lon="8.635118873473832"><ele>9.5</ele><time>2026-03-30T11:43:43Z</time></trkpt><trkpt lat="39.819724908477" lon="8.6352349373884"><ele>11.0</ele><time>2026-03-30T11:43:44Z</time></trkpt><trkpt lat="39.819507084390054" lon="8.63535216778323"><ele>12.0</ele><time>2026-03-30T11:43:45Z</time></trkpt><trkpt lat="39.819288794428665" lon="8.63547363558518"><ele>13.0</ele><time>2026-03-30T11:43:46Z</time></trkpt><trkpt lat="39.81907134265873" lon="8.63559544032219"><ele>13.0</ele><time>2026-03-30T11:43:47Z</time></trkpt><trkpt lat="39.81885433925443" lon="8.635718149453755"><ele>13.0</ele><time>2026-03-30T11:43:48Z</time></trkpt><trkpt lat="39.81863796292456" lon="8.635842755164756"><ele>12.0</ele><time>2026-03-30T11:43:49Z</time></trkpt><trkpt lat="39.818421472253824" lon="8.63596268433069"><ele>11.0</ele><time>2026-03-30T11:43:50Z</time></trkpt><trkpt lat="39.81820279436869" lon="8.636074307268771"><ele>13.5</ele><time>2026-03-30T11:43:51Z</time></trkpt><trkpt lat="39.817984225180226" lon="8.636185217675067"><ele>16.0</ele><time>2026-03-30T11:43:52Z</time></trkpt><trkpt lat="39.81776598605525" lon="8.636297978230525"><ele>14.0</ele><time>2026-03-30T11:43:53Z</time></trkpt><trkpt lat="39.81754832246045" lon="8.636412491484695"><ele>12.0</ele><time>2026-03-30T11:43:54Z</time></trkpt><trkpt lat="39.81733190184257" lon="8.63652951262366"><ele>12.0</ele><time>2026-03-30T11:43:55Z</time></trkpt><trkpt lat="39.817113991494274" lon="8.63665009154485"><ele>12.0</ele><time>2026-03-30T11:43:56Z</time></trkpt><trkpt lat="39.81689555277653" lon="8.636769810428197"><ele>11.0</ele><time>2026-03-30T11:43:57Z</time></trkpt><trkpt lat="39.81667773600884" lon="8.636892483488092"><ele>10.0</ele><time>2026-03-30T11:43:58Z</time></trkpt><trkpt lat="39.81645757830382" lon="8.637012989673936"><ele>10.0</ele><time>2026-03-30T11:43:59Z</time></trkpt><trkpt lat="39.8162373373817" lon="8.637131896078145"><ele>10.0</ele><time>2026-03-30T11:44:00Z</time></trkpt><trkpt lat="39.81601856711443" lon="8.637250722167716"><ele>9.5</ele><time>2026-03-30T11:44:01Z</time></trkpt><trkpt lat="39.81579803092736" lon="8.63736831708088"><ele>9.0</ele><time>2026-03-30T11:44:02Z</time></trkpt><trkpt lat="39.81557702731123" lon="8.637485698861315"><ele>9.0</ele><time>2026-03-30T11:44:03Z</time></trkpt><trkpt lat="39.81535636246091" lon="8.637601861506457"><ele>9.0</ele><time>2026-03-30T11:44:04Z</time></trkpt><trkpt lat="39.8151362232879" lon="8.63771745159926"><ele>11.0</ele><time>2026-03-30T11:44:05Z</time></trkpt><trkpt lat="39.814915275759105" lon="8.637832598923723"><ele>13.0</ele><time>2026-03-30T11:44:06Z</time></trkpt><trkpt lat="39.81469737082977" lon="8.63794652123426"><ele>13.0</ele><time>2026-03-30T11:44:07Z</time></trkpt><trkpt lat="39.81447749078606" lon="8.638062792832768"><ele>13.0</ele><time>2026-03-30T11:44:08Z</time></trkpt><trkpt lat="39.81426044870066" lon="8.63818193685215"><ele>14.5</ele><time>2026-03-30T11:44:09Z</time></trkpt><trkpt lat="39.81404445762473" lon="8.638300295031605"><ele>16.0</ele><time>2026-03-30T11:44:10Z</time></trkpt><trkpt lat="39.81382661472538" lon="8.63841803197224"><ele>16.0</ele><time>2026-03-30T11:44:11Z</time></trkpt><trkpt lat="39.813607458497074" lon="8.638532994430433"><ele>16.0</ele><time>2026-03-30T11:44:12Z</time></trkpt><trkpt lat="39.81338710802422" lon="8.638649234542736"><ele>16.5</ele><time>2026-03-30T11:44:13Z</time></trkpt><trkpt lat="39.813166013201496" lon="8.638764137222687"><ele>17.0</ele><time>2026-03-30T11:44:14Z</time></trkpt><trkpt lat="39.8129427342023" lon="8.638877917961972"><ele>17.0</ele><time>2026-03-30T11:44:15Z</time></trkpt><trkpt lat="39.81271948067282" lon="8.638991483664757"><ele>17.0</ele><time>2026-03-30T11:44:16Z</time></trkpt><trkpt lat="39.812495494750074" lon="8.639105789922478"><ele>17.0</ele><time>2026-03-30T11:44:17Z</time></trkpt><trkpt lat="39.81227360529827" lon="8.639225869635181"><ele>17.0</ele><time>2026-03-30T11:44:18Z</time></trkpt><trkpt lat="39.812051494537535" lon="8.639351366286395"><ele>17.0</ele><time>2026-03-30T11:44:19Z</time></trkpt><trkpt lat="39.81183001196659" lon="8.63947492081407"><ele>17.0</ele><time>2026-03-30T11:44:20Z</time></trkpt><trkpt lat="39.811608960206556" lon="8.639594277507776"><ele>17.0</ele><time>2026-03-30T11:44:21Z</time></trkpt><trkpt lat="39.81138760404182" lon="8.639713766074944"><ele>17.0</ele><time>2026-03-30T11:44:22Z</time></trkpt><trkpt lat="39.81116567067722" lon="8.639831041386268"><ele>17.0</ele><time>2026-03-30T11:44:23Z</time></trkpt><trkpt lat="39.810943791831036" lon="8.63994567911945"><ele>17.0</ele><time>2026-03-30T11:44:24Z</time></trkpt><trkpt lat="39.81072135700349" lon="8.640057476843786"><ele>17.0</ele><time>2026-03-30T11:44:25Z</time></trkpt><trkpt lat="39.810500515925554" lon="8.64017260216643"><ele>17.0</ele><time>2026-03-30T11:44:26Z</time></trkpt><trkpt lat="39.81028387229977" lon="8.640288835101465"><ele>16.0</ele><time>2026-03-30T11:44:27Z</time></trkpt><trkpt lat="39.810069139779664" lon="8.640404538181054"><ele>15.0</ele><time>2026-03-30T11:44:28Z</time></trkpt><trkpt lat="39.809857562106664" lon="8.640519324092258"><ele>15.0</ele><time>2026-03-30T11:44:29Z</time></trkpt><trkpt lat="39.809646481879916" lon="8.640634260171124"><ele>15.0</ele><time>2026-03-30T11:44:30Z</time></trkpt><trkpt lat="39.80943535571064" lon="8.640748119693592"><ele>14.0</ele><time>2026-03-30T11:44:31Z</time></trkpt><trkpt lat="39.809224670576086" lon="8.640860747242073"><ele>13.0</ele><time>2026-03-30T11:44:32Z</time></trkpt><trkpt lat="39.8090117128965" lon="8.640974124927963"><ele>13.0</ele><time>2026-03-30T11:44:33Z</time></trkpt><trkpt lat="39.808797126595366" lon="8.64108764130114"><ele>13.0</ele><time>2026-03-30T11:44:34Z</time></trkpt><trkpt lat="39.80858396797679" lon="8.641204608607383"><ele>12.0</ele><time>2026-03-30T11:44:35Z</time></trkpt><trkpt lat="39.80836578546994" lon="8.641320070775343"><ele>11.0</ele><time>2026-03-30T11:44:36Z</time></trkpt><trkpt lat="39.808146726972815" lon="8.641437311100464"><ele>11.0</ele><time>2026-03-30T11:44:37Z</time></trkpt><trkpt lat="39.807928640278824" lon="8.641554210338954"><ele>11.0</ele><time>2026-03-30T11:44:38Z</time></trkpt><trkpt lat="39.80770913533001" lon="8.641670808177995"><ele>12.5</ele><time>2026-03-30T11:44:39Z</time></trkpt><trkpt lat="39.80748805040801" lon="8.641788374227755"><ele>14.0</ele><time>2026-03-30T11:44:40Z</time></trkpt><trkpt lat="39.80726372971208" lon="8.641901620683328"><ele>14.0</ele><time>2026-03-30T11:44:41Z</time></trkpt><trkpt lat="39.8070413252966" lon="8.642017306295173"><ele>14.0</ele><time>2026-03-30T11:44:42Z</time></trkpt><trkpt lat="39.80681838556175" lon="8.642137788379639"><ele>14.0</ele><time>2026-03-30T11:44:43Z</time></trkpt><trkpt lat="39.80659479040377" lon="8.642258853471088"><ele>14.0</ele><time>2026-03-30T11:44:44Z</time></trkpt><trkpt lat="39.80637265685853" lon="8.64238173366672"><ele>14.0</ele><time>2026-03-30T11:44:45Z</time></trkpt><trkpt lat="39.80615168208324" lon="8.642504738415465"><ele>14.0</ele><time>2026-03-30T11:44:46Z</time></trkpt><trkpt lat="39.80592814428397" lon="8.642621661850422"><ele>14.0</ele><time>2026-03-30T11:44:47Z</time></trkpt><trkpt lat="39.805704020556625" lon="8.642739724767308"><ele>14.0</ele><time>2026-03-30T11:44:48Z</time></trkpt><trkpt lat="39.80548186874912" lon="8.642858697675342"><ele>15.5</ele><time>2026-03-30T11:44:49Z</time></trkpt><trkpt lat="39.80526047283911" lon="8.64298047799368"><ele>17.0</ele><time>2026-03-30T11:44:50Z</time></trkpt><trkpt lat="39.80503762447649" lon="8.643099096075836"><ele>17.0</ele><time>2026-03-30T11:44:51Z</time></trkpt><trkpt lat="39.804816208346594" lon="8.643219159117724"><ele>17.0</ele><time>2026-03-30T11:44:52Z</time></trkpt><trkpt lat="39.80459708848852" lon="8.643340582738237"><ele>17.0</ele><time>2026-03-30T11:44:53Z</time></trkpt><trkpt lat="39.80437599071187" lon="8.643458129224687"><ele>17.0</ele><time>2026-03-30T11:44:54Z</time></trkpt><trkpt lat="39.804154639168075" lon="8.643572640234149"><ele>17.5</ele><time>2026-03-30T11:44:55Z</time></trkpt><trkpt lat="39.803931401003894" lon="8.643686034629695"><ele>18.0</ele><time>2026-03-30T11:44:56Z</time></trkpt><trkpt lat="39.80370803685388" lon="8.643802960610534"><ele>18.0</ele><time>2026-03-30T11:44:57Z</time></trkpt><trkpt lat="39.8034864716985" lon="8.643920498806313"><ele>18.0</ele><time>2026-03-30T11:44:58Z</time></trkpt><trkpt lat="39.80326306207977" lon="8.644039956270454"><ele>18.0</ele><time>2026-03-30T11:44:59Z</time></trkpt><trkpt lat="39.80303894755191" lon="8.64415865100182"><ele>18.0</ele><time>2026-03-30T11:45:00Z</time></trkpt><trkpt lat="39.802814805829286" lon="8.644276643516745"><ele>18.0</ele><time>2026-03-30T11:45:01Z</time></trkpt><trkpt lat="39.80259227971612" lon="8.644395051377355"><ele>18.0</ele><time>2026-03-30T11:45:02Z</time></trkpt><trkpt lat="39.80236874693011" lon="8.64451489249443"><ele>18.5</ele><time>2026-03-30T11:45:03Z</time></trkpt><trkpt lat="39.80214424939816" lon="8.644636227355802"><ele>19.0</ele><time>2026-03-30T11:45:04Z</time></trkpt><trkpt lat="39.80192063019427" lon="8.644756557229224"><ele>19.0</ele><time>2026-03-30T11:45:05Z</time></trkpt><trkpt lat="39.80170186588722" lon="8.644875570234271"><ele>19.0</ele><time>2026-03-30T11:45:06Z</time></trkpt><trkpt lat="39.80148493897586" lon="8.644994673106732"><ele>19.0</ele><time>2026-03-30T11:45:07Z</time></trkpt><trkpt lat="39.80126838415682" lon="8.645112009658655"><ele>19.0</ele><time>2026-03-30T11:45:08Z</time></trkpt><trkpt lat="39.801050098310334" lon="8.64522591589543"><ele>19.5</ele><time>2026-03-30T11:45:09Z</time></trkpt><trkpt lat="39.80083293838359" lon="8.645339681748094"><ele>20.0</ele><time>2026-03-30T11:45:10Z</time></trkpt><trkpt lat="39.80061887412731" lon="8.645452594760023"><ele>20.0</ele><time>2026-03-30T11:45:11Z</time></trkpt><trkpt lat="39.80040884604531" lon="8.645565423752712"><ele>20.0</ele><time>2026-03-30T11:45:12Z</time></trkpt><trkpt lat="39.80020741709841" lon="8.645673899089365"><ele>20.0</ele><time>2026-03-30T11:45:13Z</time></trkpt><trkpt lat="39.80001418068293" lon="8.645778728846912"><ele>20.0</ele><time>2026-03-30T11:45:14Z</time></trkpt><trkpt lat="39.79982384193065" lon="8.64588521172519"><ele>20.0</ele><time>2026-03-30T11:45:15Z</time></trkpt><trkpt lat="39.7996339625893" lon="8.645992807666689"><ele>20.0</ele><time>2026-03-30T11:45:16Z</time></trkpt><trkpt lat="39.79944222929198" lon="8.646097562199929"><ele>20.666666666666668</ele><time>2026-03-30T11:45:17Z</time></trkpt><trkpt lat="39.79924748082395" lon="8.646200901920677"><ele>21.333333333333332</ele><time>2026-03-30T11:45:18Z</time></trkpt><trkpt lat="39.79905011063695" lon="8.646310153338389"><ele>22.0</ele><time>2026-03-30T11:45:19Z</time></trkpt><trkpt lat="39.79885260235412" lon="8.646423388990076"><ele>22.0</ele><time>2026-03-30T11:45:20Z</time></trkpt><trkpt lat="39.79865022669802" lon="8.64653766275694"><ele>22.0</ele><time>2026-03-30T11:45:21Z</time></trkpt><trkpt lat="39.79844609742164" lon="8.646647875844996"><ele>22.0</ele><time>2026-03-30T11:45:22Z</time></trkpt><trkpt lat="39.798239987695915" lon="8.646758202546796"><ele>22.0</ele><time>2026-03-30T11:45:23Z</time></trkpt><trkpt lat="39.79803301960262" lon="8.64687052312579"><ele>22.0</ele><time>2026-03-30T11:45:24Z</time></trkpt><trkpt lat="39.79782513489323" lon="8.646983568333285"><ele>22.5</ele><time>2026-03-30T11:45:25Z</time></trkpt><trkpt lat="39.797616930206146" lon="8.647100393903681"><ele>23.0</ele><time>2026-03-30T11:45:26Z</time></trkpt><trkpt lat="39.79741030896802" lon="8.64721966449867"><ele>23.0</ele><time>2026-03-30T11:45:27Z</time></trkpt><trkpt lat="39.79720446678326" lon="8.647337629088536"><ele>23.0</ele><time>2026-03-30T11:45:28Z</time></trkpt><trkpt lat="39.796997229180796" lon="8.647450678029038"><ele>22.666666666666668</ele><time>2026-03-30T11:45:29Z</time></trkpt><trkpt lat="39.796791894239874" lon="8.647560768134593"><ele>22.333333333333332</ele><time>2026-03-30T11:45:30Z</time></trkpt><trkpt lat="39.79659654439708" lon="8.64766817949985"><ele>22.0</ele><time>2026-03-30T11:45:31Z</time></trkpt><trkpt lat="39.79640283228536" lon="8.64776966861759"><ele>22.0</ele><time>2026-03-30T11:45:32Z</time></trkpt><trkpt lat="39.796205939018414" lon="8.647872217475655"><ele>22.0</ele><time>2026-03-30T11:45:33Z</time></trkpt><trkpt lat="39.79600650205652" lon="8.64798096197012"><ele>22.0</ele><time>2026-03-30T11:45:34Z</time></trkpt><trkpt lat="39.79580307232469" lon="8.648090927166363"><ele>22.0</ele><time>2026-03-30T11:45:35Z</time></trkpt><trkpt lat="39.79560103027286" lon="8.648203264210549"><ele>22.0</ele><time>2026-03-30T11:45:36Z</time></trkpt><trkpt lat="39.795402651276866" lon="8.648312606077765"><ele>22.0</ele><time>2026-03-30T11:45:37Z</time></trkpt><trkpt lat="39.79520634838986" lon="8.648425263415481"><ele>22.333333333333332</ele><time>2026-03-30T11:45:38.001Z</time></trkpt><trkpt lat="39.79500944750414" lon="8.648537887030649"><ele>22.666666666666668</ele><time>2026-03-30T11:45:39Z</time></trkpt><trkpt lat="39.79481320111491" lon="8.648647872606178"><ele>23.0</ele><time>2026-03-30T11:45:40Z</time></trkpt><trkpt lat="39.79462085589888" lon="8.648762177995305"><ele>23.0</ele><time>2026-03-30T11:45:41Z</time></trkpt><trkpt lat="39.79442521594376" lon="8.648874457745034"><ele>23.0</ele><time>2026-03-30T11:45:42Z</time></trkpt><trkpt lat="39.79422698133035" lon="8.648979785152228"><ele>23.0</ele><time>2026-03-30T11:45:43Z</time></trkpt><trkpt lat="39.79403065316119" lon="8.649084350632332"><ele>22.666666666666668</ele><time>2026-03-30T11:45:44Z</time></trkpt><trkpt lat="39.793835291764125" lon="8.649189587187934"><ele>22.333333333333332</ele><time>2026-03-30T11:45:45Z</time></trkpt><trkpt lat="39.79363928127454" lon="8.64929424148594"><ele>22.0</ele><time>2026-03-30T11:45:46Z</time></trkpt><trkpt lat="39.79344342305016" lon="8.649404020375208"><ele>22.333333333333332</ele><time>2026-03-30T11:45:47Z</time></trkpt><trkpt lat="39.793245227323325" lon="8.64950949522309"><ele>22.666666666666668</ele><time>2026-03-30T11:45:48Z</time></trkpt><trkpt lat="39.79304791586549" lon="8.649614890406555"><ele>23.0</ele><time>2026-03-30T11:45:49Z</time></trkpt><trkpt lat="39.792848401634345" lon="8.649717664669755"><ele>23.0</ele><time>2026-03-30T11:45:50Z</time></trkpt><trkpt lat="39.792650831860115" lon="8.64982639060916"><ele>23.0</ele><time>2026-03-30T11:45:51Z</time></trkpt><trkpt lat="39.792452980823164" lon="8.649926885022483"><ele>23.0</ele><time>2026-03-30T11:45:52Z</time></trkpt><trkpt lat="39.79225621854738" lon="8.650029689970783"><ele>23.0</ele><time>2026-03-30T11:45:53Z</time></trkpt><trkpt lat="39.7920550212068" lon="8.650136821023757"><ele>23.0</ele><time>2026-03-30T11:45:54Z</time></trkpt><trkpt lat="39.79185049966492" lon="8.650242808341229"><ele>23.0</ele><time>2026-03-30T11:45:55Z</time></trkpt><trkpt lat="39.791642680919956" lon="8.650347836705148"><ele>23.5</ele><time>2026-03-30T11:45:56Z</time></trkpt><trkpt lat="39.79143360893086" lon="8.650458103872408"><ele>24.0</ele><time>2026-03-30T11:45:57Z</time></trkpt><trkpt lat="39.79122297469002" lon="8.650570249581428"><ele>24.0</ele><time>2026-03-30T11:45:58Z</time></trkpt><trkpt lat="39.791011300060056" lon="8.650682917417154"><ele>24.0</ele><time>2026-03-30T11:45:59Z</time></trkpt><trkpt lat="39.79079861438389" lon="8.650796668058284"><ele>23.5</ele><time>2026-03-30T11:46:00Z</time></trkpt><trkpt lat="39.790585140872125" lon="8.650908773003508"><ele>23.0</ele><time>2026-03-30T11:46:01Z</time></trkpt><trkpt lat="39.79036891073362" lon="8.65101999846864"><ele>24.5</ele><time>2026-03-30T11:46:02Z</time></trkpt><trkpt lat="39.790150783828345" lon="8.65112626934377"><ele>26.0</ele><time>2026-03-30T11:46:03Z</time></trkpt><trkpt lat="39.789931712053296" lon="8.651232089643242"><ele>26.0</ele><time>2026-03-30T11:46:04Z</time></trkpt><trkpt lat="39.78971186884728" lon="8.65134107662596"><ele>26.0</ele><time>2026-03-30T11:46:05Z</time></trkpt><trkpt lat="39.78949301434559" lon="8.651454719080576"><ele>26.5</ele><time>2026-03-30T11:46:06Z</time></trkpt><trkpt lat="39.789273246318515" lon="8.651568518370192"><ele>27.0</ele><time>2026-03-30T11:46:07Z</time></trkpt><trkpt lat="39.789051151670655" lon="8.651683851088595"><ele>27.0</ele><time>2026-03-30T11:46:08Z</time></trkpt><trkpt lat="39.78882797774144" lon="8.65180097857676"><ele>27.0</ele><time>2026-03-30T11:46:09Z</time></trkpt><trkpt lat="39.78860278158917" lon="8.651914280074921"><ele>27.5</ele><time>2026-03-30T11:46:10Z</time></trkpt><trkpt lat="39.788377139650486" lon="8.652025783151286"><ele>28.0</ele><time>2026-03-30T11:46:11Z</time></trkpt><trkpt lat="39.78815135073366" lon="8.652136388099468"><ele>28.0</ele><time>2026-03-30T11:46:12Z</time></trkpt><trkpt lat="39.787925830822694" lon="8.652251907796044"><ele>28.0</ele><time>2026-03-30T11:46:13Z</time></trkpt><trkpt lat="39.78770058736286" lon="8.652369012235019"><ele>28.0</ele><time>2026-03-30T11:46:14Z</time></trkpt><trkpt lat="39.78747346858464" lon="8.652486431001835"><ele>28.0</ele><time>2026-03-30T11:46:15Z</time></trkpt><trkpt lat="39.78724720236981" lon="8.652605127220362"><ele>28.0</ele><time>2026-03-30T11:46:16Z</time></trkpt><trkpt lat="39.78701993886384" lon="8.652724513412018"><ele>28.0</ele><time>2026-03-30T11:46:17Z</time></trkpt><trkpt lat="39.78679376253559" lon="8.65284192936355"><ele>28.5</ele><time>2026-03-30T11:46:18Z</time></trkpt><trkpt lat="39.78656957978791" lon="8.652959106817123"><ele>29.0</ele><time>2026-03-30T11:46:19Z</time></trkpt><trkpt lat="39.78634552722737" lon="8.653077960442687"><ele>29.0</ele><time>2026-03-30T11:46:20Z</time></trkpt><trkpt lat="39.78612173159193" lon="8.653196263246482"><ele>29.0</ele><time>2026-03-30T11:46:21Z</time></trkpt><trkpt lat="39.78589951611964" lon="8.653318004795809"><ele>29.0</ele><time>2026-03-30T11:46:22Z</time></trkpt><trkpt lat="39.7856792659661" lon="8.653438529973961"><ele>29.0</ele><time>2026-03-30T11:46:23Z</time></trkpt><trkpt lat="39.785459644652896" lon="8.653560793775362"><ele>29.5</ele><time>2026-03-30T11:46:24Z</time></trkpt><trkpt lat="39.785240388948516" lon="8.653677620687427"><ele>30.0</ele><time>2026-03-30T11:46:25Z</time></trkpt><trkpt lat="39.785021358285285" lon="8.653798129149708"><ele>30.0</ele><time>2026-03-30T11:46:26Z</time></trkpt><trkpt lat="39.78480267279314" lon="8.653919998702861"><ele>30.0</ele><time>2026-03-30T11:46:27Z</time></trkpt><trkpt lat="39.78458444839817" lon="8.65404414938352"><ele>30.0</ele><time>2026-03-30T11:46:28Z</time></trkpt><trkpt lat="39.78436671150816" lon="8.654164700280475"><ele>30.0</ele><time>2026-03-30T11:46:29Z</time></trkpt><trkpt lat="39.784147080418514" lon="8.65428465811386"><ele>30.0</ele><time>2026-03-30T11:46:30Z</time></trkpt><trkpt lat="39.78393001894474" lon="8.65440472000906"><ele>30.0</ele><time>2026-03-30T11:46:31Z</time></trkpt><trkpt lat="39.78372018862571" lon="8.654545122494277"><ele>30.5</ele><time>2026-03-30T11:46:32Z</time></trkpt><trkpt lat="39.78351016257231" lon="8.654686845058245"><ele>31.0</ele><time>2026-03-30T11:46:33Z</time></trkpt><trkpt lat="39.7832945791237" lon="8.654821110130257"><ele>31.0</ele><time>2026-03-30T11:46:34Z</time></trkpt><trkpt lat="39.7830688588312" lon="8.654938297953331"><ele>31.0</ele><time>2026-03-30T11:46:35Z</time></trkpt><trkpt lat="39.782838159227914" lon="8.655041797096318"><ele>30.0</ele><time>2026-03-30T11:46:36Z</time></trkpt><trkpt lat="39.782604798218436" lon="8.6551433152873"><ele>29.0</ele><time>2026-03-30T11:46:37Z</time></trkpt><trkpt lat="39.78237636266324" lon="8.655255432861242"><ele>29.5</ele><time>2026-03-30T11:46:38Z</time></trkpt><trkpt lat="39.78215674367787" lon="8.655386004050554"><ele>30.0</ele><time>2026-03-30T11:46:39Z</time></trkpt><trkpt lat="39.78194357140019" lon="8.655520830826156"><ele>31.0</ele><time>2026-03-30T11:46:40Z</time></trkpt><trkpt lat="39.781732100574814" lon="8.655646436416383"><ele>32.0</ele><time>2026-03-30T11:46:41Z</time></trkpt><trkpt lat="39.781520399832004" lon="8.65576142592167"><ele>32.0</ele><time>2026-03-30T11:46:42Z</time></trkpt><trkpt lat="39.781311459738184" lon="8.655875577478797"><ele>32.0</ele><time>2026-03-30T11:46:43Z</time></trkpt><trkpt lat="39.78110972694635" lon="8.655989552421742"><ele>32.0</ele><time>2026-03-30T11:46:44Z</time></trkpt><trkpt lat="39.780911664951795" lon="8.656100848043142"><ele>32.33333333333333</ele><time>2026-03-30T11:46:45Z</time></trkpt><trkpt lat="39.780715224505066" lon="8.65621836828101"><ele>32.666666666666664</ele><time>2026-03-30T11:46:46Z</time></trkpt><trkpt lat="39.780521699707506" lon="8.656338456943882"><ele>33.0</ele><time>2026-03-30T11:46:47Z</time></trkpt><trkpt lat="39.78032857154707" lon="8.656458181416069"><ele>32.333333333333336</ele><time>2026-03-30T11:46:48Z</time></trkpt><trkpt lat="39.78013804796505" lon="8.656580151671935"><ele>31.666666666666668</ele><time>2026-03-30T11:46:49Z</time></trkpt><trkpt lat="39.77994660037506" lon="8.656700858704902"><ele>31.0</ele><time>2026-03-30T11:46:50Z</time></trkpt><trkpt lat="39.77975102391413" lon="8.656821285311374"><ele>31.0</ele><time>2026-03-30T11:46:51Z</time></trkpt><trkpt lat="39.77955273091255" lon="8.656945597780252"><ele>31.0</ele><time>2026-03-30T11:46:52Z</time></trkpt><trkpt lat="39.77935740576107" lon="8.657070042503639"><ele>31.0</ele><time>2026-03-30T11:46:53Z</time></trkpt><trkpt lat="39.779161335215676" lon="8.657193878793366"><ele>31.333333333333336</ele><time>2026-03-30T11:46:54Z</time></trkpt><trkpt lat="39.77896910385482" lon="8.657317798047094"><ele>31.666666666666664</ele><time>2026-03-30T11:46:55Z</time></trkpt><trkpt lat="39.778779328165236" lon="8.657440981025161"><ele>32.0</ele><time>2026-03-30T11:46:56Z</time></trkpt><trkpt lat="39.77858724936725" lon="8.657566519485307"><ele>32.0</ele><time>2026-03-30T11:46:57Z</time></trkpt><trkpt lat="39.778396130294205" lon="8.657688297088995"><ele>32.0</ele><time>2026-03-30T11:46:58Z</time></trkpt><trkpt lat="39.77820247858061" lon="8.657807867970527"><ele>32.0</ele><time>2026-03-30T11:46:59Z</time></trkpt><trkpt lat="39.77800745766198" lon="8.657929986995544"><ele>32.666666666666664</ele><time>2026-03-30T11:47:00Z</time></trkpt><trkpt lat="39.77781303037018" lon="8.658050584963723"><ele>33.333333333333336</ele><time>2026-03-30T11:47:01Z</time></trkpt><trkpt lat="39.77761824272156" lon="8.658174383274272"><ele>34.0</ele><time>2026-03-30T11:47:02Z</time></trkpt><trkpt lat="39.77742191336071" lon="8.658298596670969"><ele>34.333333333333336</ele><time>2026-03-30T11:47:03Z</time></trkpt><trkpt lat="39.77722648912137" lon="8.658422058702621"><ele>34.666666666666664</ele><time>2026-03-30T11:47:04Z</time></trkpt><trkpt lat="39.77702817318072" lon="8.658544723033542"><ele>35.0</ele><time>2026-03-30T11:47:05Z</time></trkpt><trkpt lat="39.77682811644808" lon="8.65866307881885"><ele>35.33333333333333</ele><time>2026-03-30T11:47:06Z</time></trkpt><trkpt lat="39.776625838502234" lon="8.65877757754828"><ele>35.666666666666664</ele><time>2026-03-30T11:47:07Z</time></trkpt><trkpt lat="39.77642392285996" lon="8.658890850488289"><ele>36.0</ele><time>2026-03-30T11:47:08Z</time></trkpt><trkpt lat="39.77621918367929" lon="8.659003050314032"><ele>35.0</ele><time>2026-03-30T11:47:09Z</time></trkpt><trkpt lat="39.77601588122303" lon="8.65911357377052"><ele>34.0</ele><time>2026-03-30T11:47:10Z</time></trkpt><trkpt lat="39.7758130969038" lon="8.6592220810562"><ele>33.0</ele><time>2026-03-30T11:47:11Z</time></trkpt><trkpt lat="39.77560989466651" lon="8.659329591886266"><ele>33.0</ele><time>2026-03-30T11:47:12Z</time></trkpt><trkpt lat="39.77540506194905" lon="8.659434313760427"><ele>33.0</ele><time>2026-03-30T11:47:13Z</time></trkpt><trkpt lat="39.77520059190902" lon="8.659540947490273"><ele>33.0</ele><time>2026-03-30T11:47:14Z</time></trkpt><trkpt lat="39.77499623667544" lon="8.659648537038468"><ele>33.666666666666664</ele><time>2026-03-30T11:47:15Z</time></trkpt><trkpt lat="39.77479121023488" lon="8.659756616908004"><ele>34.33333333333333</ele><time>2026-03-30T11:47:16Z</time></trkpt><trkpt lat="39.7745868464157" lon="8.659863660748103"><ele>35.0</ele><time>2026-03-30T11:47:17Z</time></trkpt><trkpt lat="39.77438082983485" lon="8.659970813484293"><ele>35.0</ele><time>2026-03-30T11:47:18Z</time></trkpt><trkpt lat="39.774174179145284" lon="8.66007614167094"><ele>35.0</ele><time>2026-03-30T11:47:19Z</time></trkpt><trkpt lat="39.77396662642969" lon="8.6601818489114"><ele>35.0</ele><time>2026-03-30T11:47:20Z</time></trkpt><trkpt lat="39.773756789681286" lon="8.660289081922395"><ele>35.0</ele><time>2026-03-30T11:47:21Z</time></trkpt><trkpt lat="39.77354690608178" lon="8.660396223862891"><ele>35.0</ele><time>2026-03-30T11:47:22Z</time></trkpt><trkpt lat="39.773339441638264" lon="8.660504941347584"><ele>35.0</ele><time>2026-03-30T11:47:23Z</time></trkpt><trkpt lat="39.773129378657536" lon="8.660614201222574"><ele>35.0</ele><time>2026-03-30T11:47:24Z</time></trkpt><trkpt lat="39.772920097282366" lon="8.660724028208833"><ele>35.0</ele><time>2026-03-30T11:47:25Z</time></trkpt><trkpt lat="39.77270969815022" lon="8.660835008157674"><ele>35.0</ele><time>2026-03-30T11:47:26Z</time></trkpt><trkpt lat="39.77250027047981" lon="8.660945205643177"><ele>35.0</ele><time>2026-03-30T11:47:27Z</time></trkpt><trkpt lat="39.772289457244135" lon="8.661056850412134"><ele>35.0</ele><time>2026-03-30T11:47:28Z</time></trkpt><trkpt lat="39.772078688699" lon="8.661168432559563"><ele>35.0</ele><time>2026-03-30T11:47:29Z</time></trkpt><trkpt lat="39.77186781994139" lon="8.661279388895485"><ele>35.5</ele><time>2026-03-30T11:47:30Z</time></trkpt><trkpt lat="39.77165544602814" lon="8.661388242848219"><ele>36.0</ele><time>2026-03-30T11:47:31Z</time></trkpt><trkpt lat="39.77144372077562" lon="8.661497143287301"><ele>36.0</ele><time>2026-03-30T11:47:32Z</time></trkpt><trkpt lat="39.77123138180747" lon="8.66160841381365"><ele>36.0</ele><time>2026-03-30T11:47:33Z</time></trkpt><trkpt lat="39.77101728936802" lon="8.661717076609344"><ele>35.0</ele><time>2026-03-30T11:47:34Z</time></trkpt><trkpt lat="39.77080372996579" lon="8.66182664490536"><ele>34.0</ele><time>2026-03-30T11:47:35Z</time></trkpt><trkpt lat="39.77058843833421" lon="8.661938543172933"><ele>34.0</ele><time>2026-03-30T11:47:36Z</time></trkpt><trkpt lat="39.770374723769855" lon="8.66204946110922"><ele>34.0</ele><time>2026-03-30T11:47:37Z</time></trkpt><trkpt lat="39.77015584654627" lon="8.66216376180824"><ele>34.0</ele><time>2026-03-30T11:47:38Z</time></trkpt><trkpt lat="39.76994372652364" lon="8.662278203756305"><ele>34.0</ele><time>2026-03-30T11:47:39Z</time></trkpt><trkpt lat="39.76973142490773" lon="8.662393742381074"><ele>34.0</ele><time>2026-03-30T11:47:40Z</time></trkpt><trkpt lat="39.76952104467713" lon="8.66251007548916"><ele>34.0</ele><time>2026-03-30T11:47:41Z</time></trkpt><trkpt lat="39.76931007874454" lon="8.662627928789371"><ele>34.0</ele><time>2026-03-30T11:47:42Z</time></trkpt><trkpt lat="39.76909843550236" lon="8.662741622118055"><ele>34.0</ele><time>2026-03-30T11:47:43Z</time></trkpt><trkpt lat="39.76888530555407" lon="8.662853817045004"><ele>34.5</ele><time>2026-03-30T11:47:44Z</time></trkpt><trkpt lat="39.76867486624089" lon="8.662968126354807"><ele>35.0</ele><time>2026-03-30T11:47:45Z</time></trkpt><trkpt lat="39.768464345300096" lon="8.66308123523563"><ele>35.0</ele><time>2026-03-30T11:47:46Z</time></trkpt><trkpt lat="39.768252503153946" lon="8.663192237935194"><ele>35.0</ele><time>2026-03-30T11:47:47Z</time></trkpt><trkpt lat="39.768043379086215" lon="8.663304230521218"><ele>35.0</ele><time>2026-03-30T11:47:48Z</time></trkpt><trkpt lat="39.767833431898566" lon="8.663415793914934"><ele>35.0</ele><time>2026-03-30T11:47:49Z</time></trkpt><trkpt lat="39.76762238856352" lon="8.663529965246934"><ele>34.5</ele><time>2026-03-30T11:47:50Z</time></trkpt><trkpt lat="39.76741304078095" lon="8.663644165042149"><ele>34.0</ele><time>2026-03-30T11:47:51Z</time></trkpt><trkpt lat="39.76720285631193" lon="8.663756921419806"><ele>34.0</ele><time>2026-03-30T11:47:52Z</time></trkpt><trkpt lat="39.7669911773485" lon="8.66386848339536"><ele>34.0</ele><time>2026-03-30T11:47:53Z</time></trkpt><trkpt lat="39.7667817061568" lon="8.663981795959144"><ele>35.0</ele><time>2026-03-30T11:47:54Z</time></trkpt><trkpt lat="39.76657277705349" lon="8.664096985972638"><ele>36.0</ele><time>2026-03-30T11:47:55Z</time></trkpt><trkpt lat="39.76636106137934" lon="8.664211050393126"><ele>36.0</ele><time>2026-03-30T11:47:56Z</time></trkpt><trkpt lat="39.76614898148593" lon="8.664323895307648"><ele>36.0</ele><time>2026-03-30T11:47:57Z</time></trkpt><trkpt lat="39.76593983194067" lon="8.66444087548108"><ele>36.0</ele><time>2026-03-30T11:47:58Z</time></trkpt><trkpt lat="39.76572266382489" lon="8.66455532211737"><ele>36.0</ele><time>2026-03-30T11:47:59Z</time></trkpt><trkpt lat="39.76550628835171" lon="8.664668595279338"><ele>36.0</ele><time>2026-03-30T11:48:00Z</time></trkpt><trkpt lat="39.76529281183121" lon="8.664789942983283"><ele>36.0</ele><time>2026-03-30T11:48:01Z</time></trkpt><trkpt lat="39.76507719146457" lon="8.66490920502366"><ele>36.0</ele><time>2026-03-30T11:48:02Z</time></trkpt><trkpt lat="39.764860526283606" lon="8.665025940968839"><ele>36.0</ele><time>2026-03-30T11:48:03Z</time></trkpt><trkpt lat="39.76464399510345" lon="8.66514414696475"><ele>36.0</ele><time>2026-03-30T11:48:04Z</time></trkpt><trkpt lat="39.76443003130035" lon="8.665263255371071"><ele>36.0</ele><time>2026-03-30T11:48:05Z</time></trkpt><trkpt lat="39.764204935153856" lon="8.665383825505286"><ele>36.5</ele><time>2026-03-30T11:48:06Z</time></trkpt><trkpt lat="39.76397825976878" lon="8.665501477332395"><ele>37.0</ele><time>2026-03-30T11:48:07Z</time></trkpt><trkpt lat="39.76375391337463" lon="8.665620440011505"><ele>37.5</ele><time>2026-03-30T11:48:08Z</time></trkpt><trkpt lat="39.763529907453936" lon="8.665742799149866"><ele>38.0</ele><time>2026-03-30T11:48:09Z</time></trkpt><trkpt lat="39.763308528486675" lon="8.665867448164276"><ele>38.0</ele><time>2026-03-30T11:48:10Z</time></trkpt><trkpt lat="39.76308651473623" lon="8.665991642455317"><ele>38.0</ele><time>2026-03-30T11:48:11Z</time></trkpt><trkpt lat="39.76286645822047" lon="8.66611872883051"><ele>38.5</ele><time>2026-03-30T11:48:12Z</time></trkpt><trkpt lat="39.762644775831035" lon="8.66623908483574"><ele>39.0</ele><time>2026-03-30T11:48:13Z</time></trkpt><trkpt lat="39.76242009912915" lon="8.666353958115144"><ele>39.0</ele><time>2026-03-30T11:48:14Z</time></trkpt><trkpt lat="39.76219427871736" lon="8.666463729967612"><ele>39.0</ele><time>2026-03-30T11:48:15Z</time></trkpt><trkpt lat="39.76196829081223" lon="8.666576530730218"><ele>39.5</ele><time>2026-03-30T11:48:16Z</time></trkpt><trkpt lat="39.76174442950924" lon="8.666693339125862"><ele>40.0</ele><time>2026-03-30T11:48:17Z</time></trkpt><trkpt lat="39.76152050367666" lon="8.666812890289147"><ele>40.0</ele><time>2026-03-30T11:48:18Z</time></trkpt><trkpt lat="39.76129555147703" lon="8.666935240530993"><ele>40.0</ele><time>2026-03-30T11:48:19Z</time></trkpt><trkpt lat="39.761071987454464" lon="8.667060644133958"><ele>40.5</ele><time>2026-03-30T11:48:20Z</time></trkpt><trkpt lat="39.76084801378758" lon="8.667186373044068"><ele>41.0</ele><time>2026-03-30T11:48:21Z</time></trkpt><trkpt lat="39.76062500847072" lon="8.667315104059998"><ele>41.0</ele><time>2026-03-30T11:48:22Z</time></trkpt><trkpt lat="39.76040373229947" lon="8.667433178065403"><ele>41.0</ele><time>2026-03-30T11:48:23Z</time></trkpt><trkpt lat="39.76018563319722" lon="8.667544266379698"><ele>41.0</ele><time>2026-03-30T11:48:24Z</time></trkpt><trkpt lat="39.75996644770456" lon="8.667657959203575"><ele>41.0</ele><time>2026-03-30T11:48:25Z</time></trkpt><trkpt lat="39.75974474312075" lon="8.667774683509803"><ele>41.5</ele><time>2026-03-30T11:48:26Z</time></trkpt><trkpt lat="39.75952324476651" lon="8.667892550915937"><ele>42.0</ele><time>2026-03-30T11:48:27Z</time></trkpt><trkpt lat="39.75930264814696" lon="8.668010974971523"><ele>42.0</ele><time>2026-03-30T11:48:28Z</time></trkpt><trkpt lat="39.75908262513491" lon="8.668129980400831"><ele>42.0</ele><time>2026-03-30T11:48:29Z</time></trkpt><trkpt lat="39.758861378986076" lon="8.668250294919826"><ele>42.0</ele><time>2026-03-30T11:48:30Z</time></trkpt><trkpt lat="39.758641404833476" lon="8.668369980460138"><ele>42.0</ele><time>2026-03-30T11:48:31Z</time></trkpt><trkpt lat="39.758420957902736" lon="8.668489708381909"><ele>43.0</ele><time>2026-03-30T11:48:32Z</time></trkpt><trkpt lat="39.7582003979826" lon="8.668612811637832"><ele>44.0</ele><time>2026-03-30T11:48:33Z</time></trkpt><trkpt lat="39.75797561191154" lon="8.66873200484721"><ele>44.0</ele><time>2026-03-30T11:48:34Z</time></trkpt><trkpt lat="39.757753507587765" lon="8.668847115233351"><ele>44.0</ele><time>2026-03-30T11:48:35Z</time></trkpt><trkpt lat="39.7575303891133" lon="8.668963220395483"><ele>45.0</ele><time>2026-03-30T11:48:36Z</time></trkpt><trkpt lat="39.75730803395316" lon="8.669079299618028"><ele>46.0</ele><time>2026-03-30T11:48:37Z</time></trkpt><trkpt lat="39.757085309078334" lon="8.669197124144542"><ele>45.5</ele><time>2026-03-30T11:48:38Z</time></trkpt><trkpt lat="39.756863328585595" lon="8.669316469407368"><ele>45.0</ele><time>2026-03-30T11:48:39Z</time></trkpt><trkpt lat="39.75664334993373" lon="8.669435245628955"><ele>45.5</ele><time>2026-03-30T11:48:40Z</time></trkpt><trkpt lat="39.75642276907665" lon="8.669552514992763"><ele>46.0</ele><time>2026-03-30T11:48:41Z</time></trkpt><trkpt lat="39.75620306694462" lon="8.669670709220554"><ele>45.5</ele><time>2026-03-30T11:48:42Z</time></trkpt><trkpt lat="39.755981616351704" lon="8.669787735144105"><ele>45.0</ele><time>2026-03-30T11:48:43Z</time></trkpt><trkpt lat="39.755761227306515" lon="8.66990639297294"><ele>45.0</ele><time>2026-03-30T11:48:44Z</time></trkpt><trkpt lat="39.7555396443667" lon="8.670024265629365"><ele>45.0</ele><time>2026-03-30T11:48:45Z</time></trkpt><trkpt lat="39.75531794777567" lon="8.670141713799351"><ele>44.5</ele><time>2026-03-30T11:48:46Z</time></trkpt><trkpt lat="39.75509414858818" lon="8.670257937047126"><ele>44.0</ele><time>2026-03-30T11:48:47Z</time></trkpt><trkpt lat="39.75487116410145" lon="8.67037352343615"><ele>45.5</ele><time>2026-03-30T11:48:48Z</time></trkpt><trkpt lat="39.75464855812231" lon="8.67048631299684"><ele>47.0</ele><time>2026-03-30T11:48:49Z</time></trkpt><trkpt lat="39.75442527577097" lon="8.67060314278383"><ele>47.0</ele><time>2026-03-30T11:48:50Z</time></trkpt><trkpt lat="39.754201342352374" lon="8.670715229628634"><ele>47.0</ele><time>2026-03-30T11:48:51Z</time></trkpt><trkpt lat="39.75397749669234" lon="8.670830242191068"><ele>47.0</ele><time>2026-03-30T11:48:52Z</time></trkpt><trkpt lat="39.753753253324696" lon="8.67094684227237"><ele>47.0</ele><time>2026-03-30T11:48:53Z</time></trkpt><trkpt lat="39.753527171325935" lon="8.671066603452267"><ele>47.5</ele><time>2026-03-30T11:48:54Z</time></trkpt><trkpt lat="39.75329821050598" lon="8.671187548757425"><ele>48.0</ele><time>2026-03-30T11:48:55Z</time></trkpt><trkpt lat="39.75306786249105" lon="8.67130903772082"><ele>48.0</ele><time>2026-03-30T11:48:56Z</time></trkpt><trkpt lat="39.75283639994625" lon="8.671430848966077"><ele>48.0</ele><time>2026-03-30T11:48:57Z</time></trkpt><trkpt lat="39.75260344253265" lon="8.671551315764312"><ele>47.5</ele><time>2026-03-30T11:48:58Z</time></trkpt><trkpt lat="39.75237033384297" lon="8.671671492209065"><ele>47.0</ele><time>2026-03-30T11:48:59Z</time></trkpt><trkpt lat="39.75213764202954" lon="8.671791827337108"><ele>47.0</ele><time>2026-03-30T11:49:00Z</time></trkpt><trkpt lat="39.751903629193514" lon="8.671911851851489"><ele>47.0</ele><time>2026-03-30T11:49:01Z</time></trkpt><trkpt lat="39.75166722621926" lon="8.672030782625527"><ele>47.0</ele><time>2026-03-30T11:49:02Z</time></trkpt><trkpt lat="39.751429167078676" lon="8.672149538751842"><ele>47.0</ele><time>2026-03-30T11:49:03Z</time></trkpt><trkpt lat="39.751191327355635" lon="8.672270900215388"><ele>46.0</ele><time>2026-03-30T11:49:04Z</time></trkpt><trkpt lat="39.750952219935904" lon="8.672395293329236"><ele>45.0</ele><time>2026-03-30T11:49:05Z</time></trkpt><trkpt lat="39.750713690658344" lon="8.672523182007136"><ele>45.0</ele><time>2026-03-30T11:49:06Z</time></trkpt><trkpt lat="39.75047423623645" lon="8.672654860360455"><ele>45.0</ele><time>2026-03-30T11:49:07Z</time></trkpt><trkpt lat="39.75024060964118" lon="8.672792016511547"><ele>46.0</ele><time>2026-03-30T11:49:08Z</time></trkpt><trkpt lat="39.75000383287678" lon="8.672927707916374"><ele>47.0</ele><time>2026-03-30T11:49:09Z</time></trkpt><trkpt lat="39.74976744424968" lon="8.67306455996992"><ele>47.0</ele><time>2026-03-30T11:49:10Z</time></trkpt><trkpt lat="39.74952923477815" lon="8.673201569321655"><ele>47.0</ele><time>2026-03-30T11:49:11Z</time></trkpt><trkpt lat="39.74929064120947" lon="8.67333796769317"><ele>47.0</ele><time>2026-03-30T11:49:12Z</time></trkpt><trkpt lat="39.7490519164035" lon="8.67347431900217"><ele>47.0</ele><time>2026-03-30T11:49:13Z</time></trkpt><trkpt lat="39.74881748683554" lon="8.673609634193566"><ele>47.0</ele><time>2026-03-30T11:49:14Z</time></trkpt><trkpt lat="39.748582833261004" lon="8.673748150335461"><ele>47.0</ele><time>2026-03-30T11:49:15Z</time></trkpt><trkpt lat="39.74834724218137" lon="8.673889162296362"><ele>47.0</ele><time>2026-03-30T11:49:16Z</time></trkpt><trkpt lat="39.74810777569447" lon="8.674024741977783"><ele>47.0</ele><time>2026-03-30T11:49:17Z</time></trkpt><trkpt lat="39.74786795136592" lon="8.67416317599126"><ele>47.0</ele><time>2026-03-30T11:49:18Z</time></trkpt><trkpt lat="39.747631211270324" lon="8.674303837063905"><ele>47.0</ele><time>2026-03-30T11:49:19Z</time></trkpt><trkpt lat="39.74739397130382" lon="8.674444202838718"><ele>47.5</ele><time>2026-03-30T11:49:20Z</time></trkpt><trkpt lat="39.747157422735434" lon="8.67458671686258"><ele>48.0</ele><time>2026-03-30T11:49:21Z</time></trkpt><trkpt lat="39.74691541452507" lon="8.674723350058347"><ele>47.5</ele><time>2026-03-30T11:49:22Z</time></trkpt><trkpt lat="39.74667470617223" lon="8.674863288287714"><ele>47.0</ele><time>2026-03-30T11:49:23Z</time></trkpt><trkpt lat="39.7464302087814" lon="8.675001467307357"><ele>47.0</ele><time>2026-03-30T11:49:24Z</time></trkpt><trkpt lat="39.74617970123804" lon="8.675129918946856"><ele>47.0</ele><time>2026-03-30T11:49:25Z</time></trkpt><trkpt lat="39.74593085212124" lon="8.675263393503593"><ele>48.0</ele><time>2026-03-30T11:49:26Z</time></trkpt><trkpt lat="39.745683128670045" lon="8.67539575222627"><ele>49.0</ele><time>2026-03-30T11:49:27Z</time></trkpt><trkpt lat="39.74543310949729" lon="8.675529272123491"><ele>47.5</ele><time>2026-03-30T11:49:28Z</time></trkpt><trkpt lat="39.74518573561898" lon="8.675659092165892"><ele>46.0</ele><time>2026-03-30T11:49:29Z</time></trkpt><trkpt lat="39.744938942289096" lon="8.675790788786212"><ele>46.0</ele><time>2026-03-30T11:49:30Z</time></trkpt><trkpt lat="39.74469456228243" lon="8.675923323018726"><ele>46.0</ele><time>2026-03-30T11:49:31Z</time></trkpt><trkpt lat="39.74444810100696" lon="8.67605262953723"><ele>46.5</ele><time>2026-03-30T11:49:32Z</time></trkpt><trkpt lat="39.74421008862927" lon="8.676176236883979"><ele>47.0</ele><time>2026-03-30T11:49:33Z</time></trkpt><trkpt lat="39.74398541526609" lon="8.67629218204134"><ele>47.0</ele><time>2026-03-30T11:49:34Z</time></trkpt><trkpt lat="39.74376777772187" lon="8.676405840622284"><ele>47.0</ele><time>2026-03-30T11:49:35Z</time></trkpt><trkpt lat="39.74355110783401" lon="8.676524553148214"><ele>46.5</ele><time>2026-03-30T11:49:36Z</time></trkpt><trkpt lat="39.7433380343611" lon="8.676640362127811"><ele>46.0</ele><time>2026-03-30T11:49:37Z</time></trkpt><trkpt lat="39.74313021027097" lon="8.676752350593338"><ele>46.0</ele><time>2026-03-30T11:49:38Z</time></trkpt><trkpt lat="39.74292907374158" lon="8.6768629603899"><ele>46.0</ele><time>2026-03-30T11:49:39Z</time></trkpt><trkpt lat="39.74272454399567" lon="8.67696994327666"><ele>46.0</ele><time>2026-03-30T11:49:40Z</time></trkpt><trkpt lat="39.74251901696845" lon="8.677077670892453"><ele>45.66666666666667</ele><time>2026-03-30T11:49:41Z</time></trkpt><trkpt lat="39.742310838546196" lon="8.677184957586874"><ele>45.333333333333336</ele><time>2026-03-30T11:49:42Z</time></trkpt><trkpt lat="39.742101911614164" lon="8.677290773405867"><ele>45.0</ele><time>2026-03-30T11:49:43Z</time></trkpt><trkpt lat="39.74189215218404" lon="8.677399695487251"><ele>44.5</ele><time>2026-03-30T11:49:44Z</time></trkpt><trkpt lat="39.741682982806296" lon="8.67751536302803"><ele>44.0</ele><time>2026-03-30T11:49:45Z</time></trkpt><trkpt lat="39.741469862114826" lon="8.677624823577828"><ele>44.0</ele><time>2026-03-30T11:49:46Z</time></trkpt><trkpt lat="39.741257493218235" lon="8.67773345127042"><ele>44.0</ele><time>2026-03-30T11:49:47Z</time></trkpt><trkpt lat="39.74104709903966" lon="8.677842092305958"><ele>44.5</ele><time>2026-03-30T11:49:48Z</time></trkpt><trkpt lat="39.740836693207626" lon="8.677957129887226"><ele>45.0</ele><time>2026-03-30T11:49:49Z</time></trkpt><trkpt lat="39.74062784053761" lon="8.67807163684963"><ele>45.0</ele><time>2026-03-30T11:49:50Z</time></trkpt><trkpt lat="39.74042031257032" lon="8.678185499814058"><ele>45.0</ele><time>2026-03-30T11:49:51Z</time></trkpt><trkpt lat="39.740211659044554" lon="8.678299300697391"><ele>44.0</ele><time>2026-03-30T11:49:52Z</time></trkpt><trkpt lat="39.740002266777104" lon="8.678413039150492"><ele>43.0</ele><time>2026-03-30T11:49:53Z</time></trkpt><trkpt lat="39.73979360850117" lon="8.678520637427733"><ele>43.5</ele><time>2026-03-30T11:49:54Z</time></trkpt><trkpt lat="39.73958337400323" lon="8.678630246644214"><ele>44.0</ele><time>2026-03-30T11:49:55Z</time></trkpt><trkpt lat="39.739374059344186" lon="8.678739408503654"><ele>44.0</ele><time>2026-03-30T11:49:56Z</time></trkpt><trkpt lat="39.739165339436745" lon="8.678850258629474"><ele>44.0</ele><time>2026-03-30T11:49:57Z</time></trkpt><trkpt lat="39.73895521328395" lon="8.678959688957118"><ele>44.0</ele><time>2026-03-30T11:49:58Z</time></trkpt><trkpt lat="39.738745505888296" lon="8.679074894951173"><ele>44.0</ele><time>2026-03-30T11:49:59Z</time></trkpt><trkpt lat="39.738533929438304" lon="8.679187540913198"><ele>45.0</ele><time>2026-03-30T11:50:00.001Z</time></trkpt><trkpt lat="39.73832340104911" lon="8.679301095992198"><ele>46.0</ele><time>2026-03-30T11:50:01.001Z</time></trkpt><trkpt lat="39.73811099443301" lon="8.679413254404851"><ele>46.0</ele><time>2026-03-30T11:50:02.001Z</time></trkpt><trkpt lat="39.73789774614255" lon="8.679522556765546"><ele>46.0</ele><time>2026-03-30T11:50:03.001Z</time></trkpt><trkpt lat="39.73768525365337" lon="8.679635723890566"><ele>45.5</ele><time>2026-03-30T11:50:04.001Z</time></trkpt><trkpt lat="39.7374719750323" lon="8.679748866361543"><ele>45.0</ele><time>2026-03-30T11:50:05.001Z</time></trkpt><trkpt lat="39.73726035795535" lon="8.679861459241678"><ele>45.0</ele><time>2026-03-30T11:50:06.001Z</time></trkpt><trkpt lat="39.73704821640875" lon="8.679974812286666"><ele>45.0</ele><time>2026-03-30T11:50:07.001Z</time></trkpt><trkpt lat="39.73683441229434" lon="8.680086361718848"><ele>45.5</ele><time>2026-03-30T11:50:08.001Z</time></trkpt><trkpt lat="39.73662000790738" lon="8.680199027841796"><ele>46.0</ele><time>2026-03-30T11:50:09.001Z</time></trkpt><trkpt lat="39.73640574461181" lon="8.680310807462972"><ele>46.0</ele><time>2026-03-30T11:50:10.001Z</time></trkpt><trkpt lat="39.736192524527674" lon="8.680424316987644"><ele>46.0</ele><time>2026-03-30T11:50:11.001Z</time></trkpt><trkpt lat="39.735979312495076" lon="8.680539182977176"><ele>46.0</ele><time>2026-03-30T11:50:12.001Z</time></trkpt><trkpt lat="39.73576768392042" lon="8.680655168179785"><ele>46.0</ele><time>2026-03-30T11:50:13.001Z</time></trkpt><trkpt lat="39.73555441449503" lon="8.680772650122742"><ele>46.0</ele><time>2026-03-30T11:50:14Z</time></trkpt><trkpt lat="39.73533989356264" lon="8.68088785970524"><ele>46.0</ele><time>2026-03-30T11:50:15Z</time></trkpt><trkpt lat="39.73512563613221" lon="8.68099934064904"><ele>46.0</ele><time>2026-03-30T11:50:16Z</time></trkpt><trkpt lat="39.73491146562425" lon="8.681113039505973"><ele>46.0</ele><time>2026-03-30T11:50:17Z</time></trkpt><trkpt lat="39.73469745006637" lon="8.68122697678754"><ele>46.0</ele><time>2026-03-30T11:50:18Z</time></trkpt><trkpt lat="39.734481176619134" lon="8.681341353965182"><ele>46.0</ele><time>2026-03-30T11:50:19Z</time></trkpt><trkpt lat="39.73426429547878" lon="8.68145549861639"><ele>46.5</ele><time>2026-03-30T11:50:20Z</time></trkpt><trkpt lat="39.73404728974626" lon="8.681573104945715"><ele>47.0</ele><time>2026-03-30T11:50:21Z</time></trkpt><trkpt lat="39.73382820294146" lon="8.681687537575542"><ele>47.0</ele><time>2026-03-30T11:50:22Z</time></trkpt><trkpt lat="39.73361042494953" lon="8.681802210853894"><ele>47.0</ele><time>2026-03-30T11:50:23Z</time></trkpt><trkpt lat="39.733405237002735" lon="8.681913131126045"><ele>47.33333333333333</ele><time>2026-03-30T11:50:24Z</time></trkpt><trkpt lat="39.7332096806709" lon="8.68202277292875"><ele>47.666666666666664</ele><time>2026-03-30T11:50:25Z</time></trkpt><trkpt lat="39.73301272903396" lon="8.682131421485497"><ele>48.0</ele><time>2026-03-30T11:50:26Z</time></trkpt><trkpt lat="39.73281388492568" lon="8.682243926642668"><ele>48.0</ele><time>2026-03-30T11:50:27Z</time></trkpt><trkpt lat="39.732616295552155" lon="8.682351155520381"><ele>48.0</ele><time>2026-03-30T11:50:28Z</time></trkpt><trkpt lat="39.73241650426504" lon="8.682466364511274"><ele>48.0</ele><time>2026-03-30T11:50:29Z</time></trkpt><trkpt lat="39.73221238935935" lon="8.682571452405345"><ele>48.0</ele><time>2026-03-30T11:50:30Z</time></trkpt><trkpt lat="39.73200770956093" lon="8.682676778913933"><ele>48.0</ele><time>2026-03-30T11:50:31Z</time></trkpt><trkpt lat="39.731800544180864" lon="8.682787738463382"><ele>48.0</ele><time>2026-03-30T11:50:32Z</time></trkpt><trkpt lat="39.73159305436174" lon="8.682902757357082"><ele>49.0</ele><time>2026-03-30T11:50:33Z</time></trkpt><trkpt lat="39.73138492907663" lon="8.68302086815572"><ele>50.0</ele><time>2026-03-30T11:50:34Z</time></trkpt><trkpt lat="39.7311746371149" lon="8.683132383530623"><ele>48.5</ele><time>2026-03-30T11:50:35Z</time></trkpt><trkpt lat="39.73096454305487" lon="8.683248951469416"><ele>47.0</ele><time>2026-03-30T11:50:36Z</time></trkpt><trkpt lat="39.730752723829696" lon="8.683365375244946"><ele>47.0</ele><time>2026-03-30T11:50:37Z</time></trkpt><trkpt lat="39.730542340126" lon="8.683485282071512"><ele>47.0</ele><time>2026-03-30T11:50:38Z</time></trkpt><trkpt lat="39.73033128280556" lon="8.68360595303911"><ele>47.0</ele><time>2026-03-30T11:50:39Z</time></trkpt><trkpt lat="39.730120271872735" lon="8.68372891140423"><ele>47.0</ele><time>2026-03-30T11:50:40Z</time></trkpt><trkpt lat="39.7299076880017" lon="8.683849939975824"><ele>47.0</ele><time>2026-03-30T11:50:41Z</time></trkpt><trkpt lat="39.72969396700983" lon="8.683969561581188"><ele>47.0</ele><time>2026-03-30T11:50:42Z</time></trkpt><trkpt lat="39.72947786988192" lon="8.68409025885897"><ele>47.0</ele><time>2026-03-30T11:50:43Z</time></trkpt><trkpt lat="39.72926188514788" lon="8.684210366103677"><ele>47.0</ele><time>2026-03-30T11:50:44Z</time></trkpt><trkpt lat="39.729046515162764" lon="8.684334516476325"><ele>47.0</ele><time>2026-03-30T11:50:45Z</time></trkpt><trkpt lat="39.72882906349104" lon="8.68445691456486"><ele>47.0</ele><time>2026-03-30T11:50:46Z</time></trkpt><trkpt lat="39.72860949369661" lon="8.684580288646487"><ele>46.5</ele><time>2026-03-30T11:50:47Z</time></trkpt><trkpt lat="39.72839391231911" lon="8.684699665436495"><ele>46.0</ele><time>2026-03-30T11:50:48Z</time></trkpt><trkpt lat="39.728180124798584" lon="8.684821148894846"><ele>46.0</ele><time>2026-03-30T11:50:49Z</time></trkpt><trkpt lat="39.72796638318507" lon="8.68494222300318"><ele>46.0</ele><time>2026-03-30T11:50:50Z</time></trkpt><trkpt lat="39.727753165094505" lon="8.685064610219692"><ele>45.0</ele><time>2026-03-30T11:50:51Z</time></trkpt><trkpt lat="39.72753941072097" lon="8.685185306638797"><ele>44.0</ele><time>2026-03-30T11:50:52Z</time></trkpt><trkpt lat="39.72732425094467" lon="8.68530479716886"><ele>44.0</ele><time>2026-03-30T11:50:53Z</time></trkpt><trkpt lat="39.72710860806516" lon="8.685420240743357"><ele>44.0</ele><time>2026-03-30T11:50:54Z</time></trkpt><trkpt lat="39.72689557391416" lon="8.685535037762747"><ele>44.0</ele><time>2026-03-30T11:50:55Z</time></trkpt><trkpt lat="39.72668245517451" lon="8.685648660180313"><ele>44.0</ele><time>2026-03-30T11:50:56Z</time></trkpt><trkpt lat="39.72646943229895" lon="8.685762979951484"><ele>44.0</ele><time>2026-03-30T11:50:57Z</time></trkpt><trkpt lat="39.72625610279279" lon="8.685873283081564"><ele>44.0</ele><time>2026-03-30T11:50:58Z</time></trkpt><trkpt lat="39.726043263612084" lon="8.685980954129933"><ele>42.5</ele><time>2026-03-30T11:50:59Z</time></trkpt><trkpt lat="39.72583301129268" lon="8.686093335593052"><ele>41.0</ele><time>2026-03-30T11:51:00Z</time></trkpt><trkpt lat="39.725622314169414" lon="8.686204394915782"><ele>41.0</ele><time>2026-03-30T11:51:01Z</time></trkpt><trkpt lat="39.72541160072109" lon="8.686314466642333"><ele>41.0</ele><time>2026-03-30T11:51:02Z</time></trkpt><trkpt lat="39.72520110480303" lon="8.686424253650788"><ele>40.5</ele><time>2026-03-30T11:51:03Z</time></trkpt><trkpt lat="39.724990883811316" lon="8.686534728304311"><ele>40.0</ele><time>2026-03-30T11:51:04Z</time></trkpt><trkpt lat="39.724783141358444" lon="8.686645141168496"><ele>40.0</ele><time>2026-03-30T11:51:05Z</time></trkpt><trkpt lat="39.72457628158244" lon="8.686754989549154"><ele>40.0</ele><time>2026-03-30T11:51:06Z</time></trkpt><trkpt lat="39.72437047632875" lon="8.686864049011934"><ele>40.0</ele><time>2026-03-30T11:51:07Z</time></trkpt><trkpt lat="39.72416273943271" lon="8.686966140606884"><ele>39.66666666666667</ele><time>2026-03-30T11:51:08Z</time></trkpt><trkpt lat="39.723954902769314" lon="8.687069532325667"><ele>39.333333333333336</ele><time>2026-03-30T11:51:09Z</time></trkpt><trkpt lat="39.7237502174541" lon="8.687174208615009"><ele>39.0</ele><time>2026-03-30T11:51:10Z</time></trkpt><trkpt lat="39.7235434412334" lon="8.687277008677077"><ele>38.666666666666664</ele><time>2026-03-30T11:51:11Z</time></trkpt><trkpt lat="39.723339858603545" lon="8.687381810045254"><ele>38.33333333333333</ele><time>2026-03-30T11:51:12Z</time></trkpt><trkpt lat="39.72313475474429" lon="8.687488404577394"><ele>38.0</ele><time>2026-03-30T11:51:13Z</time></trkpt><trkpt lat="39.722927599442485" lon="8.6875971874093"><ele>37.666666666666664</ele><time>2026-03-30T11:51:14Z</time></trkpt><trkpt lat="39.722721866647305" lon="8.687705803077206"><ele>37.333333333333336</ele><time>2026-03-30T11:51:15Z</time></trkpt><trkpt lat="39.72251310576767" lon="8.687814052600883"><ele>37.0</ele><time>2026-03-30T11:51:16Z</time></trkpt><trkpt lat="39.722303018886834" lon="8.687924792425322"><ele>37.0</ele><time>2026-03-30T11:51:17Z</time></trkpt><trkpt lat="39.72209099626475" lon="8.688036334614978"><ele>37.0</ele><time>2026-03-30T11:51:18Z</time></trkpt><trkpt lat="39.7218783047094" lon="8.688148072777949"><ele>36.0</ele><time>2026-03-30T11:51:19Z</time></trkpt><trkpt lat="39.72166457008622" lon="8.68825668244101"><ele>35.0</ele><time>2026-03-30T11:51:20Z</time></trkpt><trkpt lat="39.72144996750726" lon="8.68836886290784"><ele>35.0</ele><time>2026-03-30T11:51:21Z</time></trkpt><trkpt lat="39.7212356056216" lon="8.688481036150982"><ele>35.0</ele><time>2026-03-30T11:51:22Z</time></trkpt><trkpt lat="39.721018851806" lon="8.6885924519854"><ele>34.0</ele><time>2026-03-30T11:51:23Z</time></trkpt><trkpt lat="39.720803441699125" lon="8.688702215233377"><ele>33.0</ele><time>2026-03-30T11:51:24Z</time></trkpt><trkpt lat="39.720583545565646" lon="8.688814205856998"><ele>33.0</ele><time>2026-03-30T11:51:25Z</time></trkpt><trkpt lat="39.72036829034094" lon="8.688929117982632"><ele>33.0</ele><time>2026-03-30T11:51:26Z</time></trkpt><trkpt lat="39.72015137538759" lon="8.689046040220521"><ele>32.5</ele><time>2026-03-30T11:51:27Z</time></trkpt><trkpt lat="39.71993491831097" lon="8.689161325050678"><ele>32.0</ele><time>2026-03-30T11:51:28Z</time></trkpt><trkpt lat="39.71971833104486" lon="8.689275712274865"><ele>32.0</ele><time>2026-03-30T11:51:29Z</time></trkpt><trkpt lat="39.71950220462975" lon="8.68939113481343"><ele>32.0</ele><time>2026-03-30T11:51:30Z</time></trkpt><trkpt lat="39.719285566997044" lon="8.689503527869423"><ele>32.5</ele><time>2026-03-30T11:51:31Z</time></trkpt><trkpt lat="39.71906910656897" lon="8.689618217070633"><ele>33.0</ele><time>2026-03-30T11:51:32Z</time></trkpt><trkpt lat="39.71885169331272" lon="8.689734579690285"><ele>33.0</ele><time>2026-03-30T11:51:33Z</time></trkpt><trkpt lat="39.71863289645435" lon="8.689848250235057"><ele>33.0</ele><time>2026-03-30T11:51:34Z</time></trkpt><trkpt lat="39.71841179694676" lon="8.689962863561911"><ele>32.5</ele><time>2026-03-30T11:51:35Z</time></trkpt><trkpt lat="39.71819057320085" lon="8.690078417971193"><ele>32.0</ele><time>2026-03-30T11:51:36Z</time></trkpt><trkpt lat="39.71797237021437" lon="8.690194068374664"><ele>32.33333333333333</ele><time>2026-03-30T11:51:37Z</time></trkpt><trkpt lat="39.71776427242664" lon="8.690304402952819"><ele>32.666666666666664</ele><time>2026-03-30T11:51:38Z</time></trkpt><trkpt lat="39.71755846532505" lon="8.690415079279738"><ele>33.0</ele><time>2026-03-30T11:51:39Z</time></trkpt><trkpt lat="39.71735026337463" lon="8.690524662675148"><ele>31.5</ele><time>2026-03-30T11:51:40Z</time></trkpt><trkpt lat="39.71714174707789" lon="8.690633779231026"><ele>30.0</ele><time>2026-03-30T11:51:41Z</time></trkpt><trkpt lat="39.71693269283617" lon="8.690745839293673"><ele>29.5</ele><time>2026-03-30T11:51:42Z</time></trkpt><trkpt lat="39.71672349855812" lon="8.690858696498745"><ele>29.0</ele><time>2026-03-30T11:51:43Z</time></trkpt><trkpt lat="39.71651544452527" lon="8.690969706702239"><ele>29.0</ele><time>2026-03-30T11:51:44Z</time></trkpt><trkpt lat="39.716308826366216" lon="8.691080546290822"><ele>29.0</ele><time>2026-03-30T11:51:45Z</time></trkpt><trkpt lat="39.716102017402186" lon="8.691191420529481"><ele>29.0</ele><time>2026-03-30T11:51:46Z</time></trkpt><trkpt lat="39.715896682487426" lon="8.69130403699361"><ele>28.666666666666664</ele><time>2026-03-30T11:51:47Z</time></trkpt><trkpt lat="39.7156893683412" lon="8.691416204534246"><ele>28.333333333333336</ele><time>2026-03-30T11:51:48Z</time></trkpt><trkpt lat="39.71548336072568" lon="8.691529184724162"><ele>28.0</ele><time>2026-03-30T11:51:49Z</time></trkpt><trkpt lat="39.715279282599234" lon="8.691639268515175"><ele>27.666666666666668</ele><time>2026-03-30T11:51:50Z</time></trkpt><trkpt lat="39.7150813358429" lon="8.691743203950843"><ele>27.333333333333336</ele><time>2026-03-30T11:51:51Z</time></trkpt><trkpt lat="39.71488827385604" lon="8.691846314506943"><ele>27.0</ele><time>2026-03-30T11:51:52Z</time></trkpt><trkpt lat="39.714696362944785" lon="8.691947207033918"><ele>27.0</ele><time>2026-03-30T11:51:53Z</time></trkpt><trkpt lat="39.714502848031195" lon="8.692050584707422"><ele>27.0</ele><time>2026-03-30T11:51:54Z</time></trkpt><trkpt lat="39.71430834229541" lon="8.692156144146715"><ele>27.0</ele><time>2026-03-30T11:51:55Z</time></trkpt><trkpt lat="39.714114139499635" lon="8.692260900020733"><ele>26.333333333333336</ele><time>2026-03-30T11:51:56Z</time></trkpt><trkpt lat="39.713917207018646" lon="8.692367630529889"><ele>25.666666666666668</ele><time>2026-03-30T11:51:57Z</time></trkpt><trkpt lat="39.71371659731617" lon="8.692477978738403"><ele>25.0</ele><time>2026-03-30T11:51:58Z</time></trkpt><trkpt lat="39.71351726857775" lon="8.692592392111212"><ele>24.666666666666668</ele><time>2026-03-30T11:51:59Z</time></trkpt><trkpt lat="39.71332073545501" lon="8.692709179622597"><ele>24.333333333333336</ele><time>2026-03-30T11:52:00Z</time></trkpt><trkpt lat="39.71312641451402" lon="8.692827731454269"><ele>24.0</ele><time>2026-03-30T11:52:01Z</time></trkpt><trkpt lat="39.712931427364" lon="8.692946429922856"><ele>24.666666666666664</ele><time>2026-03-30T11:52:02Z</time></trkpt><trkpt lat="39.71273438683765" lon="8.693068897576879"><ele>25.333333333333332</ele><time>2026-03-30T11:52:03Z</time></trkpt><trkpt lat="39.71253760449775" lon="8.693194072417308"><ele>26.0</ele><time>2026-03-30T11:52:04Z</time></trkpt><trkpt lat="39.71234256555885" lon="8.693324774621654"><ele>26.0</ele><time>2026-03-30T11:52:05Z</time></trkpt><trkpt lat="39.712151797026365" lon="8.693464562535555"><ele>26.0</ele><time>2026-03-30T11:52:06.001Z</time></trkpt><trkpt lat="39.711961029140845" lon="8.693608607605576"><ele>26.0</ele><time>2026-03-30T11:52:07.001Z</time></trkpt><trkpt lat="39.71177151630163" lon="8.693752989303597"><ele>25.333333333333332</ele><time>2026-03-30T11:52:08.001Z</time></trkpt><trkpt lat="39.71158013454976" lon="8.693901021932938"><ele>24.666666666666664</ele><time>2026-03-30T11:52:09.001Z</time></trkpt><trkpt lat="39.71139806252611" lon="8.694062860027113"><ele>24.0</ele><time>2026-03-30T11:52:10.001Z</time></trkpt><trkpt lat="39.711212875400726" lon="8.694225205613765"><ele>23.666666666666668</ele><time>2026-03-30T11:52:11.001Z</time></trkpt><trkpt lat="39.71102985408668" lon="8.694388969674266"><ele>23.333333333333336</ele><time>2026-03-30T11:52:12.001Z</time></trkpt><trkpt lat="39.710848969218496" lon="8.694560241694823"><ele>23.0</ele><time>2026-03-30T11:52:13.001Z</time></trkpt><trkpt lat="39.71066861688304" lon="8.694737425910631"><ele>24.0</ele><time>2026-03-30T11:52:14.001Z</time></trkpt><trkpt lat="39.710491372660535" lon="8.694921354470601"><ele>25.0</ele><time>2026-03-30T11:52:15.001Z</time></trkpt><trkpt lat="39.71031202646077" lon="8.69511029092351"><ele>24.0</ele><time>2026-03-30T11:52:16.001Z</time></trkpt><trkpt lat="39.71013642574585" lon="8.695300927603054"><ele>23.0</ele><time>2026-03-30T11:52:17.001Z</time></trkpt><trkpt lat="39.709961362027876" lon="8.69549907535844"><ele>23.0</ele><time>2026-03-30T11:52:18.001Z</time></trkpt><trkpt lat="39.70979165429184" lon="8.695704313304919"><ele>23.0</ele><time>2026-03-30T11:52:19.001Z</time></trkpt><trkpt lat="39.70962229149953" lon="8.695915221889475"><ele>23.0</ele><time>2026-03-30T11:52:20.001Z</time></trkpt><trkpt lat="39.709452806852276" lon="8.696131474202858"><ele>23.0</ele><time>2026-03-30T11:52:21.001Z</time></trkpt><trkpt lat="39.70928490378814" lon="8.696352539125751"><ele>23.0</ele><time>2026-03-30T11:52:22.001Z</time></trkpt><trkpt lat="39.709121177200274" lon="8.696572698144161"><ele>23.0</ele><time>2026-03-30T11:52:23.001Z</time></trkpt><trkpt lat="39.708958783121005" lon="8.69679975867581"><ele>24.0</ele><time>2026-03-30T11:52:24.001Z</time></trkpt><trkpt lat="39.708800108330955" lon="8.697032480044772"><ele>25.0</ele><time>2026-03-30T11:52:25.001Z</time></trkpt><trkpt lat="39.70864830724115" lon="8.697271111351155"><ele>25.0</ele><time>2026-03-30T11:52:26.001Z</time></trkpt><trkpt lat="39.708499222326296" lon="8.697515425205813"><ele>25.0</ele><time>2026-03-30T11:52:27.001Z</time></trkpt><trkpt lat="39.70835086566328" lon="8.69775959452261"><ele>25.0</ele><time>2026-03-30T11:52:28.001Z</time></trkpt><trkpt lat="39.70821051298945" lon="8.698006370358524"><ele>25.0</ele><time>2026-03-30T11:52:29Z</time></trkpt><trkpt lat="39.708071859497075" lon="8.698257608503337"><ele>25.0</ele><time>2026-03-30T11:52:30Z</time></trkpt><trkpt lat="39.707937798502996" lon="8.698509803348932"><ele>25.0</ele><time>2026-03-30T11:52:31Z</time></trkpt><trkpt lat="39.70780731048714" lon="8.698762978595857"><ele>24.0</ele><time>2026-03-30T11:52:32Z</time></trkpt><trkpt lat="39.70767624452212" lon="8.699016826425506"><ele>23.0</ele><time>2026-03-30T11:52:33Z</time></trkpt><trkpt lat="39.707547193395655" lon="8.699271551426142"><ele>23.5</ele><time>2026-03-30T11:52:34Z</time></trkpt><trkpt lat="39.707417804466985" lon="8.699542509724957"><ele>24.0</ele><time>2026-03-30T11:52:35Z</time></trkpt><trkpt lat="39.707292354118124" lon="8.699795287595698"><ele>24.0</ele><time>2026-03-30T11:52:36Z</time></trkpt><trkpt lat="39.70716522733296" lon="8.700053946848197"><ele>24.0</ele><time>2026-03-30T11:52:37Z</time></trkpt><trkpt lat="39.70704228599337" lon="8.700315253763794"><ele>23.5</ele><time>2026-03-30T11:52:38Z</time></trkpt><trkpt lat="39.706921321287346" lon="8.7005692676473"><ele>23.0</ele><time>2026-03-30T11:52:39Z</time></trkpt><trkpt lat="39.706796417773745" lon="8.70082354040374"><ele>22.5</ele><time>2026-03-30T11:52:40Z</time></trkpt><trkpt lat="39.7066700105295" lon="8.701074583614654"><ele>22.0</ele><time>2026-03-30T11:52:41Z</time></trkpt><trkpt lat="39.70654321097476" lon="8.701318463381824"><ele>22.0</ele><time>2026-03-30T11:52:42Z</time></trkpt><trkpt lat="39.7064222582586" lon="8.701554996523086"><ele>22.0</ele><time>2026-03-30T11:52:43Z</time></trkpt><trkpt lat="39.706296225388705" lon="8.70179167961868"><ele>22.0</ele><time>2026-03-30T11:52:44Z</time></trkpt><trkpt lat="39.706169670914605" lon="8.70203527044104"><ele>22.666666666666664</ele><time>2026-03-30T11:52:45Z</time></trkpt><trkpt lat="39.706044603114385" lon="8.7022730573823"><ele>23.333333333333332</ele><time>2026-03-30T11:52:46Z</time></trkpt><trkpt lat="39.705911931522294" lon="8.702505377404524"><ele>24.0</ele><time>2026-03-30T11:52:47Z</time></trkpt><trkpt lat="39.70577304299339" lon="8.702732209640772"><ele>25.0</ele><time>2026-03-30T11:52:48Z</time></trkpt><trkpt lat="39.705635978367035" lon="8.702957083770093"><ele>26.0</ele><time>2026-03-30T11:52:49Z</time></trkpt><trkpt lat="39.70549424524152" lon="8.703180212847771"><ele>27.0</ele><time>2026-03-30T11:52:50Z</time></trkpt><trkpt lat="39.705347891616576" lon="8.703401382117748"><ele>27.0</ele><time>2026-03-30T11:52:51Z</time></trkpt><trkpt lat="39.70520261626303" lon="8.703623196326136"><ele>27.0</ele><time>2026-03-30T11:52:52Z</time></trkpt><trkpt lat="39.705051479469674" lon="8.70383781183415"><ele>27.0</ele><time>2026-03-30T11:52:53Z</time></trkpt><trkpt lat="39.70489412230867" lon="8.70405018652812"><ele>27.0</ele><time>2026-03-30T11:52:54Z</time></trkpt><trkpt lat="39.70473821851107" lon="8.70425401525813"><ele>27.0</ele><time>2026-03-30T11:52:55Z</time></trkpt><trkpt lat="39.70457921752537" lon="8.704464249400715"><ele>27.0</ele><time>2026-03-30T11:52:56Z</time></trkpt><trkpt lat="39.70441186881393" lon="8.704662534587243"><ele>27.333333333333336</ele><time>2026-03-30T11:52:57Z</time></trkpt><trkpt lat="39.70424464425038" lon="8.70485923279021"><ele>27.666666666666668</ele><time>2026-03-30T11:52:58Z</time></trkpt><trkpt lat="39.704076715268904" lon="8.705051789558219"><ele>28.0</ele><time>2026-03-30T11:52:59Z</time></trkpt><trkpt lat="39.70390496062711" lon="8.705240896742051"><ele>29.0</ele><time>2026-03-30T11:53:00Z</time></trkpt><trkpt lat="39.703729877593716" lon="8.705430163829837"><ele>30.0</ele><time>2026-03-30T11:53:01Z</time></trkpt><trkpt lat="39.70355277720512" lon="8.705611018976303"><ele>30.0</ele><time>2026-03-30T11:53:02Z</time></trkpt><trkpt lat="39.70337713177461" lon="8.705787249661471"><ele>30.0</ele><time>2026-03-30T11:53:03Z</time></trkpt><trkpt lat="39.703194793330226" lon="8.705959787362056"><ele>30.0</ele><time>2026-03-30T11:53:04Z</time></trkpt><trkpt lat="39.70299574519038" lon="8.70612908025078"><ele>30.0</ele><time>2026-03-30T11:53:05Z</time></trkpt><trkpt lat="39.70281888468501" lon="8.706291972177873"><ele>30.0</ele><time>2026-03-30T11:53:06Z</time></trkpt><trkpt lat="39.702624705019296" lon="8.706448710822052"><ele>30.0</ele><time>2026-03-30T11:53:07Z</time></trkpt><trkpt lat="39.70243230886787" lon="8.706603137498906"><ele>31.0</ele><time>2026-03-30T11:53:08Z</time></trkpt><trkpt lat="39.70223714330101" lon="8.706754423381645"><ele>32.0</ele><time>2026-03-30T11:53:09Z</time></trkpt><trkpt lat="39.70204217882268" lon="8.706896487767198"><ele>32.0</ele><time>2026-03-30T11:53:10Z</time></trkpt><trkpt lat="39.70184556579198" lon="8.70703679762046"><ele>32.0</ele><time>2026-03-30T11:53:11Z</time></trkpt><trkpt lat="39.701646295671786" lon="8.707168902266698"><ele>32.0</ele><time>2026-03-30T11:53:12Z</time></trkpt><trkpt lat="39.701447549948476" lon="8.707300508134063"><ele>32.0</ele><time>2026-03-30T11:53:13Z</time></trkpt><trkpt lat="39.7012514446735" lon="8.707420196456777"><ele>32.0</ele><time>2026-03-30T11:53:14Z</time></trkpt><trkpt lat="39.701056505893526" lon="8.70753830881309"><ele>32.0</ele><time>2026-03-30T11:53:15Z</time></trkpt><trkpt lat="39.700860354326814" lon="8.707654403063412"><ele>32.0</ele><time>2026-03-30T11:53:16Z</time></trkpt><trkpt lat="39.70066309496417" lon="8.70776657254753"><ele>32.0</ele><time>2026-03-30T11:53:17Z</time></trkpt><trkpt lat="39.700463323781044" lon="8.70786855223988"><ele>32.0</ele><time>2026-03-30T11:53:18Z</time></trkpt><trkpt lat="39.70026194592208" lon="8.707963952166711"><ele>32.0</ele><time>2026-03-30T11:53:19Z</time></trkpt><trkpt lat="39.70005996094205" lon="8.70805936725386"><ele>32.0</ele><time>2026-03-30T11:53:20Z</time></trkpt><trkpt lat="39.699858257965296" lon="8.70816164217955"><ele>32.0</ele><time>2026-03-30T11:53:21Z</time></trkpt><trkpt lat="39.69965984817898" lon="8.708256528248913"><ele>32.0</ele><time>2026-03-30T11:53:22Z</time></trkpt><trkpt lat="39.69946967140997" lon="8.708345003198051"><ele>32.0</ele><time>2026-03-30T11:53:23Z</time></trkpt><trkpt lat="39.69928605940057" lon="8.708426262411283"><ele>32.0</ele><time>2026-03-30T11:53:24Z</time></trkpt><trkpt lat="39.69911263567864" lon="8.70850027479808"><ele>32.0</ele><time>2026-03-30T11:53:25Z</time></trkpt><trkpt lat="39.6989468137794" lon="8.708576053312548"><ele>32.0</ele><time>2026-03-30T11:53:26Z</time></trkpt><trkpt lat="39.698786062677016" lon="8.708649569962102"><ele>32.0</ele><time>2026-03-30T11:53:27Z</time></trkpt><trkpt lat="39.69862063341101" lon="8.708720719900954"><ele>31.333333333333332</ele><time>2026-03-30T11:53:28Z</time></trkpt><trkpt lat="39.698451868604494" lon="8.708796416157595"><ele>30.666666666666664</ele><time>2026-03-30T11:53:29Z</time></trkpt><trkpt lat="39.6982800852905" lon="8.7088746151587"><ele>30.0</ele><time>2026-03-30T11:53:30Z</time></trkpt><trkpt lat="39.69809830353225" lon="8.708950300844881"><ele>30.0</ele><time>2026-03-30T11:53:31Z</time></trkpt><trkpt lat="39.69792065993358" lon="8.709019578805542"><ele>30.0</ele><time>2026-03-30T11:53:32Z</time></trkpt><trkpt lat="39.697731773122165" lon="8.709093009725345"><ele>30.0</ele><time>2026-03-30T11:53:33Z</time></trkpt><trkpt lat="39.69754542471078" lon="8.70917247949579"><ele>30.666666666666664</ele><time>2026-03-30T11:53:34Z</time></trkpt><trkpt lat="39.69735075240757" lon="8.709261546589067"><ele>31.333333333333332</ele><time>2026-03-30T11:53:35Z</time></trkpt><trkpt lat="39.69715764702455" lon="8.70934348751981"><ele>32.0</ele><time>2026-03-30T11:53:36Z</time></trkpt><trkpt lat="39.69696316531414" lon="8.709424305360974"><ele>33.0</ele><time>2026-03-30T11:53:37Z</time></trkpt><trkpt lat="39.696775097487226" lon="8.709500041053111"><ele>34.0</ele><time>2026-03-30T11:53:38Z</time></trkpt><trkpt lat="39.696593704016394" lon="8.709576744759323"><ele>35.0</ele><time>2026-03-30T11:53:39Z</time></trkpt><trkpt lat="39.696420382061056" lon="8.709653140490797"><ele>35.0</ele><time>2026-03-30T11:53:40Z</time></trkpt><trkpt lat="39.69625175264451" lon="8.709725421282021"><ele>35.0</ele><time>2026-03-30T11:53:41Z</time></trkpt><trkpt lat="39.69608415804474" lon="8.709796971164762"><ele>35.0</ele><time>2026-03-30T11:53:42Z</time></trkpt><trkpt lat="39.69590971066519" lon="8.709869332413954"><ele>35.33333333333333</ele><time>2026-03-30T11:53:43Z</time></trkpt><trkpt lat="39.6957325087543" lon="8.709944549406236"><ele>35.666666666666664</ele><time>2026-03-30T11:53:44Z</time></trkpt><trkpt lat="39.69556212536002" lon="8.71001405601102"><ele>36.0</ele><time>2026-03-30T11:53:45Z</time></trkpt><trkpt lat="39.69540112483008" lon="8.710082669595105"><ele>36.333333333333336</ele><time>2026-03-30T11:53:46Z</time></trkpt><trkpt lat="39.69524620627069" lon="8.710147239561156"><ele>36.66666666666667</ele><time>2026-03-30T11:53:47Z</time></trkpt><trkpt lat="39.69510127316286" lon="8.71021338849677"><ele>37.0</ele><time>2026-03-30T11:53:48Z</time></trkpt><trkpt lat="39.694966812652765" lon="8.710275605117545"><ele>37.0</ele><time>2026-03-30T11:53:49Z</time></trkpt><trkpt lat="39.69483674801019" lon="8.7103316925004"><ele>37.0</ele><time>2026-03-30T11:53:50Z</time></trkpt><trkpt lat="39.69470917328572" lon="8.710389638176085"><ele>37.0</ele><time>2026-03-30T11:53:51Z</time></trkpt><trkpt lat="39.694574627961224" lon="8.710439181179924"><ele>37.0</ele><time>2026-03-30T11:53:52Z</time></trkpt><trkpt lat="39.694442149116746" lon="8.710481226478429"><ele>37.5</ele><time>2026-03-30T11:53:53Z</time></trkpt><trkpt lat="39.69430980045527" lon="8.71050425550591"><ele>38.0</ele><time>2026-03-30T11:53:54Z</time></trkpt><trkpt lat="39.69417388478866" lon="8.710494290111566"><ele>38.5</ele><time>2026-03-30T11:53:55Z</time></trkpt><trkpt lat="39.694036892496534" lon="8.710463365590288"><ele>39.0</ele><time>2026-03-30T11:53:56Z</time></trkpt><trkpt lat="39.69390632126385" lon="8.71039118248618"><ele>39.0</ele><time>2026-03-30T11:53:57Z</time></trkpt><trkpt lat="39.69377761238086" lon="8.7103052274959"><ele>39.0</ele><time>2026-03-30T11:53:58Z</time></trkpt><trkpt lat="39.693646155296825" lon="8.710214480179186"><ele>39.0</ele><time>2026-03-30T11:53:59Z</time></trkpt><trkpt lat="39.6935339714652" lon="8.710113946264693"><ele>39.0</ele><time>2026-03-30T11:54:00Z</time></trkpt><trkpt lat="39.69344476791343" lon="8.710003181183403"><ele>37.75</ele><time>2026-03-30T11:54:01Z</time></trkpt><trkpt lat="39.69338117745795" lon="8.709898028010999"><ele>36.5</ele><time>2026-03-30T11:54:02Z</time></trkpt><trkpt lat="39.69333153442649" lon="8.70978215933724"><ele>35.25</ele><time>2026-03-30T11:54:03Z</time></trkpt><trkpt lat="39.69328398637224" lon="8.709652589333965"><ele>34.0</ele><time>2026-03-30T11:54:04Z</time></trkpt><trkpt lat="39.6932651079124" lon="8.709477283946326"><ele>33.333333333333336</ele><time>2026-03-30T11:54:05Z</time></trkpt><trkpt lat="39.69332203850345" lon="8.709258119993336"><ele>32.666666666666664</ele><time>2026-03-30T11:54:06Z</time></trkpt><trkpt lat="39.69336631944838" lon="8.709075360209404"><ele>32.0</ele><time>2026-03-30T11:54:07Z</time></trkpt><trkpt lat="39.6934525264079" lon="8.708912761080668"><ele>32.0</ele><time>2026-03-30T11:54:08Z</time></trkpt><trkpt lat="39.69357393540543" lon="8.708774856517739"><ele>32.0</ele><time>2026-03-30T11:54:09Z</time></trkpt><trkpt lat="39.69371855934508" lon="8.708680678211845"><ele>32.0</ele><time>2026-03-30T11:54:10Z</time></trkpt><trkpt lat="39.69385196500677" lon="8.708605202189498"><ele>31.999999999999996</ele><time>2026-03-30T11:54:11Z</time></trkpt><trkpt lat="39.69395883471641" lon="8.708542668187297"><ele>32.0</ele><time>2026-03-30T11:54:12.001Z</time></trkpt><trkpt lat="39.69401780198824" lon="8.70850316338033"><ele>32.0</ele><time>2026-03-30T11:54:13.001Z</time></trkpt><trkpt lat="39.694104570418595" lon="8.708444100959733"><ele>32.0</ele><time>2026-03-30T11:54:14.001Z</time></trkpt><trkpt lat="39.69417915939668" lon="8.708392987985734"><ele>31.999999999999996</ele><time>2026-03-30T11:54:15.001Z</time></trkpt><trkpt lat="39.69423603648619" lon="8.708329606867991"><ele>32.0</ele><time>2026-03-30T11:54:35Z</time></trkpt><trkpt lat="39.69422871820892" lon="8.708238331531422"><ele>32.0</ele><time>2026-03-30T11:54:36Z</time></trkpt><trkpt lat="39.694166339928486" lon="8.70811192218944"><ele>32.0</ele><time>2026-03-30T11:54:38Z</time></trkpt><trkpt lat="39.694125510800866" lon="8.707999479876047"><ele>32.0</ele><time>2026-03-30T11:54:40Z</time></trkpt><trkpt lat="39.6940864277442" lon="8.707889087609365"><ele>32.0</ele><time>2026-03-30T11:54:42Z</time></trkpt><trkpt lat="39.69403138718754" lon="8.707747782233305"><ele>32.0</ele><time>2026-03-30T11:54:44Z</time></trkpt><trkpt lat="39.694001579615346" lon="8.707670735118487"><ele>31.8</ele><time>2026-03-30T11:54:45Z</time></trkpt><trkpt lat="39.693970623627635" lon="8.707582652875926"><ele>31.6</ele><time>2026-03-30T11:54:46Z</time></trkpt><trkpt lat="39.69393504182501" lon="8.707482114331329"><ele>31.400000000000002</ele><time>2026-03-30T11:54:47Z</time></trkpt><trkpt lat="39.69389585190409" lon="8.707374195913353"><ele>31.200000000000003</ele><time>2026-03-30T11:54:48Z</time></trkpt><trkpt lat="39.69385099741089" lon="8.707256722902311"><ele>31.0</ele><time>2026-03-30T11:54:49Z</time></trkpt><trkpt lat="39.69380466530712" lon="8.70713807944235"><ele>31.0</ele><time>2026-03-30T11:54:50Z</time></trkpt><trkpt lat="39.69375243876853" lon="8.70700309293288"><ele>31.0</ele><time>2026-03-30T11:54:51Z</time></trkpt><trkpt lat="39.69369345649851" lon="8.70685244052666"><ele>31.0</ele><time>2026-03-30T11:54:52Z</time></trkpt><trkpt lat="39.69363552198632" lon="8.70671193887591"><ele>31.0</ele><time>2026-03-30T11:54:53Z</time></trkpt><trkpt lat="39.693572740740954" lon="8.70658381414139"><ele>30.200000000000003</ele><time>2026-03-30T11:54:54Z</time></trkpt><trkpt lat="39.693509540722076" lon="8.706466042391634"><ele>29.400000000000002</ele><time>2026-03-30T11:54:55Z</time></trkpt><trkpt lat="39.69346281834975" lon="8.706353773952026"><ele>28.6</ele><time>2026-03-30T11:54:56Z</time></trkpt><trkpt lat="39.69345509687926" lon="8.70623840652719"><ele>27.8</ele><time>2026-03-30T11:54:57Z</time></trkpt><trkpt lat="39.69349344359861" lon="8.706112941134036"><ele>27.0</ele><time>2026-03-30T11:54:58Z</time></trkpt><trkpt lat="39.69356957477254" lon="8.706004328869048"><ele>27.166666666666668</ele><time>2026-03-30T11:54:59Z</time></trkpt><trkpt lat="39.6936345600449" lon="8.705957193760133"><ele>27.333333333333336</ele><time>2026-03-30T11:55:00Z</time></trkpt><trkpt lat="39.69368116712988" lon="8.705898557541984"><ele>27.5</ele><time>2026-03-30T11:55:02Z</time></trkpt><trkpt lat="39.69371716257939" lon="8.70580011467956"><ele>27.666666666666668</ele><time>2026-03-30T11:55:06Z</time></trkpt><trkpt lat="39.693748416085754" lon="8.70569636704014"><ele>27.833333333333336</ele><time>2026-03-30T11:55:16Z</time></trkpt><trkpt lat="39.693807274801394" lon="8.705632832510204"><ele>28.0</ele><time>2026-03-30T11:55:18Z</time></trkpt><trkpt lat="39.69387949393354" lon="8.705662210834312"><ele>28.000000000000004</ele><time>2026-03-30T11:55:20Z</time></trkpt><trkpt lat="39.693878299160126" lon="8.705575695612552"><ele>28.0</ele><time>2026-03-30T11:55:21Z</time></trkpt><trkpt lat="39.69393374363232" lon="8.705521672711805"><ele>28.0</ele><time>2026-03-30T11:55:24Z</time></trkpt><trkpt lat="39.69399955645223" lon="8.705454291417816"><ele>28.0</ele><time>2026-03-30T11:55:26Z</time></trkpt><trkpt lat="39.69407801389068" lon="8.70540460598705"><ele>28.000000000000004</ele><time>2026-03-30T11:55:28Z</time></trkpt><trkpt lat="39.694037362097184" lon="8.705261455944983"><ele>28.0</ele><time>2026-03-30T11:55:29Z</time></trkpt><trkpt lat="39.69401350988172" lon="8.705156132507524"><ele>27.799999999999997</ele><time>2026-03-30T11:55:30Z</time></trkpt><trkpt lat="39.69397155968704" lon="8.705041291911133"><ele>27.599999999999998</ele><time>2026-03-30T11:55:31Z</time></trkpt><trkpt lat="39.69391560219604" lon="8.704914519664431"><ele>27.400000000000002</ele><time>2026-03-30T11:55:32Z</time></trkpt><trkpt lat="39.69385872344593" lon="8.704787062445176"><ele>27.200000000000003</ele><time>2026-03-30T11:55:33Z</time></trkpt><trkpt lat="39.693809881750944" lon="8.704650277380992"><ele>27.0</ele><time>2026-03-30T11:55:34Z</time></trkpt><trkpt lat="39.693763202938655" lon="8.704508647100887"><ele>26.5</ele><time>2026-03-30T11:55:35Z</time></trkpt><trkpt lat="39.69371099890684" lon="8.704364270441987"><ele>26.0</ele><time>2026-03-30T11:55:36Z</time></trkpt><trkpt lat="39.693655002679556" lon="8.704214688529603"><ele>25.5</ele><time>2026-03-30T11:55:37Z</time></trkpt><trkpt lat="39.693595948185944" lon="8.704060604332573"><ele>25.0</ele><time>2026-03-30T11:55:38Z</time></trkpt><trkpt lat="39.693535865766385" lon="8.703902520026038"><ele>25.0</ele><time>2026-03-30T11:55:39Z</time></trkpt><trkpt lat="39.69347727473766" lon="8.703746360818426"><ele>25.0</ele><time>2026-03-30T11:55:40Z</time></trkpt><trkpt lat="39.693421564587105" lon="8.703597665879878"><ele>25.0</ele><time>2026-03-30T11:55:41Z</time></trkpt><trkpt lat="39.69336814250487" lon="8.703452958631663"><ele>25.0</ele><time>2026-03-30T11:55:42Z</time></trkpt><trkpt lat="39.69331723459799" lon="8.703316872047072"><ele>24.75</ele><time>2026-03-30T11:55:43Z</time></trkpt><trkpt lat="39.69326576670295" lon="8.703182377546382"><ele>24.5</ele><time>2026-03-30T11:55:44Z</time></trkpt><trkpt lat="39.69320811221132" lon="8.703041532544832"><ele>24.25</ele><time>2026-03-30T11:55:45Z</time></trkpt><trkpt lat="39.693150370732" lon="8.702895761821562"><ele>24.0</ele><time>2026-03-30T11:55:46Z</time></trkpt><trkpt lat="39.69309166575544" lon="8.702742690297935"><ele>24.0</ele><time>2026-03-30T11:55:47Z</time></trkpt><trkpt lat="39.69303202605089" lon="8.702580458559986"><ele>24.0</ele><time>2026-03-30T11:55:48Z</time></trkpt><trkpt lat="39.69297181509887" lon="8.702403364059514"><ele>24.0</ele><time>2026-03-30T11:55:49Z</time></trkpt><trkpt lat="39.69290579991644" lon="8.702215026942888"><ele>24.0</ele><time>2026-03-30T11:55:50Z</time></trkpt><trkpt lat="39.69284132444961" lon="8.702032797762085"><ele>24.0</ele><time>2026-03-30T11:55:51Z</time></trkpt><trkpt lat="39.69277040169285" lon="8.701842415856536"><ele>24.0</ele><time>2026-03-30T11:55:52Z</time></trkpt><trkpt lat="39.692699714551004" lon="8.701646032192317"><ele>24.0</ele><time>2026-03-30T11:55:53Z</time></trkpt><trkpt lat="39.6926278454097" lon="8.701446189445688"><ele>23.666666666666668</ele><time>2026-03-30T11:55:54Z</time></trkpt><trkpt lat="39.69255309495246" lon="8.701242277837585"><ele>23.333333333333336</ele><time>2026-03-30T11:55:55Z</time></trkpt><trkpt lat="39.692476880530485" lon="8.7010295875798"><ele>23.0</ele><time>2026-03-30T11:55:56Z</time></trkpt><trkpt lat="39.6923984632431" lon="8.700806975678656"><ele>22.333333333333336</ele><time>2026-03-30T11:55:57Z</time></trkpt><trkpt lat="39.69232194476931" lon="8.700576347918036"><ele>21.666666666666668</ele><time>2026-03-30T11:55:58Z</time></trkpt><trkpt lat="39.69224383245097" lon="8.700344185890108"><ele>21.0</ele><time>2026-03-30T11:55:59Z</time></trkpt><trkpt lat="39.69216490740346" lon="8.700114620250828"><ele>20.666666666666668</ele><time>2026-03-30T11:56:00Z</time></trkpt><trkpt lat="39.69208566160868" lon="8.699886889602816"><ele>20.333333333333336</ele><time>2026-03-30T11:56:01Z</time></trkpt><trkpt lat="39.69200641525674" lon="8.699660299924252"><ele>20.0</ele><time>2026-03-30T11:56:02Z</time></trkpt><trkpt lat="39.69192779170464" lon="8.699437259611264"><ele>21.0</ele><time>2026-03-30T11:56:03Z</time></trkpt><trkpt lat="39.691846678728396" lon="8.699210808851184"><ele>22.0</ele><time>2026-03-30T11:56:04Z</time></trkpt><trkpt lat="39.69176782794914" lon="8.698983477993965"><ele>23.0</ele><time>2026-03-30T11:56:05Z</time></trkpt><trkpt lat="39.691690402062925" lon="8.698754470990464"><ele>22.333333333333336</ele><time>2026-03-30T11:56:06Z</time></trkpt><trkpt lat="39.69161161920989" lon="8.698529838806387"><ele>21.666666666666668</ele><time>2026-03-30T11:56:07Z</time></trkpt><trkpt lat="39.69152938479826" lon="8.698303052358886"><ele>21.0</ele><time>2026-03-30T11:56:08Z</time></trkpt><trkpt lat="39.69144634093671" lon="8.69807793308818"><ele>21.0</ele><time>2026-03-30T11:56:09Z</time></trkpt><trkpt lat="39.691363646689624" lon="8.697850752099349"><ele>21.0</ele><time>2026-03-30T11:56:10Z</time></trkpt><trkpt lat="39.691282797597864" lon="8.697623073092696"><ele>21.0</ele><time>2026-03-30T11:56:11Z</time></trkpt><trkpt lat="39.691200978306675" lon="8.697394101961937"><ele>20.666666666666668</ele><time>2026-03-30T11:56:12Z</time></trkpt><trkpt lat="39.69111504131031" lon="8.697166236906812"><ele>20.333333333333336</ele><time>2026-03-30T11:56:13Z</time></trkpt><trkpt lat="39.691032028196176" lon="8.69693712889489"><ele>20.0</ele><time>2026-03-30T11:56:14Z</time></trkpt><trkpt lat="39.69094727874293" lon="8.696709111810447"><ele>20.333333333333336</ele><time>2026-03-30T11:56:15Z</time></trkpt><trkpt lat="39.69086111040997" lon="8.696478138066253"><ele>20.666666666666668</ele><time>2026-03-30T11:56:16Z</time></trkpt><trkpt lat="39.69077478064502" lon="8.696247354094726"><ele>21.0</ele><time>2026-03-30T11:56:17Z</time></trkpt><trkpt lat="39.69068975465068" lon="8.696014086925297"><ele>21.0</ele><time>2026-03-30T11:56:18Z</time></trkpt><trkpt lat="39.69060494901776" lon="8.695781135836643"><ele>21.0</ele><time>2026-03-30T11:56:19Z</time></trkpt><trkpt lat="39.690527009391886" lon="8.695556740062985"><ele>21.0</ele><time>2026-03-30T11:56:20Z</time></trkpt><trkpt lat="39.69045505655415" lon="8.695335706251388"><ele>20.666666666666668</ele><time>2026-03-30T11:56:21Z</time></trkpt><trkpt lat="39.69037813970916" lon="8.695117553593045"><ele>20.333333333333336</ele><time>2026-03-30T11:56:22Z</time></trkpt><trkpt lat="39.69029956824867" lon="8.694897455656672"><ele>20.0</ele><time>2026-03-30T11:56:23Z</time></trkpt><trkpt lat="39.69021925366828" lon="8.694672431659237"><ele>20.666666666666668</ele><time>2026-03-30T11:56:24Z</time></trkpt><trkpt lat="39.69013902292394" lon="8.694445663854566"><ele>21.333333333333332</ele><time>2026-03-30T11:56:25Z</time></trkpt><trkpt lat="39.690058392826764" lon="8.694214979687192"><ele>22.0</ele><time>2026-03-30T11:56:26Z</time></trkpt><trkpt lat="39.68997637042056" lon="8.693979948508911"><ele>22.0</ele><time>2026-03-30T11:56:27Z</time></trkpt><trkpt lat="39.68989696668068" lon="8.693737902915196"><ele>22.0</ele><time>2026-03-30T11:56:28Z</time></trkpt><trkpt lat="39.68981849184167" lon="8.693493818212376"><ele>22.0</ele><time>2026-03-30T11:56:29Z</time></trkpt><trkpt lat="39.68973357009843" lon="8.693248524483515"><ele>22.333333333333332</ele><time>2026-03-30T11:56:30Z</time></trkpt><trkpt lat="39.68964727603458" lon="8.693003137593658"><ele>22.666666666666668</ele><time>2026-03-30T11:56:31Z</time></trkpt><trkpt lat="39.6895598075188" lon="8.692753407941396"><ele>23.0</ele><time>2026-03-30T11:56:32Z</time></trkpt><trkpt lat="39.689466776781686" lon="8.692508694332048"><ele>23.0</ele><time>2026-03-30T11:56:33Z</time></trkpt><trkpt lat="39.68936270993109" lon="8.692270927148089"><ele>23.0</ele><time>2026-03-30T11:56:34Z</time></trkpt><trkpt lat="39.689243833662744" lon="8.692043041381064"><ele>23.0</ele><time>2026-03-30T11:56:35Z</time></trkpt><trkpt lat="39.68911317148467" lon="8.69182582493391"><ele>22.666666666666668</ele><time>2026-03-30T11:56:36Z</time></trkpt><trkpt lat="39.6889645875749" lon="8.691626917543692"><ele>22.333333333333332</ele><time>2026-03-30T11:56:37Z</time></trkpt><trkpt lat="39.688823450031194" lon="8.691426327715737"><ele>22.0</ele><time>2026-03-30T11:56:38Z</time></trkpt><trkpt lat="39.68868653467417" lon="8.691227227994018"><ele>22.333333333333332</ele><time>2026-03-30T11:56:39Z</time></trkpt><trkpt lat="39.688559303329995" lon="8.691022463376349"><ele>22.666666666666668</ele><time>2026-03-30T11:56:40Z</time></trkpt><trkpt lat="39.68843305062699" lon="8.690815273950099"><ele>23.0</ele><time>2026-03-30T11:56:41Z</time></trkpt><trkpt lat="39.688303557497214" lon="8.690609842339573"><ele>23.0</ele><time>2026-03-30T11:56:42Z</time></trkpt><trkpt lat="39.68817077081169" lon="8.690405922403391"><ele>23.0</ele><time>2026-03-30T11:56:43Z</time></trkpt><trkpt lat="39.68803971234774" lon="8.690206549264605"><ele>23.0</ele><time>2026-03-30T11:56:44Z</time></trkpt><trkpt lat="39.68791167761763" lon="8.690007633670847"><ele>22.666666666666668</ele><time>2026-03-30T11:56:45Z</time></trkpt><trkpt lat="39.68778362998151" lon="8.689803299400264"><ele>22.333333333333332</ele><time>2026-03-30T11:56:46Z</time></trkpt><trkpt lat="39.68765268218234" lon="8.689600342636954"><ele>22.0</ele><time>2026-03-30T11:56:47Z</time></trkpt><trkpt lat="39.68752652142214" lon="8.68938983452508"><ele>22.0</ele><time>2026-03-30T11:56:48Z</time></trkpt><trkpt lat="39.6874150804404" lon="8.689162136823793"><ele>22.0</ele><time>2026-03-30T11:56:49Z</time></trkpt><trkpt lat="39.68732466836436" lon="8.688917792918689"><ele>22.0</ele><time>2026-03-30T11:56:50Z</time></trkpt><trkpt lat="39.687257819712286" lon="8.68865932488959"><ele>21.666666666666664</ele><time>2026-03-30T11:56:51Z</time></trkpt><trkpt lat="39.68721301370741" lon="8.6884023485932"><ele>21.333333333333332</ele><time>2026-03-30T11:56:52Z</time></trkpt><trkpt lat="39.68719011100522" lon="8.688145663713396"><ele>21.0</ele><time>2026-03-30T11:56:53Z</time></trkpt><trkpt lat="39.68718208202073" lon="8.687887206654542"><ele>21.666666666666668</ele><time>2026-03-30T11:56:54Z</time></trkpt><trkpt lat="39.68717662546985" lon="8.687626765517408"><ele>22.333333333333336</ele><time>2026-03-30T11:56:55Z</time></trkpt><trkpt lat="39.68716287167179" lon="8.687371897404791"><ele>23.0</ele><time>2026-03-30T11:56:56Z</time></trkpt><trkpt lat="39.68715405386382" lon="8.687119084724904"><ele>22.333333333333336</ele><time>2026-03-30T11:56:57Z</time></trkpt><trkpt lat="39.68715272488635" lon="8.68686451225215"><ele>21.666666666666668</ele><time>2026-03-30T11:56:58Z</time></trkpt><trkpt lat="39.687151195386896" lon="8.686611183098037"><ele>21.0</ele><time>2026-03-30T11:56:59Z</time></trkpt><trkpt lat="39.68714897031286" lon="8.686359051078725"><ele>21.0</ele><time>2026-03-30T11:57:00Z</time></trkpt><trkpt lat="39.68714409311851" lon="8.686106259751332"><ele>21.0</ele><time>2026-03-30T11:57:01Z</time></trkpt><trkpt lat="39.68714075230015" lon="8.68585054858548"><ele>21.0</ele><time>2026-03-30T11:57:02Z</time></trkpt><trkpt lat="39.68713802919915" lon="8.685590398187845"><ele>20.666666666666668</ele><time>2026-03-30T11:57:03Z</time></trkpt><trkpt lat="39.687134051214024" lon="8.685326962771429"><ele>20.333333333333336</ele><time>2026-03-30T11:57:04Z</time></trkpt><trkpt lat="39.68712658789629" lon="8.685061118111006"><ele>20.0</ele><time>2026-03-30T11:57:05Z</time></trkpt><trkpt lat="39.6871181113252" lon="8.684792552903705"><ele>20.0</ele><time>2026-03-30T11:57:06Z</time></trkpt><trkpt lat="39.687110866189634" lon="8.684519529420072"><ele>20.0</ele><time>2026-03-30T11:57:07Z</time></trkpt><trkpt lat="39.68710258858745" lon="8.684245819030519"><ele>20.0</ele><time>2026-03-30T11:57:08Z</time></trkpt><trkpt lat="39.68709238260342" lon="8.683971311411543"><ele>20.333333333333336</ele><time>2026-03-30T11:57:09Z</time></trkpt><trkpt lat="39.68708490762977" lon="8.683701197337266"><ele>20.666666666666668</ele><time>2026-03-30T11:57:10Z</time></trkpt><trkpt lat="39.68707944020932" lon="8.683431711093368"><ele>21.0</ele><time>2026-03-30T11:57:11Z</time></trkpt><trkpt lat="39.68707618277117" lon="8.683161751893628"><ele>21.0</ele><time>2026-03-30T11:57:12Z</time></trkpt><trkpt lat="39.687073215890614" lon="8.682893625308768"><ele>21.0</ele><time>2026-03-30T11:57:13Z</time></trkpt><trkpt lat="39.687069920111576" lon="8.682626652805144"><ele>21.0</ele><time>2026-03-30T11:57:14Z</time></trkpt><trkpt lat="39.68706477662527" lon="8.682358465855675"><ele>21.0</ele><time>2026-03-30T11:57:15Z</time></trkpt><trkpt lat="39.68705905729979" lon="8.682087291920089"><ele>21.0</ele><time>2026-03-30T11:57:16Z</time></trkpt><trkpt lat="39.68705435328267" lon="8.681820855255426"><ele>21.0</ele><time>2026-03-30T11:57:17Z</time></trkpt><trkpt lat="39.68704939302565" lon="8.681558690262746"><ele>20.666666666666668</ele><time>2026-03-30T11:57:18Z</time></trkpt><trkpt lat="39.68704307116071" lon="8.68129933429609"><ele>20.333333333333336</ele><time>2026-03-30T11:57:19Z</time></trkpt><trkpt lat="39.68703616877916" lon="8.681037466438196"><ele>20.0</ele><time>2026-03-30T11:57:20Z</time></trkpt><trkpt lat="39.68702827259855" lon="8.680773834369015"><ele>20.0</ele><time>2026-03-30T11:57:21Z</time></trkpt><trkpt lat="39.687018696951384" lon="8.680508538200689"><ele>20.0</ele><time>2026-03-30T11:57:22Z</time></trkpt><trkpt lat="39.687010021417336" lon="8.680241061600242"><ele>20.0</ele><time>2026-03-30T11:57:23Z</time></trkpt><trkpt lat="39.68700240997812" lon="8.679975038996556"><ele>20.0</ele><time>2026-03-30T11:57:24Z</time></trkpt><trkpt lat="39.68699387675509" lon="8.67971282321933"><ele>20.0</ele><time>2026-03-30T11:57:25Z</time></trkpt><trkpt lat="39.68698825570683" lon="8.679451214808818"><ele>20.0</ele><time>2026-03-30T11:57:26Z</time></trkpt><trkpt lat="39.68698480935003" lon="8.679186946146093"><ele>20.333333333333336</ele><time>2026-03-30T11:57:27Z</time></trkpt><trkpt lat="39.68698141670638" lon="8.67891552373193"><ele>20.666666666666668</ele><time>2026-03-30T11:57:28Z</time></trkpt><trkpt lat="39.68697840072377" lon="8.678650464470596"><ele>21.0</ele><time>2026-03-30T11:57:29Z</time></trkpt><trkpt lat="39.68697476809935" lon="8.678384234773969"><ele>21.333333333333332</ele><time>2026-03-30T11:57:30Z</time></trkpt><trkpt lat="39.686965006116516" lon="8.67811999462177"><ele>21.666666666666664</ele><time>2026-03-30T11:57:31Z</time></trkpt><trkpt lat="39.686953812053645" lon="8.67785885683076"><ele>22.0</ele><time>2026-03-30T11:57:32Z</time></trkpt><trkpt lat="39.686943434649734" lon="8.677601642666747"><ele>22.0</ele><time>2026-03-30T11:57:33Z</time></trkpt><trkpt lat="39.68693542863423" lon="8.677346360944068"><ele>22.0</ele><time>2026-03-30T11:57:34Z</time></trkpt><trkpt lat="39.68692847659642" lon="8.67709235408026"><ele>22.0</ele><time>2026-03-30T11:57:35Z</time></trkpt><trkpt lat="39.68692500396351" lon="8.676836851389522"><ele>22.0</ele><time>2026-03-30T11:57:36Z</time></trkpt><trkpt lat="39.68692365060219" lon="8.676577649286115"><ele>22.0</ele><time>2026-03-30T11:57:37Z</time></trkpt><trkpt lat="39.686921235188045" lon="8.676318175419656"><ele>22.0</ele><time>2026-03-30T11:57:38Z</time></trkpt><trkpt lat="39.6869170898672" lon="8.676052654151837"><ele>22.333333333333332</ele><time>2026-03-30T11:57:39Z</time></trkpt><trkpt lat="39.686913581876986" lon="8.675788391970404"><ele>22.666666666666668</ele><time>2026-03-30T11:57:40Z</time></trkpt><trkpt lat="39.686907613032986" lon="8.675522918871382"><ele>23.0</ele><time>2026-03-30T11:57:41Z</time></trkpt><trkpt lat="39.686902679634535" lon="8.675256669969674"><ele>23.0</ele><time>2026-03-30T11:57:42Z</time></trkpt><trkpt lat="39.686896229768394" lon="8.674989375722186"><ele>23.0</ele><time>2026-03-30T11:57:43Z</time></trkpt><trkpt lat="39.68688921109385" lon="8.674725700164537"><ele>23.0</ele><time>2026-03-30T11:57:44Z</time></trkpt><trkpt lat="39.68688423360444" lon="8.674462050138546"><ele>22.333333333333336</ele><time>2026-03-30T11:57:45Z</time></trkpt><trkpt lat="39.68687819306225" lon="8.674197903510816"><ele>21.666666666666668</ele><time>2026-03-30T11:57:46Z</time></trkpt><trkpt lat="39.6868728285046" lon="8.673933760807234"><ele>21.0</ele><time>2026-03-30T11:57:47Z</time></trkpt><trkpt lat="39.68686861477674" lon="8.673666107133256"><ele>20.666666666666668</ele><time>2026-03-30T11:57:48Z</time></trkpt><trkpt lat="39.68686355142258" lon="8.673397638795393"><ele>20.333333333333336</ele><time>2026-03-30T11:57:49Z</time></trkpt><trkpt lat="39.68686004034471" lon="8.673125832727926"><ele>20.0</ele><time>2026-03-30T11:57:50Z</time></trkpt><trkpt lat="39.68685479055929" lon="8.672850415294286"><ele>20.0</ele><time>2026-03-30T11:57:51Z</time></trkpt><trkpt lat="39.68684809584279" lon="8.672574421928942"><ele>20.0</ele><time>2026-03-30T11:57:52Z</time></trkpt><trkpt lat="39.68683993304609" lon="8.672300344694088"><ele>20.0</ele><time>2026-03-30T11:57:53Z</time></trkpt><trkpt lat="39.68683416230022" lon="8.672018956672437"><ele>20.0</ele><time>2026-03-30T11:57:54Z</time></trkpt><trkpt lat="39.68682944248928" lon="8.671735838147159"><ele>20.0</ele><time>2026-03-30T11:57:55Z</time></trkpt><trkpt lat="39.68682244943471" lon="8.671451651614065"><ele>20.0</ele><time>2026-03-30T11:57:56Z</time></trkpt><trkpt lat="39.686814170355746" lon="8.67116624758607"><ele>20.666666666666668</ele><time>2026-03-30T11:57:57Z</time></trkpt><trkpt lat="39.686806458921765" lon="8.670878939638037"><ele>21.333333333333332</ele><time>2026-03-30T11:57:58Z</time></trkpt><trkpt lat="39.68679852354179" lon="8.670593127146502"><ele>22.0</ele><time>2026-03-30T11:57:59Z</time></trkpt><trkpt lat="39.686790730841516" lon="8.67030688776485"><ele>21.0</ele><time>2026-03-30T11:58:00Z</time></trkpt><trkpt lat="39.686782607864394" lon="8.67001052006857"><ele>20.0</ele><time>2026-03-30T11:58:01Z</time></trkpt><trkpt lat="39.68677659221204" lon="8.669708959704833"><ele>19.5</ele><time>2026-03-30T11:58:02Z</time></trkpt><trkpt lat="39.68677243484809" lon="8.669412034499322"><ele>19.0</ele><time>2026-03-30T11:58:03Z</time></trkpt><trkpt lat="39.68676748907955" lon="8.669118319612572"><ele>19.0</ele><time>2026-03-30T11:58:04Z</time></trkpt><trkpt lat="39.68676317840713" lon="8.668831411596429"><ele>19.0</ele><time>2026-03-30T11:58:05Z</time></trkpt><trkpt lat="39.686761108225625" lon="8.668545429136314"><ele>19.0</ele><time>2026-03-30T11:58:06Z</time></trkpt><trkpt lat="39.68675795502097" lon="8.668260933338088"><ele>19.0</ele><time>2026-03-30T11:58:07Z</time></trkpt><trkpt lat="39.68675081143492" lon="8.667975408773867"><ele>19.0</ele><time>2026-03-30T11:58:08Z</time></trkpt><trkpt lat="39.68674367860824" lon="8.667692542653542"><ele>19.0</ele><time>2026-03-30T11:58:09Z</time></trkpt><trkpt lat="39.686740630649496" lon="8.667410686263716"><ele>19.0</ele><time>2026-03-30T11:58:10Z</time></trkpt><trkpt lat="39.68673619569089" lon="8.667124288680968"><ele>19.0</ele><time>2026-03-30T11:58:11Z</time></trkpt><trkpt lat="39.68672925438305" lon="8.666839161924926"><ele>19.0</ele><time>2026-03-30T11:58:12Z</time></trkpt><trkpt lat="39.68672100297794" lon="8.666556289427378"><ele>18.666666666666664</ele><time>2026-03-30T11:58:13Z</time></trkpt><trkpt lat="39.686713333269" lon="8.666272028436595"><ele>18.333333333333332</ele><time>2026-03-30T11:58:14Z</time></trkpt><trkpt lat="39.68670608458026" lon="8.665990337852708"><ele>18.0</ele><time>2026-03-30T11:58:15Z</time></trkpt><trkpt lat="39.68670041003812" lon="8.665706622422208"><ele>18.0</ele><time>2026-03-30T11:58:16Z</time></trkpt><trkpt lat="39.68669291936352" lon="8.665430567360037"><ele>18.0</ele><time>2026-03-30T11:58:17Z</time></trkpt><trkpt lat="39.686685386741125" lon="8.665161815428439"><ele>18.0</ele><time>2026-03-30T11:58:18Z</time></trkpt><trkpt lat="39.68667821231402" lon="8.664894512672078"><ele>18.0</ele><time>2026-03-30T11:58:19Z</time></trkpt><trkpt lat="39.68667180544488" lon="8.66462832581015"><ele>18.0</ele><time>2026-03-30T11:58:20Z</time></trkpt><trkpt lat="39.686666961405635" lon="8.664364420216806"><ele>18.0</ele><time>2026-03-30T11:58:21Z</time></trkpt><trkpt lat="39.68666311514125" lon="8.664108097304712"><ele>18.0</ele><time>2026-03-30T11:58:22Z</time></trkpt><trkpt lat="39.686658469450094" lon="8.663856320258104"><ele>18.0</ele><time>2026-03-30T11:58:23Z</time></trkpt><trkpt lat="39.68665574265979" lon="8.663603353418356"><ele>18.0</ele><time>2026-03-30T11:58:24Z</time></trkpt><trkpt lat="39.68665060098122" lon="8.663348754631214"><ele>18.0</ele><time>2026-03-30T11:58:25Z</time></trkpt><trkpt lat="39.686645982959455" lon="8.663092594044024"><ele>18.0</ele><time>2026-03-30T11:58:26Z</time></trkpt><trkpt lat="39.68664234913898" lon="8.662837658897137"><ele>18.0</ele><time>2026-03-30T11:58:27Z</time></trkpt><trkpt lat="39.68663863209252" lon="8.662583264524356"><ele>18.0</ele><time>2026-03-30T11:58:28Z</time></trkpt><trkpt lat="39.68663180886776" lon="8.662330329858154"><ele>18.0</ele><time>2026-03-30T11:58:29Z</time></trkpt><trkpt lat="39.68662630031107" lon="8.662073877459022"><ele>18.0</ele><time>2026-03-30T11:58:30Z</time></trkpt><trkpt lat="39.686622584035916" lon="8.661823175752303"><ele>18.0</ele><time>2026-03-30T11:58:31Z</time></trkpt><trkpt lat="39.68661872649936" lon="8.66158280965696"><ele>18.0</ele><time>2026-03-30T11:58:32Z</time></trkpt><trkpt lat="39.686613410035214" lon="8.66135026277904"><ele>18.0</ele><time>2026-03-30T11:58:33Z</time></trkpt><trkpt lat="39.6866091535929" lon="8.661115749278343"><ele>18.333333333333332</ele><time>2026-03-30T11:58:34Z</time></trkpt><trkpt lat="39.6866058253896" lon="8.660877868479014"><ele>18.666666666666664</ele><time>2026-03-30T11:58:35Z</time></trkpt><trkpt lat="39.686601460838155" lon="8.66063599664083"><ele>19.0</ele><time>2026-03-30T11:58:36Z</time></trkpt><trkpt lat="39.68659525407344" lon="8.660391703750268"><ele>18.666666666666664</ele><time>2026-03-30T11:58:37Z</time></trkpt><trkpt lat="39.686590232783495" lon="8.660144004467666"><ele>18.333333333333332</ele><time>2026-03-30T11:58:38Z</time></trkpt><trkpt lat="39.68658521430877" lon="8.659896810300674"><ele>18.0</ele><time>2026-03-30T11:58:39Z</time></trkpt><trkpt lat="39.68658251149423" lon="8.659646985300816"><ele>17.0</ele><time>2026-03-30T11:58:40Z</time></trkpt><trkpt lat="39.686577929091776" lon="8.65939638005702"><ele>16.0</ele><time>2026-03-30T11:58:41Z</time></trkpt><trkpt lat="39.686570876574784" lon="8.659145520217933"><ele>15.0</ele><time>2026-03-30T11:58:42Z</time></trkpt><trkpt lat="39.686565259784274" lon="8.658894930056823"><ele>15.0</ele><time>2026-03-30T11:58:43Z</time></trkpt><trkpt lat="39.68656055414334" lon="8.658642817040741"><ele>15.0</ele><time>2026-03-30T11:58:44Z</time></trkpt><trkpt lat="39.68655412679567" lon="8.658391334576619"><ele>15.0</ele><time>2026-03-30T11:58:45Z</time></trkpt><trkpt lat="39.68654833193834" lon="8.658139920651683"><ele>15.333333333333332</ele><time>2026-03-30T11:58:46Z</time></trkpt><trkpt lat="39.68654398867659" lon="8.657886516340376"><ele>15.666666666666666</ele><time>2026-03-30T11:58:47Z</time></trkpt><trkpt lat="39.68653886031012" lon="8.657632666905789"><ele>16.0</ele><time>2026-03-30T11:58:48Z</time></trkpt><trkpt lat="39.68653593831569" lon="8.657379781138088"><ele>16.666666666666664</ele><time>2026-03-30T11:58:49Z</time></trkpt><trkpt lat="39.68653211469704" lon="8.657125812010724"><ele>17.333333333333332</ele><time>2026-03-30T11:58:50Z</time></trkpt><trkpt lat="39.68652768037441" lon="8.65687126834368"><ele>18.0</ele><time>2026-03-30T11:58:51Z</time></trkpt><trkpt lat="39.68652219840524" lon="8.656618509341248"><ele>18.0</ele><time>2026-03-30T11:58:52Z</time></trkpt><trkpt lat="39.68651771635221" lon="8.656365522798925"><ele>18.0</ele><time>2026-03-30T11:58:53Z</time></trkpt><trkpt lat="39.68651421969138" lon="8.656111724940455"><ele>18.0</ele><time>2026-03-30T11:58:54Z</time></trkpt><trkpt lat="39.686508942398625" lon="8.655858318198744"><ele>18.333333333333332</ele><time>2026-03-30T11:58:55Z</time></trkpt><trkpt lat="39.68650264803098" lon="8.655602914035242"><ele>18.666666666666664</ele><time>2026-03-30T11:58:56Z</time></trkpt><trkpt lat="39.68649557524347" lon="8.655350131592225"><ele>19.0</ele><time>2026-03-30T11:58:57Z</time></trkpt><trkpt lat="39.68648696627867" lon="8.655098248652243"><ele>19.0</ele><time>2026-03-30T11:58:58Z</time></trkpt><trkpt lat="39.68648297075693" lon="8.654845994028225"><ele>19.0</ele><time>2026-03-30T11:58:59Z</time></trkpt><trkpt lat="39.686477881220625" lon="8.654605743017656"><ele>19.0</ele><time>2026-03-30T11:59:00Z</time></trkpt><trkpt lat="39.68647533106412" lon="8.654373516794864"><ele>18.666666666666664</ele><time>2026-03-30T11:59:01Z</time></trkpt><trkpt lat="39.68647324417113" lon="8.654145214760915"><ele>18.333333333333332</ele><time>2026-03-30T11:59:02Z</time></trkpt><trkpt lat="39.68647089973421" lon="8.65391899300207"><ele>18.0</ele><time>2026-03-30T11:59:03Z</time></trkpt><trkpt lat="39.686464984612876" lon="8.653697116752628"><ele>18.0</ele><time>2026-03-30T11:59:04Z</time></trkpt><trkpt lat="39.68646120037246" lon="8.653483332818455"><ele>18.0</ele><time>2026-03-30T11:59:05Z</time></trkpt><trkpt lat="39.686459732490164" lon="8.653271677284925"><ele>18.0</ele><time>2026-03-30T11:59:06Z</time></trkpt><trkpt lat="39.686459584234704" lon="8.65307179884381"><ele>18.0</ele><time>2026-03-30T11:59:07Z</time></trkpt><trkpt lat="39.68645411476348" lon="8.652860471911625"><ele>18.0</ele><time>2026-03-30T11:59:08Z</time></trkpt><trkpt lat="39.68644473757038" lon="8.65264609630092"><ele>18.0</ele><time>2026-03-30T11:59:09Z</time></trkpt><trkpt lat="39.686439567563696" lon="8.652420844836938"><ele>18.0</ele><time>2026-03-30T11:59:10Z</time></trkpt><trkpt lat="39.6864375007069" lon="8.652192765638441"><ele>18.0</ele><time>2026-03-30T11:59:11Z</time></trkpt><trkpt lat="39.686435409705666" lon="8.65196448664719"><ele>18.0</ele><time>2026-03-30T11:59:12Z</time></trkpt><trkpt lat="39.68643200706683" lon="8.651731959984705"><ele>18.333333333333332</ele><time>2026-03-30T11:59:13Z</time></trkpt><trkpt lat="39.686426913264306" lon="8.651496096079619"><ele>18.666666666666664</ele><time>2026-03-30T11:59:14Z</time></trkpt><trkpt lat="39.686419642223754" lon="8.65125547403581"><ele>19.0</ele><time>2026-03-30T11:59:15Z</time></trkpt><trkpt lat="39.686413467370855" lon="8.651013106983262"><ele>18.333333333333332</ele><time>2026-03-30T11:59:16Z</time></trkpt><trkpt lat="39.68641235615055" lon="8.650770141857901"><ele>17.666666666666668</ele><time>2026-03-30T11:59:17Z</time></trkpt><trkpt lat="39.68641092906367" lon="8.650528536100094"><ele>17.0</ele><time>2026-03-30T11:59:18Z</time></trkpt><trkpt lat="39.68641097627522" lon="8.65029171959555"><ele>17.666666666666668</ele><time>2026-03-30T11:59:19Z</time></trkpt><trkpt lat="39.68641006649115" lon="8.650068124575613"><ele>18.333333333333332</ele><time>2026-03-30T11:59:20Z</time></trkpt><trkpt lat="39.68640502579281" lon="8.649862118300106"><ele>19.0</ele><time>2026-03-30T11:59:21Z</time></trkpt><trkpt lat="39.68639660282566" lon="8.649668266089398"><ele>19.0</ele><time>2026-03-30T11:59:22Z</time></trkpt><trkpt lat="39.686389757560605" lon="8.6494933288601"><ele>19.0</ele><time>2026-03-30T11:59:23Z</time></trkpt><trkpt lat="39.686377234188896" lon="8.649347355280401"><ele>19.0</ele><time>2026-03-30T11:59:24Z</time></trkpt><trkpt lat="39.686376867409464" lon="8.649220083140012"><ele>19.0</ele><time>2026-03-30T11:59:25Z</time></trkpt><trkpt lat="39.68640444052051" lon="8.649100242216779"><ele>19.0</ele><time>2026-03-30T11:59:26Z</time></trkpt><trkpt lat="39.68643768313317" lon="8.649005036896536"><ele>18.833333333333332</ele><time>2026-03-30T11:59:27Z</time></trkpt><trkpt lat="39.68643017993684" lon="8.648921923473875"><ele>18.666666666666664</ele><time>2026-03-30T11:59:28Z</time></trkpt><trkpt lat="39.686384840384534" lon="8.648855017724479"><ele>18.5</ele><time>2026-03-30T11:59:29Z</time></trkpt><trkpt lat="39.68631833272018" lon="8.648833858697076"><ele>18.333333333333332</ele><time>2026-03-30T11:59:30Z</time></trkpt><trkpt lat="39.686197252743945" lon="8.648778540394424"><ele>18.166666666666668</ele><time>2026-03-30T11:59:32Z</time></trkpt><trkpt lat="39.686152827531046" lon="8.648682032325542"><ele>18.0</ele><time>2026-03-30T11:59:33Z</time></trkpt><trkpt lat="39.68610168146036" lon="8.648570601798557"><ele>17.25</ele><time>2026-03-30T11:59:34Z</time></trkpt><trkpt lat="39.68602170198143" lon="8.64845438853032"><ele>16.5</ele><time>2026-03-30T11:59:35Z</time></trkpt><trkpt lat="39.6859456110554" lon="8.6483464764087"><ele>15.75</ele><time>2026-03-30T11:59:36Z</time></trkpt><trkpt lat="39.685876875461986" lon="8.64822702249566"><ele>15.0</ele><time>2026-03-30T11:59:37Z</time></trkpt><trkpt lat="39.685803136800494" lon="8.648102168457031"><ele>15.0</ele><time>2026-03-30T11:59:38Z</time></trkpt><trkpt lat="39.685730471016306" lon="8.647988204780834"><ele>15.0</ele><time>2026-03-30T11:59:39Z</time></trkpt><trkpt lat="39.685662391614976" lon="8.647880204379444"><ele>15.0</ele><time>2026-03-30T11:59:40Z</time></trkpt><trkpt lat="39.685593963928255" lon="8.647775200687507"><ele>15.0</ele><time>2026-03-30T11:59:41Z</time></trkpt><trkpt lat="39.685529369345794" lon="8.647671418174141"><ele>15.0</ele><time>2026-03-30T11:59:42Z</time></trkpt><trkpt lat="39.68546293442486" lon="8.647566932946983"><ele>15.0</ele><time>2026-03-30T11:59:43Z</time></trkpt><trkpt lat="39.68539270429516" lon="8.647459249392567"><ele>15.0</ele><time>2026-03-30T11:59:44Z</time></trkpt><trkpt lat="39.685326319646265" lon="8.647344400431223"><ele>15.0</ele><time>2026-03-30T11:59:45Z</time></trkpt><trkpt lat="39.68525916815509" lon="8.647219011158606"><ele>15.0</ele><time>2026-03-30T11:59:46Z</time></trkpt><trkpt lat="39.685199470906966" lon="8.64710293021589"><ele>15.0</ele><time>2026-03-30T11:59:47Z</time></trkpt><trkpt lat="39.685136877314584" lon="8.646997319845012"><ele>15.0</ele><time>2026-03-30T11:59:48Z</time></trkpt><trkpt lat="39.68507179740636" lon="8.646900532979599"><ele>15.0</ele><time>2026-03-30T11:59:49Z</time></trkpt><trkpt lat="39.685003634432654" lon="8.646798743872662"><ele>15.0</ele><time>2026-03-30T11:59:50Z</time></trkpt><trkpt lat="39.684940158727755" lon="8.646705456639912"><ele>15.0</ele><time>2026-03-30T11:59:51Z</time></trkpt><trkpt lat="39.68488296024302" lon="8.646609071424907"><ele>15.0</ele><time>2026-03-30T11:59:52Z</time></trkpt><trkpt lat="39.68483299648373" lon="8.646517354737824"><ele>15.0</ele><time>2026-03-30T11:59:53Z</time></trkpt><trkpt lat="39.684789309599296" lon="8.646425480109823"><ele>15.0</ele><time>2026-03-30T11:59:54Z</time></trkpt><trkpt lat="39.68475011074781" lon="8.646339998117128"><ele>15.0</ele><time>2026-03-30T11:59:55Z</time></trkpt><trkpt lat="39.684710791911456" lon="8.6462660840898"><ele>15.0</ele><time>2026-03-30T11:59:56Z</time></trkpt><trkpt lat="39.68466820486611" lon="8.646205775524521"><ele>15.0</ele><time>2026-03-30T11:59:57Z</time></trkpt><trkpt lat="39.684583679702264" lon="8.646102387000026"><ele>15.0</ele><time>2026-03-30T11:59:59Z</time></trkpt><trkpt lat="39.68451549988376" lon="8.646045998541188"><ele>14.8</ele><time>2026-03-30T12:00:01Z</time></trkpt><trkpt lat="39.684458217042696" lon="8.64598229303121"><ele>14.6</ele><time>2026-03-30T12:00:04Z</time></trkpt><trkpt lat="39.68440054602452" lon="8.645908985880277"><ele>14.399999999999999</ele><time>2026-03-30T12:00:07Z</time></trkpt><trkpt lat="39.684338785090205" lon="8.645826572458954"><ele>14.2</ele><time>2026-03-30T12:00:09Z</time></trkpt><trkpt lat="39.68427560610031" lon="8.645749401823574"><ele>14.0</ele><time>2026-03-30T12:00:11Z</time></trkpt><trkpt lat="39.68415929814441" lon="8.645879029623115"><ele>14.0</ele><time>2026-03-30T12:00:13Z</time></trkpt><trkpt lat="39.684134168666766" lon="8.645964990170153"><ele>13.999999999999998</ele><time>2026-03-30T12:00:14Z</time></trkpt><trkpt lat="39.68410275242073" lon="8.646053445848038"><ele>13.999999999999998</ele><time>2026-03-30T12:00:15Z</time></trkpt><trkpt lat="39.684019489029396" lon="8.646270823748528"><ele>14.0</ele><time>2026-03-30T12:00:17Z</time></trkpt><trkpt lat="39.68397046899815" lon="8.64638514753807"><ele>14.0</ele><time>2026-03-30T12:00:18Z</time></trkpt><trkpt lat="39.68389999863177" lon="8.64649471157521"><ele>14.5</ele><time>2026-03-30T12:00:19Z</time></trkpt><trkpt lat="39.68380537490277" lon="8.646589089978695"><ele>15.0</ele><time>2026-03-30T12:00:20Z</time></trkpt><trkpt lat="39.683713419622286" lon="8.646671514588274"><ele>15.5</ele><time>2026-03-30T12:00:21Z</time></trkpt><trkpt lat="39.683627459429644" lon="8.646759367332221"><ele>16.0</ele><time>2026-03-30T12:00:22Z</time></trkpt><trkpt lat="39.68353662613197" lon="8.646846843507051"><ele>16.0</ele><time>2026-03-30T12:00:23Z</time></trkpt><trkpt lat="39.68344639322037" lon="8.646939616326344"><ele>16.0</ele><time>2026-03-30T12:00:24Z</time></trkpt><trkpt lat="39.68335011253742" lon="8.647037294570206"><ele>16.0</ele><time>2026-03-30T12:00:25Z</time></trkpt><trkpt lat="39.68325705514779" lon="8.647129862777454"><ele>16.0</ele><time>2026-03-30T12:00:26Z</time></trkpt><trkpt lat="39.683171351524486" lon="8.647218286937338"><ele>16.2</ele><time>2026-03-30T12:00:27Z</time></trkpt><trkpt lat="39.68308970706215" lon="8.647300916657539"><ele>16.400000000000002</ele><time>2026-03-30T12:00:28Z</time></trkpt><trkpt lat="39.68301111093332" lon="8.647379241311508"><ele>16.6</ele><time>2026-03-30T12:00:29Z</time></trkpt><trkpt lat="39.68293533170503" lon="8.647462062016668"><ele>16.8</ele><time>2026-03-30T12:00:30Z</time></trkpt><trkpt lat="39.6828551077621" lon="8.64755838935958"><ele>17.0</ele><time>2026-03-30T12:00:31Z</time></trkpt><trkpt lat="39.68276960400678" lon="8.647651502576357"><ele>16.75</ele><time>2026-03-30T12:00:32Z</time></trkpt><trkpt lat="39.68267842346405" lon="8.647740507972308"><ele>16.5</ele><time>2026-03-30T12:00:33Z</time></trkpt><trkpt lat="39.682583804557396" lon="8.64783166080569"><ele>16.25</ele><time>2026-03-30T12:00:34Z</time></trkpt><trkpt lat="39.682485093635066" lon="8.647926625439803"><ele>16.0</ele><time>2026-03-30T12:00:35Z</time></trkpt><trkpt lat="39.6823843404161" lon="8.648022564828178"><ele>16.0</ele><time>2026-03-30T12:00:36Z</time></trkpt><trkpt lat="39.68228104503346" lon="8.648122843889244"><ele>16.0</ele><time>2026-03-30T12:00:37Z</time></trkpt><trkpt lat="39.6821764762591" lon="8.648222987324717"><ele>16.0</ele><time>2026-03-30T12:00:38Z</time></trkpt><trkpt lat="39.68207071395248" lon="8.648327797359997"><ele>16.0</ele><time>2026-03-30T12:00:39Z</time></trkpt><trkpt lat="39.68196114599561" lon="8.648432640739305"><ele>16.0</ele><time>2026-03-30T12:00:40Z</time></trkpt><trkpt lat="39.681848936819065" lon="8.6485373103061"><ele>16.0</ele><time>2026-03-30T12:00:41Z</time></trkpt><trkpt lat="39.68173827483979" lon="8.648651587841934"><ele>16.0</ele><time>2026-03-30T12:00:42Z</time></trkpt><trkpt lat="39.68162770124907" lon="8.64877322355319"><ele>16.0</ele><time>2026-03-30T12:00:43Z</time></trkpt><trkpt lat="39.68151699608482" lon="8.648893380941542"><ele>16.0</ele><time>2026-03-30T12:00:44Z</time></trkpt><trkpt lat="39.68140494806345" lon="8.64901929620471"><ele>16.0</ele><time>2026-03-30T12:00:45Z</time></trkpt><trkpt lat="39.68128526903534" lon="8.649143028635796"><ele>16.0</ele><time>2026-03-30T12:00:46Z</time></trkpt><trkpt lat="39.68116099596335" lon="8.649266400679492"><ele>16.0</ele><time>2026-03-30T12:00:47Z</time></trkpt><trkpt lat="39.68103532419689" lon="8.649394734047371"><ele>16.0</ele><time>2026-03-30T12:00:48Z</time></trkpt><trkpt lat="39.68090868626355" lon="8.649525562952247"><ele>16.0</ele><time>2026-03-30T12:00:49Z</time></trkpt><trkpt lat="39.68078102526233" lon="8.649651378900984"><ele>16.0</ele><time>2026-03-30T12:00:50Z</time></trkpt><trkpt lat="39.68065389408695" lon="8.649779603174474"><ele>16.0</ele><time>2026-03-30T12:00:51Z</time></trkpt><trkpt lat="39.680525609673474" lon="8.649908722923781"><ele>16.0</ele><time>2026-03-30T12:00:52Z</time></trkpt><trkpt lat="39.680396440513455" lon="8.65003844030213"><ele>16.0</ele><time>2026-03-30T12:00:53Z</time></trkpt><trkpt lat="39.68026717967167" lon="8.6501683081475"><ele>16.0</ele><time>2026-03-30T12:00:54Z</time></trkpt><trkpt lat="39.68013844397923" lon="8.65029400791311"><ele>16.0</ele><time>2026-03-30T12:00:55Z</time></trkpt><trkpt lat="39.680018292743625" lon="8.650411714334028"><ele>16.0</ele><time>2026-03-30T12:00:56Z</time></trkpt><trkpt lat="39.67989715075994" lon="8.650517024048291"><ele>16.0</ele><time>2026-03-30T12:00:57Z</time></trkpt><trkpt lat="39.67977430407237" lon="8.650608562091715"><ele>16.0</ele><time>2026-03-30T12:00:58Z</time></trkpt><trkpt lat="39.679653876939476" lon="8.650683570385082"><ele>16.0</ele><time>2026-03-30T12:00:59Z</time></trkpt><trkpt lat="39.679535184911416" lon="8.650752576736616"><ele>15.600000000000001</ele><time>2026-03-30T12:01:00Z</time></trkpt><trkpt lat="39.67942038605334" lon="8.650813906682796"><ele>15.200000000000001</ele><time>2026-03-30T12:01:01Z</time></trkpt><trkpt lat="39.679312164375816" lon="8.650861785901036"><ele>14.799999999999999</ele><time>2026-03-30T12:01:02Z</time></trkpt><trkpt lat="39.67921263232185" lon="8.650875433578072"><ele>14.399999999999999</ele><time>2026-03-30T12:01:03Z</time></trkpt><trkpt lat="39.679120031477474" lon="8.650847867957129"><ele>14.0</ele><time>2026-03-30T12:01:04Z</time></trkpt><trkpt lat="39.67901884951641" lon="8.650851613950076"><ele>14.0</ele><time>2026-03-30T12:01:05Z</time></trkpt><trkpt lat="39.678923437109106" lon="8.650928294216897"><ele>14.0</ele><time>2026-03-30T12:01:06Z</time></trkpt><trkpt lat="39.678844761388774" lon="8.651022844464281"><ele>14.0</ele><time>2026-03-30T12:01:07Z</time></trkpt><trkpt lat="39.67873518168178" lon="8.651083264112089"><ele>14.0</ele><time>2026-03-30T12:01:08Z</time></trkpt><trkpt lat="39.67860438984246" lon="8.65110086784964"><ele>14.333333333333334</ele><time>2026-03-30T12:01:09Z</time></trkpt><trkpt lat="39.6784560633792" lon="8.651104264602067"><ele>14.666666666666668</ele><time>2026-03-30T12:01:10Z</time></trkpt><trkpt lat="39.67829713111313" lon="8.651116790030688"><ele>15.0</ele><time>2026-03-30T12:01:11Z</time></trkpt><trkpt lat="39.67813195775729" lon="8.65113878883994"><ele>15.0</ele><time>2026-03-30T12:01:12Z</time></trkpt><trkpt lat="39.67795479918142" lon="8.651159075014649"><ele>15.0</ele><time>2026-03-30T12:01:13Z</time></trkpt><trkpt lat="39.677778285185425" lon="8.651175308723529"><ele>15.0</ele><time>2026-03-30T12:01:14Z</time></trkpt><trkpt lat="39.677593802039574" lon="8.65119500683736"><ele>14.666666666666668</ele><time>2026-03-30T12:01:15Z</time></trkpt><trkpt lat="39.67740892860039" lon="8.651213602149026"><ele>14.333333333333334</ele><time>2026-03-30T12:01:16Z</time></trkpt><trkpt lat="39.67722218747902" lon="8.65123179898726"><ele>14.0</ele><time>2026-03-30T12:01:17Z</time></trkpt><trkpt lat="39.67703609004452" lon="8.651251376222305"><ele>14.0</ele><time>2026-03-30T12:01:18Z</time></trkpt><trkpt lat="39.67685061645675" lon="8.651271339043362"><ele>14.0</ele><time>2026-03-30T12:01:19Z</time></trkpt><trkpt lat="39.67666460825026" lon="8.651290880781685"><ele>14.0</ele><time>2026-03-30T12:01:20Z</time></trkpt><trkpt lat="39.67647872488461" lon="8.651311401684639"><ele>14.0</ele><time>2026-03-30T12:01:21Z</time></trkpt><trkpt lat="39.676292129441656" lon="8.651333541945526"><ele>14.0</ele><time>2026-03-30T12:01:22Z</time></trkpt><trkpt lat="39.67610557789033" lon="8.651353449288704"><ele>14.0</ele><time>2026-03-30T12:01:23Z</time></trkpt><trkpt lat="39.675917220496736" lon="8.651372303760665"><ele>13.333333333333334</ele><time>2026-03-30T12:01:24Z</time></trkpt><trkpt lat="39.675728799102984" lon="8.65139385376965"><ele>12.666666666666668</ele><time>2026-03-30T12:01:25Z</time></trkpt><trkpt lat="39.67553855274648" lon="8.651420747681811"><ele>12.0</ele><time>2026-03-30T12:01:26Z</time></trkpt><trkpt lat="39.67534619296165" lon="8.651446160495638"><ele>11.666666666666666</ele><time>2026-03-30T12:01:27Z</time></trkpt><trkpt lat="39.6751481649839" lon="8.651465673572655"><ele>11.333333333333332</ele><time>2026-03-30T12:01:28Z</time></trkpt><trkpt lat="39.67493868422744" lon="8.65147353589141"><ele>11.0</ele><time>2026-03-30T12:01:29Z</time></trkpt><trkpt lat="39.6747277913001" lon="8.651492053182128"><ele>11.0</ele><time>2026-03-30T12:01:30Z</time></trkpt><trkpt lat="39.67451954783374" lon="8.651525291628557"><ele>11.0</ele><time>2026-03-30T12:01:31Z</time></trkpt><trkpt lat="39.67431347147179" lon="8.651548836976724"><ele>11.0</ele><time>2026-03-30T12:01:32Z</time></trkpt><trkpt lat="39.67410812516126" lon="8.651567517240036"><ele>11.333333333333332</ele><time>2026-03-30T12:01:33Z</time></trkpt><trkpt lat="39.67390671019819" lon="8.651587146171995"><ele>11.666666666666666</ele><time>2026-03-30T12:01:34Z</time></trkpt><trkpt lat="39.673707916865176" lon="8.651603966285311"><ele>12.0</ele><time>2026-03-30T12:01:35Z</time></trkpt><trkpt lat="39.67351023963614" lon="8.65162548889117"><ele>12.0</ele><time>2026-03-30T12:01:36Z</time></trkpt><trkpt lat="39.67331366386216" lon="8.651644700408363"><ele>12.0</ele><time>2026-03-30T12:01:37Z</time></trkpt><trkpt lat="39.67311836027128" lon="8.65166201930791"><ele>12.0</ele><time>2026-03-30T12:01:38Z</time></trkpt><trkpt lat="39.67292211526435" lon="8.651680281629721"><ele>11.666666666666666</ele><time>2026-03-30T12:01:39Z</time></trkpt><trkpt lat="39.67272548454151" lon="8.651702141088531"><ele>11.333333333333332</ele><time>2026-03-30T12:01:40Z</time></trkpt><trkpt lat="39.67252297982583" lon="8.651725021364413"><ele>11.0</ele><time>2026-03-30T12:01:41Z</time></trkpt><trkpt lat="39.67232124921407" lon="8.651746677392843"><ele>11.0</ele><time>2026-03-30T12:01:42Z</time></trkpt><trkpt lat="39.67212965911063" lon="8.65176895647473"><ele>11.0</ele><time>2026-03-30T12:01:43Z</time></trkpt><trkpt lat="39.67194760419599" lon="8.651790654135196"><ele>11.0</ele><time>2026-03-30T12:01:44Z</time></trkpt><trkpt lat="39.67177510533369" lon="8.651808419675898"><ele>11.333333333333332</ele><time>2026-03-30T12:01:45Z</time></trkpt><trkpt lat="39.67160201393088" lon="8.651821340495024"><ele>11.666666666666666</ele><time>2026-03-30T12:01:46Z</time></trkpt><trkpt lat="39.671426727912646" lon="8.651836578696832"><ele>12.0</ele><time>2026-03-30T12:01:47Z</time></trkpt><trkpt lat="39.67124630938566" lon="8.651857791902497"><ele>12.0</ele><time>2026-03-30T12:01:48Z</time></trkpt><trkpt lat="39.67106728672123" lon="8.651876809234343"><ele>12.0</ele><time>2026-03-30T12:01:49Z</time></trkpt><trkpt lat="39.67088869353837" lon="8.65189482474112"><ele>12.0</ele><time>2026-03-30T12:01:50Z</time></trkpt><trkpt lat="39.67070856331338" lon="8.651912216603401"><ele>12.0</ele><time>2026-03-30T12:01:51Z</time></trkpt><trkpt lat="39.67052902694836" lon="8.651931374323645"><ele>12.0</ele><time>2026-03-30T12:01:52Z</time></trkpt><trkpt lat="39.67034702676126" lon="8.651951778842275"><ele>12.0</ele><time>2026-03-30T12:01:53Z</time></trkpt><trkpt lat="39.67016483213639" lon="8.651971676526987"><ele>12.0</ele><time>2026-03-30T12:01:54Z</time></trkpt><trkpt lat="39.66998386944078" lon="8.651990731115294"><ele>12.0</ele><time>2026-03-30T12:01:55Z</time></trkpt><trkpt lat="39.669800358577746" lon="8.652013135935153"><ele>12.0</ele><time>2026-03-30T12:01:56Z</time></trkpt><trkpt lat="39.66961583848783" lon="8.65203529280989"><ele>12.333333333333332</ele><time>2026-03-30T12:01:57Z</time></trkpt><trkpt lat="39.6694294718519" lon="8.65205851435739"><ele>12.666666666666666</ele><time>2026-03-30T12:01:58Z</time></trkpt><trkpt lat="39.6692393275932" lon="8.65207337666367"><ele>13.0</ele><time>2026-03-30T12:01:59Z</time></trkpt><trkpt lat="39.669046514802325" lon="8.652090899143243"><ele>13.0</ele><time>2026-03-30T12:02:00Z</time></trkpt><trkpt lat="39.668854619414056" lon="8.652111711531912"><ele>13.0</ele><time>2026-03-30T12:02:01Z</time></trkpt><trkpt lat="39.66866265916836" lon="8.65213035715975"><ele>13.0</ele><time>2026-03-30T12:02:02Z</time></trkpt><trkpt lat="39.66846939275994" lon="8.652146189300716"><ele>13.333333333333332</ele><time>2026-03-30T12:02:03Z</time></trkpt><trkpt lat="39.6682753807824" lon="8.652162125256904"><ele>13.666666666666668</ele><time>2026-03-30T12:02:04Z</time></trkpt><trkpt lat="39.66808170347557" lon="8.652180274696004"><ele>14.0</ele><time>2026-03-30T12:02:05Z</time></trkpt><trkpt lat="39.667889072248975" lon="8.652193908314983"><ele>14.333333333333334</ele><time>2026-03-30T12:02:06Z</time></trkpt><trkpt lat="39.66770049995673" lon="8.65220879872741"><ele>14.666666666666668</ele><time>2026-03-30T12:02:07Z</time></trkpt><trkpt lat="39.66752347589996" lon="8.652223757009859"><ele>15.0</ele><time>2026-03-30T12:02:08Z</time></trkpt><trkpt lat="39.667357674607125" lon="8.652237814733034"><ele>15.0</ele><time>2026-03-30T12:02:09Z</time></trkpt><trkpt lat="39.66718966184624" lon="8.65225995915231"><ele>15.0</ele><time>2026-03-30T12:02:10Z</time></trkpt><trkpt lat="39.66701382141913" lon="8.65228647690067"><ele>15.0</ele><time>2026-03-30T12:02:11Z</time></trkpt><trkpt lat="39.66683422372487" lon="8.652311872414353"><ele>15.666666666666668</ele><time>2026-03-30T12:02:12Z</time></trkpt><trkpt lat="39.66664926305153" lon="8.652332764944967"><ele>16.333333333333336</ele><time>2026-03-30T12:02:13Z</time></trkpt><trkpt lat="39.666462679553575" lon="8.652352316015017"><ele>17.0</ele><time>2026-03-30T12:02:14Z</time></trkpt><trkpt lat="39.666270665366305" lon="8.652371954651228"><ele>16.666666666666668</ele><time>2026-03-30T12:02:15Z</time></trkpt><trkpt lat="39.66607515620348" lon="8.65239612564194"><ele>16.333333333333332</ele><time>2026-03-30T12:02:16Z</time></trkpt><trkpt lat="39.66587786067004" lon="8.652416242877742"><ele>16.0</ele><time>2026-03-30T12:02:17Z</time></trkpt><trkpt lat="39.66567886001463" lon="8.65243732170016"><ele>16.0</ele><time>2026-03-30T12:02:18Z</time></trkpt><trkpt lat="39.66547881625061" lon="8.652458836677587"><ele>16.0</ele><time>2026-03-30T12:02:19Z</time></trkpt><trkpt lat="39.665279867780086" lon="8.652478203181879"><ele>16.0</ele><time>2026-03-30T12:02:20Z</time></trkpt><trkpt lat="39.66507986854872" lon="8.652502370875844"><ele>15.666666666666666</ele><time>2026-03-30T12:02:21Z</time></trkpt><trkpt lat="39.66487944777856" lon="8.652523209472681"><ele>15.333333333333332</ele><time>2026-03-30T12:02:22Z</time></trkpt><trkpt lat="39.664685437195836" lon="8.652538858095447"><ele>15.0</ele><time>2026-03-30T12:02:23Z</time></trkpt><trkpt lat="39.66449635052727" lon="8.652554858106269"><ele>15.333333333333332</ele><time>2026-03-30T12:02:24Z</time></trkpt><trkpt lat="39.664298393943575" lon="8.652575761429583"><ele>15.666666666666666</ele><time>2026-03-30T12:02:25Z</time></trkpt><trkpt lat="39.6641120141545" lon="8.652600257349889"><ele>16.0</ele><time>2026-03-30T12:02:26Z</time></trkpt><trkpt lat="39.66391987592704" lon="8.652619264645466"><ele>16.0</ele><time>2026-03-30T12:02:27Z</time></trkpt><trkpt lat="39.66372787242136" lon="8.65263432382514"><ele>16.0</ele><time>2026-03-30T12:02:28Z</time></trkpt><trkpt lat="39.66354007574899" lon="8.65265158445261"><ele>16.0</ele><time>2026-03-30T12:02:29Z</time></trkpt><trkpt lat="39.66334702283491" lon="8.652672190780478"><ele>16.333333333333332</ele><time>2026-03-30T12:02:30Z</time></trkpt><trkpt lat="39.663153103128224" lon="8.652692172978108"><ele>16.666666666666668</ele><time>2026-03-30T12:02:31Z</time></trkpt><trkpt lat="39.6629588984507" lon="8.652710124219258"><ele>17.0</ele><time>2026-03-30T12:02:32Z</time></trkpt><trkpt lat="39.662763255960954" lon="8.65272926935325"><ele>17.0</ele><time>2026-03-30T12:02:33Z</time></trkpt><trkpt lat="39.662567211878226" lon="8.652749354840426"><ele>17.0</ele><time>2026-03-30T12:02:34Z</time></trkpt><trkpt lat="39.66236996845371" lon="8.65276792996664"><ele>17.0</ele><time>2026-03-30T12:02:35Z</time></trkpt><trkpt lat="39.66217174019234" lon="8.652787924966223"><ele>16.666666666666668</ele><time>2026-03-30T12:02:36Z</time></trkpt><trkpt lat="39.661974230932834" lon="8.652809641221419"><ele>16.333333333333332</ele><time>2026-03-30T12:02:37Z</time></trkpt><trkpt lat="39.66177635488472" lon="8.652829017041798"><ele>16.0</ele><time>2026-03-30T12:02:38Z</time></trkpt><trkpt lat="39.661575192335455" lon="8.652848972473889"><ele>16.0</ele><time>2026-03-30T12:02:39Z</time></trkpt><trkpt lat="39.66137339308265" lon="8.652872697743547"><ele>16.0</ele><time>2026-03-30T12:02:40Z</time></trkpt><trkpt lat="39.66117134321481" lon="8.652895801312857"><ele>16.0</ele><time>2026-03-30T12:02:41Z</time></trkpt><trkpt lat="39.6609669308931" lon="8.652918995793323"><ele>16.0</ele><time>2026-03-30T12:02:42Z</time></trkpt><trkpt lat="39.66076144685486" lon="8.652941647597293"><ele>16.0</ele><time>2026-03-30T12:02:43Z</time></trkpt><trkpt lat="39.660561637340926" lon="8.6529614808535"><ele>16.0</ele><time>2026-03-30T12:02:44Z</time></trkpt><trkpt lat="39.66037364474696" lon="8.652983910316397"><ele>17.0</ele><time>2026-03-30T12:02:45Z</time></trkpt><trkpt lat="39.660190607711264" lon="8.653004629079511"><ele>18.0</ele><time>2026-03-30T12:02:46Z</time></trkpt><trkpt lat="39.660007647559816" lon="8.653025511040605"><ele>19.0</ele><time>2026-03-30T12:02:47Z</time></trkpt><trkpt lat="39.65982297767024" lon="8.653045222052988"><ele>19.0</ele><time>2026-03-30T12:02:48Z</time></trkpt><trkpt lat="39.65963391543818" lon="8.65306394886997"><ele>19.0</ele><time>2026-03-30T12:02:49.001Z</time></trkpt><trkpt lat="39.65944216156646" lon="8.65308543929371"><ele>19.0</ele><time>2026-03-30T12:02:50Z</time></trkpt><trkpt lat="39.659248265050906" lon="8.653103346891696"><ele>19.0</ele><time>2026-03-30T12:02:51Z</time></trkpt><trkpt lat="39.65905311848192" lon="8.653120224311989"><ele>19.0</ele><time>2026-03-30T12:02:52Z</time></trkpt><trkpt lat="39.65885935888168" lon="8.653138326598526"><ele>19.0</ele><time>2026-03-30T12:02:53Z</time></trkpt><trkpt lat="39.65866231345697" lon="8.653158963501397"><ele>19.0</ele><time>2026-03-30T12:02:54Z</time></trkpt><trkpt lat="39.658465524047" lon="8.653180613973436"><ele>19.0</ele><time>2026-03-30T12:02:55Z</time></trkpt><trkpt lat="39.65826679175309" lon="8.653201131063225"><ele>19.0</ele><time>2026-03-30T12:02:56Z</time></trkpt><trkpt lat="39.658066888408946" lon="8.653222997499794"><ele>19.0</ele><time>2026-03-30T12:02:57Z</time></trkpt><trkpt lat="39.65786985921038" lon="8.65324603827084"><ele>19.0</ele><time>2026-03-30T12:02:58Z</time></trkpt><trkpt lat="39.65767386808136" lon="8.653267911025074"><ele>19.0</ele><time>2026-03-30T12:02:59Z</time></trkpt><trkpt lat="39.65747614390416" lon="8.653286751709384"><ele>19.0</ele><time>2026-03-30T12:03:00Z</time></trkpt><trkpt lat="39.657277731525916" lon="8.653303612472474"><ele>19.0</ele><time>2026-03-30T12:03:01Z</time></trkpt><trkpt lat="39.65707742711644" lon="8.653322302877795"><ele>19.0</ele><time>2026-03-30T12:03:02Z</time></trkpt><trkpt lat="39.65687686132007" lon="8.653344469384683"><ele>19.666666666666664</ele><time>2026-03-30T12:03:03Z</time></trkpt><trkpt lat="39.656675358662916" lon="8.653368918559499"><ele>20.333333333333332</ele><time>2026-03-30T12:03:04Z</time></trkpt><trkpt lat="39.65647375608688" lon="8.65339467169614"><ele>21.0</ele><time>2026-03-30T12:03:05Z</time></trkpt><trkpt lat="39.65627183566084" lon="8.653417298237569"><ele>20.666666666666668</ele><time>2026-03-30T12:03:06Z</time></trkpt><trkpt lat="39.65606990455044" lon="8.653438360812407"><ele>20.333333333333336</ele><time>2026-03-30T12:03:07Z</time></trkpt><trkpt lat="39.655868384793706" lon="8.653459708995996"><ele>20.0</ele><time>2026-03-30T12:03:08Z</time></trkpt><trkpt lat="39.65566792829424" lon="8.653480334008668"><ele>20.0</ele><time>2026-03-30T12:03:09Z</time></trkpt><trkpt lat="39.655467454603446" lon="8.653502315463372"><ele>20.0</ele><time>2026-03-30T12:03:10Z</time></trkpt><trkpt lat="39.65526782876026" lon="8.653528604018405"><ele>20.0</ele><time>2026-03-30T12:03:11Z</time></trkpt><trkpt lat="39.655067423912485" lon="8.653552029952744"><ele>20.333333333333336</ele><time>2026-03-30T12:03:12Z</time></trkpt><trkpt lat="39.6548665637039" lon="8.65356943553089"><ele>20.666666666666668</ele><time>2026-03-30T12:03:13Z</time></trkpt><trkpt lat="39.65466454212767" lon="8.653583929904874"><ele>21.0</ele><time>2026-03-30T12:03:14Z</time></trkpt><trkpt lat="39.654461353809374" lon="8.653600754230492"><ele>21.333333333333332</ele><time>2026-03-30T12:03:15Z</time></trkpt><trkpt lat="39.65426151972203" lon="8.653623446155384"><ele>21.666666666666664</ele><time>2026-03-30T12:03:16Z</time></trkpt><trkpt lat="39.654062499555096" lon="8.653645238662063"><ele>22.0</ele><time>2026-03-30T12:03:17Z</time></trkpt><trkpt lat="39.653861906312144" lon="8.65366453915466"><ele>22.0</ele><time>2026-03-30T12:03:18Z</time></trkpt><trkpt lat="39.653661852253414" lon="8.653688298717976"><ele>22.0</ele><time>2026-03-30T12:03:19Z</time></trkpt><trkpt lat="39.65346144318454" lon="8.65371061932256"><ele>22.0</ele><time>2026-03-30T12:03:20Z</time></trkpt><trkpt lat="39.65325816879762" lon="8.653730080658299"><ele>21.666666666666664</ele><time>2026-03-30T12:03:21Z</time></trkpt><trkpt lat="39.65305378501512" lon="8.653752002953752"><ele>21.333333333333332</ele><time>2026-03-30T12:03:22Z</time></trkpt><trkpt lat="39.652849012833386" lon="8.653774561607007"><ele>21.0</ele><time>2026-03-30T12:03:23Z</time></trkpt><trkpt lat="39.652644351576825" lon="8.653794197864615"><ele>21.0</ele><time>2026-03-30T12:03:24Z</time></trkpt><trkpt lat="39.652439149484294" lon="8.653814560729943"><ele>21.0</ele><time>2026-03-30T12:03:25Z</time></trkpt><trkpt lat="39.65223378745292" lon="8.65383465879855"><ele>21.0</ele><time>2026-03-30T12:03:26Z</time></trkpt><trkpt lat="39.652029861396926" lon="8.653856450679864"><ele>21.0</ele><time>2026-03-30T12:03:27Z</time></trkpt><trkpt lat="39.65182682423927" lon="8.653878213123715"><ele>21.0</ele><time>2026-03-30T12:03:28Z</time></trkpt><trkpt lat="39.65162347821507" lon="8.65389936934404"><ele>21.0</ele><time>2026-03-30T12:03:29Z</time></trkpt><trkpt lat="39.65141952596731" lon="8.653920062489053"><ele>21.0</ele><time>2026-03-30T12:03:30Z</time></trkpt><trkpt lat="39.651215097897776" lon="8.653947208322387"><ele>21.0</ele><time>2026-03-30T12:03:31Z</time></trkpt><trkpt lat="39.65101083144976" lon="8.653970925304499"><ele>21.0</ele><time>2026-03-30T12:03:32Z</time></trkpt><trkpt lat="39.650805884301306" lon="8.653996096908314"><ele>21.333333333333332</ele><time>2026-03-30T12:03:33Z</time></trkpt><trkpt lat="39.65060088020822" lon="8.654017009234398"><ele>21.666666666666664</ele><time>2026-03-30T12:03:34Z</time></trkpt><trkpt lat="39.650393910704075" lon="8.654035922686608"><ele>22.0</ele><time>2026-03-30T12:03:35Z</time></trkpt><trkpt lat="39.65018720073396" lon="8.654058693539078"><ele>22.333333333333332</ele><time>2026-03-30T12:03:36Z</time></trkpt><trkpt lat="39.64998569294508" lon="8.654078414359123"><ele>22.666666666666668</ele><time>2026-03-30T12:03:37Z</time></trkpt><trkpt lat="39.64978603251826" lon="8.65409773965068"><ele>23.0</ele><time>2026-03-30T12:03:38Z</time></trkpt><trkpt lat="39.649586608816264" lon="8.654120253053659"><ele>23.0</ele><time>2026-03-30T12:03:39Z</time></trkpt><trkpt lat="39.64939084320752" lon="8.654142425567683"><ele>23.0</ele><time>2026-03-30T12:03:40Z</time></trkpt><trkpt lat="39.64919533432267" lon="8.654160756477447"><ele>23.0</ele><time>2026-03-30T12:03:41Z</time></trkpt><trkpt lat="39.64899925668708" lon="8.654179303035193"><ele>23.0</ele><time>2026-03-30T12:03:42Z</time></trkpt><trkpt lat="39.648801771315405" lon="8.654196119666532"><ele>23.0</ele><time>2026-03-30T12:03:43Z</time></trkpt><trkpt lat="39.648603865298064" lon="8.654214037754233"><ele>23.0</ele><time>2026-03-30T12:03:44Z</time></trkpt><trkpt lat="39.648406249929714" lon="8.654237943035792"><ele>23.333333333333336</ele><time>2026-03-30T12:03:45Z</time></trkpt><trkpt lat="39.64820701010902" lon="8.654263994258079"><ele>23.666666666666668</ele><time>2026-03-30T12:03:46Z</time></trkpt><trkpt lat="39.64800682299207" lon="8.654286161391948"><ele>24.0</ele><time>2026-03-30T12:03:47Z</time></trkpt><trkpt lat="39.647804358963825" lon="8.654305703076052"><ele>23.666666666666668</ele><time>2026-03-30T12:03:48Z</time></trkpt><trkpt lat="39.647601146870464" lon="8.654325821583665"><ele>23.333333333333336</ele><time>2026-03-30T12:03:49Z</time></trkpt><trkpt lat="39.64740000778346" lon="8.654343667188307"><ele>23.0</ele><time>2026-03-30T12:03:50Z</time></trkpt><trkpt lat="39.64719747025057" lon="8.65435921592847"><ele>23.0</ele><time>2026-03-30T12:03:51Z</time></trkpt><trkpt lat="39.64699428984528" lon="8.65437411435508"><ele>23.0</ele><time>2026-03-30T12:03:52Z</time></trkpt><trkpt lat="39.64679151173804" lon="8.65438984895997"><ele>23.0</ele><time>2026-03-30T12:03:53Z</time></trkpt><trkpt lat="39.64659219291418" lon="8.654404957129291"><ele>23.0</ele><time>2026-03-30T12:03:54Z</time></trkpt><trkpt lat="39.64641248529653" lon="8.654422064129326"><ele>23.0</ele><time>2026-03-30T12:03:55Z</time></trkpt><trkpt lat="39.64623385093569" lon="8.654430393333223"><ele>23.0</ele><time>2026-03-30T12:03:56Z</time></trkpt><trkpt lat="39.64609560556329" lon="8.654434426087315"><ele>23.166666666666668</ele><time>2026-03-30T12:03:57Z</time></trkpt><trkpt lat="39.64597555453416" lon="8.65444898405469"><ele>23.333333333333336</ele><time>2026-03-30T12:03:58Z</time></trkpt><trkpt lat="39.645878440772655" lon="8.654461890424576"><ele>23.5</ele><time>2026-03-30T12:03:59Z</time></trkpt><trkpt lat="39.64579831626113" lon="8.654471568527281"><ele>23.666666666666668</ele><time>2026-03-30T12:04:00Z</time></trkpt><trkpt lat="39.64573381831337" lon="8.654478140001693"><ele>23.833333333333332</ele><time>2026-03-30T12:04:01Z</time></trkpt><trkpt lat="39.64566369576417" lon="8.654488278690458"><ele>24.0</ele><time>2026-03-30T12:06:28Z</time></trkpt><trkpt lat="39.64554106344925" lon="8.654535130306249"><ele>24.25</ele><time>2026-03-30T12:06:30Z</time></trkpt><trkpt lat="39.64545347261156" lon="8.6545508845802"><ele>24.5</ele><time>2026-03-30T12:06:31Z</time></trkpt><trkpt lat="39.64534526622289" lon="8.654565947277444"><ele>24.75</ele><time>2026-03-30T12:06:32Z</time></trkpt><trkpt lat="39.645220373985026" lon="8.65457484960656"><ele>25.0</ele><time>2026-03-30T12:06:33Z</time></trkpt><trkpt lat="39.6450713538253" lon="8.654584635879466"><ele>25.333333333333336</ele><time>2026-03-30T12:06:34Z</time></trkpt><trkpt lat="39.64491122144376" lon="8.654599589767276"><ele>25.666666666666664</ele><time>2026-03-30T12:06:35Z</time></trkpt><trkpt lat="39.644743196004654" lon="8.654621835022375"><ele>26.0</ele><time>2026-03-30T12:06:36Z</time></trkpt><trkpt lat="39.644564823368405" lon="8.654643609934636"><ele>26.333333333333332</ele><time>2026-03-30T12:06:37Z</time></trkpt><trkpt lat="39.64438035226918" lon="8.654659743752648"><ele>26.666666666666664</ele><time>2026-03-30T12:06:38Z</time></trkpt><trkpt lat="39.64418428484313" lon="8.654676932079779"><ele>27.0</ele><time>2026-03-30T12:06:39Z</time></trkpt><trkpt lat="39.643973882053864" lon="8.654697120704386"><ele>27.0</ele><time>2026-03-30T12:06:40Z</time></trkpt><trkpt lat="39.643750042056524" lon="8.65472537272157"><ele>27.0</ele><time>2026-03-30T12:06:41Z</time></trkpt><trkpt lat="39.64352978699244" lon="8.654745825400168"><ele>27.0</ele><time>2026-03-30T12:06:42Z</time></trkpt><trkpt lat="39.64330098658316" lon="8.654771542727403"><ele>27.0</ele><time>2026-03-30T12:06:43Z</time></trkpt><trkpt lat="39.643070272143596" lon="8.654800429419467"><ele>27.0</ele><time>2026-03-30T12:06:44Z</time></trkpt><trkpt lat="39.64284311582588" lon="8.6548263686832"><ele>27.5</ele><time>2026-03-30T12:06:45Z</time></trkpt><trkpt lat="39.642614487621415" lon="8.6548471403056"><ele>28.0</ele><time>2026-03-30T12:06:46Z</time></trkpt><trkpt lat="39.642386714009156" lon="8.65487251836509"><ele>28.0</ele><time>2026-03-30T12:06:47Z</time></trkpt><trkpt lat="39.642157527188914" lon="8.654897561484704"><ele>28.0</ele><time>2026-03-30T12:06:48Z</time></trkpt><trkpt lat="39.64192821338927" lon="8.654918748144388"><ele>28.5</ele><time>2026-03-30T12:06:49Z</time></trkpt><trkpt lat="39.64169659687149" lon="8.654941500144163"><ele>29.0</ele><time>2026-03-30T12:06:50Z</time></trkpt><trkpt lat="39.641464661768026" lon="8.654966675663003"><ele>29.0</ele><time>2026-03-30T12:06:51Z</time></trkpt><trkpt lat="39.641233992064954" lon="8.654992252444211"><ele>29.0</ele><time>2026-03-30T12:06:52Z</time></trkpt><trkpt lat="39.64100525822826" lon="8.655015006540912"><ele>28.5</ele><time>2026-03-30T12:06:53Z</time></trkpt><trkpt lat="39.64077119819035" lon="8.655035852309295"><ele>28.0</ele><time>2026-03-30T12:06:54Z</time></trkpt><trkpt lat="39.64053378486366" lon="8.65505739876791"><ele>28.0</ele><time>2026-03-30T12:06:55Z</time></trkpt><trkpt lat="39.64029610726443" lon="8.655084562091332"><ele>28.0</ele><time>2026-03-30T12:06:56Z</time></trkpt><trkpt lat="39.64005942481502" lon="8.655112023099472"><ele>28.0</ele><time>2026-03-30T12:06:57Z</time></trkpt><trkpt lat="39.6398206308802" lon="8.655139419318221"><ele>28.0</ele><time>2026-03-30T12:06:58Z</time></trkpt><trkpt lat="39.63958240380328" lon="8.65516284691014"><ele>28.5</ele><time>2026-03-30T12:06:59Z</time></trkpt><trkpt lat="39.639343540892085" lon="8.655183796359045"><ele>29.0</ele><time>2026-03-30T12:07:00Z</time></trkpt><trkpt lat="39.63910420019306" lon="8.655205748802272"><ele>29.0</ele><time>2026-03-30T12:07:01Z</time></trkpt><trkpt lat="39.63886471784993" lon="8.65522763482589"><ele>29.0</ele><time>2026-03-30T12:07:02Z</time></trkpt><trkpt lat="39.6386269890933" lon="8.655248825761042"><ele>29.5</ele><time>2026-03-30T12:07:03Z</time></trkpt><trkpt lat="39.63838738793347" lon="8.655276156604774"><ele>30.0</ele><time>2026-03-30T12:07:04Z</time></trkpt><trkpt lat="39.63814160205258" lon="8.655313547155972"><ele>30.0</ele><time>2026-03-30T12:07:05Z</time></trkpt><trkpt lat="39.63789784273179" lon="8.65534255112878"><ele>30.0</ele><time>2026-03-30T12:07:06Z</time></trkpt><trkpt lat="39.63765656021772" lon="8.655370132810113"><ele>30.0</ele><time>2026-03-30T12:07:07Z</time></trkpt><trkpt lat="39.63741218349453" lon="8.65539249839237"><ele>30.0</ele><time>2026-03-30T12:07:08Z</time></trkpt><trkpt lat="39.637166309451594" lon="8.655412974638358"><ele>30.0</ele><time>2026-03-30T12:07:09Z</time></trkpt><trkpt lat="39.636918655592325" lon="8.65543974039712"><ele>30.0</ele><time>2026-03-30T12:07:10Z</time></trkpt><trkpt lat="39.63667397323064" lon="8.655466406543388"><ele>30.0</ele><time>2026-03-30T12:07:11Z</time></trkpt><trkpt lat="39.63642676345979" lon="8.655490262341893"><ele>30.0</ele><time>2026-03-30T12:07:12Z</time></trkpt><trkpt lat="39.636178692052255" lon="8.655516757801346"><ele>30.5</ele><time>2026-03-30T12:07:13Z</time></trkpt><trkpt lat="39.6359296153318" lon="8.655542412599734"><ele>31.0</ele><time>2026-03-30T12:07:14Z</time></trkpt><trkpt lat="39.63567902655324" lon="8.655570638137442"><ele>31.0</ele><time>2026-03-30T12:07:15Z</time></trkpt><trkpt lat="39.63542893805385" lon="8.655597320557307"><ele>31.0</ele><time>2026-03-30T12:07:16Z</time></trkpt><trkpt lat="39.63517844155514" lon="8.655625050015141"><ele>30.5</ele><time>2026-03-30T12:07:17Z</time></trkpt><trkpt lat="39.634926148753664" lon="8.655650417038066"><ele>30.0</ele><time>2026-03-30T12:07:18Z</time></trkpt><trkpt lat="39.63467340817181" lon="8.655674630186422"><ele>30.5</ele><time>2026-03-30T12:07:19Z</time></trkpt><trkpt lat="39.634419874947916" lon="8.655699642032658"><ele>31.0</ele><time>2026-03-30T12:07:20Z</time></trkpt><trkpt lat="39.63416473542915" lon="8.655726774119648"><ele>31.0</ele><time>2026-03-30T12:07:21Z</time></trkpt><trkpt lat="39.63390853411247" lon="8.655751717800948"><ele>31.0</ele><time>2026-03-30T12:07:22Z</time></trkpt><trkpt lat="39.633652716052296" lon="8.655778783499605"><ele>31.5</ele><time>2026-03-30T12:07:23Z</time></trkpt><trkpt lat="39.633396675018425" lon="8.655804043754175"><ele>32.0</ele><time>2026-03-30T12:07:24Z</time></trkpt><trkpt lat="39.63314026578946" lon="8.655830299840336"><ele>32.0</ele><time>2026-03-30T12:07:25Z</time></trkpt><trkpt lat="39.63288366210787" lon="8.655856750073955"><ele>32.0</ele><time>2026-03-30T12:07:26Z</time></trkpt><trkpt lat="39.632627824988276" lon="8.655882954523573"><ele>31.5</ele><time>2026-03-30T12:07:27Z</time></trkpt><trkpt lat="39.63237018002456" lon="8.655909239147773"><ele>31.0</ele><time>2026-03-30T12:07:28Z</time></trkpt><trkpt lat="39.63211257719178" lon="8.655935900386234"><ele>31.0</ele><time>2026-03-30T12:07:29Z</time></trkpt><trkpt lat="39.63185460278559" lon="8.655963972655298"><ele>31.0</ele><time>2026-03-30T12:07:30Z</time></trkpt><trkpt lat="39.63159794883828" lon="8.655993171425257"><ele>31.0</ele><time>2026-03-30T12:07:31Z</time></trkpt><trkpt lat="39.631341146937295" lon="8.656022951056686"><ele>31.0</ele><time>2026-03-30T12:07:32Z</time></trkpt><trkpt lat="39.631085670046076" lon="8.656052550674257"><ele>32.0</ele><time>2026-03-30T12:07:33Z</time></trkpt><trkpt lat="39.630829597277625" lon="8.656078544855605"><ele>33.0</ele><time>2026-03-30T12:07:34Z</time></trkpt><trkpt lat="39.63057368871957" lon="8.656084339520556"><ele>33.0</ele><time>2026-03-30T12:07:35Z</time></trkpt><trkpt lat="39.63032004596268" lon="8.656135276328202"><ele>33.0</ele><time>2026-03-30T12:07:36Z</time></trkpt><trkpt lat="39.63006341283987" lon="8.656160089229838"><ele>33.5</ele><time>2026-03-30T12:07:37Z</time></trkpt><trkpt lat="39.629805802569095" lon="8.656187308810082"><ele>34.0</ele><time>2026-03-30T12:07:38Z</time></trkpt><trkpt lat="39.62954935177655" lon="8.65621085192773"><ele>34.5</ele><time>2026-03-30T12:07:39Z</time></trkpt><trkpt lat="39.629290342904056" lon="8.656237836786401"><ele>35.0</ele><time>2026-03-30T12:07:40Z</time></trkpt><trkpt lat="39.629031150256516" lon="8.65626272640576"><ele>35.0</ele><time>2026-03-30T12:07:41Z</time></trkpt><trkpt lat="39.62877346904086" lon="8.656289455220868"><ele>35.0</ele><time>2026-03-30T12:07:42Z</time></trkpt><trkpt lat="39.62851244518612" lon="8.656316887382172"><ele>35.5</ele><time>2026-03-30T12:07:43Z</time></trkpt><trkpt lat="39.62825188939541" lon="8.65634404203325"><ele>36.0</ele><time>2026-03-30T12:07:44Z</time></trkpt><trkpt lat="39.62798902331917" lon="8.656369629641219"><ele>37.0</ele><time>2026-03-30T12:07:45Z</time></trkpt><trkpt lat="39.62772689219022" lon="8.656394300746106"><ele>38.0</ele><time>2026-03-30T12:07:46Z</time></trkpt><trkpt lat="39.62746145973116" lon="8.656421067187763"><ele>38.0</ele><time>2026-03-30T12:07:47Z</time></trkpt><trkpt lat="39.62719754288154" lon="8.656446818214084"><ele>38.0</ele><time>2026-03-30T12:07:48Z</time></trkpt><trkpt lat="39.626935174676404" lon="8.656475485536845"><ele>39.0</ele><time>2026-03-30T12:07:49Z</time></trkpt><trkpt lat="39.62667063708709" lon="8.656508400618339"><ele>40.0</ele><time>2026-03-30T12:07:50Z</time></trkpt><trkpt lat="39.62640656045205" lon="8.656544706144947"><ele>40.0</ele><time>2026-03-30T12:07:51Z</time></trkpt><trkpt lat="39.626141526227144" lon="8.656588429445"><ele>40.0</ele><time>2026-03-30T12:07:52Z</time></trkpt><trkpt lat="39.62587510669659" lon="8.656639935603534"><ele>40.0</ele><time>2026-03-30T12:07:53Z</time></trkpt><trkpt lat="39.625607856534955" lon="8.656697878184294"><ele>40.0</ele><time>2026-03-30T12:07:54Z</time></trkpt><trkpt lat="39.62534040959549" lon="8.656753871376855"><ele>38.0</ele><time>2026-03-30T12:07:55Z</time></trkpt><trkpt lat="39.62507258539375" lon="8.656807875627997"><ele>36.0</ele><time>2026-03-30T12:07:56Z</time></trkpt><trkpt lat="39.624802064822354" lon="8.656864652183122"><ele>36.0</ele><time>2026-03-30T12:07:57Z</time></trkpt><trkpt lat="39.624532114898706" lon="8.656924994010097"><ele>36.0</ele><time>2026-03-30T12:07:58Z</time></trkpt><trkpt lat="39.6242610912863" lon="8.656984626105322"><ele>39.5</ele><time>2026-03-30T12:07:59Z</time></trkpt><trkpt lat="39.623986800195084" lon="8.657041664585007"><ele>43.0</ele><time>2026-03-30T12:08:00Z</time></trkpt><trkpt lat="39.62371282768062" lon="8.657101428301091"><ele>40.5</ele><time>2026-03-30T12:08:01Z</time></trkpt><trkpt lat="39.623435351989045" lon="8.65715845466372"><ele>38.0</ele><time>2026-03-30T12:08:02Z</time></trkpt><trkpt lat="39.62315852314237" lon="8.657213176786351"><ele>38.0</ele><time>2026-03-30T12:08:03Z</time></trkpt><trkpt lat="39.622882487512136" lon="8.657269208769087"><ele>38.0</ele><time>2026-03-30T12:08:04Z</time></trkpt><trkpt lat="39.62260543850538" lon="8.657325822852656"><ele>38.0</ele><time>2026-03-30T12:08:05Z</time></trkpt><trkpt lat="39.62232928884908" lon="8.657384474654618"><ele>38.0</ele><time>2026-03-30T12:08:06Z</time></trkpt><trkpt lat="39.62205256368113" lon="8.657443347247233"><ele>39.0</ele><time>2026-03-30T12:08:07Z</time></trkpt><trkpt lat="39.621778122185425" lon="8.657499371705576"><ele>40.0</ele><time>2026-03-30T12:08:08Z</time></trkpt><trkpt lat="39.62150427278555" lon="8.657554638809254"><ele>40.0</ele><time>2026-03-30T12:08:09Z</time></trkpt><trkpt lat="39.62123175877479" lon="8.65761181575077"><ele>40.0</ele><time>2026-03-30T12:08:10Z</time></trkpt><trkpt lat="39.62095874778147" lon="8.657667061545967"><ele>39.0</ele><time>2026-03-30T12:08:11Z</time></trkpt><trkpt lat="39.62068744217643" lon="8.657721012090784"><ele>38.0</ele><time>2026-03-30T12:08:12Z</time></trkpt><trkpt lat="39.620425098797355" lon="8.65777846732723"><ele>38.5</ele><time>2026-03-30T12:08:13Z</time></trkpt><trkpt lat="39.62016879749147" lon="8.657832914308038"><ele>39.0</ele><time>2026-03-30T12:08:14Z</time></trkpt><trkpt lat="39.619910693447025" lon="8.657885290750848"><ele>39.0</ele><time>2026-03-30T12:08:15Z</time></trkpt><trkpt lat="39.61965661933091" lon="8.657937129736913"><ele>39.0</ele><time>2026-03-30T12:08:16Z</time></trkpt><trkpt lat="39.61940551731312" lon="8.65798854889485"><ele>38.5</ele><time>2026-03-30T12:08:17Z</time></trkpt><trkpt lat="39.61915252012395" lon="8.658042865353579"><ele>38.0</ele><time>2026-03-30T12:08:18Z</time></trkpt><trkpt lat="39.618899957991" lon="8.658097800181725"><ele>37.5</ele><time>2026-03-30T12:08:19Z</time></trkpt><trkpt lat="39.618650223805766" lon="8.658150256163067"><ele>37.0</ele><time>2026-03-30T12:08:20Z</time></trkpt><trkpt lat="39.618395111485476" lon="8.658209540041032"><ele>37.0</ele><time>2026-03-30T12:08:21Z</time></trkpt><trkpt lat="39.61812860005622" lon="8.658265697078658"><ele>37.0</ele><time>2026-03-30T12:08:22Z</time></trkpt><trkpt lat="39.617848015412356" lon="8.658331953753116"><ele>38.0</ele><time>2026-03-30T12:08:23Z</time></trkpt><trkpt lat="39.617556759615866" lon="8.658407568905314"><ele>39.0</ele><time>2026-03-30T12:08:24Z</time></trkpt><trkpt lat="39.61725801037071" lon="8.658473074632512"><ele>40.0</ele><time>2026-03-30T12:08:25Z</time></trkpt><trkpt lat="39.616941944465886" lon="8.65852272656089"><ele>41.0</ele><time>2026-03-30T12:08:26Z</time></trkpt><trkpt lat="39.61664384930017" lon="8.65857667035905"><ele>40.5</ele><time>2026-03-30T12:08:27Z</time></trkpt><trkpt lat="39.61634534415645" lon="8.658622746601543"><ele>40.0</ele><time>2026-03-30T12:08:28Z</time></trkpt><trkpt lat="39.61605219112482" lon="8.658670547348247"><ele>41.0</ele><time>2026-03-30T12:08:29Z</time></trkpt><trkpt lat="39.615762415234244" lon="8.65872931994888"><ele>42.0</ele><time>2026-03-30T12:08:30Z</time></trkpt><trkpt lat="39.61547502262476" lon="8.658795288865324"><ele>42.0</ele><time>2026-03-30T12:08:31Z</time></trkpt><trkpt lat="39.61519025146964" lon="8.65885725374433"><ele>42.0</ele><time>2026-03-30T12:08:32Z</time></trkpt><trkpt lat="39.61490588958951" lon="8.658913424513198"><ele>42.0</ele><time>2026-03-30T12:08:33Z</time></trkpt><trkpt lat="39.61462130186359" lon="8.658968849980736"><ele>42.0</ele><time>2026-03-30T12:08:34Z</time></trkpt><trkpt lat="39.614340152522516" lon="8.659026746347697"><ele>42.5</ele><time>2026-03-30T12:08:35Z</time></trkpt><trkpt lat="39.61406175392286" lon="8.65908722395556"><ele>43.0</ele><time>2026-03-30T12:08:36Z</time></trkpt><trkpt lat="39.61378346228199" lon="8.659145957711784"><ele>42.5</ele><time>2026-03-30T12:08:37Z</time></trkpt><trkpt lat="39.61350536428133" lon="8.659203050378"><ele>42.0</ele><time>2026-03-30T12:08:38Z</time></trkpt><trkpt lat="39.61322835358765" lon="8.659260999861953"><ele>42.0</ele><time>2026-03-30T12:08:39Z</time></trkpt><trkpt lat="39.61294947257493" lon="8.659320440185283"><ele>42.0</ele><time>2026-03-30T12:08:40Z</time></trkpt><trkpt lat="39.61267096011206" lon="8.659377885373276"><ele>42.0</ele><time>2026-03-30T12:08:41Z</time></trkpt><trkpt lat="39.61239145732857" lon="8.659433389316161"><ele>42.0</ele><time>2026-03-30T12:08:42Z</time></trkpt><trkpt lat="39.612108739762114" lon="8.659489903714883"><ele>42.5</ele><time>2026-03-30T12:08:43Z</time></trkpt><trkpt lat="39.61182717653494" lon="8.65954818177187"><ele>43.0</ele><time>2026-03-30T12:08:44Z</time></trkpt><trkpt lat="39.61154362132567" lon="8.659605499174363"><ele>43.0</ele><time>2026-03-30T12:08:45Z</time></trkpt><trkpt lat="39.6112594233127" lon="8.659662740045098"><ele>43.0</ele><time>2026-03-30T12:08:46Z</time></trkpt><trkpt lat="39.610977839365255" lon="8.659721414868919"><ele>43.5</ele><time>2026-03-30T12:08:47Z</time></trkpt><trkpt lat="39.610694687118205" lon="8.659777130523702"><ele>44.0</ele><time>2026-03-30T12:08:48Z</time></trkpt><trkpt lat="39.610408327805104" lon="8.659832879172635"><ele>44.5</ele><time>2026-03-30T12:08:49Z</time></trkpt><trkpt lat="39.61012331875637" lon="8.659892622411702"><ele>45.0</ele><time>2026-03-30T12:08:50Z</time></trkpt><trkpt lat="39.609839037416165" lon="8.659955579662679"><ele>45.0</ele><time>2026-03-30T12:08:51Z</time></trkpt><trkpt lat="39.60955628192108" lon="8.660018450295224"><ele>45.0</ele><time>2026-03-30T12:08:52Z</time></trkpt><trkpt lat="39.60927191622407" lon="8.660056852416906"><ele>45.0</ele><time>2026-03-30T12:08:53Z</time></trkpt><trkpt lat="39.60898908386548" lon="8.660115108080094"><ele>45.0</ele><time>2026-03-30T12:08:54Z</time></trkpt><trkpt lat="39.608710798287326" lon="8.660192950154977"><ele>45.0</ele><time>2026-03-30T12:08:55Z</time></trkpt><trkpt lat="39.608428934011044" lon="8.660248865001464"><ele>45.0</ele><time>2026-03-30T12:08:56Z</time></trkpt><trkpt lat="39.608148455635536" lon="8.660305208363654"><ele>45.0</ele><time>2026-03-30T12:08:57Z</time></trkpt><trkpt lat="39.60786810679449" lon="8.660363635858598"><ele>45.0</ele><time>2026-03-30T12:08:58Z</time></trkpt><trkpt lat="39.607587679475905" lon="8.660416648137904"><ele>45.5</ele><time>2026-03-30T12:08:59Z</time></trkpt><trkpt lat="39.607306594489984" lon="8.660471154746798"><ele>46.0</ele><time>2026-03-30T12:09:00Z</time></trkpt><trkpt lat="39.60702581879814" lon="8.660526375854252"><ele>46.5</ele><time>2026-03-30T12:09:01Z</time></trkpt><trkpt lat="39.60674581558875" lon="8.660584563914338"><ele>47.0</ele><time>2026-03-30T12:09:02Z</time></trkpt><trkpt lat="39.60646467283425" lon="8.660643954935006"><ele>47.0</ele><time>2026-03-30T12:09:03Z</time></trkpt><trkpt lat="39.606185334464584" lon="8.660703839645493"><ele>47.0</ele><time>2026-03-30T12:09:04Z</time></trkpt><trkpt lat="39.605906251434284" lon="8.660764099739266"><ele>47.0</ele><time>2026-03-30T12:09:05Z</time></trkpt><trkpt lat="39.605625636746765" lon="8.660823128437306"><ele>47.0</ele><time>2026-03-30T12:09:06Z</time></trkpt><trkpt lat="39.60534441145801" lon="8.66087853614567"><ele>47.0</ele><time>2026-03-30T12:09:07Z</time></trkpt><trkpt lat="39.6050632684381" lon="8.660935431695963"><ele>47.0</ele><time>2026-03-30T12:09:08Z</time></trkpt><trkpt lat="39.60478196820251" lon="8.660994172301082"><ele>47.0</ele><time>2026-03-30T12:09:09Z</time></trkpt><trkpt lat="39.60450041713758" lon="8.661054143219939"><ele>47.0</ele><time>2026-03-30T12:09:10Z</time></trkpt><trkpt lat="39.60422042949991" lon="8.661114983644504"><ele>47.0</ele><time>2026-03-30T12:09:11Z</time></trkpt><trkpt lat="39.603941694969286" lon="8.661172774702292"><ele>47.0</ele><time>2026-03-30T12:09:12Z</time></trkpt><trkpt lat="39.60366305532029" lon="8.66123207619994"><ele>47.0</ele><time>2026-03-30T12:09:13Z</time></trkpt><trkpt lat="39.6033836651112" lon="8.661291465313413"><ele>47.0</ele><time>2026-03-30T12:09:14Z</time></trkpt><trkpt lat="39.60310440140567" lon="8.661347250645054"><ele>48.0</ele><time>2026-03-30T12:09:15Z</time></trkpt><trkpt lat="39.60282448476259" lon="8.661405732558286"><ele>49.0</ele><time>2026-03-30T12:09:16Z</time></trkpt><trkpt lat="39.60254728779928" lon="8.661463947508429"><ele>49.0</ele><time>2026-03-30T12:09:17Z</time></trkpt><trkpt lat="39.6022716661217" lon="8.661520087731725"><ele>49.0</ele><time>2026-03-30T12:09:18Z</time></trkpt><trkpt lat="39.6019963573472" lon="8.6615743971754"><ele>49.0</ele><time>2026-03-30T12:09:19Z</time></trkpt><trkpt lat="39.60171787719901" lon="8.661633186775452"><ele>49.0</ele><time>2026-03-30T12:09:20Z</time></trkpt><trkpt lat="39.601442110091554" lon="8.661692716097459"><ele>49.5</ele><time>2026-03-30T12:09:21Z</time></trkpt><trkpt lat="39.60116399927164" lon="8.661732628442447"><ele>50.0</ele><time>2026-03-30T12:09:22Z</time></trkpt><trkpt lat="39.600891749622164" lon="8.661810740781688"><ele>50.0</ele><time>2026-03-30T12:09:23Z</time></trkpt><trkpt lat="39.60061588748432" lon="8.66186628890547"><ele>50.0</ele><time>2026-03-30T12:09:24Z</time></trkpt><trkpt lat="39.60033935236707" lon="8.661924780853992"><ele>50.5</ele><time>2026-03-30T12:09:25Z</time></trkpt><trkpt lat="39.600063236540045" lon="8.661982749575614"><ele>51.0</ele><time>2026-03-30T12:09:26Z</time></trkpt><trkpt lat="39.59978660982797" lon="8.662039985776046"><ele>51.0</ele><time>2026-03-30T12:09:27Z</time></trkpt><trkpt lat="39.59950771574067" lon="8.662096586309712"><ele>51.0</ele><time>2026-03-30T12:09:28Z</time></trkpt><trkpt lat="39.59923156108009" lon="8.66215415575869"><ele>51.0</ele><time>2026-03-30T12:09:29Z</time></trkpt><trkpt lat="39.59895420907522" lon="8.66221130998903"><ele>51.0</ele><time>2026-03-30T12:09:30Z</time></trkpt><trkpt lat="39.59867247079275" lon="8.662247750561871"><ele>51.5</ele><time>2026-03-30T12:09:31Z</time></trkpt><trkpt lat="39.5983956858626" lon="8.662304968343976"><ele>52.0</ele><time>2026-03-30T12:09:32Z</time></trkpt><trkpt lat="39.59812006701441" lon="8.662383702890745"><ele>52.0</ele><time>2026-03-30T12:09:33Z</time></trkpt><trkpt lat="39.597842052905555" lon="8.66243597069259"><ele>52.0</ele><time>2026-03-30T12:09:34Z</time></trkpt><trkpt lat="39.59756411312372" lon="8.662490967643535"><ele>52.0</ele><time>2026-03-30T12:09:35Z</time></trkpt><trkpt lat="39.59728596065585" lon="8.662549770369505"><ele>52.0</ele><time>2026-03-30T12:09:36Z</time></trkpt><trkpt lat="39.597008926333466" lon="8.662606974990414"><ele>51.0</ele><time>2026-03-30T12:09:37Z</time></trkpt><trkpt lat="39.59673021075479" lon="8.66266055903209"><ele>50.0</ele><time>2026-03-30T12:09:38Z</time></trkpt><trkpt lat="39.59644962233346" lon="8.662714850481322"><ele>50.0</ele><time>2026-03-30T12:09:39Z</time></trkpt><trkpt lat="39.59617192021363" lon="8.662771818375457"><ele>50.0</ele><time>2026-03-30T12:09:40Z</time></trkpt><trkpt lat="39.59589328846827" lon="8.662828558147513"><ele>51.5</ele><time>2026-03-30T12:09:41Z</time></trkpt><trkpt lat="39.59561567629438" lon="8.662886680064442"><ele>53.0</ele><time>2026-03-30T12:09:42Z</time></trkpt><trkpt lat="39.59533785955307" lon="8.66294352904196"><ele>53.5</ele><time>2026-03-30T12:09:43Z</time></trkpt><trkpt lat="39.59505955179298" lon="8.663000145790123"><ele>54.0</ele><time>2026-03-30T12:09:44Z</time></trkpt><trkpt lat="39.59477908086055" lon="8.663057777640734"><ele>54.0</ele><time>2026-03-30T12:09:45Z</time></trkpt><trkpt lat="39.59449898512198" lon="8.66311826964018"><ele>54.0</ele><time>2026-03-30T12:09:46Z</time></trkpt><trkpt lat="39.594217068054874" lon="8.663179998527054"><ele>54.0</ele><time>2026-03-30T12:09:47Z</time></trkpt><trkpt lat="39.593936305389" lon="8.663238340173034"><ele>54.0</ele><time>2026-03-30T12:09:48Z</time></trkpt><trkpt lat="39.59365666996592" lon="8.66329764726054"><ele>53.5</ele><time>2026-03-30T12:09:49Z</time></trkpt><trkpt lat="39.593376013150355" lon="8.663354131026034"><ele>53.0</ele><time>2026-03-30T12:09:50Z</time></trkpt><trkpt lat="39.593094588021366" lon="8.66341199969248"><ele>54.0</ele><time>2026-03-30T12:09:51Z</time></trkpt><trkpt lat="39.59281117317608" lon="8.663469534278244"><ele>55.0</ele><time>2026-03-30T12:09:52Z</time></trkpt><trkpt lat="39.59252875518646" lon="8.66352623734166"><ele>55.0</ele><time>2026-03-30T12:09:53Z</time></trkpt><trkpt lat="39.5922459929167" lon="8.663584397203923"><ele>55.0</ele><time>2026-03-30T12:09:54Z</time></trkpt><trkpt lat="39.59196425473757" lon="8.663642818504702"><ele>55.0</ele><time>2026-03-30T12:09:55Z</time></trkpt><trkpt lat="39.59168084755803" lon="8.66370332589705"><ele>55.0</ele><time>2026-03-30T12:09:56Z</time></trkpt><trkpt lat="39.591398507440694" lon="8.663763511224296"><ele>55.0</ele><time>2026-03-30T12:09:57Z</time></trkpt><trkpt lat="39.59111552138803" lon="8.663823035766487"><ele>55.0</ele><time>2026-03-30T12:09:58Z</time></trkpt><trkpt lat="39.59083155217084" lon="8.663882817444275"><ele>55.0</ele><time>2026-03-30T12:09:59Z</time></trkpt><trkpt lat="39.59054900830363" lon="8.663942582662708"><ele>55.0</ele><time>2026-03-30T12:10:00Z</time></trkpt><trkpt lat="39.5902683677177" lon="8.664003672797298"><ele>55.5</ele><time>2026-03-30T12:10:01Z</time></trkpt><trkpt lat="39.589986549776526" lon="8.664063976504336"><ele>56.0</ele><time>2026-03-30T12:10:02Z</time></trkpt><trkpt lat="39.58970382685974" lon="8.664112676288962"><ele>56.0</ele><time>2026-03-30T12:10:03Z</time></trkpt><trkpt lat="39.589418711425836" lon="8.664160323008089"><ele>56.0</ele><time>2026-03-30T12:10:04Z</time></trkpt><trkpt lat="39.58913706075535" lon="8.66421458165053"><ele>56.0</ele><time>2026-03-30T12:10:05Z</time></trkpt><trkpt lat="39.58885029567145" lon="8.664278994326017"><ele>56.0</ele><time>2026-03-30T12:10:06Z</time></trkpt><trkpt lat="39.58856618225523" lon="8.664338323726543"><ele>56.5</ele><time>2026-03-30T12:10:07Z</time></trkpt><trkpt lat="39.58828306740129" lon="8.664397008297653"><ele>57.0</ele><time>2026-03-30T12:10:08Z</time></trkpt><trkpt lat="39.5880008412182" lon="8.664456274898098"><ele>58.5</ele><time>2026-03-30T12:10:09Z</time></trkpt><trkpt lat="39.587717973557005" lon="8.664517114643147"><ele>60.0</ele><time>2026-03-30T12:10:10Z</time></trkpt><trkpt lat="39.587436403584334" lon="8.664575765018158"><ele>60.0</ele><time>2026-03-30T12:10:11Z</time></trkpt><trkpt lat="39.58715507626058" lon="8.66463462466655"><ele>60.0</ele><time>2026-03-30T12:10:12Z</time></trkpt><trkpt lat="39.58687255772922" lon="8.66469129303118"><ele>59.5</ele><time>2026-03-30T12:10:13Z</time></trkpt><trkpt lat="39.586590929362515" lon="8.664750303977412"><ele>59.0</ele><time>2026-03-30T12:10:14Z</time></trkpt><trkpt lat="39.586310024786805" lon="8.664807062491036"><ele>60.0</ele><time>2026-03-30T12:10:15Z</time></trkpt><trkpt lat="39.58602808595877" lon="8.664864831415478"><ele>61.0</ele><time>2026-03-30T12:10:16Z</time></trkpt><trkpt lat="39.585746862299246" lon="8.664921674221894"><ele>61.0</ele><time>2026-03-30T12:10:17Z</time></trkpt><trkpt lat="39.58546724494364" lon="8.664978265343494"><ele>61.0</ele><time>2026-03-30T12:10:18Z</time></trkpt><trkpt lat="39.585186970554105" lon="8.665038586465656"><ele>61.0</ele><time>2026-03-30T12:10:19Z</time></trkpt><trkpt lat="39.58490801891848" lon="8.665100224645668"><ele>61.0</ele><time>2026-03-30T12:10:20Z</time></trkpt><trkpt lat="39.5846279726481" lon="8.665162926436444"><ele>61.0</ele><time>2026-03-30T12:10:21Z</time></trkpt><trkpt lat="39.58435337923288" lon="8.665220475292847"><ele>61.0</ele><time>2026-03-30T12:10:22Z</time></trkpt><trkpt lat="39.58408589449506" lon="8.665275499192193"><ele>61.5</ele><time>2026-03-30T12:10:23Z</time></trkpt><trkpt lat="39.58382516633454" lon="8.66532613902995"><ele>62.0</ele><time>2026-03-30T12:10:24Z</time></trkpt><trkpt lat="39.58356378337588" lon="8.66538233744467"><ele>62.5</ele><time>2026-03-30T12:10:25Z</time></trkpt><trkpt lat="39.58330676151628" lon="8.665438302211985"><ele>63.0</ele><time>2026-03-30T12:10:26Z</time></trkpt><trkpt lat="39.58305177445269" lon="8.665489928178749"><ele>62.5</ele><time>2026-03-30T12:10:27Z</time></trkpt><trkpt lat="39.58280026834327" lon="8.665533995944521"><ele>62.0</ele><time>2026-03-30T12:10:28Z</time></trkpt><trkpt lat="39.58255945407199" lon="8.665566784486307"><ele>62.0</ele><time>2026-03-30T12:10:29Z</time></trkpt><trkpt lat="39.58231661346061" lon="8.665584669795193"><ele>62.0</ele><time>2026-03-30T12:10:30Z</time></trkpt><trkpt lat="39.58207155385888" lon="8.665556268254706"><ele>62.0</ele><time>2026-03-30T12:10:31Z</time></trkpt><trkpt lat="39.581832146021746" lon="8.665493951524361"><ele>62.0</ele><time>2026-03-30T12:10:32Z</time></trkpt><trkpt lat="39.58160209547815" lon="8.665401837693276"><ele>63.0</ele><time>2026-03-30T12:10:33Z</time></trkpt><trkpt lat="39.58138081107725" lon="8.665277403827991"><ele>64.0</ele><time>2026-03-30T12:10:34Z</time></trkpt><trkpt lat="39.5811619708269" lon="8.665118513967528"><ele>64.0</ele><time>2026-03-30T12:10:35Z</time></trkpt><trkpt lat="39.58093918775343" lon="8.66493741464809"><ele>64.0</ele><time>2026-03-30T12:10:36Z</time></trkpt><trkpt lat="39.580718091723966" lon="8.664750996178503"><ele>64.0</ele><time>2026-03-30T12:10:37Z</time></trkpt><trkpt lat="39.580500327940655" lon="8.664566178466215"><ele>64.0</ele><time>2026-03-30T12:10:38Z</time></trkpt><trkpt lat="39.58028257672367" lon="8.6643839848741"><ele>64.0</ele><time>2026-03-30T12:10:39Z</time></trkpt><trkpt lat="39.58006755888674" lon="8.66420459130796"><ele>64.0</ele><time>2026-03-30T12:10:40Z</time></trkpt><trkpt lat="39.57985411585287" lon="8.664026812747379"><ele>64.0</ele><time>2026-03-30T12:10:41Z</time></trkpt><trkpt lat="39.579642451385155" lon="8.663847622636887"><ele>64.0</ele><time>2026-03-30T12:10:42Z</time></trkpt><trkpt lat="39.57942981129395" lon="8.663669165511168"><ele>63.5</ele><time>2026-03-30T12:10:43Z</time></trkpt><trkpt lat="39.5792157584515" lon="8.663492468866824"><ele>63.0</ele><time>2026-03-30T12:10:44Z</time></trkpt><trkpt lat="39.579001831031945" lon="8.663314263471285"><ele>63.0</ele><time>2026-03-30T12:10:45Z</time></trkpt><trkpt lat="39.57878902657425" lon="8.663132648977228"><ele>63.0</ele><time>2026-03-30T12:10:46Z</time></trkpt><trkpt lat="39.57857429381703" lon="8.662950832806624"><ele>63.5</ele><time>2026-03-30T12:10:47Z</time></trkpt><trkpt lat="39.57835895610519" lon="8.662774347113869"><ele>64.0</ele><time>2026-03-30T12:10:48Z</time></trkpt><trkpt lat="39.578144425201074" lon="8.662605302999417"><ele>64.0</ele><time>2026-03-30T12:10:49Z</time></trkpt><trkpt lat="39.57793220323726" lon="8.662431471409159"><ele>64.0</ele><time>2026-03-30T12:10:50Z</time></trkpt><trkpt lat="39.57772288668556" lon="8.6622531201371"><ele>65.5</ele><time>2026-03-30T12:10:51Z</time></trkpt><trkpt lat="39.57751297474123" lon="8.662076398180364"><ele>67.0</ele><time>2026-03-30T12:10:52Z</time></trkpt><trkpt lat="39.577300485046855" lon="8.66189695944571"><ele>67.0</ele><time>2026-03-30T12:10:53Z</time></trkpt><trkpt lat="39.577086589610744" lon="8.661717955554783"><ele>67.0</ele><time>2026-03-30T12:10:54Z</time></trkpt><trkpt lat="39.5768709695924" lon="8.661539281648865"><ele>67.0</ele><time>2026-03-30T12:10:55Z</time></trkpt><trkpt lat="39.57665117470437" lon="8.661360344700434"><ele>67.0</ele><time>2026-03-30T12:10:56Z</time></trkpt><trkpt lat="39.57643297904309" lon="8.661180787198807"><ele>67.0</ele><time>2026-03-30T12:10:57Z</time></trkpt><trkpt lat="39.57621645922462" lon="8.66099311875834"><ele>67.0</ele><time>2026-03-30T12:10:58Z</time></trkpt><trkpt lat="39.576000621870975" lon="8.660807048167257"><ele>67.5</ele><time>2026-03-30T12:10:59Z</time></trkpt><trkpt lat="39.575780497710895" lon="8.660628704649493"><ele>68.0</ele><time>2026-03-30T12:11:00Z</time></trkpt><trkpt lat="39.5755592194881" lon="8.660447906021407"><ele>67.5</ele><time>2026-03-30T12:11:01Z</time></trkpt><trkpt lat="39.57533958838421" lon="8.66026612071116"><ele>67.0</ele><time>2026-03-30T12:11:02Z</time></trkpt><trkpt lat="39.57512136410926" lon="8.660082633902514"><ele>67.0</ele><time>2026-03-30T12:11:03Z</time></trkpt><trkpt lat="39.57490144722077" lon="8.659903894283117"><ele>67.0</ele><time>2026-03-30T12:11:04Z</time></trkpt><trkpt lat="39.5746828022173" lon="8.659722145091605"><ele>67.5</ele><time>2026-03-30T12:11:05Z</time></trkpt><trkpt lat="39.5744622033632" lon="8.659543110034978"><ele>68.0</ele><time>2026-03-30T12:11:06Z</time></trkpt><trkpt lat="39.574239771539105" lon="8.65936627433683"><ele>68.0</ele><time>2026-03-30T12:11:07Z</time></trkpt><trkpt lat="39.57402797958219" lon="8.659165014102243"><ele>68.0</ele><time>2026-03-30T12:11:08Z</time></trkpt><trkpt lat="39.57379796688781" lon="8.658998177481484"><ele>69.0</ele><time>2026-03-30T12:11:09Z</time></trkpt><trkpt lat="39.57357927054538" lon="8.658809352516096"><ele>70.0</ele><time>2026-03-30T12:11:10Z</time></trkpt><trkpt lat="39.57335546352235" lon="8.658623461122321"><ele>69.5</ele><time>2026-03-30T12:11:11Z</time></trkpt><trkpt lat="39.57313137501739" lon="8.658436862269987"><ele>69.0</ele><time>2026-03-30T12:11:12Z</time></trkpt><trkpt lat="39.57290775322057" lon="8.658248706886958"><ele>70.5</ele><time>2026-03-30T12:11:13Z</time></trkpt><trkpt lat="39.572682482495985" lon="8.658060309203792"><ele>72.0</ele><time>2026-03-30T12:11:14Z</time></trkpt><trkpt lat="39.57245890888379" lon="8.657867969460149"><ele>72.0</ele><time>2026-03-30T12:11:15Z</time></trkpt><trkpt lat="39.57223318464413" lon="8.657681151938196"><ele>72.0</ele><time>2026-03-30T12:11:16Z</time></trkpt><trkpt lat="39.572009383882495" lon="8.65749641885196"><ele>72.0</ele><time>2026-03-30T12:11:17Z</time></trkpt><trkpt lat="39.57178892932493" lon="8.657315332153585"><ele>72.0</ele><time>2026-03-30T12:11:18Z</time></trkpt><trkpt lat="39.57158063889657" lon="8.657142219207243"><ele>72.0</ele><time>2026-03-30T12:11:19Z</time></trkpt><trkpt lat="39.57138541982161" lon="8.656972960352286"><ele>72.0</ele><time>2026-03-30T12:11:20Z</time></trkpt><trkpt lat="39.57120108587569" lon="8.656806402264607"><ele>72.0</ele><time>2026-03-30T12:11:21Z</time></trkpt><trkpt lat="39.57102287199896" lon="8.656654108045096"><ele>72.0</ele><time>2026-03-30T12:11:22Z</time></trkpt><trkpt lat="39.57085434157822" lon="8.656518913563866"><ele>72.0</ele><time>2026-03-30T12:11:23Z</time></trkpt><trkpt lat="39.570691677822325" lon="8.656388673072001"><ele>72.0</ele><time>2026-03-30T12:11:24Z</time></trkpt><trkpt lat="39.57053901617858" lon="8.656264508266904"><ele>72.0</ele><time>2026-03-30T12:11:25Z</time></trkpt><trkpt lat="39.57040388759774" lon="8.65615569589729"><ele>72.0</ele><time>2026-03-30T12:11:26Z</time></trkpt><trkpt lat="39.57028912748843" lon="8.656060562078112"><ele>72.25</ele><time>2026-03-30T12:11:27Z</time></trkpt><trkpt lat="39.570203300015294" lon="8.655985699091227"><ele>72.5</ele><time>2026-03-30T12:11:28Z</time></trkpt><trkpt lat="39.57014672019224" lon="8.655921166151684"><ele>72.75</ele><time>2026-03-30T12:11:29Z</time></trkpt><trkpt lat="39.57005215583984" lon="8.655863931798914"><ele>73.0</ele><time>2026-03-30T12:11:31Z</time></trkpt><trkpt lat="39.56995340286754" lon="8.65610196052756"><ele>72.75</ele><time>2026-03-30T12:11:32Z</time></trkpt><trkpt lat="39.569894088549724" lon="8.656195206306169"><ele>72.5</ele><time>2026-03-30T12:11:33Z</time></trkpt><trkpt lat="39.569849463204385" lon="8.656347235085372"><ele>72.25</ele><time>2026-03-30T12:11:34Z</time></trkpt><trkpt lat="39.569777914206846" lon="8.656516213312264"><ele>72.0</ele><time>2026-03-30T12:11:35Z</time></trkpt><trkpt lat="39.569679979929866" lon="8.656692946623519"><ele>72.0</ele><time>2026-03-30T12:11:36Z</time></trkpt><trkpt lat="39.56959622815271" lon="8.65684566094134"><ele>72.0</ele><time>2026-03-30T12:11:37Z</time></trkpt><trkpt lat="39.56953822194159" lon="8.65698531813152"><ele>72.0</ele><time>2026-03-30T12:11:38Z</time></trkpt><trkpt lat="39.56951514866223" lon="8.657083267222003"><ele>72.0</ele><time>2026-03-30T12:11:39Z</time></trkpt><trkpt lat="39.5694636734412" lon="8.657170379958101"><ele>72.0</ele><time>2026-03-30T12:11:41Z</time></trkpt><trkpt lat="39.56957796021741" lon="8.657259690324066"><ele>72.0</ele><time>2026-03-30T12:11:42Z</time></trkpt><trkpt lat="39.569638334352" lon="8.65732847716897"><ele>72.0</ele><time>2026-03-30T12:11:43Z</time></trkpt><trkpt lat="39.569712057255984" lon="8.657412545509656"><ele>72.0</ele><time>2026-03-30T12:11:44Z</time></trkpt><trkpt lat="39.5697994566658" lon="8.657512209560641"><ele>72.0</ele><time>2026-03-30T12:11:45Z</time></trkpt><trkpt lat="39.56988642845737" lon="8.657624858433524"><ele>72.0</ele><time>2026-03-30T12:11:46Z</time></trkpt><trkpt lat="39.569968330762585" lon="8.657726480265548"><ele>72.25</ele><time>2026-03-30T12:11:47Z</time></trkpt><trkpt lat="39.57005242498856" lon="8.65778768730756"><ele>72.5</ele><time>2026-03-30T12:11:48Z</time></trkpt><trkpt lat="39.56998681584549" lon="8.658054660041087"><ele>72.75</ele><time>2026-03-30T12:11:50Z</time></trkpt><trkpt lat="39.56991070848092" lon="8.65816548801852"><ele>73.0</ele><time>2026-03-30T12:11:51Z</time></trkpt><trkpt lat="39.56983350289998" lon="8.658309304117232"><ele>73.0</ele><time>2026-03-30T12:11:52Z</time></trkpt><trkpt lat="39.56972359635964" lon="8.658433614926334"><ele>73.0</ele><time>2026-03-30T12:11:53Z</time></trkpt><trkpt lat="39.56960979707074" lon="8.658603477733637"><ele>73.0</ele><time>2026-03-30T12:11:54Z</time></trkpt><trkpt lat="39.56949347845672" lon="8.658795109934795"><ele>73.33333333333333</ele><time>2026-03-30T12:11:55Z</time></trkpt><trkpt lat="39.56937536220658" lon="8.65897092953452"><ele>73.66666666666667</ele><time>2026-03-30T12:11:56Z</time></trkpt><trkpt lat="39.569258662541884" lon="8.659128073336333"><ele>74.0</ele><time>2026-03-30T12:11:57Z</time></trkpt><trkpt lat="39.56914754537871" lon="8.659283588860493"><ele>74.0</ele><time>2026-03-30T12:11:58Z</time></trkpt><trkpt lat="39.56905232453987" lon="8.659421988974026"><ele>74.0</ele><time>2026-03-30T12:11:59Z</time></trkpt><trkpt lat="39.56896166190623" lon="8.659526834553986"><ele>74.0</ele><time>2026-03-30T12:12:00Z</time></trkpt><trkpt lat="39.568900325798054" lon="8.659603629326826"><ele>74.0</ele><time>2026-03-30T12:12:01Z</time></trkpt><trkpt lat="39.568799598942796" lon="8.65955350509718"><ele>74.0</ele><time>2026-03-30T12:12:02Z</time></trkpt><trkpt lat="39.56873293335199" lon="8.659498909205524"><ele>74.0</ele><time>2026-03-30T12:12:03Z</time></trkpt><trkpt lat="39.56867740352974" lon="8.659419622147755"><ele>74.0</ele><time>2026-03-30T12:12:04Z</time></trkpt><trkpt lat="39.568598624602785" lon="8.659353590630696"><ele>74.0</ele><time>2026-03-30T12:12:05Z</time></trkpt><trkpt lat="39.56850001614182" lon="8.659286667705192"><ele>74.0</ele><time>2026-03-30T12:12:06Z</time></trkpt><trkpt lat="39.568402844082414" lon="8.659207715021259"><ele>74.0</ele><time>2026-03-30T12:12:07Z</time></trkpt><trkpt lat="39.568292991856985" lon="8.65911556962529"><ele>74.0</ele><time>2026-03-30T12:12:08Z</time></trkpt><trkpt lat="39.56818392224228" lon="8.659021881525131"><ele>74.0</ele><time>2026-03-30T12:12:09Z</time></trkpt><trkpt lat="39.56808192073523" lon="8.658952414523338"><ele>74.0</ele><time>2026-03-30T12:12:10Z</time></trkpt><trkpt lat="39.56798961926866" lon="8.658874949122106"><ele>74.0</ele><time>2026-03-30T12:12:11Z</time></trkpt><trkpt lat="39.567888187808684" lon="8.658818325985504"><ele>74.0</ele><time>2026-03-30T12:12:12Z</time></trkpt><trkpt lat="39.567796437117586" lon="8.658719898999701"><ele>74.0</ele><time>2026-03-30T12:12:13Z</time></trkpt><trkpt lat="39.567702758081566" lon="8.658644409834158"><ele>74.0</ele><time>2026-03-30T12:12:14Z</time></trkpt><trkpt lat="39.5676202099183" lon="8.658577890234195"><ele>74.0</ele><time>2026-03-30T12:12:15Z</time></trkpt><trkpt lat="39.56754943476592" lon="8.658514146092676"><ele>74.25</ele><time>2026-03-30T12:12:16Z</time></trkpt><trkpt lat="39.56747577935808" lon="8.658475530596942"><ele>74.5</ele><time>2026-03-30T12:12:18Z</time></trkpt><trkpt lat="39.56736741885856" lon="8.65872916913635"><ele>74.75</ele><time>2026-03-30T12:12:19Z</time></trkpt><trkpt lat="39.56728055143648" lon="8.65874638382989"><ele>75.0</ele><time>2026-03-30T12:12:21Z</time></trkpt><trkpt lat="39.567268306060164" lon="8.658986502825408"><ele>75.0</ele><time>2026-03-30T12:12:32Z</time></trkpt><trkpt lat="39.56725504932095" lon="8.65915508815172"><ele>75.0</ele><time>2026-03-30T12:12:34Z</time></trkpt><trkpt lat="39.567246320385" lon="8.65925873356085"><ele>75.0</ele><time>2026-03-30T12:12:35Z</time></trkpt><trkpt lat="39.567237077811455" lon="8.659368477764053"><ele>75.0</ele><time>2026-03-30T12:12:36Z</time></trkpt><trkpt lat="39.567227823128704" lon="8.65947834010663"><ele>75.0</ele><time>2026-03-30T12:12:37Z</time></trkpt><trkpt lat="39.56721876161326" lon="8.659586532640159"><ele>75.0</ele><time>2026-03-30T12:12:38Z</time></trkpt><trkpt lat="39.56721038537779" lon="8.659686543091233"><ele>75.0</ele><time>2026-03-30T12:12:39Z</time></trkpt><trkpt lat="39.56720264094049" lon="8.659779010008466"><ele>75.0</ele><time>2026-03-30T12:12:40Z</time></trkpt><trkpt lat="39.56719528843872" lon="8.659866797311743"><ele>75.0</ele><time>2026-03-30T12:12:41Z</time></trkpt><trkpt lat="39.56718304468957" lon="8.660012985039872"><ele>75.0</ele><time>2026-03-30T12:12:43Z</time></trkpt><trkpt lat="39.56717543868814" lon="8.660103799141112"><ele>75.0</ele><time>2026-03-30T12:12:45Z</time></trkpt><trkpt lat="39.56708918691354" lon="8.660075182347642"><ele>75.0</ele><time>2026-03-30T12:12:52Z</time></trkpt><trkpt lat="39.56714888243896" lon="8.660034878797777"><ele>75.0</ele><time>2026-03-30T12:15:46.999Z</time></trkpt><trkpt lat="39.567208125084974" lon="8.660090903622123"><ele>75.0</ele><time>2026-03-30T12:15:50.999Z</time></trkpt><trkpt lat="39.56715667877686" lon="8.660142701697168"><ele>75.0</ele><time>2026-03-30T12:15:53.999Z</time></trkpt><trkpt lat="39.56708786312677" lon="8.660049616508879"><ele>75.0</ele><time>2026-03-30T12:15:56.999Z</time></trkpt><trkpt lat="39.56704495623162" lon="8.65997213451025"><ele>75.0</ele><time>2026-03-30T12:17:22.998Z</time></trkpt><trkpt lat="39.56713766847139" lon="8.659925129911686"><ele>75.0</ele><time>2026-03-30T12:18:28Z</time></trkpt><trkpt lat="39.56710144375202" lon="8.659847027803325"><ele>75.0</ele><time>2026-03-30T12:18:41Z</time></trkpt><trkpt lat="39.56703833965296" lon="8.65980925291244"><ele>75.0</ele><time>2026-03-30T12:18:51Z</time></trkpt><trkpt lat="39.56704735923962" lon="8.659725999473709"><ele>75.0</ele><time>2026-03-30T12:19:08Z</time></trkpt><trkpt lat="39.56703012950163" lon="8.659844948527711"><ele>75.0</ele><time>2026-03-30T12:19:23Z</time></trkpt><trkpt lat="39.567047216064864" lon="8.659925359743736"><ele>75.0</ele><time>2026-03-30T12:19:28Z</time></trkpt><trkpt lat="39.56704331565625" lon="8.659809781246503"><ele>75.0</ele><time>2026-03-30T12:55:59Z</time></trkpt><trkpt lat="39.56705429056866" lon="8.659959358779796"><ele>75.0</ele><time>2026-03-30T13:31:04.001Z</time></trkpt><trkpt lat="39.56699914020496" lon="8.659861554092153"><ele>75.0</ele><time>2026-03-30T13:51:54.001Z</time></trkpt><trkpt lat="39.56709052931898" lon="8.659861755215257"><ele>75.0</ele><time>2026-03-30T13:52:11Z</time></trkpt><trkpt lat="39.567131981543774" lon="8.659931703594872"><ele>75.0</ele><time>2026-03-30T13:52:21.001Z</time></trkpt><trkpt lat="39.567107011104746" lon="8.660007727851612"><ele>75.0</ele><time>2026-03-30T13:52:28.001Z</time></trkpt><trkpt lat="39.567068489148724" lon="8.660074159165854"><ele>75.0</ele><time>2026-03-30T14:04:23.002Z</time></trkpt><trkpt lat="39.56713877036294" lon="8.660095697771627"><ele>75.0</ele><time>2026-03-30T14:04:26.002Z</time></trkpt><trkpt lat="39.56722715659488" lon="8.660102631591734"><ele>75.0</ele><time>2026-03-30T14:04:28.002Z</time></trkpt><trkpt lat="39.567263918063446" lon="8.660015761348891"><ele>75.0</ele><time>2026-03-30T14:04:31.001Z</time></trkpt><trkpt lat="39.56724440595266" lon="8.65991219000163"><ele>75.0</ele><time>2026-03-30T14:04:35.001Z</time></trkpt><trkpt lat="39.56723035366723" lon="8.65981962972839"><ele>75.0</ele><time>2026-03-30T14:04:39.001Z</time></trkpt><trkpt lat="39.56722503341973" lon="8.659732907908662"><ele>75.0</ele><time>2026-03-30T14:04:43.001Z</time></trkpt><trkpt lat="39.56729303358258" lon="8.659715629948627"><ele>75.0</ele><time>2026-03-30T14:04:46.001Z</time></trkpt><trkpt lat="39.567332574044485" lon="8.659628236290585"><ele>75.0</ele><time>2026-03-30T14:05:41.001Z</time></trkpt><trkpt lat="39.567268955593775" lon="8.659558949516928"><ele>75.0</ele><time>2026-03-30T14:05:43.001Z</time></trkpt><trkpt lat="39.56722647477893" lon="8.659455764998038"><ele>75.0</ele><time>2026-03-30T14:05:45.001Z</time></trkpt><trkpt lat="39.567231218421625" lon="8.659357978761557"><ele>75.0</ele><time>2026-03-30T14:05:46.001Z</time></trkpt><trkpt lat="39.56724809398596" lon="8.659236228280298"><ele>75.16666666666667</ele><time>2026-03-30T14:05:47.001Z</time></trkpt><trkpt lat="39.567252461482724" lon="8.65909990702014"><ele>75.33333333333333</ele><time>2026-03-30T14:05:49.001Z</time></trkpt><trkpt lat="39.56725311393753" lon="8.658994221269305"><ele>75.5</ele><time>2026-03-30T14:05:52.001Z</time></trkpt><trkpt lat="39.567258811214906" lon="8.658893116733209"><ele>75.66666666666666</ele><time>2026-03-30T14:05:55.001Z</time></trkpt><trkpt lat="39.56728423788736" lon="8.658798654284553"><ele>75.83333333333333</ele><time>2026-03-30T14:05:58.001Z</time></trkpt><trkpt lat="39.56734010621455" lon="8.6587505762563"><ele>76.0</ele><time>2026-03-30T14:06:02.001Z</time></trkpt><trkpt lat="39.56740137761871" lon="8.658691804037282"><ele>76.0</ele><time>2026-03-30T14:06:04.001Z</time></trkpt><trkpt lat="39.56743495055489" lon="8.658609441778163"><ele>76.0</ele><time>2026-03-30T14:06:07.001Z</time></trkpt><trkpt lat="39.56748828177136" lon="8.658547451726497"><ele>76.0</ele><time>2026-03-30T14:06:11.001Z</time></trkpt><trkpt lat="39.56755571128952" lon="8.658577585349455"><ele>76.0</ele><time>2026-03-30T14:06:14.001Z</time></trkpt><trkpt lat="39.56759201868742" lon="8.658691107690565"><ele>76.0</ele><time>2026-03-30T14:06:17.001Z</time></trkpt><trkpt lat="39.56761953612457" lon="8.65879626078792"><ele>76.0</ele><time>2026-03-30T14:06:20.001Z</time></trkpt><trkpt lat="39.56766462675549" lon="8.658880647467925"><ele>76.0</ele><time>2026-03-30T14:06:23.001Z</time></trkpt><trkpt lat="39.56773681106523" lon="8.658937056067469"><ele>76.0</ele><time>2026-03-30T14:06:26.001Z</time></trkpt><trkpt lat="39.567800834258634" lon="8.658991407880809"><ele>76.0</ele><time>2026-03-30T14:06:28.997Z</time></trkpt><trkpt lat="39.567861849141124" lon="8.659033659300611"><ele>76.0</ele><time>2026-03-30T14:06:31.997Z</time></trkpt><trkpt lat="39.567919330202294" lon="8.658997650183455"><ele>76.0</ele><time>2026-03-30T14:06:34.997Z</time></trkpt><trkpt lat="39.56799060072375" lon="8.65895861077711"><ele>76.0</ele><time>2026-03-30T14:06:38.997Z</time></trkpt><trkpt lat="39.56805842235117" lon="8.65901035822982"><ele>75.66666666666666</ele><time>2026-03-30T14:06:41.997Z</time></trkpt><trkpt lat="39.56811903604884" lon="8.659061912450513"><ele>75.33333333333333</ele><time>2026-03-30T14:06:44.997Z</time></trkpt><trkpt lat="39.56818210970225" lon="8.659104064920149"><ele>75.0</ele><time>2026-03-30T14:06:46.998Z</time></trkpt><trkpt lat="39.56825243605268" lon="8.65915353605503"><ele>74.66666666666667</ele><time>2026-03-30T14:06:49.998Z</time></trkpt><trkpt lat="39.568321487298036" lon="8.659213582416578"><ele>74.33333333333334</ele><time>2026-03-30T14:06:52.998Z</time></trkpt><trkpt lat="39.568385755064675" lon="8.65927594731064"><ele>74.0</ele><time>2026-03-30T14:06:55.998Z</time></trkpt><trkpt lat="39.56844465679608" lon="8.659329651975966"><ele>74.0</ele><time>2026-03-30T14:06:58.998Z</time></trkpt><trkpt lat="39.568515614891815" lon="8.659395138052977"><ele>74.0</ele><time>2026-03-30T14:07:01.998Z</time></trkpt><trkpt lat="39.5685855979504" lon="8.659469519512665"><ele>74.0</ele><time>2026-03-30T14:07:03.998Z</time></trkpt><trkpt lat="39.56868221102758" lon="8.659561320689134"><ele>74.0</ele><time>2026-03-30T14:07:05.998Z</time></trkpt><trkpt lat="39.568767423124214" lon="8.6596043553913"><ele>74.0</ele><time>2026-03-30T14:07:07.998Z</time></trkpt><trkpt lat="39.56884525666459" lon="8.659640045419284"><ele>74.0</ele><time>2026-03-30T14:07:09.998Z</time></trkpt><trkpt lat="39.56898212355912" lon="8.659566780483113"><ele>74.0</ele><time>2026-03-30T14:07:11.998Z</time></trkpt><trkpt lat="39.56904060308064" lon="8.659525489539114"><ele>74.0</ele><time>2026-03-30T14:07:12.998Z</time></trkpt><trkpt lat="39.569089134387696" lon="8.659454858727853"><ele>74.0</ele><time>2026-03-30T14:07:13.999Z</time></trkpt><trkpt lat="39.569129017363686" lon="8.659371612850888"><ele>74.0</ele><time>2026-03-30T14:07:14.999Z</time></trkpt><trkpt lat="39.56918160094061" lon="8.659303739236758"><ele>74.0</ele><time>2026-03-30T14:07:15.999Z</time></trkpt><trkpt lat="39.56923556898228" lon="8.659245625648273"><ele>74.0</ele><time>2026-03-30T14:07:16.999Z</time></trkpt><trkpt lat="39.56931303988345" lon="8.659130762733884"><ele>74.0</ele><time>2026-03-30T14:07:18.999Z</time></trkpt><trkpt lat="39.5693936771483" lon="8.659013202710616"><ele>74.0</ele><time>2026-03-30T14:07:20.999Z</time></trkpt><trkpt lat="39.56944590495049" lon="8.6589619487744"><ele>74.0</ele><time>2026-03-30T14:07:21.999Z</time></trkpt><trkpt lat="39.56949543046723" lon="8.658904760199253"><ele>74.0</ele><time>2026-03-30T14:07:22.999Z</time></trkpt><trkpt lat="39.5695405735029" lon="8.658837371006442"><ele>74.0</ele><time>2026-03-30T14:07:23.999Z</time></trkpt><trkpt lat="39.56958320476021" lon="8.658766956946998"><ele>73.85714285714286</ele><time>2026-03-30T14:07:24.999Z</time></trkpt><trkpt lat="39.56962570053608" lon="8.65869741326586"><ele>73.71428571428571</ele><time>2026-03-30T14:07:25.999Z</time></trkpt><trkpt lat="39.56966704704651" lon="8.658633091297668"><ele>73.57142857142857</ele><time>2026-03-30T14:07:26.999Z</time></trkpt><trkpt lat="39.56971066725431" lon="8.658569865539258"><ele>73.42857142857143</ele><time>2026-03-30T14:07:27.999Z</time></trkpt><trkpt lat="39.56975425980021" lon="8.658509982887315"><ele>73.28571428571429</ele><time>2026-03-30T14:07:28.999Z</time></trkpt><trkpt lat="39.569798325772275" lon="8.658443907576133"><ele>73.14285714285714</ele><time>2026-03-30T14:07:29.999Z</time></trkpt><trkpt lat="39.56984492971619" lon="8.658382247044754"><ele>73.0</ele><time>2026-03-30T14:07:30.999Z</time></trkpt><trkpt lat="39.56989091464328" lon="8.65831293598937"><ele>73.0</ele><time>2026-03-30T14:07:31.999Z</time></trkpt><trkpt lat="39.5699359147037" lon="8.658244146666506"><ele>73.0</ele><time>2026-03-30T14:07:32.999Z</time></trkpt><trkpt lat="39.56997833783334" lon="8.658175841081013"><ele>73.0</ele><time>2026-03-30T14:07:33.999Z</time></trkpt><trkpt lat="39.57002125532673" lon="8.658102296942449"><ele>73.0</ele><time>2026-03-30T14:07:34.999Z</time></trkpt><trkpt lat="39.57005798270552" lon="8.658032667794632"><ele>73.0</ele><time>2026-03-30T14:07:35.999Z</time></trkpt><trkpt lat="39.570118191808234" lon="8.657928226881825"><ele>73.0</ele><time>2026-03-30T14:07:37.999Z</time></trkpt><trkpt lat="39.570022023468916" lon="8.657672308812685"><ele>72.83333333333333</ele><time>2026-03-30T14:07:40.999Z</time></trkpt><trkpt lat="39.569960403651706" lon="8.657607378329521"><ele>72.66666666666666</ele><time>2026-03-30T14:07:41.999Z</time></trkpt><trkpt lat="39.569902891605395" lon="8.65754401453896"><ele>72.5</ele><time>2026-03-30T14:07:42.999Z</time></trkpt><trkpt lat="39.56983292870791" lon="8.657491407112115"><ele>72.33333333333333</ele><time>2026-03-30T14:07:43.999Z</time></trkpt><trkpt lat="39.56976779621826" lon="8.657417817634967"><ele>72.16666666666667</ele><time>2026-03-30T14:07:44.999Z</time></trkpt><trkpt lat="39.5697142597157" lon="8.657328912180581"><ele>72.0</ele><time>2026-03-30T14:07:45.999Z</time></trkpt><trkpt lat="39.5696502920129" lon="8.657260296204734"><ele>72.0</ele><time>2026-03-30T14:07:46.999Z</time></trkpt><trkpt lat="39.56959530412195" lon="8.65718319662625"><ele>72.0</ele><time>2026-03-30T14:07:47.999Z</time></trkpt><trkpt lat="39.569577079891616" lon="8.65699799886766"><ele>72.0</ele><time>2026-03-30T14:07:49.999Z</time></trkpt><trkpt lat="39.56960063497708" lon="8.65691136432658"><ele>72.0</ele><time>2026-03-30T14:07:50.999Z</time></trkpt><trkpt lat="39.56964740208192" lon="8.656840242996537"><ele>72.0</ele><time>2026-03-30T14:07:51.999Z</time></trkpt><trkpt lat="39.56969775733446" lon="8.656772799134837"><ele>72.0</ele><time>2026-03-30T14:07:52.999Z</time></trkpt><trkpt lat="39.5697448398305" lon="8.65669671803197"><ele>72.0</ele><time>2026-03-30T14:07:53.999Z</time></trkpt><trkpt lat="39.56978959723305" lon="8.656616879367817"><ele>72.0</ele><time>2026-03-30T14:07:54.999Z</time></trkpt><trkpt lat="39.56982746989542" lon="8.656528480595675"><ele>72.0</ele><time>2026-03-30T14:07:55.999Z</time></trkpt><trkpt lat="39.56986083919445" lon="8.65644039903723"><ele>72.0</ele><time>2026-03-30T14:07:56.999Z</time></trkpt><trkpt lat="39.569894496360746" lon="8.656365809148122"><ele>72.0</ele><time>2026-03-30T14:07:57.999Z</time></trkpt><trkpt lat="39.56996827022245" lon="8.656246931779014"><ele>72.0</ele><time>2026-03-30T14:07:59.999Z</time></trkpt><trkpt lat="39.57001432132349" lon="8.65614142708125"><ele>72.16666666666667</ele><time>2026-03-30T14:08:01.999Z</time></trkpt><trkpt lat="39.57008419679923" lon="8.656117262772435"><ele>72.33333333333333</ele><time>2026-03-30T14:08:04.999Z</time></trkpt><trkpt lat="39.57011274982649" lon="8.65597848545823"><ele>72.5</ele><time>2026-03-30T14:08:11.999Z</time></trkpt><trkpt lat="39.57013840143413" lon="8.655895033650372"><ele>72.66666666666666</ele><time>2026-03-30T14:08:13.999Z</time></trkpt><trkpt lat="39.57007179121451" lon="8.65581637491098"><ele>72.83333333333333</ele><time>2026-03-30T14:08:14.999Z</time></trkpt><trkpt lat="39.569995950044905" lon="8.655775251946906"><ele>73.0</ele><time>2026-03-30T14:08:15.999Z</time></trkpt><trkpt lat="39.56991362291512" lon="8.655725882350776"><ele>73.0</ele><time>2026-03-30T14:08:16.999Z</time></trkpt><trkpt lat="39.5698266653395" lon="8.655654564772256"><ele>73.0</ele><time>2026-03-30T14:08:17.999Z</time></trkpt><trkpt lat="39.56973941032018" lon="8.655564646766242"><ele>73.0</ele><time>2026-03-30T14:08:18.999Z</time></trkpt><trkpt lat="39.569636399475385" lon="8.655473243054448"><ele>73.0</ele><time>2026-03-30T14:08:19.999Z</time></trkpt><trkpt lat="39.56952253976253" lon="8.655395923124562"><ele>73.25</ele><time>2026-03-30T14:08:20.999Z</time></trkpt><trkpt lat="39.56940757232067" lon="8.655312401143572"><ele>73.5</ele><time>2026-03-30T14:08:21.999Z</time></trkpt><trkpt lat="39.569292565345286" lon="8.65522576509136"><ele>73.75</ele><time>2026-03-30T14:08:22.999Z</time></trkpt><trkpt lat="39.56917959759022" lon="8.65513183405187"><ele>74.0</ele><time>2026-03-30T14:08:23.999Z</time></trkpt><trkpt lat="39.56906791259261" lon="8.6550256779096"><ele>74.0</ele><time>2026-03-30T14:08:24.999Z</time></trkpt><trkpt lat="39.568954904379154" lon="8.654920032170384"><ele>74.0</ele><time>2026-03-30T14:08:25.999Z</time></trkpt><trkpt lat="39.56883262309241" lon="8.654823104084517"><ele>74.0</ele><time>2026-03-30T14:08:26.999Z</time></trkpt><trkpt lat="39.56870799948672" lon="8.654729397399835"><ele>74.0</ele><time>2026-03-30T14:08:27.999Z</time></trkpt><trkpt lat="39.56857838127595" lon="8.654636391265194"><ele>73.75</ele><time>2026-03-30T14:08:28.999Z</time></trkpt><trkpt lat="39.56846202022625" lon="8.654520124547824"><ele>73.5</ele><time>2026-03-30T14:08:29.999Z</time></trkpt><trkpt lat="39.56833518375483" lon="8.654428272540988"><ele>73.25</ele><time>2026-03-30T14:08:30.999Z</time></trkpt><trkpt lat="39.56821284689186" lon="8.654338354379632"><ele>73.0</ele><time>2026-03-30T14:08:31.999Z</time></trkpt><trkpt lat="39.56809930015559" lon="8.654219775609265"><ele>73.0</ele><time>2026-03-30T14:08:32.999Z</time></trkpt><trkpt lat="39.56797926843666" lon="8.654119915742108"><ele>73.0</ele><time>2026-03-30T14:08:33.992Z</time></trkpt><trkpt lat="39.56785518044676" lon="8.654016470380155"><ele>73.0</ele><time>2026-03-30T14:08:34.992Z</time></trkpt><trkpt lat="39.567732942834" lon="8.653914567577223"><ele>73.0</ele><time>2026-03-30T14:08:35.992Z</time></trkpt><trkpt lat="39.567607189721954" lon="8.653809734094933"><ele>73.0</ele><time>2026-03-30T14:08:36.992Z</time></trkpt><trkpt lat="39.56748081250799" lon="8.653704380335418"><ele>73.0</ele><time>2026-03-30T14:08:37.992Z</time></trkpt><trkpt lat="39.567349727357396" lon="8.653612544801256"><ele>73.0</ele><time>2026-03-30T14:08:38.992Z</time></trkpt><trkpt lat="39.56722513244605" lon="8.65350341364711"><ele>73.0</ele><time>2026-03-30T14:08:39.993Z</time></trkpt><trkpt lat="39.56709863522378" lon="8.653395694745868"><ele>73.0</ele><time>2026-03-30T14:08:40.993Z</time></trkpt><trkpt lat="39.566973037643095" lon="8.653284787070692"><ele>73.0</ele><time>2026-03-30T14:08:41.993Z</time></trkpt><trkpt lat="39.56684918216244" lon="8.653174919669603"><ele>74.0</ele><time>2026-03-30T14:08:42.993Z</time></trkpt><trkpt lat="39.56672304228518" lon="8.653065084431354"><ele>75.0</ele><time>2026-03-30T14:08:43.993Z</time></trkpt><trkpt lat="39.56659591178232" lon="8.652953838111657"><ele>76.0</ele><time>2026-03-30T14:08:44.993Z</time></trkpt><trkpt lat="39.56646578561348" lon="8.652843510002697"><ele>76.0</ele><time>2026-03-30T14:08:45.993Z</time></trkpt><trkpt lat="39.566341624568196" lon="8.65273897006416"><ele>76.0</ele><time>2026-03-30T14:08:46.994Z</time></trkpt><trkpt lat="39.5662137035246" lon="8.652640468013894"><ele>76.0</ele><time>2026-03-30T14:08:47.994Z</time></trkpt><trkpt lat="39.566088240007005" lon="8.652536486623898"><ele>76.0</ele><time>2026-03-30T14:08:48.994Z</time></trkpt><trkpt lat="39.56596522114922" lon="8.652430947840982"><ele>75.5</ele><time>2026-03-30T14:08:49.994Z</time></trkpt><trkpt lat="39.5658418125903" lon="8.652324737365282"><ele>75.0</ele><time>2026-03-30T14:08:50.994Z</time></trkpt><trkpt lat="39.56571528218908" lon="8.652219186237234"><ele>74.5</ele><time>2026-03-30T14:08:51.995Z</time></trkpt><trkpt lat="39.56559004894035" lon="8.652114867492205"><ele>74.0</ele><time>2026-03-30T14:08:52.995Z</time></trkpt><trkpt lat="39.56546449699612" lon="8.65201172751088"><ele>75.0</ele><time>2026-03-30T14:08:53.995Z</time></trkpt><trkpt lat="39.56533810500065" lon="8.651908600069243"><ele>76.0</ele><time>2026-03-30T14:08:54.995Z</time></trkpt><trkpt lat="39.56521176004203" lon="8.651804636344519"><ele>77.0</ele><time>2026-03-30T14:08:55.995Z</time></trkpt><trkpt lat="39.565085920145215" lon="8.65170478050483"><ele>78.0</ele><time>2026-03-30T14:08:56.995Z</time></trkpt><trkpt lat="39.564964034252185" lon="8.65160208608966"><ele>78.0</ele><time>2026-03-30T14:08:57.996Z</time></trkpt><trkpt lat="39.56484283224283" lon="8.651496107112461"><ele>78.0</ele><time>2026-03-30T14:08:58.996Z</time></trkpt><trkpt lat="39.56472042396247" lon="8.651390523297405"><ele>78.0</ele><time>2026-03-30T14:08:59.996Z</time></trkpt><trkpt lat="39.56459882012428" lon="8.6512903064323"><ele>78.0</ele><time>2026-03-30T14:09:00.996Z</time></trkpt><trkpt lat="39.56447702996789" lon="8.651184871218266"><ele>78.5</ele><time>2026-03-30T14:09:01.996Z</time></trkpt><trkpt lat="39.56435376597117" lon="8.651080002157592"><ele>79.0</ele><time>2026-03-30T14:09:02.996Z</time></trkpt><trkpt lat="39.56423170767507" lon="8.650974728613262"><ele>79.5</ele><time>2026-03-30T14:09:03.996Z</time></trkpt><trkpt lat="39.56410881678312" lon="8.650865015643115"><ele>80.0</ele><time>2026-03-30T14:09:04.996Z</time></trkpt><trkpt lat="39.563980989181296" lon="8.650757382950747"><ele>80.0</ele><time>2026-03-30T14:09:05.996Z</time></trkpt><trkpt lat="39.563850948033696" lon="8.650649098000304"><ele>80.0</ele><time>2026-03-30T14:09:06.997Z</time></trkpt><trkpt lat="39.56372091501894" lon="8.650542715014321"><ele>80.0</ele><time>2026-03-30T14:09:07.997Z</time></trkpt><trkpt lat="39.56359070566592" lon="8.650432202500387"><ele>79.66666666666667</ele><time>2026-03-30T14:09:08.997Z</time></trkpt><trkpt lat="39.56345824834302" lon="8.650325095171734"><ele>79.33333333333333</ele><time>2026-03-30T14:09:09.997Z</time></trkpt><trkpt lat="39.56332672537658" lon="8.650216222181369"><ele>79.0</ele><time>2026-03-30T14:09:10.997Z</time></trkpt><trkpt lat="39.56319549562559" lon="8.650104710331883"><ele>79.0</ele><time>2026-03-30T14:09:11.997Z</time></trkpt><trkpt lat="39.563064210457654" lon="8.649995679937238"><ele>79.0</ele><time>2026-03-30T14:09:12.997Z</time></trkpt><trkpt lat="39.56293365130987" lon="8.649884687021576"><ele>79.0</ele><time>2026-03-30T14:09:13.997Z</time></trkpt><trkpt lat="39.56280134444911" lon="8.649777003402283"><ele>79.66666666666666</ele><time>2026-03-30T14:09:14.997Z</time></trkpt><trkpt lat="39.56266940037442" lon="8.64966600261838"><ele>80.33333333333333</ele><time>2026-03-30T14:09:15.997Z</time></trkpt><trkpt lat="39.5625342988618" lon="8.649555750534748"><ele>81.0</ele><time>2026-03-30T14:09:16.997Z</time></trkpt><trkpt lat="39.562401437047996" lon="8.64944524447084"><ele>81.0</ele><time>2026-03-30T14:09:17.997Z</time></trkpt><trkpt lat="39.56226865740245" lon="8.649336957974997"><ele>81.0</ele><time>2026-03-30T14:09:18.997Z</time></trkpt><trkpt lat="39.562136018532065" lon="8.649227138821404"><ele>81.0</ele><time>2026-03-30T14:09:19.997Z</time></trkpt><trkpt lat="39.56200141435156" lon="8.649114148075771"><ele>80.66666666666667</ele><time>2026-03-30T14:09:20.997Z</time></trkpt><trkpt lat="39.56186079617468" lon="8.64901374500592"><ele>80.33333333333334</ele><time>2026-03-30T14:09:21.998Z</time></trkpt><trkpt lat="39.56172110376406" lon="8.64891579743339"><ele>80.0</ele><time>2026-03-30T14:09:22.998Z</time></trkpt><trkpt lat="39.56159088073939" lon="8.648788723746787"><ele>80.0</ele><time>2026-03-30T14:09:23.998Z</time></trkpt><trkpt lat="39.56145871073804" lon="8.648678012499001"><ele>80.0</ele><time>2026-03-30T14:09:24.998Z</time></trkpt><trkpt lat="39.56132249714589" lon="8.648563914183466"><ele>80.0</ele><time>2026-03-30T14:09:25.998Z</time></trkpt><trkpt lat="39.56118105166966" lon="8.648445492160862"><ele>80.33333333333334</ele><time>2026-03-30T14:09:26.998Z</time></trkpt><trkpt lat="39.561029338971686" lon="8.648318630082398"><ele>80.66666666666667</ele><time>2026-03-30T14:09:27.998Z</time></trkpt><trkpt lat="39.56087597689568" lon="8.648211453008267"><ele>81.0</ele><time>2026-03-30T14:09:28.998Z</time></trkpt><trkpt lat="39.560733815816526" lon="8.648088048537256"><ele>81.0</ele><time>2026-03-30T14:09:29.998Z</time></trkpt><trkpt lat="39.5605872769061" lon="8.647968850358343"><ele>81.0</ele><time>2026-03-30T14:09:30.998Z</time></trkpt><trkpt lat="39.56043698083298" lon="8.647847636134685"><ele>81.0</ele><time>2026-03-30T14:09:31.998Z</time></trkpt><trkpt lat="39.560285710452604" lon="8.64772286258685"><ele>81.0</ele><time>2026-03-30T14:09:32.998Z</time></trkpt><trkpt lat="39.56013604343876" lon="8.647597220991901"><ele>81.0</ele><time>2026-03-30T14:09:33.998Z</time></trkpt><trkpt lat="39.55998581102062" lon="8.64746911365797"><ele>81.0</ele><time>2026-03-30T14:09:34.998Z</time></trkpt><trkpt lat="39.5598375589765" lon="8.647342735634817"><ele>81.0</ele><time>2026-03-30T14:09:35.998Z</time></trkpt><trkpt lat="39.55968583879702" lon="8.647220890187993"><ele>81.0</ele><time>2026-03-30T14:09:36.998Z</time></trkpt><trkpt lat="39.55953638012887" lon="8.647094749466856"><ele>81.0</ele><time>2026-03-30T14:09:37.998Z</time></trkpt><trkpt lat="39.559385621966506" lon="8.646967696070634"><ele>81.66666666666667</ele><time>2026-03-30T14:09:38.998Z</time></trkpt><trkpt lat="39.55923377859785" lon="8.64683848994313"><ele>82.33333333333334</ele><time>2026-03-30T14:09:39.998Z</time></trkpt><trkpt lat="39.559083874391945" lon="8.646713293132475"><ele>83.0</ele><time>2026-03-30T14:09:40.998Z</time></trkpt><trkpt lat="39.55893577632214" lon="8.646586052374854"><ele>83.0</ele><time>2026-03-30T14:09:41.998Z</time></trkpt><trkpt lat="39.558785657242154" lon="8.646461232374199"><ele>83.0</ele><time>2026-03-30T14:09:42.998Z</time></trkpt><trkpt lat="39.55863774759403" lon="8.646335238958425"><ele>83.0</ele><time>2026-03-30T14:09:43.998Z</time></trkpt><trkpt lat="39.55848687371323" lon="8.646208395076536"><ele>83.33333333333334</ele><time>2026-03-30T14:09:44.998Z</time></trkpt><trkpt lat="39.558333883386844" lon="8.64608336334215"><ele>83.66666666666667</ele><time>2026-03-30T14:09:45.998Z</time></trkpt><trkpt lat="39.55818360983272" lon="8.645959185286394"><ele>84.0</ele><time>2026-03-30T14:09:46.999Z</time></trkpt><trkpt lat="39.55803432130497" lon="8.645830019232882"><ele>84.0</ele><time>2026-03-30T14:09:47.999Z</time></trkpt><trkpt lat="39.55788097585805" lon="8.645704588123342"><ele>84.0</ele><time>2026-03-30T14:09:48.999Z</time></trkpt><trkpt lat="39.5577308506328" lon="8.64557554269728"><ele>84.0</ele><time>2026-03-30T14:09:49.999Z</time></trkpt><trkpt lat="39.55757569293446" lon="8.64545007470531"><ele>84.33333333333333</ele><time>2026-03-30T14:09:50.999Z</time></trkpt><trkpt lat="39.55742589991647" lon="8.64531886031318"><ele>84.66666666666666</ele><time>2026-03-30T14:09:51.999Z</time></trkpt><trkpt lat="39.55727546529726" lon="8.645196383329404"><ele>85.0</ele><time>2026-03-30T14:09:52.999Z</time></trkpt><trkpt lat="39.557123190082" lon="8.64507720070388"><ele>85.33333333333333</ele><time>2026-03-30T14:09:53.999Z</time></trkpt><trkpt lat="39.55697920405453" lon="8.644938179854854"><ele>85.66666666666667</ele><time>2026-03-30T14:09:54.999Z</time></trkpt><trkpt lat="39.55682249596364" lon="8.644826612613592"><ele>86.0</ele><time>2026-03-30T14:09:55.999Z</time></trkpt><trkpt lat="39.55667898691628" lon="8.644697481176184"><ele>86.0</ele><time>2026-03-30T14:09:56.999Z</time></trkpt><trkpt lat="39.556529005614124" lon="8.644575948726644"><ele>86.0</ele><time>2026-03-30T14:09:57.999Z</time></trkpt><trkpt lat="39.556382058061054" lon="8.644446410947747"><ele>86.0</ele><time>2026-03-30T14:09:58.999Z</time></trkpt><trkpt lat="39.55622821994726" lon="8.644325131736267"><ele>85.66666666666667</ele><time>2026-03-30T14:09:59.999Z</time></trkpt><trkpt lat="39.55607566429409" lon="8.644205959814803"><ele>85.33333333333333</ele><time>2026-03-30T14:10:00.999Z</time></trkpt><trkpt lat="39.555931105013954" lon="8.644087936423924"><ele>85.0</ele><time>2026-03-30T14:10:01.999Z</time></trkpt><trkpt lat="39.55577868576517" lon="8.643963724012691"><ele>85.0</ele><time>2026-03-30T14:10:02.999Z</time></trkpt><trkpt lat="39.55563070249607" lon="8.643841958551608"><ele>85.0</ele><time>2026-03-30T14:10:03.999Z</time></trkpt><trkpt lat="39.55548426494543" lon="8.643716111760142"><ele>85.0</ele><time>2026-03-30T14:10:04.999Z</time></trkpt><trkpt lat="39.55533667957365" lon="8.643590153029342"><ele>84.66666666666666</ele><time>2026-03-30T14:10:05.999Z</time></trkpt><trkpt lat="39.55518671605598" lon="8.643465072966096"><ele>84.33333333333333</ele><time>2026-03-30T14:10:06.999Z</time></trkpt><trkpt lat="39.555039184695126" lon="8.643335663008193"><ele>84.0</ele><time>2026-03-30T14:10:07.999Z</time></trkpt><trkpt lat="39.554580837333255" lon="8.642942528530842"><ele>85.0</ele><time>2026-03-30T14:10:10.999Z</time></trkpt><trkpt lat="39.554441585806046" lon="8.642816118863571"><ele>86.0</ele><time>2026-03-30T14:10:11.999Z</time></trkpt><trkpt lat="39.554120090309546" lon="8.642580400276858"><ele>86.5</ele><time>2026-03-30T14:10:13.999Z</time></trkpt><trkpt lat="39.553967895370384" lon="8.642449800652088"><ele>87.0</ele><time>2026-03-30T14:10:14.999Z</time></trkpt><trkpt lat="39.55350258680187" lon="8.642060570508026"><ele>88.0</ele><time>2026-03-30T14:10:17.999Z</time></trkpt><trkpt lat="39.55334758823083" lon="8.64193090924888"><ele>89.0</ele><time>2026-03-30T14:10:19Z</time></trkpt><trkpt lat="39.55320152099193" lon="8.641793449458522"><ele>90.0</ele><time>2026-03-30T14:10:19.999Z</time></trkpt><trkpt lat="39.55304081059114" lon="8.641668219429356"><ele>89.0</ele><time>2026-03-30T14:10:21Z</time></trkpt><trkpt lat="39.552731831730604" lon="8.641411238703085"><ele>88.0</ele><time>2026-03-30T14:10:23Z</time></trkpt><trkpt lat="39.552577748976894" lon="8.641285487236864"><ele>88.0</ele><time>2026-03-30T14:10:24Z</time></trkpt><trkpt lat="39.552423328530566" lon="8.641159172010994"><ele>88.0</ele><time>2026-03-30T14:10:25Z</time></trkpt><trkpt lat="39.552269762985574" lon="8.641029271325428"><ele>88.0</ele><time>2026-03-30T14:10:26Z</time></trkpt><trkpt lat="39.552114959592735" lon="8.640900682833468"><ele>88.66666666666666</ele><time>2026-03-30T14:10:27Z</time></trkpt><trkpt lat="39.55196023786212" lon="8.6407734087211"><ele>89.33333333333333</ele><time>2026-03-30T14:10:28Z</time></trkpt><trkpt lat="39.55180819835628" lon="8.64064445857787"><ele>90.0</ele><time>2026-03-30T14:10:29Z</time></trkpt><trkpt lat="39.55167293552237" lon="8.640529241904844"><ele>90.0</ele><time>2026-03-30T14:10:30Z</time></trkpt><trkpt lat="39.551500099371225" lon="8.640406894915266"><ele>90.0</ele><time>2026-03-30T14:10:31Z</time></trkpt><trkpt lat="39.551354794934696" lon="8.640278033181612"><ele>90.0</ele><time>2026-03-30T14:10:32Z</time></trkpt><trkpt lat="39.55120966341344" lon="8.640160262737377"><ele>91.66666666666667</ele><time>2026-03-30T14:10:33Z</time></trkpt><trkpt lat="39.55106704004573" lon="8.640035486485676"><ele>93.33333333333334</ele><time>2026-03-30T14:10:34Z</time></trkpt><trkpt lat="39.55092427499616" lon="8.639914856501836"><ele>95.0</ele><time>2026-03-30T14:10:35Z</time></trkpt><trkpt lat="39.55077975398442" lon="8.639795388766027"><ele>95.0</ele><time>2026-03-30T14:10:36Z</time></trkpt><trkpt lat="39.55048708324642" lon="8.63955498247376"><ele>95.0</ele><time>2026-03-30T14:10:38Z</time></trkpt><trkpt lat="39.55033860953644" lon="8.639422987396344"><ele>96.0</ele><time>2026-03-30T14:10:39Z</time></trkpt><trkpt lat="39.55018915777724" lon="8.639299482436277"><ele>97.0</ele><time>2026-03-30T14:10:39.993Z</time></trkpt><trkpt lat="39.55003565320169" lon="8.639172555805379"><ele>98.0</ele><time>2026-03-30T14:10:40.993Z</time></trkpt><trkpt lat="39.54988399564616" lon="8.63904247620939"><ele>98.0</ele><time>2026-03-30T14:10:41.993Z</time></trkpt><trkpt lat="39.549731876361605" lon="8.638913855960727"><ele>98.0</ele><time>2026-03-30T14:10:42.993Z</time></trkpt><trkpt lat="39.54958417403521" lon="8.638783163661355"><ele>98.0</ele><time>2026-03-30T14:10:43.993Z</time></trkpt><trkpt lat="39.54943454648721" lon="8.638660219413543"><ele>98.5</ele><time>2026-03-30T14:10:44.993Z</time></trkpt><trkpt lat="39.549151938898326" lon="8.638412272345048"><ele>99.0</ele><time>2026-03-30T14:10:46.994Z</time></trkpt><trkpt lat="39.549007946179785" lon="8.638294217157563"><ele>99.0</ele><time>2026-03-30T14:10:47.994Z</time></trkpt><trkpt lat="39.548863724289916" lon="8.638175996714978"><ele>99.0</ele><time>2026-03-30T14:10:48.994Z</time></trkpt><trkpt lat="39.54872056225052" lon="8.638058705425157"><ele>99.0</ele><time>2026-03-30T14:10:49.994Z</time></trkpt><trkpt lat="39.548577135347486" lon="8.637942771470831"><ele>100.0</ele><time>2026-03-30T14:10:50.994Z</time></trkpt><trkpt lat="39.548453442595516" lon="8.63781205752779"><ele>101.0</ele><time>2026-03-30T14:10:51.994Z</time></trkpt><trkpt lat="39.54832898066723" lon="8.637706810017908"><ele>102.0</ele><time>2026-03-30T14:10:52.994Z</time></trkpt><trkpt lat="39.54820527349782" lon="8.637603205751615"><ele>102.0</ele><time>2026-03-30T14:10:53.995Z</time></trkpt><trkpt lat="39.54798941461332" lon="8.63742449805722"><ele>102.0</ele><time>2026-03-30T14:10:55.995Z</time></trkpt><trkpt lat="39.547888928433544" lon="8.637341306444915"><ele>102.0</ele><time>2026-03-30T14:10:56.995Z</time></trkpt><trkpt lat="39.547792485138885" lon="8.637261461844357"><ele>102.0</ele><time>2026-03-30T14:10:57.995Z</time></trkpt><trkpt lat="39.54769407701754" lon="8.637179600921776"><ele>102.0</ele><time>2026-03-30T14:10:58.996Z</time></trkpt><trkpt lat="39.54759533017305" lon="8.637096470248792"><ele>102.0</ele><time>2026-03-30T14:10:59.996Z</time></trkpt><trkpt lat="39.547491313132355" lon="8.637008902790283"><ele>102.0</ele><time>2026-03-30T14:11:00.996Z</time></trkpt><trkpt lat="39.547382131014096" lon="8.636919258442186"><ele>102.0</ele><time>2026-03-30T14:11:01.996Z</time></trkpt><trkpt lat="39.54726938455" lon="8.636829177461673"><ele>102.0</ele><time>2026-03-30T14:11:02.996Z</time></trkpt><trkpt lat="39.547156622320514" lon="8.636738756855094"><ele>102.0</ele><time>2026-03-30T14:11:03.996Z</time></trkpt><trkpt lat="39.54704043972575" lon="8.636647039004886"><ele>102.0</ele><time>2026-03-30T14:11:04.997Z</time></trkpt><trkpt lat="39.546924002402385" lon="8.636555119841878"><ele>102.75</ele><time>2026-03-30T14:11:05.997Z</time></trkpt><trkpt lat="39.54679992916043" lon="8.636472964301872"><ele>103.5</ele><time>2026-03-30T14:11:06.997Z</time></trkpt><trkpt lat="39.54668314996566" lon="8.636374803969398"><ele>104.25</ele><time>2026-03-30T14:11:07.997Z</time></trkpt><trkpt lat="39.54656362356566" lon="8.636275375817391"><ele>105.0</ele><time>2026-03-30T14:11:08.997Z</time></trkpt><trkpt lat="39.546129891746" lon="8.635912745048097"><ele>105.2</ele><time>2026-03-30T14:11:12.997Z</time></trkpt><trkpt lat="39.54603872045493" lon="8.63584257001769"><ele>105.4</ele><time>2026-03-30T14:11:13.997Z</time></trkpt><trkpt lat="39.5459535657312" lon="8.63577656780917"><ele>105.6</ele><time>2026-03-30T14:11:14.998Z</time></trkpt><trkpt lat="39.54588130615577" lon="8.635708668569132"><ele>105.8</ele><time>2026-03-30T14:11:15.998Z</time></trkpt><trkpt lat="39.54581067491701" lon="8.635647069108431"><ele>106.0</ele><time>2026-03-30T14:11:16.998Z</time></trkpt><trkpt lat="39.54574368392302" lon="8.635594422749946"><ele>106.00000000000001</ele><time>2026-03-30T14:11:17.998Z</time></trkpt><trkpt lat="39.545684254717735" lon="8.635543507570803"><ele>106.0</ele><time>2026-03-30T14:11:18.998Z</time></trkpt><trkpt lat="39.545618117581235" lon="8.635489429225046"><ele>106.0</ele><time>2026-03-30T14:11:19.998Z</time></trkpt><trkpt lat="39.54551398760378" lon="8.635395742962658"><ele>106.0</ele><time>2026-03-30T14:11:21.998Z</time></trkpt><trkpt lat="39.54545377817043" lon="8.635343451375046"><ele>106.00000000000001</ele><time>2026-03-30T14:11:22.998Z</time></trkpt><trkpt lat="39.54538681103573" lon="8.635292842546185"><ele>106.0</ele><time>2026-03-30T14:11:23.998Z</time></trkpt><trkpt lat="39.545254053371686" lon="8.635182466285544"><ele>106.50000000000001</ele><time>2026-03-30T14:11:25.998Z</time></trkpt><trkpt lat="39.54518274207774" lon="8.63512265327098"><ele>107.0</ele><time>2026-03-30T14:11:26.998Z</time></trkpt><trkpt lat="39.54511491518674" lon="8.63505870507699"><ele>107.5</ele><time>2026-03-30T14:11:27.998Z</time></trkpt><trkpt lat="39.54504440465189" lon="8.635000770843163"><ele>108.0</ele><time>2026-03-30T14:11:28.998Z</time></trkpt><trkpt lat="39.544971527732585" lon="8.634938081085568"><ele>108.50000000000001</ele><time>2026-03-30T14:11:29.998Z</time></trkpt><trkpt lat="39.544895484386075" lon="8.634881890151394"><ele>109.0</ele><time>2026-03-30T14:11:30.998Z</time></trkpt><trkpt lat="39.54482170616757" lon="8.634815200180203"><ele>109.0</ele><time>2026-03-30T14:11:31.999Z</time></trkpt><trkpt lat="39.54474862920126" lon="8.634749595036084"><ele>109.0</ele><time>2026-03-30T14:11:32.999Z</time></trkpt><trkpt lat="39.54467330844384" lon="8.634687776821929"><ele>109.0</ele><time>2026-03-30T14:11:33.999Z</time></trkpt><trkpt lat="39.544598958815875" lon="8.634620367597867"><ele>109.0</ele><time>2026-03-30T14:11:34.999Z</time></trkpt><trkpt lat="39.54444396031773" lon="8.634491748168244"><ele>109.83333333333334</ele><time>2026-03-30T14:11:36.999Z</time></trkpt><trkpt lat="39.5443687818244" lon="8.634428874986899"><ele>110.66666666666667</ele><time>2026-03-30T14:11:37.999Z</time></trkpt><trkpt lat="39.54430900760713" lon="8.634373401873864"><ele>111.5</ele><time>2026-03-30T14:11:38.999Z</time></trkpt><trkpt lat="39.54424682223487" lon="8.634318555599778"><ele>112.33333333333334</ele><time>2026-03-30T14:11:39.999Z</time></trkpt><trkpt lat="39.5441918259932" lon="8.634271867282393"><ele>113.16666666666667</ele><time>2026-03-30T14:11:40.999Z</time></trkpt><trkpt lat="39.544129560787646" lon="8.63422015291522"><ele>114.0</ele><time>2026-03-30T14:11:41.999Z</time></trkpt><trkpt lat="39.544064503800385" lon="8.634173021372613"><ele>114.0</ele><time>2026-03-30T14:11:42.999Z</time></trkpt><trkpt lat="39.54399444651765" lon="8.634123289149356"><ele>114.0</ele><time>2026-03-30T14:11:43.999Z</time></trkpt><trkpt lat="39.54392689825641" lon="8.63406414076187"><ele>114.0</ele><time>2026-03-30T14:11:44.999Z</time></trkpt><trkpt lat="39.543853982627816" lon="8.634003318436212"><ele>114.0</ele><time>2026-03-30T14:11:45.999Z</time></trkpt><trkpt lat="39.54377880849221" lon="8.633931401665746"><ele>114.0</ele><time>2026-03-30T14:11:46.999Z</time></trkpt><trkpt lat="39.5436950927999" lon="8.633864455711382"><ele>114.0</ele><time>2026-03-30T14:11:47.999Z</time></trkpt><trkpt lat="39.54360653915979" lon="8.633792742360264"><ele>114.2</ele><time>2026-03-30T14:11:48.999Z</time></trkpt><trkpt lat="39.54351232967226" lon="8.633716742544447"><ele>114.4</ele><time>2026-03-30T14:11:49.999Z</time></trkpt><trkpt lat="39.5434152730391" lon="8.63364766710763"><ele>114.6</ele><time>2026-03-30T14:11:50.999Z</time></trkpt><trkpt lat="39.54331785734266" lon="8.633568188417318"><ele>114.8</ele><time>2026-03-30T14:11:51.999Z</time></trkpt><trkpt lat="39.54322656881813" lon="8.633485239875892"><ele>115.0</ele><time>2026-03-30T14:11:52.999Z</time></trkpt><trkpt lat="39.54314179772606" lon="8.633415105095583"><ele>115.2</ele><time>2026-03-30T14:11:53.999Z</time></trkpt><trkpt lat="39.54301266637178" lon="8.633306666398182"><ele>115.4</ele><time>2026-03-30T14:11:55.999Z</time></trkpt><trkpt lat="39.542990040606576" lon="8.633153594381296"><ele>115.6</ele><time>2026-03-30T14:11:58Z</time></trkpt><trkpt lat="39.542993575965546" lon="8.633013421376244"><ele>115.8</ele><time>2026-03-30T14:12:00Z</time></trkpt><trkpt lat="39.54294242779836" lon="8.632964032360979"><ele>116.0</ele><time>2026-03-30T14:12:01Z</time></trkpt><trkpt lat="39.5428103758267" lon="8.632981478145302"><ele>116.42857142857144</ele><time>2026-03-30T14:12:03Z</time></trkpt><trkpt lat="39.542741229124616" lon="8.633011503338995"><ele>116.85714285714286</ele><time>2026-03-30T14:12:04Z</time></trkpt><trkpt lat="39.54267265764832" lon="8.633007160297664"><ele>117.28571428571429</ele><time>2026-03-30T14:12:05Z</time></trkpt><trkpt lat="39.54261023343336" lon="8.632979800817878"><ele>117.71428571428572</ele><time>2026-03-30T14:12:06Z</time></trkpt><trkpt lat="39.54254319611988" lon="8.63293718358383"><ele>118.14285714285714</ele><time>2026-03-30T14:12:07Z</time></trkpt><trkpt lat="39.542475193474196" lon="8.632879410911611"><ele>118.57142857142857</ele><time>2026-03-30T14:12:08Z</time></trkpt><trkpt lat="39.54241109880316" lon="8.632818097186242"><ele>119.0</ele><time>2026-03-30T14:12:09Z</time></trkpt><trkpt lat="39.542349248487724" lon="8.632758513245577"><ele>118.99999999999999</ele><time>2026-03-30T14:12:10Z</time></trkpt><trkpt lat="39.542285612401564" lon="8.632697553045176"><ele>119.0</ele><time>2026-03-30T14:12:11Z</time></trkpt><trkpt lat="39.54221979263689" lon="8.632639334914254"><ele>119.0</ele><time>2026-03-30T14:12:12Z</time></trkpt><trkpt lat="39.542155982909755" lon="8.63258381212235"><ele>119.0</ele><time>2026-03-30T14:12:13Z</time></trkpt><trkpt lat="39.542092357004734" lon="8.632526274431253"><ele>118.99999999999999</ele><time>2026-03-30T14:12:14Z</time></trkpt><trkpt lat="39.54202675990341" lon="8.632467740553174"><ele>119.0</ele><time>2026-03-30T14:12:15Z</time></trkpt><trkpt lat="39.541959406261434" lon="8.632409531772486"><ele>119.49999999999999</ele><time>2026-03-30T14:12:16Z</time></trkpt><trkpt lat="39.54189390554647" lon="8.632353621810779"><ele>120.0</ele><time>2026-03-30T14:12:17Z</time></trkpt><trkpt lat="39.541824842141075" lon="8.632293666811536"><ele>120.5</ele><time>2026-03-30T14:12:18Z</time></trkpt><trkpt lat="39.541756394078504" lon="8.632235734891696"><ele>121.0</ele><time>2026-03-30T14:12:19Z</time></trkpt><trkpt lat="39.54168369281274" lon="8.632181180789214"><ele>121.49999999999999</ele><time>2026-03-30T14:12:20Z</time></trkpt><trkpt lat="39.54161055289796" lon="8.632126798593635"><ele>122.0</ele><time>2026-03-30T14:12:21Z</time></trkpt><trkpt lat="39.54154375829264" lon="8.632072073599868"><ele>121.99999999999999</ele><time>2026-03-30T14:12:22Z</time></trkpt><trkpt lat="39.54147579008713" lon="8.632012235811285"><ele>122.0</ele><time>2026-03-30T14:12:23Z</time></trkpt><trkpt lat="39.54140360008521" lon="8.63195647892965"><ele>122.0</ele><time>2026-03-30T14:12:24Z</time></trkpt><trkpt lat="39.541336339632274" lon="8.63189958955678"><ele>122.0</ele><time>2026-03-30T14:12:25Z</time></trkpt><trkpt lat="39.541277517923895" lon="8.631848533347766"><ele>121.99999999999999</ele><time>2026-03-30T14:12:26Z</time></trkpt><trkpt lat="39.54123064714757" lon="8.631793897476596"><ele>122.0</ele><time>2026-03-30T14:12:27Z</time></trkpt><trkpt lat="39.54115931582659" lon="8.631745996131636"><ele>122.66666666666666</ele><time>2026-03-30T14:12:29Z</time></trkpt><trkpt lat="39.541096094924455" lon="8.631712453564157"><ele>123.33333333333333</ele><time>2026-03-30T14:12:32.001Z</time></trkpt><trkpt lat="39.541030495523586" lon="8.63164945650845"><ele>124.0</ele><time>2026-03-30T14:12:35.001Z</time></trkpt><trkpt lat="39.540955335903675" lon="8.631570930176004"><ele>124.66666666666666</ele><time>2026-03-30T14:12:38.001Z</time></trkpt><trkpt lat="39.540899976618114" lon="8.631529097208105"><ele>125.33333333333333</ele><time>2026-03-30T14:12:40.001Z</time></trkpt><trkpt lat="39.54082826150052" lon="8.631437241487506"><ele>126.0</ele><time>2026-03-30T14:12:42.001Z</time></trkpt><trkpt lat="39.540726027527356" lon="8.631449493426695"><ele>126.0</ele><time>2026-03-30T14:12:43.001Z</time></trkpt><trkpt lat="39.54065868725719" lon="8.63146376269602"><ele>126.0</ele><time>2026-03-30T14:12:44.001Z</time></trkpt><trkpt lat="39.54058958413435" lon="8.631475618244648"><ele>126.0</ele><time>2026-03-30T14:12:45.001Z</time></trkpt><trkpt lat="39.54050919605156" lon="8.631491040029884"><ele>126.0</ele><time>2026-03-30T14:12:45.994Z</time></trkpt><trkpt lat="39.540421522694515" lon="8.631496736250181"><ele>126.0</ele><time>2026-03-30T14:12:46.995Z</time></trkpt><trkpt lat="39.540320840850654" lon="8.631507309415248"><ele>126.0</ele><time>2026-03-30T14:12:47.995Z</time></trkpt><trkpt lat="39.540220481406365" lon="8.631513659230423"><ele>125.5</ele><time>2026-03-30T14:12:48.995Z</time></trkpt><trkpt lat="39.54012723474959" lon="8.63151156805652"><ele>125.0</ele><time>2026-03-30T14:12:49.995Z</time></trkpt><trkpt lat="39.540038366470824" lon="8.63150310597967"><ele>124.5</ele><time>2026-03-30T14:12:50.996Z</time></trkpt><trkpt lat="39.539954024082455" lon="8.631496132417395"><ele>124.0</ele><time>2026-03-30T14:12:51.996Z</time></trkpt><trkpt lat="39.53987379987017" lon="8.631474445741949"><ele>123.5</ele><time>2026-03-30T14:12:52.996Z</time></trkpt><trkpt lat="39.53979794964459" lon="8.631438939182052"><ele>123.0</ele><time>2026-03-30T14:12:53.997Z</time></trkpt><trkpt lat="39.53963304915579" lon="8.63136746491195"><ele>123.0</ele><time>2026-03-30T14:12:55.997Z</time></trkpt><trkpt lat="39.539550349545316" lon="8.6313326750244"><ele>123.0</ele><time>2026-03-30T14:12:56.997Z</time></trkpt><trkpt lat="39.53947936040256" lon="8.631301429426308"><ele>123.0</ele><time>2026-03-30T14:12:57.997Z</time></trkpt><trkpt lat="39.539415324311626" lon="8.631268994157702"><ele>123.0</ele><time>2026-03-30T14:12:58.997Z</time></trkpt><trkpt lat="39.539356661944666" lon="8.631233716266753"><ele>123.0</ele><time>2026-03-30T14:12:59.997Z</time></trkpt><trkpt lat="39.53924129529829" lon="8.631187459924101"><ele>123.0</ele><time>2026-03-30T14:13:01.998Z</time></trkpt><trkpt lat="39.539133329513085" lon="8.631139189756192"><ele>123.0</ele><time>2026-03-30T14:13:03.998Z</time></trkpt><trkpt lat="39.53903395639529" lon="8.631138255793651"><ele>123.0</ele><time>2026-03-30T14:13:05.998Z</time></trkpt><trkpt lat="39.538953556637345" lon="8.631100816536875"><ele>123.0</ele><time>2026-03-30T14:13:07.999Z</time></trkpt><trkpt lat="39.53887676851211" lon="8.631054943044006"><ele>123.0</ele><time>2026-03-30T14:13:09.999Z</time></trkpt><trkpt lat="39.538810750309594" lon="8.631028527838343"><ele>123.0</ele><time>2026-03-30T14:13:11.999Z</time></trkpt><trkpt lat="39.538727066769425" lon="8.63097452534481"><ele>123.0</ele><time>2026-03-30T14:14:07.002Z</time></trkpt><trkpt lat="39.53863403317012" lon="8.630922370129962"><ele>123.0</ele><time>2026-03-30T14:14:09.002Z</time></trkpt><trkpt lat="39.53855259441771" lon="8.63090962590945"><ele>123.00000000000001</ele><time>2026-03-30T14:14:11.002Z</time></trkpt><trkpt lat="39.53857947968586" lon="8.630743495647106"><ele>123.00000000000001</ele><time>2026-03-30T14:14:12.002Z</time></trkpt><trkpt lat="39.53862435185574" lon="8.630644810071443"><ele>123.0</ele><time>2026-03-30T14:14:13.002Z</time></trkpt><trkpt lat="39.538653097461435" lon="8.630517606565261"><ele>123.0</ele><time>2026-03-30T14:14:14.002Z</time></trkpt><trkpt lat="39.53866477487572" lon="8.630381384325016"><ele>123.33333333333334</ele><time>2026-03-30T14:14:15.002Z</time></trkpt><trkpt lat="39.53869673181003" lon="8.630246901847281"><ele>123.66666666666667</ele><time>2026-03-30T14:14:16.002Z</time></trkpt><trkpt lat="39.53873171725976" lon="8.630103729983446"><ele>124.0</ele><time>2026-03-30T14:14:17.002Z</time></trkpt><trkpt lat="39.53888037419131" lon="8.629522871955269"><ele>124.5</ele><time>2026-03-30T14:14:21.002Z</time></trkpt><trkpt lat="39.53894713920594" lon="8.629240204690388"><ele>125.0</ele><time>2026-03-30T14:14:23.002Z</time></trkpt><trkpt lat="39.53897145811761" lon="8.62910673333431"><ele>125.5</ele><time>2026-03-30T14:14:24.002Z</time></trkpt><trkpt lat="39.538988238911486" lon="8.628978895534347"><ele>126.0</ele><time>2026-03-30T14:14:25.002Z</time></trkpt><trkpt lat="39.53903645777656" lon="8.628726582030124"><ele>126.8</ele><time>2026-03-30T14:14:27.003Z</time></trkpt><trkpt lat="39.539057148542845" lon="8.628597022152686"><ele>127.6</ele><time>2026-03-30T14:14:28.003Z</time></trkpt><trkpt lat="39.539070763755916" lon="8.62846417243016"><ele>128.4</ele><time>2026-03-30T14:14:29.003Z</time></trkpt><trkpt lat="39.539093331424034" lon="8.628331406070432"><ele>129.2</ele><time>2026-03-30T14:14:30.003Z</time></trkpt><trkpt lat="39.53910880739985" lon="8.628196214801658"><ele>130.0</ele><time>2026-03-30T14:14:31.003Z</time></trkpt><trkpt lat="39.53911616810955" lon="8.628061858553847"><ele>130.0</ele><time>2026-03-30T14:14:32.003Z</time></trkpt><trkpt lat="39.53912937373116" lon="8.627928188111513"><ele>130.0</ele><time>2026-03-30T14:14:33.003Z</time></trkpt><trkpt lat="39.53914685830445" lon="8.627798699873015"><ele>130.0</ele><time>2026-03-30T14:14:34.003Z</time></trkpt><trkpt lat="39.5391677036484" lon="8.627666915618104"><ele>130.0</ele><time>2026-03-30T14:14:35.003Z</time></trkpt><trkpt lat="39.5392071746352" lon="8.627546801713276"><ele>130.0</ele><time>2026-03-30T14:14:36.003Z</time></trkpt><trkpt lat="39.53924506370517" lon="8.627431524720173"><ele>130.66666666666669</ele><time>2026-03-30T14:14:37.003Z</time></trkpt><trkpt lat="39.539280316321296" lon="8.627343691003961"><ele>131.33333333333334</ele><time>2026-03-30T14:14:38.003Z</time></trkpt><trkpt lat="39.539313095367035" lon="8.627272188680775"><ele>132.0</ele><time>2026-03-30T14:14:39.003Z</time></trkpt><trkpt lat="39.5393618270458" lon="8.627107798281898"><ele>132.66666666666666</ele><time>2026-03-30T14:14:41.003Z</time></trkpt><trkpt lat="39.539390173881756" lon="8.627010395297647"><ele>133.33333333333331</ele><time>2026-03-30T14:14:42.003Z</time></trkpt><trkpt lat="39.539413847542505" lon="8.62690155668221"><ele>134.0</ele><time>2026-03-30T14:14:43.003Z</time></trkpt><trkpt lat="39.53944283970055" lon="8.626791961547825"><ele>134.0</ele><time>2026-03-30T14:14:44.003Z</time></trkpt><trkpt lat="39.53947419508249" lon="8.626674446253135"><ele>134.0</ele><time>2026-03-30T14:14:45.003Z</time></trkpt><trkpt lat="39.539497732998996" lon="8.626548584036158"><ele>134.0</ele><time>2026-03-30T14:14:46.003Z</time></trkpt><trkpt lat="39.53952374577238" lon="8.62642284347638"><ele>134.0</ele><time>2026-03-30T14:14:47.003Z</time></trkpt><trkpt lat="39.53955592348675" lon="8.626309637520123"><ele>134.0</ele><time>2026-03-30T14:14:48.003Z</time></trkpt><trkpt lat="39.53958730564398" lon="8.626205930862014"><ele>133.57142857142858</ele><time>2026-03-30T14:14:49.003Z</time></trkpt><trkpt lat="39.539609040327775" lon="8.626124480318271"><ele>133.14285714285714</ele><time>2026-03-30T14:14:50.003Z</time></trkpt><trkpt lat="39.5396434976707" lon="8.62603822305879"><ele>132.71428571428572</ele><time>2026-03-30T14:14:51.996Z</time></trkpt><trkpt lat="39.53967740344143" lon="8.62594392332632"><ele>132.28571428571428</ele><time>2026-03-30T14:15:30Z</time></trkpt><trkpt lat="39.53971032271155" lon="8.62586430581923"><ele>131.85714285714286</ele><time>2026-03-30T14:15:31Z</time></trkpt><trkpt lat="39.53974345240641" lon="8.625784179350108"><ele>131.42857142857144</ele><time>2026-03-30T14:15:32Z</time></trkpt><trkpt lat="39.53977995849875" lon="8.625695886346833"><ele>131.0</ele><time>2026-03-30T14:15:33Z</time></trkpt><trkpt lat="39.53981476807765" lon="8.625605943860652"><ele>131.0</ele><time>2026-03-30T14:15:34.001Z</time></trkpt><trkpt lat="39.539845514183696" lon="8.625512974907748"><ele>131.0</ele><time>2026-03-30T14:15:35.001Z</time></trkpt><trkpt lat="39.53987284543844" lon="8.62541716455396"><ele>131.0</ele><time>2026-03-30T14:15:36.001Z</time></trkpt><trkpt lat="39.53989153772408" lon="8.62531020531133"><ele>131.0</ele><time>2026-03-30T14:15:37.001Z</time></trkpt><trkpt lat="39.53990187329889" lon="8.625202972943322"><ele>131.0</ele><time>2026-03-30T14:15:38.001Z</time></trkpt><trkpt lat="39.539894638862535" lon="8.625096356826594"><ele>131.0</ele><time>2026-03-30T14:15:39.001Z</time></trkpt><trkpt lat="39.539915957903396" lon="8.624995150933291"><ele>131.83333333333331</ele><time>2026-03-30T14:15:40.001Z</time></trkpt><trkpt lat="39.539926312278475" lon="8.624884515075257"><ele>132.66666666666666</ele><time>2026-03-30T14:15:41.001Z</time></trkpt><trkpt lat="39.53995017382571" lon="8.624780704727682"><ele>133.5</ele><time>2026-03-30T14:15:42.001Z</time></trkpt><trkpt lat="39.53998914018074" lon="8.624685655097664"><ele>134.33333333333334</ele><time>2026-03-30T14:15:43.001Z</time></trkpt><trkpt lat="39.540046250115275" lon="8.624599661582684"><ele>135.16666666666669</ele><time>2026-03-30T14:15:44.001Z</time></trkpt><trkpt lat="39.5401048745848" lon="8.624517436423746"><ele>136.0</ele><time>2026-03-30T14:15:45.001Z</time></trkpt><trkpt lat="39.54016309808255" lon="8.624433262104631"><ele>136.6</ele><time>2026-03-30T14:15:46.001Z</time></trkpt><trkpt lat="39.54022532941343" lon="8.624351874964647"><ele>137.2</ele><time>2026-03-30T14:15:47.001Z</time></trkpt><trkpt lat="39.54028818768823" lon="8.624266582735398"><ele>137.8</ele><time>2026-03-30T14:15:48.001Z</time></trkpt><trkpt lat="39.54035966614604" lon="8.62418780335171"><ele>138.4</ele><time>2026-03-30T14:15:49.001Z</time></trkpt><trkpt lat="39.54041496526988" lon="8.62408996234988"><ele>139.0</ele><time>2026-03-30T14:15:50.001Z</time></trkpt><trkpt lat="39.54044992480134" lon="8.623979940251294"><ele>139.4</ele><time>2026-03-30T14:15:51.001Z</time></trkpt><trkpt lat="39.540498760378036" lon="8.623877975264934"><ele>139.8</ele><time>2026-03-30T14:15:52.001Z</time></trkpt><trkpt lat="39.540525844706075" lon="8.623764452202575"><ele>140.2</ele><time>2026-03-30T14:15:53.001Z</time></trkpt><trkpt lat="39.54053074226152" lon="8.623648141843487"><ele>140.6</ele><time>2026-03-30T14:15:54.001Z</time></trkpt><trkpt lat="39.540524537094015" lon="8.623527120572321"><ele>141.0</ele><time>2026-03-30T14:15:55.001Z</time></trkpt><trkpt lat="39.54052490680578" lon="8.623403710220897"><ele>142.0</ele><time>2026-03-30T14:15:56.001Z</time></trkpt><trkpt lat="39.54052770051661" lon="8.62327825722191"><ele>143.0</ele><time>2026-03-30T14:15:57.001Z</time></trkpt><trkpt lat="39.54052987540425" lon="8.623152150277054"><ele>144.0</ele><time>2026-03-30T14:15:58.001Z</time></trkpt><trkpt lat="39.540536773548865" lon="8.623025037368981"><ele>145.0</ele><time>2026-03-30T14:15:59.001Z</time></trkpt><trkpt lat="39.54055116664616" lon="8.622906792124278"><ele>146.0</ele><time>2026-03-30T14:16:00.002Z</time></trkpt><trkpt lat="39.54059008114836" lon="8.622800251103452"><ele>146.8</ele><time>2026-03-30T14:16:01.002Z</time></trkpt><trkpt lat="39.54064400320201" lon="8.622707448117414"><ele>147.6</ele><time>2026-03-30T14:16:02.002Z</time></trkpt><trkpt lat="39.540720807444224" lon="8.622635879799141"><ele>148.4</ele><time>2026-03-30T14:16:03.002Z</time></trkpt><trkpt lat="39.540804433024846" lon="8.62258490717209"><ele>149.2</ele><time>2026-03-30T14:16:04.002Z</time></trkpt><trkpt lat="39.540880241465594" lon="8.62251808620005"><ele>150.0</ele><time>2026-03-30T14:16:05.002Z</time></trkpt><trkpt lat="39.54093127880086" lon="8.622418508751503"><ele>150.0</ele><time>2026-03-30T14:16:06.002Z</time></trkpt><trkpt lat="39.54096633947431" lon="8.622301330348545"><ele>150.0</ele><time>2026-03-30T14:16:07.002Z</time></trkpt><trkpt lat="39.54097429983442" lon="8.62217285162159"><ele>150.0</ele><time>2026-03-30T14:16:08.002Z</time></trkpt><trkpt lat="39.540973736733655" lon="8.622043656164891"><ele>150.0</ele><time>2026-03-30T14:16:09.002Z</time></trkpt><trkpt lat="39.54096963284252" lon="8.62191589365971"><ele>150.0</ele><time>2026-03-30T14:16:10.002Z</time></trkpt><trkpt lat="39.54096935774247" lon="8.621795177118289"><ele>150.8</ele><time>2026-03-30T14:16:11.002Z</time></trkpt><trkpt lat="39.54097795315472" lon="8.621678573397489"><ele>151.6</ele><time>2026-03-30T14:16:12.002Z</time></trkpt><trkpt lat="39.54101552971673" lon="8.621572789636291"><ele>152.4</ele><time>2026-03-30T14:16:13.002Z</time></trkpt><trkpt lat="39.54107883570104" lon="8.62148956843584"><ele>153.2</ele><time>2026-03-30T14:16:14.002Z</time></trkpt><trkpt lat="39.541154889139094" lon="8.621420687149163"><ele>154.0</ele><time>2026-03-30T14:16:15.002Z</time></trkpt><trkpt lat="39.541232909550764" lon="8.621343859014623"><ele>154.0</ele><time>2026-03-30T14:16:16.002Z</time></trkpt><trkpt lat="39.54130751650814" lon="8.621248040678541"><ele>154.0</ele><time>2026-03-30T14:16:17.002Z</time></trkpt><trkpt lat="39.54138411578466" lon="8.621150158494618"><ele>154.0</ele><time>2026-03-30T14:16:18.002Z</time></trkpt><trkpt lat="39.54146364837048" lon="8.621060108745638"><ele>154.0</ele><time>2026-03-30T14:16:19.002Z</time></trkpt><trkpt lat="39.541548972715596" lon="8.620970667983899"><ele>154.0</ele><time>2026-03-30T14:16:20.002Z</time></trkpt><trkpt lat="39.54161197448158" lon="8.620866012421287"><ele>155.2</ele><time>2026-03-30T14:16:21.002Z</time></trkpt><trkpt lat="39.54163946558262" lon="8.62074656430461"><ele>156.4</ele><time>2026-03-30T14:16:22.002Z</time></trkpt><trkpt lat="39.541621572155385" lon="8.620626323180318"><ele>157.6</ele><time>2026-03-30T14:16:23.002Z</time></trkpt><trkpt lat="39.54156299077787" lon="8.620531832072219"><ele>158.8</ele><time>2026-03-30T14:16:24.002Z</time></trkpt><trkpt lat="39.54148712440004" lon="8.620460057766417"><ele>160.0</ele><time>2026-03-30T14:16:25.002Z</time></trkpt><trkpt lat="39.54131878349344" lon="8.620314838950746"><ele>161.25</ele><time>2026-03-30T14:16:27.002Z</time></trkpt><trkpt lat="39.54123902053552" lon="8.620218566844395"><ele>162.5</ele><time>2026-03-30T14:16:28.002Z</time></trkpt><trkpt lat="39.541163380567035" lon="8.620121582221703"><ele>163.75</ele><time>2026-03-30T14:16:29.002Z</time></trkpt><trkpt lat="39.541083037101046" lon="8.620016686895973"><ele>165.0</ele><time>2026-03-30T14:16:30.002Z</time></trkpt><trkpt lat="39.54105459345046" lon="8.61986526796586"><ele>165.0</ele><time>2026-03-30T14:16:31.003Z</time></trkpt><trkpt lat="39.541064643243494" lon="8.61969821998517"><ele>165.0</ele><time>2026-03-30T14:16:32.003Z</time></trkpt><trkpt lat="39.54109013582698" lon="8.619537142360375"><ele>165.0</ele><time>2026-03-30T14:16:33.003Z</time></trkpt><trkpt lat="39.541099233677755" lon="8.619369879064973"><ele>165.0</ele><time>2026-03-30T14:16:34.003Z</time></trkpt><trkpt lat="39.54110172029144" lon="8.6191974569496"><ele>166.33333333333334</ele><time>2026-03-30T14:16:35.003Z</time></trkpt><trkpt lat="39.5411171221144" lon="8.619015304145483"><ele>167.66666666666669</ele><time>2026-03-30T14:16:36.003Z</time></trkpt><trkpt lat="39.54112090168132" lon="8.618818991741575"><ele>169.0</ele><time>2026-03-30T14:16:37.003Z</time></trkpt><trkpt lat="39.54110423931296" lon="8.618615045592362"><ele>169.66666666666669</ele><time>2026-03-30T14:16:38.003Z</time></trkpt><trkpt lat="39.54104281742173" lon="8.618409225158668"><ele>170.33333333333334</ele><time>2026-03-30T14:16:39.003Z</time></trkpt><trkpt lat="39.540951786032295" lon="8.618211275702029"><ele>171.0</ele><time>2026-03-30T14:16:40.003Z</time></trkpt><trkpt lat="39.540873519575726" lon="8.618023568460602"><ele>171.0</ele><time>2026-03-30T14:16:41.003Z</time></trkpt><trkpt lat="39.540798852155206" lon="8.617819815776622"><ele>171.0</ele><time>2026-03-30T14:16:42.003Z</time></trkpt><trkpt lat="39.54073264935113" lon="8.617617295266127"><ele>171.0</ele><time>2026-03-30T14:16:43.003Z</time></trkpt><trkpt lat="39.540690757834064" lon="8.617403699369724"><ele>173.0</ele><time>2026-03-30T14:16:44.003Z</time></trkpt><trkpt lat="39.54069215254352" lon="8.617181639564157"><ele>175.0</ele><time>2026-03-30T14:16:45.003Z</time></trkpt><trkpt lat="39.540721526257826" lon="8.61696080893954"><ele>177.0</ele><time>2026-03-30T14:16:46.003Z</time></trkpt><trkpt lat="39.540751095749876" lon="8.61676395563716"><ele>178.75</ele><time>2026-03-30T14:16:47.003Z</time></trkpt><trkpt lat="39.54080156702134" lon="8.616606008153111"><ele>180.5</ele><time>2026-03-30T14:16:48.003Z</time></trkpt><trkpt lat="39.540879877132774" lon="8.616499275417349"><ele>182.25</ele><time>2026-03-30T14:16:49.003Z</time></trkpt><trkpt lat="39.54098429292902" lon="8.616452958728674"><ele>184.0</ele><time>2026-03-30T14:16:50.003Z</time></trkpt><trkpt lat="39.54111388990552" lon="8.616448839785171"><ele>185.25</ele><time>2026-03-30T14:16:51.003Z</time></trkpt><trkpt lat="39.541255488091" lon="8.616441756855485"><ele>186.5</ele><time>2026-03-30T14:16:52.003Z</time></trkpt><trkpt lat="39.54140257778207" lon="8.616422391284791"><ele>187.75</ele><time>2026-03-30T14:16:53.003Z</time></trkpt><trkpt lat="39.54152996822836" lon="8.616400487510491"><ele>189.0</ele><time>2026-03-30T14:16:54.003Z</time></trkpt><trkpt lat="39.541637237246995" lon="8.616426674913905"><ele>189.0</ele><time>2026-03-30T14:16:55.003Z</time></trkpt><trkpt lat="39.541721499401056" lon="8.61653834765883"><ele>189.0</ele><time>2026-03-30T14:16:56.003Z</time></trkpt><trkpt lat="39.54176724623141" lon="8.616696378225857"><ele>189.0</ele><time>2026-03-30T14:16:57.003Z</time></trkpt><trkpt lat="39.541799080605905" lon="8.616867148303568"><ele>189.0</ele><time>2026-03-30T14:16:57.997Z</time></trkpt><trkpt lat="39.54183195568191" lon="8.617040386234136"><ele>189.33333333333334</ele><time>2026-03-30T14:16:58.997Z</time></trkpt><trkpt lat="39.541869320509605" lon="8.617194027852229"><ele>189.66666666666666</ele><time>2026-03-30T14:16:59.998Z</time></trkpt><trkpt lat="39.54190407762906" lon="8.617318487381391"><ele>190.0</ele><time>2026-03-30T14:17:00.998Z</time></trkpt><trkpt lat="39.54193591416069" lon="8.617409193851508"><ele>190.33333333333331</ele><time>2026-03-30T14:17:01.998Z</time></trkpt><trkpt lat="39.541971112604955" lon="8.617486556568949"><ele>190.66666666666666</ele><time>2026-03-30T14:17:02.998Z</time></trkpt><trkpt lat="39.54202505924541" lon="8.617539658517137"><ele>191.0</ele><time>2026-03-30T14:17:03.998Z</time></trkpt><trkpt lat="39.54209553889088" lon="8.617548434850113"><ele>191.0</ele><time>2026-03-30T14:17:04.998Z</time></trkpt><trkpt lat="39.54217322758469" lon="8.617507342878993"><ele>191.0</ele><time>2026-03-30T14:17:05.998Z</time></trkpt><trkpt lat="39.54222540631902" lon="8.617427875141086"><ele>191.0</ele><time>2026-03-30T14:17:06.998Z</time></trkpt><trkpt lat="39.54225783353193" lon="8.617329625857053"><ele>191.0</ele><time>2026-03-30T14:17:07.998Z</time></trkpt><trkpt lat="39.542284124666395" lon="8.61722576863719"><ele>191.0</ele><time>2026-03-30T14:17:08.998Z</time></trkpt><trkpt lat="39.54231107471934" lon="8.617119702176593"><ele>191.0</ele><time>2026-03-30T14:17:09.998Z</time></trkpt><trkpt lat="39.542337980010394" lon="8.61701164321723"><ele>192.0</ele><time>2026-03-30T14:17:10.998Z</time></trkpt><trkpt lat="39.54236460686574" lon="8.616896009419408"><ele>193.0</ele><time>2026-03-30T14:17:11.999Z</time></trkpt><trkpt lat="39.542386809138875" lon="8.616781889133843"><ele>194.0</ele><time>2026-03-30T14:17:12.999Z</time></trkpt><trkpt lat="39.54241450690915" lon="8.616664812813644"><ele>195.0</ele><time>2026-03-30T14:17:13.999Z</time></trkpt><trkpt lat="39.54244623493304" lon="8.616540981724388"><ele>196.0</ele><time>2026-03-30T14:17:14.999Z</time></trkpt><trkpt lat="39.54247416481672" lon="8.616411371344794"><ele>196.0</ele><time>2026-03-30T14:17:15.999Z</time></trkpt><trkpt lat="39.54250464952166" lon="8.61627631281666"><ele>196.0</ele><time>2026-03-30T14:17:16.999Z</time></trkpt><trkpt lat="39.54252389008686" lon="8.616132013050406"><ele>196.0</ele><time>2026-03-30T14:17:17.999Z</time></trkpt><trkpt lat="39.54253610934411" lon="8.615982165033024"><ele>196.0</ele><time>2026-03-30T14:17:18.999Z</time></trkpt><trkpt lat="39.54252149985463" lon="8.615833453521946"><ele>197.5</ele><time>2026-03-30T14:17:19.999Z</time></trkpt><trkpt lat="39.54247344316987" lon="8.61569799482575"><ele>199.0</ele><time>2026-03-30T14:17:20.999Z</time></trkpt><trkpt lat="39.54241556780552" lon="8.615572268761946"><ele>200.5</ele><time>2026-03-30T14:17:21.999Z</time></trkpt><trkpt lat="39.542369422199364" lon="8.615434273267896"><ele>202.0</ele><time>2026-03-30T14:17:23Z</time></trkpt><trkpt lat="39.542357983912034" lon="8.615293889132642"><ele>204.0</ele><time>2026-03-30T14:17:24Z</time></trkpt><trkpt lat="39.542404987283746" lon="8.615142846154422"><ele>206.0</ele><time>2026-03-30T14:17:25Z</time></trkpt><trkpt lat="39.542491818879604" lon="8.615036139861946"><ele>208.0</ele><time>2026-03-30T14:17:26Z</time></trkpt><trkpt lat="39.54259304434164" lon="8.614977024037602"><ele>210.0</ele><time>2026-03-30T14:17:27Z</time></trkpt><trkpt lat="39.54264623639457" lon="8.614898346995655"><ele>212.0</ele><time>2026-03-30T14:17:28Z</time></trkpt><trkpt lat="39.54269466124129" lon="8.614756465297742"><ele>212.0</ele><time>2026-03-30T14:17:29Z</time></trkpt><trkpt lat="39.54274758966124" lon="8.614595294879724"><ele>212.0</ele><time>2026-03-30T14:17:30Z</time></trkpt><trkpt lat="39.542811106330674" lon="8.614440230337058"><ele>212.0</ele><time>2026-03-30T14:17:31Z</time></trkpt><trkpt lat="39.542871456484704" lon="8.614290022243232"><ele>212.0</ele><time>2026-03-30T14:17:32Z</time></trkpt><trkpt lat="39.54293887954844" lon="8.614135073087217"><ele>211.75</ele><time>2026-03-30T14:17:33Z</time></trkpt><trkpt lat="39.543005659160286" lon="8.613982275252281"><ele>211.5</ele><time>2026-03-30T14:17:34Z</time></trkpt><trkpt lat="39.543075182821426" lon="8.613827537444937"><ele>211.25</ele><time>2026-03-30T14:17:35Z</time></trkpt><trkpt lat="39.54315867354914" lon="8.6136757028606"><ele>211.0</ele><time>2026-03-30T14:17:36Z</time></trkpt><trkpt lat="39.54323199483896" lon="8.613520152922804"><ele>214.0</ele><time>2026-03-30T14:17:37Z</time></trkpt><trkpt lat="39.54330322280983" lon="8.613358390727965"><ele>217.0</ele><time>2026-03-30T14:17:38Z</time></trkpt><trkpt lat="39.54337060072546" lon="8.61319915763558"><ele>220.0</ele><time>2026-03-30T14:17:39Z</time></trkpt><trkpt lat="39.54344238294561" lon="8.613064477851891"><ele>223.0</ele><time>2026-03-30T14:17:40.001Z</time></trkpt><trkpt lat="39.5435313239655" lon="8.612984960076764"><ele>223.0</ele><time>2026-03-30T14:17:41.001Z</time></trkpt><trkpt lat="39.5436334914972" lon="8.612995045407192"><ele>223.0</ele><time>2026-03-30T14:17:42.001Z</time></trkpt><trkpt lat="39.54373902183693" lon="8.613048345945236"><ele>223.0</ele><time>2026-03-30T14:17:43.001Z</time></trkpt><trkpt lat="39.543841473564136" lon="8.613129170808463"><ele>223.0</ele><time>2026-03-30T14:17:44.001Z</time></trkpt><trkpt lat="39.54390856690591" lon="8.613238702673856"><ele>223.0</ele><time>2026-03-30T14:17:45.001Z</time></trkpt><trkpt lat="39.54398289053856" lon="8.613326467951454"><ele>224.0</ele><time>2026-03-30T14:17:46.001Z</time></trkpt><trkpt lat="39.54409274286267" lon="8.613347851212877"><ele>225.0</ele><time>2026-03-30T14:17:47.001Z</time></trkpt><trkpt lat="39.54419660112131" lon="8.61330011922688"><ele>226.0</ele><time>2026-03-30T14:17:48.001Z</time></trkpt><trkpt lat="39.54426389570538" lon="8.613191398023332"><ele>227.0</ele><time>2026-03-30T14:17:49.001Z</time></trkpt><trkpt lat="39.544276497607434" lon="8.613042730509001"><ele>228.0</ele><time>2026-03-30T14:17:50.001Z</time></trkpt><trkpt lat="39.544229709775095" lon="8.612902800294451"><ele>233.25</ele><time>2026-03-30T14:17:51.001Z</time></trkpt><trkpt lat="39.54413388378283" lon="8.612812868239155"><ele>238.5</ele><time>2026-03-30T14:17:52.001Z</time></trkpt><trkpt lat="39.54402199585952" lon="8.612749678990493"><ele>243.75</ele><time>2026-03-30T14:17:53.001Z</time></trkpt><trkpt lat="39.543901338405" lon="8.612691457778858"><ele>249.0</ele><time>2026-03-30T14:17:54.001Z</time></trkpt><trkpt lat="39.543772982333884" lon="8.61264090675679"><ele>247.0</ele><time>2026-03-30T14:17:55.001Z</time></trkpt><trkpt lat="39.54365346176029" lon="8.612575167558095"><ele>245.0</ele><time>2026-03-30T14:17:56.001Z</time></trkpt><trkpt lat="39.543525413706185" lon="8.612535869196035"><ele>243.0</ele><time>2026-03-30T14:17:57.001Z</time></trkpt><trkpt lat="39.54340001750037" lon="8.612500580754837"><ele>241.0</ele><time>2026-03-30T14:17:58.001Z</time></trkpt><trkpt lat="39.54328107548529" lon="8.612448291493477"><ele>241.0</ele><time>2026-03-30T14:17:59.001Z</time></trkpt><trkpt lat="39.543162761078904" lon="8.612368489074868"><ele>241.0</ele><time>2026-03-30T14:18:00.001Z</time></trkpt><trkpt lat="39.543068789025924" lon="8.612239207650575"><ele>241.0</ele><time>2026-03-30T14:18:01.001Z</time></trkpt><trkpt lat="39.542979582844104" lon="8.612111824327874"><ele>241.0</ele><time>2026-03-30T14:18:02.001Z</time></trkpt><trkpt lat="39.54285948145339" lon="8.612058850094012"><ele>240.25</ele><time>2026-03-30T14:18:03.001Z</time></trkpt><trkpt lat="39.542726130635074" lon="8.612075526071726"><ele>239.5</ele><time>2026-03-30T14:18:04.001Z</time></trkpt><trkpt lat="39.54260300943965" lon="8.612142688334826"><ele>238.75</ele><time>2026-03-30T14:18:05.001Z</time></trkpt><trkpt lat="39.54247594253301" lon="8.612172983129312"><ele>238.0</ele><time>2026-03-30T14:18:06.001Z</time></trkpt><trkpt lat="39.54235884288562" lon="8.612195363983876"><ele>238.0</ele><time>2026-03-30T14:18:07.001Z</time></trkpt><trkpt lat="39.54224661783993" lon="8.612132807705061"><ele>238.0</ele><time>2026-03-30T14:18:08.002Z</time></trkpt><trkpt lat="39.54215316243204" lon="8.612020386908835"><ele>238.0</ele><time>2026-03-30T14:18:09.002Z</time></trkpt><trkpt lat="39.54210282409439" lon="8.611861450558633"><ele>238.0</ele><time>2026-03-30T14:18:10.002Z</time></trkpt><trkpt lat="39.54211383458633" lon="8.611697126522447"><ele>241.2</ele><time>2026-03-30T14:18:11.002Z</time></trkpt><trkpt lat="39.542163695707835" lon="8.611549188166846"><ele>244.4</ele><time>2026-03-30T14:18:12.002Z</time></trkpt><trkpt lat="39.542181547917444" lon="8.611415452953498"><ele>247.59999999999997</ele><time>2026-03-30T14:18:13.002Z</time></trkpt><trkpt lat="39.542160295817204" lon="8.611282126907843"><ele>250.79999999999998</ele><time>2026-03-30T14:18:14.002Z</time></trkpt><trkpt lat="39.54210031727099" lon="8.61116894303471"><ele>254.0</ele><time>2026-03-30T14:18:15.002Z</time></trkpt><trkpt lat="39.54200634414529" lon="8.611096452162894"><ele>256.25</ele><time>2026-03-30T14:18:16.002Z</time></trkpt><trkpt lat="39.54189850580691" lon="8.61105527579767"><ele>258.5</ele><time>2026-03-30T14:18:17.002Z</time></trkpt><trkpt lat="39.54178840887933" lon="8.611018958143033"><ele>260.75</ele><time>2026-03-30T14:18:18.002Z</time></trkpt><trkpt lat="39.54168143712502" lon="8.610959361513686"><ele>263.0</ele><time>2026-03-30T14:18:19.002Z</time></trkpt><trkpt lat="39.54158616866762" lon="8.61086120233406"><ele>263.0</ele><time>2026-03-30T14:18:20.002Z</time></trkpt><trkpt lat="39.54150357747685" lon="8.610735952084168"><ele>263.0</ele><time>2026-03-30T14:18:21.002Z</time></trkpt><trkpt lat="39.54142319103284" lon="8.610600966677397"><ele>263.0</ele><time>2026-03-30T14:18:22.002Z</time></trkpt><trkpt lat="39.541321780334286" lon="8.610491089942395"><ele>263.0</ele><time>2026-03-30T14:18:23.002Z</time></trkpt><trkpt lat="39.54120138072087" lon="8.610425617744003"><ele>261.5</ele><time>2026-03-30T14:18:24.002Z</time></trkpt><trkpt lat="39.541072832167984" lon="8.610391713582683"><ele>260.0</ele><time>2026-03-30T14:18:25.002Z</time></trkpt><trkpt lat="39.540949530983134" lon="8.610373702125653"><ele>258.5</ele><time>2026-03-30T14:18:26.002Z</time></trkpt><trkpt lat="39.540835752474344" lon="8.610330128549657"><ele>257.0</ele><time>2026-03-30T14:18:27.002Z</time></trkpt><trkpt lat="39.54071978945559" lon="8.6103062347421"><ele>259.5</ele><time>2026-03-30T14:18:28.002Z</time></trkpt><trkpt lat="39.5406294225626" lon="8.61020386479714"><ele>262.0</ele><time>2026-03-30T14:18:29.002Z</time></trkpt><trkpt lat="39.540560991085" lon="8.610073404770876"><ele>264.5</ele><time>2026-03-30T14:18:30.002Z</time></trkpt><trkpt lat="39.540480787401776" lon="8.609954359820543"><ele>267.0</ele><time>2026-03-30T14:18:31.002Z</time></trkpt><trkpt lat="39.54038122650473" lon="8.609849998264718"><ele>267.0</ele><time>2026-03-30T14:18:32.002Z</time></trkpt><trkpt lat="39.540267826944785" lon="8.609754477758884"><ele>267.0</ele><time>2026-03-30T14:18:33.002Z</time></trkpt><trkpt lat="39.54015310579799" lon="8.60964878472827"><ele>267.0</ele><time>2026-03-30T14:18:34.002Z</time></trkpt><trkpt lat="39.54002302654548" lon="8.609572663087384"><ele>267.0</ele><time>2026-03-30T14:18:35.002Z</time></trkpt><trkpt lat="39.53990875910052" lon="8.609458232795589"><ele>272.3333333333333</ele><time>2026-03-30T14:18:36.002Z</time></trkpt><trkpt lat="39.53978414551986" lon="8.60936663334403"><ele>277.66666666666663</ele><time>2026-03-30T14:18:37.002Z</time></trkpt><trkpt lat="39.53960186961971" lon="8.609331062926946"><ele>283.0</ele><time>2026-03-30T14:18:38.002Z</time></trkpt><trkpt lat="39.539406193054376" lon="8.609418770702364"><ele>283.0</ele><time>2026-03-30T14:18:39.002Z</time></trkpt><trkpt lat="39.53922366471011" lon="8.609495051915204"><ele>283.0</ele><time>2026-03-30T14:18:40.003Z</time></trkpt><trkpt lat="39.539345206476405" lon="8.609430712463196"><ele>283.0</ele><time>2026-03-30T14:18:41.003Z</time></trkpt><trkpt lat="39.53926270169192" lon="8.609490892682576"><ele>283.0</ele><time>2026-03-30T14:18:42.003Z</time></trkpt><trkpt lat="39.539180855163174" lon="8.60950506114432"><ele>283.0</ele><time>2026-03-30T14:18:43.003Z</time></trkpt><trkpt lat="39.539114024545874" lon="8.609465784886568"><ele>283.0</ele><time>2026-03-30T14:18:44.003Z</time></trkpt><trkpt lat="39.53909590136892" lon="8.609359057651043"><ele>283.0</ele><time>2026-03-30T14:18:45.003Z</time></trkpt><trkpt lat="39.539150762547536" lon="8.609261526245177"><ele>283.0</ele><time>2026-03-30T14:18:46.003Z</time></trkpt><trkpt lat="39.5392442269683" lon="8.609227358557407"><ele>283.0</ele><time>2026-03-30T14:18:47.003Z</time></trkpt><trkpt lat="39.53931964720056" lon="8.609154354947464"><ele>283.0</ele><time>2026-03-30T14:18:48.003Z</time></trkpt><trkpt lat="39.539735616238694" lon="8.608949885346792"><ele>283.0</ele><time>2026-03-30T14:18:52.003Z</time></trkpt><trkpt lat="39.53985423177477" lon="8.608964572434157"><ele>283.0</ele><time>2026-03-30T14:18:53.003Z</time></trkpt><trkpt lat="39.53998025245666" lon="8.608997129940432"><ele>283.0</ele><time>2026-03-30T14:18:54.003Z</time></trkpt><trkpt lat="39.54189139525527" lon="8.609384029083353"><ele>337.0</ele><time>2026-03-30T14:19:18.999Z</time></trkpt><trkpt lat="39.539489261322615" lon="8.607612912795599"><ele>338.0</ele><time>2026-03-30T14:19:47.001Z</time></trkpt><trkpt lat="39.53792272017515" lon="8.607557067445367"><ele>360.0</ele><time>2026-03-30T14:19:58.001Z</time></trkpt><trkpt lat="39.53697047940811" lon="8.607703108543692"><ele>357.0</ele><time>2026-03-30T14:20:06.001Z</time></trkpt><trkpt lat="39.53621247670154" lon="8.608358743060238"><ele>354.0</ele><time>2026-03-30T14:20:14.002Z</time></trkpt><trkpt lat="39.53534711640066" lon="8.609178675368854"><ele>354.0</ele><time>2026-03-30T14:20:23.002Z</time></trkpt><trkpt lat="39.534815139611716" lon="8.609240257177053"><ele>365.0</ele><time>2026-03-30T14:20:27.002Z</time></trkpt><trkpt lat="39.534404528442266" lon="8.609251328133858"><ele>376.0</ele><time>2026-03-30T14:20:30.002Z</time></trkpt><trkpt lat="39.53260649828103" lon="8.611046000554891"><ele>367.0</ele><time>2026-03-30T14:20:46.003Z</time></trkpt><trkpt lat="39.53215278042095" lon="8.611675425397015"><ele>378.0</ele><time>2026-03-30T14:20:51.003Z</time></trkpt><trkpt lat="39.531235851678794" lon="8.611351448667815"><ele>362.0</ele><time>2026-03-30T14:21:00.003Z</time></trkpt><trkpt lat="39.53033245390951" lon="8.609942860209063"><ele>358.0</ele><time>2026-03-30T14:21:11Z</time></trkpt><trkpt lat="39.52901607423685" lon="8.608504872986215"><ele>358.0</ele><time>2026-03-30T14:21:27Z</time></trkpt><trkpt lat="39.52890036792514" lon="8.60838048952054"><ele>358.0</ele><time>2026-03-30T14:21:29Z</time></trkpt><trkpt lat="39.5288416570037" lon="8.608319833236754"><ele>358.0</ele><time>2026-03-30T14:21:30Z</time></trkpt><trkpt lat="39.52878043888445" lon="8.608252147185851"><ele>358.0</ele><time>2026-03-30T14:21:31Z</time></trkpt><trkpt lat="39.528716752734354" lon="8.608186819259432"><ele>358.0</ele><time>2026-03-30T14:21:32Z</time></trkpt><trkpt lat="39.52864675995274" lon="8.608118095047654"><ele>356.4</ele><time>2026-03-30T14:21:33Z</time></trkpt><trkpt lat="39.52858124444836" lon="8.608033034636154"><ele>354.79999999999995</ele><time>2026-03-30T14:21:34Z</time></trkpt><trkpt lat="39.52852006673107" lon="8.60793870059445"><ele>353.2</ele><time>2026-03-30T14:21:35Z</time></trkpt><trkpt lat="39.528470811239174" lon="8.60782453480297"><ele>351.6</ele><time>2026-03-30T14:21:36.001Z</time></trkpt><trkpt lat="39.52842442317931" lon="8.607696690530695"><ele>350.0</ele><time>2026-03-30T14:21:37.001Z</time></trkpt><trkpt lat="39.528360067102874" lon="8.607583043845263"><ele>349.75</ele><time>2026-03-30T14:21:38.001Z</time></trkpt><trkpt lat="39.52829488968621" lon="8.607459915207246"><ele>349.5</ele><time>2026-03-30T14:21:39.001Z</time></trkpt><trkpt lat="39.528228627836874" lon="8.6073307678445"><ele>349.25</ele><time>2026-03-30T14:21:40.001Z</time></trkpt><trkpt lat="39.52815957959352" lon="8.607202725178153"><ele>349.0</ele><time>2026-03-30T14:21:41.001Z</time></trkpt><trkpt lat="39.528085119805205" lon="8.60708520663127"><ele>349.0</ele><time>2026-03-30T14:21:42.001Z</time></trkpt><trkpt lat="39.528014327448474" lon="8.607001373419413"><ele>349.0</ele><time>2026-03-30T14:21:43.001Z</time></trkpt><trkpt lat="39.52794163261823" lon="8.60693812848183"><ele>349.0</ele><time>2026-03-30T14:21:44.001Z</time></trkpt><trkpt lat="39.527871575581656" lon="8.60687651974486"><ele>349.0</ele><time>2026-03-30T14:21:45.001Z</time></trkpt><trkpt lat="39.52780623588734" lon="8.606824177801494"><ele>349.0</ele><time>2026-03-30T14:21:46.001Z</time></trkpt><trkpt lat="39.52773816175937" lon="8.606773411273739"><ele>349.0</ele><time>2026-03-30T14:21:47.001Z</time></trkpt><trkpt lat="39.527652025245835" lon="8.606723910702806"><ele>347.25</ele><time>2026-03-30T14:21:48.001Z</time></trkpt><trkpt lat="39.527564107941544" lon="8.60666468197654"><ele>345.5</ele><time>2026-03-30T14:21:49.001Z</time></trkpt><trkpt lat="39.52747583620643" lon="8.606607557661285"><ele>343.75</ele><time>2026-03-30T14:21:50.001Z</time></trkpt><trkpt lat="39.527390735692734" lon="8.606535461415405"><ele>342.0</ele><time>2026-03-30T14:21:51.001Z</time></trkpt><trkpt lat="39.52764975832638" lon="8.606233277388064"><ele>342.0</ele><time>2026-03-30T14:21:52.001Z</time></trkpt><trkpt lat="39.527608202710155" lon="8.606136168880937"><ele>342.0</ele><time>2026-03-30T14:21:53.001Z</time></trkpt><trkpt lat="39.527138676354554" lon="8.606305108552847"><ele>338.0</ele><time>2026-03-30T14:21:54.001Z</time></trkpt><trkpt lat="39.527561652446934" lon="8.605448665904865"><ele>338.0</ele><time>2026-03-30T14:21:55.001Z</time></trkpt><trkpt lat="39.52755465675741" lon="8.60535615810606"><ele>338.0</ele><time>2026-03-30T14:21:56.001Z</time></trkpt><trkpt lat="39.52755490415196" lon="8.605270823366771"><ele>338.0</ele><time>2026-03-30T14:21:57.001Z</time></trkpt><trkpt lat="39.52756673136659" lon="8.605184225390666"><ele>338.0</ele><time>2026-03-30T14:21:58.001Z</time></trkpt><trkpt lat="39.527622142107894" lon="8.605080814377652"><ele>338.0</ele><time>2026-03-30T14:22:00.001Z</time></trkpt><trkpt lat="39.52755566706472" lon="8.604936091926994"><ele>338.0</ele><time>2026-03-30T14:22:03.001Z</time></trkpt><trkpt lat="39.527483234198684" lon="8.604896581580787"><ele>337.0</ele><time>2026-03-30T14:22:05.001Z</time></trkpt><trkpt lat="39.52738821317642" lon="8.604867055910015"><ele>336.0</ele><time>2026-03-30T14:22:07.001Z</time></trkpt><trkpt lat="39.52727707764233" lon="8.604798787977083"><ele>335.0</ele><time>2026-03-30T14:22:09.001Z</time></trkpt><trkpt lat="39.52721388899602" lon="8.604768834182703"><ele>334.0</ele><time>2026-03-30T14:22:10.001Z</time></trkpt><trkpt lat="39.52709848922079" lon="8.604730791844586"><ele>333.0</ele><time>2026-03-30T14:22:12.001Z</time></trkpt><trkpt lat="39.527038427181175" lon="8.60475686981651"><ele>331.5</ele><time>2026-03-30T14:22:13.001Z</time></trkpt><trkpt lat="39.52698611435753" lon="8.60480704718017"><ele>330.0</ele><time>2026-03-30T14:22:14.001Z</time></trkpt><trkpt lat="39.526937560222" lon="8.60487991865103"><ele>328.5</ele><time>2026-03-30T14:22:15.001Z</time></trkpt><trkpt lat="39.52689343338204" lon="8.604969783767523"><ele>327.0</ele><time>2026-03-30T14:22:16.002Z</time></trkpt><trkpt lat="39.52682637362152" lon="8.60505835427044"><ele>325.5</ele><time>2026-03-30T14:22:17.002Z</time></trkpt><trkpt lat="39.526781812642554" lon="8.605159023928081"><ele>324.0</ele><time>2026-03-30T14:22:18.002Z</time></trkpt><trkpt lat="39.52672476667542" lon="8.605247603173213"><ele>324.0</ele><time>2026-03-30T14:22:19.002Z</time></trkpt><trkpt lat="39.52665501460541" lon="8.605326402774255"><ele>324.0</ele><time>2026-03-30T14:22:20.002Z</time></trkpt><trkpt lat="39.5266009939989" lon="8.605410486822661"><ele>324.0</ele><time>2026-03-30T14:22:21.002Z</time></trkpt><trkpt lat="39.526541724988284" lon="8.60550273985991"><ele>324.0</ele><time>2026-03-30T14:22:22.002Z</time></trkpt><trkpt lat="39.526478092235436" lon="8.60560178515717"><ele>324.0</ele><time>2026-03-30T14:22:23.002Z</time></trkpt><trkpt lat="39.526428655959876" lon="8.605717643246395"><ele>325.0</ele><time>2026-03-30T14:22:24.002Z</time></trkpt><trkpt lat="39.52635763426451" lon="8.605816364531403"><ele>326.0</ele><time>2026-03-30T14:22:25.002Z</time></trkpt><trkpt lat="39.52627322833123" lon="8.605896117278679"><ele>327.0</ele><time>2026-03-30T14:22:26.002Z</time></trkpt><trkpt lat="39.52615419185241" lon="8.605873685125665"><ele>328.0</ele><time>2026-03-30T14:22:27.002Z</time></trkpt><trkpt lat="39.52604188488526" lon="8.6058556199507"><ele>329.0</ele><time>2026-03-30T14:22:28.002Z</time></trkpt><trkpt lat="39.52591076189813" lon="8.605851432604826"><ele>329.25</ele><time>2026-03-30T14:22:29.002Z</time></trkpt><trkpt lat="39.52579597306213" lon="8.605800408878189"><ele>329.5</ele><time>2026-03-30T14:22:30.002Z</time></trkpt><trkpt lat="39.52569043141913" lon="8.605732601683087"><ele>329.75</ele><time>2026-03-30T14:22:31.002Z</time></trkpt><trkpt lat="39.52560227626793" lon="8.60564832965991"><ele>330.0</ele><time>2026-03-30T14:22:32.002Z</time></trkpt><trkpt lat="39.52552516125965" lon="8.60555120551358"><ele>330.0</ele><time>2026-03-30T14:22:33.002Z</time></trkpt><trkpt lat="39.5254648429678" lon="8.605445323255159"><ele>330.0</ele><time>2026-03-30T14:22:34.002Z</time></trkpt><trkpt lat="39.52543111852762" lon="8.605339439195207"><ele>330.0</ele><time>2026-03-30T14:22:35.002Z</time></trkpt><trkpt lat="39.52543074906062" lon="8.605236415044635"><ele>330.0</ele><time>2026-03-30T14:22:36.002Z</time></trkpt><trkpt lat="39.525464602461135" lon="8.605137314125438"><ele>330.0</ele><time>2026-03-30T14:22:37.002Z</time></trkpt><trkpt lat="39.52552018513945" lon="8.605040334821663"><ele>330.0</ele><time>2026-03-30T14:22:38.002Z</time></trkpt><trkpt lat="39.52557434873572" lon="8.604932363836513"><ele>328.6</ele><time>2026-03-30T14:22:39.002Z</time></trkpt><trkpt lat="39.525620804063" lon="8.604812244793342"><ele>327.2</ele><time>2026-03-30T14:22:40.002Z</time></trkpt><trkpt lat="39.52566217108368" lon="8.604680132350676"><ele>325.79999999999995</ele><time>2026-03-30T14:22:41.002Z</time></trkpt><trkpt lat="39.5257068982715" lon="8.604545517353102"><ele>324.4</ele><time>2026-03-30T14:22:42.002Z</time></trkpt><trkpt lat="39.52575926903727" lon="8.604410327346336"><ele>323.0</ele><time>2026-03-30T14:22:43.002Z</time></trkpt><trkpt lat="39.525808395860246" lon="8.604270770155711"><ele>322.75</ele><time>2026-03-30T14:22:44.002Z</time></trkpt><trkpt lat="39.5258544507494" lon="8.604123576705703"><ele>322.5</ele><time>2026-03-30T14:22:45.002Z</time></trkpt><trkpt lat="39.52590508907729" lon="8.603980832549286"><ele>322.25</ele><time>2026-03-30T14:22:46.002Z</time></trkpt><trkpt lat="39.525959915788555" lon="8.603847288472005"><ele>322.0</ele><time>2026-03-30T14:22:47.002Z</time></trkpt><trkpt lat="39.52601030359553" lon="8.603712886673225"><ele>322.0</ele><time>2026-03-30T14:22:48.002Z</time></trkpt><trkpt lat="39.52605924513569" lon="8.603577231212507"><ele>322.0</ele><time>2026-03-30T14:22:49.002Z</time></trkpt><trkpt lat="39.52610318931277" lon="8.603451174158064"><ele>322.0</ele><time>2026-03-30T14:22:50.002Z</time></trkpt><trkpt lat="39.526152235100874" lon="8.603329584113464"><ele>322.0</ele><time>2026-03-30T14:22:51.002Z</time></trkpt><trkpt lat="39.52620277649561" lon="8.60320908484016"><ele>322.0</ele><time>2026-03-30T14:22:52.003Z</time></trkpt><trkpt lat="39.526244985183645" lon="8.603087644470822"><ele>285.0</ele><time>2026-03-30T14:22:53.003Z</time></trkpt><trkpt lat="39.525258690155596" lon="8.600208247088455"><ele>285.0</ele><time>2026-03-30T14:23:22.001Z</time></trkpt><trkpt lat="39.52512956693724" lon="8.600054858260416"><ele>285.0</ele><time>2026-03-30T14:23:24.001Z</time></trkpt><trkpt lat="39.52506955251053" lon="8.599971793599986"><ele>285.0</ele><time>2026-03-30T14:23:25.001Z</time></trkpt><trkpt lat="39.524997468143255" lon="8.599886130549573"><ele>285.0</ele><time>2026-03-30T14:23:26.001Z</time></trkpt><trkpt lat="39.52493112537965" lon="8.599797869109176"><ele>285.0</ele><time>2026-03-30T14:23:27.001Z</time></trkpt><trkpt lat="39.52478969278746" lon="8.599591363505509"><ele>285.0</ele><time>2026-03-30T14:23:40Z</time></trkpt><trkpt lat="39.52327652604384" lon="8.599235320452099"><ele>280.0</ele><time>2026-03-30T14:23:42Z</time></trkpt><trkpt lat="39.523168958736505" lon="8.599173249177912"><ele>275.0</ele><time>2026-03-30T14:23:43Z</time></trkpt><trkpt lat="39.52307010469234" lon="8.599083876005722"><ele>270.0</ele><time>2026-03-30T14:23:44Z</time></trkpt><trkpt lat="39.5228635948514" lon="8.59880200570421"><ele>268.5</ele><time>2026-03-30T14:23:47Z</time></trkpt><trkpt lat="39.522820047560515" lon="8.598727113939011"><ele>267.0</ele><time>2026-03-30T14:23:48Z</time></trkpt><trkpt lat="39.52276533516663" lon="8.598633456342592"><ele>265.5</ele><time>2026-03-30T14:23:49Z</time></trkpt><trkpt lat="39.52271174199555" lon="8.598552604410441"><ele>264.0</ele><time>2026-03-30T14:23:50Z</time></trkpt><trkpt lat="39.52267865094621" lon="8.59845384300356"><ele>262.5</ele><time>2026-03-30T14:23:51Z</time></trkpt><trkpt lat="39.52262144178837" lon="8.598354247578374"><ele>261.0</ele><time>2026-03-30T14:23:52Z</time></trkpt><trkpt lat="39.52256456328934" lon="8.59826528736596"><ele>261.25</ele><time>2026-03-30T14:23:53Z</time></trkpt><trkpt lat="39.52250719482203" lon="8.598189194000614"><ele>261.5</ele><time>2026-03-30T14:23:54Z</time></trkpt><trkpt lat="39.52245880161114" lon="8.598121627560634"><ele>261.75</ele><time>2026-03-30T14:23:55Z</time></trkpt><trkpt lat="39.52247592704561" lon="8.597758979057902"><ele>262.0</ele><time>2026-03-30T14:23:58.001Z</time></trkpt><trkpt lat="39.522476148303795" lon="8.59752201667919"><ele>262.0</ele><time>2026-03-30T14:24:00.001Z</time></trkpt><trkpt lat="39.5224873873197" lon="8.597369127300587"><ele>262.0</ele><time>2026-03-30T14:24:01.001Z</time></trkpt><trkpt lat="39.522483300651345" lon="8.597243698395427"><ele>262.0</ele><time>2026-03-30T14:24:02.001Z</time></trkpt><trkpt lat="39.52243533510128" lon="8.597123883514412"><ele>262.0</ele><time>2026-03-30T14:24:03.001Z</time></trkpt><trkpt lat="39.522326806386644" lon="8.597024303940275"><ele>264.0</ele><time>2026-03-30T14:24:04.001Z</time></trkpt><trkpt lat="39.522145745508205" lon="8.5967376046681"><ele>266.0</ele><time>2026-03-30T14:24:07.001Z</time></trkpt><trkpt lat="39.522125465142956" lon="8.596611957856004"><ele>268.0</ele><time>2026-03-30T14:24:08.001Z</time></trkpt><trkpt lat="39.52211684563204" lon="8.596522889059242"><ele>268.0</ele><time>2026-03-30T14:24:09.001Z</time></trkpt><trkpt lat="39.52210560738117" lon="8.596367009685046"><ele>268.0</ele><time>2026-03-30T14:24:11.001Z</time></trkpt><trkpt lat="39.5221184513836" lon="8.596230448885018"><ele>268.0</ele><time>2026-03-30T14:24:13.001Z</time></trkpt><trkpt lat="39.522189599869904" lon="8.596098602663584"><ele>268.0</ele><time>2026-03-30T14:24:15.001Z</time></trkpt><trkpt lat="39.52227403854544" lon="8.596098658835892"><ele>268.0</ele><time>2026-03-30T14:24:16.001Z</time></trkpt><trkpt lat="39.52234341236204" lon="8.596067658889345"><ele>267.66666666666663</ele><time>2026-03-30T14:24:17.001Z</time></trkpt><trkpt lat="39.522555337432244" lon="8.5960131394357"><ele>267.3333333333333</ele><time>2026-03-30T14:24:20.001Z</time></trkpt><trkpt lat="39.52263200002147" lon="8.595976779175928"><ele>267.0</ele><time>2026-03-30T14:24:21.001Z</time></trkpt><trkpt lat="39.52286077142208" lon="8.595919846824666"><ele>267.0</ele><time>2026-03-30T14:24:24.001Z</time></trkpt><trkpt lat="39.522896672788356" lon="8.595812282468717"><ele>267.0</ele><time>2026-03-30T14:24:25.001Z</time></trkpt><trkpt lat="39.522957789230574" lon="8.595725458584809"><ele>267.0</ele><time>2026-03-30T14:24:26.001Z</time></trkpt><trkpt lat="39.523052509895024" lon="8.595577812177837"><ele>267.0</ele><time>2026-03-30T14:24:28.001Z</time></trkpt><trkpt lat="39.52309896507023" lon="8.595509530262369"><ele>267.0</ele><time>2026-03-30T14:24:29.001Z</time></trkpt><trkpt lat="39.52315699877053" lon="8.595445568947692"><ele>266.6</ele><time>2026-03-30T14:24:30.001Z</time></trkpt><trkpt lat="39.52321505578363" lon="8.595397732374014"><ele>266.2</ele><time>2026-03-30T14:24:31.001Z</time></trkpt><trkpt lat="39.523310469961274" lon="8.595372109748604"><ele>265.8</ele><time>2026-03-30T14:24:33.001Z</time></trkpt><trkpt lat="39.52345766935518" lon="8.595339824821755"><ele>265.4</ele><time>2026-03-30T14:24:39.001Z</time></trkpt><trkpt lat="39.52354277825888" lon="8.595328130480798"><ele>265.0</ele><time>2026-03-30T14:24:42.002Z</time></trkpt><trkpt lat="39.52355620342959" lon="8.5951307830852"><ele>265.0</ele><time>2026-03-30T14:24:43.002Z</time></trkpt><trkpt lat="39.52356500530971" lon="8.595035996388235"><ele>265.0</ele><time>2026-03-30T14:24:44.002Z</time></trkpt><trkpt lat="39.52359331594246" lon="8.59494356347712"><ele>265.0</ele><time>2026-03-30T14:24:45.002Z</time></trkpt><trkpt lat="39.523605316074146" lon="8.594842731893785"><ele>265.0</ele><time>2026-03-30T14:24:46.002Z</time></trkpt><trkpt lat="39.52363215838164" lon="8.594747889546536"><ele>265.0</ele><time>2026-03-30T14:24:47.002Z</time></trkpt><trkpt lat="39.52365781838762" lon="8.594645787837022"><ele>265.0</ele><time>2026-03-30T14:24:48.002Z</time></trkpt><trkpt lat="39.5236903956194" lon="8.594552597885436"><ele>263.6</ele><time>2026-03-30T14:24:49.002Z</time></trkpt><trkpt lat="39.523765109230524" lon="8.594498996280134"><ele>262.2</ele><time>2026-03-30T14:24:50.002Z</time></trkpt><trkpt lat="39.52382533544551" lon="8.594429817795433"><ele>260.8</ele><time>2026-03-30T14:24:51.002Z</time></trkpt><trkpt lat="39.523886025868016" lon="8.594355653712695"><ele>259.4</ele><time>2026-03-30T14:24:52.002Z</time></trkpt><trkpt lat="39.52404734533571" lon="8.594310599086903"><ele>258.0</ele><time>2026-03-30T14:24:54.002Z</time></trkpt><trkpt lat="39.52414219059212" lon="8.5942720453158"><ele>258.0</ele><time>2026-03-30T14:24:55.002Z</time></trkpt><trkpt lat="39.524244902917765" lon="8.5942223286493"><ele>258.0</ele><time>2026-03-30T14:24:56.002Z</time></trkpt><trkpt lat="39.52434410385367" lon="8.594186739715687"><ele>258.0</ele><time>2026-03-30T14:24:57.002Z</time></trkpt><trkpt lat="39.52443978373402" lon="8.594147073688394"><ele>258.0</ele><time>2026-03-30T14:24:58.002Z</time></trkpt><trkpt lat="39.524537228508656" lon="8.594112986250252"><ele>258.0</ele><time>2026-03-30T14:24:59.002Z</time></trkpt><trkpt lat="39.5246445980199" lon="8.594077962993344"><ele>258.0</ele><time>2026-03-30T14:25:00.002Z</time></trkpt><trkpt lat="39.524746289584584" lon="8.594081493972482"><ele>258.0</ele><time>2026-03-30T14:25:01.002Z</time></trkpt><trkpt lat="39.5248485912734" lon="8.594077693227298"><ele>258.0</ele><time>2026-03-30T14:25:02.002Z</time></trkpt><trkpt lat="39.52495178081784" lon="8.59410008465944"><ele>258.0</ele><time>2026-03-30T14:25:03.002Z</time></trkpt><trkpt lat="39.52512960957373" lon="8.594122751965411"><ele>258.0</ele><time>2026-03-30T14:25:05.002Z</time></trkpt><trkpt lat="39.52523368146765" lon="8.594107358806074"><ele>258.0</ele><time>2026-03-30T14:25:06.002Z</time></trkpt><trkpt lat="39.52532442195119" lon="8.594072934154104"><ele>258.0</ele><time>2026-03-30T14:25:07.002Z</time></trkpt><trkpt lat="39.52540313769156" lon="8.594001528832239"><ele>258.0</ele><time>2026-03-30T14:25:08.002Z</time></trkpt><trkpt lat="39.5254289849925" lon="8.593860106704295"><ele>258.0</ele><time>2026-03-30T14:25:09.002Z</time></trkpt><trkpt lat="39.52541049532331" lon="8.593715796117177"><ele>257.2</ele><time>2026-03-30T14:25:10.002Z</time></trkpt><trkpt lat="39.52540355731261" lon="8.593590491150794"><ele>256.4</ele><time>2026-03-30T14:25:11.002Z</time></trkpt><trkpt lat="39.52542300164388" lon="8.593465634172698"><ele>255.59999999999997</ele><time>2026-03-30T14:25:12.002Z</time></trkpt><trkpt lat="39.525459055748044" lon="8.593336896885491"><ele>254.79999999999998</ele><time>2026-03-30T14:25:13.002Z</time></trkpt><trkpt lat="39.52551037247211" lon="8.593216171752362"><ele>254.0</ele><time>2026-03-30T14:25:14.002Z</time></trkpt><trkpt lat="39.52555737125207" lon="8.593090520752595"><ele>254.0</ele><time>2026-03-30T14:25:15.002Z</time></trkpt><trkpt lat="39.525606470188904" lon="8.592960311338645"><ele>254.0</ele><time>2026-03-30T14:25:16.002Z</time></trkpt><trkpt lat="39.52564531722277" lon="8.592814590126208"><ele>254.0</ele><time>2026-03-30T14:25:17.002Z</time></trkpt><trkpt lat="39.525714711213396" lon="8.592680788741161"><ele>254.0</ele><time>2026-03-30T14:25:18.003Z</time></trkpt><trkpt lat="39.52577044383953" lon="8.592535829513812"><ele>255.75</ele><time>2026-03-30T14:25:19.003Z</time></trkpt><trkpt lat="39.525818838981166" lon="8.592384847575733"><ele>257.5</ele><time>2026-03-30T14:25:20.002Z</time></trkpt><trkpt lat="39.52586619468072" lon="8.59224186967773"><ele>259.25</ele><time>2026-03-30T14:25:21.003Z</time></trkpt><trkpt lat="39.52587310065684" lon="8.592099829919135"><ele>261.0</ele><time>2026-03-30T14:25:22.003Z</time></trkpt><trkpt lat="39.52582932833711" lon="8.591967055562733"><ele>261.5</ele><time>2026-03-30T14:25:23.003Z</time></trkpt><trkpt lat="39.5257636626263" lon="8.59185236413862"><ele>262.0</ele><time>2026-03-30T14:25:24.003Z</time></trkpt><trkpt lat="39.52568604700286" lon="8.591738234287165"><ele>262.5</ele><time>2026-03-30T14:25:25.003Z</time></trkpt><trkpt lat="39.52560368584029" lon="8.591619209387938"><ele>263.0</ele><time>2026-03-30T14:25:26.003Z</time></trkpt><trkpt lat="39.52551312391641" lon="8.591500232396433"><ele>263.0</ele><time>2026-03-30T14:25:27Z</time></trkpt><trkpt lat="39.52541076001768" lon="8.591370563622256"><ele>263.0</ele><time>2026-03-30T14:25:28Z</time></trkpt><trkpt lat="39.52531147598981" lon="8.591232452966656"><ele>263.0</ele><time>2026-03-30T14:25:29Z</time></trkpt><trkpt lat="39.52522374863378" lon="8.591092689352728"><ele>263.0</ele><time>2026-03-30T14:25:30Z</time></trkpt><trkpt lat="39.525122472586496" lon="8.590987230150851"><ele>260.75</ele><time>2026-03-30T14:25:31Z</time></trkpt><trkpt lat="39.525094049295205" lon="8.590818519578763"><ele>258.5</ele><time>2026-03-30T14:25:32Z</time></trkpt><trkpt lat="39.525048239876156" lon="8.590691865031701"><ele>256.25</ele><time>2026-03-30T14:25:33Z</time></trkpt><trkpt lat="39.52508850071811" lon="8.590537520629235"><ele>254.0</ele><time>2026-03-30T14:25:34Z</time></trkpt><trkpt lat="39.52510421711431" lon="8.590383820436273"><ele>253.25</ele><time>2026-03-30T14:25:35Z</time></trkpt><trkpt lat="39.525135515415954" lon="8.590236941401296"><ele>252.5</ele><time>2026-03-30T14:25:36Z</time></trkpt><trkpt lat="39.5251585450811" lon="8.590083483051735"><ele>251.75</ele><time>2026-03-30T14:25:37Z</time></trkpt><trkpt lat="39.52517534095753" lon="8.589922121170948"><ele>251.0</ele><time>2026-03-30T14:25:38Z</time></trkpt><trkpt lat="39.52517630388968" lon="8.589756323973324"><ele>251.0</ele><time>2026-03-30T14:25:39Z</time></trkpt><trkpt lat="39.52513073294155" lon="8.589600552347362"><ele>251.0</ele><time>2026-03-30T14:25:40Z</time></trkpt><trkpt lat="39.52502185131832" lon="8.58949530824698"><ele>251.0</ele><time>2026-03-30T14:25:41Z</time></trkpt><trkpt lat="39.5248920447472" lon="8.58942812458024"><ele>251.0</ele><time>2026-03-30T14:25:42Z</time></trkpt><trkpt lat="39.524787891762585" lon="8.589332189601691"><ele>251.0</ele><time>2026-03-30T14:25:43Z</time></trkpt><trkpt lat="39.52470392222313" lon="8.589227969518014"><ele>251.0</ele><time>2026-03-30T14:25:44Z</time></trkpt><trkpt lat="39.52462349155163" lon="8.589109778478502"><ele>251.0</ele><time>2026-03-30T14:25:45Z</time></trkpt><trkpt lat="39.52460976958916" lon="8.588940098187658"><ele>251.0</ele><time>2026-03-30T14:25:46Z</time></trkpt><trkpt lat="39.5246281942991" lon="8.588775618154491"><ele>251.0</ele><time>2026-03-30T14:25:47Z</time></trkpt><trkpt lat="39.524659019574095" lon="8.5886149385157"><ele>251.0</ele><time>2026-03-30T14:25:48Z</time></trkpt><trkpt lat="39.52470616066526" lon="8.588452789046535"><ele>251.0</ele><time>2026-03-30T14:25:49Z</time></trkpt><trkpt lat="39.52474149712686" lon="8.5882944554923"><ele>251.0</ele><time>2026-03-30T14:25:50Z</time></trkpt><trkpt lat="39.52474485176835" lon="8.588136885402092"><ele>251.0</ele><time>2026-03-30T14:25:51Z</time></trkpt><trkpt lat="39.52470175864462" lon="8.587991129398386"><ele>251.0</ele><time>2026-03-30T14:25:52Z</time></trkpt><trkpt lat="39.5246146588867" lon="8.587881129480076"><ele>251.0</ele><time>2026-03-30T14:25:53Z</time></trkpt><trkpt lat="39.524509924304624" lon="8.587820978075882"><ele>251.0</ele><time>2026-03-30T14:25:54Z</time></trkpt><trkpt lat="39.52439865131222" lon="8.587826453376154"><ele>248.5</ele><time>2026-03-30T14:25:55Z</time></trkpt><trkpt lat="39.52429192076216" lon="8.587882268571946"><ele>246.0</ele><time>2026-03-30T14:25:56Z</time></trkpt><trkpt lat="39.523592158257514" lon="8.588131517179857"><ele>246.0</ele><time>2026-03-30T14:26:03Z</time></trkpt><trkpt lat="39.52347555479756" lon="8.588105392267941"><ele>246.0</ele><time>2026-03-30T14:26:04Z</time></trkpt><trkpt lat="39.52336027656633" lon="8.588069648177546"><ele>246.0</ele><time>2026-03-30T14:26:05Z</time></trkpt><trkpt lat="39.52324259492411" lon="8.588037249544053"><ele>246.0</ele><time>2026-03-30T14:26:06.001Z</time></trkpt><trkpt lat="39.523122102160904" lon="8.587999244979022"><ele>246.0</ele><time>2026-03-30T14:26:07.001Z</time></trkpt><trkpt lat="39.52304010241656" lon="8.587867951527269"><ele>246.0</ele><time>2026-03-30T14:26:08.001Z</time></trkpt><trkpt lat="39.523008995080744" lon="8.587706200027897"><ele>246.0</ele><time>2026-03-30T14:26:09.001Z</time></trkpt><trkpt lat="39.522986038890814" lon="8.587567246277635"><ele>246.0</ele><time>2026-03-30T14:26:10.001Z</time></trkpt><trkpt lat="39.52294361671466" lon="8.587438247579751"><ele>246.0</ele><time>2026-03-30T14:26:11.001Z</time></trkpt><trkpt lat="39.52290061181696" lon="8.587309259340655"><ele>246.00000000000003</ele><time>2026-03-30T14:26:12.001Z</time></trkpt><trkpt lat="39.52287528272417" lon="8.587177567432626"><ele>246.00000000000003</ele><time>2026-03-30T14:26:13.001Z</time></trkpt><trkpt lat="39.522875446072945" lon="8.587045820777613"><ele>246.0</ele><time>2026-03-30T14:26:14.001Z</time></trkpt><trkpt lat="39.52289186571861" lon="8.586912703308908"><ele>246.0</ele><time>2026-03-30T14:26:15.001Z</time></trkpt><trkpt lat="39.52291099559331" lon="8.586791609231389"><ele>247.83333333333334</ele><time>2026-03-30T14:26:16.001Z</time></trkpt><trkpt lat="39.52292321388471" lon="8.58669736139037"><ele>249.66666666666669</ele><time>2026-03-30T14:26:17.001Z</time></trkpt><trkpt lat="39.52292703439259" lon="8.586609461307697"><ele>251.5</ele><time>2026-03-30T14:26:18.001Z</time></trkpt><trkpt lat="39.522883501663706" lon="8.586496489766326"><ele>253.33333333333334</ele><time>2026-03-30T14:26:19.001Z</time></trkpt><trkpt lat="39.52280137754802" lon="8.586399628684486"><ele>255.16666666666669</ele><time>2026-03-30T14:26:20.001Z</time></trkpt><trkpt lat="39.5227119500886" lon="8.586350562384544"><ele>257.0</ele><time>2026-03-30T14:26:21.001Z</time></trkpt><trkpt lat="39.522602423785536" lon="8.586354310119958"><ele>257.0</ele><time>2026-03-30T14:26:22.001Z</time></trkpt><trkpt lat="39.52250157719473" lon="8.586354009341603"><ele>257.0</ele><time>2026-03-30T14:26:23.001Z</time></trkpt><trkpt lat="39.52242062135266" lon="8.586419182683782"><ele>257.0</ele><time>2026-03-30T14:26:24.001Z</time></trkpt><trkpt lat="39.5223312420085" lon="8.58644822140631"><ele>257.0</ele><time>2026-03-30T14:26:25.001Z</time></trkpt><trkpt lat="39.52223950042564" lon="8.58646402811615"><ele>257.0</ele><time>2026-03-30T14:26:26.001Z</time></trkpt><trkpt lat="39.52213745323421" lon="8.586445948608143"><ele>257.4</ele><time>2026-03-30T14:26:27.001Z</time></trkpt><trkpt lat="39.52204303391626" lon="8.5863891474302"><ele>257.79999999999995</ele><time>2026-03-30T14:26:28.001Z</time></trkpt><trkpt lat="39.52195464944369" lon="8.586306549568274"><ele>258.2</ele><time>2026-03-30T14:26:29.001Z</time></trkpt><trkpt lat="39.52187316386835" lon="8.586216019054715"><ele>258.59999999999997</ele><time>2026-03-30T14:26:30.001Z</time></trkpt><trkpt lat="39.52181915137336" lon="8.586105347803487"><ele>259.0</ele><time>2026-03-30T14:26:31.001Z</time></trkpt><trkpt lat="39.52178316923368" lon="8.586002611304309"><ele>260.0</ele><time>2026-03-30T14:26:32.001Z</time></trkpt><trkpt lat="39.52180251293128" lon="8.585880622186759"><ele>261.0</ele><time>2026-03-30T14:26:33.001Z</time></trkpt><trkpt lat="39.5218502944883" lon="8.585757962557684"><ele>262.0</ele><time>2026-03-30T14:26:34.001Z</time></trkpt><trkpt lat="39.521904095110756" lon="8.585633566900073"><ele>263.0</ele><time>2026-03-30T14:26:35.001Z</time></trkpt><trkpt lat="39.52194833402132" lon="8.585501071333612"><ele>264.0</ele><time>2026-03-30T14:26:36.001Z</time></trkpt><trkpt lat="39.521992309423126" lon="8.58537027064961"><ele>265.4</ele><time>2026-03-30T14:26:37.001Z</time></trkpt><trkpt lat="39.52203760640807" lon="8.585237376008108"><ele>266.79999999999995</ele><time>2026-03-30T14:26:38.001Z</time></trkpt><trkpt lat="39.52208129807299" lon="8.585103789927246"><ele>268.20000000000005</ele><time>2026-03-30T14:26:39.001Z</time></trkpt><trkpt lat="39.522124370942585" lon="8.584965939314666"><ele>269.6</ele><time>2026-03-30T14:26:40.001Z</time></trkpt><trkpt lat="39.52216455528505" lon="8.584841275163416"><ele>271.0</ele><time>2026-03-30T14:26:41.001Z</time></trkpt><trkpt lat="39.522204704875776" lon="8.584717103906264"><ele>272.75</ele><time>2026-03-30T14:26:42.001Z</time></trkpt><trkpt lat="39.52223491487597" lon="8.584584085659577"><ele>274.5</ele><time>2026-03-30T14:26:43.001Z</time></trkpt><trkpt lat="39.52222966282224" lon="8.584441300083853"><ele>276.25</ele><time>2026-03-30T14:26:44.001Z</time></trkpt><trkpt lat="39.5221761330671" lon="8.584301682710876"><ele>278.0</ele><time>2026-03-30T14:26:45.002Z</time></trkpt><trkpt lat="39.522090886922115" lon="8.584181983687408"><ele>277.5</ele><time>2026-03-30T14:26:46.002Z</time></trkpt><trkpt lat="39.52199535299333" lon="8.58407146867846"><ele>277.0</ele><time>2026-03-30T14:26:47.002Z</time></trkpt><trkpt lat="39.52189853681974" lon="8.583951120806484"><ele>276.5</ele><time>2026-03-30T14:26:48.002Z</time></trkpt><trkpt lat="39.521796516373485" lon="8.5838266469677"><ele>276.0</ele><time>2026-03-30T14:26:49.002Z</time></trkpt><trkpt lat="39.52168995029715" lon="8.58370069746068"><ele>278.25</ele><time>2026-03-30T14:26:50.002Z</time></trkpt><trkpt lat="39.52158209431131" lon="8.583570460934997"><ele>280.5</ele><time>2026-03-30T14:26:51.002Z</time></trkpt><trkpt lat="39.521480253787885" lon="8.583428209542747"><ele>282.75</ele><time>2026-03-30T14:26:52.002Z</time></trkpt><trkpt lat="39.52137158363253" lon="8.583292047746221"><ele>285.0</ele><time>2026-03-30T14:26:53.002Z</time></trkpt><trkpt lat="39.52127130093205" lon="8.5831545147511"><ele>285.25</ele><time>2026-03-30T14:26:54.002Z</time></trkpt><trkpt lat="39.52117319316874" lon="8.583028113538296"><ele>285.5</ele><time>2026-03-30T14:26:55.002Z</time></trkpt><trkpt lat="39.52106565900805" lon="8.58290219637898"><ele>285.75</ele><time>2026-03-30T14:26:56.002Z</time></trkpt><trkpt lat="39.5209544621314" lon="8.582778687694297"><ele>286.0</ele><time>2026-03-30T14:26:57.002Z</time></trkpt><trkpt lat="39.52085687775848" lon="8.582636825478263"><ele>286.0</ele><time>2026-03-30T14:26:58.002Z</time></trkpt><trkpt lat="39.52074964925113" lon="8.582502022657508"><ele>286.0</ele><time>2026-03-30T14:26:59.002Z</time></trkpt><trkpt lat="39.52063311032119" lon="8.582379725532434"><ele>286.0</ele><time>2026-03-30T14:27:00.002Z</time></trkpt><trkpt lat="39.52053406908578" lon="8.582242319508582"><ele>286.0</ele><time>2026-03-30T14:27:01.002Z</time></trkpt><trkpt lat="39.520433193219745" lon="8.582105281404399"><ele>287.25</ele><time>2026-03-30T14:27:02.002Z</time></trkpt><trkpt lat="39.52033865335748" lon="8.581982463788258"><ele>288.5</ele><time>2026-03-30T14:27:03.002Z</time></trkpt><trkpt lat="39.520269737120174" lon="8.581852855975779"><ele>289.75</ele><time>2026-03-30T14:27:04.002Z</time></trkpt><trkpt lat="39.520274266944206" lon="8.5817024296506"><ele>291.0</ele><time>2026-03-30T14:27:05.002Z</time></trkpt><trkpt lat="39.520299616418264" lon="8.58155300931693"><ele>291.0</ele><time>2026-03-30T14:27:06.002Z</time></trkpt><trkpt lat="39.52032291736167" lon="8.581392404086694"><ele>291.0</ele><time>2026-03-30T14:27:07.002Z</time></trkpt><trkpt lat="39.52034645302012" lon="8.581228968369675"><ele>291.0</ele><time>2026-03-30T14:27:08.002Z</time></trkpt><trkpt lat="39.52035415959233" lon="8.581056066816192"><ele>291.0</ele><time>2026-03-30T14:27:09.002Z</time></trkpt><trkpt lat="39.52034455112012" lon="8.580883634343659"><ele>293.25</ele><time>2026-03-30T14:27:10.002Z</time></trkpt><trkpt lat="39.52030564347048" lon="8.58071334996677"><ele>295.5</ele><time>2026-03-30T14:27:11.002Z</time></trkpt><trkpt lat="39.520252799791436" lon="8.580545491311781"><ele>297.75</ele><time>2026-03-30T14:27:12.002Z</time></trkpt><trkpt lat="39.52019061009033" lon="8.580374819818672"><ele>300.0</ele><time>2026-03-30T14:27:13.002Z</time></trkpt><trkpt lat="39.52011987515477" lon="8.580214582945878"><ele>301.75</ele><time>2026-03-30T14:27:14.002Z</time></trkpt><trkpt lat="39.52009124310271" lon="8.580033355114573"><ele>303.5</ele><time>2026-03-30T14:27:15.002Z</time></trkpt><trkpt lat="39.52007855124042" lon="8.579853798677302"><ele>305.25</ele><time>2026-03-30T14:27:16.002Z</time></trkpt><trkpt lat="39.5200629574157" lon="8.57966457878821"><ele>307.0</ele><time>2026-03-30T14:27:17.002Z</time></trkpt><trkpt lat="39.52006288994839" lon="8.579479191245964"><ele>307.0</ele><time>2026-03-30T14:27:18.002Z</time></trkpt><trkpt lat="39.52005990946344" lon="8.579291921938765"><ele>307.0</ele><time>2026-03-30T14:27:19.002Z</time></trkpt><trkpt lat="39.52005948379454" lon="8.579100103676307"><ele>307.0</ele><time>2026-03-30T14:27:20.002Z</time></trkpt><trkpt lat="39.52004138936877" lon="8.578898444826345"><ele>307.0</ele><time>2026-03-30T14:27:21.002Z</time></trkpt><trkpt lat="39.519999359100105" lon="8.578688207507884"><ele>307.0</ele><time>2026-03-30T14:27:22.002Z</time></trkpt><trkpt lat="39.51994668874928" lon="8.5785052117642"><ele>307.0</ele><time>2026-03-30T14:27:23.002Z</time></trkpt><trkpt lat="39.519907718478265" lon="8.578346164696555"><ele>307.0</ele><time>2026-03-30T14:27:24.003Z</time></trkpt><trkpt lat="39.51989267560146" lon="8.57821425380753"><ele>307.0</ele><time>2026-03-30T14:27:25.003Z</time></trkpt><trkpt lat="39.51992173579651" lon="8.578083660734137"><ele>307.0</ele><time>2026-03-30T14:27:26.003Z</time></trkpt><trkpt lat="39.51999124035603" lon="8.577953579271872"><ele>307.0</ele><time>2026-03-30T14:27:27.003Z</time></trkpt><trkpt lat="39.520088226253435" lon="8.577827477925593"><ele>307.0</ele><time>2026-03-30T14:27:28.003Z</time></trkpt><trkpt lat="39.52018715547713" lon="8.577688831675248"><ele>307.0</ele><time>2026-03-30T14:27:29.003Z</time></trkpt><trkpt lat="39.52025233375813" lon="8.577508182007426"><ele>303.0</ele><time>2026-03-30T14:27:30.003Z</time></trkpt><trkpt lat="39.520290572140276" lon="8.577306687751829"><ele>299.0</ele><time>2026-03-30T14:27:31.003Z</time></trkpt><trkpt lat="39.52030240917773" lon="8.577086398296489"><ele>295.0</ele><time>2026-03-30T14:27:32.003Z</time></trkpt><trkpt lat="39.52031507543131" lon="8.576863256511354"><ele>293.0</ele><time>2026-03-30T14:27:33Z</time></trkpt><trkpt lat="39.520339204344154" lon="8.576642023924245"><ele>291.0</ele><time>2026-03-30T14:27:34Z</time></trkpt><trkpt lat="39.520368099958446" lon="8.576437830545846"><ele>289.0</ele><time>2026-03-30T14:27:35Z</time></trkpt><trkpt lat="39.520393033469865" lon="8.576258190798136"><ele>289.5</ele><time>2026-03-30T14:27:36Z</time></trkpt><trkpt lat="39.52040122062693" lon="8.576100180314976"><ele>290.0</ele><time>2026-03-30T14:27:37Z</time></trkpt><trkpt lat="39.52036864509378" lon="8.575949098143154"><ele>290.5</ele><time>2026-03-30T14:27:38Z</time></trkpt><trkpt lat="39.52029106947405" lon="8.5758112980704"><ele>291.0</ele><time>2026-03-30T14:27:39Z</time></trkpt><trkpt lat="39.52019684053223" lon="8.57568591316513"><ele>291.0</ele><time>2026-03-30T14:27:40Z</time></trkpt><trkpt lat="39.520108445263396" lon="8.575556911041991"><ele>291.0</ele><time>2026-03-30T14:27:41Z</time></trkpt><trkpt lat="39.520023345067045" lon="8.575418326082508"><ele>291.0</ele><time>2026-03-30T14:27:42Z</time></trkpt><trkpt lat="39.519936224474556" lon="8.575276536887259"><ele>291.0</ele><time>2026-03-30T14:27:43Z</time></trkpt><trkpt lat="39.519847470729886" lon="8.575133273234806"><ele>292.5</ele><time>2026-03-30T14:27:44Z</time></trkpt><trkpt lat="39.51976762330504" lon="8.574992098556901"><ele>294.0</ele><time>2026-03-30T14:27:45Z</time></trkpt><trkpt lat="39.51971101835636" lon="8.574841250857899"><ele>295.5</ele><time>2026-03-30T14:27:46Z</time></trkpt><trkpt lat="39.519685673661805" lon="8.574678991490083"><ele>297.0</ele><time>2026-03-30T14:27:47Z</time></trkpt><trkpt lat="39.51970882976278" lon="8.574516180144597"><ele>297.0</ele><time>2026-03-30T14:27:48Z</time></trkpt><trkpt lat="39.51977421887113" lon="8.57437528072388"><ele>297.0</ele><time>2026-03-30T14:27:49Z</time></trkpt><trkpt lat="39.519879547416906" lon="8.57430613864609"><ele>297.0</ele><time>2026-03-30T14:27:50Z</time></trkpt><trkpt lat="39.519970625063294" lon="8.57422016961355"><ele>297.0</ele><time>2026-03-30T14:27:51Z</time></trkpt><trkpt lat="39.52002969986928" lon="8.57411298625331"><ele>297.0</ele><time>2026-03-30T14:27:52Z</time></trkpt><trkpt lat="39.52005018448271" lon="8.573960492955946"><ele>297.0</ele><time>2026-03-30T14:27:53.001Z</time></trkpt><trkpt lat="39.520034277638864" lon="8.57378770154518"><ele>297.0</ele><time>2026-03-30T14:27:54.001Z</time></trkpt><trkpt lat="39.52001383315318" lon="8.573614563451462"><ele>297.0</ele><time>2026-03-30T14:27:55.001Z</time></trkpt><trkpt lat="39.52002266156988" lon="8.573441890535493"><ele>294.0</ele><time>2026-03-30T14:27:56.001Z</time></trkpt><trkpt lat="39.52007663124612" lon="8.57326455085343"><ele>291.0</ele><time>2026-03-30T14:27:57.001Z</time></trkpt><trkpt lat="39.52014905243489" lon="8.573091570671194"><ele>288.0</ele><time>2026-03-30T14:27:58.001Z</time></trkpt><trkpt lat="39.52023738265362" lon="8.572926113849425"><ele>287.3333333333333</ele><time>2026-03-30T14:27:59.001Z</time></trkpt><trkpt lat="39.520331817942164" lon="8.572780792923552"><ele>286.66666666666663</ele><time>2026-03-30T14:28:00.001Z</time></trkpt><trkpt lat="39.52042929782818" lon="8.572624438100855"><ele>286.0</ele><time>2026-03-30T14:28:01.001Z</time></trkpt><trkpt lat="39.520524337482435" lon="8.57246364719498"><ele>289.0</ele><time>2026-03-30T14:28:02.001Z</time></trkpt><trkpt lat="39.52062024065588" lon="8.572296275315187"><ele>292.0</ele><time>2026-03-30T14:28:03.001Z</time></trkpt><trkpt lat="39.520711270681396" lon="8.57213676396705"><ele>295.0</ele><time>2026-03-30T14:28:04.001Z</time></trkpt><trkpt lat="39.52078897611631" lon="8.572007896441988"><ele>298.0</ele><time>2026-03-30T14:28:05.001Z</time></trkpt><trkpt lat="39.52084563968175" lon="8.571909563590179"><ele>298.0</ele><time>2026-03-30T14:28:06.001Z</time></trkpt><trkpt lat="39.520868383331944" lon="8.571825109414771"><ele>298.0</ele><time>2026-03-30T14:28:07.001Z</time></trkpt><trkpt lat="39.52081020774689" lon="8.57169085639009"><ele>298.0</ele><time>2026-03-30T14:28:09.001Z</time></trkpt><trkpt lat="39.520750271660255" lon="8.571645449094142"><ele>298.0</ele><time>2026-03-30T14:28:10.001Z</time></trkpt><trkpt lat="39.52066952711264" lon="8.571623345118526"><ele>298.0</ele><time>2026-03-30T14:28:11.001Z</time></trkpt><trkpt lat="39.52057508389559" lon="8.57161198640005"><ele>298.0</ele><time>2026-03-30T14:28:12.001Z</time></trkpt><trkpt lat="39.52048312963123" lon="8.571680637750415"><ele>299.0</ele><time>2026-03-30T14:28:13.001Z</time></trkpt><trkpt lat="39.520390039437004" lon="8.57173187592777"><ele>300.0</ele><time>2026-03-30T14:28:14.001Z</time></trkpt><trkpt lat="39.52029880729708" lon="8.57178835486026"><ele>301.0</ele><time>2026-03-30T14:28:15.001Z</time></trkpt><trkpt lat="39.520209499754756" lon="8.57184308224622"><ele>302.0</ele><time>2026-03-30T14:28:16.001Z</time></trkpt><trkpt lat="39.520123376803205" lon="8.57190670066996"><ele>303.0</ele><time>2026-03-30T14:28:17.001Z</time></trkpt><trkpt lat="39.520031534647416" lon="8.571959586665749"><ele>303.0</ele><time>2026-03-30T14:28:18.001Z</time></trkpt><trkpt lat="39.51992632762944" lon="8.571967891809189"><ele>303.0</ele><time>2026-03-30T14:28:19.001Z</time></trkpt><trkpt lat="39.519822798487375" lon="8.57197862935833"><ele>303.0</ele><time>2026-03-30T14:28:20.001Z</time></trkpt><trkpt lat="39.51971590381083" lon="8.572003448045042"><ele>303.0</ele><time>2026-03-30T14:28:21.001Z</time></trkpt><trkpt lat="39.519607265278644" lon="8.572004909846598"><ele>303.0</ele><time>2026-03-30T14:28:22.001Z</time></trkpt><trkpt lat="39.51949774521974" lon="8.571970072871578"><ele>304.25</ele><time>2026-03-30T14:28:23.001Z</time></trkpt><trkpt lat="39.51939586244082" lon="8.571914828605086"><ele>305.5</ele><time>2026-03-30T14:28:24.001Z</time></trkpt><trkpt lat="39.519281659181566" lon="8.571882378828649"><ele>306.75</ele><time>2026-03-30T14:28:25.001Z</time></trkpt><trkpt lat="39.519166338801845" lon="8.57187309620523"><ele>308.0</ele><time>2026-03-30T14:28:26.001Z</time></trkpt><trkpt lat="39.51905409734866" lon="8.571886660104436"><ele>308.0</ele><time>2026-03-30T14:28:27.001Z</time></trkpt><trkpt lat="39.51895336150384" lon="8.571892402009807"><ele>308.0</ele><time>2026-03-30T14:28:28.001Z</time></trkpt><trkpt lat="39.51887400489857" lon="8.571879500986368"><ele>308.0</ele><time>2026-03-30T14:28:29.001Z</time></trkpt><trkpt lat="39.51881631213567" lon="8.571829639589675"><ele>308.0</ele><time>2026-03-30T14:28:30.001Z</time></trkpt><trkpt lat="39.51878579422337" lon="8.571738877785611"><ele>308.0</ele><time>2026-03-30T14:28:31.001Z</time></trkpt><trkpt lat="39.51880125858703" lon="8.571615182801965"><ele>308.0</ele><time>2026-03-30T14:28:32.001Z</time></trkpt><trkpt lat="39.518808173321524" lon="8.571479418147756"><ele>308.0</ele><time>2026-03-30T14:28:33.001Z</time></trkpt><trkpt lat="39.518789292555596" lon="8.571344255659044"><ele>308.0</ele><time>2026-03-30T14:28:34.001Z</time></trkpt><trkpt lat="39.51870997796994" lon="8.5712423579642"><ele>308.0</ele><time>2026-03-30T14:28:35.001Z</time></trkpt><trkpt lat="39.51858993252898" lon="8.571195458857929"><ele>308.0</ele><time>2026-03-30T14:28:36.001Z</time></trkpt><trkpt lat="39.5184581060498" lon="8.57115696253739"><ele>308.6</ele><time>2026-03-30T14:28:37.001Z</time></trkpt><trkpt lat="39.51836044260392" lon="8.571141451474167"><ele>309.20000000000005</ele><time>2026-03-30T14:28:38.002Z</time></trkpt><trkpt lat="39.51830431204712" lon="8.571055965541634"><ele>309.8</ele><time>2026-03-30T14:28:39.002Z</time></trkpt><trkpt lat="39.51827668002927" lon="8.570963676993758"><ele>310.40000000000003</ele><time>2026-03-30T14:28:40.002Z</time></trkpt><trkpt lat="39.518251435565354" lon="8.570847160747178"><ele>311.0</ele><time>2026-03-30T14:28:41.002Z</time></trkpt><trkpt lat="39.51824335570187" lon="8.570717739666854"><ele>311.0</ele><time>2026-03-30T14:28:42.002Z</time></trkpt><trkpt lat="39.51822981943716" lon="8.570582469261186"><ele>311.0</ele><time>2026-03-30T14:28:43.002Z</time></trkpt><trkpt lat="39.518215098315274" lon="8.570430569784765"><ele>311.0</ele><time>2026-03-30T14:28:44.002Z</time></trkpt><trkpt lat="39.51820328580032" lon="8.570266665732133"><ele>311.0</ele><time>2026-03-30T14:28:45.002Z</time></trkpt><trkpt lat="39.51817077316173" lon="8.570113211108385"><ele>311.0</ele><time>2026-03-30T14:28:46.002Z</time></trkpt><trkpt lat="39.51815115324116" lon="8.569936680668105"><ele>311.0</ele><time>2026-03-30T14:28:47.002Z</time></trkpt><trkpt lat="39.518132465414546" lon="8.569756135667985"><ele>311.0</ele><time>2026-03-30T14:28:48.002Z</time></trkpt><trkpt lat="39.518114548186624" lon="8.569575712706715"><ele>311.0</ele><time>2026-03-30T14:28:49.002Z</time></trkpt><trkpt lat="39.51809257007193" lon="8.569381999440875"><ele>310.33333333333337</ele><time>2026-03-30T14:28:50.002Z</time></trkpt><trkpt lat="39.518071328602474" lon="8.56918918695486"><ele>309.6666666666667</ele><time>2026-03-30T14:28:51.002Z</time></trkpt><trkpt lat="39.51804683785077" lon="8.568992904833774"><ele>309.0</ele><time>2026-03-30T14:28:52.002Z</time></trkpt><trkpt lat="39.518026756066156" lon="8.568790395741907"><ele>309.0</ele><time>2026-03-30T14:28:53.002Z</time></trkpt><trkpt lat="39.51804922315504" lon="8.568392379352263"><ele>309.0</ele><time>2026-03-30T14:28:55.002Z</time></trkpt><trkpt lat="39.51806887926927" lon="8.568189304383678"><ele>309.0</ele><time>2026-03-30T14:28:56.002Z</time></trkpt><trkpt lat="39.518103563696116" lon="8.567993823818222"><ele>309.0</ele><time>2026-03-30T14:28:57.002Z</time></trkpt><trkpt lat="39.5181645578377" lon="8.567799308829219"><ele>309.0</ele><time>2026-03-30T14:28:58.002Z</time></trkpt><trkpt lat="39.51824459818787" lon="8.567631163228755"><ele>308.0</ele><time>2026-03-30T14:28:59.002Z</time></trkpt><trkpt lat="39.51836831789885" lon="8.567503721955207"><ele>307.0</ele><time>2026-03-30T14:29:00.002Z</time></trkpt><trkpt lat="39.518449289791505" lon="8.567334638458597"><ele>306.0</ele><time>2026-03-30T14:29:01.002Z</time></trkpt><trkpt lat="39.51850526356911" lon="8.567146685452753"><ele>305.0</ele><time>2026-03-30T14:29:02.002Z</time></trkpt><trkpt lat="39.51854765089959" lon="8.566967446271992"><ele>304.0</ele><time>2026-03-30T14:29:03.002Z</time></trkpt><trkpt lat="39.5185730925478" lon="8.566779626365994"><ele>303.0</ele><time>2026-03-30T14:29:04.002Z</time></trkpt><trkpt lat="39.51857619439581" lon="8.566579277280418"><ele>302.0</ele><time>2026-03-30T14:29:05.002Z</time></trkpt><trkpt lat="39.51856680999994" lon="8.566374179217426"><ele>302.33333333333337</ele><time>2026-03-30T14:29:06.002Z</time></trkpt><trkpt lat="39.51854298612776" lon="8.566175836431466"><ele>302.6666666666667</ele><time>2026-03-30T14:29:07.002Z</time></trkpt><trkpt lat="39.518528302896726" lon="8.565969467913863"><ele>303.0</ele><time>2026-03-30T14:29:08.002Z</time></trkpt><trkpt lat="39.51849990903523" lon="8.565746313904745"><ele>303.0</ele><time>2026-03-30T14:29:09.002Z</time></trkpt><trkpt lat="39.51849495539775" lon="8.565552623572659"><ele>303.0</ele><time>2026-03-30T14:29:10.002Z</time></trkpt><trkpt lat="39.51849929630947" lon="8.56537644931811"><ele>303.0</ele><time>2026-03-30T14:29:11.002Z</time></trkpt><trkpt lat="39.51852910186393" lon="8.56520302153684"><ele>303.0</ele><time>2026-03-30T14:29:12.002Z</time></trkpt><trkpt lat="39.518575287987126" lon="8.565050025978515"><ele>303.6</ele><time>2026-03-30T14:29:13.002Z</time></trkpt><trkpt lat="39.51863521192852" lon="8.564918414694297"><ele>304.20000000000005</ele><time>2026-03-30T14:29:14.002Z</time></trkpt><trkpt lat="39.51863944901923" lon="8.564781980254478"><ele>304.8</ele><time>2026-03-30T14:29:15.002Z</time></trkpt><trkpt lat="39.51864685704072" lon="8.564673227230182"><ele>305.40000000000003</ele><time>2026-03-30T14:29:16.002Z</time></trkpt><trkpt lat="39.51870303797983" lon="8.564631666901539"><ele>306.0</ele><time>2026-03-30T14:29:17.003Z</time></trkpt><trkpt lat="39.5179963258132" lon="8.564542981453512"><ele>307.5</ele><time>2026-03-30T14:29:19.003Z</time></trkpt><trkpt lat="39.517868541276584" lon="8.564483120366415"><ele>309.0</ele><time>2026-03-30T14:29:20.003Z</time></trkpt><trkpt lat="39.51774129399181" lon="8.564422951929101"><ele>310.5</ele><time>2026-03-30T14:29:21.003Z</time></trkpt><trkpt lat="39.51760957373275" lon="8.564363853313628"><ele>312.0</ele><time>2026-03-30T14:29:22.003Z</time></trkpt><trkpt lat="39.51747243823991" lon="8.564305162650642"><ele>312.0</ele><time>2026-03-30T14:29:23.003Z</time></trkpt><trkpt lat="39.51733538157201" lon="8.564236710595381"><ele>312.0</ele><time>2026-03-30T14:29:24.003Z</time></trkpt><trkpt lat="39.51720702053085" lon="8.564167828131847"><ele>312.0</ele><time>2026-03-30T14:29:25.003Z</time></trkpt><trkpt lat="39.51711551259423" lon="8.56405325932217"><ele>312.0</ele><time>2026-03-30T14:29:26.003Z</time></trkpt><trkpt lat="39.51705170873977" lon="8.563887169122587"><ele>311.3333333333333</ele><time>2026-03-30T14:29:27.003Z</time></trkpt><trkpt lat="39.51698633633277" lon="8.563715214441137"><ele>310.66666666666663</ele><time>2026-03-30T14:29:28.003Z</time></trkpt><trkpt lat="39.516912851745566" lon="8.563546836761878"><ele>310.0</ele><time>2026-03-30T14:29:29.003Z</time></trkpt><trkpt lat="39.51685047261076" lon="8.56335514754722"><ele>310.0</ele><time>2026-03-30T14:29:30.003Z</time></trkpt><trkpt lat="39.51679771643676" lon="8.563141601609868"><ele>310.0</ele><time>2026-03-30T14:29:31.003Z</time></trkpt><trkpt lat="39.51674926522855" lon="8.56290754423976"><ele>310.0</ele><time>2026-03-30T14:29:32.003Z</time></trkpt><trkpt lat="39.51669395898341" lon="8.562659300552129"><ele>311.66666666666663</ele><time>2026-03-30T14:29:33.003Z</time></trkpt><trkpt lat="39.516635633207315" lon="8.562434751929901"><ele>313.3333333333333</ele><time>2026-03-30T14:29:34.003Z</time></trkpt><trkpt lat="39.516541472305065" lon="8.562239177077373"><ele>315.0</ele><time>2026-03-30T14:29:35.003Z</time></trkpt><trkpt lat="39.51639586570469" lon="8.562062584989672"><ele>314.6666666666667</ele><time>2026-03-30T14:29:36.003Z</time></trkpt><trkpt lat="39.51623006869588" lon="8.561898835554782"><ele>314.33333333333337</ele><time>2026-03-30T14:29:37.003Z</time></trkpt><trkpt lat="39.51609455783236" lon="8.561747804371452"><ele>314.0</ele><time>2026-03-30T14:29:38.003Z</time></trkpt><trkpt lat="39.51599139893028" lon="8.561616696870361"><ele>314.0</ele><time>2026-03-30T14:29:39.001Z</time></trkpt><trkpt lat="39.51590021489589" lon="8.561505841961182"><ele>314.0</ele><time>2026-03-30T14:29:40.001Z</time></trkpt><trkpt lat="39.51585093561754" lon="8.56137216788443"><ele>314.0</ele><time>2026-03-30T14:29:41.001Z</time></trkpt><trkpt lat="39.51583363875744" lon="8.561229886707954"><ele>314.0</ele><time>2026-03-30T14:29:42.001Z</time></trkpt><trkpt lat="39.51581313421823" lon="8.561078615444433"><ele>314.25</ele><time>2026-03-30T14:29:43.001Z</time></trkpt><trkpt lat="39.51579794943765" lon="8.560926321625963"><ele>314.5</ele><time>2026-03-30T14:29:44.001Z</time></trkpt><trkpt lat="39.51581056516009" lon="8.560767290266476"><ele>314.75</ele><time>2026-03-30T14:29:45.001Z</time></trkpt><trkpt lat="39.51587067664011" lon="8.56063005414948"><ele>315.0</ele><time>2026-03-30T14:29:46.001Z</time></trkpt><trkpt lat="39.51595504371792" lon="8.560483760643828"><ele>313.3333333333333</ele><time>2026-03-30T14:29:47.001Z</time></trkpt><trkpt lat="39.516040465066986" lon="8.560334764234208"><ele>311.66666666666663</ele><time>2026-03-30T14:29:48.001Z</time></trkpt><trkpt lat="39.516133371984154" lon="8.56017271105341"><ele>310.0</ele><time>2026-03-30T14:29:49.001Z</time></trkpt><trkpt lat="39.51622564507188" lon="8.560010332154823"><ele>312.0</ele><time>2026-03-30T14:29:50.001Z</time></trkpt><trkpt lat="39.51632186548064" lon="8.559842133223633"><ele>314.0</ele><time>2026-03-30T14:29:51.001Z</time></trkpt><trkpt lat="39.516419111788856" lon="8.55967431940447"><ele>316.0</ele><time>2026-03-30T14:29:52.001Z</time></trkpt><trkpt lat="39.51652678116733" lon="8.559518617043592"><ele>316.0</ele><time>2026-03-30T14:29:53.001Z</time></trkpt><trkpt lat="39.51664973536706" lon="8.559366622643507"><ele>316.0</ele><time>2026-03-30T14:29:54.001Z</time></trkpt><trkpt lat="39.516777329479616" lon="8.559210904975698"><ele>316.0</ele><time>2026-03-30T14:29:55.001Z</time></trkpt><trkpt lat="39.516905295462344" lon="8.55905473347779"><ele>316.0</ele><time>2026-03-30T14:29:56.001Z</time></trkpt><trkpt lat="39.51701331674633" lon="8.558897486935225"><ele>316.0</ele><time>2026-03-30T14:29:57.001Z</time></trkpt><trkpt lat="39.51715485990252" lon="8.558787696829498"><ele>316.0</ele><time>2026-03-30T14:29:58.001Z</time></trkpt><trkpt lat="39.517295719657795" lon="8.558682285436559"><ele>317.3333333333333</ele><time>2026-03-30T14:29:59.001Z</time></trkpt><trkpt lat="39.517443812504204" lon="8.558577319555559"><ele>318.6666666666667</ele><time>2026-03-30T14:30:00.001Z</time></trkpt><trkpt lat="39.5175918069492" lon="8.558472423420007"><ele>320.0</ele><time>2026-03-30T14:30:01.001Z</time></trkpt><trkpt lat="39.517728080110224" lon="8.558376168259858"><ele>320.0</ele><time>2026-03-30T14:30:02.001Z</time></trkpt><trkpt lat="39.51784694965329" lon="8.558291723342112"><ele>320.0</ele><time>2026-03-30T14:30:03.001Z</time></trkpt><trkpt lat="39.51796258878868" lon="8.558199344465434"><ele>320.0</ele><time>2026-03-30T14:30:04.001Z</time></trkpt><trkpt lat="39.51805329784243" lon="8.558113051578278"><ele>320.0</ele><time>2026-03-30T14:30:05.001Z</time></trkpt><trkpt lat="39.51811372302959" lon="8.558012946709745"><ele>320.6666666666667</ele><time>2026-03-30T14:30:06.001Z</time></trkpt><trkpt lat="39.518115600563924" lon="8.557905805669558"><ele>321.3333333333333</ele><time>2026-03-30T14:30:07.001Z</time></trkpt><trkpt lat="39.518055148888536" lon="8.557678869791268"><ele>322.0</ele><time>2026-03-30T14:30:08.001Z</time></trkpt><trkpt lat="39.51796997772462" lon="8.557451774059583"><ele>322.0</ele><time>2026-03-30T14:30:09.001Z</time></trkpt><trkpt lat="39.51784569043659" lon="8.557302590014498"><ele>322.0</ele><time>2026-03-30T14:30:10.001Z</time></trkpt><trkpt lat="39.51766609216562" lon="8.557331712063348"><ele>322.0</ele><time>2026-03-30T14:30:12.001Z</time></trkpt><trkpt lat="39.51750996618118" lon="8.557377316858158"><ele>322.0</ele><time>2026-03-30T14:30:13.001Z</time></trkpt><trkpt lat="39.517358841924406" lon="8.557436475456488"><ele>322.0</ele><time>2026-03-30T14:30:14.001Z</time></trkpt><trkpt lat="39.5172117235112" lon="8.55748905524559"><ele>322.0</ele><time>2026-03-30T14:30:15.001Z</time></trkpt><trkpt lat="39.517060189438105" lon="8.557554931434629"><ele>327.0</ele><time>2026-03-30T14:30:16.001Z</time></trkpt><trkpt lat="39.516912465728886" lon="8.55763805413335"><ele>332.0</ele><time>2026-03-30T14:30:17.001Z</time></trkpt><trkpt lat="39.5167642762081" lon="8.557734035559474"><ele>337.0</ele><time>2026-03-30T14:30:18.001Z</time></trkpt><trkpt lat="39.51660563882977" lon="8.557819195069309"><ele>337.0</ele><time>2026-03-30T14:30:19.001Z</time></trkpt><trkpt lat="39.51642928271152" lon="8.557833704991506"><ele>337.0</ele><time>2026-03-30T14:30:20.001Z</time></trkpt><trkpt lat="39.51626914282805" lon="8.557882326627794"><ele>337.0</ele><time>2026-03-30T14:30:21.001Z</time></trkpt><trkpt lat="39.516112749360786" lon="8.557927738997423"><ele>334.5</ele><time>2026-03-30T14:30:22.001Z</time></trkpt><trkpt lat="39.51596494641298" lon="8.558004899474115"><ele>332.0</ele><time>2026-03-30T14:30:23.001Z</time></trkpt><trkpt lat="39.51583526183471" lon="8.55803582669224"><ele>329.5</ele><time>2026-03-30T14:30:24.001Z</time></trkpt><trkpt lat="39.515716433541414" lon="8.558070757044844"><ele>327.0</ele><time>2026-03-30T14:30:25.001Z</time></trkpt><trkpt lat="39.51562877329434" lon="8.557994927066206"><ele>327.0</ele><time>2026-03-30T14:30:26.001Z</time></trkpt><trkpt lat="39.515551244439024" lon="8.557883114943186"><ele>327.0</ele><time>2026-03-30T14:30:27.001Z</time></trkpt><trkpt lat="39.51544661036812" lon="8.55776705235671"><ele>327.0</ele><time>2026-03-30T14:30:28.001Z</time></trkpt><trkpt lat="39.5153414660391" lon="8.557650528479126"><ele>327.0</ele><time>2026-03-30T14:30:29.001Z</time></trkpt><trkpt lat="39.51524121765488" lon="8.557539950956741"><ele>330.40000000000003</ele><time>2026-03-30T14:30:30.001Z</time></trkpt><trkpt lat="39.515141037911164" lon="8.557449626104942"><ele>333.8</ele><time>2026-03-30T14:30:31.001Z</time></trkpt><trkpt lat="39.5150416341774" lon="8.557396537139159"><ele>337.2</ele><time>2026-03-30T14:30:32.001Z</time></trkpt><trkpt lat="39.514943365484775" lon="8.557448558021052"><ele>340.6</ele><time>2026-03-30T14:30:33.001Z</time></trkpt><trkpt lat="39.5148851018272" lon="8.557560333477713"><ele>344.0</ele><time>2026-03-30T14:30:34.001Z</time></trkpt><trkpt lat="39.514872484802886" lon="8.557743586238166"><ele>342.0</ele><time>2026-03-30T14:30:35.001Z</time></trkpt><trkpt lat="39.51483651325857" lon="8.557892816910838"><ele>340.0</ele><time>2026-03-30T14:30:36.001Z</time></trkpt><trkpt lat="39.51480531841537" lon="8.558042368990343"><ele>338.0</ele><time>2026-03-30T14:30:37.001Z</time></trkpt><trkpt lat="39.51475191615417" lon="8.558175588627648"><ele>336.0</ele><time>2026-03-30T14:30:38.001Z</time></trkpt><trkpt lat="39.51465398527871" lon="8.558246243743866"><ele>338.5</ele><time>2026-03-30T14:30:39.001Z</time></trkpt><trkpt lat="39.51453612823451" lon="8.558288645260049"><ele>341.0</ele><time>2026-03-30T14:30:40.001Z</time></trkpt><trkpt lat="39.51440225367149" lon="8.55833473591525"><ele>343.5</ele><time>2026-03-30T14:30:41.001Z</time></trkpt><trkpt lat="39.514268903677454" lon="8.558359821725603"><ele>346.0</ele><time>2026-03-30T14:30:42.001Z</time></trkpt><trkpt lat="39.5141396102962" lon="8.5583459701337"><ele>346.0</ele><time>2026-03-30T14:30:43.002Z</time></trkpt><trkpt lat="39.5140060388984" lon="8.558322316769303"><ele>346.0</ele><time>2026-03-30T14:30:44.001Z</time></trkpt><trkpt lat="39.51387309318757" lon="8.55829768586492"><ele>346.0</ele><time>2026-03-30T14:30:45.001Z</time></trkpt><trkpt lat="39.51374033706031" lon="8.558307997504182"><ele>346.0</ele><time>2026-03-30T14:30:46.002Z</time></trkpt><trkpt lat="39.51361322726913" lon="8.558332696932414"><ele>349.0</ele><time>2026-03-30T14:30:47.002Z</time></trkpt><trkpt lat="39.51350148202151" lon="8.558435659144187"><ele>352.0</ele><time>2026-03-30T14:30:48.002Z</time></trkpt><trkpt lat="39.51338267398017" lon="8.558498922791134"><ele>355.0</ele><time>2026-03-30T14:30:49.002Z</time></trkpt><trkpt lat="39.513271617376205" lon="8.558551568987843"><ele>358.0</ele><time>2026-03-30T14:30:50.002Z</time></trkpt><trkpt lat="39.51315602175567" lon="8.558544088061842"><ele>358.0</ele><time>2026-03-30T14:30:51.002Z</time></trkpt><trkpt lat="39.51303739172379" lon="8.558492704496386"><ele>358.0</ele><time>2026-03-30T14:30:52.002Z</time></trkpt><trkpt lat="39.51290759339103" lon="8.558476988070538"><ele>358.0</ele><time>2026-03-30T14:30:53.002Z</time></trkpt><trkpt lat="39.51278942644941" lon="8.558538595479423"><ele>358.0</ele><time>2026-03-30T14:30:54.002Z</time></trkpt><trkpt lat="39.51269136288114" lon="8.558676528280586"><ele>358.75</ele><time>2026-03-30T14:30:55.002Z</time></trkpt><trkpt lat="39.512617639985066" lon="8.55883223002784"><ele>359.5</ele><time>2026-03-30T14:30:56.002Z</time></trkpt><trkpt lat="39.512523782155334" lon="8.558962675142613"><ele>360.25</ele><time>2026-03-30T14:30:57.002Z</time></trkpt><trkpt lat="39.51244039022329" lon="8.559101370017755"><ele>361.0</ele><time>2026-03-30T14:30:58.002Z</time></trkpt><trkpt lat="39.512024932391526" lon="8.559507996987385"><ele>363.25</ele><time>2026-03-30T14:31:02.002Z</time></trkpt><trkpt lat="39.51191718243567" lon="8.559510422739475"><ele>365.5</ele><time>2026-03-30T14:31:03.002Z</time></trkpt><trkpt lat="39.51180567605696" lon="8.559468507903068"><ele>367.75</ele><time>2026-03-30T14:31:04.002Z</time></trkpt><trkpt lat="39.51169167902154" lon="8.559421568116225"><ele>370.0</ele><time>2026-03-30T14:31:05.002Z</time></trkpt><trkpt lat="39.51157889061887" lon="8.55937447794948"><ele>370.0</ele><time>2026-03-30T14:31:06.002Z</time></trkpt><trkpt lat="39.5114893053776" lon="8.559266545846022"><ele>370.0</ele><time>2026-03-30T14:31:07.002Z</time></trkpt><trkpt lat="39.5114252627423" lon="8.559131552154033"><ele>370.0</ele><time>2026-03-30T14:31:08.002Z</time></trkpt><trkpt lat="39.51137747701535" lon="8.558987110517954"><ele>370.0</ele><time>2026-03-30T14:31:09.002Z</time></trkpt><trkpt lat="39.5113331697469" lon="8.558837886202166"><ele>372.5</ele><time>2026-03-30T14:31:10.002Z</time></trkpt><trkpt lat="39.511285388444286" lon="8.558689709835445"><ele>375.0</ele><time>2026-03-30T14:31:11.002Z</time></trkpt><trkpt lat="39.51123078801801" lon="8.558544809032652"><ele>377.5</ele><time>2026-03-30T14:31:12.002Z</time></trkpt><trkpt lat="39.51115406917808" lon="8.558416778926563"><ele>380.0</ele><time>2026-03-30T14:31:13.002Z</time></trkpt><trkpt lat="39.51104679900309" lon="8.558326388993166"><ele>380.0</ele><time>2026-03-30T14:31:14.002Z</time></trkpt><trkpt lat="39.510922526522094" lon="8.558279823934491"><ele>380.0</ele><time>2026-03-30T14:31:15.002Z</time></trkpt><trkpt lat="39.51079052134423" lon="8.558252519042384"><ele>380.0</ele><time>2026-03-30T14:31:16.002Z</time></trkpt><trkpt lat="39.51067469244193" lon="8.558188527327685"><ele>380.0</ele><time>2026-03-30T14:31:17.002Z</time></trkpt><trkpt lat="39.51056134432355" lon="8.558114489755775"><ele>380.0</ele><time>2026-03-30T14:31:18.002Z</time></trkpt><trkpt lat="39.51046814425054" lon="8.558008070564428"><ele>380.0</ele><time>2026-03-30T14:31:19.002Z</time></trkpt><trkpt lat="39.5103720201213" lon="8.557891641487686"><ele>380.0</ele><time>2026-03-30T14:31:20.002Z</time></trkpt><trkpt lat="39.51027314647424" lon="8.557773341547023"><ele>380.0</ele><time>2026-03-30T14:31:21.002Z</time></trkpt><trkpt lat="39.51016906480203" lon="8.557648587483984"><ele>382.25</ele><time>2026-03-30T14:31:22.002Z</time></trkpt><trkpt lat="39.510064116845484" lon="8.557517017017934"><ele>384.5</ele><time>2026-03-30T14:31:23.002Z</time></trkpt><trkpt lat="39.50996080123337" lon="8.557389016954007"><ele>386.75</ele><time>2026-03-30T14:31:24.002Z</time></trkpt><trkpt lat="39.50985886680713" lon="8.557253099009529"><ele>389.0</ele><time>2026-03-30T14:31:25.002Z</time></trkpt><trkpt lat="39.50974840074133" lon="8.55712437327842"><ele>390.66666666666663</ele><time>2026-03-30T14:31:26.002Z</time></trkpt><trkpt lat="39.50963473370645" lon="8.556987456876325"><ele>392.33333333333337</ele><time>2026-03-30T14:31:27.002Z</time></trkpt><trkpt lat="39.50952077757453" lon="8.556848830954605"><ele>394.0</ele><time>2026-03-30T14:31:28.002Z</time></trkpt><trkpt lat="39.50941004116374" lon="8.556702904144547"><ele>394.0</ele><time>2026-03-30T14:31:29.002Z</time></trkpt><trkpt lat="39.50930000842683" lon="8.556556392371949"><ele>394.0</ele><time>2026-03-30T14:31:30.003Z</time></trkpt><trkpt lat="39.50921275055291" lon="8.556410884098565"><ele>394.0</ele><time>2026-03-30T14:31:31.003Z</time></trkpt><trkpt lat="39.50916825466847" lon="8.556240446267768"><ele>394.0</ele><time>2026-03-30T14:31:32.003Z</time></trkpt><trkpt lat="39.50916299186397" lon="8.556044567764925"><ele>393.6666666666667</ele><time>2026-03-30T14:31:33.003Z</time></trkpt><trkpt lat="39.50916795059505" lon="8.555837923768088"><ele>393.33333333333337</ele><time>2026-03-30T14:31:34.003Z</time></trkpt><trkpt lat="39.509169435160196" lon="8.555622398534275"><ele>393.0</ele><time>2026-03-30T14:31:35.003Z</time></trkpt><trkpt lat="39.50916287021007" lon="8.55539587644607"><ele>392.33333333333337</ele><time>2026-03-30T14:31:36.003Z</time></trkpt><trkpt lat="39.50915551451226" lon="8.555159840744205"><ele>391.6666666666667</ele><time>2026-03-30T14:31:37.003Z</time></trkpt><trkpt lat="39.50914931905289" lon="8.554919599008551"><ele>391.0</ele><time>2026-03-30T14:31:38.003Z</time></trkpt><trkpt lat="39.509141986500815" lon="8.554676806265116"><ele>389.33333333333337</ele><time>2026-03-30T14:31:39.003Z</time></trkpt><trkpt lat="39.509132853390184" lon="8.554426422049117"><ele>387.66666666666663</ele><time>2026-03-30T14:31:40.003Z</time></trkpt><trkpt lat="39.50912753094102" lon="8.554177788667802"><ele>386.0</ele><time>2026-03-30T14:31:41.003Z</time></trkpt><trkpt lat="39.509121716661554" lon="8.553943532347311"><ele>386.0</ele><time>2026-03-30T14:31:42.003Z</time></trkpt><trkpt lat="39.509119804459544" lon="8.553727393199473"><ele>386.0</ele><time>2026-03-30T14:31:43.003Z</time></trkpt><trkpt lat="39.509138278799554" lon="8.553530687706921"><ele>386.0</ele><time>2026-03-30T14:31:44.003Z</time></trkpt><trkpt lat="39.509205760105914" lon="8.553346887967665"><ele>385.0</ele><time>2026-03-30T14:31:45Z</time></trkpt><trkpt lat="39.509311748356936" lon="8.553169096932331"><ele>384.0</ele><time>2026-03-30T14:31:46Z</time></trkpt><trkpt lat="39.50943531662535" lon="8.55300045691527"><ele>383.0</ele><time>2026-03-30T14:31:47Z</time></trkpt><trkpt lat="39.50952269734684" lon="8.552793062166653"><ele>383.6666666666667</ele><time>2026-03-30T14:31:48Z</time></trkpt><trkpt lat="39.509586331689626" lon="8.552560464383689"><ele>384.33333333333337</ele><time>2026-03-30T14:31:49Z</time></trkpt><trkpt lat="39.509647437084745" lon="8.552323311481786"><ele>385.0</ele><time>2026-03-30T14:31:50Z</time></trkpt><trkpt lat="39.50971714502856" lon="8.552089872077893"><ele>382.6666666666667</ele><time>2026-03-30T14:31:51Z</time></trkpt><trkpt lat="39.50978379854969" lon="8.551863017719137"><ele>380.33333333333337</ele><time>2026-03-30T14:31:52Z</time></trkpt><trkpt lat="39.50985130002643" lon="8.551643596430067"><ele>378.0</ele><time>2026-03-30T14:31:53Z</time></trkpt><trkpt lat="39.509915490898685" lon="8.55142723739012"><ele>378.0</ele><time>2026-03-30T14:31:54Z</time></trkpt><trkpt lat="39.50997940846886" lon="8.551219198381933"><ele>378.0</ele><time>2026-03-30T14:31:55Z</time></trkpt><trkpt lat="39.5100298917233" lon="8.551008977972867"><ele>378.0</ele><time>2026-03-30T14:31:56Z</time></trkpt><trkpt lat="39.51004029041243" lon="8.550794471500845"><ele>376.6666666666667</ele><time>2026-03-30T14:31:57Z</time></trkpt><trkpt lat="39.510000822759906" lon="8.550575087913595"><ele>375.33333333333337</ele><time>2026-03-30T14:31:58Z</time></trkpt><trkpt lat="39.509956633751315" lon="8.550357566567628"><ele>374.0</ele><time>2026-03-30T14:31:59Z</time></trkpt><trkpt lat="39.5099207532102" lon="8.55014826499866"><ele>374.0</ele><time>2026-03-30T14:32:00Z</time></trkpt><trkpt lat="39.50989300931605" lon="8.54996324596731"><ele>374.0</ele><time>2026-03-30T14:32:01Z</time></trkpt><trkpt lat="39.50984935389259" lon="8.549795535086021"><ele>374.0</ele><time>2026-03-30T14:32:02Z</time></trkpt><trkpt lat="39.50978225138626" lon="8.549678789671542"><ele>374.0</ele><time>2026-03-30T14:32:03Z</time></trkpt><trkpt lat="39.509682591942564" lon="8.549607592467204"><ele>374.25</ele><time>2026-03-30T14:32:04Z</time></trkpt><trkpt lat="39.50957238092564" lon="8.549585668863985"><ele>374.5</ele><time>2026-03-30T14:32:05Z</time></trkpt><trkpt lat="39.50944297364569" lon="8.549620960510856"><ele>374.75</ele><time>2026-03-30T14:32:06Z</time></trkpt><trkpt lat="39.509322259848815" lon="8.549650041691901"><ele>375.0</ele><time>2026-03-30T14:32:07Z</time></trkpt><trkpt lat="39.5091978954081" lon="8.549668693482113"><ele>375.0</ele><time>2026-03-30T14:32:08Z</time></trkpt><trkpt lat="39.50907463201083" lon="8.549686727807892"><ele>375.0</ele><time>2026-03-30T14:32:09Z</time></trkpt><trkpt lat="39.50881612512463" lon="8.54971601797227"><ele>375.0</ele><time>2026-03-30T14:32:11Z</time></trkpt><trkpt lat="39.508688164163246" lon="8.54973453853098"><ele>375.25</ele><time>2026-03-30T14:32:12Z</time></trkpt><trkpt lat="39.508574263933255" lon="8.549702412736824"><ele>375.5</ele><time>2026-03-30T14:32:13Z</time></trkpt><trkpt lat="39.508480119391606" lon="8.549606961356794"><ele>375.75</ele><time>2026-03-30T14:32:14Z</time></trkpt><trkpt lat="39.508411691456494" lon="8.549459378819089"><ele>376.0</ele><time>2026-03-30T14:32:15Z</time></trkpt><trkpt lat="39.508357308838356" lon="8.549308383127496"><ele>378.3333333333333</ele><time>2026-03-30T14:32:16Z</time></trkpt><trkpt lat="39.5082450405051" lon="8.548990790225565"><ele>380.6666666666667</ele><time>2026-03-30T14:32:18Z</time></trkpt><trkpt lat="39.50818267638238" lon="8.548825239039635"><ele>383.0</ele><time>2026-03-30T14:32:19Z</time></trkpt><trkpt lat="39.508116832776004" lon="8.548661212527202"><ele>384.0</ele><time>2026-03-30T14:32:20Z</time></trkpt><trkpt lat="39.508042384165265" lon="8.548506827419535"><ele>385.0</ele><time>2026-03-30T14:32:21.001Z</time></trkpt><trkpt lat="39.507938203009154" lon="8.548381483513573"><ele>386.0</ele><time>2026-03-30T14:32:22.001Z</time></trkpt><trkpt lat="39.50779527888322" lon="8.548315167993568"><ele>387.0</ele><time>2026-03-30T14:32:23.001Z</time></trkpt><trkpt lat="39.507634201587294" lon="8.548284206026407"><ele>387.0</ele><time>2026-03-30T14:32:24.001Z</time></trkpt><trkpt lat="39.50747693463517" lon="8.548255349272255"><ele>387.0</ele><time>2026-03-30T14:32:25.001Z</time></trkpt><trkpt lat="39.50732559993189" lon="8.548226152453667"><ele>387.0</ele><time>2026-03-30T14:32:26.001Z</time></trkpt><trkpt lat="39.507191724027734" lon="8.5481570201641"><ele>387.0</ele><time>2026-03-30T14:32:27.001Z</time></trkpt><trkpt lat="39.50711836825826" lon="8.548036840201254"><ele>387.0</ele><time>2026-03-30T14:32:28.001Z</time></trkpt><trkpt lat="39.50708497135747" lon="8.547905895860511"><ele>387.0</ele><time>2026-03-30T14:32:29.001Z</time></trkpt><trkpt lat="39.50706767226056" lon="8.54774671651775"><ele>387.0</ele><time>2026-03-30T14:32:30.001Z</time></trkpt><trkpt lat="39.507037366404894" lon="8.547576541973028"><ele>387.0</ele><time>2026-03-30T14:32:31.001Z</time></trkpt><trkpt lat="39.50699841442618" lon="8.547218967509364"><ele>387.0</ele><time>2026-03-30T14:32:33.001Z</time></trkpt><trkpt lat="39.506970687619315" lon="8.54702335935088"><ele>387.0</ele><time>2026-03-30T14:32:34.001Z</time></trkpt><trkpt lat="39.50693945413599" lon="8.546810923869193"><ele>388.66666666666663</ele><time>2026-03-30T14:32:35.001Z</time></trkpt><trkpt lat="39.50690922088484" lon="8.546586174621018"><ele>390.3333333333333</ele><time>2026-03-30T14:32:36.001Z</time></trkpt><trkpt lat="39.506848095290884" lon="8.546349906162897"><ele>392.0</ele><time>2026-03-30T14:32:37.001Z</time></trkpt><trkpt lat="39.506734907894945" lon="8.546131319492574"><ele>393.66666666666663</ele><time>2026-03-30T14:32:38.001Z</time></trkpt><trkpt lat="39.506594150847654" lon="8.54591314188586"><ele>395.33333333333337</ele><time>2026-03-30T14:32:39.001Z</time></trkpt><trkpt lat="39.50646653569427" lon="8.545686414516666"><ele>397.0</ele><time>2026-03-30T14:32:40.001Z</time></trkpt><trkpt lat="39.506355680459514" lon="8.545454901866117"><ele>397.33333333333337</ele><time>2026-03-30T14:32:41.001Z</time></trkpt><trkpt lat="39.50625478991716" lon="8.545220459433382"><ele>397.66666666666663</ele><time>2026-03-30T14:32:42.001Z</time></trkpt><trkpt lat="39.50619054987541" lon="8.544970091061074"><ele>398.0</ele><time>2026-03-30T14:32:43.001Z</time></trkpt><trkpt lat="39.50614515750414" lon="8.54471205831632"><ele>397.0</ele><time>2026-03-30T14:32:44.001Z</time></trkpt><trkpt lat="39.50608509645254" lon="8.544468620755536"><ele>396.0</ele><time>2026-03-30T14:32:45.001Z</time></trkpt><trkpt lat="39.506027669969306" lon="8.54422371106398"><ele>395.0</ele><time>2026-03-30T14:32:46.001Z</time></trkpt><trkpt lat="39.505972013008716" lon="8.543989680979625"><ele>395.0</ele><time>2026-03-30T14:32:47.001Z</time></trkpt><trkpt lat="39.50592810893398" lon="8.543754020738826"><ele>395.0</ele><time>2026-03-30T14:32:48.001Z</time></trkpt><trkpt lat="39.50591409997409" lon="8.543519352572101"><ele>395.0</ele><time>2026-03-30T14:32:49.001Z</time></trkpt><trkpt lat="39.50594795078909" lon="8.543276833016565"><ele>395.25</ele><time>2026-03-30T14:32:50.001Z</time></trkpt><trkpt lat="39.5060005485064" lon="8.543048869678131"><ele>395.5</ele><time>2026-03-30T14:32:51.001Z</time></trkpt><trkpt lat="39.50604141026991" lon="8.54287229617102"><ele>395.75</ele><time>2026-03-30T14:32:52.001Z</time></trkpt><trkpt lat="39.50607184101178" lon="8.542737701546583"><ele>396.0</ele><time>2026-03-30T14:32:53.001Z</time></trkpt><trkpt lat="39.50609541910672" lon="8.542653882601746"><ele>396.1666666666667</ele><time>2026-03-30T14:32:54.001Z</time></trkpt><trkpt lat="39.50615781865613" lon="8.542578865100712"><ele>396.33333333333337</ele><time>2026-03-30T14:32:57.001Z</time></trkpt><trkpt lat="39.50623851861287" lon="8.542503396980322"><ele>396.5</ele><time>2026-03-30T14:32:59.001Z</time></trkpt><trkpt lat="39.50630452018778" lon="8.542459540620897"><ele>396.6666666666667</ele><time>2026-03-30T14:33:00.001Z</time></trkpt><trkpt lat="39.506378896100045" lon="8.542401258607448"><ele>396.83333333333337</ele><time>2026-03-30T14:33:01.001Z</time></trkpt><trkpt lat="39.506428765221216" lon="8.542284827584185"><ele>397.0</ele><time>2026-03-30T14:33:02.001Z</time></trkpt><trkpt lat="39.506545852308804" lon="8.542258068116228"><ele>397.8</ele><time>2026-03-30T14:33:03.001Z</time></trkpt><trkpt lat="39.50662398058726" lon="8.54218996098688"><ele>398.6</ele><time>2026-03-30T14:33:04.002Z</time></trkpt><trkpt lat="39.5067070712083" lon="8.542116767356324"><ele>399.40000000000003</ele><time>2026-03-30T14:33:05.002Z</time></trkpt><trkpt lat="39.50679330071023" lon="8.54204016923636"><ele>400.20000000000005</ele><time>2026-03-30T14:33:06.002Z</time></trkpt><trkpt lat="39.50688099430712" lon="8.541965708365446"><ele>401.0</ele><time>2026-03-30T14:33:07.002Z</time></trkpt><trkpt lat="39.506970896031014" lon="8.541886010717622"><ele>400.99999999999994</ele><time>2026-03-30T14:33:08.002Z</time></trkpt><trkpt lat="39.50705368526425" lon="8.541809523164002"><ele>401.0</ele><time>2026-03-30T14:33:09.002Z</time></trkpt><trkpt lat="39.507124489868666" lon="8.541744968898778"><ele>401.0</ele><time>2026-03-30T14:33:10.002Z</time></trkpt><trkpt lat="39.507196082966544" lon="8.541694164458534"><ele>401.0</ele><time>2026-03-30T14:33:11.002Z</time></trkpt><trkpt lat="39.50726670139739" lon="8.541665018707167"><ele>400.99999999999994</ele><time>2026-03-30T14:33:12.002Z</time></trkpt><trkpt lat="39.507333860267686" lon="8.541609541431876"><ele>401.0</ele><time>2026-03-30T14:33:14.002Z</time></trkpt><trkpt lat="39.50740037210962" lon="8.541537371546918"><ele>401.3333333333333</ele><time>2026-03-30T14:33:24.002Z</time></trkpt><trkpt lat="39.507478285447284" lon="8.541447860719474"><ele>401.66666666666663</ele><time>2026-03-30T14:33:26.002Z</time></trkpt><trkpt lat="39.50753244727658" lon="8.541382471220087"><ele>402.0</ele><time>2026-03-30T14:33:27.002Z</time></trkpt><trkpt lat="39.50757859513526" lon="8.541303954373813"><ele>402.33333333333337</ele><time>2026-03-30T14:33:28.002Z</time></trkpt><trkpt lat="39.507628613075724" lon="8.54122088826302"><ele>402.6666666666667</ele><time>2026-03-30T14:33:29.002Z</time></trkpt><trkpt lat="39.50768382068529" lon="8.541126283724354"><ele>403.0</ele><time>2026-03-30T14:33:30.002Z</time></trkpt><trkpt lat="39.50773709704359" lon="8.541022452698313"><ele>403.0</ele><time>2026-03-30T14:33:31.002Z</time></trkpt><trkpt lat="39.50778901453417" lon="8.540911349017685"><ele>403.0</ele><time>2026-03-30T14:33:32.002Z</time></trkpt><trkpt lat="39.5078570647366" lon="8.540791598146333"><ele>403.0</ele><time>2026-03-30T14:33:33.002Z</time></trkpt><trkpt lat="39.50790576356846" lon="8.540661340534914"><ele>403.0</ele><time>2026-03-30T14:33:34.002Z</time></trkpt><trkpt lat="39.50797285571706" lon="8.540532414892468"><ele>403.0</ele><time>2026-03-30T14:33:35.002Z</time></trkpt><trkpt lat="39.50802794557664" lon="8.540378087444894"><ele>406.0</ele><time>2026-03-30T14:33:36.002Z</time></trkpt><trkpt lat="39.508078160024304" lon="8.540218029508637"><ele>409.0</ele><time>2026-03-30T14:33:37.002Z</time></trkpt><trkpt lat="39.508127366851454" lon="8.540061809330927"><ele>412.0</ele><time>2026-03-30T14:33:38.002Z</time></trkpt><trkpt lat="39.508178801956625" lon="8.539900249244415"><ele>415.0</ele><time>2026-03-30T14:33:39.002Z</time></trkpt><trkpt lat="39.50822506939537" lon="8.539735317263075"><ele>415.0</ele><time>2026-03-30T14:33:40.002Z</time></trkpt><trkpt lat="39.50827551281815" lon="8.539570862572305"><ele>415.0</ele><time>2026-03-30T14:33:41.002Z</time></trkpt><trkpt lat="39.50832676631359" lon="8.539401910172302"><ele>415.0</ele><time>2026-03-30T14:33:42.002Z</time></trkpt><trkpt lat="39.508377239021556" lon="8.539231356943656"><ele>415.0</ele><time>2026-03-30T14:33:43.002Z</time></trkpt><trkpt lat="39.50843550980564" lon="8.539064837057602"><ele>414.25</ele><time>2026-03-30T14:33:44.002Z</time></trkpt><trkpt lat="39.508497259055055" lon="8.538901004412331"><ele>413.5</ele><time>2026-03-30T14:33:45.002Z</time></trkpt><trkpt lat="39.50857548082141" lon="8.538745291390796"><ele>412.75</ele><time>2026-03-30T14:33:46.002Z</time></trkpt><trkpt lat="39.50862953541685" lon="8.538571841282096"><ele>412.0</ele><time>2026-03-30T14:33:47.002Z</time></trkpt><trkpt lat="39.50868226710632" lon="8.538402844947592"><ele>414.0</ele><time>2026-03-30T14:33:48.003Z</time></trkpt><trkpt lat="39.508744436339725" lon="8.538236696152627"><ele>416.0</ele><time>2026-03-30T14:33:49.003Z</time></trkpt><trkpt lat="39.509319786915476" lon="8.538327332317554"><ele>418.0</ele><time>2026-03-30T14:33:50.003Z</time></trkpt><trkpt lat="39.50880836951787" lon="8.537862145540558"><ele>418.0</ele><time>2026-03-30T14:33:51Z</time></trkpt><trkpt lat="39.508859778564066" lon="8.537694608952364"><ele>418.0</ele><time>2026-03-30T14:33:52Z</time></trkpt><trkpt lat="39.50891004961546" lon="8.537520459835415"><ele>418.0</ele><time>2026-03-30T14:33:53Z</time></trkpt><trkpt lat="39.50896464263687" lon="8.537344636958098"><ele>418.0</ele><time>2026-03-30T14:33:54Z</time></trkpt><trkpt lat="39.50901830693147" lon="8.537179483358631"><ele>418.75</ele><time>2026-03-30T14:33:55Z</time></trkpt><trkpt lat="39.50908347680426" lon="8.537017106002805"><ele>419.5</ele><time>2026-03-30T14:33:56Z</time></trkpt><trkpt lat="39.50915241413748" lon="8.536859149130727"><ele>420.25</ele><time>2026-03-30T14:33:57Z</time></trkpt><trkpt lat="39.50921801297254" lon="8.536699109121676"><ele>421.0</ele><time>2026-03-30T14:33:58Z</time></trkpt><trkpt lat="39.50928682316574" lon="8.536542325591931"><ele>421.0</ele><time>2026-03-30T14:33:59Z</time></trkpt><trkpt lat="39.50935442472277" lon="8.536375269235196"><ele>421.0</ele><time>2026-03-30T14:34:00Z</time></trkpt><trkpt lat="39.50942300177468" lon="8.536211213776506"><ele>421.0</ele><time>2026-03-30T14:34:01Z</time></trkpt><trkpt lat="39.50948686611872" lon="8.536047770855262"><ele>421.0</ele><time>2026-03-30T14:34:02Z</time></trkpt><trkpt lat="39.50955673184138" lon="8.53588951855906"><ele>423.25</ele><time>2026-03-30T14:34:03Z</time></trkpt><trkpt lat="39.50962850325073" lon="8.535733983297087"><ele>425.5</ele><time>2026-03-30T14:34:04Z</time></trkpt><trkpt lat="39.509716373689315" lon="8.535590431039747"><ele>427.75</ele><time>2026-03-30T14:34:05Z</time></trkpt><trkpt lat="39.50983240769274" lon="8.535486668405893"><ele>430.0</ele><time>2026-03-30T14:34:06Z</time></trkpt><trkpt lat="39.50994149958541" lon="8.535380768070965"><ele>430.0</ele><time>2026-03-30T14:34:07Z</time></trkpt><trkpt lat="39.51004750771488" lon="8.535262142677709"><ele>430.0</ele><time>2026-03-30T14:34:08Z</time></trkpt><trkpt lat="39.51015453500139" lon="8.535164449784935"><ele>430.0</ele><time>2026-03-30T14:34:09Z</time></trkpt><trkpt lat="39.51024847467581" lon="8.535051352962736"><ele>430.0</ele><time>2026-03-30T14:34:10Z</time></trkpt><trkpt lat="39.51033112542133" lon="8.534927561909203"><ele>430.0</ele><time>2026-03-30T14:34:11Z</time></trkpt><trkpt lat="39.51040768145936" lon="8.534804223954174"><ele>430.0</ele><time>2026-03-30T14:34:12Z</time></trkpt><trkpt lat="39.5104831206931" lon="8.534678081930956"><ele>430.0</ele><time>2026-03-30T14:34:13Z</time></trkpt><trkpt lat="39.51053782143165" lon="8.534555497924488"><ele>430.0</ele><time>2026-03-30T14:34:14Z</time></trkpt><trkpt lat="39.510579516649116" lon="8.534439247938511"><ele>431.50000000000006</ele><time>2026-03-30T14:34:15Z</time></trkpt><trkpt lat="39.51061450121135" lon="8.534334654165106"><ele>433.0</ele><time>2026-03-30T14:34:16Z</time></trkpt><trkpt lat="39.51064131369166" lon="8.534234893105044"><ele>434.5</ele><time>2026-03-30T14:34:17Z</time></trkpt><trkpt lat="39.51066134542756" lon="8.534143683065198"><ele>436.0</ele><time>2026-03-30T14:34:18Z</time></trkpt><trkpt lat="39.5106820267686" lon="8.534062338578602"><ele>437.50000000000006</ele><time>2026-03-30T14:34:19Z</time></trkpt><trkpt lat="39.51071390645935" lon="8.533940693567054"><ele>439.0</ele><time>2026-03-30T14:34:21Z</time></trkpt><trkpt lat="39.51074205539172" lon="8.533823498084878"><ele>439.2</ele><time>2026-03-30T14:34:23Z</time></trkpt><trkpt lat="39.510775414143616" lon="8.53371152395912"><ele>439.4</ele><time>2026-03-30T14:34:25Z</time></trkpt><trkpt lat="39.51081030337513" lon="8.533576159656556"><ele>439.6</ele><time>2026-03-30T14:34:27Z</time></trkpt><trkpt lat="39.51086327401129" lon="8.533445824423302"><ele>439.8</ele><time>2026-03-30T14:34:29.001Z</time></trkpt><trkpt lat="39.51093098353348" lon="8.533305683302903"><ele>440.0</ele><time>2026-03-30T14:34:31.001Z</time></trkpt><trkpt lat="39.51097146759065" lon="8.533231134579877"><ele>439.99999999999994</ele><time>2026-03-30T14:34:32.001Z</time></trkpt><trkpt lat="39.51101793802109" lon="8.533162592236335"><ele>440.0</ele><time>2026-03-30T14:34:33.001Z</time></trkpt><trkpt lat="39.511068694833206" lon="8.533103220840378"><ele>440.0</ele><time>2026-03-30T14:34:34.001Z</time></trkpt><trkpt lat="39.51112837175485" lon="8.533050062971727"><ele>440.0</ele><time>2026-03-30T14:34:35.001Z</time></trkpt><trkpt lat="39.511191898529866" lon="8.53300101165557"><ele>440.0</ele><time>2026-03-30T14:34:36.001Z</time></trkpt><trkpt lat="39.51126029047841" lon="8.532956905727538"><ele>439.99999999999994</ele><time>2026-03-30T14:34:37.001Z</time></trkpt><trkpt lat="39.51133439043488" lon="8.532914590098517"><ele>440.0</ele><time>2026-03-30T14:34:38.001Z</time></trkpt><trkpt lat="39.51140858120259" lon="8.532878914967492"><ele>441.16666666666663</ele><time>2026-03-30T14:34:39.001Z</time></trkpt><trkpt lat="39.51148453354421" lon="8.532845365650038"><ele>442.3333333333333</ele><time>2026-03-30T14:34:40.001Z</time></trkpt><trkpt lat="39.51156215718755" lon="8.532808362928703"><ele>443.5</ele><time>2026-03-30T14:34:41.001Z</time></trkpt><trkpt lat="39.51164159552999" lon="8.532769421889018"><ele>444.66666666666663</ele><time>2026-03-30T14:34:42.001Z</time></trkpt><trkpt lat="39.51172173683441" lon="8.532722194989578"><ele>445.8333333333333</ele><time>2026-03-30T14:34:43.001Z</time></trkpt><trkpt lat="39.511798779815486" lon="8.532667130821125"><ele>447.0</ele><time>2026-03-30T14:34:44.001Z</time></trkpt><trkpt lat="39.511870035423925" lon="8.532598234808113"><ele>447.0</ele><time>2026-03-30T14:34:45.001Z</time></trkpt><trkpt lat="39.511939386593916" lon="8.532521179752308"><ele>447.0</ele><time>2026-03-30T14:34:46.001Z</time></trkpt><trkpt lat="39.5120012472292" lon="8.532437545748904"><ele>447.0</ele><time>2026-03-30T14:34:47.001Z</time></trkpt><trkpt lat="39.51205770667416" lon="8.532350825596637"><ele>447.0</ele><time>2026-03-30T14:34:48.001Z</time></trkpt><trkpt lat="39.5121062954706" lon="8.532259189096266"><ele>447.0</ele><time>2026-03-30T14:34:49.001Z</time></trkpt><trkpt lat="39.51215019844933" lon="8.532163846651244"><ele>447.0</ele><time>2026-03-30T14:34:50.001Z</time></trkpt><trkpt lat="39.5121898632608" lon="8.532063559897253"><ele>448.0</ele><time>2026-03-30T14:34:51.001Z</time></trkpt><trkpt lat="39.51222755880051" lon="8.531960767236779"><ele>449.00000000000006</ele><time>2026-03-30T14:34:52.001Z</time></trkpt><trkpt lat="39.5122701911387" lon="8.531859784455257"><ele>450.00000000000006</ele><time>2026-03-30T14:34:53.001Z</time></trkpt><trkpt lat="39.51231488179445" lon="8.531760043720757"><ele>451.0</ele><time>2026-03-30T14:34:54.001Z</time></trkpt><trkpt lat="39.512359675741536" lon="8.531657976088438"><ele>452.0</ele><time>2026-03-30T14:34:55.001Z</time></trkpt><trkpt lat="39.51240533856266" lon="8.531549982531773"><ele>451.99999999999994</ele><time>2026-03-30T14:34:56.001Z</time></trkpt><trkpt lat="39.51244532849769" lon="8.531439167575774"><ele>452.0</ele><time>2026-03-30T14:34:57.001Z</time></trkpt><trkpt lat="39.51249342706973" lon="8.531332709243802"><ele>452.0</ele><time>2026-03-30T14:34:58.001Z</time></trkpt><trkpt lat="39.51252609707882" lon="8.531230907620937"><ele>452.0</ele><time>2026-03-30T14:34:59.001Z</time></trkpt><trkpt lat="39.51256367917706" lon="8.53114436593701"><ele>451.99999999999994</ele><time>2026-03-30T14:35:00.001Z</time></trkpt><trkpt lat="39.51259808555865" lon="8.531064015749081"><ele>452.0</ele><time>2026-03-30T14:35:01.001Z</time></trkpt><trkpt lat="39.51263212445622" lon="8.530983936980473"><ele>452.42857142857144</ele><time>2026-03-30T14:35:02.001Z</time></trkpt><trkpt lat="39.51266413322805" lon="8.530902451672054"><ele>452.85714285714283</ele><time>2026-03-30T14:35:03.001Z</time></trkpt><trkpt lat="39.51269516792298" lon="8.530820425256303"><ele>453.2857142857143</ele><time>2026-03-30T14:35:04.001Z</time></trkpt><trkpt lat="39.51272706442121" lon="8.530738139499187"><ele>453.7142857142857</ele><time>2026-03-30T14:35:05.001Z</time></trkpt><trkpt lat="39.512760113234066" lon="8.53065219986728"><ele>454.1428571428571</ele><time>2026-03-30T14:35:06.001Z</time></trkpt><trkpt lat="39.51279190700851" lon="8.530566369498148"><ele>454.57142857142856</ele><time>2026-03-30T14:35:07.001Z</time></trkpt><trkpt lat="39.512823310633124" lon="8.530475312571385"><ele>455.0</ele><time>2026-03-30T14:35:08.001Z</time></trkpt><trkpt lat="39.51285055748179" lon="8.530381745913248"><ele>455.3333333333333</ele><time>2026-03-30T14:35:09.001Z</time></trkpt><trkpt lat="39.512870286278584" lon="8.530281735687076"><ele>455.66666666666663</ele><time>2026-03-30T14:35:10.001Z</time></trkpt><trkpt lat="39.51287840919274" lon="8.530184179644717"><ele>456.0</ele><time>2026-03-30T14:35:11.002Z</time></trkpt><trkpt lat="39.512879896683096" lon="8.530080537635333"><ele>456.33333333333337</ele><time>2026-03-30T14:35:12.002Z</time></trkpt><trkpt lat="39.512870531569966" lon="8.52996765850397"><ele>456.6666666666667</ele><time>2026-03-30T14:35:13.002Z</time></trkpt><trkpt lat="39.512851612906196" lon="8.529869507701232"><ele>457.0</ele><time>2026-03-30T14:35:14.002Z</time></trkpt><trkpt lat="39.51283091840651" lon="8.529764846909774"><ele>457.00000000000006</ele><time>2026-03-30T14:35:15.002Z</time></trkpt><trkpt lat="39.5128167720802" lon="8.529658191763343"><ele>457.0</ele><time>2026-03-30T14:35:16.002Z</time></trkpt><trkpt lat="39.51280789244177" lon="8.529546929488209"><ele>457.0</ele><time>2026-03-30T14:35:17.002Z</time></trkpt><trkpt lat="39.51280764188689" lon="8.52943380727334"><ele>457.0</ele><time>2026-03-30T14:35:18.002Z</time></trkpt><trkpt lat="39.51281894401299" lon="8.529316933142287"><ele>457.00000000000006</ele><time>2026-03-30T14:35:19.002Z</time></trkpt><trkpt lat="39.51284314341677" lon="8.529201843984447"><ele>457.0</ele><time>2026-03-30T14:35:20.002Z</time></trkpt><trkpt lat="39.51288046117727" lon="8.529089082083647"><ele>458.20000000000005</ele><time>2026-03-30T14:35:21.002Z</time></trkpt><trkpt lat="39.512923205417074" lon="8.528982839604858"><ele>459.40000000000003</ele><time>2026-03-30T14:35:22.002Z</time></trkpt><trkpt lat="39.51297083000748" lon="8.528877192329631"><ele>460.59999999999997</ele><time>2026-03-30T14:35:23.002Z</time></trkpt><trkpt lat="39.51302291190494" lon="8.528775380369071"><ele>461.79999999999995</ele><time>2026-03-30T14:35:24.002Z</time></trkpt><trkpt lat="39.5130833523425" lon="8.52868140598046"><ele>463.0</ele><time>2026-03-30T14:35:25.002Z</time></trkpt><trkpt lat="39.51315036627543" lon="8.528596754405214"><ele>463.0</ele><time>2026-03-30T14:35:26.002Z</time></trkpt><trkpt lat="39.513220413067145" lon="8.5285153404698"><ele>462.99999999999994</ele><time>2026-03-30T14:35:27.002Z</time></trkpt><trkpt lat="39.51328791356302" lon="8.52843154750919"><ele>462.99999999999994</ele><time>2026-03-30T14:35:28.002Z</time></trkpt><trkpt lat="39.513349586375796" lon="8.528345179835187"><ele>463.0</ele><time>2026-03-30T14:35:29.002Z</time></trkpt><trkpt lat="39.51340669977738" lon="8.528254395752272"><ele>463.0</ele><time>2026-03-30T14:35:30.002Z</time></trkpt><trkpt lat="39.51346180407974" lon="8.528158423498107"><ele>463.0</ele><time>2026-03-30T14:35:31.002Z</time></trkpt><trkpt lat="39.51350444226849" lon="8.528052466077554"><ele>462.99999999999994</ele><time>2026-03-30T14:35:32.002Z</time></trkpt><trkpt lat="39.51353622335381" lon="8.527942857288204"><ele>462.99999999999994</ele><time>2026-03-30T14:35:33.002Z</time></trkpt><trkpt lat="39.51356325337568" lon="8.527826632383066"><ele>463.0</ele><time>2026-03-30T14:35:34.002Z</time></trkpt><trkpt lat="39.51357956110371" lon="8.52770898867383"><ele>463.0</ele><time>2026-03-30T14:35:35.002Z</time></trkpt><trkpt lat="39.51358403967842" lon="8.527597188598374"><ele>462.6666666666667</ele><time>2026-03-30T14:35:36.002Z</time></trkpt><trkpt lat="39.513585032842784" lon="8.527489117171314"><ele>462.33333333333337</ele><time>2026-03-30T14:35:37.002Z</time></trkpt><trkpt lat="39.513587867453914" lon="8.527384677187733"><ele>462.0</ele><time>2026-03-30T14:35:38.002Z</time></trkpt><trkpt lat="39.51359022950036" lon="8.527282404964977"><ele>461.66666666666663</ele><time>2026-03-30T14:35:39.002Z</time></trkpt><trkpt lat="39.51359633481005" lon="8.527187530019232"><ele>461.3333333333333</ele><time>2026-03-30T14:35:40.002Z</time></trkpt><trkpt lat="39.51360049097763" lon="8.527098936083663"><ele>461.0</ele><time>2026-03-30T14:35:41.002Z</time></trkpt><trkpt lat="39.51359970578819" lon="8.527009856487867"><ele>460.20000000000005</ele><time>2026-03-30T14:35:42.002Z</time></trkpt><trkpt lat="39.51360155341016" lon="8.52692385938384"><ele>459.40000000000003</ele><time>2026-03-30T14:35:43.002Z</time></trkpt><trkpt lat="39.51360380878673" lon="8.526772178402394"><ele>458.6</ele><time>2026-03-30T14:35:45.002Z</time></trkpt><trkpt lat="39.51360493054008" lon="8.526629744292004"><ele>457.8</ele><time>2026-03-30T14:35:47.002Z</time></trkpt><trkpt lat="39.51360817867844" lon="8.526487765344822"><ele>457.0</ele><time>2026-03-30T14:35:49.002Z</time></trkpt><trkpt lat="39.51360701907712" lon="8.52634211130897"><ele>456.40000000000003</ele><time>2026-03-30T14:35:51.002Z</time></trkpt><trkpt lat="39.51360552354017" lon="8.526202781256165"><ele>455.80000000000007</ele><time>2026-03-30T14:35:53.002Z</time></trkpt><trkpt lat="39.513610013887615" lon="8.526058294889964"><ele>455.2</ele><time>2026-03-30T14:35:55.003Z</time></trkpt><trkpt lat="39.5136078613553" lon="8.525935727732607"><ele>454.6</ele><time>2026-03-30T14:35:56.003Z</time></trkpt><trkpt lat="39.513602362392774" lon="8.525789619659426"><ele>454.0</ele><time>2026-03-30T14:35:57Z</time></trkpt><trkpt lat="39.513582640411684" lon="8.525622549290244"><ele>454.0</ele><time>2026-03-30T14:35:58Z</time></trkpt><trkpt lat="39.51353746399824" lon="8.525455901898535"><ele>454.0</ele><time>2026-03-30T14:35:59Z</time></trkpt><trkpt lat="39.513472338635395" lon="8.52531972493397"><ele>454.0</ele><time>2026-03-30T14:36:00Z</time></trkpt><trkpt lat="39.51339792702443" lon="8.525200766543836"><ele>454.0</ele><time>2026-03-30T14:36:01Z</time></trkpt><trkpt lat="39.5133140636366" lon="8.52509414945196"><ele>451.6</ele><time>2026-03-30T14:36:02Z</time></trkpt><trkpt lat="39.51323646336429" lon="8.525002576370243"><ele>449.2</ele><time>2026-03-30T14:36:03Z</time></trkpt><trkpt lat="39.51317421893708" lon="8.524918177554868"><ele>446.80000000000007</ele><time>2026-03-30T14:36:04Z</time></trkpt><trkpt lat="39.51312460429161" lon="8.524843510528624"><ele>444.40000000000003</ele><time>2026-03-30T14:36:05Z</time></trkpt><trkpt lat="39.51308419925394" lon="8.524769613611303"><ele>442.0</ele><time>2026-03-30T14:36:06Z</time></trkpt><trkpt lat="39.513057160842585" lon="8.52461903471995"><ele>440.83333333333337</ele><time>2026-03-30T14:36:08Z</time></trkpt><trkpt lat="39.513055904978124" lon="8.524525885060047"><ele>439.6666666666667</ele><time>2026-03-30T14:36:09Z</time></trkpt><trkpt lat="39.51306461384956" lon="8.52443498057451"><ele>438.5</ele><time>2026-03-30T14:36:10Z</time></trkpt><trkpt lat="39.51305965737736" lon="8.524284862117673"><ele>437.33333333333337</ele><time>2026-03-30T14:36:12Z</time></trkpt><trkpt lat="39.51304953601298" lon="8.524163471239444"><ele>436.1666666666667</ele><time>2026-03-30T14:36:14Z</time></trkpt><trkpt lat="39.51303652590443" lon="8.524043831848415"><ele>435.0</ele><time>2026-03-30T14:36:16Z</time></trkpt><trkpt lat="39.51301259820823" lon="8.523937052713828"><ele>435.0</ele><time>2026-03-30T14:36:18Z</time></trkpt><trkpt lat="39.51296243786243" lon="8.52380279323375"><ele>435.0</ele><time>2026-03-30T14:36:20Z</time></trkpt><trkpt lat="39.512909867720815" lon="8.523671258781429"><ele>435.0</ele><time>2026-03-30T14:36:22Z</time></trkpt><trkpt lat="39.512831247450755" lon="8.523539214041193"><ele>435.0</ele><time>2026-03-30T14:36:24Z</time></trkpt><trkpt lat="39.51278367906883" lon="8.52346660519161"><ele>435.0</ele><time>2026-03-30T14:36:25Z</time></trkpt><trkpt lat="39.51274101120538" lon="8.52337845947371"><ele>435.6</ele><time>2026-03-30T14:36:26Z</time></trkpt><trkpt lat="39.512704432303494" lon="8.523267446908516"><ele>436.2</ele><time>2026-03-30T14:36:27Z</time></trkpt><trkpt lat="39.512680665519945" lon="8.52313870575872"><ele>436.79999999999995</ele><time>2026-03-30T14:36:28Z</time></trkpt><trkpt lat="39.51267763890889" lon="8.523000562871104"><ele>437.4</ele><time>2026-03-30T14:36:29Z</time></trkpt><trkpt lat="39.512697873533746" lon="8.522852542691272"><ele>438.0</ele><time>2026-03-30T14:36:30Z</time></trkpt><trkpt lat="39.51273903054647" lon="8.522698586880002"><ele>438.0</ele><time>2026-03-30T14:36:31Z</time></trkpt><trkpt lat="39.51280213636246" lon="8.522544438105"><ele>438.0</ele><time>2026-03-30T14:36:32Z</time></trkpt><trkpt lat="39.51286173636435" lon="8.522389281923049"><ele>438.0</ele><time>2026-03-30T14:36:33Z</time></trkpt><trkpt lat="39.51292116983158" lon="8.522229606838561"><ele>438.0</ele><time>2026-03-30T14:36:34.001Z</time></trkpt><trkpt lat="39.5129804224697" lon="8.522072737730635"><ele>433.75</ele><time>2026-03-30T14:36:35.001Z</time></trkpt><trkpt lat="39.51303789264236" lon="8.521917282983864"><ele>429.5</ele><time>2026-03-30T14:36:36.001Z</time></trkpt><trkpt lat="39.513091717626395" lon="8.521763721914784"><ele>425.25</ele><time>2026-03-30T14:36:37.001Z</time></trkpt><trkpt lat="39.51314251471806" lon="8.521622210786113"><ele>421.0</ele><time>2026-03-30T14:36:38.001Z</time></trkpt><trkpt lat="39.51319348785361" lon="8.521481486955379"><ele>421.0</ele><time>2026-03-30T14:36:39.001Z</time></trkpt><trkpt lat="39.513234236619034" lon="8.521336816276161"><ele>421.0</ele><time>2026-03-30T14:36:40.001Z</time></trkpt><trkpt lat="39.51325002792442" lon="8.521188183463401"><ele>421.0</ele><time>2026-03-30T14:36:41.001Z</time></trkpt><trkpt lat="39.51324237527776" lon="8.521041433080137"><ele>421.0</ele><time>2026-03-30T14:36:42.001Z</time></trkpt><trkpt lat="39.51321862140005" lon="8.520898063877054"><ele>419.5</ele><time>2026-03-30T14:36:43.001Z</time></trkpt><trkpt lat="39.513179953224274" lon="8.520762345273145"><ele>418.0</ele><time>2026-03-30T14:36:44.001Z</time></trkpt><trkpt lat="39.5131348220608" lon="8.520636091909813"><ele>416.5</ele><time>2026-03-30T14:36:45.001Z</time></trkpt><trkpt lat="39.5129841115565" lon="8.520414970699191"><ele>415.0</ele><time>2026-03-30T14:36:47.001Z</time></trkpt><trkpt lat="39.512890637084" lon="8.520318265068378"><ele>412.75</ele><time>2026-03-30T14:36:48.001Z</time></trkpt><trkpt lat="39.512789568384285" lon="8.520218433429763"><ele>410.5</ele><time>2026-03-30T14:36:49.001Z</time></trkpt><trkpt lat="39.51267608418157" lon="8.520121056387215"><ele>408.25</ele><time>2026-03-30T14:36:50.001Z</time></trkpt><trkpt lat="39.512546882319384" lon="8.5200525176206"><ele>406.0</ele><time>2026-03-30T14:36:51.001Z</time></trkpt><trkpt lat="39.5124090900889" lon="8.520014631754714"><ele>406.0</ele><time>2026-03-30T14:36:52.001Z</time></trkpt><trkpt lat="39.51227093517606" lon="8.520011552420065"><ele>406.0</ele><time>2026-03-30T14:36:53.001Z</time></trkpt><trkpt lat="39.512133790651376" lon="8.52001527134859"><ele>406.0</ele><time>2026-03-30T14:36:54.001Z</time></trkpt><trkpt lat="39.512002780545465" lon="8.520030813741544"><ele>406.0</ele><time>2026-03-30T14:36:55.001Z</time></trkpt><trkpt lat="39.51187325865231" lon="8.520061250507437"><ele>406.5</ele><time>2026-03-30T14:36:56.001Z</time></trkpt><trkpt lat="39.51174690404709" lon="8.52001066730631"><ele>407.0</ele><time>2026-03-30T14:36:57.001Z</time></trkpt><trkpt lat="39.51161651376504" lon="8.519971312568135"><ele>407.5</ele><time>2026-03-30T14:36:58.001Z</time></trkpt><trkpt lat="39.51149848537282" lon="8.519885393634027"><ele>408.0</ele><time>2026-03-30T14:36:59.001Z</time></trkpt><trkpt lat="39.51139940284161" lon="8.519795880083091"><ele>408.0</ele><time>2026-03-30T14:37:00.001Z</time></trkpt><trkpt lat="39.511318257977166" lon="8.519713624815306"><ele>408.0</ele><time>2026-03-30T14:37:01.001Z</time></trkpt><trkpt lat="39.511256167269146" lon="8.51962726971088"><ele>408.0</ele><time>2026-03-30T14:37:02.001Z</time></trkpt><trkpt lat="39.511208710645214" lon="8.519539998122413"><ele>408.0</ele><time>2026-03-30T14:37:03.001Z</time></trkpt><trkpt lat="39.51114913697052" lon="8.519481240936006"><ele>408.0</ele><time>2026-03-30T14:37:04.001Z</time></trkpt><trkpt lat="39.511076684464584" lon="8.519440227012778"><ele>408.0</ele><time>2026-03-30T14:37:05.001Z</time></trkpt><trkpt lat="39.51106037131559" lon="8.519278054754352"><ele>407.2</ele><time>2026-03-30T14:37:07.001Z</time></trkpt><trkpt lat="39.51100260119262" lon="8.51916567556478"><ele>406.4</ele><time>2026-03-30T14:37:09.001Z</time></trkpt><trkpt lat="39.510980201640685" lon="8.519078484546421"><ele>405.59999999999997</ele><time>2026-03-30T14:37:10.001Z</time></trkpt><trkpt lat="39.511048286629126" lon="8.518884120068503"><ele>404.79999999999995</ele><time>2026-03-30T14:37:12.001Z</time></trkpt><trkpt lat="39.51110144338912" lon="8.518787358581049"><ele>404.0</ele><time>2026-03-30T14:37:13.001Z</time></trkpt><trkpt lat="39.51120184846757" lon="8.518740786772387"><ele>403.2</ele><time>2026-03-30T14:37:14.001Z</time></trkpt><trkpt lat="39.51131356216878" lon="8.51875287717889"><ele>402.4</ele><time>2026-03-30T14:37:15.002Z</time></trkpt><trkpt lat="39.51141663723088" lon="8.518806251216406"><ele>401.6</ele><time>2026-03-30T14:37:16.002Z</time></trkpt><trkpt lat="39.511509115676176" lon="8.518835902482618"><ele>400.8</ele><time>2026-03-30T14:37:17.002Z</time></trkpt><trkpt lat="39.51162945527461" lon="8.51889674679912"><ele>400.0</ele><time>2026-03-30T14:37:18.002Z</time></trkpt><trkpt lat="39.51175109349957" lon="8.518925966617697"><ele>400.0</ele><time>2026-03-30T14:37:19.002Z</time></trkpt><trkpt lat="39.511843767213264" lon="8.518954035163368"><ele>400.0</ele><time>2026-03-30T14:37:20.002Z</time></trkpt><trkpt lat="39.51192835158447" lon="8.518971819248838"><ele>400.0</ele><time>2026-03-30T14:37:21.002Z</time></trkpt><trkpt lat="39.51201638246934" lon="8.518971226705537"><ele>400.0</ele><time>2026-03-30T14:37:22.002Z</time></trkpt><trkpt lat="39.51213316266065" lon="8.518952407198118"><ele>400.0</ele><time>2026-03-30T14:37:23.002Z</time></trkpt><trkpt lat="39.5122387496845" lon="8.518925690246004"><ele>400.75</ele><time>2026-03-30T14:37:24.002Z</time></trkpt><trkpt lat="39.512369438958565" lon="8.518876897775579"><ele>401.5</ele><time>2026-03-30T14:37:25.002Z</time></trkpt><trkpt lat="39.51250421080577" lon="8.518825659842614"><ele>402.25</ele><time>2026-03-30T14:37:26.002Z</time></trkpt><trkpt lat="39.51263570157769" lon="8.518754521411097"><ele>403.0</ele><time>2026-03-30T14:37:27.005Z</time></trkpt><trkpt lat="39.512765293132674" lon="8.518700282569807"><ele>403.0</ele><time>2026-03-30T14:37:28.002Z</time></trkpt><trkpt lat="39.51289643099736" lon="8.518631696472552"><ele>403.0</ele><time>2026-03-30T14:37:29.002Z</time></trkpt><trkpt lat="39.51302193092364" lon="8.518551589408837"><ele>403.0</ele><time>2026-03-30T14:37:30.002Z</time></trkpt><trkpt lat="39.51314967337057" lon="8.51846905433004"><ele>403.0</ele><time>2026-03-30T14:37:31.002Z</time></trkpt><trkpt lat="39.51328844750828" lon="8.518403278920045"><ele>399.6666666666667</ele><time>2026-03-30T14:37:32.002Z</time></trkpt><trkpt lat="39.513442196055585" lon="8.518372860093143"><ele>396.33333333333337</ele><time>2026-03-30T14:37:33.002Z</time></trkpt><trkpt lat="39.51361140445651" lon="8.518379151330508"><ele>393.0</ele><time>2026-03-30T14:37:34.002Z</time></trkpt><trkpt lat="39.51377870202782" lon="8.518351419612433"><ele>390.75</ele><time>2026-03-30T14:37:35.002Z</time></trkpt><trkpt lat="39.51394101359987" lon="8.518335651320267"><ele>388.5</ele><time>2026-03-30T14:37:36.002Z</time></trkpt><trkpt lat="39.514087245410984" lon="8.518308134828775"><ele>386.25</ele><time>2026-03-30T14:37:37.002Z</time></trkpt><trkpt lat="39.51421542694942" lon="8.518272367124887"><ele>384.0</ele><time>2026-03-30T14:37:38.002Z</time></trkpt><trkpt lat="39.51420630871252" lon="8.518182257550778"><ele>384.0</ele><time>2026-03-30T14:37:39.002Z</time></trkpt><trkpt lat="39.51428535666285" lon="8.518098287637969"><ele>384.0</ele><time>2026-03-30T14:37:40.002Z</time></trkpt><trkpt lat="39.514336113036876" lon="8.517988010236293"><ele>384.0</ele><time>2026-03-30T14:37:41.002Z</time></trkpt><trkpt lat="39.51435092093506" lon="8.51784924707684"><ele>384.0</ele><time>2026-03-30T14:37:42.002Z</time></trkpt><trkpt lat="39.51435275320777" lon="8.517698272719281"><ele>384.0</ele><time>2026-03-30T14:37:43.002Z</time></trkpt><trkpt lat="39.51435901352664" lon="8.517538193119083"><ele>384.75</ele><time>2026-03-30T14:37:44.002Z</time></trkpt><trkpt lat="39.51438312884472" lon="8.517369495505475"><ele>385.5</ele><time>2026-03-30T14:37:45.002Z</time></trkpt><trkpt lat="39.51443373680666" lon="8.517220894939776"><ele>386.25</ele><time>2026-03-30T14:37:46.002Z</time></trkpt><trkpt lat="39.51450080676982" lon="8.517066898049872"><ele>387.0</ele><time>2026-03-30T14:37:47.002Z</time></trkpt><trkpt lat="39.51458517229568" lon="8.516922949420886"><ele>381.3333333333333</ele><time>2026-03-30T14:37:48.002Z</time></trkpt><trkpt lat="39.51469346244512" lon="8.516787359592158"><ele>375.66666666666663</ele><time>2026-03-30T14:37:49.002Z</time></trkpt><trkpt lat="39.514807638233236" lon="8.516660997181152"><ele>370.0</ele><time>2026-03-30T14:37:50.002Z</time></trkpt><trkpt lat="39.514917193595615" lon="8.516524224239967"><ele>370.0</ele><time>2026-03-30T14:37:51.002Z</time></trkpt><trkpt lat="39.51501395854288" lon="8.516379072434214"><ele>370.0</ele><time>2026-03-30T14:37:52.002Z</time></trkpt><trkpt lat="39.51510090702343" lon="8.51621293958698"><ele>370.0</ele><time>2026-03-30T14:37:53.002Z</time></trkpt><trkpt lat="39.515159585827575" lon="8.516025836087747"><ele>369.75</ele><time>2026-03-30T14:37:54.002Z</time></trkpt><trkpt lat="39.51519147825101" lon="8.515832928286251"><ele>369.5</ele><time>2026-03-30T14:37:55.002Z</time></trkpt><trkpt lat="39.515197962303304" lon="8.515639196478231"><ele>369.25</ele><time>2026-03-30T14:37:56.002Z</time></trkpt><trkpt lat="39.51517527708344" lon="8.515466020180806"><ele>369.0</ele><time>2026-03-30T14:37:57.003Z</time></trkpt><trkpt lat="39.515123404606825" lon="8.515327694555763"><ele>367.5</ele><time>2026-03-30T14:37:58.003Z</time></trkpt><trkpt lat="39.515045841391" lon="8.515211861694674"><ele>366.0</ele><time>2026-03-30T14:37:59.003Z</time></trkpt><trkpt lat="39.51493852840973" lon="8.515116877124052"><ele>364.5</ele><time>2026-03-30T14:38:00.003Z</time></trkpt><trkpt lat="39.51482201821645" lon="8.51503922277324"><ele>363.0</ele><time>2026-03-30T14:38:01.003Z</time></trkpt><trkpt lat="39.51470053885284" lon="8.514947250944179"><ele>363.0</ele><time>2026-03-30T14:38:02.003Z</time></trkpt><trkpt lat="39.51460109255337" lon="8.51481973559464"><ele>363.0</ele><time>2026-03-30T14:38:03Z</time></trkpt><trkpt lat="39.51453275987115" lon="8.514662501489514"><ele>363.0</ele><time>2026-03-30T14:38:04Z</time></trkpt><trkpt lat="39.51446877489574" lon="8.51451018548427"><ele>363.0</ele><time>2026-03-30T14:38:05Z</time></trkpt><trkpt lat="39.514404857669014" lon="8.51436689266797"><ele>363.0</ele><time>2026-03-30T14:38:06Z</time></trkpt><trkpt lat="39.51434051419619" lon="8.514235932733962"><ele>363.0</ele><time>2026-03-30T14:38:07Z</time></trkpt><trkpt lat="39.51428825521738" lon="8.514121692820103"><ele>363.0</ele><time>2026-03-30T14:38:08Z</time></trkpt><trkpt lat="39.51426224422007" lon="8.514021047574907"><ele>363.0</ele><time>2026-03-30T14:38:09Z</time></trkpt><trkpt lat="39.514286205076786" lon="8.513931453669397"><ele>363.0</ele><time>2026-03-30T14:38:10Z</time></trkpt><trkpt lat="39.51435883392564" lon="8.513863255230227"><ele>363.0</ele><time>2026-03-30T14:38:11Z</time></trkpt><trkpt lat="39.51445409513719" lon="8.513850622318959"><ele>363.0</ele><time>2026-03-30T14:38:12Z</time></trkpt><trkpt lat="39.51454898163966" lon="8.513904464392535"><ele>363.0</ele><time>2026-03-30T14:38:13Z</time></trkpt><trkpt lat="39.51462619081839" lon="8.514003533402455"><ele>363.0</ele><time>2026-03-30T14:38:14Z</time></trkpt><trkpt lat="39.51473454925297" lon="8.514055396909168"><ele>363.0</ele><time>2026-03-30T14:38:15Z</time></trkpt><trkpt lat="39.51484965468421" lon="8.514074609707015"><ele>360.5</ele><time>2026-03-30T14:38:16Z</time></trkpt><trkpt lat="39.51496911303255" lon="8.514013620754227"><ele>358.0</ele><time>2026-03-30T14:38:17Z</time></trkpt><trkpt lat="39.5150770946026" lon="8.51392081636649"><ele>355.5</ele><time>2026-03-30T14:38:18Z</time></trkpt><trkpt lat="39.515170764934716" lon="8.513807601253376"><ele>353.0</ele><time>2026-03-30T14:38:19Z</time></trkpt><trkpt lat="39.51526510092109" lon="8.513713026459367"><ele>350.0</ele><time>2026-03-30T14:38:20Z</time></trkpt><trkpt lat="39.51533685948721" lon="8.513615467087341"><ele>347.0</ele><time>2026-03-30T14:38:21Z</time></trkpt><trkpt lat="39.515381002119746" lon="8.513492358878826"><ele>344.0</ele><time>2026-03-30T14:38:22Z</time></trkpt><trkpt lat="39.5153983280361" lon="8.513328776724512"><ele>341.0</ele><time>2026-03-30T14:38:23Z</time></trkpt><trkpt lat="39.51536993774409" lon="8.513185893359498"><ele>341.0</ele><time>2026-03-30T14:38:24Z</time></trkpt><trkpt lat="39.51534732694657" lon="8.513031439028957"><ele>341.0</ele><time>2026-03-30T14:38:25Z</time></trkpt><trkpt lat="39.51534699087012" lon="8.512864637590116"><ele>341.0</ele><time>2026-03-30T14:38:26Z</time></trkpt><trkpt lat="39.51535051637964" lon="8.512711782386884"><ele>341.0</ele><time>2026-03-30T14:38:27Z</time></trkpt><trkpt lat="39.51534528992346" lon="8.512555134775358"><ele>338.8</ele><time>2026-03-30T14:38:28Z</time></trkpt><trkpt lat="39.51533596571884" lon="8.512414360770503"><ele>336.6</ele><time>2026-03-30T14:38:29Z</time></trkpt><trkpt lat="39.515318993438754" lon="8.512275300906381"><ele>334.4</ele><time>2026-03-30T14:38:30Z</time></trkpt><trkpt lat="39.51528643279512" lon="8.512135728023319"><ele>332.2</ele><time>2026-03-30T14:38:31Z</time></trkpt><trkpt lat="39.51523809944912" lon="8.51200283078969"><ele>330.0</ele><time>2026-03-30T14:38:32Z</time></trkpt><trkpt lat="39.51518917969585" lon="8.5118878503891"><ele>328.6</ele><time>2026-03-30T14:38:33.001Z</time></trkpt><trkpt lat="39.515157274287866" lon="8.511778241069756"><ele>327.2</ele><time>2026-03-30T14:38:34.001Z</time></trkpt><trkpt lat="39.515152022504076" lon="8.511657575177665"><ele>325.79999999999995</ele><time>2026-03-30T14:38:35.001Z</time></trkpt><trkpt lat="39.515185764150765" lon="8.51153716679474"><ele>324.4</ele><time>2026-03-30T14:38:36.001Z</time></trkpt><trkpt lat="39.51525581147497" lon="8.511438585506783"><ele>323.0</ele><time>2026-03-30T14:38:37.001Z</time></trkpt><trkpt lat="39.515342035354166" lon="8.511357109103887"><ele>323.0</ele><time>2026-03-30T14:38:38.001Z</time></trkpt><trkpt lat="39.515437744019245" lon="8.5112735294343"><ele>323.0</ele><time>2026-03-30T14:38:39.001Z</time></trkpt><trkpt lat="39.51553539445152" lon="8.511174461697763"><ele>323.0</ele><time>2026-03-30T14:38:40.001Z</time></trkpt><trkpt lat="39.515631678370085" lon="8.511075539244558"><ele>323.0</ele><time>2026-03-30T14:38:41.001Z</time></trkpt><trkpt lat="39.51574070152919" lon="8.511009760618872"><ele>323.0</ele><time>2026-03-30T14:38:42.001Z</time></trkpt><trkpt lat="39.51586097544626" lon="8.511041570042076"><ele>323.0</ele><time>2026-03-30T14:38:43.001Z</time></trkpt><trkpt lat="39.515963150176866" lon="8.511105471893064"><ele>323.0</ele><time>2026-03-30T14:38:44.001Z</time></trkpt><trkpt lat="39.51603978634602" lon="8.511202622058454"><ele>323.0</ele><time>2026-03-30T14:38:45.001Z</time></trkpt><trkpt lat="39.516059521747536" lon="8.511326987367594"><ele>323.0</ele><time>2026-03-30T14:38:46.001Z</time></trkpt><trkpt lat="39.51603866634978" lon="8.511456827589367"><ele>323.0</ele><time>2026-03-30T14:38:47.001Z</time></trkpt><trkpt lat="39.51602914343545" lon="8.511597410156071"><ele>323.0</ele><time>2026-03-30T14:38:48.001Z</time></trkpt><trkpt lat="39.51603350455583" lon="8.511741510834666"><ele>323.0</ele><time>2026-03-30T14:38:49.001Z</time></trkpt><trkpt lat="39.51605738029706" lon="8.511878008510221"><ele>323.0</ele><time>2026-03-30T14:38:50.001Z</time></trkpt><trkpt lat="39.516150105037646" lon="8.511964190166697"><ele>323.0</ele><time>2026-03-30T14:38:51.001Z</time></trkpt><trkpt lat="39.51625414498755" lon="8.512023622979282"><ele>322.25</ele><time>2026-03-30T14:38:52.001Z</time></trkpt><trkpt lat="39.51637466636869" lon="8.51206149874845"><ele>321.5</ele><time>2026-03-30T14:38:53.001Z</time></trkpt><trkpt lat="39.51649068241269" lon="8.512097480074612"><ele>320.75</ele><time>2026-03-30T14:38:54.001Z</time></trkpt><trkpt lat="39.51661223260156" lon="8.512161601516182"><ele>320.0</ele><time>2026-03-30T14:38:55.001Z</time></trkpt><trkpt lat="39.51672287469624" lon="8.512251399415382"><ele>320.0</ele><time>2026-03-30T14:38:56.001Z</time></trkpt><trkpt lat="39.51683785416155" lon="8.512306216836324"><ele>320.0</ele><time>2026-03-30T14:38:57.001Z</time></trkpt><trkpt lat="39.51694011271553" lon="8.512385803821003"><ele>320.0</ele><time>2026-03-30T14:38:58.001Z</time></trkpt><trkpt lat="39.51704611241113" lon="8.512456464427252"><ele>320.0</ele><time>2026-03-30T14:38:59.001Z</time></trkpt><trkpt lat="39.51713908256742" lon="8.512535842528223"><ele>318.0</ele><time>2026-03-30T14:39:00.001Z</time></trkpt><trkpt lat="39.517232382770885" lon="8.512603150132891"><ele>316.0</ele><time>2026-03-30T14:39:01.001Z</time></trkpt><trkpt lat="39.51732649771178" lon="8.512637741480997"><ele>314.0</ele><time>2026-03-30T14:39:02.001Z</time></trkpt><trkpt lat="39.51741893507345" lon="8.512627140828153"><ele>312.0</ele><time>2026-03-30T14:39:03.001Z</time></trkpt><trkpt lat="39.51750029286027" lon="8.512569724742477"><ele>310.0</ele><time>2026-03-30T14:39:04.001Z</time></trkpt><trkpt lat="39.51755408811575" lon="8.512462478797678"><ele>310.0</ele><time>2026-03-30T14:39:05.001Z</time></trkpt><trkpt lat="39.517589360076784" lon="8.512331250698443"><ele>310.0</ele><time>2026-03-30T14:39:06.001Z</time></trkpt><trkpt lat="39.51764648993091" lon="8.51220255699076"><ele>310.0</ele><time>2026-03-30T14:39:07.001Z</time></trkpt><trkpt lat="39.51771914957988" lon="8.51206841662355"><ele>310.0</ele><time>2026-03-30T14:39:08.001Z</time></trkpt><trkpt lat="39.51779634992562" lon="8.511909431446734"><ele>309.25</ele><time>2026-03-30T14:39:09.001Z</time></trkpt><trkpt lat="39.51785740182391" lon="8.511733269415393"><ele>308.5</ele><time>2026-03-30T14:39:10.001Z</time></trkpt><trkpt lat="39.51789175175572" lon="8.511556720520142"><ele>307.75</ele><time>2026-03-30T14:39:11.001Z</time></trkpt><trkpt lat="39.517904121939054" lon="8.511381468698254"><ele>307.0</ele><time>2026-03-30T14:39:12.001Z</time></trkpt><trkpt lat="39.517902286210656" lon="8.511205267389407"><ele>302.5</ele><time>2026-03-30T14:39:13.001Z</time></trkpt><trkpt lat="39.51791182528655" lon="8.511049269744689"><ele>298.0</ele><time>2026-03-30T14:39:14.001Z</time></trkpt><trkpt lat="39.51796350270145" lon="8.510911644987711"><ele>293.5</ele><time>2026-03-30T14:39:15.002Z</time></trkpt><trkpt lat="39.518054025772145" lon="8.51080064717471"><ele>289.0</ele><time>2026-03-30T14:39:16.002Z</time></trkpt><trkpt lat="39.518148088459185" lon="8.510704343831316"><ele>289.0</ele><time>2026-03-30T14:39:17.002Z</time></trkpt><trkpt lat="39.51824040030678" lon="8.510610250617754"><ele>289.0</ele><time>2026-03-30T14:39:18.002Z</time></trkpt><trkpt lat="39.518318577238205" lon="8.510527672382096"><ele>289.0</ele><time>2026-03-30T14:39:19.002Z</time></trkpt><trkpt lat="39.51837871106702" lon="8.510448715652672"><ele>289.0</ele><time>2026-03-30T14:39:20.002Z</time></trkpt><trkpt lat="39.51843187859678" lon="8.51036789105144"><ele>289.0</ele><time>2026-03-30T14:39:21.002Z</time></trkpt><trkpt lat="39.51851264512417" lon="8.510258929656864"><ele>285.66666666666663</ele><time>2026-03-30T14:39:23.002Z</time></trkpt><trkpt lat="39.51857499437335" lon="8.51022320919291"><ele>282.3333333333333</ele><time>2026-03-30T14:39:25.002Z</time></trkpt><trkpt lat="39.51864891372081" lon="8.510207765599707"><ele>279.0</ele><time>2026-03-30T14:39:28.002Z</time></trkpt><trkpt lat="39.51869229925939" lon="8.510299423846758"><ele>275.6666666666667</ele><time>2026-03-30T14:39:30.002Z</time></trkpt><trkpt lat="39.518723778503464" lon="8.510399217972012"><ele>272.33333333333337</ele><time>2026-03-30T14:39:32.002Z</time></trkpt><trkpt lat="39.51875351053246" lon="8.510516905639413"><ele>269.0</ele><time>2026-03-30T14:39:34.002Z</time></trkpt><trkpt lat="39.51877010515059" lon="8.510620224964402"><ele>269.0</ele><time>2026-03-30T14:39:36.002Z</time></trkpt><trkpt lat="39.5187778968515" lon="8.510721642113594"><ele>269.0</ele><time>2026-03-30T14:39:38.002Z</time></trkpt><trkpt lat="39.51877693786514" lon="8.510817995346812"><ele>269.0</ele><time>2026-03-30T14:39:40.002Z</time></trkpt><trkpt lat="39.51876904449292" lon="8.510936810937672"><ele>269.0</ele><time>2026-03-30T14:39:42.002Z</time></trkpt><trkpt lat="39.518770781416144" lon="8.511109872673813"><ele>269.0</ele><time>2026-03-30T14:39:44.002Z</time></trkpt><trkpt lat="39.51879665744853" lon="8.511222585291724"><ele>272.2</ele><time>2026-03-30T14:39:45.002Z</time></trkpt><trkpt lat="39.51884649041571" lon="8.511336043906619"><ele>275.4</ele><time>2026-03-30T14:39:46.002Z</time></trkpt><trkpt lat="39.518914402041084" lon="8.511432519710102"><ele>278.6</ele><time>2026-03-30T14:39:47.002Z</time></trkpt><trkpt lat="39.5189906256368" lon="8.511519253385433"><ele>281.8</ele><time>2026-03-30T14:39:48.002Z</time></trkpt><trkpt lat="39.51908494914605" lon="8.511573900333886"><ele>285.0</ele><time>2026-03-30T14:39:49.002Z</time></trkpt><trkpt lat="39.51919191038137" lon="8.511607750909794"><ele>285.0</ele><time>2026-03-30T14:39:50.002Z</time></trkpt><trkpt lat="39.51932090803936" lon="8.51163784974116"><ele>285.0</ele><time>2026-03-30T14:39:51.002Z</time></trkpt><trkpt lat="39.51962653840932" lon="8.51172480894793"><ele>285.0</ele><time>2026-03-30T14:39:54.002Z</time></trkpt><trkpt lat="39.51965902631389" lon="8.511916109143405"><ele>281.6</ele><time>2026-03-30T14:39:55.002Z</time></trkpt><trkpt lat="39.519786476800725" lon="8.511980432321256"><ele>278.2</ele><time>2026-03-30T14:39:57.002Z</time></trkpt><trkpt lat="39.519861043631565" lon="8.512015047180151"><ele>274.8</ele><time>2026-03-30T14:39:58.003Z</time></trkpt><trkpt lat="39.519945934297446" lon="8.512008216423789"><ele>271.4</ele><time>2026-03-30T14:39:59.003Z</time></trkpt><trkpt lat="39.52003633011178" lon="8.511950156476045"><ele>268.0</ele><time>2026-03-30T14:40:00.003Z</time></trkpt><trkpt lat="39.52012111182478" lon="8.511882236051957"><ele>268.0</ele><time>2026-03-30T14:40:01.003Z</time></trkpt><trkpt lat="39.52021963479069" lon="8.511810848304513"><ele>268.0</ele><time>2026-03-30T14:40:02.003Z</time></trkpt><trkpt lat="39.52029641393762" lon="8.511726892846694"><ele>268.0</ele><time>2026-03-30T14:40:03.003Z</time></trkpt><trkpt lat="39.52035185203553" lon="8.51159895710804"><ele>268.0</ele><time>2026-03-30T14:40:04.003Z</time></trkpt><trkpt lat="39.520381731896954" lon="8.511467784278453"><ele>268.0</ele><time>2026-03-30T14:40:05.003Z</time></trkpt><trkpt lat="39.520405146839714" lon="8.511342050320577"><ele>266.6</ele><time>2026-03-30T14:40:06.003Z</time></trkpt><trkpt lat="39.52043844168765" lon="8.51122888815041"><ele>265.20000000000005</ele><time>2026-03-30T14:40:07.003Z</time></trkpt><trkpt lat="39.520474657111166" lon="8.511130542091774"><ele>263.8</ele><time>2026-03-30T14:40:08.003Z</time></trkpt><trkpt lat="39.520533332534065" lon="8.511029850256545"><ele>262.40000000000003</ele><time>2026-03-30T14:40:10Z</time></trkpt><trkpt lat="39.5206422805065" lon="8.510994329089671"><ele>261.0</ele><time>2026-03-30T14:40:12Z</time></trkpt><trkpt lat="39.52072191574302" lon="8.51097559041703"><ele>261.0</ele><time>2026-03-30T14:40:13Z</time></trkpt><trkpt lat="39.52079023959288" lon="8.510936580625605"><ele>261.0</ele><time>2026-03-30T14:40:14Z</time></trkpt><trkpt lat="39.52086777979701" lon="8.510856581123651"><ele>261.0</ele><time>2026-03-30T14:40:15Z</time></trkpt><trkpt lat="39.52095712660192" lon="8.510778343971852"><ele>261.0</ele><time>2026-03-30T14:40:16Z</time></trkpt><trkpt lat="39.52101206713183" lon="8.510665434413562"><ele>261.0</ele><time>2026-03-30T14:40:17Z</time></trkpt><trkpt lat="39.52105596358555" lon="8.51052978386354"><ele>261.0</ele><time>2026-03-30T14:40:18Z</time></trkpt><trkpt lat="39.52111031870697" lon="8.510420752878384"><ele>261.0</ele><time>2026-03-30T14:40:19Z</time></trkpt><trkpt lat="39.521187979940144" lon="8.51035098464745"><ele>261.0</ele><time>2026-03-30T14:40:20Z</time></trkpt><trkpt lat="39.52127898033446" lon="8.510343816380736"><ele>261.0</ele><time>2026-03-30T14:40:21Z</time></trkpt><trkpt lat="39.521359032203605" lon="8.51039359212137"><ele>261.0</ele><time>2026-03-30T14:40:22Z</time></trkpt><trkpt lat="39.52142491413615" lon="8.510491813914992"><ele>259.6666666666667</ele><time>2026-03-30T14:40:23Z</time></trkpt><trkpt lat="39.521463106745436" lon="8.510612311346827"><ele>258.3333333333333</ele><time>2026-03-30T14:40:24Z</time></trkpt><trkpt lat="39.521445337321026" lon="8.510739835986008"><ele>257.0</ele><time>2026-03-30T14:40:25Z</time></trkpt><trkpt lat="39.52143208500189" lon="8.51084610211161"><ele>255.66666666666666</ele><time>2026-03-30T14:40:26Z</time></trkpt><trkpt lat="39.52143945324352" lon="8.510934753537747"><ele>254.33333333333331</ele><time>2026-03-30T14:40:27Z</time></trkpt><trkpt lat="39.52150183007015" lon="8.511026422295727"><ele>253.0</ele><time>2026-03-30T14:40:29Z</time></trkpt><trkpt lat="39.52155815100741" lon="8.51090551461275"><ele>252.99999999999997</ele><time>2026-03-30T14:40:32Z</time></trkpt><trkpt lat="39.52156081139235" lon="8.510808858670515"><ele>253.0</ele><time>2026-03-30T14:40:35Z</time></trkpt><trkpt lat="39.52159109458708" lon="8.510705309684894"><ele>253.0</ele><time>2026-03-30T14:40:37Z</time></trkpt><trkpt lat="39.521601201914734" lon="8.510557000283534"><ele>253.0</ele><time>2026-03-30T14:40:39.001Z</time></trkpt><trkpt lat="39.52159054061337" lon="8.510474285106216"><ele>252.99999999999997</ele><time>2026-03-30T14:40:40.001Z</time></trkpt><trkpt lat="39.521554309680596" lon="8.510406182102809"><ele>253.0</ele><time>2026-03-30T14:40:42.001Z</time></trkpt><trkpt lat="39.521523901494746" lon="8.510315370958052"><ele>250.33333333333331</ele><time>2026-03-30T14:40:45.001Z</time></trkpt><trkpt lat="39.52148031068762" lon="8.51018132875792"><ele>247.66666666666666</ele><time>2026-03-30T14:40:47.001Z</time></trkpt><trkpt lat="39.52144823540889" lon="8.510096252139899"><ele>245.0</ele><time>2026-03-30T14:40:48.001Z</time></trkpt><trkpt lat="39.521402272993335" lon="8.510005250492572"><ele>242.33333333333331</ele><time>2026-03-30T14:40:49.001Z</time></trkpt><trkpt lat="39.52133841112982" lon="8.509927572986147"><ele>239.66666666666666</ele><time>2026-03-30T14:40:50.001Z</time></trkpt><trkpt lat="39.521263638880775" lon="8.509876995246708"><ele>237.0</ele><time>2026-03-30T14:40:51.001Z</time></trkpt><trkpt lat="39.52117176321941" lon="8.509846586181533"><ele>237.0</ele><time>2026-03-30T14:40:52.001Z</time></trkpt><trkpt lat="39.52107492383162" lon="8.509877025028787"><ele>237.0</ele><time>2026-03-30T14:40:53.001Z</time></trkpt><trkpt lat="39.52098849601595" lon="8.50993948188664"><ele>237.0</ele><time>2026-03-30T14:40:54.001Z</time></trkpt><trkpt lat="39.52090975929044" lon="8.510017079387628"><ele>237.0</ele><time>2026-03-30T14:40:55.001Z</time></trkpt><trkpt lat="39.5208449181458" lon="8.51012281826902"><ele>237.0</ele><time>2026-03-30T14:40:56.001Z</time></trkpt><trkpt lat="39.52079306316993" lon="8.510238546086478"><ele>237.0</ele><time>2026-03-30T14:40:57.001Z</time></trkpt><trkpt lat="39.5207462266689" lon="8.51034836171054"><ele>237.0</ele><time>2026-03-30T14:40:58.001Z</time></trkpt><trkpt lat="39.520683426590125" lon="8.510417362802475"><ele>237.0</ele><time>2026-03-30T14:40:59.001Z</time></trkpt><trkpt lat="39.520610035196555" lon="8.510462375564751"><ele>237.0</ele><time>2026-03-30T14:41:00.001Z</time></trkpt><trkpt lat="39.520521725659314" lon="8.510429812966603"><ele>237.0</ele><time>2026-03-30T14:41:01.001Z</time></trkpt><trkpt lat="39.52044195628465" lon="8.510372184202385"><ele>237.0</ele><time>2026-03-30T14:41:02.001Z</time></trkpt><trkpt lat="39.52035962003789" lon="8.51033438435258"><ele>236.2</ele><time>2026-03-30T14:41:03.001Z</time></trkpt><trkpt lat="39.52026795044805" lon="8.510305806363139"><ele>235.39999999999998</ele><time>2026-03-30T14:41:04.001Z</time></trkpt><trkpt lat="39.52017244955617" lon="8.510356256189832"><ele>234.60000000000002</ele><time>2026-03-30T14:41:05.001Z</time></trkpt><trkpt lat="39.52011058684966" lon="8.510462653966046"><ele>233.8</ele><time>2026-03-30T14:41:06.001Z</time></trkpt><trkpt lat="39.52007970450902" lon="8.510565335133721"><ele>233.0</ele><time>2026-03-30T14:41:07.001Z</time></trkpt><trkpt lat="39.52001426043756" lon="8.510643825521875"><ele>233.00000000000003</ele><time>2026-03-30T14:41:09.001Z</time></trkpt><trkpt lat="39.51992227912452" lon="8.51054236320398"><ele>233.0</ele><time>2026-03-30T14:41:11.001Z</time></trkpt><trkpt lat="39.5199130863257" lon="8.510455843484271"><ele>233.0</ele><time>2026-03-30T14:41:12.001Z</time></trkpt><trkpt lat="39.5199524211189" lon="8.510368581490262"><ele>233.0</ele><time>2026-03-30T14:41:13.001Z</time></trkpt><trkpt lat="39.51999808002394" lon="8.510292707096392"><ele>233.00000000000003</ele><time>2026-03-30T14:41:14.001Z</time></trkpt><trkpt lat="39.52000563266313" lon="8.510199334414223"><ele>233.0</ele><time>2026-03-30T14:41:15.001Z</time></trkpt><trkpt lat="39.51997449964167" lon="8.510118786753791"><ele>233.0</ele><time>2026-03-30T14:41:16.001Z</time></trkpt><trkpt lat="39.51991331551746" lon="8.510072137522542"><ele>233.0</ele><time>2026-03-30T14:41:17.001Z</time></trkpt><trkpt lat="39.51985730477834" lon="8.509959337689759"><ele>233.0</ele><time>2026-03-30T14:41:19.001Z</time></trkpt><trkpt lat="39.51997389995738" lon="8.509915113553745"><ele>233.0</ele><time>2026-03-30T14:41:21.001Z</time></trkpt><trkpt lat="39.520106056011926" lon="8.50994885161819"><ele>233.0</ele><time>2026-03-30T14:41:23.002Z</time></trkpt><trkpt lat="39.52018594166033" lon="8.509968718312685"><ele>233.00000000000003</ele><time>2026-03-30T14:41:24.002Z</time></trkpt><trkpt lat="39.520271870654724" lon="8.509987252709227"><ele>233.0</ele><time>2026-03-30T14:41:25.002Z</time></trkpt><trkpt lat="39.520357729604385" lon="8.510008402150847"><ele>233.0</ele><time>2026-03-30T14:41:26.002Z</time></trkpt><trkpt lat="39.52044858207169" lon="8.510019205679603"><ele>233.0</ele><time>2026-03-30T14:41:27.002Z</time></trkpt><trkpt lat="39.520534668241964" lon="8.509994018700297"><ele>233.00000000000003</ele><time>2026-03-30T14:41:28.002Z</time></trkpt><trkpt lat="39.52060779129769" lon="8.50992735734321"><ele>233.0</ele><time>2026-03-30T14:41:29.002Z</time></trkpt><trkpt lat="39.52070289525607" lon="8.509733315533428"><ele>233.8</ele><time>2026-03-30T14:41:31.002Z</time></trkpt><trkpt lat="39.52076040081639" lon="8.509638528701947"><ele>234.60000000000002</ele><time>2026-03-30T14:41:32.002Z</time></trkpt><trkpt lat="39.520819676721025" lon="8.509541160626753"><ele>235.39999999999998</ele><time>2026-03-30T14:41:33.002Z</time></trkpt><trkpt lat="39.52088224393642" lon="8.509442414993144"><ele>236.2</ele><time>2026-03-30T14:41:34.002Z</time></trkpt><trkpt lat="39.52094085121857" lon="8.50933853769208"><ele>237.0</ele><time>2026-03-30T14:41:35.002Z</time></trkpt><trkpt lat="39.52099875324349" lon="8.5092288388373"><ele>232.8</ele><time>2026-03-30T14:41:36.002Z</time></trkpt><trkpt lat="39.521056527123775" lon="8.509116895522428"><ele>228.6</ele><time>2026-03-30T14:41:37.002Z</time></trkpt><trkpt lat="39.52112377432652" lon="8.509023859789423"><ele>224.40000000000003</ele><time>2026-03-30T14:41:38.002Z</time></trkpt><trkpt lat="39.521210064557394" lon="8.508946635639335"><ele>220.20000000000002</ele><time>2026-03-30T14:41:39.002Z</time></trkpt><trkpt lat="39.52130187599556" lon="8.508885651105812"><ele>216.0</ele><time>2026-03-30T14:41:40.002Z</time></trkpt><trkpt lat="39.52139683951333" lon="8.508846246625483"><ele>214.66666666666666</ele><time>2026-03-30T14:41:41.002Z</time></trkpt><trkpt lat="39.52149527339442" lon="8.50885337740878"><ele>213.33333333333331</ele><time>2026-03-30T14:41:42.002Z</time></trkpt><trkpt lat="39.52156253592507" lon="8.508899716091419"><ele>212.0</ele><time>2026-03-30T14:41:43.002Z</time></trkpt><trkpt lat="39.52160992435123" lon="8.508988342413012"><ele>210.66666666666666</ele><time>2026-03-30T14:41:44.002Z</time></trkpt><trkpt lat="39.52165015637404" lon="8.509091794298426"><ele>209.33333333333331</ele><time>2026-03-30T14:41:45.002Z</time></trkpt><trkpt lat="39.52169742285465" lon="8.5092039301167"><ele>208.0</ele><time>2026-03-30T14:41:46.002Z</time></trkpt><trkpt lat="39.52176582474726" lon="8.50931203273664"><ele>208.0</ele><time>2026-03-30T14:41:47.002Z</time></trkpt><trkpt lat="39.521841365083915" lon="8.509421402218216"><ele>208.0</ele><time>2026-03-30T14:41:48.002Z</time></trkpt><trkpt lat="39.52191660091532" lon="8.509530860191559"><ele>208.0</ele><time>2026-03-30T14:41:49.002Z</time></trkpt><trkpt lat="39.52199655297204" lon="8.509641204950976"><ele>208.0</ele><time>2026-03-30T14:41:50.002Z</time></trkpt><trkpt lat="39.522088378330395" lon="8.509737982988735"><ele>207.60000000000002</ele><time>2026-03-30T14:41:51.002Z</time></trkpt><trkpt lat="39.52217802535598" lon="8.509832413264123"><ele>207.20000000000002</ele><time>2026-03-30T14:41:52.002Z</time></trkpt><trkpt lat="39.52225714970304" lon="8.509917556502906"><ele>206.8</ele><time>2026-03-30T14:41:53.002Z</time></trkpt><trkpt lat="39.52233736236747" lon="8.50998992033952"><ele>206.4</ele><time>2026-03-30T14:41:54.002Z</time></trkpt><trkpt lat="39.522424529948644" lon="8.510033604495106"><ele>206.0</ele><time>2026-03-30T14:41:55.002Z</time></trkpt><trkpt lat="39.522512837314366" lon="8.510052340615974"><ele>205.99999999999997</ele><time>2026-03-30T14:41:56.002Z</time></trkpt><trkpt lat="39.52259337333037" lon="8.510063656154026"><ele>206.0</ele><time>2026-03-30T14:41:57.002Z</time></trkpt><trkpt lat="39.522667730450266" lon="8.510086087345503"><ele>206.0</ele><time>2026-03-30T14:41:58.002Z</time></trkpt><trkpt lat="39.522735678481844" lon="8.510119518469743"><ele>206.0</ele><time>2026-03-30T14:41:59.002Z</time></trkpt><trkpt lat="39.52280385448768" lon="8.510155349071251"><ele>206.0</ele><time>2026-03-30T14:42:00.002Z</time></trkpt><trkpt lat="39.52287099137404" lon="8.510182842622301"><ele>205.99999999999997</ele><time>2026-03-30T14:42:01.002Z</time></trkpt><trkpt lat="39.52294076756381" lon="8.510205088068147"><ele>206.0</ele><time>2026-03-30T14:42:02.002Z</time></trkpt><trkpt lat="39.523008286275456" lon="8.510215346982818"><ele>206.14285714285714</ele><time>2026-03-30T14:42:03.002Z</time></trkpt><trkpt lat="39.52307738923701" lon="8.510210326239369"><ele>206.28571428571428</ele><time>2026-03-30T14:42:04.002Z</time></trkpt><trkpt lat="39.523148506830445" lon="8.51019892582212"><ele>206.42857142857144</ele><time>2026-03-30T14:42:05.002Z</time></trkpt><trkpt lat="39.52321689999662" lon="8.510170580476446"><ele>206.57142857142856</ele><time>2026-03-30T14:42:06.002Z</time></trkpt><trkpt lat="39.52327657965372" lon="8.510117910420586"><ele>206.71428571428572</ele><time>2026-03-30T14:42:07.003Z</time></trkpt><trkpt lat="39.52329880525009" lon="8.51002950504622"><ele>206.85714285714286</ele><time>2026-03-30T14:42:08.003Z</time></trkpt><trkpt lat="39.52328414315858" lon="8.509945560344141"><ele>207.0</ele><time>2026-03-30T14:42:09.003Z</time></trkpt><trkpt lat="39.523245618354046" lon="8.50986946537629"><ele>207.0</ele><time>2026-03-30T14:42:10.003Z</time></trkpt><trkpt lat="39.523176513418804" lon="8.509809091152182"><ele>207.0</ele><time>2026-03-30T14:42:11.003Z</time></trkpt><trkpt lat="39.52310389773393" lon="8.509739967575209"><ele>207.0</ele><time>2026-03-30T14:42:12.003Z</time></trkpt><trkpt lat="39.52301253458118" lon="8.509704846892062"><ele>207.0</ele><time>2026-03-30T14:42:13.003Z</time></trkpt><trkpt lat="39.522914280560975" lon="8.509671428641768"><ele>207.0</ele><time>2026-03-30T14:42:14.003Z</time></trkpt><trkpt lat="39.52281065723053" lon="8.50962740080286"><ele>206.0</ele><time>2026-03-30T14:42:15.001Z</time></trkpt><trkpt lat="39.522713506488415" lon="8.509574197061097"><ele>205.0</ele><time>2026-03-30T14:42:16.001Z</time></trkpt><trkpt lat="39.52261920372087" lon="8.509520592326249"><ele>204.0</ele><time>2026-03-30T14:42:17.001Z</time></trkpt><trkpt lat="39.52252019851951" lon="8.5094712139206"><ele>203.0</ele><time>2026-03-30T14:42:18.001Z</time></trkpt><trkpt lat="39.5224431676511" lon="8.509388199817472"><ele>202.0</ele><time>2026-03-30T14:42:19.001Z</time></trkpt><trkpt lat="39.52238285716914" lon="8.509284756511647"><ele>202.0</ele><time>2026-03-30T14:42:20.001Z</time></trkpt><trkpt lat="39.52233321411548" lon="8.509152900006075"><ele>202.0</ele><time>2026-03-30T14:42:21.001Z</time></trkpt><trkpt lat="39.522285366739666" lon="8.509011192615045"><ele>202.0</ele><time>2026-03-30T14:42:22.001Z</time></trkpt><trkpt lat="39.52222937829188" lon="8.508861525966342"><ele>202.0</ele><time>2026-03-30T14:42:23.001Z</time></trkpt><trkpt lat="39.52218771453513" lon="8.50870016202203"><ele>204.0</ele><time>2026-03-30T14:42:24.001Z</time></trkpt><trkpt lat="39.52213306933845" lon="8.508544565716772"><ele>206.0</ele><time>2026-03-30T14:42:25.001Z</time></trkpt><trkpt lat="39.52208814995796" lon="8.508384804546797"><ele>208.0</ele><time>2026-03-30T14:42:26.001Z</time></trkpt><trkpt lat="39.52202411442065" lon="8.508228845862762"><ele>210.0</ele><time>2026-03-30T14:42:27.001Z</time></trkpt><trkpt lat="39.521942813613464" lon="8.508079149574565"><ele>205.25</ele><time>2026-03-30T14:42:28.001Z</time></trkpt><trkpt lat="39.521858621564014" lon="8.507936592779544"><ele>200.5</ele><time>2026-03-30T14:42:29.001Z</time></trkpt><trkpt lat="39.52178446663791" lon="8.50778805971616"><ele>195.75</ele><time>2026-03-30T14:42:30.001Z</time></trkpt><trkpt lat="39.521731509662146" lon="8.507615998795991"><ele>191.0</ele><time>2026-03-30T14:42:31.001Z</time></trkpt><trkpt lat="39.521694866711336" lon="8.507448497711179"><ele>189.0</ele><time>2026-03-30T14:42:32.001Z</time></trkpt><trkpt lat="39.52164546491166" lon="8.507280701809911"><ele>187.0</ele><time>2026-03-30T14:42:33.001Z</time></trkpt><trkpt lat="39.52159575607628" lon="8.507121799845462"><ele>185.0</ele><time>2026-03-30T14:42:34.001Z</time></trkpt><trkpt lat="39.52156363862582" lon="8.506949730526816"><ele>183.0</ele><time>2026-03-30T14:42:35.001Z</time></trkpt><trkpt lat="39.521551062363244" lon="8.506778163514966"><ele>182.0</ele><time>2026-03-30T14:42:36.001Z</time></trkpt><trkpt lat="39.521546017738274" lon="8.506607451161509"><ele>181.0</ele><time>2026-03-30T14:42:37.001Z</time></trkpt><trkpt lat="39.5215432515596" lon="8.506439442796488"><ele>180.0</ele><time>2026-03-30T14:42:38.001Z</time></trkpt><trkpt lat="39.521517457097744" lon="8.506289208486614"><ele>179.0</ele><time>2026-03-30T14:42:39.001Z</time></trkpt><trkpt lat="39.52146584435385" lon="8.506156543433088"><ele>179.0</ele><time>2026-03-30T14:42:40.001Z</time></trkpt><trkpt lat="39.521407519414176" lon="8.50603078666634"><ele>179.0</ele><time>2026-03-30T14:42:41.001Z</time></trkpt><trkpt lat="39.52136368199939" lon="8.505918722388627"><ele>179.0</ele><time>2026-03-30T14:42:42.001Z</time></trkpt><trkpt lat="39.52136697746056" lon="8.50578834595483"><ele>179.0</ele><time>2026-03-30T14:42:43.001Z</time></trkpt><trkpt lat="39.52139982149338" lon="8.505660165254167"><ele>179.0</ele><time>2026-03-30T14:42:44.001Z</time></trkpt><trkpt lat="39.521414384432966" lon="8.505533997626541"><ele>179.79999999999998</ele><time>2026-03-30T14:42:45.001Z</time></trkpt><trkpt lat="39.521395518557014" lon="8.505405640457358"><ele>180.6</ele><time>2026-03-30T14:42:46.001Z</time></trkpt><trkpt lat="39.521355700838335" lon="8.505277973117629"><ele>181.4</ele><time>2026-03-30T14:42:47.001Z</time></trkpt><trkpt lat="39.52130479191072" lon="8.505156254904781"><ele>182.2</ele><time>2026-03-30T14:42:48.001Z</time></trkpt><trkpt lat="39.52124965007786" lon="8.505033327039357"><ele>183.0</ele><time>2026-03-30T14:42:49.001Z</time></trkpt><trkpt lat="39.52119594755217" lon="8.504904848049447"><ele>180.25</ele><time>2026-03-30T14:42:50.001Z</time></trkpt><trkpt lat="39.5211422900637" lon="8.504773801508627"><ele>177.5</ele><time>2026-03-30T14:42:51.001Z</time></trkpt><trkpt lat="39.521081721130706" lon="8.504646118001226"><ele>174.75</ele><time>2026-03-30T14:42:52.001Z</time></trkpt><trkpt lat="39.521012087374444" lon="8.50452182705958"><ele>172.0</ele><time>2026-03-30T14:42:53.001Z</time></trkpt><trkpt lat="39.52094005623035" lon="8.50439778133073"><ele>171.0</ele><time>2026-03-30T14:42:54.001Z</time></trkpt><trkpt lat="39.520868720710766" lon="8.50427379221577"><ele>170.0</ele><time>2026-03-30T14:42:55.001Z</time></trkpt><trkpt lat="39.52079792885974" lon="8.504150279902309"><ele>169.0</ele><time>2026-03-30T14:42:56.001Z</time></trkpt><trkpt lat="39.520724816785105" lon="8.504042260177494"><ele>168.0</ele><time>2026-03-30T14:42:57.001Z</time></trkpt><trkpt lat="39.52066042789336" lon="8.503958314147248"><ele>167.0</ele><time>2026-03-30T14:42:58.001Z</time></trkpt><trkpt lat="39.520579800505026" lon="8.503936326132965"><ele>167.0</ele><time>2026-03-30T14:42:59.001Z</time></trkpt><trkpt lat="39.520491099170556" lon="8.50395413442216"><ele>167.0</ele><time>2026-03-30T14:43:00.001Z</time></trkpt><trkpt lat="39.52040966995672" lon="8.504013298956345"><ele>167.0</ele><time>2026-03-30T14:43:01.001Z</time></trkpt><trkpt lat="39.5203505695758" lon="8.50406135133837"><ele>167.0</ele><time>2026-03-30T14:43:02.001Z</time></trkpt><trkpt lat="39.52027595280559" lon="8.504138290894792"><ele>167.0</ele><time>2026-03-30T14:43:04.001Z</time></trkpt><trkpt lat="39.520212062403104" lon="8.504144223631622"><ele>167.0</ele><time>2026-03-30T14:43:06.001Z</time></trkpt><trkpt lat="39.52013696890131" lon="8.504084774704294"><ele>166.83333333333331</ele><time>2026-03-30T14:43:09.001Z</time></trkpt><trkpt lat="39.52007952440853" lon="8.50401664241088"><ele>166.66666666666666</ele><time>2026-03-30T14:43:11.001Z</time></trkpt><trkpt lat="39.5200606503044" lon="8.503901575695004"><ele>166.5</ele><time>2026-03-30T14:43:13.001Z</time></trkpt><trkpt lat="39.52004349798533" lon="8.503774769814978"><ele>166.33333333333334</ele><time>2026-03-30T14:43:15.001Z</time></trkpt><trkpt lat="39.52003043002488" lon="8.503680285331162"><ele>166.16666666666669</ele><time>2026-03-30T14:43:16.001Z</time></trkpt><trkpt lat="39.52000162118529" lon="8.503554369079476"><ele>166.0</ele><time>2026-03-30T14:43:17.001Z</time></trkpt><trkpt lat="39.519967029688516" lon="8.503416081764865"><ele>164.75</ele><time>2026-03-30T14:43:18.001Z</time></trkpt><trkpt lat="39.5199371195346" lon="8.503258033647676"><ele>163.5</ele><time>2026-03-30T14:43:19.001Z</time></trkpt><trkpt lat="39.51990039918234" lon="8.503085625472274"><ele>162.25</ele><time>2026-03-30T14:43:20.001Z</time></trkpt><trkpt lat="39.51988037382928" lon="8.50290862458232"><ele>161.0</ele><time>2026-03-30T14:43:21.001Z</time></trkpt><trkpt lat="39.51983605101673" lon="8.502767848579348"><ele>160.60000000000002</ele><time>2026-03-30T14:43:22.002Z</time></trkpt><trkpt lat="39.51981744248283" lon="8.502641415643616"><ele>160.20000000000002</ele><time>2026-03-30T14:43:23.002Z</time></trkpt><trkpt lat="39.51976550900844" lon="8.502527783796674"><ele>159.8</ele><time>2026-03-30T14:43:24.002Z</time></trkpt><trkpt lat="39.519686067557124" lon="8.502464722708602"><ele>159.4</ele><time>2026-03-30T14:43:25.002Z</time></trkpt><trkpt lat="39.51961899680954" lon="8.502375571344706"><ele>159.0</ele><time>2026-03-30T14:43:26.002Z</time></trkpt><trkpt lat="39.51953860601591" lon="8.502314816118574"><ele>159.16666666666666</ele><time>2026-03-30T14:43:27.002Z</time></trkpt><trkpt lat="39.519498982013694" lon="8.50223490297681"><ele>159.33333333333334</ele><time>2026-03-30T14:43:28.002Z</time></trkpt><trkpt lat="39.519497188681946" lon="8.50214847328396"><ele>159.5</ele><time>2026-03-30T14:43:29.002Z</time></trkpt><trkpt lat="39.519587840342886" lon="8.502011910989584"><ele>159.66666666666669</ele><time>2026-03-30T14:43:31.002Z</time></trkpt><trkpt lat="39.51964879939362" lon="8.501937585207251"><ele>159.83333333333334</ele><time>2026-03-30T14:43:32.002Z</time></trkpt><trkpt lat="39.51967553712947" lon="8.50184047844757"><ele>160.0</ele><time>2026-03-30T14:43:33.002Z</time></trkpt><trkpt lat="39.51967269233924" lon="8.501727073002382"><ele>160.0</ele><time>2026-03-30T14:43:34.002Z</time></trkpt><trkpt lat="39.51964746620695" lon="8.501620484270784"><ele>160.0</ele><time>2026-03-30T14:43:35.002Z</time></trkpt><trkpt lat="39.51959437495231" lon="8.501518350697875"><ele>160.0</ele><time>2026-03-30T14:43:36.002Z</time></trkpt><trkpt lat="39.519524304504685" lon="8.501420695885429"><ele>160.0</ele><time>2026-03-30T14:43:37.002Z</time></trkpt><trkpt lat="39.51945744800785" lon="8.501302181698119"><ele>160.0</ele><time>2026-03-30T14:43:38.002Z</time></trkpt><trkpt lat="39.519373438024566" lon="8.50120453571628"><ele>156.8</ele><time>2026-03-30T14:43:39.002Z</time></trkpt><trkpt lat="39.51933732973379" lon="8.501071676389909"><ele>153.6</ele><time>2026-03-30T14:43:40.002Z</time></trkpt><trkpt lat="39.51932603087845" lon="8.50094323405339"><ele>150.4</ele><time>2026-03-30T14:43:41.002Z</time></trkpt><trkpt lat="39.51930032772729" lon="8.500822440461006"><ele>147.2</ele><time>2026-03-30T14:43:42.002Z</time></trkpt><trkpt lat="39.51923998725483" lon="8.500714123843418"><ele>144.0</ele><time>2026-03-30T14:43:43.002Z</time></trkpt><trkpt lat="39.51916789938076" lon="8.500632294883978"><ele>144.0</ele><time>2026-03-30T14:43:44.002Z</time></trkpt><trkpt lat="39.51909886853427" lon="8.50054459046213"><ele>144.0</ele><time>2026-03-30T14:43:45.002Z</time></trkpt><trkpt lat="39.51901579404368" lon="8.500490274145399"><ele>144.0</ele><time>2026-03-30T14:43:46.002Z</time></trkpt><trkpt lat="39.518922709785215" lon="8.500463324415044"><ele>144.0</ele><time>2026-03-30T14:43:47.002Z</time></trkpt><trkpt lat="39.518833291105615" lon="8.500463540038336"><ele>144.0</ele><time>2026-03-30T14:43:48.002Z</time></trkpt><trkpt lat="39.518752158923036" lon="8.500473450437486"><ele>144.2</ele><time>2026-03-30T14:43:49.002Z</time></trkpt><trkpt lat="39.51865775372432" lon="8.500491613290725"><ele>144.4</ele><time>2026-03-30T14:43:50.002Z</time></trkpt><trkpt lat="39.51855627269616" lon="8.500507458261403"><ele>144.6</ele><time>2026-03-30T14:43:51.002Z</time></trkpt><trkpt lat="39.51844731743074" lon="8.500511385779598"><ele>144.8</ele><time>2026-03-30T14:43:52.002Z</time></trkpt><trkpt lat="39.518336488916454" lon="8.50049614110915"><ele>145.0</ele><time>2026-03-30T14:43:53.002Z</time></trkpt><trkpt lat="39.51822977775468" lon="8.500456606866223"><ele>142.5</ele><time>2026-03-30T14:43:54.002Z</time></trkpt><trkpt lat="39.518132303781925" lon="8.500404454114582"><ele>140.0</ele><time>2026-03-30T14:43:55.002Z</time></trkpt><trkpt lat="39.51807471815767" lon="8.500279402985855"><ele>137.5</ele><time>2026-03-30T14:43:56.002Z</time></trkpt><trkpt lat="39.51801466043858" lon="8.500145189114795"><ele>135.0</ele><time>2026-03-30T14:43:57.002Z</time></trkpt><trkpt lat="39.51794568309238" lon="8.500015347397582"><ele>134.25</ele><time>2026-03-30T14:43:58.002Z</time></trkpt><trkpt lat="39.51787035714908" lon="8.499883275809527"><ele>133.5</ele><time>2026-03-30T14:43:59.002Z</time></trkpt><trkpt lat="39.51778622488618" lon="8.499769122507345"><ele>132.75</ele><time>2026-03-30T14:44:00.002Z</time></trkpt><trkpt lat="39.51769044856278" lon="8.499665359437268"><ele>132.0</ele><time>2026-03-30T14:44:01.002Z</time></trkpt><trkpt lat="39.517612579251455" lon="8.499545764075473"><ele>132.0</ele><time>2026-03-30T14:44:02.002Z</time></trkpt><trkpt lat="39.51753779948807" lon="8.49941962393509"><ele>132.0</ele><time>2026-03-30T14:44:03.002Z</time></trkpt><trkpt lat="39.517453205885715" lon="8.499324700735972"><ele>132.0</ele><time>2026-03-30T14:44:04.002Z</time></trkpt><trkpt lat="39.517348872953725" lon="8.49926939332361"><ele>132.0</ele><time>2026-03-30T14:44:05.002Z</time></trkpt><trkpt lat="39.5172222587291" lon="8.499245357467835"><ele>132.0</ele><time>2026-03-30T14:44:06.002Z</time></trkpt><trkpt lat="39.51709900726394" lon="8.499199935572165"><ele>132.0</ele><time>2026-03-30T14:44:07.002Z</time></trkpt><trkpt lat="39.516980148339044" lon="8.49917483832761"><ele>132.0</ele><time>2026-03-30T14:44:08.002Z</time></trkpt><trkpt lat="39.51687566189638" lon="8.49915078249018"><ele>132.0</ele><time>2026-03-30T14:44:09.003Z</time></trkpt><trkpt lat="39.51679583032541" lon="8.499056450867144"><ele>131.25</ele><time>2026-03-30T14:44:10.003Z</time></trkpt><trkpt lat="39.51674103170698" lon="8.498921568978973"><ele>130.5</ele><time>2026-03-30T14:44:11.003Z</time></trkpt><trkpt lat="39.51673291807038" lon="8.498799948000793"><ele>129.75</ele><time>2026-03-30T14:44:12.003Z</time></trkpt><trkpt lat="39.51668164984902" lon="8.498671905290294"><ele>129.0</ele><time>2026-03-30T14:44:13.003Z</time></trkpt><trkpt lat="39.51657127575076" lon="8.498563314405475"><ele>128.33333333333334</ele><time>2026-03-30T14:44:14.003Z</time></trkpt><trkpt lat="39.516429098278635" lon="8.498444201149026"><ele>127.66666666666667</ele><time>2026-03-30T14:44:15.003Z</time></trkpt><trkpt lat="39.51626159376453" lon="8.49835046770428"><ele>127.0</ele><time>2026-03-30T14:44:16.003Z</time></trkpt><trkpt lat="39.516358275793" lon="8.498421123288058"><ele>127.0</ele><time>2026-03-30T14:44:17.003Z</time></trkpt><trkpt lat="39.51625169936972" lon="8.498359789328648"><ele>127.0</ele><time>2026-03-30T14:44:18.003Z</time></trkpt><trkpt lat="39.516159258255215" lon="8.498251134233303"><ele>127.0</ele><time>2026-03-30T14:44:19.003Z</time></trkpt><trkpt lat="39.51604400869611" lon="8.4981587828032"><ele>127.0</ele><time>2026-03-30T14:44:20.003Z</time></trkpt><trkpt lat="39.51595008255674" lon="8.498027532996067"><ele>126.33333333333334</ele><time>2026-03-30T14:44:21.002Z</time></trkpt><trkpt lat="39.51586752734281" lon="8.497928894750292"><ele>125.66666666666667</ele><time>2026-03-30T14:44:22.002Z</time></trkpt><trkpt lat="39.51581620102781" lon="8.497852565033705"><ele>125.0</ele><time>2026-03-30T14:44:23.002Z</time></trkpt><trkpt lat="39.51578660395375" lon="8.497779140153938"><ele>124.33333333333334</ele><time>2026-03-30T14:44:24.002Z</time></trkpt><trkpt lat="39.51581516776492" lon="8.49769359330591"><ele>123.66666666666667</ele><time>2026-03-30T14:44:25.002Z</time></trkpt><trkpt lat="39.515816461375636" lon="8.497598270960705"><ele>123.0</ele><time>2026-03-30T14:44:26.002Z</time></trkpt><trkpt lat="39.51580106926881" lon="8.497498905581606"><ele>122.4</ele><time>2026-03-30T14:44:27.002Z</time></trkpt><trkpt lat="39.5158118418289" lon="8.497391932552404"><ele>121.80000000000001</ele><time>2026-03-30T14:44:28.002Z</time></trkpt><trkpt lat="39.51581120438636" lon="8.497271136070749"><ele>121.2</ele><time>2026-03-30T14:44:29.002Z</time></trkpt><trkpt lat="39.515808591159455" lon="8.497145858518262"><ele>120.6</ele><time>2026-03-30T14:44:30.002Z</time></trkpt><trkpt lat="39.51580759896556" lon="8.497006029137768"><ele>120.0</ele><time>2026-03-30T14:44:31.002Z</time></trkpt><trkpt lat="39.51580667365701" lon="8.496864397002163"><ele>120.0</ele><time>2026-03-30T14:44:32.002Z</time></trkpt><trkpt lat="39.515790168950616" lon="8.496737444443829"><ele>120.0</ele><time>2026-03-30T14:44:33.002Z</time></trkpt><trkpt lat="39.5157657770028" lon="8.49661055518339"><ele>120.0</ele><time>2026-03-30T14:44:34.002Z</time></trkpt><trkpt lat="39.5157288726554" lon="8.496484703092351"><ele>120.0</ele><time>2026-03-30T14:44:35.002Z</time></trkpt><trkpt lat="39.515690518903526" lon="8.49635088980331"><ele>120.0</ele><time>2026-03-30T14:44:36.002Z</time></trkpt><trkpt lat="39.515648308516106" lon="8.496213962050128"><ele>121.0</ele><time>2026-03-30T14:44:37.002Z</time></trkpt><trkpt lat="39.515605100007726" lon="8.496076225437802"><ele>122.0</ele><time>2026-03-30T14:44:38.002Z</time></trkpt><trkpt lat="39.51556637478619" lon="8.495942375014392"><ele>123.0</ele><time>2026-03-30T14:44:39.002Z</time></trkpt><trkpt lat="39.51552800209833" lon="8.495813503817635"><ele>124.0</ele><time>2026-03-30T14:44:40.002Z</time></trkpt><trkpt lat="39.51548843619551" lon="8.495686005276783"><ele>125.0</ele><time>2026-03-30T14:44:41.002Z</time></trkpt><trkpt lat="39.51543574761251" lon="8.495559427225098"><ele>122.6</ele><time>2026-03-30T14:44:42.002Z</time></trkpt><trkpt lat="39.51538441493671" lon="8.495428694263305"><ele>120.2</ele><time>2026-03-30T14:44:43.001Z</time></trkpt><trkpt lat="39.5153334100194" lon="8.49529963422667"><ele>117.80000000000001</ele><time>2026-03-30T14:44:44.001Z</time></trkpt><trkpt lat="39.51528717284022" lon="8.495176367339678"><ele>115.4</ele><time>2026-03-30T14:44:45.001Z</time></trkpt><trkpt lat="39.51524167404625" lon="8.49505402283487"><ele>113.0</ele><time>2026-03-30T14:44:46.001Z</time></trkpt><trkpt lat="39.515199526740105" lon="8.494928175577053"><ele>112.4</ele><time>2026-03-30T14:44:47.001Z</time></trkpt><trkpt lat="39.515155448755884" lon="8.494800006133648"><ele>111.80000000000001</ele><time>2026-03-30T14:44:48.001Z</time></trkpt><trkpt lat="39.515104172030625" lon="8.494675188357286"><ele>111.2</ele><time>2026-03-30T14:44:49.001Z</time></trkpt><trkpt lat="39.51505037697546" lon="8.494553679677642"><ele>110.6</ele><time>2026-03-30T14:44:50.001Z</time></trkpt><trkpt lat="39.514997683711314" lon="8.49443115554205"><ele>110.0</ele><time>2026-03-30T14:44:51.001Z</time></trkpt><trkpt lat="39.51495249214857" lon="8.494309967852077"><ele>109.6</ele><time>2026-03-30T14:44:52.001Z</time></trkpt><trkpt lat="39.51493174806819" lon="8.494174947026686"><ele>109.2</ele><time>2026-03-30T14:44:53.001Z</time></trkpt><trkpt lat="39.51495746522224" lon="8.494038886853799"><ele>108.80000000000001</ele><time>2026-03-30T14:44:54.001Z</time></trkpt><trkpt lat="39.51500510360822" lon="8.49392258850222"><ele>108.4</ele><time>2026-03-30T14:44:55.001Z</time></trkpt><trkpt lat="39.51504190171688" lon="8.493815847923964"><ele>108.0</ele><time>2026-03-30T14:44:56.001Z</time></trkpt><trkpt lat="39.515052153590425" lon="8.493708425129617"><ele>107.33333333333333</ele><time>2026-03-30T14:44:57.001Z</time></trkpt><trkpt lat="39.515028934884945" lon="8.493613868378802"><ele>106.66666666666666</ele><time>2026-03-30T14:44:58.001Z</time></trkpt><trkpt lat="39.51494629266279" lon="8.493542002562139"><ele>106.0</ele><time>2026-03-30T14:45:00.001Z</time></trkpt><trkpt lat="39.514817530370074" lon="8.493538925898417"><ele>105.33333333333333</ele><time>2026-03-30T14:45:02.001Z</time></trkpt><trkpt lat="39.51474633022201" lon="8.493554462311593"><ele>104.66666666666666</ele><time>2026-03-30T14:45:03.001Z</time></trkpt><trkpt lat="39.51467545146153" lon="8.493571027951381"><ele>104.0</ele><time>2026-03-30T14:45:04.001Z</time></trkpt><trkpt lat="39.51460831052679" lon="8.493564438441409"><ele>103.99999999999999</ele><time>2026-03-30T14:45:05.002Z</time></trkpt><trkpt lat="39.51452966323202" lon="8.493448870729962"><ele>104.0</ele><time>2026-03-30T14:45:07.002Z</time></trkpt><trkpt lat="39.51452230257108" lon="8.493353538086971"><ele>104.0</ele><time>2026-03-30T14:45:08.002Z</time></trkpt><trkpt lat="39.51452502590176" lon="8.493261414742541"><ele>104.0</ele><time>2026-03-30T14:45:09.002Z</time></trkpt><trkpt lat="39.514536343256694" lon="8.493169162367565"><ele>103.99999999999999</ele><time>2026-03-30T14:45:10.002Z</time></trkpt><trkpt lat="39.51455785910235" lon="8.493078880159052"><ele>104.0</ele><time>2026-03-30T14:45:11.002Z</time></trkpt><trkpt lat="39.51458930939402" lon="8.492985109078923"><ele>104.16666666666666</ele><time>2026-03-30T14:45:12.002Z</time></trkpt><trkpt lat="39.514638238196035" lon="8.492897945009497"><ele>104.33333333333333</ele><time>2026-03-30T14:45:13.002Z</time></trkpt><trkpt lat="39.5146954050237" lon="8.49282119027101"><ele>104.5</ele><time>2026-03-30T14:45:14.002Z</time></trkpt><trkpt lat="39.51474598014312" lon="8.492741275897243"><ele>104.66666666666666</ele><time>2026-03-30T14:45:15.002Z</time></trkpt><trkpt lat="39.51479365235682" lon="8.492647679404921"><ele>104.83333333333333</ele><time>2026-03-30T14:45:16.002Z</time></trkpt><trkpt lat="39.51483247693854" lon="8.49254685636667"><ele>105.0</ele><time>2026-03-30T14:45:17.002Z</time></trkpt><trkpt lat="39.51485949419867" lon="8.49244629744944"><ele>105.0</ele><time>2026-03-30T14:45:18.002Z</time></trkpt><trkpt lat="39.514876014732884" lon="8.492339587707356"><ele>105.0</ele><time>2026-03-30T14:45:19.002Z</time></trkpt><trkpt lat="39.51489704758299" lon="8.492250071896418"><ele>105.0</ele><time>2026-03-30T14:45:20.002Z</time></trkpt><trkpt lat="39.51493037774811" lon="8.492177046689081"><ele>105.0</ele><time>2026-03-30T14:45:21.002Z</time></trkpt><trkpt lat="39.51495128035054" lon="8.492096944792534"><ele>105.0</ele><time>2026-03-30T14:45:22.002Z</time></trkpt><trkpt lat="39.514979361639824" lon="8.492022736014517"><ele>105.0</ele><time>2026-03-30T14:45:23.002Z</time></trkpt><trkpt lat="39.515048031228474" lon="8.491904982620325"><ele>104.83333333333333</ele><time>2026-03-30T14:45:25.002Z</time></trkpt><trkpt lat="39.515107698141" lon="8.491812770587241"><ele>104.66666666666666</ele><time>2026-03-30T14:45:27.002Z</time></trkpt><trkpt lat="39.515166377825366" lon="8.491768111411513"><ele>104.5</ele><time>2026-03-30T14:45:30.002Z</time></trkpt><trkpt lat="39.51522765001649" lon="8.49170278823099"><ele>104.33333333333333</ele><time>2026-03-30T14:46:01.002Z</time></trkpt><trkpt lat="39.51528491156309" lon="8.491666349289227"><ele>104.16666666666666</ele><time>2026-03-30T14:46:02.002Z</time></trkpt><trkpt lat="39.515349171747026" lon="8.491611570660412"><ele>104.0</ele><time>2026-03-30T14:46:03.002Z</time></trkpt><trkpt lat="39.515432843818445" lon="8.49154396318959"><ele>104.0</ele><time>2026-03-30T14:46:04.002Z</time></trkpt><trkpt lat="39.515531776045385" lon="8.491468485540304"><ele>104.0</ele><time>2026-03-30T14:46:05.002Z</time></trkpt><trkpt lat="39.51563372847725" lon="8.491385647298456"><ele>104.0</ele><time>2026-03-30T14:46:06.002Z</time></trkpt><trkpt lat="39.51572160409798" lon="8.491300618403818"><ele>104.0</ele><time>2026-03-30T14:46:07.002Z</time></trkpt><trkpt lat="39.51579115853917" lon="8.491206142439395"><ele>104.0</ele><time>2026-03-30T14:46:08.002Z</time></trkpt><trkpt lat="39.51584353798192" lon="8.491095967386286"><ele>104.2</ele><time>2026-03-30T14:46:09.002Z</time></trkpt><trkpt lat="39.51589191062666" lon="8.490980153922653"><ele>104.4</ele><time>2026-03-30T14:46:10.002Z</time></trkpt><trkpt lat="39.51589690833042" lon="8.49085164613293"><ele>104.6</ele><time>2026-03-30T14:46:11.002Z</time></trkpt><trkpt lat="39.51590297034783" lon="8.490749114668056"><ele>104.8</ele><time>2026-03-30T14:46:12.002Z</time></trkpt><trkpt lat="39.51589558740035" lon="8.490632042836731"><ele>105.0</ele><time>2026-03-30T14:46:13.002Z</time></trkpt><trkpt lat="39.5158852606158" lon="8.49053030590878"><ele>105.0</ele><time>2026-03-30T14:46:14.003Z</time></trkpt><trkpt lat="39.5158855127165" lon="8.49043443420676"><ele>105.0</ele><time>2026-03-30T14:46:15.003Z</time></trkpt><trkpt lat="39.51590624456177" lon="8.490352741076132"><ele>105.0</ele><time>2026-03-30T14:46:16.003Z</time></trkpt><trkpt lat="39.515947817798555" lon="8.490269260900185"><ele>105.0</ele><time>2026-03-30T14:46:17.003Z</time></trkpt><trkpt lat="39.516011775426634" lon="8.490212076934782"><ele>105.0</ele><time>2026-03-30T14:46:18.003Z</time></trkpt><trkpt lat="39.51608773674482" lon="8.490164714046347"><ele>105.0</ele><time>2026-03-30T14:46:19.003Z</time></trkpt><trkpt lat="39.516173020643315" lon="8.490111737802126"><ele>104.2</ele><time>2026-03-30T14:46:20.003Z</time></trkpt><trkpt lat="39.51625149350168" lon="8.490031631642443"><ele>103.4</ele><time>2026-03-30T14:46:21.003Z</time></trkpt><trkpt lat="39.51633258685315" lon="8.489972883498423"><ele>102.6</ele><time>2026-03-30T14:46:22.003Z</time></trkpt><trkpt lat="39.51641411206943" lon="8.489912573934586"><ele>101.8</ele><time>2026-03-30T14:46:23.003Z</time></trkpt><trkpt lat="39.51650267237464" lon="8.48987434567541"><ele>101.0</ele><time>2026-03-30T14:46:24.003Z</time></trkpt><trkpt lat="39.51658972677583" lon="8.489847895595327"><ele>100.99999999999999</ele><time>2026-03-30T14:46:25.003Z</time></trkpt><trkpt lat="39.516675146213394" lon="8.489824196140454"><ele>101.0</ele><time>2026-03-30T14:46:26.003Z</time></trkpt><trkpt lat="39.516764973554295" lon="8.489804274873677"><ele>101.0</ele><time>2026-03-30T14:46:27.003Z</time></trkpt><trkpt lat="39.516854240269595" lon="8.489779223665112"><ele>101.0</ele><time>2026-03-30T14:46:28.003Z</time></trkpt><trkpt lat="39.516941060026994" lon="8.489749914254404"><ele>100.99999999999999</ele><time>2026-03-30T14:46:29.003Z</time></trkpt><trkpt lat="39.517017586349766" lon="8.489712625774212"><ele>101.0</ele><time>2026-03-30T14:46:30.003Z</time></trkpt><trkpt lat="39.51707648758305" lon="8.489658382279927"><ele>99.8</ele><time>2026-03-30T14:46:31.002Z</time></trkpt><trkpt lat="39.51712999251842" lon="8.489587036938525"><ele>98.6</ele><time>2026-03-30T14:46:32.002Z</time></trkpt><trkpt lat="39.51717051934766" lon="8.489488844557918"><ele>97.4</ele><time>2026-03-30T14:46:33.002Z</time></trkpt><trkpt lat="39.51720901102694" lon="8.489374454484347"><ele>96.2</ele><time>2026-03-30T14:46:34.002Z</time></trkpt><trkpt lat="39.51724237320674" lon="8.489244736985007"><ele>95.0</ele><time>2026-03-30T14:46:35.002Z</time></trkpt><trkpt lat="39.5172806941019" lon="8.489108790777093"><ele>95.0</ele><time>2026-03-30T14:46:36.002Z</time></trkpt><trkpt lat="39.51733161649129" lon="8.488975131081876"><ele>95.0</ele><time>2026-03-30T14:46:37.002Z</time></trkpt><trkpt lat="39.517392502582034" lon="8.488854933489696"><ele>95.0</ele><time>2026-03-30T14:46:38.002Z</time></trkpt><trkpt lat="39.51747522607318" lon="8.488767702010387"><ele>95.0</ele><time>2026-03-30T14:46:39.002Z</time></trkpt><trkpt lat="39.51753064507229" lon="8.488669831026602"><ele>95.0</ele><time>2026-03-30T14:46:40.002Z</time></trkpt><trkpt lat="39.51760024344393" lon="8.488585580794506"><ele>93.5</ele><time>2026-03-30T14:46:41.002Z</time></trkpt><trkpt lat="39.517655088489036" lon="8.488502132537748"><ele>92.0</ele><time>2026-03-30T14:46:42.002Z</time></trkpt><trkpt lat="39.5177090324497" lon="8.488420207623067"><ele>90.5</ele><time>2026-03-30T14:46:43.002Z</time></trkpt><trkpt lat="39.51776324783628" lon="8.488341149563443"><ele>89.0</ele><time>2026-03-30T14:46:44.002Z</time></trkpt><trkpt lat="39.51782381319081" lon="8.488271350343291"><ele>87.5</ele><time>2026-03-30T14:46:45.002Z</time></trkpt><trkpt lat="39.51788594672558" lon="8.488208226811217"><ele>86.0</ele><time>2026-03-30T14:46:46.002Z</time></trkpt><trkpt lat="39.51795534623951" lon="8.48815907321166"><ele>86.0</ele><time>2026-03-30T14:46:47.002Z</time></trkpt><trkpt lat="39.51802831239323" lon="8.488134442109342"><ele>86.0</ele><time>2026-03-30T14:46:48.002Z</time></trkpt><trkpt lat="39.518107469101636" lon="8.488154794143668"><ele>86.0</ele><time>2026-03-30T14:46:49.002Z</time></trkpt><trkpt lat="39.51818820353112" lon="8.488168295390194"><ele>86.0</ele><time>2026-03-30T14:46:50.002Z</time></trkpt><trkpt lat="39.51826309268573" lon="8.488159357452595"><ele>86.0</ele><time>2026-03-30T14:46:51.002Z</time></trkpt><trkpt lat="39.518375889515006" lon="8.488179489871753"><ele>86.0</ele><time>2026-03-30T14:46:53.001Z</time></trkpt><trkpt lat="39.51845195006476" lon="8.488155196629368"><ele>86.0</ele><time>2026-03-30T14:46:55.001Z</time></trkpt><trkpt lat="39.51848951265427" lon="8.488078974496233"><ele>86.0</ele><time>2026-03-30T14:46:58.001Z</time></trkpt><trkpt lat="39.5185159697137" lon="8.487960370991956"><ele>86.0</ele><time>2026-03-30T14:47:00.001Z</time></trkpt><trkpt lat="39.51852539331005" lon="8.487875721863293"><ele>86.0</ele><time>2026-03-30T14:47:01.001Z</time></trkpt><trkpt lat="39.518526063746336" lon="8.48778043556798"><ele>86.0</ele><time>2026-03-30T14:47:02.001Z</time></trkpt><trkpt lat="39.5185109708379" lon="8.487682823954941"><ele>86.0</ele><time>2026-03-30T14:47:03.001Z</time></trkpt><trkpt lat="39.518494257153414" lon="8.487575192157543"><ele>87.6</ele><time>2026-03-30T14:47:04.001Z</time></trkpt><trkpt lat="39.518478140411716" lon="8.48746334683339"><ele>89.19999999999999</ele><time>2026-03-30T14:47:05.001Z</time></trkpt><trkpt lat="39.51846597003428" lon="8.48735114326125"><ele>90.80000000000001</ele><time>2026-03-30T14:47:06.001Z</time></trkpt><trkpt lat="39.5184582078406" lon="8.48723604096062"><ele>92.4</ele><time>2026-03-30T14:47:07.001Z</time></trkpt><trkpt lat="39.51844822395477" lon="8.48711522085276"><ele>94.0</ele><time>2026-03-30T14:47:08.001Z</time></trkpt><trkpt lat="39.51844786568623" lon="8.486988728108654"><ele>94.0</ele><time>2026-03-30T14:47:09.001Z</time></trkpt><trkpt lat="39.51845565643646" lon="8.486864749930522"><ele>94.0</ele><time>2026-03-30T14:47:10.001Z</time></trkpt><trkpt lat="39.51846824973944" lon="8.486745004665876"><ele>94.0</ele><time>2026-03-30T14:47:11.001Z</time></trkpt><trkpt lat="39.518486049993975" lon="8.486619538886732"><ele>94.0</ele><time>2026-03-30T14:47:12.001Z</time></trkpt><trkpt lat="39.51851113249388" lon="8.486508391592878"><ele>94.0</ele><time>2026-03-30T14:47:13.001Z</time></trkpt><trkpt lat="39.518551702611425" lon="8.486397238355165"><ele>94.0</ele><time>2026-03-30T14:47:14.001Z</time></trkpt><trkpt lat="39.518590782617245" lon="8.486291318509883"><ele>94.0</ele><time>2026-03-30T14:47:15.001Z</time></trkpt><trkpt lat="39.51863588239434" lon="8.486185774940136"><ele>94.0</ele><time>2026-03-30T14:47:16.001Z</time></trkpt><trkpt lat="39.51869155562183" lon="8.486085707564376"><ele>94.0</ele><time>2026-03-30T14:47:17.001Z</time></trkpt><trkpt lat="39.51875361848363" lon="8.485999603515822"><ele>94.0</ele><time>2026-03-30T14:47:18.001Z</time></trkpt><trkpt lat="39.518820810399404" lon="8.485921336805108"><ele>92.16666666666666</ele><time>2026-03-30T14:47:19.001Z</time></trkpt><trkpt lat="39.51889159690064" lon="8.485852260726855"><ele>90.33333333333333</ele><time>2026-03-30T14:47:20.001Z</time></trkpt><trkpt lat="39.51895168510835" lon="8.485788214420872"><ele>88.5</ele><time>2026-03-30T14:47:21.001Z</time></trkpt><trkpt lat="39.51900586466129" lon="8.485707685785993"><ele>86.66666666666667</ele><time>2026-03-30T14:47:22.001Z</time></trkpt><trkpt lat="39.519042570493085" lon="8.485617519754094"><ele>84.83333333333334</ele><time>2026-03-30T14:47:23.001Z</time></trkpt><trkpt lat="39.51907604142117" lon="8.48551859871195"><ele>83.0</ele><time>2026-03-30T14:47:24.001Z</time></trkpt><trkpt lat="39.51909325730212" lon="8.485423545557614"><ele>82.33333333333334</ele><time>2026-03-30T14:47:25.001Z</time></trkpt><trkpt lat="39.51909982481839" lon="8.485314528484789"><ele>81.66666666666667</ele><time>2026-03-30T14:47:26.001Z</time></trkpt><trkpt lat="39.51908839368377" lon="8.485206558983425"><ele>81.0</ele><time>2026-03-30T14:47:27.001Z</time></trkpt><trkpt lat="39.519061701401874" lon="8.485101843921052"><ele>80.33333333333333</ele><time>2026-03-30T14:47:28.001Z</time></trkpt><trkpt lat="39.51903852108442" lon="8.484983946349624"><ele>79.66666666666666</ele><time>2026-03-30T14:47:29.001Z</time></trkpt><trkpt lat="39.519019145058806" lon="8.484872673245562"><ele>79.0</ele><time>2026-03-30T14:47:30.001Z</time></trkpt><trkpt lat="39.51900182078666" lon="8.484756993468118"><ele>79.0</ele><time>2026-03-30T14:47:31.001Z</time></trkpt><trkpt lat="39.51898738609578" lon="8.484633602566085"><ele>79.0</ele><time>2026-03-30T14:47:32.001Z</time></trkpt><trkpt lat="39.51895288429004" lon="8.484509244722558"><ele>79.0</ele><time>2026-03-30T14:47:33.001Z</time></trkpt><trkpt lat="39.51891294008508" lon="8.484395718653024"><ele>79.0</ele><time>2026-03-30T14:47:34.001Z</time></trkpt><trkpt lat="39.518879385310434" lon="8.484287254051601"><ele>79.0</ele><time>2026-03-30T14:47:35.001Z</time></trkpt><trkpt lat="39.518856482704386" lon="8.484173242963827"><ele>78.2</ele><time>2026-03-30T14:47:36.001Z</time></trkpt><trkpt lat="39.51887424669968" lon="8.484065472909457"><ele>77.4</ele><time>2026-03-30T14:47:37.001Z</time></trkpt><trkpt lat="39.51889058531005" lon="8.483948422389151"><ele>76.6</ele><time>2026-03-30T14:47:38.001Z</time></trkpt><trkpt lat="39.518901091367795" lon="8.483826488617668"><ele>75.8</ele><time>2026-03-30T14:47:39.001Z</time></trkpt><trkpt lat="39.518935239564996" lon="8.48371607749741"><ele>75.0</ele><time>2026-03-30T14:47:40.001Z</time></trkpt><trkpt lat="39.51894753494981" lon="8.483595687411645"><ele>74.4</ele><time>2026-03-30T14:47:41.001Z</time></trkpt><trkpt lat="39.51894693297557" lon="8.483472344844058"><ele>73.8</ele><time>2026-03-30T14:47:42.001Z</time></trkpt><trkpt lat="39.5189468278906" lon="8.483356760230722"><ele>73.2</ele><time>2026-03-30T14:47:43.001Z</time></trkpt><trkpt lat="39.518956286235614" lon="8.483237881211975"><ele>72.6</ele><time>2026-03-30T14:47:44.002Z</time></trkpt><trkpt lat="39.51897705045537" lon="8.483124656974827"><ele>72.0</ele><time>2026-03-30T14:47:45.002Z</time></trkpt><trkpt lat="39.51902590864597" lon="8.483024232443885"><ele>72.0</ele><time>2026-03-30T14:47:46.002Z</time></trkpt><trkpt lat="39.519078216557645" lon="8.482933221877209"><ele>72.0</ele><time>2026-03-30T14:47:47.002Z</time></trkpt><trkpt lat="39.51914480464755" lon="8.482849464696802"><ele>72.0</ele><time>2026-03-30T14:47:48.002Z</time></trkpt><trkpt lat="39.51921235882641" lon="8.482780990078261"><ele>72.0</ele><time>2026-03-30T14:47:49.002Z</time></trkpt><trkpt lat="39.519288644176406" lon="8.482722916110907"><ele>72.0</ele><time>2026-03-30T14:47:50.002Z</time></trkpt><trkpt lat="39.51937559277054" lon="8.48266928040809"><ele>71.6</ele><time>2026-03-30T14:47:51.002Z</time></trkpt><trkpt lat="39.519465149497215" lon="8.482624352853973"><ele>71.2</ele><time>2026-03-30T14:47:52.002Z</time></trkpt><trkpt lat="39.51955564249213" lon="8.482594377771326"><ele>70.8</ele><time>2026-03-30T14:47:53.002Z</time></trkpt><trkpt lat="39.51964513618222" lon="8.48256608396877"><ele>70.4</ele><time>2026-03-30T14:47:54.002Z</time></trkpt><trkpt lat="39.51974424089415" lon="8.482566309938486"><ele>70.0</ele><time>2026-03-30T14:47:55.002Z</time></trkpt><trkpt lat="39.519835914337165" lon="8.482569436270767"><ele>70.0</ele><time>2026-03-30T14:47:56.002Z</time></trkpt><trkpt lat="39.51991806187333" lon="8.482569502295041"><ele>70.0</ele><time>2026-03-30T14:47:57.002Z</time></trkpt><trkpt lat="39.51998226229782" lon="8.482567438364443"><ele>70.0</ele><time>2026-03-30T14:47:58.002Z</time></trkpt><trkpt lat="39.520058219416015" lon="8.48249861054961"><ele>70.0</ele><time>2026-03-30T14:48:00.002Z</time></trkpt><trkpt lat="39.52008300593534" lon="8.482364030120864"><ele>70.0</ele><time>2026-03-30T14:48:02.002Z</time></trkpt><trkpt lat="39.52007295083872" lon="8.482218001966501"><ele>70.0</ele><time>2026-03-30T14:48:04.002Z</time></trkpt><trkpt lat="39.52003575503102" lon="8.482137596335626"><ele>70.0</ele><time>2026-03-30T14:48:05.002Z</time></trkpt><trkpt lat="39.51998872414027" lon="8.482055030118865"><ele>70.0</ele><time>2026-03-30T14:48:06.002Z</time></trkpt><trkpt lat="39.51994230444654" lon="8.481964493971363"><ele>70.0</ele><time>2026-03-30T14:48:07.002Z</time></trkpt><trkpt lat="39.5199066015556" lon="8.481878145721408"><ele>70.0</ele><time>2026-03-30T14:48:08.002Z</time></trkpt><trkpt lat="39.51989521987744" lon="8.481770185577203"><ele>70.0</ele><time>2026-03-30T14:48:09.002Z</time></trkpt><trkpt lat="39.51989259469773" lon="8.48166132783528"><ele>70.0</ele><time>2026-03-30T14:48:10.002Z</time></trkpt><trkpt lat="39.51991529104038" lon="8.481556936148264"><ele>70.0</ele><time>2026-03-30T14:48:11.002Z</time></trkpt><trkpt lat="39.51994387313852" lon="8.481447132807716"><ele>70.0</ele><time>2026-03-30T14:48:12.002Z</time></trkpt><trkpt lat="39.51997541772328" lon="8.481338010222117"><ele>70.0</ele><time>2026-03-30T14:48:13.002Z</time></trkpt><trkpt lat="39.52002209336625" lon="8.481233645130965"><ele>70.0</ele><time>2026-03-30T14:48:14.002Z</time></trkpt><trkpt lat="39.52007468714923" lon="8.48115216461932"><ele>70.0</ele><time>2026-03-30T14:48:15.002Z</time></trkpt><trkpt lat="39.520136185387905" lon="8.481098494215004"><ele>69.83333333333333</ele><time>2026-03-30T14:48:16.002Z</time></trkpt><trkpt lat="39.520196066794924" lon="8.481065926079856"><ele>69.66666666666666</ele><time>2026-03-30T14:48:17.002Z</time></trkpt><trkpt lat="39.52027529682732" lon="8.481083377168133"><ele>69.5</ele><time>2026-03-30T14:48:18.002Z</time></trkpt><trkpt lat="39.52034478431275" lon="8.481045398274565"><ele>69.33333333333333</ele><time>2026-03-30T14:48:19.002Z</time></trkpt><trkpt lat="39.52041358130586" lon="8.481010371210633"><ele>69.16666666666667</ele><time>2026-03-30T14:48:20.002Z</time></trkpt><trkpt lat="39.52047842372222" lon="8.480953664678378"><ele>69.0</ele><time>2026-03-30T14:48:21.002Z</time></trkpt><trkpt lat="39.52053607113443" lon="8.480877176386223"><ele>69.0</ele><time>2026-03-30T14:48:22.002Z</time></trkpt><trkpt lat="39.52060617617083" lon="8.480816956519032"><ele>69.0</ele><time>2026-03-30T14:48:23.002Z</time></trkpt><trkpt lat="39.52066775971673" lon="8.480754921900154"><ele>69.0</ele><time>2026-03-30T14:48:24.002Z</time></trkpt><trkpt lat="39.520730874246304" lon="8.480689487589983"><ele>69.0</ele><time>2026-03-30T14:48:25.002Z</time></trkpt><trkpt lat="39.52078297465976" lon="8.480610268659362"><ele>69.0</ele><time>2026-03-30T14:48:26.002Z</time></trkpt><trkpt lat="39.52082780135258" lon="8.480526086691826"><ele>69.0</ele><time>2026-03-30T14:48:27.002Z</time></trkpt><trkpt lat="39.520863306444255" lon="8.480435430266345"><ele>69.0</ele><time>2026-03-30T14:48:28.002Z</time></trkpt><trkpt lat="39.5208834958572" lon="8.480335920425619"><ele>69.0</ele><time>2026-03-30T14:48:29.002Z</time></trkpt><trkpt lat="39.52089532692969" lon="8.480240199624125"><ele>69.0</ele><time>2026-03-30T14:48:30.002Z</time></trkpt><trkpt lat="39.520890943237454" lon="8.480138230751031"><ele>69.0</ele><time>2026-03-30T14:48:31.002Z</time></trkpt><trkpt lat="39.520873605132444" lon="8.480030263741698"><ele>69.0</ele><time>2026-03-30T14:48:32.002Z</time></trkpt><trkpt lat="39.52084750134636" lon="8.479921925413713"><ele>69.0</ele><time>2026-03-30T14:48:33.002Z</time></trkpt><trkpt lat="39.52081383474095" lon="8.479803081780393"><ele>69.0</ele><time>2026-03-30T14:48:34.002Z</time></trkpt><trkpt lat="39.52076694948971" lon="8.479696302172336"><ele>69.0</ele><time>2026-03-30T14:48:35.002Z</time></trkpt><trkpt lat="39.52071188065494" lon="8.479591971416896"><ele>69.0</ele><time>2026-03-30T14:48:36.002Z</time></trkpt><trkpt lat="39.52065244971799" lon="8.479484944444453"><ele>69.0</ele><time>2026-03-30T14:48:37.002Z</time></trkpt><trkpt lat="39.520594256535915" lon="8.479385722440986"><ele>69.0</ele><time>2026-03-30T14:48:38.002Z</time></trkpt><trkpt lat="39.520556155733374" lon="8.479269099303838"><ele>68.0</ele><time>2026-03-30T14:48:39.002Z</time></trkpt><trkpt lat="39.520540285761186" lon="8.479142432722888"><ele>67.0</ele><time>2026-03-30T14:48:40.002Z</time></trkpt><trkpt lat="39.520535203551475" lon="8.479024975805313"><ele>66.0</ele><time>2026-03-30T14:48:41.002Z</time></trkpt><trkpt lat="39.52053198929872" lon="8.478909390482452"><ele>65.0</ele><time>2026-03-30T14:48:42.002Z</time></trkpt><trkpt lat="39.520532439552696" lon="8.478790765226275"><ele>64.0</ele><time>2026-03-30T14:48:43.002Z</time></trkpt><trkpt lat="39.52054547891164" lon="8.478677127019852"><ele>63.800000000000004</ele><time>2026-03-30T14:48:44.002Z</time></trkpt><trkpt lat="39.520567828879926" lon="8.478571285714123"><ele>63.60000000000001</ele><time>2026-03-30T14:48:45.002Z</time></trkpt><trkpt lat="39.52060287606756" lon="8.478461615359139"><ele>63.4</ele><time>2026-03-30T14:48:46.002Z</time></trkpt><trkpt lat="39.520645295746114" lon="8.478352995021963"><ele>63.2</ele><time>2026-03-30T14:48:47.002Z</time></trkpt><trkpt lat="39.520699220114935" lon="8.478254541580736"><ele>63.0</ele><time>2026-03-30T14:48:48.002Z</time></trkpt><trkpt lat="39.52075374112455" lon="8.478157770875745"><ele>63.0</ele><time>2026-03-30T14:48:49.002Z</time></trkpt><trkpt lat="39.52080627070561" lon="8.4780564539149"><ele>63.0</ele><time>2026-03-30T14:48:50.002Z</time></trkpt><trkpt lat="39.52085598565001" lon="8.477952354077905"><ele>63.0</ele><time>2026-03-30T14:48:51.001Z</time></trkpt><trkpt lat="39.520902418984484" lon="8.477845861544367"><ele>63.0</ele><time>2026-03-30T14:48:52.001Z</time></trkpt><trkpt lat="39.52093282985347" lon="8.477735356403516"><ele>63.0</ele><time>2026-03-30T14:48:53.001Z</time></trkpt><trkpt lat="39.52096735007754" lon="8.477629953730112"><ele>64.0</ele><time>2026-03-30T14:48:54.001Z</time></trkpt><trkpt lat="39.520999256782794" lon="8.477524890488525"><ele>65.0</ele><time>2026-03-30T14:48:55.001Z</time></trkpt><trkpt lat="39.521050273449745" lon="8.47743490408286"><ele>66.0</ele><time>2026-03-30T14:48:56.001Z</time></trkpt><trkpt lat="39.52108789649085" lon="8.477333194282785"><ele>67.0</ele><time>2026-03-30T14:48:57.001Z</time></trkpt><trkpt lat="39.52115263978783" lon="8.477233998966348"><ele>68.0</ele><time>2026-03-30T14:48:58.001Z</time></trkpt><trkpt lat="39.521205829308634" lon="8.477128878158773"><ele>65.0</ele><time>2026-03-30T14:48:59.001Z</time></trkpt><trkpt lat="39.521268416633696" lon="8.477028358567356"><ele>62.0</ele><time>2026-03-30T14:49:00.001Z</time></trkpt><trkpt lat="39.52133011444541" lon="8.47693857402475"><ele>59.0</ele><time>2026-03-30T14:49:01.001Z</time></trkpt><trkpt lat="39.52140538811111" lon="8.476862809429061"><ele>56.0</ele><time>2026-03-30T14:49:02.001Z</time></trkpt><trkpt lat="39.5214859526626" lon="8.476796321206855"><ele>53.0</ele><time>2026-03-30T14:49:03.001Z</time></trkpt><trkpt lat="39.52157344714112" lon="8.476736554881178"><ele>53.00000000000001</ele><time>2026-03-30T14:49:04.001Z</time></trkpt><trkpt lat="39.521651712733636" lon="8.47667038709987"><ele>53.0</ele><time>2026-03-30T14:49:05.001Z</time></trkpt><trkpt lat="39.52171731979249" lon="8.476594220908515"><ele>53.0</ele><time>2026-03-30T14:49:06.001Z</time></trkpt><trkpt lat="39.52176850739085" lon="8.476508146381107"><ele>53.0</ele><time>2026-03-30T14:49:07.001Z</time></trkpt><trkpt lat="39.521809284796106" lon="8.476412866057656"><ele>53.00000000000001</ele><time>2026-03-30T14:49:08.001Z</time></trkpt><trkpt lat="39.52183698246086" lon="8.476313846297497"><ele>53.0</ele><time>2026-03-30T14:49:09.001Z</time></trkpt><trkpt lat="39.52186067619093" lon="8.476208389756776"><ele>52.599999999999994</ele><time>2026-03-30T14:49:10.001Z</time></trkpt><trkpt lat="39.52188645940754" lon="8.476103886498452"><ele>52.199999999999996</ele><time>2026-03-30T14:49:11.001Z</time></trkpt><trkpt lat="39.52191386870741" lon="8.475996595423034"><ele>51.8</ele><time>2026-03-30T14:49:12.001Z</time></trkpt><trkpt lat="39.52196971192512" lon="8.475798266662053"><ele>51.4</ele><time>2026-03-30T14:49:14.001Z</time></trkpt><trkpt lat="39.522011689391675" lon="8.475724845347228"><ele>51.0</ele><time>2026-03-30T14:49:15.001Z</time></trkpt><trkpt lat="39.52207097482892" lon="8.47567415003668"><ele>51.0</ele><time>2026-03-30T14:49:16.001Z</time></trkpt><trkpt lat="39.52214276098293" lon="8.475665403762227"><ele>51.0</ele><time>2026-03-30T14:49:17.001Z</time></trkpt><trkpt lat="39.52220927451347" lon="8.47562527872643"><ele>51.0</ele><time>2026-03-30T14:49:18.001Z</time></trkpt><trkpt lat="39.522271892098885" lon="8.47559648279983"><ele>51.0</ele><time>2026-03-30T14:49:19.001Z</time></trkpt><trkpt lat="39.52233697612604" lon="8.47555672438032"><ele>51.0</ele><time>2026-03-30T14:49:20.001Z</time></trkpt><trkpt lat="39.52239447296603" lon="8.4755218744866"><ele>51.0</ele><time>2026-03-30T14:49:21.001Z</time></trkpt><trkpt lat="39.5224674915585" lon="8.47549552390837"><ele>51.0</ele><time>2026-03-30T14:49:22.001Z</time></trkpt><trkpt lat="39.522534287822445" lon="8.475466015290499"><ele>51.833333333333336</ele><time>2026-03-30T14:49:23.001Z</time></trkpt><trkpt lat="39.52261053083251" lon="8.475430084766545"><ele>52.66666666666667</ele><time>2026-03-30T14:49:24.001Z</time></trkpt><trkpt lat="39.522688217345504" lon="8.475405998901852"><ele>53.5</ele><time>2026-03-30T14:49:25.001Z</time></trkpt><trkpt lat="39.52276342510942" lon="8.475385108809864"><ele>54.333333333333336</ele><time>2026-03-30T14:49:26.001Z</time></trkpt><trkpt lat="39.52283470101159" lon="8.475364799465849"><ele>55.16666666666667</ele><time>2026-03-30T14:49:27.001Z</time></trkpt><trkpt lat="39.5229051685045" lon="8.47535194208153"><ele>56.0</ele><time>2026-03-30T14:49:28.001Z</time></trkpt><trkpt lat="39.52297466067374" lon="8.475339713894416"><ele>56.285714285714285</ele><time>2026-03-30T14:49:29.001Z</time></trkpt><trkpt lat="39.52304829625018" lon="8.47533249376208"><ele>56.57142857142857</ele><time>2026-03-30T14:49:30.001Z</time></trkpt><trkpt lat="39.523120410361585" lon="8.475326415870125"><ele>56.85714285714286</ele><time>2026-03-30T14:49:31.001Z</time></trkpt><trkpt lat="39.52319544402251" lon="8.47532676205082"><ele>57.142857142857146</ele><time>2026-03-30T14:49:32.001Z</time></trkpt><trkpt lat="39.5232710765295" lon="8.475337300230958"><ele>57.42857142857143</ele><time>2026-03-30T14:49:33.001Z</time></trkpt><trkpt lat="39.523349181893714" lon="8.47535211601799"><ele>57.71428571428572</ele><time>2026-03-30T14:49:34.001Z</time></trkpt><trkpt lat="39.523420474106494" lon="8.475360423852676"><ele>58.00000000000001</ele><time>2026-03-30T14:49:35.001Z</time></trkpt><trkpt lat="39.52349483485373" lon="8.475355146301569"><ele>58.00000000000001</ele><time>2026-03-30T14:49:36.001Z</time></trkpt><trkpt lat="39.52357500875054" lon="8.475341296695937"><ele>58.0</ele><time>2026-03-30T14:49:37.001Z</time></trkpt><trkpt lat="39.52365080750666" lon="8.475331377154339"><ele>58.00000000000001</ele><time>2026-03-30T14:49:38.001Z</time></trkpt><trkpt lat="39.52372115992787" lon="8.475322285467303"><ele>58.00000000000001</ele><time>2026-03-30T14:49:39.001Z</time></trkpt><trkpt lat="39.523795249166284" lon="8.47530211100716"><ele>58.0</ele><time>2026-03-30T14:49:40.001Z</time></trkpt><trkpt lat="39.52386593136531" lon="8.475279249419993"><ele>58.00000000000001</ele><time>2026-03-30T14:49:41.001Z</time></trkpt><trkpt lat="39.52393651870744" lon="8.475257486098721"><ele>58.00000000000001</ele><time>2026-03-30T14:49:42.001Z</time></trkpt><trkpt lat="39.524010759277225" lon="8.475232127315163"><ele>56.57142857142858</ele><time>2026-03-30T14:49:43.001Z</time></trkpt><trkpt lat="39.524077181546645" lon="8.47520609054463"><ele>55.142857142857146</ele><time>2026-03-30T14:49:44.001Z</time></trkpt><trkpt lat="39.52414256567544" lon="8.475175485532013"><ele>53.714285714285715</ele><time>2026-03-30T14:49:45.001Z</time></trkpt><trkpt lat="39.524214013584185" lon="8.475149386137316"><ele>52.28571428571429</ele><time>2026-03-30T14:49:46.001Z</time></trkpt><trkpt lat="39.524283913605196" lon="8.475118189652713"><ele>50.85714285714286</ele><time>2026-03-30T14:49:47.001Z</time></trkpt><trkpt lat="39.52435391679142" lon="8.47508904774304"><ele>49.42857142857142</ele><time>2026-03-30T14:49:48.001Z</time></trkpt><trkpt lat="39.52442970398136" lon="8.475056239131955"><ele>48.0</ele><time>2026-03-30T14:49:49.001Z</time></trkpt><trkpt lat="39.52449758917356" lon="8.47502365358621"><ele>47.166666666666664</ele><time>2026-03-30T14:49:50.001Z</time></trkpt><trkpt lat="39.52456541268058" lon="8.474988603771326"><ele>46.333333333333336</ele><time>2026-03-30T14:49:51.001Z</time></trkpt><trkpt lat="39.524632674894924" lon="8.474938166251613"><ele>45.5</ele><time>2026-03-30T14:49:52.001Z</time></trkpt><trkpt lat="39.52469092101513" lon="8.474869852098893"><ele>44.66666666666667</ele><time>2026-03-30T14:49:53.001Z</time></trkpt><trkpt lat="39.52474186115232" lon="8.474794453260241"><ele>43.833333333333336</ele><time>2026-03-30T14:49:54.001Z</time></trkpt><trkpt lat="39.524785841550084" lon="8.474715927835188"><ele>43.0</ele><time>2026-03-30T14:49:55.001Z</time></trkpt><trkpt lat="39.524822875711145" lon="8.47462385654201"><ele>42.833333333333336</ele><time>2026-03-30T14:49:56.001Z</time></trkpt><trkpt lat="39.524851273731166" lon="8.474515809928691"><ele>42.66666666666667</ele><time>2026-03-30T14:49:57.001Z</time></trkpt><trkpt lat="39.52487683472741" lon="8.474417195508034"><ele>42.5</ele><time>2026-03-30T14:49:58.001Z</time></trkpt><trkpt lat="39.524893459138035" lon="8.474317526434744"><ele>42.333333333333336</ele><time>2026-03-30T14:49:59.001Z</time></trkpt><trkpt lat="39.52492077142848" lon="8.474210199676811"><ele>42.166666666666664</ele><time>2026-03-30T14:50:00.001Z</time></trkpt><trkpt lat="39.52494837610295" lon="8.47410419074398"><ele>42.0</ele><time>2026-03-30T14:50:01.001Z</time></trkpt><trkpt lat="39.52496483533348" lon="8.473997992325218"><ele>42.0</ele><time>2026-03-30T14:50:02.001Z</time></trkpt><trkpt lat="39.52498524853549" lon="8.473894138814238"><ele>42.0</ele><time>2026-03-30T14:50:03.001Z</time></trkpt><trkpt lat="39.52501234270259" lon="8.473787719914514"><ele>42.0</ele><time>2026-03-30T14:50:04.001Z</time></trkpt><trkpt lat="39.52503704336885" lon="8.47368714840305"><ele>42.0</ele><time>2026-03-30T14:50:05.001Z</time></trkpt><trkpt lat="39.52505440144496" lon="8.473588830118846"><ele>42.0</ele><time>2026-03-30T14:50:06.001Z</time></trkpt><trkpt lat="39.525079122994406" lon="8.473497158692982"><ele>42.0</ele><time>2026-03-30T14:50:07.001Z</time></trkpt><trkpt lat="39.52511466273447" lon="8.473418146164654"><ele>42.0</ele><time>2026-03-30T14:50:08.001Z</time></trkpt><trkpt lat="39.52515834110758" lon="8.473347144666011"><ele>42.0</ele><time>2026-03-30T14:50:09.001Z</time></trkpt><trkpt lat="39.52520966408277" lon="8.473287144243901"><ele>42.0</ele><time>2026-03-30T14:50:10.001Z</time></trkpt><trkpt lat="39.52526307331565" lon="8.473232889177767"><ele>42.0</ele><time>2026-03-30T14:50:11.001Z</time></trkpt><trkpt lat="39.5253241226209" lon="8.473170629840967"><ele>42.0</ele><time>2026-03-30T14:50:12.001Z</time></trkpt><trkpt lat="39.525397330744276" lon="8.473125083856718"><ele>42.0</ele><time>2026-03-30T14:50:13.001Z</time></trkpt><trkpt lat="39.5254602800351" lon="8.473071788078048"><ele>42.0</ele><time>2026-03-30T14:50:14.001Z</time></trkpt><trkpt lat="39.525515645379706" lon="8.473011637186792"><ele>42.0</ele><time>2026-03-30T14:50:15.001Z</time></trkpt><trkpt lat="39.525576323116226" lon="8.47294230805742"><ele>42.0</ele><time>2026-03-30T14:50:16.001Z</time></trkpt><trkpt lat="39.52564810522624" lon="8.47285852325798"><ele>42.0</ele><time>2026-03-30T14:50:17.001Z</time></trkpt><trkpt lat="39.525714792224576" lon="8.472820991203376"><ele>42.0</ele><time>2026-03-30T14:50:18.001Z</time></trkpt><trkpt lat="39.52579320864607" lon="8.472777390230119"><ele>42.0</ele><time>2026-03-30T14:50:19.001Z</time></trkpt><trkpt lat="39.52587253130123" lon="8.472730989042196"><ele>42.0</ele><time>2026-03-30T14:50:20.001Z</time></trkpt><trkpt lat="39.52594559101479" lon="8.47266907289068"><ele>41.333333333333336</ele><time>2026-03-30T14:50:21.001Z</time></trkpt><trkpt lat="39.52600988827941" lon="8.472615731908778"><ele>40.666666666666664</ele><time>2026-03-30T14:50:22.001Z</time></trkpt><trkpt lat="39.52607078165967" lon="8.472549678901755"><ele>40.0</ele><time>2026-03-30T14:50:23.001Z</time></trkpt><trkpt lat="39.52612305833005" lon="8.472477434737849"><ele>39.33333333333333</ele><time>2026-03-30T14:50:24.001Z</time></trkpt><trkpt lat="39.52617115007898" lon="8.472412008767979"><ele>38.666666666666664</ele><time>2026-03-30T14:50:25.001Z</time></trkpt><trkpt lat="39.52622626299785" lon="8.472345443824445"><ele>38.0</ele><time>2026-03-30T14:50:26.001Z</time></trkpt><trkpt lat="39.526286380320386" lon="8.472281222322858"><ele>38.0</ele><time>2026-03-30T14:50:27.001Z</time></trkpt><trkpt lat="39.52635005827917" lon="8.472217710339834"><ele>38.0</ele><time>2026-03-30T14:50:28.001Z</time></trkpt><trkpt lat="39.52642350240845" lon="8.472169464817553"><ele>38.0</ele><time>2026-03-30T14:50:29.001Z</time></trkpt><trkpt lat="39.52649712525838" lon="8.472131074740833"><ele>38.0</ele><time>2026-03-30T14:50:30.001Z</time></trkpt><trkpt lat="39.52657584128667" lon="8.472104789825845"><ele>38.0</ele><time>2026-03-30T14:50:31.001Z</time></trkpt><trkpt lat="39.52666601972749" lon="8.472081031244228"><ele>38.0</ele><time>2026-03-30T14:50:32.001Z</time></trkpt><trkpt lat="39.52675224388633" lon="8.47208469047216"><ele>37.5</ele><time>2026-03-30T14:50:33.001Z</time></trkpt><trkpt lat="39.52683277229972" lon="8.472072732955196"><ele>37.0</ele><time>2026-03-30T14:50:34.001Z</time></trkpt><trkpt lat="39.52689621276958" lon="8.472039225714768"><ele>36.5</ele><time>2026-03-30T14:50:35.001Z</time></trkpt><trkpt lat="39.52701613225964" lon="8.47202752085473"><ele>36.0</ele><time>2026-03-30T14:50:37.001Z</time></trkpt><trkpt lat="39.527075673192435" lon="8.471993187498567"><ele>35.5</ele><time>2026-03-30T14:50:38.001Z</time></trkpt><trkpt lat="39.5271489596587" lon="8.471953209525319"><ele>35.0</ele><time>2026-03-30T14:50:39.001Z</time></trkpt><trkpt lat="39.52722504602971" lon="8.471908497718784"><ele>35.0</ele><time>2026-03-30T14:50:40.001Z</time></trkpt><trkpt lat="39.5273049120763" lon="8.471865926330716"><ele>35.0</ele><time>2026-03-30T14:50:41.001Z</time></trkpt><trkpt lat="39.52737707140375" lon="8.47181376360177"><ele>35.0</ele><time>2026-03-30T14:50:42.001Z</time></trkpt><trkpt lat="39.52743787629887" lon="8.471736349069124"><ele>35.0</ele><time>2026-03-30T14:50:43.001Z</time></trkpt><trkpt lat="39.527490714357825" lon="8.471649509017745"><ele>35.0</ele><time>2026-03-30T14:50:44.001Z</time></trkpt><trkpt lat="39.527528884316986" lon="8.471549047779208"><ele>35.0</ele><time>2026-03-30T14:50:45.001Z</time></trkpt><trkpt lat="39.5275424523026" lon="8.471434069832155"><ele>35.0</ele><time>2026-03-30T14:50:46.001Z</time></trkpt><trkpt lat="39.52753695587746" lon="8.471313567026339"><ele>35.0</ele><time>2026-03-30T14:50:47.001Z</time></trkpt><trkpt lat="39.52751720192072" lon="8.47119427593702"><ele>35.0</ele><time>2026-03-30T14:50:48.001Z</time></trkpt><trkpt lat="39.52749073126553" lon="8.471074693521539"><ele>35.0</ele><time>2026-03-30T14:50:49.001Z</time></trkpt><trkpt lat="39.52749279425905" lon="8.47096022216643"><ele>35.0</ele><time>2026-03-30T14:50:50.001Z</time></trkpt><trkpt lat="39.52748332037441" lon="8.470850279509067"><ele>35.0</ele><time>2026-03-30T14:50:51.001Z</time></trkpt><trkpt lat="39.52746213032447" lon="8.470739528445938"><ele>35.0</ele><time>2026-03-30T14:50:52.001Z</time></trkpt><trkpt lat="39.527461845385034" lon="8.470629197047355"><ele>35.0</ele><time>2026-03-30T14:50:53.001Z</time></trkpt><trkpt lat="39.52748584306516" lon="8.470535839719082"><ele>35.0</ele><time>2026-03-30T14:50:54.001Z</time></trkpt><trkpt lat="39.52748883520535" lon="8.470447103242352"><ele>35.0</ele><time>2026-03-30T14:50:55.001Z</time></trkpt><trkpt lat="39.52753039413506" lon="8.470366179819129"><ele>35.0</ele><time>2026-03-30T14:50:56.001Z</time></trkpt><trkpt lat="39.5275846921771" lon="8.47029963191492"><ele>35.4</ele><time>2026-03-30T14:50:57.001Z</time></trkpt><trkpt lat="39.527709666731965" lon="8.47017374010236"><ele>35.8</ele><time>2026-03-30T14:50:59.001Z</time></trkpt><trkpt lat="39.52776030601139" lon="8.470094704191252"><ele>36.2</ele><time>2026-03-30T14:51:00.001Z</time></trkpt><trkpt lat="39.527809687054884" lon="8.470014765849458"><ele>36.6</ele><time>2026-03-30T14:51:01.001Z</time></trkpt><trkpt lat="39.52786449009209" lon="8.469935815867135"><ele>37.0</ele><time>2026-03-30T14:51:02.001Z</time></trkpt><trkpt lat="39.52792122497792" lon="8.469860465563212"><ele>36.5</ele><time>2026-03-30T14:51:03.001Z</time></trkpt><trkpt lat="39.527978551740894" lon="8.46979030659949"><ele>36.0</ele><time>2026-03-30T14:51:04.001Z</time></trkpt><trkpt lat="39.52804195049823" lon="8.469717900461449"><ele>35.5</ele><time>2026-03-30T14:51:05.001Z</time></trkpt><trkpt lat="39.52810939074298" lon="8.469667265456938"><ele>35.0</ele><time>2026-03-30T14:51:06.001Z</time></trkpt><trkpt lat="39.52817207976405" lon="8.469597671375311"><ele>34.5</ele><time>2026-03-30T14:51:07.001Z</time></trkpt><trkpt lat="39.52821454421464" lon="8.469511293934966"><ele>34.0</ele><time>2026-03-30T14:51:08.001Z</time></trkpt><trkpt lat="39.528267023479444" lon="8.469428205035573"><ele>34.0</ele><time>2026-03-30T14:51:09.001Z</time></trkpt><trkpt lat="39.52831973320784" lon="8.469338914171972"><ele>34.0</ele><time>2026-03-30T14:51:10.001Z</time></trkpt><trkpt lat="39.52837667461353" lon="8.469253344347155"><ele>34.0</ele><time>2026-03-30T14:51:11.001Z</time></trkpt><trkpt lat="39.528422037066726" lon="8.469151513718883"><ele>34.0</ele><time>2026-03-30T14:51:12.001Z</time></trkpt><trkpt lat="39.52846500252889" lon="8.469047057899333"><ele>34.0</ele><time>2026-03-30T14:51:13.001Z</time></trkpt><trkpt lat="39.52851421255578" lon="8.468945248435165"><ele>34.0</ele><time>2026-03-30T14:51:14.001Z</time></trkpt><trkpt lat="39.528566250013014" lon="8.46884483374813"><ele>33.66666666666667</ele><time>2026-03-30T14:51:15.001Z</time></trkpt><trkpt lat="39.52860374732172" lon="8.468743893820053"><ele>33.333333333333336</ele><time>2026-03-30T14:51:16.001Z</time></trkpt><trkpt lat="39.52863452753076" lon="8.46863104107641"><ele>33.0</ele><time>2026-03-30T14:51:17.001Z</time></trkpt><trkpt lat="39.528678168812554" lon="8.468523600666616"><ele>32.666666666666664</ele><time>2026-03-30T14:51:18.001Z</time></trkpt><trkpt lat="39.5287236044793" lon="8.468431589802059"><ele>32.33333333333333</ele><time>2026-03-30T14:51:19.001Z</time></trkpt><trkpt lat="39.52876698022119" lon="8.468340011022692"><ele>32.0</ele><time>2026-03-30T14:51:20.001Z</time></trkpt><trkpt lat="39.5287937075399" lon="8.468256747494905"><ele>31.999999999999996</ele><time>2026-03-30T14:51:21.001Z</time></trkpt><trkpt lat="39.528822879738414" lon="8.468175293314552"><ele>32.0</ele><time>2026-03-30T14:51:22.001Z</time></trkpt><trkpt lat="39.528857888322484" lon="8.468086586425821"><ele>32.0</ele><time>2026-03-30T14:51:23.001Z</time></trkpt><trkpt lat="39.5289194752697" lon="8.467987063819157"><ele>32.0</ele><time>2026-03-30T14:51:24.001Z</time></trkpt><trkpt lat="39.528994715141096" lon="8.467893645108465"><ele>31.999999999999996</ele><time>2026-03-30T14:51:25Z</time></trkpt><trkpt lat="39.52906399676703" lon="8.467810559401865"><ele>32.0</ele><time>2026-03-30T14:51:26Z</time></trkpt><trkpt lat="39.52912647218997" lon="8.467739181119171"><ele>31.833333333333332</ele><time>2026-03-30T14:51:27Z</time></trkpt><trkpt lat="39.529184516953094" lon="8.467670393658112"><ele>31.666666666666664</ele><time>2026-03-30T14:51:28Z</time></trkpt><trkpt lat="39.52923894782006" lon="8.467600394041783"><ele>31.5</ele><time>2026-03-30T14:51:29Z</time></trkpt><trkpt lat="39.529307686124554" lon="8.467545337106584"><ele>31.333333333333336</ele><time>2026-03-30T14:51:30Z</time></trkpt><trkpt lat="39.52938008336679" lon="8.467511642163403"><ele>31.166666666666668</ele><time>2026-03-30T14:51:31Z</time></trkpt><trkpt lat="39.52946428834352" lon="8.467482752204504"><ele>31.0</ele><time>2026-03-30T14:51:32Z</time></trkpt><trkpt lat="39.529550045581786" lon="8.46746434321899"><ele>31.000000000000004</ele><time>2026-03-30T14:51:33Z</time></trkpt><trkpt lat="39.529630703327506" lon="8.467461234357575"><ele>31.0</ele><time>2026-03-30T14:51:34Z</time></trkpt><trkpt lat="39.52970333087063" lon="8.467448259140353"><ele>31.0</ele><time>2026-03-30T14:51:35Z</time></trkpt><trkpt lat="39.52976438245152" lon="8.467399215009772"><ele>31.0</ele><time>2026-03-30T14:51:36Z</time></trkpt><trkpt lat="39.52982825872959" lon="8.467335103581913"><ele>31.000000000000004</ele><time>2026-03-30T14:51:37Z</time></trkpt><trkpt lat="39.52991528000561" lon="8.467206066976539"><ele>31.0</ele><time>2026-03-30T14:51:39Z</time></trkpt><trkpt lat="39.52998939397357" lon="8.467094724705904"><ele>31.166666666666668</ele><time>2026-03-30T14:51:40Z</time></trkpt><trkpt lat="39.53005510901253" lon="8.4670127212873"><ele>31.333333333333336</ele><time>2026-03-30T14:51:41Z</time></trkpt><trkpt lat="39.530100260912725" lon="8.466945072285968"><ele>31.5</ele><time>2026-03-30T14:51:42Z</time></trkpt><trkpt lat="39.530148409112535" lon="8.466865892021675"><ele>31.666666666666664</ele><time>2026-03-30T14:51:43Z</time></trkpt><trkpt lat="39.530203506382726" lon="8.466793442082142"><ele>31.833333333333332</ele><time>2026-03-30T14:51:44Z</time></trkpt><trkpt lat="39.530251071454494" lon="8.466705144728682"><ele>32.0</ele><time>2026-03-30T14:51:45Z</time></trkpt><trkpt lat="39.53028899397251" lon="8.466606121993777"><ele>31.999999999999996</ele><time>2026-03-30T14:51:46Z</time></trkpt><trkpt lat="39.53032825066624" lon="8.466516371933707"><ele>32.0</ele><time>2026-03-30T14:51:47Z</time></trkpt><trkpt lat="39.53035804905035" lon="8.46640804740357"><ele>32.0</ele><time>2026-03-30T14:51:48Z</time></trkpt><trkpt lat="39.5303888534308" lon="8.466292573120047"><ele>32.0</ele><time>2026-03-30T14:51:49Z</time></trkpt><trkpt lat="39.53042399887278" lon="8.466191542222976"><ele>31.999999999999996</ele><time>2026-03-30T14:51:50Z</time></trkpt><trkpt lat="39.53045716961067" lon="8.46608877058886"><ele>32.0</ele><time>2026-03-30T14:51:51Z</time></trkpt><trkpt lat="39.53048877101567" lon="8.465993855181729"><ele>31.333333333333332</ele><time>2026-03-30T14:51:52Z</time></trkpt><trkpt lat="39.530524435418734" lon="8.46590033307043"><ele>30.666666666666664</ele><time>2026-03-30T14:51:53Z</time></trkpt><trkpt lat="39.53057432806191" lon="8.46581998525262"><ele>30.0</ele><time>2026-03-30T14:51:54Z</time></trkpt><trkpt lat="39.53062841570809" lon="8.465736411049868"><ele>29.333333333333336</ele><time>2026-03-30T14:51:55Z</time></trkpt><trkpt lat="39.530694306738525" lon="8.465668807507868"><ele>28.666666666666668</ele><time>2026-03-30T14:51:56Z</time></trkpt><trkpt lat="39.53076278912815" lon="8.465603170214091"><ele>28.0</ele><time>2026-03-30T14:51:57Z</time></trkpt><trkpt lat="39.53083549854332" lon="8.465546208993214"><ele>28.0</ele><time>2026-03-30T14:51:58Z</time></trkpt><trkpt lat="39.530912756601055" lon="8.46549607618815"><ele>27.999999999999996</ele><time>2026-03-30T14:51:59Z</time></trkpt><trkpt lat="39.53100151935493" lon="8.465454998423004"><ele>27.999999999999996</ele><time>2026-03-30T14:52:00Z</time></trkpt><trkpt lat="39.53109445354845" lon="8.465429638916246"><ele>28.0</ele><time>2026-03-30T14:52:01Z</time></trkpt><trkpt lat="39.531185490832655" lon="8.46540240267434"><ele>28.0</ele><time>2026-03-30T14:52:02Z</time></trkpt><trkpt lat="39.53127502799733" lon="8.465366362979"><ele>28.799999999999997</ele><time>2026-03-30T14:52:03Z</time></trkpt><trkpt lat="39.53137261963117" lon="8.465342180948797"><ele>29.599999999999998</ele><time>2026-03-30T14:52:04Z</time></trkpt><trkpt lat="39.531465214095704" lon="8.465325490410867"><ele>30.400000000000002</ele><time>2026-03-30T14:52:05Z</time></trkpt><trkpt lat="39.53155568371669" lon="8.465298630131468"><ele>31.200000000000003</ele><time>2026-03-30T14:52:06Z</time></trkpt><trkpt lat="39.531649836605844" lon="8.465275060437527"><ele>32.0</ele><time>2026-03-30T14:52:07Z</time></trkpt><trkpt lat="39.531741073232425" lon="8.465254583950609"><ele>32.0</ele><time>2026-03-30T14:52:08Z</time></trkpt><trkpt lat="39.53183292221852" lon="8.465232581237926"><ele>32.0</ele><time>2026-03-30T14:52:09Z</time></trkpt><trkpt lat="39.53192075405775" lon="8.465209890661228"><ele>32.0</ele><time>2026-03-30T14:52:10Z</time></trkpt><trkpt lat="39.53201166241138" lon="8.465183347329372"><ele>32.0</ele><time>2026-03-30T14:52:11Z</time></trkpt><trkpt lat="39.532090678234454" lon="8.465146881216743"><ele>32.0</ele><time>2026-03-30T14:52:12Z</time></trkpt><trkpt lat="39.532173901302855" lon="8.465095202649014"><ele>30.6</ele><time>2026-03-30T14:52:13Z</time></trkpt><trkpt lat="39.53226591765658" lon="8.465054220466639"><ele>29.200000000000003</ele><time>2026-03-30T14:52:14Z</time></trkpt><trkpt lat="39.53236021027385" lon="8.46501450690794"><ele>27.8</ele><time>2026-03-30T14:52:15Z</time></trkpt><trkpt lat="39.53244700665178" lon="8.4649827948803"><ele>26.4</ele><time>2026-03-30T14:52:16Z</time></trkpt><trkpt lat="39.53253304451745" lon="8.464946952348425"><ele>25.0</ele><time>2026-03-30T14:52:17Z</time></trkpt><trkpt lat="39.5326150145974" lon="8.464915001447073"><ele>25.000000000000004</ele><time>2026-03-30T14:52:18Z</time></trkpt><trkpt lat="39.53270198180198" lon="8.46488272555481"><ele>25.0</ele><time>2026-03-30T14:52:19Z</time></trkpt><trkpt lat="39.53279173206656" lon="8.464854512694131"><ele>25.0</ele><time>2026-03-30T14:52:20Z</time></trkpt><trkpt lat="39.5328818151493" lon="8.464815637693423"><ele>25.0</ele><time>2026-03-30T14:52:21Z</time></trkpt><trkpt lat="39.532961219121844" lon="8.464764745898352"><ele>25.000000000000004</ele><time>2026-03-30T14:52:22Z</time></trkpt><trkpt lat="39.53303584326271" lon="8.46471837194317"><ele>25.0</ele><time>2026-03-30T14:52:23Z</time></trkpt><trkpt lat="39.53311392546846" lon="8.464675216256296"><ele>24.500000000000004</ele><time>2026-03-30T14:52:24Z</time></trkpt><trkpt lat="39.53319152244207" lon="8.464631468897679"><ele>24.0</ele><time>2026-03-30T14:52:25Z</time></trkpt><trkpt lat="39.53326450566614" lon="8.464587246883251"><ele>23.5</ele><time>2026-03-30T14:52:26Z</time></trkpt><trkpt lat="39.5333374913903" lon="8.464544667550554"><ele>23.0</ele><time>2026-03-30T14:52:27Z</time></trkpt><trkpt lat="39.533411904778895" lon="8.464501890647588"><ele>22.5</ele><time>2026-03-30T14:52:28Z</time></trkpt><trkpt lat="39.53348823755126" lon="8.464448012668932"><ele>22.0</ele><time>2026-03-30T14:52:29Z</time></trkpt><trkpt lat="39.53355417071236" lon="8.464377007390706"><ele>22.0</ele><time>2026-03-30T14:52:30Z</time></trkpt><trkpt lat="39.53362151940365" lon="8.464313277722958"><ele>22.0</ele><time>2026-03-30T14:52:31Z</time></trkpt><trkpt lat="39.53368963877897" lon="8.464245691015375"><ele>22.0</ele><time>2026-03-30T14:52:32Z</time></trkpt><trkpt lat="39.53375800209037" lon="8.464171009618909"><ele>22.0</ele><time>2026-03-30T14:52:33Z</time></trkpt><trkpt lat="39.533824531893785" lon="8.464107410657624"><ele>22.0</ele><time>2026-03-30T14:52:34Z</time></trkpt><trkpt lat="39.53388967581202" lon="8.464037645333095"><ele>22.0</ele><time>2026-03-30T14:52:35Z</time></trkpt><trkpt lat="39.5339599738312" lon="8.463972727632635"><ele>22.0</ele><time>2026-03-30T14:52:36Z</time></trkpt><trkpt lat="39.53403540919954" lon="8.463918133200336"><ele>22.0</ele><time>2026-03-30T14:52:37Z</time></trkpt><trkpt lat="39.53410601655972" lon="8.463872264772046"><ele>22.0</ele><time>2026-03-30T14:52:38Z</time></trkpt><trkpt lat="39.53417883243631" lon="8.463817262070533"><ele>22.0</ele><time>2026-03-30T14:52:39Z</time></trkpt><trkpt lat="39.53423845759694" lon="8.463768910600269"><ele>22.0</ele><time>2026-03-30T14:52:40Z</time></trkpt><trkpt lat="39.53433931960266" lon="8.463689663815543"><ele>22.0</ele><time>2026-03-30T14:52:42Z</time></trkpt><trkpt lat="39.534409034643105" lon="8.463658505023433"><ele>21.833333333333332</ele><time>2026-03-30T14:52:43Z</time></trkpt><trkpt lat="39.53448699280044" lon="8.4636225474483"><ele>21.666666666666664</ele><time>2026-03-30T14:52:44Z</time></trkpt><trkpt lat="39.534554192376056" lon="8.463576945115499"><ele>21.5</ele><time>2026-03-30T14:52:45Z</time></trkpt><trkpt lat="39.53461451674078" lon="8.463515578146888"><ele>21.333333333333332</ele><time>2026-03-30T14:52:46Z</time></trkpt><trkpt lat="39.534675274781776" lon="8.463444154186481"><ele>21.166666666666668</ele><time>2026-03-30T14:52:47Z</time></trkpt><trkpt lat="39.53473808527773" lon="8.463367608350598"><ele>21.0</ele><time>2026-03-30T14:52:48Z</time></trkpt><trkpt lat="39.5347963831401" lon="8.463285415158671"><ele>21.0</ele><time>2026-03-30T14:52:49Z</time></trkpt><trkpt lat="39.53484500816411" lon="8.463205393358278"><ele>21.0</ele><time>2026-03-30T14:52:50Z</time></trkpt><trkpt lat="39.53489907454464" lon="8.46313247853286"><ele>21.0</ele><time>2026-03-30T14:52:51Z</time></trkpt><trkpt lat="39.53494727392358" lon="8.463051507569482"><ele>21.0</ele><time>2026-03-30T14:52:52Z</time></trkpt><trkpt lat="39.53499159452665" lon="8.462975800047143"><ele>21.0</ele><time>2026-03-30T14:52:53Z</time></trkpt><trkpt lat="39.5350610304466" lon="8.462844443919272"><ele>21.0</ele><time>2026-03-30T14:52:55Z</time></trkpt><trkpt lat="39.535111146707266" lon="8.462753316395936"><ele>20.166666666666668</ele><time>2026-03-30T14:52:56Z</time></trkpt><trkpt lat="39.535164394362674" lon="8.462669509425144"><ele>19.333333333333332</ele><time>2026-03-30T14:52:57Z</time></trkpt><trkpt lat="39.53522583136479" lon="8.462583124924773"><ele>18.5</ele><time>2026-03-30T14:52:58Z</time></trkpt><trkpt lat="39.5352844566623" lon="8.462493691567088"><ele>17.666666666666664</ele><time>2026-03-30T14:52:59Z</time></trkpt><trkpt lat="39.535339105549795" lon="8.462401037668906"><ele>16.833333333333332</ele><time>2026-03-30T14:53:00Z</time></trkpt><trkpt lat="39.535390406616465" lon="8.462305801524343"><ele>16.0</ele><time>2026-03-30T14:53:01Z</time></trkpt><trkpt lat="39.53544760277308" lon="8.462211780067904"><ele>15.999999999999998</ele><time>2026-03-30T14:53:02Z</time></trkpt><trkpt lat="39.53549386406165" lon="8.462115720812182"><ele>16.0</ele><time>2026-03-30T14:53:03Z</time></trkpt><trkpt lat="39.53554171870094" lon="8.462021877362671"><ele>16.0</ele><time>2026-03-30T14:53:04Z</time></trkpt><trkpt lat="39.535590182797165" lon="8.461933754486006"><ele>16.0</ele><time>2026-03-30T14:53:05Z</time></trkpt><trkpt lat="39.53564228288577" lon="8.461840298634053"><ele>15.999999999999998</ele><time>2026-03-30T14:53:06Z</time></trkpt><trkpt lat="39.53569223616698" lon="8.461750828112741"><ele>16.0</ele><time>2026-03-30T14:53:07Z</time></trkpt><trkpt lat="39.53573665357076" lon="8.461663922834836"><ele>16.6</ele><time>2026-03-30T14:53:08Z</time></trkpt><trkpt lat="39.535780689733635" lon="8.461561270446598"><ele>17.200000000000003</ele><time>2026-03-30T14:53:09Z</time></trkpt><trkpt lat="39.53583043050886" lon="8.461456397248822"><ele>17.799999999999997</ele><time>2026-03-30T14:53:10Z</time></trkpt><trkpt lat="39.53587626721927" lon="8.461352075849767"><ele>18.4</ele><time>2026-03-30T14:53:11Z</time></trkpt><trkpt lat="39.53592202223547" lon="8.461257131041831"><ele>19.0</ele><time>2026-03-30T14:53:12Z</time></trkpt><trkpt lat="39.53597308159632" lon="8.46116548066169"><ele>19.333333333333332</ele><time>2026-03-30T14:53:13Z</time></trkpt><trkpt lat="39.53601496789702" lon="8.461070465464005"><ele>19.666666666666664</ele><time>2026-03-30T14:53:14Z</time></trkpt><trkpt lat="39.53605026075422" lon="8.460975999532918"><ele>20.0</ele><time>2026-03-30T14:53:15Z</time></trkpt><trkpt lat="39.536084279922775" lon="8.460877262724226"><ele>20.333333333333332</ele><time>2026-03-30T14:53:16Z</time></trkpt><trkpt lat="39.536113025313604" lon="8.460770595899726"><ele>20.666666666666668</ele><time>2026-03-30T14:53:17Z</time></trkpt><trkpt lat="39.53613661880151" lon="8.460664451069459"><ele>21.0</ele><time>2026-03-30T14:53:18Z</time></trkpt><trkpt lat="39.53616360966725" lon="8.460561672237638"><ele>21.0</ele><time>2026-03-30T14:53:19Z</time></trkpt><trkpt lat="39.53619114480609" lon="8.460463945656157"><ele>21.0</ele><time>2026-03-30T14:53:20Z</time></trkpt><trkpt lat="39.536207810336386" lon="8.460356242820383"><ele>21.0</ele><time>2026-03-30T14:53:21Z</time></trkpt><trkpt lat="39.53622960351955" lon="8.46025051877908"><ele>21.0</ele><time>2026-03-30T14:53:22Z</time></trkpt><trkpt lat="39.53624220674114" lon="8.460137905084895"><ele>21.0</ele><time>2026-03-30T14:53:23Z</time></trkpt><trkpt lat="39.536251895713754" lon="8.460024239865344"><ele>21.0</ele><time>2026-03-30T14:53:24Z</time></trkpt><trkpt lat="39.53625406631467" lon="8.459907905248869"><ele>20.333333333333332</ele><time>2026-03-30T14:53:25Z</time></trkpt><trkpt lat="39.536252239403176" lon="8.459798650204947"><ele>19.666666666666668</ele><time>2026-03-30T14:53:26Z</time></trkpt><trkpt lat="39.53625282972256" lon="8.459684488273624"><ele>19.0</ele><time>2026-03-30T14:53:27Z</time></trkpt><trkpt lat="39.53625989391675" lon="8.45957259527071"><ele>18.333333333333336</ele><time>2026-03-30T14:53:28Z</time></trkpt><trkpt lat="39.536276666397235" lon="8.459461353122462"><ele>17.666666666666668</ele><time>2026-03-30T14:53:29Z</time></trkpt><trkpt lat="39.536324304193606" lon="8.459369873194404"><ele>17.0</ele><time>2026-03-30T14:53:30Z</time></trkpt><trkpt lat="39.53639548040592" lon="8.459174813163505"><ele>17.0</ele><time>2026-03-30T14:53:32Z</time></trkpt><trkpt lat="39.53643544776264" lon="8.459073177450271"><ele>17.0</ele><time>2026-03-30T14:53:33Z</time></trkpt><trkpt lat="39.5364747255684" lon="8.458973761776043"><ele>17.0</ele><time>2026-03-30T14:53:34Z</time></trkpt><trkpt lat="39.53651187598021" lon="8.45887809403332"><ele>17.0</ele><time>2026-03-30T14:53:35Z</time></trkpt><trkpt lat="39.536548735276114" lon="8.458771614364519"><ele>17.0</ele><time>2026-03-30T14:53:36Z</time></trkpt><trkpt lat="39.53658916328463" lon="8.458675972140028"><ele>17.0</ele><time>2026-03-30T14:53:37Z</time></trkpt><trkpt lat="39.53662992642252" lon="8.45857912150679"><ele>17.833333333333336</ele><time>2026-03-30T14:53:38Z</time></trkpt><trkpt lat="39.53667052943997" lon="8.458484860063322"><ele>18.666666666666668</ele><time>2026-03-30T14:53:39Z</time></trkpt><trkpt lat="39.53672594418716" lon="8.458405630281977"><ele>19.5</ele><time>2026-03-30T14:53:40Z</time></trkpt><trkpt lat="39.53677859870929" lon="8.458337305025225"><ele>20.333333333333332</ele><time>2026-03-30T14:53:41Z</time></trkpt><trkpt lat="39.536837734561786" lon="8.458285690675579"><ele>21.166666666666664</ele><time>2026-03-30T14:53:42Z</time></trkpt><trkpt lat="39.53691457809341" lon="8.458260678553625"><ele>22.0</ele><time>2026-03-30T14:53:43Z</time></trkpt><trkpt lat="39.53700073702052" lon="8.458235544993089"><ele>20.6</ele><time>2026-03-30T14:53:44Z</time></trkpt><trkpt lat="39.53710002246121" lon="8.458202736742653"><ele>19.200000000000003</ele><time>2026-03-30T14:53:45Z</time></trkpt><trkpt lat="39.53719767283222" lon="8.458166763550219"><ele>17.8</ele><time>2026-03-30T14:53:46Z</time></trkpt><trkpt lat="39.5372950940283" lon="8.45814623434655"><ele>16.4</ele><time>2026-03-30T14:53:47Z</time></trkpt><trkpt lat="39.53737217442457" lon="8.45811744971517"><ele>15.0</ele><time>2026-03-30T14:53:48Z</time></trkpt><trkpt lat="39.53743989641979" lon="8.458090306761386"><ele>15.0</ele><time>2026-03-30T14:53:49Z</time></trkpt><trkpt lat="39.53750307811467" lon="8.458056958233579"><ele>15.0</ele><time>2026-03-30T14:53:50Z</time></trkpt><trkpt lat="39.53756630064488" lon="8.457922574959989"><ele>15.0</ele><time>2026-03-30T14:53:52Z</time></trkpt><trkpt lat="39.53759953076602" lon="8.457836803220543"><ele>15.0</ele><time>2026-03-30T14:53:53Z</time></trkpt><trkpt lat="39.53762311939374" lon="8.457732014548354"><ele>15.0</ele><time>2026-03-30T14:53:54Z</time></trkpt><trkpt lat="39.53765761437445" lon="8.457650474398358"><ele>15.0</ele><time>2026-03-30T14:53:55Z</time></trkpt><trkpt lat="39.537701000271674" lon="8.45757140641373"><ele>14.857142857142858</ele><time>2026-03-30T14:53:56Z</time></trkpt><trkpt lat="39.53774476734596" lon="8.457486483741478"><ele>14.714285714285714</ele><time>2026-03-30T14:53:57Z</time></trkpt><trkpt lat="39.53778953066645" lon="8.457415314774293"><ele>14.571428571428571</ele><time>2026-03-30T14:53:58Z</time></trkpt><trkpt lat="39.53783473045368" lon="8.457347552262629"><ele>14.428571428571429</ele><time>2026-03-30T14:53:59Z</time></trkpt><trkpt lat="39.53787795792988" lon="8.457279436392309"><ele>14.285714285714285</ele><time>2026-03-30T14:54:00Z</time></trkpt><trkpt lat="39.53792644878761" lon="8.457217401799916"><ele>14.142857142857142</ele><time>2026-03-30T14:54:01Z</time></trkpt><trkpt lat="39.537971024325444" lon="8.457148421407517"><ele>14.0</ele><time>2026-03-30T14:54:02Z</time></trkpt><trkpt lat="39.53802103390557" lon="8.457086809128269"><ele>13.428571428571429</ele><time>2026-03-30T14:54:03Z</time></trkpt><trkpt lat="39.53807074753798" lon="8.4570026531302"><ele>12.857142857142858</ele><time>2026-03-30T14:54:04Z</time></trkpt><trkpt lat="39.53810943871575" lon="8.456921654356359"><ele>12.285714285714285</ele><time>2026-03-30T14:54:05Z</time></trkpt><trkpt lat="39.5381472739875" lon="8.456852906823435"><ele>11.714285714285715</ele><time>2026-03-30T14:54:06Z</time></trkpt><trkpt lat="39.538186702762076" lon="8.456787767468692"><ele>11.142857142857142</ele><time>2026-03-30T14:54:07Z</time></trkpt><trkpt lat="39.538234340258484" lon="8.45671206815124"><ele>10.571428571428571</ele><time>2026-03-30T14:54:08Z</time></trkpt><trkpt lat="39.53826849287302" lon="8.456637963581999"><ele>10.0</ele><time>2026-03-30T14:54:09Z</time></trkpt><trkpt lat="39.53831117639321" lon="8.456552218227543"><ele>10.0</ele><time>2026-03-30T14:54:10Z</time></trkpt><trkpt lat="39.538349294167574" lon="8.456476648464538"><ele>10.0</ele><time>2026-03-30T14:54:11Z</time></trkpt><trkpt lat="39.53839942100814" lon="8.456407952385609"><ele>10.0</ele><time>2026-03-30T14:54:12Z</time></trkpt><trkpt lat="39.53845164575559" lon="8.45630669670253"><ele>10.0</ele><time>2026-03-30T14:54:13Z</time></trkpt><trkpt lat="39.53850387028621" lon="8.456236799392933"><ele>10.0</ele><time>2026-03-30T14:54:14Z</time></trkpt><trkpt lat="39.53855222352575" lon="8.456157672846647"><ele>10.0</ele><time>2026-03-30T14:54:15Z</time></trkpt><trkpt lat="39.538614468880795" lon="8.4560864898265"><ele>10.428571428571429</ele><time>2026-03-30T14:54:16Z</time></trkpt><trkpt lat="39.538664834411165" lon="8.456017052372317"><ele>10.857142857142858</ele><time>2026-03-30T14:54:17Z</time></trkpt><trkpt lat="39.538726722792184" lon="8.455962814080484"><ele>11.285714285714285</ele><time>2026-03-30T14:54:18Z</time></trkpt><trkpt lat="39.53878280569757" lon="8.455899838393254"><ele>11.714285714285715</ele><time>2026-03-30T14:54:19Z</time></trkpt><trkpt lat="39.538838622656016" lon="8.45582935759763"><ele>12.142857142857144</ele><time>2026-03-30T14:54:20Z</time></trkpt><trkpt lat="39.53888309331297" lon="8.455748636018205"><ele>12.571428571428571</ele><time>2026-03-30T14:54:21Z</time></trkpt><trkpt lat="39.53892223996728" lon="8.455669436747279"><ele>13.0</ele><time>2026-03-30T14:54:22Z</time></trkpt><trkpt lat="39.538958759408125" lon="8.455591129650045"><ele>13.0</ele><time>2026-03-30T14:54:23Z</time></trkpt><trkpt lat="39.538978483296006" lon="8.455459768016464"><ele>13.0</ele><time>2026-03-30T14:54:25Z</time></trkpt><trkpt lat="39.538945073707986" lon="8.455319886810429"><ele>13.0</ele><time>2026-03-30T14:54:27Z</time></trkpt><trkpt lat="39.5389317837343" lon="8.455173983437886"><ele>13.0</ele><time>2026-03-30T14:54:29Z</time></trkpt><trkpt lat="39.53896292647881" lon="8.455026196759924"><ele>13.0</ele><time>2026-03-30T14:54:31Z</time></trkpt><trkpt lat="39.539028042795614" lon="8.454931299959043"><ele>13.166666666666666</ele><time>2026-03-30T14:54:33Z</time></trkpt><trkpt lat="39.53906144928841" lon="8.454857007687142"><ele>13.333333333333332</ele><time>2026-03-30T14:54:35Z</time></trkpt><trkpt lat="39.5390892040155" lon="8.454754626681058"><ele>13.5</ele><time>2026-03-30T14:54:37Z</time></trkpt><trkpt lat="39.539139481284074" lon="8.45462642276985"><ele>13.666666666666668</ele><time>2026-03-30T14:54:39Z</time></trkpt><trkpt lat="39.539169348393735" lon="8.454547436551135"><ele>13.833333333333334</ele><time>2026-03-30T14:54:40Z</time></trkpt><trkpt lat="39.53920482268327" lon="8.454449352986849"><ele>14.0</ele><time>2026-03-30T14:54:41Z</time></trkpt><trkpt lat="39.53924388885208" lon="8.454361287612896"><ele>14.000000000000002</ele><time>2026-03-30T14:54:42Z</time></trkpt><trkpt lat="39.53928196502844" lon="8.45425686309251"><ele>14.0</ele><time>2026-03-30T14:54:43Z</time></trkpt><trkpt lat="39.53932053065408" lon="8.45415096201749"><ele>14.0</ele><time>2026-03-30T14:54:44Z</time></trkpt><trkpt lat="39.53935951894473" lon="8.45405075522727"><ele>14.0</ele><time>2026-03-30T14:54:45Z</time></trkpt><trkpt lat="39.53940450037407" lon="8.453972340268544"><ele>14.000000000000002</ele><time>2026-03-30T14:54:46Z</time></trkpt><trkpt lat="39.53944415715905" lon="8.453898822368242"><ele>14.0</ele><time>2026-03-30T14:54:47Z</time></trkpt><trkpt lat="39.53948313728938" lon="8.453817451867803"><ele>14.2</ele><time>2026-03-30T14:54:48Z</time></trkpt><trkpt lat="39.539515659966625" lon="8.453746468717595"><ele>14.399999999999999</ele><time>2026-03-30T14:54:49Z</time></trkpt><trkpt lat="39.53959037595441" lon="8.453628068868756"><ele>14.6</ele><time>2026-03-30T14:54:51Z</time></trkpt><trkpt lat="39.539646310423116" lon="8.453498929443413"><ele>14.8</ele><time>2026-03-30T14:54:53Z</time></trkpt><trkpt lat="39.539723139519054" lon="8.453418513978978"><ele>15.0</ele><time>2026-03-30T14:54:55Z</time></trkpt><trkpt lat="39.539780114934345" lon="8.453334898370358"><ele>13.833333333333334</ele><time>2026-03-30T14:54:57Z</time></trkpt><trkpt lat="39.53981350325817" lon="8.453265135355103"><ele>12.666666666666666</ele><time>2026-03-30T14:55:44Z</time></trkpt><trkpt lat="39.53988852281581" lon="8.453180652443342"><ele>11.5</ele><time>2026-03-30T14:55:46Z</time></trkpt><trkpt lat="39.539961337023286" lon="8.453109946760195"><ele>10.333333333333332</ele><time>2026-03-30T14:55:48Z</time></trkpt><trkpt lat="39.54001643562003" lon="8.453038631119751"><ele>9.166666666666666</ele><time>2026-03-30T14:55:51Z</time></trkpt><trkpt lat="39.54006181075842" lon="8.452955993060362"><ele>8.0</ele><time>2026-03-30T14:55:55Z</time></trkpt><trkpt lat="39.540113265949614" lon="8.452896952446142"><ele>8.0</ele><time>2026-03-30T15:03:24Z</time></trkpt><trkpt lat="39.54013462790954" lon="8.452814361734035"><ele>7.999999999999999</ele><time>2026-03-30T15:03:29Z</time></trkpt><trkpt lat="39.540156712689104" lon="8.452725044791277"><ele>8.0</ele><time>2026-03-30T15:03:35Z</time></trkpt><trkpt lat="39.540197589902405" lon="8.452650956227389"><ele>8.0</ele><time>2026-03-30T15:03:48Z</time></trkpt><trkpt lat="39.54022190558693" lon="8.452573992512797"><ele>7.999999999999999</ele><time>2026-03-30T15:04:01Z</time></trkpt><trkpt lat="39.540265967704286" lon="8.452515160643339"><ele>8.0</ele><time>2026-03-30T15:04:04Z</time></trkpt><trkpt lat="39.54029718774296" lon="8.452422132705593"><ele>8.0</ele><time>2026-03-30T15:04:08Z</time></trkpt><trkpt lat="39.54034559097414" lon="8.452351933423817"><ele>7.999999999999999</ele><time>2026-03-30T15:04:12Z</time></trkpt><trkpt lat="39.54036985839769" lon="8.45227029584201"><ele>8.0</ele><time>2026-03-30T15:04:15Z</time></trkpt><trkpt lat="39.54039921024722" lon="8.452180569209313"><ele>8.0</ele><time>2026-03-30T15:04:18Z</time></trkpt><trkpt lat="39.54043243172364" lon="8.4520967598182"><ele>8.0</ele><time>2026-03-30T15:04:21Z</time></trkpt><trkpt lat="39.54047342235303" lon="8.45199545026277"><ele>7.999999999999999</ele><time>2026-03-30T15:04:24Z</time></trkpt><trkpt lat="39.54052657351415" lon="8.45190746770984"><ele>8.0</ele><time>2026-03-30T15:04:27Z</time></trkpt><trkpt lat="39.54059810744603" lon="8.45183013865637"><ele>7.571428571428571</ele><time>2026-03-30T15:04:30Z</time></trkpt><trkpt lat="39.54065839789236" lon="8.451742240350223"><ele>7.142857142857142</ele><time>2026-03-30T15:04:33Z</time></trkpt><trkpt lat="39.54070053024767" lon="8.4516757287618"><ele>6.7142857142857135</ele><time>2026-03-30T15:04:35Z</time></trkpt><trkpt lat="39.5407429016924" lon="8.45160537522439"><ele>6.285714285714286</ele><time>2026-03-30T15:04:37Z</time></trkpt><trkpt lat="39.54078871811416" lon="8.451520923638945"><ele>5.857142857142858</ele><time>2026-03-30T15:04:39Z</time></trkpt><trkpt lat="39.54080972652146" lon="8.451433098588412"><ele>5.428571428571429</ele><time>2026-03-30T15:04:41Z</time></trkpt><trkpt lat="39.54081426495916" lon="8.451341250931174"><ele>5.0</ele><time>2026-03-30T15:04:43Z</time></trkpt><trkpt lat="39.54080916277723" lon="8.451256400431825"><ele>5.0</ele><time>2026-03-30T15:04:45Z</time></trkpt><trkpt lat="39.54097646155878" lon="8.451042423501262"><ele>5.0</ele><time>2026-03-30T15:04:47Z</time></trkpt><trkpt lat="39.54105667399405" lon="8.451009365928122"><ele>5.0</ele><time>2026-03-30T15:04:49Z</time></trkpt><trkpt lat="39.54113106801999" lon="8.450976677058913"><ele>5.0</ele><time>2026-03-30T15:04:51Z</time></trkpt><trkpt lat="39.541203365497935" lon="8.450943873611207"><ele>5.0</ele><time>2026-03-30T15:04:54Z</time></trkpt><trkpt lat="39.541266399667094" lon="8.450922344359753"><ele>3.0</ele><time>2026-03-30T15:04:57Z</time></trkpt></trkseg><trkseg><trkpt lat="39.54165874708092" lon="8.450535391247932"><ele>3.0</ele><time>2026-03-30T15:29:35.999Z</time></trkpt><trkpt lat="39.541589038630796" lon="8.450551502021666"><ele>3.0</ele><time>2026-03-30T15:29:39.999Z</time></trkpt><trkpt lat="39.541521898877235" lon="8.450563978684713"><ele>3.0</ele><time>2026-03-30T15:29:43.999Z</time></trkpt><trkpt lat="39.541456587780296" lon="8.450622419161112"><ele>3.0</ele><time>2026-03-30T15:29:47.999Z</time></trkpt><trkpt lat="39.541404578670985" lon="8.45073216277257"><ele>3.0</ele><time>2026-03-30T15:29:50.999Z</time></trkpt><trkpt lat="39.54135498047802" lon="8.450785470767496"><ele>3.0</ele><time>2026-03-30T15:29:53.999Z</time></trkpt><trkpt lat="39.54129758559846" lon="8.450838734919211"><ele>3.0</ele><time>2026-03-30T15:29:56.999Z</time></trkpt><trkpt lat="39.54123360152423" lon="8.450903885166543"><ele>3.0</ele><time>2026-03-30T15:30:00Z</time></trkpt><trkpt lat="39.54116950113013" lon="8.45095525118069"><ele>3.0</ele><time>2026-03-30T15:30:04Z</time></trkpt><trkpt lat="39.54111314248776" lon="8.451015714816368"><ele>3.0</ele><time>2026-03-30T15:30:07Z</time></trkpt><trkpt lat="39.54104914235036" lon="8.45107586963043"><ele>3.0</ele><time>2026-03-30T15:30:10Z</time></trkpt><trkpt lat="39.54098662159787" lon="8.451133737986023"><ele>3.0</ele><time>2026-03-30T15:30:13Z</time></trkpt><trkpt lat="39.540956521654365" lon="8.451207203592157"><ele>3.2857142857142856</ele><time>2026-03-30T15:30:15Z</time></trkpt><trkpt lat="39.540898588880616" lon="8.451312534911585"><ele>3.571428571428571</ele><time>2026-03-30T15:30:18Z</time></trkpt><trkpt lat="39.54085570064459" lon="8.451386435759634"><ele>3.8571428571428568</ele><time>2026-03-30T15:30:20Z</time></trkpt><trkpt lat="39.54081333516819" lon="8.451451069834743"><ele>4.142857142857142</ele><time>2026-03-30T15:30:22Z</time></trkpt><trkpt lat="39.54078553589534" lon="8.451527101164677"><ele>4.428571428571429</ele><time>2026-03-30T15:30:24Z</time></trkpt><trkpt lat="39.54074050744787" lon="8.451597385916536"><ele>4.714285714285714</ele><time>2026-03-30T15:30:26Z</time></trkpt><trkpt lat="39.54069389412506" lon="8.451660199427003"><ele>5.0</ele><time>2026-03-30T15:30:28Z</time></trkpt><trkpt lat="39.54064717152581" lon="8.451728346811697"><ele>5.0</ele><time>2026-03-30T15:30:30Z</time></trkpt><trkpt lat="39.5406064926971" lon="8.451803546980484"><ele>5.0</ele><time>2026-03-30T15:30:32Z</time></trkpt><trkpt lat="39.54057861176409" lon="8.451891086834616"><ele>5.0</ele><time>2026-03-30T15:30:34Z</time></trkpt><trkpt lat="39.540538087659684" lon="8.451990529470041"><ele>5.0</ele><time>2026-03-30T15:30:36Z</time></trkpt><trkpt lat="39.54048513322013" lon="8.45209895020012"><ele>5.0</ele><time>2026-03-30T15:30:38Z</time></trkpt><trkpt lat="39.540443270874626" lon="8.452174810091467"><ele>5.0</ele><time>2026-03-30T15:30:40Z</time></trkpt><trkpt lat="39.54039114634379" lon="8.452256511673482"><ele>5.5</ele><time>2026-03-30T15:30:43Z</time></trkpt><trkpt lat="39.54033344723362" lon="8.452331345507737"><ele>6.0</ele><time>2026-03-30T15:30:46Z</time></trkpt><trkpt lat="39.540301072994744" lon="8.45241396471589"><ele>6.5</ele><time>2026-03-30T15:30:48Z</time></trkpt><trkpt lat="39.54027713778332" lon="8.452494744544367"><ele>7.0</ele><time>2026-03-30T15:30:50Z</time></trkpt><trkpt lat="39.54023351298666" lon="8.452598981084089"><ele>7.499999999999999</ele><time>2026-03-30T15:30:53Z</time></trkpt><trkpt lat="39.54018417131586" lon="8.452664293527752"><ele>8.0</ele><time>2026-03-30T15:30:56Z</time></trkpt><trkpt lat="39.54019458387589" lon="8.452762998069176"><ele>7.999999999999999</ele><time>2026-03-30T15:32:15Z</time></trkpt><trkpt lat="39.54017501441242" lon="8.452840975359878"><ele>8.0</ele><time>2026-03-30T15:32:20Z</time></trkpt><trkpt lat="39.54012887402956" lon="8.45294667578465"><ele>8.0</ele><time>2026-03-30T15:32:24Z</time></trkpt><trkpt lat="39.54005892505125" lon="8.453018408675353"><ele>8.0</ele><time>2026-03-30T15:32:26Z</time></trkpt><trkpt lat="39.53997987470712" lon="8.453101110515757"><ele>7.999999999999999</ele><time>2026-03-30T15:32:28Z</time></trkpt><trkpt lat="39.53992880531454" lon="8.453162507448472"><ele>8.0</ele><time>2026-03-30T15:32:30Z</time></trkpt><trkpt lat="39.53985087656928" lon="8.453247620285842"><ele>7.999999999999999</ele><time>2026-03-30T15:32:33Z</time></trkpt><trkpt lat="39.53978815970072" lon="8.453261436584175"><ele>8.0</ele><time>2026-03-30T15:32:35Z</time></trkpt><trkpt lat="39.53972166786768" lon="8.45322171926687"><ele>8.0</ele><time>2026-03-30T15:32:38Z</time></trkpt><trkpt lat="39.53964183294316" lon="8.453256779792653"><ele>8.0</ele><time>2026-03-30T15:32:41Z</time></trkpt><trkpt lat="39.539592233648854" lon="8.453317579751007"><ele>7.999999999999999</ele><time>2026-03-30T15:32:44Z</time></trkpt><trkpt lat="39.53954612713551" lon="8.453378655051583"><ele>8.0</ele><time>2026-03-30T15:33:59Z</time></trkpt><trkpt lat="39.53944564726001" lon="8.45345433541676"><ele>9.2</ele><time>2026-03-30T15:36:42Z</time></trkpt><trkpt lat="39.53938392124955" lon="8.453501215790368"><ele>10.4</ele><time>2026-03-30T15:36:43Z</time></trkpt><trkpt lat="39.539322939141506" lon="8.453609900851273"><ele>11.599999999999998</ele><time>2026-03-30T15:36:45Z</time></trkpt><trkpt lat="39.53928926103307" lon="8.45368926342544"><ele>12.799999999999999</ele><time>2026-03-30T15:36:46Z</time></trkpt><trkpt lat="39.53925464155804" lon="8.453820282465534"><ele>14.0</ele><time>2026-03-30T15:36:47Z</time></trkpt><trkpt lat="39.53921239591817" lon="8.453955027797289"><ele>14.000000000000002</ele><time>2026-03-30T15:36:48Z</time></trkpt><trkpt lat="39.53918417465398" lon="8.454039717464747"><ele>14.0</ele><time>2026-03-30T15:36:49Z</time></trkpt><trkpt lat="39.5391704666204" lon="8.454134902163421"><ele>14.0</ele><time>2026-03-30T15:36:51Z</time></trkpt><trkpt lat="39.53914459391922" lon="8.45424338211769"><ele>14.0</ele><time>2026-03-30T15:36:53Z</time></trkpt><trkpt lat="39.539117736300554" lon="8.454373516710119"><ele>14.000000000000002</ele><time>2026-03-30T15:36:55Z</time></trkpt><trkpt lat="39.539086525070296" lon="8.454503188155911"><ele>14.0</ele><time>2026-03-30T15:36:57Z</time></trkpt><trkpt lat="39.53904658396376" lon="8.454615965605727"><ele>13.399999999999999</ele><time>2026-03-30T15:36:59Z</time></trkpt><trkpt lat="39.53900612412367" lon="8.454724600842109"><ele>12.799999999999999</ele><time>2026-03-30T15:37:01Z</time></trkpt><trkpt lat="39.53899823279995" lon="8.454864876825722"><ele>12.2</ele><time>2026-03-30T15:37:03Z</time></trkpt><trkpt lat="39.538968173876846" lon="8.454991870309065"><ele>11.600000000000001</ele><time>2026-03-30T15:37:05Z</time></trkpt><trkpt lat="39.53892097764255" lon="8.455085052219777"><ele>11.0</ele><time>2026-03-30T15:37:07Z</time></trkpt><trkpt lat="39.53892185876309" lon="8.455195049829975"><ele>11.0</ele><time>2026-03-30T15:37:09Z</time></trkpt><trkpt lat="39.53891510531717" lon="8.455312675430179"><ele>11.0</ele><time>2026-03-30T15:37:11Z</time></trkpt><trkpt lat="39.53891771948484" lon="8.455435193071036"><ele>11.0</ele><time>2026-03-30T15:37:13Z</time></trkpt><trkpt lat="39.53890881466919" lon="8.455539452853959"><ele>11.0</ele><time>2026-03-30T15:37:15Z</time></trkpt><trkpt lat="39.538871097926" lon="8.455653548972755"><ele>11.0</ele><time>2026-03-30T15:37:17Z</time></trkpt><trkpt lat="39.538802872850916" lon="8.45575480102507"><ele>11.333333333333332</ele><time>2026-03-30T15:37:19Z</time></trkpt><trkpt lat="39.53872011215335" lon="8.455871119343367"><ele>11.666666666666666</ele><time>2026-03-30T15:37:21Z</time></trkpt><trkpt lat="39.53866973877049" lon="8.45593562691294"><ele>12.0</ele><time>2026-03-30T15:37:22Z</time></trkpt><trkpt lat="39.53863462590819" lon="8.456007452109276"><ele>12.333333333333332</ele><time>2026-03-30T15:37:23Z</time></trkpt><trkpt lat="39.53858116593384" lon="8.456062329244405"><ele>12.666666666666666</ele><time>2026-03-30T15:37:24Z</time></trkpt><trkpt lat="39.53852914574498" lon="8.456122334793285"><ele>13.0</ele><time>2026-03-30T15:37:25Z</time></trkpt><trkpt lat="39.53848712162068" lon="8.456188830269847"><ele>13.428571428571427</ele><time>2026-03-30T15:37:26Z</time></trkpt><trkpt lat="39.53844982498068" lon="8.456262273916508"><ele>13.857142857142858</ele><time>2026-03-30T15:37:27Z</time></trkpt><trkpt lat="39.538397197796925" lon="8.45632823470742"><ele>14.285714285714285</ele><time>2026-03-30T15:37:28Z</time></trkpt><trkpt lat="39.538357272591774" lon="8.45639604661095"><ele>14.714285714285714</ele><time>2026-03-30T15:37:29Z</time></trkpt><trkpt lat="39.53831547058708" lon="8.456467205288435"><ele>15.142857142857142</ele><time>2026-03-30T15:37:30Z</time></trkpt><trkpt lat="39.538276090303356" lon="8.456535113944255"><ele>15.571428571428571</ele><time>2026-03-30T15:37:31Z</time></trkpt><trkpt lat="39.5382417252359" lon="8.456605601323915"><ele>16.0</ele><time>2026-03-30T15:37:32Z</time></trkpt><trkpt lat="39.53817662908393" lon="8.45671903345798"><ele>15.666666666666666</ele><time>2026-03-30T15:37:34Z</time></trkpt><trkpt lat="39.53809966861818" lon="8.456819803944867"><ele>15.333333333333332</ele><time>2026-03-30T15:37:36Z</time></trkpt><trkpt lat="39.538056820199174" lon="8.456885360145675"><ele>15.0</ele><time>2026-03-30T15:37:37Z</time></trkpt><trkpt lat="39.538012013702655" lon="8.456974681924102"><ele>14.666666666666668</ele><time>2026-03-30T15:37:38Z</time></trkpt><trkpt lat="39.537967530782495" lon="8.457066451496228"><ele>14.333333333333334</ele><time>2026-03-30T15:37:39Z</time></trkpt><trkpt lat="39.53792390467998" lon="8.457129865435391"><ele>14.0</ele><time>2026-03-30T15:37:40Z</time></trkpt><trkpt lat="39.537877377829425" lon="8.457205528798703"><ele>14.000000000000002</ele><time>2026-03-30T15:37:41Z</time></trkpt><trkpt lat="39.537835532169694" lon="8.45727288990693"><ele>14.0</ele><time>2026-03-30T15:37:42Z</time></trkpt><trkpt lat="39.537790625764856" lon="8.457340095239639"><ele>14.0</ele><time>2026-03-30T15:37:43Z</time></trkpt><trkpt lat="39.53775067902629" lon="8.457408711164295"><ele>14.0</ele><time>2026-03-30T15:37:44Z</time></trkpt><trkpt lat="39.537671040388204" lon="8.457538557563819"><ele>14.000000000000002</ele><time>2026-03-30T15:37:46Z</time></trkpt><trkpt lat="39.53762945466734" lon="8.457618217384233"><ele>14.0</ele><time>2026-03-30T15:37:47Z</time></trkpt><trkpt lat="39.537605024655385" lon="8.457712318170312"><ele>14.000000000000002</ele><time>2026-03-30T15:37:48Z</time></trkpt><trkpt lat="39.53756516989213" lon="8.4577814456603"><ele>14.0</ele><time>2026-03-30T15:37:49Z</time></trkpt><trkpt lat="39.537533286286724" lon="8.457851887180714"><ele>14.0</ele><time>2026-03-30T15:37:50Z</time></trkpt><trkpt lat="39.53747075257075" lon="8.457976026748748"><ele>14.0</ele><time>2026-03-30T15:37:52Z</time></trkpt><trkpt lat="39.53739508962813" lon="8.458058340296066"><ele>14.000000000000002</ele><time>2026-03-30T15:37:54Z</time></trkpt><trkpt lat="39.53729629246615" lon="8.458092741609455"><ele>14.0</ele><time>2026-03-30T15:37:56Z</time></trkpt><trkpt lat="39.53722293803967" lon="8.458118061706442"><ele>14.2</ele><time>2026-03-30T15:37:57Z</time></trkpt><trkpt lat="39.537161528041906" lon="8.458138182389343"><ele>14.399999999999999</ele><time>2026-03-30T15:37:58Z</time></trkpt><trkpt lat="39.537050282093475" lon="8.458192007622255"><ele>14.6</ele><time>2026-03-30T15:38:00Z</time></trkpt><trkpt lat="39.53693896777069" lon="8.458195830558319"><ele>14.8</ele><time>2026-03-30T15:38:02Z</time></trkpt><trkpt lat="39.53683689079836" lon="8.458259239812188"><ele>15.0</ele><time>2026-03-30T15:38:04Z</time></trkpt><trkpt lat="39.53674338920893" lon="8.458325854415333"><ele>15.4</ele><time>2026-03-30T15:38:06Z</time></trkpt><trkpt lat="39.53666554746191" lon="8.458474465129969"><ele>15.8</ele><time>2026-03-30T15:38:08Z</time></trkpt><trkpt lat="39.536612856229226" lon="8.458559915631069"><ele>16.2</ele><time>2026-03-30T15:38:09Z</time></trkpt><trkpt lat="39.53657403050405" lon="8.458653593046229"><ele>16.6</ele><time>2026-03-30T15:38:10Z</time></trkpt><trkpt lat="39.5365402055317" lon="8.458737249458427"><ele>17.0</ele><time>2026-03-30T15:38:11Z</time></trkpt><trkpt lat="39.53650677993735" lon="8.45881991810917"><ele>17.0</ele><time>2026-03-30T15:38:12Z</time></trkpt><trkpt lat="39.536487698194975" lon="8.458912833207739"><ele>17.0</ele><time>2026-03-30T15:38:13Z</time></trkpt><trkpt lat="39.53644672932616" lon="8.458999628951938"><ele>17.0</ele><time>2026-03-30T15:38:14Z</time></trkpt><trkpt lat="39.536403416707216" lon="8.459098535729044"><ele>17.0</ele><time>2026-03-30T15:38:15Z</time></trkpt><trkpt lat="39.53637031084959" lon="8.459199472584737"><ele>17.0</ele><time>2026-03-30T15:38:16Z</time></trkpt><trkpt lat="39.53632437087393" lon="8.459272615614672"><ele>17.0</ele><time>2026-03-30T15:38:17Z</time></trkpt><trkpt lat="39.53629505730773" lon="8.459349007807322"><ele>16.999999999999996</ele><time>2026-03-30T15:38:18Z</time></trkpt><trkpt lat="39.53626763023023" lon="8.459425744668408"><ele>17.0</ele><time>2026-03-30T15:38:19Z</time></trkpt><trkpt lat="39.536239706968146" lon="8.459503869398718"><ele>17.0</ele><time>2026-03-30T15:38:20Z</time></trkpt><trkpt lat="39.53623684976476" lon="8.459597950944369"><ele>17.0</ele><time>2026-03-30T15:38:21Z</time></trkpt><trkpt lat="39.53623513613777" lon="8.459692458173798"><ele>17.0</ele><time>2026-03-30T15:38:22Z</time></trkpt><trkpt lat="39.53623552348098" lon="8.459787541904713"><ele>16.999999999999996</ele><time>2026-03-30T15:38:23Z</time></trkpt><trkpt lat="39.53623790873245" lon="8.459885053428806"><ele>17.0</ele><time>2026-03-30T15:38:24Z</time></trkpt><trkpt lat="39.53622343445911" lon="8.459986650335804"><ele>17.8</ele><time>2026-03-30T15:38:25Z</time></trkpt><trkpt lat="39.53621566539392" lon="8.460088083891236"><ele>18.6</ele><time>2026-03-30T15:38:26Z</time></trkpt><trkpt lat="39.53619219237409" lon="8.460201579005936"><ele>19.400000000000002</ele><time>2026-03-30T15:38:27Z</time></trkpt><trkpt lat="39.5361570835754" lon="8.460379719365708"><ele>20.2</ele><time>2026-03-30T15:38:28Z</time></trkpt><trkpt lat="39.536141706849" lon="8.460544462403314"><ele>21.0</ele><time>2026-03-30T15:38:29Z</time></trkpt><trkpt lat="39.53611400053682" lon="8.46065249367451"><ele>21.0</ele><time>2026-03-30T15:38:30Z</time></trkpt><trkpt lat="39.53610448344081" lon="8.460735607529575"><ele>21.0</ele><time>2026-03-30T15:38:31Z</time></trkpt><trkpt lat="39.53605480936055" lon="8.460871910587395"><ele>21.0</ele><time>2026-03-30T15:38:33Z</time></trkpt><trkpt lat="39.53602584714096" lon="8.460951505013966"><ele>21.0</ele><time>2026-03-30T15:38:34Z</time></trkpt><trkpt lat="39.5360045558437" lon="8.461028960970564"><ele>21.0</ele><time>2026-03-30T15:38:35Z</time></trkpt><trkpt lat="39.53596548219176" lon="8.46109909131002"><ele>21.0</ele><time>2026-03-30T15:38:36Z</time></trkpt><trkpt lat="39.53592795959161" lon="8.461197869242723"><ele>20.666666666666668</ele><time>2026-03-30T15:38:37Z</time></trkpt><trkpt lat="39.535887156365206" lon="8.461299754280713"><ele>20.333333333333332</ele><time>2026-03-30T15:38:38Z</time></trkpt><trkpt lat="39.53584741391136" lon="8.4613958220009"><ele>20.0</ele><time>2026-03-30T15:38:39Z</time></trkpt><trkpt lat="39.535803390043625" lon="8.461492785947586"><ele>19.666666666666664</ele><time>2026-03-30T15:38:40Z</time></trkpt><trkpt lat="39.535743624517686" lon="8.461574286309165"><ele>19.333333333333332</ele><time>2026-03-30T15:38:41Z</time></trkpt><trkpt lat="39.53569837832994" lon="8.461660802475429"><ele>19.0</ele><time>2026-03-30T15:38:42Z</time></trkpt><trkpt lat="39.535667473913584" lon="8.461755763209686"><ele>19.0</ele><time>2026-03-30T15:38:43Z</time></trkpt><trkpt lat="39.535618457690624" lon="8.461821023267344"><ele>19.0</ele><time>2026-03-30T15:38:44Z</time></trkpt><trkpt lat="39.53555838866386" lon="8.461926214391717"><ele>19.0</ele><time>2026-03-30T15:38:46Z</time></trkpt><trkpt lat="39.53550855929654" lon="8.46198331399364"><ele>19.0</ele><time>2026-03-30T15:38:49Z</time></trkpt><trkpt lat="39.53548888139543" lon="8.462071079614764"><ele>19.0</ele><time>2026-03-30T15:39:15Z</time></trkpt><trkpt lat="39.535435511723456" lon="8.462180659869254"><ele>19.0</ele><time>2026-03-30T15:39:17Z</time></trkpt><trkpt lat="39.53536339242755" lon="8.462311182193307"><ele>20.6</ele><time>2026-03-30T15:39:19Z</time></trkpt><trkpt lat="39.535326229623095" lon="8.46238916993416"><ele>22.2</ele><time>2026-03-30T15:39:20Z</time></trkpt><trkpt lat="39.535265530995474" lon="8.4624711037147"><ele>23.800000000000004</ele><time>2026-03-30T15:39:21Z</time></trkpt><trkpt lat="39.53520122985423" lon="8.462569467162641"><ele>25.400000000000002</ele><time>2026-03-30T15:39:22Z</time></trkpt><trkpt lat="39.53512770538859" lon="8.462717638318317"><ele>27.0</ele><time>2026-03-30T15:39:23Z</time></trkpt><trkpt lat="39.53501361541853" lon="8.4628606768137"><ele>25.8</ele><time>2026-03-30T15:39:24Z</time></trkpt><trkpt lat="39.534931212182755" lon="8.462988521978852"><ele>24.6</ele><time>2026-03-30T15:39:25Z</time></trkpt><trkpt lat="39.53486355575436" lon="8.463100420637124"><ele>23.400000000000002</ele><time>2026-03-30T15:39:26Z</time></trkpt><trkpt lat="39.53480173228306" lon="8.4631798313055"><ele>22.200000000000003</ele><time>2026-03-30T15:39:27Z</time></trkpt><trkpt lat="39.53474664912132" lon="8.46325591274909"><ele>21.0</ele><time>2026-03-30T15:39:28Z</time></trkpt><trkpt lat="39.53468636562645" lon="8.463337317805369"><ele>21.0</ele><time>2026-03-30T15:39:29Z</time></trkpt><trkpt lat="39.53463079823046" lon="8.46340942305692"><ele>21.0</ele><time>2026-03-30T15:39:30Z</time></trkpt><trkpt lat="39.53457474563264" lon="8.463474353869312"><ele>21.0</ele><time>2026-03-30T15:39:31Z</time></trkpt><trkpt lat="39.534511996094984" lon="8.463538006382773"><ele>21.0</ele><time>2026-03-30T15:39:32Z</time></trkpt><trkpt lat="39.53444868675722" lon="8.463602436085692"><ele>21.0</ele><time>2026-03-30T15:39:33Z</time></trkpt><trkpt lat="39.53436734102886" lon="8.463633088435529"><ele>21.0</ele><time>2026-03-30T15:39:34Z</time></trkpt><trkpt lat="39.534289452910215" lon="8.463666459421956"><ele>21.25</ele><time>2026-03-30T15:39:35Z</time></trkpt><trkpt lat="39.534199363602895" lon="8.46373430631941"><ele>21.5</ele><time>2026-03-30T15:39:36Z</time></trkpt><trkpt lat="39.534081119750375" lon="8.463842827332387"><ele>21.75</ele><time>2026-03-30T15:39:37Z</time></trkpt><trkpt lat="39.533970764561666" lon="8.463915189761485"><ele>22.0</ele><time>2026-03-30T15:39:38Z</time></trkpt><trkpt lat="39.53389316250885" lon="8.463979092366552"><ele>22.0</ele><time>2026-03-30T15:39:39Z</time></trkpt><trkpt lat="39.53383982009705" lon="8.46402519055398"><ele>22.0</ele><time>2026-03-30T15:39:40Z</time></trkpt><trkpt lat="39.533742496936" lon="8.464113904949107"><ele>22.0</ele><time>2026-03-30T15:39:42Z</time></trkpt><trkpt lat="39.533687139945734" lon="8.464168466064578"><ele>22.0</ele><time>2026-03-30T15:39:43Z</time></trkpt><trkpt lat="39.53363254212022" lon="8.464230329545401"><ele>22.0</ele><time>2026-03-30T15:39:44Z</time></trkpt><trkpt lat="39.533563632884444" lon="8.46430973878713"><ele>22.0</ele><time>2026-03-30T15:39:45Z</time></trkpt><trkpt lat="39.5334910589037" lon="8.464374869853126"><ele>22.0</ele><time>2026-03-30T15:39:46Z</time></trkpt><trkpt lat="39.533418869462416" lon="8.464420160762153"><ele>22.0</ele><time>2026-03-30T15:39:47Z</time></trkpt><trkpt lat="39.533352430402" lon="8.464475966105072"><ele>22.0</ele><time>2026-03-30T15:39:48Z</time></trkpt><trkpt lat="39.533288664602956" lon="8.464521900472567"><ele>22.0</ele><time>2026-03-30T15:39:49Z</time></trkpt><trkpt lat="39.533230085346695" lon="8.464580859726828"><ele>22.0</ele><time>2026-03-30T15:39:50Z</time></trkpt><trkpt lat="39.533160541237486" lon="8.464605784965638"><ele>22.0</ele><time>2026-03-30T15:39:51Z</time></trkpt><trkpt lat="39.533083288283116" lon="8.464646241911806"><ele>22.0</ele><time>2026-03-30T15:39:52Z</time></trkpt><trkpt lat="39.53301975137608" lon="8.464695833144951"><ele>22.0</ele><time>2026-03-30T15:39:53Z</time></trkpt><trkpt lat="39.532912246811925" lon="8.46474700838501"><ele>22.0</ele><time>2026-03-30T15:39:55Z</time></trkpt><trkpt lat="39.53279826128112" lon="8.464815012824568"><ele>22.0</ele><time>2026-03-30T15:39:57Z</time></trkpt><trkpt lat="39.532735597159416" lon="8.46482910358664"><ele>22.0</ele><time>2026-03-30T15:39:58Z</time></trkpt><trkpt lat="39.5326309956021" lon="8.46487200361142"><ele>22.5</ele><time>2026-03-30T15:40:00Z</time></trkpt><trkpt lat="39.53254568529586" lon="8.46490525468588"><ele>23.0</ele><time>2026-03-30T15:40:02Z</time></trkpt><trkpt lat="39.53244858096862" lon="8.464946411204547"><ele>23.5</ele><time>2026-03-30T15:40:04Z</time></trkpt><trkpt lat="39.53238062822296" lon="8.464975457460639"><ele>24.0</ele><time>2026-03-30T15:40:05Z</time></trkpt><trkpt lat="39.532300436981195" lon="8.465007047146258"><ele>24.500000000000004</ele><time>2026-03-30T15:40:06Z</time></trkpt><trkpt lat="39.53223895111102" lon="8.465031268231861"><ele>25.0</ele><time>2026-03-30T15:40:07Z</time></trkpt><trkpt lat="39.532126456272096" lon="8.465075583261383"><ele>25.0</ele><time>2026-03-30T15:40:09Z</time></trkpt><trkpt lat="39.53206527357764" lon="8.465099251091047"><ele>25.0</ele><time>2026-03-30T15:40:10Z</time></trkpt><trkpt lat="39.53200309934704" lon="8.465122712217738"><ele>25.0</ele><time>2026-03-30T15:40:11Z</time></trkpt><trkpt lat="39.531906783133856" lon="8.465179940425452"><ele>25.0</ele><time>2026-03-30T15:40:13Z</time></trkpt><trkpt lat="39.531809702527454" lon="8.46520331643656"><ele>25.0</ele><time>2026-03-30T15:40:15Z</time></trkpt><trkpt lat="39.53169080212752" lon="8.465246804130876"><ele>26.166666666666668</ele><time>2026-03-30T15:40:17Z</time></trkpt><trkpt lat="39.531594766203604" lon="8.4652551525365"><ele>27.333333333333336</ele><time>2026-03-30T15:40:18Z</time></trkpt><trkpt lat="39.53151528722443" lon="8.465273018524613"><ele>28.5</ele><time>2026-03-30T15:40:19Z</time></trkpt><trkpt lat="39.53143845055814" lon="8.465291326654166"><ele>29.666666666666664</ele><time>2026-03-30T15:40:20Z</time></trkpt><trkpt lat="39.531361260802534" lon="8.46531246235048"><ele>30.833333333333332</ele><time>2026-03-30T15:40:21Z</time></trkpt><trkpt lat="39.531279746174626" lon="8.465331246607981"><ele>32.0</ele><time>2026-03-30T15:40:22Z</time></trkpt><trkpt lat="39.53119506764792" lon="8.465356378946701"><ele>31.333333333333332</ele><time>2026-03-30T15:40:23Z</time></trkpt><trkpt lat="39.53111176985303" lon="8.46537880601366"><ele>30.666666666666664</ele><time>2026-03-30T15:40:24Z</time></trkpt><trkpt lat="39.53102849548024" lon="8.465408400359996"><ele>30.0</ele><time>2026-03-30T15:40:25Z</time></trkpt><trkpt lat="39.53094313190374" lon="8.465427086167315"><ele>29.333333333333336</ele><time>2026-03-30T15:40:26Z</time></trkpt><trkpt lat="39.53086016468424" lon="8.465453902048415"><ele>28.666666666666668</ele><time>2026-03-30T15:40:27Z</time></trkpt><trkpt lat="39.53077826448056" lon="8.465500198760727"><ele>28.0</ele><time>2026-03-30T15:40:28Z</time></trkpt><trkpt lat="39.53068432488964" lon="8.465582362826131"><ele>28.0</ele><time>2026-03-30T15:40:29Z</time></trkpt><trkpt lat="39.530601512661576" lon="8.465680293535575"><ele>28.0</ele><time>2026-03-30T15:40:29.999Z</time></trkpt><trkpt lat="39.53054345735203" lon="8.465773607493839"><ele>28.0</ele><time>2026-03-30T15:40:30.999Z</time></trkpt><trkpt lat="39.530493334659525" lon="8.465909937575924"><ele>28.0</ele><time>2026-03-30T15:40:31.999Z</time></trkpt><trkpt lat="39.530426117084865" lon="8.46606608975654"><ele>28.799999999999997</ele><time>2026-03-30T15:40:32.999Z</time></trkpt><trkpt lat="39.530379509325996" lon="8.466198417178791"><ele>29.599999999999998</ele><time>2026-03-30T15:40:33.999Z</time></trkpt><trkpt lat="39.53035402825821" lon="8.466274757828812"><ele>30.400000000000002</ele><time>2026-03-30T15:40:34.999Z</time></trkpt><trkpt lat="39.530304138178465" lon="8.46641571237893"><ele>31.200000000000003</ele><time>2026-03-30T15:40:36.999Z</time></trkpt><trkpt lat="39.5302448251314" lon="8.466578116872148"><ele>32.0</ele><time>2026-03-30T15:40:38.999Z</time></trkpt><trkpt lat="39.53020985466181" lon="8.466673825510345"><ele>31.999999999999996</ele><time>2026-03-30T15:40:39.999Z</time></trkpt><trkpt lat="39.530188057597854" lon="8.466765050502763"><ele>32.0</ele><time>2026-03-30T15:40:40.999Z</time></trkpt><trkpt lat="39.53013203680096" lon="8.466835296742683"><ele>32.0</ele><time>2026-03-30T15:40:41.999Z</time></trkpt><trkpt lat="39.53008574588483" lon="8.466911755323594"><ele>32.0</ele><time>2026-03-30T15:40:42.999Z</time></trkpt><trkpt lat="39.530032663857064" lon="8.466992913813414"><ele>31.999999999999996</ele><time>2026-03-30T15:40:43.999Z</time></trkpt><trkpt lat="39.529981431422065" lon="8.467068033409674"><ele>32.0</ele><time>2026-03-30T15:40:44.999Z</time></trkpt><trkpt lat="39.52992622105632" lon="8.467147716326915"><ele>31.857142857142854</ele><time>2026-03-30T15:40:45.999Z</time></trkpt><trkpt lat="39.5298854214664" lon="8.467225252553682"><ele>31.71428571428571</ele><time>2026-03-30T15:40:46.999Z</time></trkpt><trkpt lat="39.52982406732443" lon="8.467262303666882"><ele>31.57142857142857</ele><time>2026-03-30T15:40:47.999Z</time></trkpt><trkpt lat="39.529765924285556" lon="8.467317590138478"><ele>31.42857142857143</ele><time>2026-03-30T15:40:48.999Z</time></trkpt><trkpt lat="39.52969497609773" lon="8.467374384307806"><ele>31.28571428571429</ele><time>2026-03-30T15:40:49.999Z</time></trkpt><trkpt lat="39.529640609389865" lon="8.467422248340585"><ele>31.142857142857146</ele><time>2026-03-30T15:40:50.999Z</time></trkpt><trkpt lat="39.529571842340175" lon="8.467430817743136"><ele>31.0</ele><time>2026-03-30T15:40:51.999Z</time></trkpt><trkpt lat="39.529497560585334" lon="8.467420044528998"><ele>31.0</ele><time>2026-03-30T15:40:52.999Z</time></trkpt><trkpt lat="39.52933840722941" lon="8.467463845421548"><ele>31.0</ele><time>2026-03-30T15:40:54.999Z</time></trkpt><trkpt lat="39.52925676165087" lon="8.467527210253895"><ele>31.0</ele><time>2026-03-30T15:40:55.999Z</time></trkpt><trkpt lat="39.52918069563439" lon="8.467589571706991"><ele>31.0</ele><time>2026-03-30T15:40:56.999Z</time></trkpt><trkpt lat="39.52911513181849" lon="8.467684262092263"><ele>31.0</ele><time>2026-03-30T15:40:57.999Z</time></trkpt><trkpt lat="39.529014236784946" lon="8.467808689523148"><ele>31.0</ele><time>2026-03-30T15:40:59Z</time></trkpt><trkpt lat="39.52892647612798" lon="8.4679226514727"><ele>31.0</ele><time>2026-03-30T15:41:00Z</time></trkpt><trkpt lat="39.52886838208583" lon="8.468004496586834"><ele>31.0</ele><time>2026-03-30T15:41:01Z</time></trkpt><trkpt lat="39.528831093099576" lon="8.468089806532547"><ele>31.0</ele><time>2026-03-30T15:41:02Z</time></trkpt><trkpt lat="39.52876687573059" lon="8.468161952550254"><ele>31.0</ele><time>2026-03-30T15:41:03Z</time></trkpt><trkpt lat="39.528718517903435" lon="8.468287044265749"><ele>31.500000000000004</ele><time>2026-03-30T15:41:04Z</time></trkpt><trkpt lat="39.52868481708402" lon="8.46841815332169"><ele>32.0</ele><time>2026-03-30T15:41:05Z</time></trkpt><trkpt lat="39.528659181382885" lon="8.468512143093093"><ele>32.5</ele><time>2026-03-30T15:41:06Z</time></trkpt><trkpt lat="39.528627914345634" lon="8.468587778678684"><ele>33.0</ele><time>2026-03-30T15:41:07Z</time></trkpt><trkpt lat="39.5285757382462" lon="8.468686984914527"><ele>33.5</ele><time>2026-03-30T15:41:08Z</time></trkpt><trkpt lat="39.52853196939273" lon="8.468790625871822"><ele>34.0</ele><time>2026-03-30T15:41:09Z</time></trkpt><trkpt lat="39.52849461577694" lon="8.468878230952965"><ele>33.99999999999999</ele><time>2026-03-30T15:41:10Z</time></trkpt><trkpt lat="39.52846159158119" lon="8.468954085692914"><ele>34.0</ele><time>2026-03-30T15:41:11Z</time></trkpt><trkpt lat="39.52842684273245" lon="8.4690303005731"><ele>34.0</ele><time>2026-03-30T15:41:12Z</time></trkpt><trkpt lat="39.52838177210592" lon="8.469109825944104"><ele>34.0</ele><time>2026-03-30T15:41:13Z</time></trkpt><trkpt lat="39.528333264383605" lon="8.469180050178265"><ele>34.0</ele><time>2026-03-30T15:41:14Z</time></trkpt><trkpt lat="39.52829776068326" lon="8.469272267156315"><ele>33.99999999999999</ele><time>2026-03-30T15:41:15Z</time></trkpt><trkpt lat="39.52826554851791" lon="8.469365763415121"><ele>34.0</ele><time>2026-03-30T15:41:16Z</time></trkpt><trkpt lat="39.528221209609775" lon="8.469446216670038"><ele>34.0</ele><time>2026-03-30T15:41:17Z</time></trkpt><trkpt lat="39.52816671161822" lon="8.46953002495319"><ele>34.0</ele><time>2026-03-30T15:41:18Z</time></trkpt><trkpt lat="39.52811168277874" lon="8.46960448161989"><ele>34.0</ele><time>2026-03-30T15:41:19Z</time></trkpt><trkpt lat="39.52804887917089" lon="8.46967073936028"><ele>34.0</ele><time>2026-03-30T15:41:20Z</time></trkpt><trkpt lat="39.52798085640441" lon="8.469730941107834"><ele>34.0</ele><time>2026-03-30T15:41:21Z</time></trkpt><trkpt lat="39.5279151793144" lon="8.46978693056263"><ele>34.0</ele><time>2026-03-30T15:41:22Z</time></trkpt><trkpt lat="39.52785984893496" lon="8.46985886797733"><ele>34.5</ele><time>2026-03-30T15:41:23Z</time></trkpt><trkpt lat="39.527807265655596" lon="8.46994476491164"><ele>35.0</ele><time>2026-03-30T15:41:24Z</time></trkpt><trkpt lat="39.52775792519948" lon="8.470026737060953"><ele>35.5</ele><time>2026-03-30T15:41:25Z</time></trkpt><trkpt lat="39.52769855835895" lon="8.470101597899601"><ele>36.0</ele><time>2026-03-30T15:41:26Z</time></trkpt><trkpt lat="39.527641288925444" lon="8.47017540322528"><ele>36.5</ele><time>2026-03-30T15:41:27Z</time></trkpt><trkpt lat="39.527594099488454" lon="8.470234190846378"><ele>37.0</ele><time>2026-03-30T15:41:28Z</time></trkpt><trkpt lat="39.5275038989204" lon="8.47035483302357"><ele>37.0</ele><time>2026-03-30T15:41:30Z</time></trkpt><trkpt lat="39.52747415977649" lon="8.470428913845966"><ele>37.0</ele><time>2026-03-30T15:41:31Z</time></trkpt><trkpt lat="39.5274526732355" lon="8.470509743208817"><ele>37.0</ele><time>2026-03-30T15:41:32Z</time></trkpt><trkpt lat="39.52745170529465" lon="8.470606137051906"><ele>37.0</ele><time>2026-03-30T15:41:33Z</time></trkpt><trkpt lat="39.52744342454685" lon="8.470701121701204"><ele>37.0</ele><time>2026-03-30T15:41:34Z</time></trkpt><trkpt lat="39.52743626871544" lon="8.470788542523824"><ele>37.0</ele><time>2026-03-30T15:41:35Z</time></trkpt><trkpt lat="39.527469713728784" lon="8.470910848921433"><ele>37.0</ele><time>2026-03-30T15:41:37Z</time></trkpt><trkpt lat="39.527483047260205" lon="8.471047926848202"><ele>36.66666666666667</ele><time>2026-03-30T15:41:39Z</time></trkpt><trkpt lat="39.52749500089779" lon="8.471210887327357"><ele>36.333333333333336</ele><time>2026-03-30T15:41:41Z</time></trkpt><trkpt lat="39.52750781433163" lon="8.471292190945949"><ele>36.0</ele><time>2026-03-30T15:41:42Z</time></trkpt><trkpt lat="39.52750538261742" lon="8.471446890528595"><ele>35.666666666666664</ele><time>2026-03-30T15:41:44Z</time></trkpt><trkpt lat="39.52750045405239" lon="8.471530556978625"><ele>35.33333333333333</ele><time>2026-03-30T15:41:45Z</time></trkpt><trkpt lat="39.52745734026005" lon="8.471599636597517"><ele>35.0</ele><time>2026-03-30T15:41:46Z</time></trkpt><trkpt lat="39.52742037965052" lon="8.471673049654433"><ele>35.0</ele><time>2026-03-30T15:41:47Z</time></trkpt><trkpt lat="39.52737520202288" lon="8.471736778827584"><ele>35.0</ele><time>2026-03-30T15:41:48Z</time></trkpt><trkpt lat="39.52731472425873" lon="8.471794078260967"><ele>35.0</ele><time>2026-03-30T15:41:49Z</time></trkpt><trkpt lat="39.527253617359285" lon="8.471839615539263"><ele>35.0</ele><time>2026-03-30T15:41:50Z</time></trkpt><trkpt lat="39.52718139452268" lon="8.471888991571182"><ele>35.0</ele><time>2026-03-30T15:41:51Z</time></trkpt><trkpt lat="39.52710571191532" lon="8.471930427272456"><ele>35.0</ele><time>2026-03-30T15:41:52Z</time></trkpt><trkpt lat="39.52703570967474" lon="8.471966562981324"><ele>36.714285714285715</ele><time>2026-03-30T15:41:53Z</time></trkpt><trkpt lat="39.526970966324505" lon="8.471996699571934"><ele>38.42857142857143</ele><time>2026-03-30T15:41:54Z</time></trkpt><trkpt lat="39.526900908995714" lon="8.472016759702932"><ele>40.14285714285714</ele><time>2026-03-30T15:41:55Z</time></trkpt><trkpt lat="39.52682480836447" lon="8.472030043592573"><ele>41.85714285714286</ele><time>2026-03-30T15:41:56Z</time></trkpt><trkpt lat="39.52674979821199" lon="8.472041726801313"><ele>43.57142857142857</ele><time>2026-03-30T15:41:57Z</time></trkpt><trkpt lat="39.52667582336376" lon="8.472061831519982"><ele>45.285714285714285</ele><time>2026-03-30T15:41:58Z</time></trkpt><trkpt lat="39.526597622702816" lon="8.472076953785484"><ele>47.0</ele><time>2026-03-30T15:41:59Z</time></trkpt><trkpt lat="39.52652693476644" lon="8.472089204729444"><ele>47.2</ele><time>2026-03-30T15:42:00Z</time></trkpt><trkpt lat="39.52645194707899" lon="8.472132358246439"><ele>47.400000000000006</ele><time>2026-03-30T15:42:01Z</time></trkpt><trkpt lat="39.52637698959161" lon="8.472166606832591"><ele>47.599999999999994</ele><time>2026-03-30T15:42:02Z</time></trkpt><trkpt lat="39.52627404990682" lon="8.47225058033043"><ele>47.8</ele><time>2026-03-30T15:42:03Z</time></trkpt><trkpt lat="39.52614285170502" lon="8.472379718110036"><ele>48.0</ele><time>2026-03-30T15:42:04Z</time></trkpt><trkpt lat="39.526017114563594" lon="8.472510101557756"><ele>48.0</ele><time>2026-03-30T15:42:05Z</time></trkpt><trkpt lat="39.52590073472327" lon="8.472634819895251"><ele>48.0</ele><time>2026-03-30T15:42:06Z</time></trkpt><trkpt lat="39.52582526054997" lon="8.472729474987416"><ele>48.0</ele><time>2026-03-30T15:42:07Z</time></trkpt><trkpt lat="39.52573695200355" lon="8.472768183728268"><ele>48.0</ele><time>2026-03-30T15:42:08Z</time></trkpt><trkpt lat="39.52565506188945" lon="8.472820127093108"><ele>48.0</ele><time>2026-03-30T15:42:09Z</time></trkpt><trkpt lat="39.52558241285077" lon="8.472892082542456"><ele>48.25</ele><time>2026-03-30T15:42:10Z</time></trkpt><trkpt lat="39.525485791485266" lon="8.47297527544777"><ele>48.5</ele><time>2026-03-30T15:42:11Z</time></trkpt><trkpt lat="39.525383749618264" lon="8.473111825807555"><ele>48.75</ele><time>2026-03-30T15:42:12Z</time></trkpt><trkpt lat="39.525282960332646" lon="8.473185663272222"><ele>49.0</ele><time>2026-03-30T15:42:13Z</time></trkpt><trkpt lat="39.52521484556111" lon="8.473227867486596"><ele>48.99999999999999</ele><time>2026-03-30T15:42:14Z</time></trkpt><trkpt lat="39.525140433380884" lon="8.47326512370937"><ele>49.0</ele><time>2026-03-30T15:42:15Z</time></trkpt><trkpt lat="39.52508195401451" lon="8.473352283917812"><ele>49.0</ele><time>2026-03-30T15:42:16Z</time></trkpt><trkpt lat="39.5250266718846" lon="8.473454074719358"><ele>49.0</ele><time>2026-03-30T15:42:17Z</time></trkpt><trkpt lat="39.524991167584254" lon="8.473551028182628"><ele>48.99999999999999</ele><time>2026-03-30T15:42:18Z</time></trkpt><trkpt lat="39.524980337936576" lon="8.473652831745152"><ele>49.0</ele><time>2026-03-30T15:42:19Z</time></trkpt><trkpt lat="39.524954851487166" lon="8.47374411861198"><ele>47.6</ele><time>2026-03-30T15:42:20Z</time></trkpt><trkpt lat="39.52493062375198" lon="8.473847112941025"><ele>46.2</ele><time>2026-03-30T15:42:21Z</time></trkpt><trkpt lat="39.52490236242449" lon="8.473991854089839"><ele>44.800000000000004</ele><time>2026-03-30T15:42:22Z</time></trkpt><trkpt lat="39.524878050662394" lon="8.474132710804023"><ele>43.400000000000006</ele><time>2026-03-30T15:42:23Z</time></trkpt><trkpt lat="39.5248582739134" lon="8.474252225791652"><ele>42.0</ele><time>2026-03-30T15:42:24Z</time></trkpt><trkpt lat="39.52484036791935" lon="8.474347956032355"><ele>42.0</ele><time>2026-03-30T15:42:25Z</time></trkpt><trkpt lat="39.524815485968254" lon="8.47444273910524"><ele>42.0</ele><time>2026-03-30T15:42:26Z</time></trkpt><trkpt lat="39.524784756628016" lon="8.47453113014448"><ele>42.0</ele><time>2026-03-30T15:42:27Z</time></trkpt><trkpt lat="39.524754025156405" lon="8.474614484389974"><ele>42.0</ele><time>2026-03-30T15:42:28Z</time></trkpt><trkpt lat="39.524719857004854" lon="8.474695854917973"><ele>42.0</ele><time>2026-03-30T15:42:29Z</time></trkpt><trkpt lat="39.52468313886823" lon="8.4747717886998"><ele>42.0</ele><time>2026-03-30T15:42:30Z</time></trkpt><trkpt lat="39.52463894133955" lon="8.474844472311712"><ele>42.0</ele><time>2026-03-30T15:42:31Z</time></trkpt><trkpt lat="39.524589973579715" lon="8.474903155980398"><ele>43.0</ele><time>2026-03-30T15:42:32Z</time></trkpt><trkpt lat="39.524524538878595" lon="8.474949753976269"><ele>44.0</ele><time>2026-03-30T15:42:33Z</time></trkpt><trkpt lat="39.52445650341484" lon="8.474983943341867"><ele>45.0</ele><time>2026-03-30T15:42:34Z</time></trkpt><trkpt lat="39.52438406434323" lon="8.475017995536344"><ele>46.0</ele><time>2026-03-30T15:42:35Z</time></trkpt><trkpt lat="39.524305828997775" lon="8.475053736032969"><ele>47.0</ele><time>2026-03-30T15:42:35.999Z</time></trkpt><trkpt lat="39.52422283173214" lon="8.475091326529974"><ele>48.0</ele><time>2026-03-30T15:42:36.999Z</time></trkpt><trkpt lat="39.52413801540563" lon="8.475128532139083"><ele>48.0</ele><time>2026-03-30T15:42:37.999Z</time></trkpt><trkpt lat="39.524053740424016" lon="8.47516383983811"><ele>48.0</ele><time>2026-03-30T15:42:38.999Z</time></trkpt><trkpt lat="39.52396929558196" lon="8.475191629925698"><ele>48.0</ele><time>2026-03-30T15:42:39.999Z</time></trkpt><trkpt lat="39.523879838426424" lon="8.475218663037676"><ele>48.0</ele><time>2026-03-30T15:42:40.999Z</time></trkpt><trkpt lat="39.52379318790714" lon="8.475244026220595"><ele>48.0</ele><time>2026-03-30T15:42:41.999Z</time></trkpt><trkpt lat="39.52370538681569" lon="8.475265631583534"><ele>48.0</ele><time>2026-03-30T15:42:42.999Z</time></trkpt><trkpt lat="39.52361671174739" lon="8.475304214711027"><ele>50.0</ele><time>2026-03-30T15:42:43.999Z</time></trkpt><trkpt lat="39.5235154356786" lon="8.475312648087469"><ele>52.0</ele><time>2026-03-30T15:42:44.999Z</time></trkpt><trkpt lat="39.52340894993676" lon="8.475312315696497"><ele>54.0</ele><time>2026-03-30T15:42:45.999Z</time></trkpt><trkpt lat="39.523298422869935" lon="8.475292662156026"><ele>56.0</ele><time>2026-03-30T15:42:46.999Z</time></trkpt><trkpt lat="39.52318262103582" lon="8.475280972573925"><ele>58.0</ele><time>2026-03-30T15:42:47.999Z</time></trkpt><trkpt lat="39.523070274244056" lon="8.475281887751938"><ele>58.0</ele><time>2026-03-30T15:42:48.999Z</time></trkpt><trkpt lat="39.52295191861828" lon="8.475287822390694"><ele>58.0</ele><time>2026-03-30T15:42:49.999Z</time></trkpt><trkpt lat="39.52283956846034" lon="8.475305847811983"><ele>58.0</ele><time>2026-03-30T15:42:50.999Z</time></trkpt><trkpt lat="39.52273087194604" lon="8.475327129106772"><ele>58.0</ele><time>2026-03-30T15:42:51.999Z</time></trkpt><trkpt lat="39.522626757331686" lon="8.475360182056486"><ele>58.0</ele><time>2026-03-30T15:42:52.999Z</time></trkpt><trkpt lat="39.522519198626156" lon="8.475412164012972"><ele>56.25</ele><time>2026-03-30T15:42:53.999Z</time></trkpt><trkpt lat="39.522416350323205" lon="8.475452867823037"><ele>54.5</ele><time>2026-03-30T15:42:54.999Z</time></trkpt><trkpt lat="39.52230344440652" lon="8.475517830070093"><ele>52.75</ele><time>2026-03-30T15:42:55.999Z</time></trkpt><trkpt lat="39.522188275577356" lon="8.475581947510731"><ele>51.0</ele><time>2026-03-30T15:42:57Z</time></trkpt><trkpt lat="39.52209814072548" lon="8.475630428874211"><ele>52.166666666666664</ele><time>2026-03-30T15:42:58Z</time></trkpt><trkpt lat="39.52202506478869" lon="8.47566876932194"><ele>53.33333333333333</ele><time>2026-03-30T15:42:59Z</time></trkpt><trkpt lat="39.521969350273274" lon="8.475725601972723"><ele>54.5</ele><time>2026-03-30T15:43:00Z</time></trkpt><trkpt lat="39.52192496737144" lon="8.475811483959575"><ele>55.666666666666664</ele><time>2026-03-30T15:43:01Z</time></trkpt><trkpt lat="39.521895253651174" lon="8.475914468654528"><ele>56.83333333333333</ele><time>2026-03-30T15:43:02Z</time></trkpt><trkpt lat="39.52185058432246" lon="8.476025833135749"><ele>58.0</ele><time>2026-03-30T15:43:03Z</time></trkpt><trkpt lat="39.52181799608709" lon="8.476135639154407"><ele>57.99999999999999</ele><time>2026-03-30T15:43:04Z</time></trkpt><trkpt lat="39.52178687219012" lon="8.476242549722572"><ele>58.0</ele><time>2026-03-30T15:43:05Z</time></trkpt><trkpt lat="39.521755456128865" lon="8.476343759480942"><ele>58.0</ele><time>2026-03-30T15:43:06Z</time></trkpt><trkpt lat="39.5217238498236" lon="8.47642646173274"><ele>58.0</ele><time>2026-03-30T15:43:07Z</time></trkpt><trkpt lat="39.52168154024931" lon="8.476509365159718"><ele>57.99999999999999</ele><time>2026-03-30T15:43:08Z</time></trkpt><trkpt lat="39.52162588778185" lon="8.476585942606246"><ele>58.0</ele><time>2026-03-30T15:43:09Z</time></trkpt><trkpt lat="39.521558885409256" lon="8.47665319893162"><ele>57.0</ele><time>2026-03-30T15:43:10Z</time></trkpt><trkpt lat="39.521495597551" lon="8.476730746903174"><ele>56.0</ele><time>2026-03-30T15:43:11Z</time></trkpt><trkpt lat="39.5214256574686" lon="8.476792886862176"><ele>55.0</ele><time>2026-03-30T15:43:12Z</time></trkpt><trkpt lat="39.52135662967042" lon="8.47686836595025"><ele>54.0</ele><time>2026-03-30T15:43:13Z</time></trkpt><trkpt lat="39.521284602650674" lon="8.476961154329222"><ele>53.0</ele><time>2026-03-30T15:43:14Z</time></trkpt><trkpt lat="39.521224701503115" lon="8.477065925670313"><ele>56.0</ele><time>2026-03-30T15:43:15Z</time></trkpt><trkpt lat="39.521149629117346" lon="8.477165945014681"><ele>59.0</ele><time>2026-03-30T15:43:16Z</time></trkpt><trkpt lat="39.521085843393024" lon="8.477282303259775"><ele>62.0</ele><time>2026-03-30T15:43:17Z</time></trkpt><trkpt lat="39.52104034898167" lon="8.477411249354427"><ele>65.0</ele><time>2026-03-30T15:43:18Z</time></trkpt><trkpt lat="39.52098144604132" lon="8.477532750438765"><ele>68.0</ele><time>2026-03-30T15:43:19Z</time></trkpt><trkpt lat="39.520915651411066" lon="8.477657459279078"><ele>68.0</ele><time>2026-03-30T15:43:20Z</time></trkpt><trkpt lat="39.52085663069718" lon="8.4777926822269"><ele>68.0</ele><time>2026-03-30T15:43:21Z</time></trkpt><trkpt lat="39.52081324113075" lon="8.477930472129383"><ele>68.0</ele><time>2026-03-30T15:43:22Z</time></trkpt><trkpt lat="39.52076199550005" lon="8.478059082697875"><ele>68.0</ele><time>2026-03-30T15:43:23Z</time></trkpt><trkpt lat="39.520699652866696" lon="8.478180443190407"><ele>67.2</ele><time>2026-03-30T15:43:24Z</time></trkpt><trkpt lat="39.52063403156764" lon="8.478287049892423"><ele>66.4</ele><time>2026-03-30T15:43:25Z</time></trkpt><trkpt lat="39.52057724633075" lon="8.478401288972904"><ele>65.60000000000001</ele><time>2026-03-30T15:43:26Z</time></trkpt><trkpt lat="39.52053266797942" lon="8.47851876417079"><ele>64.8</ele><time>2026-03-30T15:43:27Z</time></trkpt><trkpt lat="39.52050094386678" lon="8.47864496498834"><ele>64.0</ele><time>2026-03-30T15:43:28Z</time></trkpt><trkpt lat="39.52049018995886" lon="8.47877917406381"><ele>63.99999999999999</ele><time>2026-03-30T15:43:29Z</time></trkpt><trkpt lat="39.52049715526898" lon="8.47890454896091"><ele>64.0</ele><time>2026-03-30T15:43:30Z</time></trkpt><trkpt lat="39.520500973412155" lon="8.4790109440024"><ele>64.0</ele><time>2026-03-30T15:43:31Z</time></trkpt><trkpt lat="39.52050963779957" lon="8.479113636974974"><ele>64.0</ele><time>2026-03-30T15:43:32Z</time></trkpt><trkpt lat="39.52052677868831" lon="8.479228639590119"><ele>63.99999999999999</ele><time>2026-03-30T15:43:33Z</time></trkpt><trkpt lat="39.52055041917212" lon="8.479354958255447"><ele>64.0</ele><time>2026-03-30T15:43:34Z</time></trkpt><trkpt lat="39.52058517182289" lon="8.479466088781443"><ele>64.0</ele><time>2026-03-30T15:43:35Z</time></trkpt><trkpt lat="39.520638191404394" lon="8.479547914180637"><ele>64.0</ele><time>2026-03-30T15:43:36Z</time></trkpt><trkpt lat="39.52071610262081" lon="8.479703600165731"><ele>64.0</ele><time>2026-03-30T15:43:38Z</time></trkpt><trkpt lat="39.520762471767085" lon="8.479795479007015"><ele>64.0</ele><time>2026-03-30T15:43:39Z</time></trkpt><trkpt lat="39.520797706709004" lon="8.47989966557877"><ele>64.0</ele><time>2026-03-30T15:43:40Z</time></trkpt><trkpt lat="39.52082622619881" lon="8.479998899075342"><ele>64.83333333333333</ele><time>2026-03-30T15:43:41Z</time></trkpt><trkpt lat="39.5208433334076" lon="8.48008979943805"><ele>65.66666666666666</ele><time>2026-03-30T15:43:42Z</time></trkpt><trkpt lat="39.520856355288565" lon="8.48024510742336"><ele>66.5</ele><time>2026-03-30T15:43:44Z</time></trkpt><trkpt lat="39.52085173673753" lon="8.480326666208517"><ele>67.33333333333333</ele><time>2026-03-30T15:43:45Z</time></trkpt><trkpt lat="39.520839610361634" lon="8.480414761046772"><ele>68.16666666666667</ele><time>2026-03-30T15:43:46Z</time></trkpt><trkpt lat="39.52081165982504" lon="8.48050225585718"><ele>69.0</ele><time>2026-03-30T15:43:47Z</time></trkpt><trkpt lat="39.52075916589441" lon="8.480571657934487"><ele>69.0</ele><time>2026-03-30T15:43:48Z</time></trkpt><trkpt lat="39.52070810608992" lon="8.480645736090825"><ele>69.0</ele><time>2026-03-30T15:43:49Z</time></trkpt><trkpt lat="39.52064969853557" lon="8.480706572628243"><ele>69.0</ele><time>2026-03-30T15:43:50Z</time></trkpt><trkpt lat="39.520586612499336" lon="8.480771970550732"><ele>69.0</ele><time>2026-03-30T15:43:51Z</time></trkpt><trkpt lat="39.52052258716395" lon="8.480838542867055"><ele>69.0</ele><time>2026-03-30T15:43:52Z</time></trkpt><trkpt lat="39.520459338427756" lon="8.480901273660159"><ele>69.0</ele><time>2026-03-30T15:43:53Z</time></trkpt><trkpt lat="39.52039992862191" lon="8.480957612782218"><ele>70.83333333333333</ele><time>2026-03-30T15:43:54Z</time></trkpt><trkpt lat="39.52033838729058" lon="8.48100883038575"><ele>72.66666666666667</ele><time>2026-03-30T15:43:55Z</time></trkpt><trkpt lat="39.520277880905255" lon="8.48103997479452"><ele>74.5</ele><time>2026-03-30T15:43:56Z</time></trkpt><trkpt lat="39.52021208685535" lon="8.4810464091049"><ele>76.33333333333334</ele><time>2026-03-30T15:43:57Z</time></trkpt><trkpt lat="39.520149800686404" lon="8.481076554451128"><ele>78.16666666666667</ele><time>2026-03-30T15:43:58Z</time></trkpt><trkpt lat="39.52003500192401" lon="8.481143670790496"><ele>80.0</ele><time>2026-03-30T15:44:00Z</time></trkpt><trkpt lat="39.519994239066484" lon="8.48120856759927"><ele>78.57142857142857</ele><time>2026-03-30T15:44:01Z</time></trkpt><trkpt lat="39.51996191172639" lon="8.481279508981167"><ele>77.14285714285714</ele><time>2026-03-30T15:44:02Z</time></trkpt><trkpt lat="39.51993538224024" lon="8.48135501723961"><ele>75.71428571428572</ele><time>2026-03-30T15:44:03Z</time></trkpt><trkpt lat="39.519906271605315" lon="8.481442173853699"><ele>74.28571428571428</ele><time>2026-03-30T15:44:04Z</time></trkpt><trkpt lat="39.51989043003067" lon="8.481526309585098"><ele>72.85714285714286</ele><time>2026-03-30T15:44:05Z</time></trkpt><trkpt lat="39.51988181025032" lon="8.481617183242875"><ele>71.42857142857143</ele><time>2026-03-30T15:44:06Z</time></trkpt><trkpt lat="39.51987964377804" lon="8.481708871310804"><ele>70.0</ele><time>2026-03-30T15:44:07Z</time></trkpt><trkpt lat="39.519886486071215" lon="8.481799756313288"><ele>70.0</ele><time>2026-03-30T15:44:08Z</time></trkpt><trkpt lat="39.519903395840686" lon="8.48189551161817"><ele>70.0</ele><time>2026-03-30T15:44:09Z</time></trkpt><trkpt lat="39.51991734363803" lon="8.481996084194021"><ele>70.0</ele><time>2026-03-30T15:44:10Z</time></trkpt><trkpt lat="39.51995821581127" lon="8.482094630696702"><ele>70.0</ele><time>2026-03-30T15:44:11Z</time></trkpt><trkpt lat="39.520001023813535" lon="8.48217895459024"><ele>70.0</ele><time>2026-03-30T15:44:12Z</time></trkpt><trkpt lat="39.52003463154709" lon="8.482257638819402"><ele>70.0</ele><time>2026-03-30T15:44:13Z</time></trkpt><trkpt lat="39.52003910241221" lon="8.482412864723782"><ele>70.0</ele><time>2026-03-30T15:44:15Z</time></trkpt><trkpt lat="39.519983643672845" lon="8.48254478106993"><ele>70.0</ele><time>2026-03-30T15:44:17Z</time></trkpt><trkpt lat="39.51990769486849" lon="8.482548027641228"><ele>70.0</ele><time>2026-03-30T15:44:18Z</time></trkpt><trkpt lat="39.51983870215636" lon="8.482534262595243"><ele>70.0</ele><time>2026-03-30T15:44:19Z</time></trkpt><trkpt lat="39.51976663554578" lon="8.482513989395281"><ele>70.0</ele><time>2026-03-30T15:44:20Z</time></trkpt><trkpt lat="39.519661173542374" lon="8.482524178920508"><ele>70.0</ele><time>2026-03-30T15:44:21Z</time></trkpt><trkpt lat="39.5195719701684" lon="8.48256143663751"><ele>72.0</ele><time>2026-03-30T15:44:22Z</time></trkpt><trkpt lat="39.5194996592846" lon="8.482567922322259"><ele>74.0</ele><time>2026-03-30T15:44:23Z</time></trkpt><trkpt lat="39.51941837129698" lon="8.482611730743491"><ele>76.0</ele><time>2026-03-30T15:44:24Z</time></trkpt><trkpt lat="39.51934373434554" lon="8.482662962898493"><ele>78.0</ele><time>2026-03-30T15:44:25Z</time></trkpt><trkpt lat="39.51928462024729" lon="8.482702772143053"><ele>80.0</ele><time>2026-03-30T15:44:26Z</time></trkpt><trkpt lat="39.51917384600272" lon="8.482768589371668"><ele>82.0</ele><time>2026-03-30T15:44:28Z</time></trkpt><trkpt lat="39.51912065987262" lon="8.482821500271994"><ele>82.0</ele><time>2026-03-30T15:44:29Z</time></trkpt><trkpt lat="39.51907436209324" lon="8.482877746703336"><ele>82.0</ele><time>2026-03-30T15:44:30Z</time></trkpt><trkpt lat="39.51902813021088" lon="8.482948839901116"><ele>82.0</ele><time>2026-03-30T15:44:31Z</time></trkpt><trkpt lat="39.518986831089556" lon="8.483030893041166"><ele>82.0</ele><time>2026-03-30T15:44:32Z</time></trkpt><trkpt lat="39.51894758940782" lon="8.48312819864908"><ele>82.0</ele><time>2026-03-30T15:44:33Z</time></trkpt><trkpt lat="39.518919469507715" lon="8.483252192289669"><ele>82.0</ele><time>2026-03-30T15:44:34Z</time></trkpt><trkpt lat="39.51890594098088" lon="8.483394434776999"><ele>80.25</ele><time>2026-03-30T15:44:35Z</time></trkpt><trkpt lat="39.5188984461725" lon="8.483591633032178"><ele>78.5</ele><time>2026-03-30T15:44:36Z</time></trkpt><trkpt lat="39.51888664971514" lon="8.483747681897047"><ele>76.75</ele><time>2026-03-30T15:44:37Z</time></trkpt><trkpt lat="39.51886843961613" lon="8.483868905198635"><ele>75.0</ele><time>2026-03-30T15:44:38Z</time></trkpt><trkpt lat="39.51885186210434" lon="8.483981725263293"><ele>75.0</ele><time>2026-03-30T15:44:39Z</time></trkpt><trkpt lat="39.5188356770391" lon="8.484109063701332"><ele>75.0</ele><time>2026-03-30T15:44:40Z</time></trkpt><trkpt lat="39.51882715864877" lon="8.484228483144975"><ele>75.0</ele><time>2026-03-30T15:44:41Z</time></trkpt><trkpt lat="39.5188521219369" lon="8.484352494579822"><ele>75.0</ele><time>2026-03-30T15:44:42Z</time></trkpt><trkpt lat="39.51889334276642" lon="8.484465463812843"><ele>75.0</ele><time>2026-03-30T15:44:43Z</time></trkpt><trkpt lat="39.51892865820362" lon="8.484577000162302"><ele>75.66666666666667</ele><time>2026-03-30T15:44:44Z</time></trkpt><trkpt lat="39.518956219493795" lon="8.484679241445466"><ele>76.33333333333333</ele><time>2026-03-30T15:44:45Z</time></trkpt><trkpt lat="39.518972329027186" lon="8.484785280047268"><ele>77.0</ele><time>2026-03-30T15:44:46Z</time></trkpt><trkpt lat="39.51899012963762" lon="8.484902338440612"><ele>77.66666666666666</ele><time>2026-03-30T15:44:47Z</time></trkpt><trkpt lat="39.51900642275033" lon="8.485009483511375"><ele>78.33333333333333</ele><time>2026-03-30T15:44:48Z</time></trkpt><trkpt lat="39.51902299604426" lon="8.485118470624403"><ele>79.0</ele><time>2026-03-30T15:44:49Z</time></trkpt><trkpt lat="39.519038788210466" lon="8.485222321332724"><ele>79.0</ele><time>2026-03-30T15:44:50Z</time></trkpt><trkpt lat="39.519049828775486" lon="8.48532587767167"><ele>79.0</ele><time>2026-03-30T15:44:51Z</time></trkpt><trkpt lat="39.519046025131196" lon="8.48541731258918"><ele>79.0</ele><time>2026-03-30T15:44:52Z</time></trkpt><trkpt lat="39.519031827476425" lon="8.485512635313572"><ele>79.0</ele><time>2026-03-30T15:44:53Z</time></trkpt><trkpt lat="39.51900486301791" lon="8.485601620260313"><ele>79.0</ele><time>2026-03-30T15:44:54Z</time></trkpt><trkpt lat="39.51894118292705" lon="8.4857184405674"><ele>79.0</ele><time>2026-03-30T15:44:56Z</time></trkpt><trkpt lat="39.518855328395844" lon="8.485830921751234"><ele>79.66666666666666</ele><time>2026-03-30T15:44:58Z</time></trkpt><trkpt lat="39.518803829785796" lon="8.485888896394961"><ele>80.33333333333333</ele><time>2026-03-30T15:44:59Z</time></trkpt><trkpt lat="39.51874632335905" lon="8.485953566785506"><ele>81.0</ele><time>2026-03-30T15:45:00Z</time></trkpt><trkpt lat="39.51868977740824" lon="8.486019939396153"><ele>81.66666666666667</ele><time>2026-03-30T15:45:01Z</time></trkpt><trkpt lat="39.51863488570335" lon="8.48609241545919"><ele>82.33333333333334</ele><time>2026-03-30T15:45:02Z</time></trkpt><trkpt lat="39.51860745403521" lon="8.486187479144386"><ele>83.0</ele><time>2026-03-30T15:45:03Z</time></trkpt><trkpt lat="39.51857206723051" lon="8.486274598852257"><ele>84.83333333333334</ele><time>2026-03-30T15:45:04Z</time></trkpt><trkpt lat="39.51854918227135" lon="8.48635346938455"><ele>86.66666666666667</ele><time>2026-03-30T15:45:05Z</time></trkpt><trkpt lat="39.518519168524236" lon="8.48643097338261"><ele>88.5</ele><time>2026-03-30T15:45:06Z</time></trkpt><trkpt lat="39.518495498157236" lon="8.486512532581187"><ele>90.33333333333333</ele><time>2026-03-30T15:45:07Z</time></trkpt><trkpt lat="39.51846653789242" lon="8.486595414874301"><ele>92.16666666666666</ele><time>2026-03-30T15:45:08Z</time></trkpt><trkpt lat="39.5184265804678" lon="8.486761733121645"><ele>94.0</ele><time>2026-03-30T15:45:10Z</time></trkpt><trkpt lat="39.518417319638424" lon="8.486854887251184"><ele>94.0</ele><time>2026-03-30T15:45:11Z</time></trkpt><trkpt lat="39.51842858296704" lon="8.486949641030558"><ele>94.0</ele><time>2026-03-30T15:45:12Z</time></trkpt><trkpt lat="39.51840728183841" lon="8.487055789129476"><ele>94.0</ele><time>2026-03-30T15:45:13Z</time></trkpt><trkpt lat="39.518421860979934" lon="8.487164868399324"><ele>94.0</ele><time>2026-03-30T15:45:14Z</time></trkpt><trkpt lat="39.51842403868161" lon="8.487277305701632"><ele>94.0</ele><time>2026-03-30T15:45:15Z</time></trkpt><trkpt lat="39.51842872048154" lon="8.487385250169385"><ele>94.0</ele><time>2026-03-30T15:45:16Z</time></trkpt><trkpt lat="39.5184348146386" lon="8.4874889193906"><ele>94.14285714285714</ele><time>2026-03-30T15:45:17Z</time></trkpt><trkpt lat="39.51845715363269" lon="8.487583573713808"><ele>94.28571428571428</ele><time>2026-03-30T15:45:18Z</time></trkpt><trkpt lat="39.51847406681446" lon="8.487675966682414"><ele>94.42857142857143</ele><time>2026-03-30T15:45:19Z</time></trkpt><trkpt lat="39.51849274460515" lon="8.487763943311839"><ele>94.57142857142857</ele><time>2026-03-30T15:45:20Z</time></trkpt><trkpt lat="39.51848451499931" lon="8.487855025913792"><ele>94.71428571428572</ele><time>2026-03-30T15:45:21Z</time></trkpt><trkpt lat="39.518480880908136" lon="8.487938085530601"><ele>94.85714285714286</ele><time>2026-03-30T15:45:22Z</time></trkpt><trkpt lat="39.51847080442575" lon="8.488019465421603"><ele>95.0</ele><time>2026-03-30T15:45:23Z</time></trkpt><trkpt lat="39.51844631131943" lon="8.488103832852213"><ele>93.5</ele><time>2026-03-30T15:45:24Z</time></trkpt><trkpt lat="39.51838758152972" lon="8.488159642352064"><ele>92.0</ele><time>2026-03-30T15:45:25Z</time></trkpt><trkpt lat="39.518306409555976" lon="8.488163444788663"><ele>90.5</ele><time>2026-03-30T15:45:26Z</time></trkpt><trkpt lat="39.51824625495987" lon="8.488131520726911"><ele>89.0</ele><time>2026-03-30T15:45:27Z</time></trkpt><trkpt lat="39.518174599977534" lon="8.488121969244666"><ele>87.5</ele><time>2026-03-30T15:45:28Z</time></trkpt><trkpt lat="39.51809202258154" lon="8.488133231297354"><ele>86.0</ele><time>2026-03-30T15:45:29Z</time></trkpt><trkpt lat="39.51801340915613" lon="8.488121992899561"><ele>86.0</ele><time>2026-03-30T15:45:30Z</time></trkpt><trkpt lat="39.517930854039825" lon="8.488135923543206"><ele>86.0</ele><time>2026-03-30T15:45:31Z</time></trkpt><trkpt lat="39.517854603389964" lon="8.488186839648668"><ele>86.0</ele><time>2026-03-30T15:45:32Z</time></trkpt><trkpt lat="39.51778477030424" lon="8.488263203726111"><ele>86.0</ele><time>2026-03-30T15:45:33Z</time></trkpt><trkpt lat="39.51771921731438" lon="8.488352584217305"><ele>86.0</ele><time>2026-03-30T15:45:34Z</time></trkpt><trkpt lat="39.51765497725134" lon="8.488450864737542"><ele>87.8</ele><time>2026-03-30T15:45:35Z</time></trkpt><trkpt lat="39.51759125108392" lon="8.488544632214628"><ele>89.6</ele><time>2026-03-30T15:45:36Z</time></trkpt><trkpt lat="39.517530360551305" lon="8.488625155377267"><ele>91.4</ele><time>2026-03-30T15:45:37Z</time></trkpt><trkpt lat="39.51745379811027" lon="8.488714863527527"><ele>93.2</ele><time>2026-03-30T15:45:38Z</time></trkpt><trkpt lat="39.517390282610215" lon="8.488822348958752"><ele>95.0</ele><time>2026-03-30T15:45:39Z</time></trkpt><trkpt lat="39.51732488009842" lon="8.488937689848134"><ele>95.0</ele><time>2026-03-30T15:45:40Z</time></trkpt><trkpt lat="39.517265822430545" lon="8.489056096698565"><ele>95.0</ele><time>2026-03-30T15:45:41Z</time></trkpt><trkpt lat="39.51722367784969" lon="8.48919056212779"><ele>95.0</ele><time>2026-03-30T15:45:42Z</time></trkpt><trkpt lat="39.51718399045624" lon="8.489333817145397"><ele>95.0</ele><time>2026-03-30T15:45:43Z</time></trkpt><trkpt lat="39.5171491177997" lon="8.489449726201022"><ele>95.0</ele><time>2026-03-30T15:45:44Z</time></trkpt><trkpt lat="39.517113275224496" lon="8.489541624339344"><ele>94.66666666666667</ele><time>2026-03-30T15:45:45Z</time></trkpt><trkpt lat="39.51707050171103" lon="8.489613233793074"><ele>94.33333333333334</ele><time>2026-03-30T15:45:46Z</time></trkpt><trkpt lat="39.517012335810875" lon="8.489678312612604"><ele>94.0</ele><time>2026-03-30T15:45:47Z</time></trkpt><trkpt lat="39.51693237630325" lon="8.489735988430846"><ele>93.66666666666667</ele><time>2026-03-30T15:45:48Z</time></trkpt><trkpt lat="39.51682959917355" lon="8.489744360179461"><ele>93.33333333333333</ele><time>2026-03-30T15:45:49Z</time></trkpt><trkpt lat="39.516736355628" lon="8.489766281020835"><ele>93.0</ele><time>2026-03-30T15:45:50Z</time></trkpt><trkpt lat="39.51664679203689" lon="8.489786939652317"><ele>94.60000000000001</ele><time>2026-03-30T15:45:51Z</time></trkpt><trkpt lat="39.51655883778464" lon="8.489806097358004"><ele>96.2</ele><time>2026-03-30T15:45:52Z</time></trkpt><trkpt lat="39.516469915787454" lon="8.489840583672608"><ele>97.8</ele><time>2026-03-30T15:45:53Z</time></trkpt><trkpt lat="39.51637159299551" lon="8.489903864033332"><ele>99.4</ele><time>2026-03-30T15:45:54Z</time></trkpt><trkpt lat="39.51627777223417" lon="8.48997683264211"><ele>101.0</ele><time>2026-03-30T15:45:55Z</time></trkpt><trkpt lat="39.51619415456619" lon="8.490065029947054"><ele>101.66666666666666</ele><time>2026-03-30T15:45:56Z</time></trkpt><trkpt lat="39.516111178864" lon="8.490117900107842"><ele>102.33333333333333</ele><time>2026-03-30T15:45:57Z</time></trkpt><trkpt lat="39.516031148611894" lon="8.490155301878373"><ele>103.0</ele><time>2026-03-30T15:45:58Z</time></trkpt><trkpt lat="39.5159649674171" lon="8.490209360342146"><ele>103.66666666666666</ele><time>2026-03-30T15:45:59Z</time></trkpt><trkpt lat="39.51591010712036" lon="8.49026767338385"><ele>104.33333333333333</ele><time>2026-03-30T15:46:00Z</time></trkpt><trkpt lat="39.51586994077746" lon="8.490360336693804"><ele>105.0</ele><time>2026-03-30T15:46:01Z</time></trkpt><trkpt lat="39.51584959978923" lon="8.490454233084737"><ele>105.0</ele><time>2026-03-30T15:46:02Z</time></trkpt><trkpt lat="39.51585658722239" lon="8.490566865585826"><ele>105.0</ele><time>2026-03-30T15:46:03Z</time></trkpt><trkpt lat="39.515866276957745" lon="8.490671959636371"><ele>105.0</ele><time>2026-03-30T15:46:04Z</time></trkpt><trkpt lat="39.5158767374009" lon="8.49077477914884"><ele>105.0</ele><time>2026-03-30T15:46:05Z</time></trkpt><trkpt lat="39.51587313043723" lon="8.490879663308338"><ele>105.0</ele><time>2026-03-30T15:46:06Z</time></trkpt><trkpt lat="39.51585452897589" lon="8.490983216021833"><ele>105.0</ele><time>2026-03-30T15:46:07Z</time></trkpt><trkpt lat="39.51582097711572" lon="8.491090933956833"><ele>105.0</ele><time>2026-03-30T15:46:08Z</time></trkpt><trkpt lat="39.51577793757215" lon="8.491178163004454"><ele>105.0</ele><time>2026-03-30T15:46:09Z</time></trkpt><trkpt lat="39.51572257566171" lon="8.491249440836437"><ele>105.0</ele><time>2026-03-30T15:46:10Z</time></trkpt><trkpt lat="39.51566024201392" lon="8.491321337629238"><ele>105.0</ele><time>2026-03-30T15:46:11Z</time></trkpt><trkpt lat="39.51558946579678" lon="8.491384428814431"><ele>105.0</ele><time>2026-03-30T15:46:12Z</time></trkpt><trkpt lat="39.51551788698002" lon="8.491440157365535"><ele>105.0</ele><time>2026-03-30T15:46:13Z</time></trkpt><trkpt lat="39.515448256031334" lon="8.491494544860036"><ele>107.0</ele><time>2026-03-30T15:46:14Z</time></trkpt><trkpt lat="39.51537539564272" lon="8.49155145479785"><ele>109.0</ele><time>2026-03-30T15:46:15Z</time></trkpt><trkpt lat="39.51530565326892" lon="8.491606637690989"><ele>111.0</ele><time>2026-03-30T15:46:16Z</time></trkpt><trkpt lat="39.515234219212786" lon="8.491663979291273"><ele>113.0</ele><time>2026-03-30T15:46:17Z</time></trkpt><trkpt lat="39.51516558768212" lon="8.491721283072378"><ele>115.0</ele><time>2026-03-30T15:46:18Z</time></trkpt><trkpt lat="39.51509777698412" lon="8.491786729067142"><ele>117.0</ele><time>2026-03-30T15:46:19Z</time></trkpt><trkpt lat="39.51504524473375" lon="8.491874120687227"><ele>117.0</ele><time>2026-03-30T15:46:20Z</time></trkpt><trkpt lat="39.51498176542875" lon="8.49195950790923"><ele>117.0</ele><time>2026-03-30T15:46:21Z</time></trkpt><trkpt lat="39.514927632620804" lon="8.492052328207492"><ele>117.0</ele><time>2026-03-30T15:46:22Z</time></trkpt><trkpt lat="39.51488442842352" lon="8.492149469349446"><ele>117.0</ele><time>2026-03-30T15:46:23Z</time></trkpt><trkpt lat="39.5148513824287" lon="8.49225015782296"><ele>117.0</ele><time>2026-03-30T15:46:24Z</time></trkpt><trkpt lat="39.51482618021578" lon="8.4923541439237"><ele>117.0</ele><time>2026-03-30T15:46:25Z</time></trkpt><trkpt lat="39.51480772975234" lon="8.492457682568428"><ele>116.6</ele><time>2026-03-30T15:46:26Z</time></trkpt><trkpt lat="39.514778685788016" lon="8.492549929755606"><ele>116.19999999999999</ele><time>2026-03-30T15:46:27Z</time></trkpt><trkpt lat="39.51473241524407" lon="8.492691556514666"><ele>115.8</ele><time>2026-03-30T15:46:29Z</time></trkpt><trkpt lat="39.5146615675422" lon="8.492807375357273"><ele>115.4</ele><time>2026-03-30T15:46:31Z</time></trkpt><trkpt lat="39.51461714959802" lon="8.492886998978566"><ele>115.0</ele><time>2026-03-30T15:46:32Z</time></trkpt><trkpt lat="39.51456602444985" lon="8.492986057493436"><ele>115.0</ele><time>2026-03-30T15:46:33Z</time></trkpt><trkpt lat="39.51452395338689" lon="8.493081454770174"><ele>115.0</ele><time>2026-03-30T15:46:34Z</time></trkpt><trkpt lat="39.5145104473579" lon="8.493174950153826"><ele>115.0</ele><time>2026-03-30T15:46:35Z</time></trkpt><trkpt lat="39.51449464398695" lon="8.493258245249026"><ele>115.0</ele><time>2026-03-30T15:46:36Z</time></trkpt><trkpt lat="39.51451068065262" lon="8.493410991557814"><ele>115.0</ele><time>2026-03-30T15:46:38Z</time></trkpt><trkpt lat="39.51454603528545" lon="8.493545135841764"><ele>112.8</ele><time>2026-03-30T15:46:40Z</time></trkpt><trkpt lat="39.514640766354425" lon="8.493617383000013"><ele>110.6</ele><time>2026-03-30T15:46:42Z</time></trkpt><trkpt lat="39.51474332637533" lon="8.493616620795688"><ele>108.4</ele><time>2026-03-30T15:46:44Z</time></trkpt><trkpt lat="39.51482931142719" lon="8.493572631237996"><ele>106.2</ele><time>2026-03-30T15:46:46Z</time></trkpt><trkpt lat="39.51491182383141" lon="8.493567923772396"><ele>104.0</ele><time>2026-03-30T15:46:48Z</time></trkpt><trkpt lat="39.51498185295269" lon="8.493584783763511"><ele>104.0</ele><time>2026-03-30T15:46:50Z</time></trkpt><trkpt lat="39.515009974913475" lon="8.493683870506224"><ele>104.0</ele><time>2026-03-30T15:46:52Z</time></trkpt><trkpt lat="39.515003812702155" lon="8.493793099692626"><ele>104.0</ele><time>2026-03-30T15:46:55Z</time></trkpt><trkpt lat="39.51498155480131" lon="8.4938793057614"><ele>104.0</ele><time>2026-03-30T15:46:57Z</time></trkpt><trkpt lat="39.514961241255556" lon="8.493959083376767"><ele>104.0</ele><time>2026-03-30T15:46:59Z</time></trkpt><trkpt lat="39.51494706393064" lon="8.49403904923345"><ele>104.0</ele><time>2026-03-30T15:53:15.001Z</time></trkpt><trkpt lat="39.51491245833557" lon="8.494139048380148"><ele>104.0</ele><time>2026-03-30T15:53:35Z</time></trkpt><trkpt lat="39.51491770983231" lon="8.494288468840024"><ele>104.66666666666666</ele><time>2026-03-30T15:53:37Z</time></trkpt><trkpt lat="39.51493660854576" lon="8.49436869111881"><ele>105.33333333333333</ele><time>2026-03-30T15:53:38Z</time></trkpt><trkpt lat="39.514968261783075" lon="8.49445135399452"><ele>106.0</ele><time>2026-03-30T15:53:39Z</time></trkpt><trkpt lat="39.51500460064963" lon="8.49454010264361"><ele>106.66666666666666</ele><time>2026-03-30T15:53:40Z</time></trkpt><trkpt lat="39.515045321242646" lon="8.494636135814199"><ele>107.33333333333333</ele><time>2026-03-30T15:53:41Z</time></trkpt><trkpt lat="39.51508425833644" lon="8.49472508878883"><ele>108.0</ele><time>2026-03-30T15:53:42Z</time></trkpt><trkpt lat="39.51512499899042" lon="8.49481816207684"><ele>108.4</ele><time>2026-03-30T15:53:43Z</time></trkpt><trkpt lat="39.51516598297612" lon="8.494924234785474"><ele>108.80000000000001</ele><time>2026-03-30T15:53:44Z</time></trkpt><trkpt lat="39.51521895499964" lon="8.495035189034882"><ele>109.2</ele><time>2026-03-30T15:53:45Z</time></trkpt><trkpt lat="39.51525980177337" lon="8.495175839001083"><ele>109.6</ele><time>2026-03-30T15:53:46Z</time></trkpt><trkpt lat="39.51530719461594" lon="8.495300491895085"><ele>110.0</ele><time>2026-03-30T15:53:47Z</time></trkpt><trkpt lat="39.51535878088514" lon="8.495419601538687"><ele>113.0</ele><time>2026-03-30T15:53:48Z</time></trkpt><trkpt lat="39.515409199472224" lon="8.495539484554792"><ele>116.0</ele><time>2026-03-30T15:53:49Z</time></trkpt><trkpt lat="39.51544745194202" lon="8.495636565247446"><ele>119.0</ele><time>2026-03-30T15:53:50Z</time></trkpt><trkpt lat="39.5154744823162" lon="8.495715069350377"><ele>122.0</ele><time>2026-03-30T15:53:51Z</time></trkpt><trkpt lat="39.51551240678615" lon="8.495839693860997"><ele>125.0</ele><time>2026-03-30T15:53:53Z</time></trkpt><trkpt lat="39.51555634354096" lon="8.495991557364894"><ele>125.0</ele><time>2026-03-30T15:53:55Z</time></trkpt><trkpt lat="39.5155802292373" lon="8.496087357472025"><ele>125.0</ele><time>2026-03-30T15:53:56Z</time></trkpt><trkpt lat="39.51560710035548" lon="8.496200367807042"><ele>125.0</ele><time>2026-03-30T15:53:57Z</time></trkpt><trkpt lat="39.51563875045038" lon="8.496304339820073"><ele>125.0</ele><time>2026-03-30T15:53:58Z</time></trkpt><trkpt lat="39.51567410191456" lon="8.496419849861883"><ele>125.0</ele><time>2026-03-30T15:53:59Z</time></trkpt><trkpt lat="39.51570884589228" lon="8.496542854830873"><ele>124.0</ele><time>2026-03-30T15:54:00Z</time></trkpt><trkpt lat="39.51573895214315" lon="8.496667863387785"><ele>123.0</ele><time>2026-03-30T15:54:01Z</time></trkpt><trkpt lat="39.515766511189895" lon="8.49679720854355"><ele>122.0</ele><time>2026-03-30T15:54:02Z</time></trkpt><trkpt lat="39.51578620655646" lon="8.496924093725715"><ele>121.0</ele><time>2026-03-30T15:54:03Z</time></trkpt><trkpt lat="39.51579420416946" lon="8.497053993202432"><ele>120.0</ele><time>2026-03-30T15:54:04Z</time></trkpt><trkpt lat="39.51579334533282" lon="8.497191416273509"><ele>119.8</ele><time>2026-03-30T15:54:05Z</time></trkpt><trkpt lat="39.51579209851349" lon="8.497340994352683"><ele>119.6</ele><time>2026-03-30T15:54:06Z</time></trkpt><trkpt lat="39.51579053403385" lon="8.497491886817118"><ele>119.4</ele><time>2026-03-30T15:54:07Z</time></trkpt><trkpt lat="39.51579033065412" lon="8.497635401725733"><ele>119.2</ele><time>2026-03-30T15:54:08Z</time></trkpt><trkpt lat="39.5157950045361" lon="8.49775835775245"><ele>119.0</ele><time>2026-03-30T15:54:09Z</time></trkpt><trkpt lat="39.51579383554866" lon="8.497872980813735"><ele>119.80000000000001</ele><time>2026-03-30T15:54:10Z</time></trkpt><trkpt lat="39.51585328078825" lon="8.49796376379491"><ele>120.60000000000001</ele><time>2026-03-30T15:54:11Z</time></trkpt><trkpt lat="39.515918986150076" lon="8.498051523142792"><ele>121.4</ele><time>2026-03-30T15:54:12Z</time></trkpt><trkpt lat="39.51599624647192" lon="8.498130657091172"><ele>122.2</ele><time>2026-03-30T15:54:13Z</time></trkpt><trkpt lat="39.51607917282828" lon="8.498212454690682"><ele>123.0</ele><time>2026-03-30T15:54:14Z</time></trkpt><trkpt lat="39.51615967628717" lon="8.498294219728391"><ele>123.80000000000001</ele><time>2026-03-30T15:54:15Z</time></trkpt><trkpt lat="39.51624566635372" lon="8.49837210376912"><ele>124.60000000000001</ele><time>2026-03-30T15:54:16Z</time></trkpt><trkpt lat="39.516330587367094" lon="8.498437889133532"><ele>125.39999999999999</ele><time>2026-03-30T15:54:17Z</time></trkpt><trkpt lat="39.516424341990785" lon="8.498490180634358"><ele>126.19999999999999</ele><time>2026-03-30T15:54:18Z</time></trkpt><trkpt lat="39.51651775490694" lon="8.498544446204264"><ele>127.0</ele><time>2026-03-30T15:54:19Z</time></trkpt><trkpt lat="39.51659726701597" lon="8.498621049377153"><ele>127.0</ele><time>2026-03-30T15:54:20Z</time></trkpt><trkpt lat="39.51665739694311" lon="8.498715316721972"><ele>126.99999999999999</ele><time>2026-03-30T15:54:21Z</time></trkpt><trkpt lat="39.51670186589105" lon="8.498827181525316"><ele>126.99999999999999</ele><time>2026-03-30T15:54:22Z</time></trkpt><trkpt lat="39.51671242326347" lon="8.498961947317783"><ele>127.0</ele><time>2026-03-30T15:54:23Z</time></trkpt><trkpt lat="39.516767721724904" lon="8.499070520656026"><ele>127.0</ele><time>2026-03-30T15:54:24Z</time></trkpt><trkpt lat="39.51683621045586" lon="8.499155522335503"><ele>127.33333333333334</ele><time>2026-03-30T15:54:25Z</time></trkpt><trkpt lat="39.51690322784172" lon="8.49920300259463"><ele>127.66666666666667</ele><time>2026-03-30T15:54:26Z</time></trkpt><trkpt lat="39.516972864744545" lon="8.499221084227548"><ele>128.0</ele><time>2026-03-30T15:54:27Z</time></trkpt><trkpt lat="39.5170602066649" lon="8.499233634492727"><ele>128.33333333333334</ele><time>2026-03-30T15:54:28Z</time></trkpt><trkpt lat="39.51714786996569" lon="8.499248036075938"><ele>128.66666666666666</ele><time>2026-03-30T15:54:29Z</time></trkpt><trkpt lat="39.51723524370019" lon="8.499268144608092"><ele>129.0</ele><time>2026-03-30T15:54:30Z</time></trkpt><trkpt lat="39.517321723576146" lon="8.49928091307446"><ele>129.6</ele><time>2026-03-30T15:54:31Z</time></trkpt><trkpt lat="39.517406450500964" lon="8.499316934346039"><ele>130.2</ele><time>2026-03-30T15:54:32Z</time></trkpt><trkpt lat="39.51747314620086" lon="8.499393538475276"><ele>130.79999999999998</ele><time>2026-03-30T15:54:33Z</time></trkpt><trkpt lat="39.51753520852885" lon="8.499479210036634"><ele>131.4</ele><time>2026-03-30T15:54:34Z</time></trkpt><trkpt lat="39.51759769808018" lon="8.499572310777125"><ele>132.0</ele><time>2026-03-30T15:54:35Z</time></trkpt><trkpt lat="39.51766457827186" lon="8.499664886025293"><ele>132.6</ele><time>2026-03-30T15:54:36Z</time></trkpt><trkpt lat="39.51773797619583" lon="8.4997409169325"><ele>133.2</ele><time>2026-03-30T15:54:37Z</time></trkpt><trkpt lat="39.517795714105446" lon="8.499825684578827"><ele>133.8</ele><time>2026-03-30T15:54:38Z</time></trkpt><trkpt lat="39.517854458527395" lon="8.499909655421323"><ele>134.4</ele><time>2026-03-30T15:54:39Z</time></trkpt><trkpt lat="39.51790679586572" lon="8.500003187704245"><ele>135.0</ele><time>2026-03-30T15:54:40Z</time></trkpt><trkpt lat="39.51796254263944" lon="8.500099784455772"><ele>135.0</ele><time>2026-03-30T15:54:41Z</time></trkpt><trkpt lat="39.518011793202525" lon="8.500198758754971"><ele>135.0</ele><time>2026-03-30T15:54:42Z</time></trkpt><trkpt lat="39.518051940268954" lon="8.500301186317078"><ele>135.0</ele><time>2026-03-30T15:54:43Z</time></trkpt><trkpt lat="39.51810149051008" lon="8.500395125181155"><ele>135.0</ele><time>2026-03-30T15:54:44Z</time></trkpt><trkpt lat="39.51816043542156" lon="8.500466460432724"><ele>135.0</ele><time>2026-03-30T15:54:45Z</time></trkpt><trkpt lat="39.51822684645063" lon="8.500509465051298"><ele>135.0</ele><time>2026-03-30T15:54:46Z</time></trkpt><trkpt lat="39.518322701340004" lon="8.50053741630124"><ele>136.5</ele><time>2026-03-30T15:54:48Z</time></trkpt><trkpt lat="39.518387661691335" lon="8.50054910972118"><ele>138.0</ele><time>2026-03-30T15:54:51Z</time></trkpt><trkpt lat="39.518496938236424" lon="8.500555762941017"><ele>139.5</ele><time>2026-03-30T15:54:53Z</time></trkpt><trkpt lat="39.51857391874591" lon="8.500546847402635"><ele>141.0</ele><time>2026-03-30T15:54:54Z</time></trkpt><trkpt lat="39.5186660490447" lon="8.500525737221928"><ele>142.5</ele><time>2026-03-30T15:54:55Z</time></trkpt><trkpt lat="39.518759298070044" lon="8.500503328732048"><ele>144.0</ele><time>2026-03-30T15:54:56Z</time></trkpt><trkpt lat="39.518857289275715" lon="8.500485616787792"><ele>144.0</ele><time>2026-03-30T15:54:57Z</time></trkpt><trkpt lat="39.51895451092461" lon="8.500499286407715"><ele>144.0</ele><time>2026-03-30T15:54:58Z</time></trkpt><trkpt lat="39.519050005555485" lon="8.50054110721332"><ele>144.0</ele><time>2026-03-30T15:54:59Z</time></trkpt><trkpt lat="39.5191361891725" lon="8.500615925631804"><ele>144.0</ele><time>2026-03-30T15:55:00Z</time></trkpt><trkpt lat="39.51921353035134" lon="8.500718302011803"><ele>144.0</ele><time>2026-03-30T15:55:01Z</time></trkpt><trkpt lat="39.51927790163175" lon="8.500832749934139"><ele>144.0</ele><time>2026-03-30T15:55:02Z</time></trkpt><trkpt lat="39.51931446809639" lon="8.500967244287605"><ele>144.0</ele><time>2026-03-30T15:55:03Z</time></trkpt><trkpt lat="39.51930677712626" lon="8.501112899269755"><ele>144.0</ele><time>2026-03-30T15:55:04Z</time></trkpt><trkpt lat="39.51935491788055" lon="8.501238642600569"><ele>144.0</ele><time>2026-03-30T15:55:05Z</time></trkpt><trkpt lat="39.5194376890598" lon="8.501336006355368"><ele>144.0</ele><time>2026-03-30T15:55:06Z</time></trkpt><trkpt lat="39.519513600282984" lon="8.501430590294525"><ele>147.2</ele><time>2026-03-30T15:55:07Z</time></trkpt><trkpt lat="39.51958528063989" lon="8.50152979539923"><ele>150.4</ele><time>2026-03-30T15:55:08Z</time></trkpt><trkpt lat="39.51962863597867" lon="8.501640976899422"><ele>153.6</ele><time>2026-03-30T15:55:09Z</time></trkpt><trkpt lat="39.51962610680335" lon="8.501761155496647"><ele>156.8</ele><time>2026-03-30T15:55:10Z</time></trkpt><trkpt lat="39.5196339419282" lon="8.501875385635062"><ele>160.0</ele><time>2026-03-30T15:55:11Z</time></trkpt><trkpt lat="39.51959570867997" lon="8.501966677108904"><ele>159.83333333333334</ele><time>2026-03-30T15:55:12Z</time></trkpt><trkpt lat="39.51952878593284" lon="8.502001377175592"><ele>159.66666666666669</ele><time>2026-03-30T15:55:13Z</time></trkpt><trkpt lat="39.51949014790011" lon="8.502070424599827"><ele>159.5</ele><time>2026-03-30T15:55:14Z</time></trkpt><trkpt lat="39.51944643750876" lon="8.50222315600744"><ele>159.33333333333334</ele><time>2026-03-30T15:55:16Z</time></trkpt><trkpt lat="39.51950652394325" lon="8.502307121933383"><ele>159.16666666666666</ele><time>2026-03-30T15:55:17Z</time></trkpt><trkpt lat="39.519565463749444" lon="8.502370418093534"><ele>159.0</ele><time>2026-03-30T15:55:18Z</time></trkpt><trkpt lat="39.51963368075913" lon="8.502420524881723"><ele>159.0</ele><time>2026-03-30T15:55:19Z</time></trkpt><trkpt lat="39.51970325987534" lon="8.502485664082927"><ele>159.0</ele><time>2026-03-30T15:55:20Z</time></trkpt><trkpt lat="39.5197582058908" lon="8.50256538491321"><ele>159.0</ele><time>2026-03-30T15:55:21Z</time></trkpt><trkpt lat="39.51980153892165" lon="8.502665749019311"><ele>159.0</ele><time>2026-03-30T15:55:22Z</time></trkpt><trkpt lat="39.51983602859853" lon="8.50278053680275"><ele>159.0</ele><time>2026-03-30T15:55:23Z</time></trkpt><trkpt lat="39.519846402238066" lon="8.502910839509015"><ele>159.4</ele><time>2026-03-30T15:55:24Z</time></trkpt><trkpt lat="39.51988327675805" lon="8.50304063870225"><ele>159.8</ele><time>2026-03-30T15:55:25Z</time></trkpt><trkpt lat="39.5198997486502" lon="8.50318244865172"><ele>160.20000000000002</ele><time>2026-03-30T15:55:26Z</time></trkpt><trkpt lat="39.5199251675471" lon="8.503315357079472"><ele>160.60000000000002</ele><time>2026-03-30T15:55:27Z</time></trkpt><trkpt lat="39.5199581564131" lon="8.503450806027459"><ele>161.0</ele><time>2026-03-30T15:55:28Z</time></trkpt><trkpt lat="39.51998625903717" lon="8.503589320983794"><ele>161.0</ele><time>2026-03-30T15:55:29Z</time></trkpt><trkpt lat="39.52000974196762" lon="8.503725255267058"><ele>161.0</ele><time>2026-03-30T15:55:30Z</time></trkpt><trkpt lat="39.52002885040327" lon="8.503846087312837"><ele>161.0</ele><time>2026-03-30T15:55:31Z</time></trkpt><trkpt lat="39.5200440101957" lon="8.503944165251733"><ele>161.0</ele><time>2026-03-30T15:55:32Z</time></trkpt><trkpt lat="39.520060952107706" lon="8.504024868471348"><ele>161.0</ele><time>2026-03-30T15:55:33Z</time></trkpt><trkpt lat="39.52012092725334" lon="8.504139987207024"><ele>161.83333333333331</ele><time>2026-03-30T15:55:35Z</time></trkpt><trkpt lat="39.52019335481297" lon="8.50415006091127"><ele>162.66666666666666</ele><time>2026-03-30T15:55:38Z</time></trkpt><trkpt lat="39.52028297209823" lon="8.504165646398663"><ele>163.5</ele><time>2026-03-30T15:55:42Z</time></trkpt><trkpt lat="39.520335154561536" lon="8.504111110348282"><ele>164.33333333333334</ele><time>2026-03-30T15:55:44Z</time></trkpt><trkpt lat="39.52039996941876" lon="8.504047586425273"><ele>165.16666666666669</ele><time>2026-03-30T15:55:47Z</time></trkpt><trkpt lat="39.52047443014284" lon="8.504010080203958"><ele>166.0</ele><time>2026-03-30T15:55:50Z</time></trkpt><trkpt lat="39.52055956905135" lon="8.50398323262159"><ele>166.20000000000002</ele><time>2026-03-30T15:55:53Z</time></trkpt><trkpt lat="39.52065464860052" lon="8.504011708665082"><ele>166.4</ele><time>2026-03-30T15:55:55Z</time></trkpt><trkpt lat="39.5207507697211" lon="8.504114665141328"><ele>166.6</ele><time>2026-03-30T15:55:57Z</time></trkpt><trkpt lat="39.52080765829299" lon="8.504204274697376"><ele>166.8</ele><time>2026-03-30T15:55:58Z</time></trkpt><trkpt lat="39.52086039655071" lon="8.504297965078456"><ele>167.0</ele><time>2026-03-30T15:55:59Z</time></trkpt><trkpt lat="39.52091731238582" lon="8.504411061681523"><ele>167.0</ele><time>2026-03-30T15:56:00Z</time></trkpt><trkpt lat="39.52098574053028" lon="8.504535348210672"><ele>167.0</ele><time>2026-03-30T15:56:01Z</time></trkpt><trkpt lat="39.52105258286569" lon="8.504652429246603"><ele>167.0</ele><time>2026-03-30T15:56:02Z</time></trkpt><trkpt lat="39.52111724348487" lon="8.504776350977743"><ele>167.0</ele><time>2026-03-30T15:56:03Z</time></trkpt><trkpt lat="39.521183276083335" lon="8.504907174350455"><ele>170.0</ele><time>2026-03-30T15:56:04Z</time></trkpt><trkpt lat="39.52123541665732" lon="8.505053700553749"><ele>173.0</ele><time>2026-03-30T15:56:05Z</time></trkpt><trkpt lat="39.5213051641039" lon="8.50520696941548"><ele>176.0</ele><time>2026-03-30T15:56:06Z</time></trkpt><trkpt lat="39.52135689063078" lon="8.505377276299743"><ele>179.0</ele><time>2026-03-30T15:56:07Z</time></trkpt><trkpt lat="39.52139051642962" lon="8.505526696491852"><ele>179.0</ele><time>2026-03-30T15:56:08Z</time></trkpt><trkpt lat="39.52135785761588" lon="8.505667387697711"><ele>179.0</ele><time>2026-03-30T15:56:09Z</time></trkpt><trkpt lat="39.52134845684733" lon="8.50580100770686"><ele>179.0</ele><time>2026-03-30T15:56:10Z</time></trkpt><trkpt lat="39.52132965761236" lon="8.505896537182542"><ele>179.0</ele><time>2026-03-30T15:56:11Z</time></trkpt><trkpt lat="39.5213441950313" lon="8.505985383467573"><ele>179.0</ele><time>2026-03-30T15:56:12Z</time></trkpt><trkpt lat="39.52140145076418" lon="8.506079277180017"><ele>179.0</ele><time>2026-03-30T15:56:13Z</time></trkpt><trkpt lat="39.52145778891149" lon="8.506195120774839"><ele>179.0</ele><time>2026-03-30T15:56:14Z</time></trkpt><trkpt lat="39.52149844729844" lon="8.50631908156646"><ele>179.0</ele><time>2026-03-30T15:56:15Z</time></trkpt><trkpt lat="39.52149893251351" lon="8.506452756096039"><ele>179.0</ele><time>2026-03-30T15:56:16Z</time></trkpt><trkpt lat="39.52150455311875" lon="8.506601632961956"><ele>179.0</ele><time>2026-03-30T15:56:17Z</time></trkpt><trkpt lat="39.5215215242265" lon="8.506758564408933"><ele>178.25</ele><time>2026-03-30T15:56:18Z</time></trkpt><trkpt lat="39.521529574519825" lon="8.506921793001892"><ele>177.5</ele><time>2026-03-30T15:56:19Z</time></trkpt><trkpt lat="39.52154242943734" lon="8.50707335037211"><ele>176.75</ele><time>2026-03-30T15:56:20Z</time></trkpt><trkpt lat="39.52157951380414" lon="8.50722116196645"><ele>176.0</ele><time>2026-03-30T15:56:21Z</time></trkpt><trkpt lat="39.52162633263008" lon="8.507373761595742"><ele>177.75</ele><time>2026-03-30T15:56:22Z</time></trkpt><trkpt lat="39.521690942717605" lon="8.507532095273016"><ele>179.5</ele><time>2026-03-30T15:56:23Z</time></trkpt><trkpt lat="39.521734439108144" lon="8.507696663105543"><ele>181.25</ele><time>2026-03-30T15:56:24Z</time></trkpt><trkpt lat="39.52179019988424" lon="8.507853471181832"><ele>183.0</ele><time>2026-03-30T15:56:25Z</time></trkpt><trkpt lat="39.521863765852885" lon="8.508003466468427"><ele>185.0</ele><time>2026-03-30T15:56:26Z</time></trkpt><trkpt lat="39.52194711848852" lon="8.508147536252467"><ele>187.0</ele><time>2026-03-30T15:56:27Z</time></trkpt><trkpt lat="39.522013440066914" lon="8.508305967865587"><ele>189.0</ele><time>2026-03-30T15:56:28Z</time></trkpt><trkpt lat="39.522091569446324" lon="8.508458357882184"><ele>191.0</ele><time>2026-03-30T15:56:29Z</time></trkpt><trkpt lat="39.522142975812855" lon="8.50862842983517"><ele>193.75</ele><time>2026-03-30T15:56:30Z</time></trkpt><trkpt lat="39.52218589655278" lon="8.50879927430617"><ele>196.5</ele><time>2026-03-30T15:56:31Z</time></trkpt><trkpt lat="39.52222981931825" lon="8.508967463341099"><ele>199.25</ele><time>2026-03-30T15:56:32Z</time></trkpt><trkpt lat="39.52226964533049" lon="8.509131873378267"><ele>202.0</ele><time>2026-03-30T15:56:33Z</time></trkpt><trkpt lat="39.522315175467654" lon="8.509270042902243"><ele>202.0</ele><time>2026-03-30T15:56:34Z</time></trkpt><trkpt lat="39.52237843327305" lon="8.509383590315277"><ele>202.0</ele><time>2026-03-30T15:56:35Z</time></trkpt><trkpt lat="39.52245901912712" lon="8.509481809336277"><ele>202.0</ele><time>2026-03-30T15:56:36Z</time></trkpt><trkpt lat="39.52255425948643" lon="8.509552653369452"><ele>202.0</ele><time>2026-03-30T15:56:37Z</time></trkpt><trkpt lat="39.52265627073145" lon="8.509606470676966"><ele>202.0</ele><time>2026-03-30T15:56:38Z</time></trkpt><trkpt lat="39.52275874872407" lon="8.509651376473364"><ele>202.8</ele><time>2026-03-30T15:56:39Z</time></trkpt><trkpt lat="39.52285942330214" lon="8.509705674363582"><ele>203.6</ele><time>2026-03-30T15:56:40Z</time></trkpt><trkpt lat="39.522965723780395" lon="8.509747223318104"><ele>204.4</ele><time>2026-03-30T15:56:41Z</time></trkpt><trkpt lat="39.523070716474834" lon="8.509776428127754"><ele>205.20000000000002</ele><time>2026-03-30T15:56:42Z</time></trkpt><trkpt lat="39.523163594730825" lon="8.509804187901812"><ele>206.0</ele><time>2026-03-30T15:56:43Z</time></trkpt><trkpt lat="39.52322711783385" lon="8.509872296732853"><ele>206.16666666666669</ele><time>2026-03-30T15:56:44Z</time></trkpt><trkpt lat="39.52324932228253" lon="8.509981423769664"><ele>206.33333333333334</ele><time>2026-03-30T15:56:45Z</time></trkpt><trkpt lat="39.523265612275914" lon="8.510063192326202"><ele>206.5</ele><time>2026-03-30T15:56:46Z</time></trkpt><trkpt lat="39.52323216004129" lon="8.510136363285863"><ele>206.66666666666669</ele><time>2026-03-30T15:56:47Z</time></trkpt><trkpt lat="39.523158568852914" lon="8.510145970141153"><ele>206.83333333333334</ele><time>2026-03-30T15:56:48Z</time></trkpt><trkpt lat="39.52302381557602" lon="8.510170027185145"><ele>207.0</ele><time>2026-03-30T15:56:50Z</time></trkpt><trkpt lat="39.522946001116075" lon="8.510161780711133"><ele>206.8</ele><time>2026-03-30T15:56:51Z</time></trkpt><trkpt lat="39.522870695869784" lon="8.510144212892678"><ele>206.6</ele><time>2026-03-30T15:56:52Z</time></trkpt><trkpt lat="39.522787677761606" lon="8.510107030368438"><ele>206.4</ele><time>2026-03-30T15:56:53Z</time></trkpt><trkpt lat="39.52270452742618" lon="8.51005381680554"><ele>206.20000000000002</ele><time>2026-03-30T15:56:54Z</time></trkpt><trkpt lat="39.522609533922605" lon="8.51001904198096"><ele>206.0</ele><time>2026-03-30T15:56:55Z</time></trkpt><trkpt lat="39.52251199931228" lon="8.510003121536688"><ele>206.0</ele><time>2026-03-30T15:56:56Z</time></trkpt><trkpt lat="39.5224147216232" lon="8.509992323740224"><ele>206.0</ele><time>2026-03-30T15:56:57Z</time></trkpt><trkpt lat="39.52233061519682" lon="8.509948504964125"><ele>206.0</ele><time>2026-03-30T15:56:57.999Z</time></trkpt><trkpt lat="39.52223818146889" lon="8.509867002552074"><ele>206.0</ele><time>2026-03-30T15:56:58.999Z</time></trkpt><trkpt lat="39.52215481170882" lon="8.509770203753005"><ele>206.0</ele><time>2026-03-30T15:56:59.999Z</time></trkpt><trkpt lat="39.52206612929616" lon="8.50966481422069"><ele>206.5</ele><time>2026-03-30T15:57:00.999Z</time></trkpt><trkpt lat="39.52196413933594" lon="8.509564633102048"><ele>207.0</ele><time>2026-03-30T15:57:01.999Z</time></trkpt><trkpt lat="39.52188526349765" lon="8.509429655487414"><ele>207.5</ele><time>2026-03-30T15:57:02.999Z</time></trkpt><trkpt lat="39.5218065374887" lon="8.509299325258242"><ele>208.0</ele><time>2026-03-30T15:57:03.999Z</time></trkpt><trkpt lat="39.521722572984245" lon="8.509170329247022"><ele>208.0</ele><time>2026-03-30T15:57:04.999Z</time></trkpt><trkpt lat="39.52164603864239" lon="8.509042323870972"><ele>208.0</ele><time>2026-03-30T15:57:05.999Z</time></trkpt><trkpt lat="39.52159087301402" lon="8.508922225345765"><ele>208.0</ele><time>2026-03-30T15:57:06.999Z</time></trkpt><trkpt lat="39.521537142742616" lon="8.508840609164976"><ele>208.0</ele><time>2026-03-30T15:57:07.999Z</time></trkpt><trkpt lat="39.52147939240241" lon="8.50879871419895"><ele>208.0</ele><time>2026-03-30T15:57:08.999Z</time></trkpt><trkpt lat="39.521396105844005" lon="8.508809781061709"><ele>208.0</ele><time>2026-03-30T15:57:09.999Z</time></trkpt><trkpt lat="39.52131072011873" lon="8.508857371588444"><ele>208.0</ele><time>2026-03-30T15:57:10.999Z</time></trkpt><trkpt lat="39.52120795308571" lon="8.508897868481117"><ele>208.0</ele><time>2026-03-30T15:57:11.999Z</time></trkpt><trkpt lat="39.52112104279795" lon="8.508981234092472"><ele>208.0</ele><time>2026-03-30T15:57:12.999Z</time></trkpt><trkpt lat="39.52104706771873" lon="8.50909543716342"><ele>208.0</ele><time>2026-03-30T15:57:13.999Z</time></trkpt><trkpt lat="39.52097205087361" lon="8.509217459766928"><ele>210.0</ele><time>2026-03-30T15:57:14.999Z</time></trkpt><trkpt lat="39.520891682140594" lon="8.509352259799222"><ele>212.0</ele><time>2026-03-30T15:57:15.999Z</time></trkpt><trkpt lat="39.520816837155685" lon="8.509489225005185"><ele>214.0</ele><time>2026-03-30T15:57:16.999Z</time></trkpt><trkpt lat="39.520729824975106" lon="8.509617238222049"><ele>216.0</ele><time>2026-03-30T15:57:17.999Z</time></trkpt><trkpt lat="39.52065449486062" lon="8.509746495622062"><ele>219.4</ele><time>2026-03-30T15:57:18.999Z</time></trkpt><trkpt lat="39.520579468966396" lon="8.509848064655838"><ele>222.8</ele><time>2026-03-30T15:57:19.999Z</time></trkpt><trkpt lat="39.520516067444696" lon="8.509935035869761"><ele>226.20000000000002</ele><time>2026-03-30T15:57:20.999Z</time></trkpt><trkpt lat="39.52043188347253" lon="8.509979813195875"><ele>229.60000000000002</ele><time>2026-03-30T15:57:21.999Z</time></trkpt><trkpt lat="39.52034920970605" lon="8.509961710338601"><ele>233.0</ele><time>2026-03-30T15:57:22.999Z</time></trkpt><trkpt lat="39.52026596896842" lon="8.509931369413795"><ele>233.0</ele><time>2026-03-30T15:57:23.999Z</time></trkpt><trkpt lat="39.52016426788553" lon="8.509907425946025"><ele>233.0</ele><time>2026-03-30T15:57:24.999Z</time></trkpt><trkpt lat="39.52006494725563" lon="8.509885248583052"><ele>233.0</ele><time>2026-03-30T15:57:25.999Z</time></trkpt><trkpt lat="39.519976494576376" lon="8.509866297963544"><ele>233.0</ele><time>2026-03-30T15:57:26.999Z</time></trkpt><trkpt lat="39.51990092904649" lon="8.509873214371316"><ele>233.0</ele><time>2026-03-30T15:57:27.999Z</time></trkpt><trkpt lat="39.519796857181376" lon="8.50992026791515"><ele>233.0</ele><time>2026-03-30T15:57:29.999Z</time></trkpt><trkpt lat="39.51979615143774" lon="8.510048378649195"><ele>233.0</ele><time>2026-03-30T15:57:31.999Z</time></trkpt><trkpt lat="39.51989237657206" lon="8.510120225572722"><ele>233.0</ele><time>2026-03-30T15:57:34Z</time></trkpt><trkpt lat="39.51995275303292" lon="8.510229580338006"><ele>233.0</ele><time>2026-03-30T15:57:36Z</time></trkpt><trkpt lat="39.51991796601467" lon="8.510375968803702"><ele>233.0</ele><time>2026-03-30T15:57:38Z</time></trkpt><trkpt lat="39.51987456983784" lon="8.510511054344315"><ele>237.25</ele><time>2026-03-30T15:57:40Z</time></trkpt><trkpt lat="39.519950980355574" lon="8.510627725053341"><ele>241.5</ele><time>2026-03-30T15:57:42Z</time></trkpt><trkpt lat="39.520095025220265" lon="8.510626744431505"><ele>245.75</ele><time>2026-03-30T15:57:44Z</time></trkpt><trkpt lat="39.52016478872337" lon="8.510488159598463"><ele>250.0</ele><time>2026-03-30T15:57:46Z</time></trkpt><trkpt lat="39.52019363649542" lon="8.51041100337631"><ele>251.57142857142856</ele><time>2026-03-30T15:57:47Z</time></trkpt><trkpt lat="39.52024416241194" lon="8.510357043684227"><ele>253.14285714285717</ele><time>2026-03-30T15:57:48Z</time></trkpt><trkpt lat="39.52030910994769" lon="8.510334864034553"><ele>254.71428571428572</ele><time>2026-03-30T15:57:49Z</time></trkpt><trkpt lat="39.52037562625479" lon="8.51033837770142"><ele>256.2857142857143</ele><time>2026-03-30T15:57:50Z</time></trkpt><trkpt lat="39.520430368050135" lon="8.51039329922662"><ele>257.85714285714283</ele><time>2026-03-30T15:57:51Z</time></trkpt><trkpt lat="39.520494503182825" lon="8.510423270131813"><ele>259.42857142857144</ele><time>2026-03-30T15:57:52Z</time></trkpt><trkpt lat="39.520551066103195" lon="8.51047503047079"><ele>261.0</ele><time>2026-03-30T15:57:53Z</time></trkpt><trkpt lat="39.52061925273932" lon="8.51049440333461"><ele>261.0</ele><time>2026-03-30T15:57:54Z</time></trkpt><trkpt lat="39.52068813403824" lon="8.510460348550767"><ele>261.0</ele><time>2026-03-30T15:57:55Z</time></trkpt><trkpt lat="39.52075195938137" lon="8.51041095761339"><ele>261.0</ele><time>2026-03-30T15:57:56Z</time></trkpt><trkpt lat="39.52080232066652" lon="8.510338606080982"><ele>261.0</ele><time>2026-03-30T15:57:57Z</time></trkpt><trkpt lat="39.52084356439268" lon="8.51025455785256"><ele>261.0</ele><time>2026-03-30T15:57:58Z</time></trkpt><trkpt lat="39.52087302562646" lon="8.510153811227402"><ele>261.0</ele><time>2026-03-30T15:57:59Z</time></trkpt><trkpt lat="39.520909578075404" lon="8.510060687571016"><ele>257.0</ele><time>2026-03-30T15:58:00Z</time></trkpt><trkpt lat="39.52096799732771" lon="8.50998656379291"><ele>253.0</ele><time>2026-03-30T15:58:01Z</time></trkpt><trkpt lat="39.52104241138299" lon="8.509932322691697"><ele>249.0</ele><time>2026-03-30T15:58:02Z</time></trkpt><trkpt lat="39.52111668152238" lon="8.509896228094544"><ele>245.0</ele><time>2026-03-30T15:58:03Z</time></trkpt><trkpt lat="39.52119088578616" lon="8.509875835185888"><ele>241.0</ele><time>2026-03-30T15:58:04Z</time></trkpt><trkpt lat="39.52125742294863" lon="8.509883024027024"><ele>237.0</ele><time>2026-03-30T15:58:05Z</time></trkpt><trkpt lat="39.52132828369177" lon="8.509918024857562"><ele>236.5</ele><time>2026-03-30T15:58:06Z</time></trkpt><trkpt lat="39.52137883793648" lon="8.510004930903479"><ele>236.0</ele><time>2026-03-30T15:58:07Z</time></trkpt><trkpt lat="39.521409672955066" lon="8.510096950471263"><ele>235.5</ele><time>2026-03-30T15:58:08Z</time></trkpt><trkpt lat="39.5214583391547" lon="8.510178488203001"><ele>235.0</ele><time>2026-03-30T15:58:09Z</time></trkpt><trkpt lat="39.52148027933657" lon="8.510270180954222"><ele>234.5</ele><time>2026-03-30T15:58:10Z</time></trkpt><trkpt lat="39.52151065680894" lon="8.510356899280547"><ele>234.0</ele><time>2026-03-30T15:58:11Z</time></trkpt><trkpt lat="39.52154233239562" lon="8.510445298669222"><ele>237.16666666666666</ele><time>2026-03-30T15:58:12Z</time></trkpt><trkpt lat="39.521550390488024" lon="8.510544579385044"><ele>240.33333333333331</ele><time>2026-03-30T15:58:13Z</time></trkpt><trkpt lat="39.52155894063398" lon="8.510643851664314"><ele>243.5</ele><time>2026-03-30T15:58:14Z</time></trkpt><trkpt lat="39.521548133949864" lon="8.510735655769041"><ele>246.66666666666666</ele><time>2026-03-30T15:58:15Z</time></trkpt><trkpt lat="39.521531539522414" lon="8.510864067030411"><ele>249.83333333333331</ele><time>2026-03-30T15:58:17Z</time></trkpt><trkpt lat="39.52151458466581" lon="8.510950300614695"><ele>253.0</ele><time>2026-03-30T15:58:19Z</time></trkpt><trkpt lat="39.52144694613816" lon="8.51091281155374"><ele>252.99999999999997</ele><time>2026-03-30T15:58:21Z</time></trkpt><trkpt lat="39.52147145389778" lon="8.510781582680632"><ele>253.0</ele><time>2026-03-30T15:58:23Z</time></trkpt><trkpt lat="39.521488131500575" lon="8.510652674251965"><ele>253.0</ele><time>2026-03-30T15:58:25Z</time></trkpt><trkpt lat="39.52147283842222" lon="8.510572658110327"><ele>253.0</ele><time>2026-03-30T15:58:26Z</time></trkpt><trkpt lat="39.521439530577915" lon="8.510500103568718"><ele>252.99999999999997</ele><time>2026-03-30T15:58:27Z</time></trkpt><trkpt lat="39.52140117893735" lon="8.51042879733956"><ele>253.0</ele><time>2026-03-30T15:58:28Z</time></trkpt><trkpt lat="39.52135114709033" lon="8.5103634956062"><ele>254.60000000000002</ele><time>2026-03-30T15:58:29Z</time></trkpt><trkpt lat="39.52129650032677" lon="8.510319533393051"><ele>256.20000000000005</ele><time>2026-03-30T15:58:30Z</time></trkpt><trkpt lat="39.5211560267275" lon="8.510318411069337"><ele>257.8</ele><time>2026-03-30T15:58:31.999Z</time></trkpt><trkpt lat="39.52106439147259" lon="8.510387422573865"><ele>259.40000000000003</ele><time>2026-03-30T15:58:32.999Z</time></trkpt><trkpt lat="39.521019894994566" lon="8.51053434305518"><ele>261.0</ele><time>2026-03-30T15:58:33.999Z</time></trkpt><trkpt lat="39.52097473739223" lon="8.510658006443409"><ele>261.0</ele><time>2026-03-30T15:58:34.999Z</time></trkpt><trkpt lat="39.52093781102259" lon="8.510759575208661"><ele>261.0</ele><time>2026-03-30T15:58:35.999Z</time></trkpt><trkpt lat="39.520888997387075" lon="8.510843984590514"><ele>261.0</ele><time>2026-03-30T15:58:36.999Z</time></trkpt><trkpt lat="39.520810115119346" lon="8.510879847708933"><ele>261.0</ele><time>2026-03-30T15:58:37.999Z</time></trkpt><trkpt lat="39.52074154118618" lon="8.510922221090476"><ele>261.0</ele><time>2026-03-30T15:58:38.999Z</time></trkpt><trkpt lat="39.52063999968018" lon="8.510963011148993"><ele>261.0</ele><time>2026-03-30T15:58:40.999Z</time></trkpt><trkpt lat="39.52057595210894" lon="8.51100214742406"><ele>261.0</ele><time>2026-03-30T15:58:42.999Z</time></trkpt><trkpt lat="39.5204930631661" lon="8.511023406594106"><ele>261.0</ele><time>2026-03-30T15:58:45.999Z</time></trkpt><trkpt lat="39.52041812904328" lon="8.511120694056121"><ele>261.0</ele><time>2026-03-30T15:58:47.999Z</time></trkpt><trkpt lat="39.520390347365804" lon="8.511232141808593"><ele>261.0</ele><time>2026-03-30T15:58:49.999Z</time></trkpt><trkpt lat="39.52034783255074" lon="8.511388430427687"><ele>261.0</ele><time>2026-03-30T15:58:51.999Z</time></trkpt><trkpt lat="39.52032278249592" lon="8.511476878950845"><ele>262.1666666666667</ele><time>2026-03-30T15:58:52.999Z</time></trkpt><trkpt lat="39.52029445877915" lon="8.511563999179076"><ele>263.3333333333333</ele><time>2026-03-30T15:58:53.999Z</time></trkpt><trkpt lat="39.520261337220326" lon="8.511653176463643"><ele>264.5</ele><time>2026-03-30T15:58:54.999Z</time></trkpt><trkpt lat="39.52020909989075" lon="8.511733931154351"><ele>265.66666666666663</ele><time>2026-03-30T15:58:55.999Z</time></trkpt><trkpt lat="39.52014176330463" lon="8.511785038707192"><ele>266.8333333333333</ele><time>2026-03-30T15:58:56.999Z</time></trkpt><trkpt lat="39.52007081219981" lon="8.511845600548773"><ele>268.0</ele><time>2026-03-30T15:58:57.999Z</time></trkpt><trkpt lat="39.51999152867648" lon="8.511902354215938"><ele>268.0</ele><time>2026-03-30T15:58:58.999Z</time></trkpt><trkpt lat="39.51991083429315" lon="8.511942168998413"><ele>268.0</ele><time>2026-03-30T15:58:59.999Z</time></trkpt><trkpt lat="39.51982879271682" lon="8.511951527168662"><ele>268.0</ele><time>2026-03-30T15:59:00.999Z</time></trkpt><trkpt lat="39.51974709041052" lon="8.511936058552163"><ele>268.0</ele><time>2026-03-30T15:59:01.999Z</time></trkpt><trkpt lat="39.51970188202863" lon="8.511827395221266"><ele>268.0</ele><time>2026-03-30T15:59:02.999Z</time></trkpt><trkpt lat="39.519649184817155" lon="8.511734458837266"><ele>268.0</ele><time>2026-03-30T15:59:03.999Z</time></trkpt><trkpt lat="39.51958204075715" lon="8.51166836115181"><ele>271.4</ele><time>2026-03-30T15:59:04.999Z</time></trkpt><trkpt lat="39.51948449325513" lon="8.511643339595334"><ele>274.8</ele><time>2026-03-30T15:59:05.999Z</time></trkpt><trkpt lat="39.51938087451854" lon="8.51163096530776"><ele>278.2</ele><time>2026-03-30T15:59:06.999Z</time></trkpt><trkpt lat="39.519283386246926" lon="8.51161253056891"><ele>281.6</ele><time>2026-03-30T15:59:07.999Z</time></trkpt><trkpt lat="39.51918546541549" lon="8.511584018839963"><ele>285.0</ele><time>2026-03-30T15:59:08.999Z</time></trkpt><trkpt lat="39.51909517084388" lon="8.511546163375042"><ele>285.0</ele><time>2026-03-30T15:59:09.999Z</time></trkpt><trkpt lat="39.519008713583716" lon="8.511491393911315"><ele>285.0</ele><time>2026-03-30T15:59:10.999Z</time></trkpt><trkpt lat="39.51892951781972" lon="8.511419233530471"><ele>285.0</ele><time>2026-03-30T15:59:11.999Z</time></trkpt><trkpt lat="39.51887257579143" lon="8.511315319170523"><ele>285.0</ele><time>2026-03-30T15:59:12.999Z</time></trkpt><trkpt lat="39.518830019108016" lon="8.511203400726625"><ele>285.0</ele><time>2026-03-30T15:59:13.999Z</time></trkpt><trkpt lat="39.518802487712975" lon="8.511091252421135"><ele>282.3333333333333</ele><time>2026-03-30T15:59:14.999Z</time></trkpt><trkpt lat="39.518797743869015" lon="8.51098392184927"><ele>279.6666666666667</ele><time>2026-03-30T15:59:15.999Z</time></trkpt><trkpt lat="39.518804322778514" lon="8.510878528707511"><ele>277.0</ele><time>2026-03-30T15:59:16.999Z</time></trkpt><trkpt lat="39.5188170319959" lon="8.510772139361467"><ele>274.33333333333337</ele><time>2026-03-30T15:59:17.999Z</time></trkpt><trkpt lat="39.51881144245486" lon="8.510662425127048"><ele>271.6666666666667</ele><time>2026-03-30T15:59:18.999Z</time></trkpt><trkpt lat="39.518805095856095" lon="8.510547841772485"><ele>269.0</ele><time>2026-03-30T15:59:19.999Z</time></trkpt><trkpt lat="39.5187757987867" lon="8.51043232971316"><ele>268.6666666666667</ele><time>2026-03-30T15:59:20.999Z</time></trkpt><trkpt lat="39.51874849775893" lon="8.510325742194357"><ele>268.33333333333337</ele><time>2026-03-30T15:59:21.999Z</time></trkpt><trkpt lat="39.51870904895383" lon="8.510250237727968"><ele>268.0</ele><time>2026-03-30T15:59:22.999Z</time></trkpt><trkpt lat="39.518608746389525" lon="8.510170424460249"><ele>267.6666666666667</ele><time>2026-03-30T15:59:24.999Z</time></trkpt><trkpt lat="39.51853986797374" lon="8.510174337295007"><ele>267.3333333333333</ele><time>2026-03-30T15:59:25.999Z</time></trkpt><trkpt lat="39.518464247595354" lon="8.510215319324674"><ele>267.0</ele><time>2026-03-30T15:59:26.999Z</time></trkpt><trkpt lat="39.518417345499024" lon="8.510312454738441"><ele>267.0</ele><time>2026-03-30T15:59:27.999Z</time></trkpt><trkpt lat="39.518358421274606" lon="8.510373668319254"><ele>267.0</ele><time>2026-03-30T15:59:28.999Z</time></trkpt><trkpt lat="39.51830089155093" lon="8.510443033857399"><ele>267.0</ele><time>2026-03-30T15:59:29.999Z</time></trkpt><trkpt lat="39.51825217124816" lon="8.510532267296314"><ele>267.0</ele><time>2026-03-30T15:59:30.999Z</time></trkpt><trkpt lat="39.518179132678796" lon="8.510601808508225"><ele>267.0</ele><time>2026-03-30T15:59:31.999Z</time></trkpt><trkpt lat="39.51811125694017" lon="8.510681694562292"><ele>267.0</ele><time>2026-03-30T15:59:32.999Z</time></trkpt><trkpt lat="39.518046632381186" lon="8.510765179651889"><ele>265.6</ele><time>2026-03-30T15:59:33.999Z</time></trkpt><trkpt lat="39.517984399066634" lon="8.510850116201405"><ele>264.2</ele><time>2026-03-30T15:59:34.999Z</time></trkpt><trkpt lat="39.51792523253621" lon="8.510939320256824"><ele>262.8</ele><time>2026-03-30T15:59:35.999Z</time></trkpt><trkpt lat="39.517881800860486" lon="8.511050073054554"><ele>261.4</ele><time>2026-03-30T15:59:36.999Z</time></trkpt><trkpt lat="39.51784935571321" lon="8.511188701958654"><ele>260.0</ele><time>2026-03-30T15:59:37.999Z</time></trkpt><trkpt lat="39.5178569773614" lon="8.511370891484198"><ele>265.25</ele><time>2026-03-30T15:59:38.999Z</time></trkpt><trkpt lat="39.51785121727322" lon="8.511549162512424"><ele>270.5</ele><time>2026-03-30T15:59:39.999Z</time></trkpt><trkpt lat="39.51781057611836" lon="8.511721557220572"><ele>275.75</ele><time>2026-03-30T15:59:40.999Z</time></trkpt><trkpt lat="39.51775323079889" lon="8.511888132924998"><ele>281.0</ele><time>2026-03-30T15:59:41.999Z</time></trkpt><trkpt lat="39.5176877029328" lon="8.512044441707541"><ele>288.25</ele><time>2026-03-30T15:59:42.999Z</time></trkpt><trkpt lat="39.51761714554988" lon="8.51218800709745"><ele>295.5</ele><time>2026-03-30T15:59:43.999Z</time></trkpt><trkpt lat="39.51754532988627" lon="8.512333795166805"><ele>302.75</ele><time>2026-03-30T15:59:44.999Z</time></trkpt><trkpt lat="39.51747763650235" lon="8.512461705379351"><ele>310.0</ele><time>2026-03-30T15:59:45.999Z</time></trkpt><trkpt lat="39.517408980335205" lon="8.512547146585776"><ele>310.0</ele><time>2026-03-30T15:59:46.999Z</time></trkpt><trkpt lat="39.51733805457355" lon="8.512594567130249"><ele>310.0</ele><time>2026-03-30T15:59:47.999Z</time></trkpt><trkpt lat="39.51725735433127" lon="8.512601266609801"><ele>310.0</ele><time>2026-03-30T15:59:48.999Z</time></trkpt><trkpt lat="39.517177786695214" lon="8.512507167497276"><ele>310.0</ele><time>2026-03-30T15:59:50Z</time></trkpt><trkpt lat="39.51708090430337" lon="8.512455277192323"><ele>310.0</ele><time>2026-03-30T15:59:51Z</time></trkpt><trkpt lat="39.516989853121274" lon="8.512388360848542"><ele>312.0</ele><time>2026-03-30T15:59:52Z</time></trkpt><trkpt lat="39.51689372976131" lon="8.512318159925108"><ele>314.0</ele><time>2026-03-30T15:59:53Z</time></trkpt><trkpt lat="39.5167877880705" lon="8.51225636235004"><ele>316.0</ele><time>2026-03-30T15:59:54Z</time></trkpt><trkpt lat="39.51669719631919" lon="8.512187079210511"><ele>318.0</ele><time>2026-03-30T15:59:55Z</time></trkpt><trkpt lat="39.51660018874378" lon="8.512128358921952"><ele>320.0</ele><time>2026-03-30T15:59:56Z</time></trkpt><trkpt lat="39.51650181182652" lon="8.512079185150938"><ele>320.6</ele><time>2026-03-30T15:59:57Z</time></trkpt><trkpt lat="39.516408405338545" lon="8.51203673054002"><ele>321.2</ele><time>2026-03-30T15:59:58Z</time></trkpt><trkpt lat="39.516309814161815" lon="8.512013679078368"><ele>321.79999999999995</ele><time>2026-03-30T15:59:59Z</time></trkpt><trkpt lat="39.51622214192553" lon="8.511935638512519"><ele>322.4</ele><time>2026-03-30T16:00:00Z</time></trkpt><trkpt lat="39.51613721176222" lon="8.511866542134516"><ele>323.0</ele><time>2026-03-30T16:00:01Z</time></trkpt><trkpt lat="39.516084021653676" lon="8.511760841902943"><ele>323.0</ele><time>2026-03-30T16:00:02Z</time></trkpt><trkpt lat="39.516063891892344" lon="8.511630239176991"><ele>323.0</ele><time>2026-03-30T16:00:03Z</time></trkpt><trkpt lat="39.51607315684412" lon="8.511494186264212"><ele>323.0</ele><time>2026-03-30T16:00:04Z</time></trkpt><trkpt lat="39.516084654333206" lon="8.511359225983988"><ele>323.0</ele><time>2026-03-30T16:00:05Z</time></trkpt><trkpt lat="39.51607120383668" lon="8.511225874884822"><ele>323.0</ele><time>2026-03-30T16:00:06Z</time></trkpt><trkpt lat="39.51601575405014" lon="8.511118348870612"><ele>320.0</ele><time>2026-03-30T16:00:07Z</time></trkpt><trkpt lat="39.515930154842295" lon="8.511046056545034"><ele>317.0</ele><time>2026-03-30T16:00:08Z</time></trkpt><trkpt lat="39.515838095886735" lon="8.510998169377544"><ele>314.0</ele><time>2026-03-30T16:00:09Z</time></trkpt><trkpt lat="39.51575484157684" lon="8.511005777809418"><ele>311.0</ele><time>2026-03-30T16:00:10Z</time></trkpt><trkpt lat="39.51568756705934" lon="8.511017230900404"><ele>308.0</ele><time>2026-03-30T16:00:11Z</time></trkpt><trkpt lat="39.51561963346893" lon="8.511024496996718"><ele>305.0</ele><time>2026-03-30T16:00:12Z</time></trkpt><trkpt lat="39.515545854464115" lon="8.511090259697042"><ele>305.0</ele><time>2026-03-30T16:00:13Z</time></trkpt><trkpt lat="39.51546942966346" lon="8.511167239032677"><ele>305.0</ele><time>2026-03-30T16:00:14Z</time></trkpt><trkpt lat="39.515404757894075" lon="8.51126077852226"><ele>305.0</ele><time>2026-03-30T16:00:15Z</time></trkpt><trkpt lat="39.515322848904646" lon="8.511344983926225"><ele>305.0</ele><time>2026-03-30T16:00:16Z</time></trkpt><trkpt lat="39.51523599134169" lon="8.511426718515702"><ele>305.0</ele><time>2026-03-30T16:00:17Z</time></trkpt><trkpt lat="39.515167211484304" lon="8.511529290274455"><ele>309.5</ele><time>2026-03-30T16:00:18Z</time></trkpt><trkpt lat="39.51510533235383" lon="8.511640041238119"><ele>314.0</ele><time>2026-03-30T16:00:19Z</time></trkpt><trkpt lat="39.51508396303396" lon="8.511787429948724"><ele>318.5</ele><time>2026-03-30T16:00:20Z</time></trkpt><trkpt lat="39.51510955463341" lon="8.511933116719232"><ele>323.0</ele><time>2026-03-30T16:00:21Z</time></trkpt><trkpt lat="39.51516493719952" lon="8.512067116563795"><ele>324.75</ele><time>2026-03-30T16:00:22Z</time></trkpt><trkpt lat="39.51524139441071" lon="8.51219988648794"><ele>326.5</ele><time>2026-03-30T16:00:23Z</time></trkpt><trkpt lat="39.51528875422875" lon="8.512349268060186"><ele>328.25</ele><time>2026-03-30T16:00:24Z</time></trkpt><trkpt lat="39.51530608385041" lon="8.51251014086436"><ele>330.0</ele><time>2026-03-30T16:00:25Z</time></trkpt><trkpt lat="39.51530659739301" lon="8.512675086085565"><ele>330.0</ele><time>2026-03-30T16:00:26Z</time></trkpt><trkpt lat="39.51531248759748" lon="8.512836517762373"><ele>330.0</ele><time>2026-03-30T16:00:27Z</time></trkpt><trkpt lat="39.51531661644924" lon="8.512990113014865"><ele>330.0</ele><time>2026-03-30T16:00:28Z</time></trkpt><trkpt lat="39.51532048012253" lon="8.513133166672116"><ele>330.0</ele><time>2026-03-30T16:00:29Z</time></trkpt><trkpt lat="39.51532482355042" lon="8.513256810418728"><ele>330.0</ele><time>2026-03-30T16:00:30Z</time></trkpt><trkpt lat="39.515325700906565" lon="8.513379606081978"><ele>332.2</ele><time>2026-03-30T16:00:31Z</time></trkpt><trkpt lat="39.51532350509743" lon="8.513499642215784"><ele>334.4</ele><time>2026-03-30T16:00:32Z</time></trkpt><trkpt lat="39.51528689704888" lon="8.513602155873741"><ele>336.6</ele><time>2026-03-30T16:00:33Z</time></trkpt><trkpt lat="39.51523118596248" lon="8.51368635502919"><ele>338.8</ele><time>2026-03-30T16:00:34Z</time></trkpt><trkpt lat="39.515149797428016" lon="8.51375745008037"><ele>341.0</ele><time>2026-03-30T16:00:35Z</time></trkpt><trkpt lat="39.51506409560927" lon="8.513840032864037"><ele>344.0</ele><time>2026-03-30T16:00:36Z</time></trkpt><trkpt lat="39.51489095890777" lon="8.513991263203339"><ele>347.0</ele><time>2026-03-30T16:00:38Z</time></trkpt><trkpt lat="39.5148075593742" lon="8.514024641556277"><ele>350.0</ele><time>2026-03-30T16:00:39Z</time></trkpt><trkpt lat="39.51471312319342" lon="8.514021323235216"><ele>353.0</ele><time>2026-03-30T16:00:40Z</time></trkpt><trkpt lat="39.51462430302982" lon="8.513959422302296"><ele>355.5</ele><time>2026-03-30T16:00:41Z</time></trkpt><trkpt lat="39.514469759165316" lon="8.513837753873673"><ele>358.0</ele><time>2026-03-30T16:00:42Z</time></trkpt><trkpt lat="39.51432928672183" lon="8.513811539775583"><ele>360.5</ele><time>2026-03-30T16:00:43Z</time></trkpt><trkpt lat="39.51422990238615" lon="8.513836593812709"><ele>363.0</ele><time>2026-03-30T16:00:44Z</time></trkpt><trkpt lat="39.51423724972745" lon="8.514000578560779"><ele>363.0</ele><time>2026-03-30T16:00:46Z</time></trkpt><trkpt lat="39.51424699161336" lon="8.514170950732414"><ele>363.0</ele><time>2026-03-30T16:00:46.999Z</time></trkpt><trkpt lat="39.514317604929566" lon="8.514305645546978"><ele>363.0</ele><time>2026-03-30T16:00:47.999Z</time></trkpt><trkpt lat="39.51438949717903" lon="8.514434242890873"><ele>363.0</ele><time>2026-03-30T16:00:48.999Z</time></trkpt><trkpt lat="39.51444095494448" lon="8.51455801916984"><ele>363.0</ele><time>2026-03-30T16:00:49.999Z</time></trkpt><trkpt lat="39.51449805178736" lon="8.514694142092333"><ele>363.0</ele><time>2026-03-30T16:00:50.999Z</time></trkpt><trkpt lat="39.5145619601488" lon="8.514831816931208"><ele>363.0</ele><time>2026-03-30T16:00:51.999Z</time></trkpt><trkpt lat="39.51464294873456" lon="8.51495515867166"><ele>363.0</ele><time>2026-03-30T16:00:52.999Z</time></trkpt><trkpt lat="39.514731788335645" lon="8.515069457261228"><ele>363.0</ele><time>2026-03-30T16:00:53.999Z</time></trkpt><trkpt lat="39.5148338481641" lon="8.515177780870136"><ele>363.0</ele><time>2026-03-30T16:00:54.999Z</time></trkpt><trkpt lat="39.514939786641115" lon="8.515258106253517"><ele>363.0</ele><time>2026-03-30T16:00:55.999Z</time></trkpt><trkpt lat="39.515029280097224" lon="8.515326491001384"><ele>363.0</ele><time>2026-03-30T16:00:56.999Z</time></trkpt><trkpt lat="39.515087994313966" lon="8.515438340015825"><ele>364.5</ele><time>2026-03-30T16:00:57.999Z</time></trkpt><trkpt lat="39.51512291490731" lon="8.515576940668785"><ele>366.0</ele><time>2026-03-30T16:00:58.999Z</time></trkpt><trkpt lat="39.51513339321764" lon="8.51572548351447"><ele>367.5</ele><time>2026-03-30T16:00:59.999Z</time></trkpt><trkpt lat="39.51512394677827" lon="8.515880399977068"><ele>369.0</ele><time>2026-03-30T16:01:00.999Z</time></trkpt><trkpt lat="39.51509709430065" lon="8.516033366880787"><ele>369.0</ele><time>2026-03-30T16:01:01.999Z</time></trkpt><trkpt lat="39.51504363648182" lon="8.51618889202719"><ele>369.0</ele><time>2026-03-30T16:01:02.999Z</time></trkpt><trkpt lat="39.51497408118714" lon="8.516342818330353"><ele>369.0</ele><time>2026-03-30T16:01:03.999Z</time></trkpt><trkpt lat="39.514891239233094" lon="8.516489488803272"><ele>369.0</ele><time>2026-03-30T16:01:04.999Z</time></trkpt><trkpt lat="39.51479096659427" lon="8.516632256126115"><ele>369.3333333333333</ele><time>2026-03-30T16:01:05.999Z</time></trkpt><trkpt lat="39.51467650564362" lon="8.51677330556763"><ele>369.66666666666663</ele><time>2026-03-30T16:01:06.999Z</time></trkpt><trkpt lat="39.51455855833801" lon="8.51689849556674"><ele>370.0</ele><time>2026-03-30T16:01:07.999Z</time></trkpt><trkpt lat="39.51445229319204" lon="8.517038512886772"><ele>375.66666666666663</ele><time>2026-03-30T16:01:08.999Z</time></trkpt><trkpt lat="39.5143713666104" lon="8.517204362315242"><ele>381.3333333333333</ele><time>2026-03-30T16:01:09.999Z</time></trkpt><trkpt lat="39.514313346962595" lon="8.517394444301592"><ele>387.0</ele><time>2026-03-30T16:01:10.999Z</time></trkpt><trkpt lat="39.51427922145317" lon="8.51758864932695"><ele>387.0</ele><time>2026-03-30T16:01:11.999Z</time></trkpt><trkpt lat="39.51427634074628" lon="8.517775204673459"><ele>387.0</ele><time>2026-03-30T16:01:12.999Z</time></trkpt><trkpt lat="39.514251346841874" lon="8.517935157005175"><ele>387.0</ele><time>2026-03-30T16:01:13.999Z</time></trkpt><trkpt lat="39.51423588114162" lon="8.518079017088786"><ele>387.0</ele><time>2026-03-30T16:01:14.999Z</time></trkpt><trkpt lat="39.51417025268042" lon="8.518180611209706"><ele>386.40000000000003</ele><time>2026-03-30T16:01:15.999Z</time></trkpt><trkpt lat="39.51407823670504" lon="8.518210800515664"><ele>385.8</ele><time>2026-03-30T16:01:16.999Z</time></trkpt><trkpt lat="39.51399152649603" lon="8.518207997733436"><ele>385.2</ele><time>2026-03-30T16:01:17.999Z</time></trkpt><trkpt lat="39.51389554755315" lon="8.518235672786664"><ele>384.6</ele><time>2026-03-30T16:01:18.999Z</time></trkpt><trkpt lat="39.51379233766154" lon="8.518245397480507"><ele>384.0</ele><time>2026-03-30T16:01:19.999Z</time></trkpt><trkpt lat="39.51368419579884" lon="8.518253494983735"><ele>386.25</ele><time>2026-03-30T16:01:20.999Z</time></trkpt><trkpt lat="39.513567242358434" lon="8.518253467893524"><ele>388.5</ele><time>2026-03-30T16:01:21.999Z</time></trkpt><trkpt lat="39.513447109264014" lon="8.518284961567247"><ele>390.75</ele><time>2026-03-30T16:01:22.999Z</time></trkpt><trkpt lat="39.51332162818504" lon="8.518320534274027"><ele>393.0</ele><time>2026-03-30T16:01:23.999Z</time></trkpt><trkpt lat="39.513192750760545" lon="8.518381023354456"><ele>393.0</ele><time>2026-03-30T16:01:24.999Z</time></trkpt><trkpt lat="39.51305875449183" lon="8.518452160516109"><ele>393.0</ele><time>2026-03-30T16:01:25.999Z</time></trkpt><trkpt lat="39.51292209456429" lon="8.518534337446297"><ele>393.0</ele><time>2026-03-30T16:01:26.999Z</time></trkpt><trkpt lat="39.51279177900907" lon="8.518607925497479"><ele>393.0</ele><time>2026-03-30T16:01:27.999Z</time></trkpt><trkpt lat="39.512648284207934" lon="8.518677396241886"><ele>393.33333333333337</ele><time>2026-03-30T16:01:28.999Z</time></trkpt><trkpt lat="39.51250068481706" lon="8.518724658612507"><ele>393.6666666666667</ele><time>2026-03-30T16:01:30Z</time></trkpt><trkpt lat="39.51234760811049" lon="8.51878406055463"><ele>394.0</ele><time>2026-03-30T16:01:31Z</time></trkpt><trkpt lat="39.51218485858895" lon="8.518823655527964"><ele>396.0</ele><time>2026-03-30T16:01:32Z</time></trkpt><trkpt lat="39.51202520198345" lon="8.518816885537765"><ele>398.0</ele><time>2026-03-30T16:01:33Z</time></trkpt><trkpt lat="39.511860925293675" lon="8.518841895653697"><ele>400.0</ele><time>2026-03-30T16:01:34Z</time></trkpt><trkpt lat="39.5117061549177" lon="8.518788693609736"><ele>403.33333333333337</ele><time>2026-03-30T16:01:35Z</time></trkpt><trkpt lat="39.51154486258132" lon="8.518724123228381"><ele>406.66666666666663</ele><time>2026-03-30T16:01:36Z</time></trkpt><trkpt lat="39.51138468387097" lon="8.51865849351295"><ele>410.0</ele><time>2026-03-30T16:01:37Z</time></trkpt><trkpt lat="39.5112614235998" lon="8.518587238857974"><ele>409.8</ele><time>2026-03-30T16:01:38Z</time></trkpt><trkpt lat="39.5111525933711" lon="8.518581229239112"><ele>409.6</ele><time>2026-03-30T16:01:39Z</time></trkpt><trkpt lat="39.51106593499371" lon="8.518633782291959"><ele>409.4</ele><time>2026-03-30T16:01:40Z</time></trkpt><trkpt lat="39.510997116778746" lon="8.51871963246528"><ele>409.2</ele><time>2026-03-30T16:01:41Z</time></trkpt><trkpt lat="39.51094566331449" lon="8.518823895822484"><ele>409.0</ele><time>2026-03-30T16:01:42Z</time></trkpt><trkpt lat="39.5109331185286" lon="8.518924211153207"><ele>408.0</ele><time>2026-03-30T16:01:43Z</time></trkpt><trkpt lat="39.51093120567298" lon="8.51903492966937"><ele>407.0</ele><time>2026-03-30T16:01:44Z</time></trkpt><trkpt lat="39.51095733672852" lon="8.519143871124442"><ele>406.0</ele><time>2026-03-30T16:01:45Z</time></trkpt><trkpt lat="39.510992863600386" lon="8.519224502156103"><ele>405.0</ele><time>2026-03-30T16:01:46Z</time></trkpt><trkpt lat="39.511072495599755" lon="8.519364105234303"><ele>404.0</ele><time>2026-03-30T16:01:48Z</time></trkpt><trkpt lat="39.51113435109599" lon="8.519459504972934"><ele>405.0</ele><time>2026-03-30T16:01:49Z</time></trkpt><trkpt lat="39.511205998267826" lon="8.519569398563128"><ele>406.0</ele><time>2026-03-30T16:01:50Z</time></trkpt><trkpt lat="39.511291399532816" lon="8.51966579458668"><ele>407.0</ele><time>2026-03-30T16:01:51Z</time></trkpt><trkpt lat="39.511368407873974" lon="8.519781658478092"><ele>408.0</ele><time>2026-03-30T16:01:52Z</time></trkpt><trkpt lat="39.51145033743315" lon="8.51988364107003"><ele>408.0</ele><time>2026-03-30T16:01:53Z</time></trkpt><trkpt lat="39.51154343725594" lon="8.519964812283323"><ele>408.0</ele><time>2026-03-30T16:01:54Z</time></trkpt><trkpt lat="39.51165319164729" lon="8.520024005877083"><ele>408.0</ele><time>2026-03-30T16:01:55Z</time></trkpt><trkpt lat="39.51178045401546" lon="8.52006236033234"><ele>408.0</ele><time>2026-03-30T16:01:56Z</time></trkpt><trkpt lat="39.511918835654534" lon="8.520077229453722"><ele>408.0</ele><time>2026-03-30T16:01:57Z</time></trkpt><trkpt lat="39.51206473796211" lon="8.520063915631747"><ele>408.0</ele><time>2026-03-30T16:01:58Z</time></trkpt><trkpt lat="39.512205074397485" lon="8.520043062895134"><ele>408.0</ele><time>2026-03-30T16:01:59Z</time></trkpt><trkpt lat="39.51235098266872" lon="8.520040652362106"><ele>408.0</ele><time>2026-03-30T16:02:00Z</time></trkpt><trkpt lat="39.51249290003593" lon="8.520059648812108"><ele>407.5</ele><time>2026-03-30T16:02:01Z</time></trkpt><trkpt lat="39.512616150972995" lon="8.52014359482537"><ele>407.0</ele><time>2026-03-30T16:02:02Z</time></trkpt><trkpt lat="39.51275077481623" lon="8.520207830773078"><ele>406.5</ele><time>2026-03-30T16:02:03Z</time></trkpt><trkpt lat="39.51286677920425" lon="8.520324228171217"><ele>406.0</ele><time>2026-03-30T16:02:04Z</time></trkpt><trkpt lat="39.51298307394598" lon="8.520450773605699"><ele>408.25</ele><time>2026-03-30T16:02:05Z</time></trkpt><trkpt lat="39.51308926439251" lon="8.520596339808781"><ele>410.5</ele><time>2026-03-30T16:02:06Z</time></trkpt><trkpt lat="39.513168932333734" lon="8.520755136913946"><ele>412.75</ele><time>2026-03-30T16:02:07Z</time></trkpt><trkpt lat="39.513197792712646" lon="8.520938200356609"><ele>415.0</ele><time>2026-03-30T16:02:08Z</time></trkpt><trkpt lat="39.51321256126757" lon="8.521113366232127"><ele>416.5</ele><time>2026-03-30T16:02:09Z</time></trkpt><trkpt lat="39.513198873904116" lon="8.521280260019092"><ele>418.0</ele><time>2026-03-30T16:02:10Z</time></trkpt><trkpt lat="39.513152868385724" lon="8.521436652584491"><ele>419.5</ele><time>2026-03-30T16:02:11Z</time></trkpt><trkpt lat="39.5130940314388" lon="8.521603949358141"><ele>421.0</ele><time>2026-03-30T16:02:12Z</time></trkpt><trkpt lat="39.51302820845838" lon="8.52178283602196"><ele>421.0</ele><time>2026-03-30T16:02:13Z</time></trkpt><trkpt lat="39.51297255414514" lon="8.521976639017957"><ele>421.0</ele><time>2026-03-30T16:02:14Z</time></trkpt><trkpt lat="39.51289443606719" lon="8.522167789658212"><ele>421.0</ele><time>2026-03-30T16:02:15Z</time></trkpt><trkpt lat="39.512820587896" lon="8.522370759030126"><ele>426.6666666666667</ele><time>2026-03-30T16:02:16Z</time></trkpt><trkpt lat="39.51275157495386" lon="8.52257380657997"><ele>432.33333333333337</ele><time>2026-03-30T16:02:17Z</time></trkpt><trkpt lat="39.51269293330103" lon="8.522769914612011"><ele>438.0</ele><time>2026-03-30T16:02:18Z</time></trkpt><trkpt lat="39.512654154315086" lon="8.522956371561694"><ele>439.25</ele><time>2026-03-30T16:02:19Z</time></trkpt><trkpt lat="39.512643107902235" lon="8.523135582810008"><ele>440.5</ele><time>2026-03-30T16:02:20Z</time></trkpt><trkpt lat="39.51267358423403" lon="8.523314211890153"><ele>441.75</ele><time>2026-03-30T16:02:21Z</time></trkpt><trkpt lat="39.512742278774724" lon="8.523484490891565"><ele>443.0</ele><time>2026-03-30T16:02:22Z</time></trkpt><trkpt lat="39.51283293353404" lon="8.523642601939835"><ele>440.3333333333333</ele><time>2026-03-30T16:02:23Z</time></trkpt><trkpt lat="39.5129236161055" lon="8.523804533024975"><ele>437.66666666666663</ele><time>2026-03-30T16:02:24Z</time></trkpt><trkpt lat="39.51298897395118" lon="8.523983399810772"><ele>435.0</ele><time>2026-03-30T16:02:25Z</time></trkpt><trkpt lat="39.512996372549765" lon="8.524178783207406"><ele>435.0</ele><time>2026-03-30T16:02:26Z</time></trkpt><trkpt lat="39.51300620590815" lon="8.524376174904978"><ele>435.0</ele><time>2026-03-30T16:02:27Z</time></trkpt><trkpt lat="39.51302254898727" lon="8.524566392850552"><ele>435.0</ele><time>2026-03-30T16:02:28Z</time></trkpt><trkpt lat="39.513049649155754" lon="8.52475006322227"><ele>435.0</ele><time>2026-03-30T16:02:29Z</time></trkpt><trkpt lat="39.51322261739369" lon="8.52506616793118"><ele>436.75</ele><time>2026-03-30T16:02:31Z</time></trkpt><trkpt lat="39.513336093067046" lon="8.525194575322455"><ele>438.5</ele><time>2026-03-30T16:02:32Z</time></trkpt><trkpt lat="39.51344088978232" lon="8.52531806441379"><ele>440.25</ele><time>2026-03-30T16:02:33Z</time></trkpt><trkpt lat="39.51351015096946" lon="8.52546360474997"><ele>442.0</ele><time>2026-03-30T16:02:34Z</time></trkpt><trkpt lat="39.51355371705105" lon="8.525623873830167"><ele>445.0</ele><time>2026-03-30T16:02:35Z</time></trkpt><trkpt lat="39.513554668546405" lon="8.525792937520135"><ele>448.0</ele><time>2026-03-30T16:02:36Z</time></trkpt><trkpt lat="39.51355463293052" lon="8.52595765138419"><ele>451.0</ele><time>2026-03-30T16:02:37Z</time></trkpt><trkpt lat="39.513569472985544" lon="8.52610045960221"><ele>454.0</ele><time>2026-03-30T16:02:38Z</time></trkpt><trkpt lat="39.5135620073315" lon="8.526221079098141"><ele>454.6</ele><time>2026-03-30T16:02:39Z</time></trkpt><trkpt lat="39.51356350689581" lon="8.526349490769478"><ele>455.2</ele><time>2026-03-30T16:02:40Z</time></trkpt><trkpt lat="39.513565777274074" lon="8.526487776617623"><ele>455.80000000000007</ele><time>2026-03-30T16:02:41Z</time></trkpt><trkpt lat="39.51356955918386" lon="8.526633565081628"><ele>456.40000000000003</ele><time>2026-03-30T16:02:42Z</time></trkpt><trkpt lat="39.51356961832854" lon="8.526799049496935"><ele>457.0</ele><time>2026-03-30T16:02:43Z</time></trkpt><trkpt lat="39.51356679849266" lon="8.526982769073014"><ele>458.0</ele><time>2026-03-30T16:02:44Z</time></trkpt><trkpt lat="39.5135684299447" lon="8.527177900223693"><ele>459.0</ele><time>2026-03-30T16:02:45Z</time></trkpt><trkpt lat="39.51356841774882" lon="8.527371078370996"><ele>460.0</ele><time>2026-03-30T16:02:46Z</time></trkpt><trkpt lat="39.513567551573026" lon="8.527556900023045"><ele>461.0</ele><time>2026-03-30T16:02:47Z</time></trkpt><trkpt lat="39.513553490544304" lon="8.527735509671333"><ele>461.5</ele><time>2026-03-30T16:02:48Z</time></trkpt><trkpt lat="39.513521083936126" lon="8.527904239112203"><ele>462.0</ele><time>2026-03-30T16:02:49Z</time></trkpt><trkpt lat="39.51346860357761" lon="8.528063155569653"><ele>462.5</ele><time>2026-03-30T16:02:50Z</time></trkpt><trkpt lat="39.513398474119484" lon="8.52821834163919"><ele>463.0</ele><time>2026-03-30T16:02:51Z</time></trkpt><trkpt lat="39.513305363992934" lon="8.528367747544054"><ele>463.0</ele><time>2026-03-30T16:02:52Z</time></trkpt><trkpt lat="39.51319346365414" lon="8.52850373630972"><ele>463.0</ele><time>2026-03-30T16:02:53Z</time></trkpt><trkpt lat="39.51308463283276" lon="8.528636552806883"><ele>463.0</ele><time>2026-03-30T16:02:54Z</time></trkpt><trkpt lat="39.512979011766554" lon="8.528757224820707"><ele>463.0</ele><time>2026-03-30T16:02:55Z</time></trkpt><trkpt lat="39.51291062332794" lon="8.528910920204757"><ele>462.25</ele><time>2026-03-30T16:02:56Z</time></trkpt><trkpt lat="39.512849358849365" lon="8.529065112838534"><ele>461.5</ele><time>2026-03-30T16:02:57Z</time></trkpt><trkpt lat="39.512804056937355" lon="8.529239834492616"><ele>460.75</ele><time>2026-03-30T16:02:58Z</time></trkpt><trkpt lat="39.512756633625855" lon="8.529414432559415"><ele>460.0</ele><time>2026-03-30T16:02:59Z</time></trkpt><trkpt lat="39.512772893431766" lon="8.529608231343827"><ele>459.25</ele><time>2026-03-30T16:03:00Z</time></trkpt><trkpt lat="39.51279745254913" lon="8.529803092604304"><ele>458.5</ele><time>2026-03-30T16:03:01Z</time></trkpt><trkpt lat="39.51282884362977" lon="8.529991374730885"><ele>457.75</ele><time>2026-03-30T16:03:02Z</time></trkpt><trkpt lat="39.51284557217388" lon="8.530163245976144"><ele>457.0</ele><time>2026-03-30T16:03:03Z</time></trkpt><trkpt lat="39.51283146437203" lon="8.53032830732526"><ele>456.5</ele><time>2026-03-30T16:03:04Z</time></trkpt><trkpt lat="39.51279030289564" lon="8.530487754813956"><ele>456.0</ele><time>2026-03-30T16:03:05Z</time></trkpt><trkpt lat="39.5127275117976" lon="8.530642657233193"><ele>455.5</ele><time>2026-03-30T16:03:06Z</time></trkpt><trkpt lat="39.512655981664565" lon="8.530800698341586"><ele>455.0</ele><time>2026-03-30T16:03:07Z</time></trkpt><trkpt lat="39.5125785531857" lon="8.5309664241839"><ele>455.0</ele><time>2026-03-30T16:03:08Z</time></trkpt><trkpt lat="39.51250739454535" lon="8.5311458607306"><ele>455.0</ele><time>2026-03-30T16:03:09Z</time></trkpt><trkpt lat="39.51244429453715" lon="8.531312207476452"><ele>455.0</ele><time>2026-03-30T16:03:10Z</time></trkpt><trkpt lat="39.512370080309005" lon="8.53150008237964"><ele>454.0</ele><time>2026-03-30T16:03:11Z</time></trkpt><trkpt lat="39.512293064416774" lon="8.531695049734836"><ele>453.0</ele><time>2026-03-30T16:03:12Z</time></trkpt><trkpt lat="39.51221657913714" lon="8.531888673992253"><ele>452.0</ele><time>2026-03-30T16:03:13Z</time></trkpt><trkpt lat="39.51213767359846" lon="8.532086696023143"><ele>450.3333333333333</ele><time>2026-03-30T16:03:14Z</time></trkpt><trkpt lat="39.512054009900716" lon="8.532275011299433"><ele>448.66666666666663</ele><time>2026-03-30T16:03:15Z</time></trkpt><trkpt lat="39.511963303656" lon="8.532429888883819"><ele>447.0</ele><time>2026-03-30T16:03:16Z</time></trkpt><trkpt lat="39.51185124729843" lon="8.532556525048049"><ele>447.0</ele><time>2026-03-30T16:03:17Z</time></trkpt><trkpt lat="39.5117216313419" lon="8.532663307654138"><ele>447.0</ele><time>2026-03-30T16:03:18Z</time></trkpt><trkpt lat="39.511586206765536" lon="8.532745933418429"><ele>447.0</ele><time>2026-03-30T16:03:19Z</time></trkpt><trkpt lat="39.51143449434901" lon="8.532818747047372"><ele>448.33333333333337</ele><time>2026-03-30T16:03:20Z</time></trkpt><trkpt lat="39.51128879428737" lon="8.532890355924478"><ele>449.6666666666667</ele><time>2026-03-30T16:03:21Z</time></trkpt><trkpt lat="39.51115283829753" lon="8.532973097498218"><ele>451.0</ele><time>2026-03-30T16:03:22Z</time></trkpt><trkpt lat="39.511029445156915" lon="8.533086071998602"><ele>448.25</ele><time>2026-03-30T16:03:23Z</time></trkpt><trkpt lat="39.51093057386601" lon="8.533230002841007"><ele>445.5</ele><time>2026-03-30T16:03:24Z</time></trkpt><trkpt lat="39.51083676464008" lon="8.53337634715376"><ele>442.75</ele><time>2026-03-30T16:03:25Z</time></trkpt><trkpt lat="39.5107625773096" lon="8.533541266454531"><ele>440.0</ele><time>2026-03-30T16:03:26Z</time></trkpt><trkpt lat="39.51070579147418" lon="8.533719883207382"><ele>439.66666666666663</ele><time>2026-03-30T16:03:27Z</time></trkpt><trkpt lat="39.510657347763114" lon="8.533914248403251"><ele>439.33333333333337</ele><time>2026-03-30T16:03:28Z</time></trkpt><trkpt lat="39.510615008304285" lon="8.534116252748868"><ele>439.0</ele><time>2026-03-30T16:03:29Z</time></trkpt><trkpt lat="39.510566928520376" lon="8.534314297759048"><ele>439.0</ele><time>2026-03-30T16:03:30Z</time></trkpt><trkpt lat="39.51050517722031" lon="8.534521168005922"><ele>439.0</ele><time>2026-03-30T16:03:31Z</time></trkpt><trkpt lat="39.51041091841516" lon="8.534696693729932"><ele>439.0</ele><time>2026-03-30T16:03:32Z</time></trkpt><trkpt lat="39.51031272395688" lon="8.534870489692683"><ele>436.0</ele><time>2026-03-30T16:03:33Z</time></trkpt><trkpt lat="39.51021658958236" lon="8.535043119553729"><ele>433.0</ele><time>2026-03-30T16:03:34Z</time></trkpt><trkpt lat="39.5100852443825" lon="8.535174617748597"><ele>430.0</ele><time>2026-03-30T16:03:35Z</time></trkpt><trkpt lat="39.50996134874587" lon="8.535308981444498"><ele>430.6666666666667</ele><time>2026-03-30T16:03:36Z</time></trkpt><trkpt lat="39.50983977960521" lon="8.535449336126371"><ele>431.33333333333337</ele><time>2026-03-30T16:03:37Z</time></trkpt><trkpt lat="39.50970631480878" lon="8.535565693813876"><ele>432.0</ele><time>2026-03-30T16:03:38Z</time></trkpt><trkpt lat="39.50958528712311" lon="8.535697193097091"><ele>428.33333333333337</ele><time>2026-03-30T16:03:39Z</time></trkpt><trkpt lat="39.50947780947086" lon="8.535867780014076"><ele>424.6666666666667</ele><time>2026-03-30T16:03:40Z</time></trkpt><trkpt lat="39.50943256647739" lon="8.536073708355561"><ele>421.0</ele><time>2026-03-30T16:03:41Z</time></trkpt><trkpt lat="39.5093563053904" lon="8.53625585030442"><ele>421.0</ele><time>2026-03-30T16:03:42Z</time></trkpt><trkpt lat="39.50928884786763" lon="8.536420616901873"><ele>421.0</ele><time>2026-03-30T16:03:43Z</time></trkpt><trkpt lat="39.50922513281407" lon="8.53657519791829"><ele>421.0</ele><time>2026-03-30T16:03:44Z</time></trkpt><trkpt lat="39.50914066314289" lon="8.53678013087731"><ele>421.0</ele><time>2026-03-30T16:03:45Z</time></trkpt><trkpt lat="39.50903333755154" lon="8.537043064397226"><ele>421.0</ele><time>2026-03-30T16:03:46Z</time></trkpt><trkpt lat="39.508924107810685" lon="8.537257899223112"><ele>421.0</ele><time>2026-03-30T16:03:47Z</time></trkpt><trkpt lat="39.508804768699456" lon="8.537470633479838"><ele>420.0</ele><time>2026-03-30T16:03:48Z</time></trkpt><trkpt lat="39.508772965452444" lon="8.537701453999764"><ele>419.0</ele><time>2026-03-30T16:03:49Z</time></trkpt><trkpt lat="39.508731268949674" lon="8.53792933710752"><ele>418.0</ele><time>2026-03-30T16:03:50Z</time></trkpt><trkpt lat="39.50865966270804" lon="8.538158739820583"><ele>416.0</ele><time>2026-03-30T16:03:51Z</time></trkpt><trkpt lat="39.508590498402334" lon="8.53838031941402"><ele>414.0</ele><time>2026-03-30T16:03:52Z</time></trkpt><trkpt lat="39.50852586259939" lon="8.53858739167449"><ele>412.0</ele><time>2026-03-30T16:03:53Z</time></trkpt><trkpt lat="39.508461381501405" lon="8.538794912846372"><ele>412.0</ele><time>2026-03-30T16:03:54Z</time></trkpt><trkpt lat="39.5084018453168" lon="8.538986890381347"><ele>412.0</ele><time>2026-03-30T16:03:55Z</time></trkpt><trkpt lat="39.5083420277856" lon="8.539179775123072"><ele>412.0</ele><time>2026-03-30T16:03:56Z</time></trkpt><trkpt lat="39.50828236470224" lon="8.539371609416605"><ele>413.0</ele><time>2026-03-30T16:03:57Z</time></trkpt><trkpt lat="39.508223975860346" lon="8.539558426076018"><ele>414.0</ele><time>2026-03-30T16:03:58Z</time></trkpt><trkpt lat="39.508165120712405" lon="8.539746734706931"><ele>415.0</ele><time>2026-03-30T16:03:59Z</time></trkpt><trkpt lat="39.508106046995316" lon="8.539935742643573"><ele>415.0</ele><time>2026-03-30T16:04:00Z</time></trkpt><trkpt lat="39.50804708109708" lon="8.540124890141485"><ele>415.0</ele><time>2026-03-30T16:04:01Z</time></trkpt><trkpt lat="39.507930612746485" lon="8.54050643639779"><ele>411.0</ele><time>2026-03-30T16:04:03Z</time></trkpt><trkpt lat="39.507865679854795" lon="8.540688750880165"><ele>407.0</ele><time>2026-03-30T16:04:04Z</time></trkpt><trkpt lat="39.50778490709269" lon="8.540857321606973"><ele>403.0</ele><time>2026-03-30T16:04:05Z</time></trkpt><trkpt lat="39.50769690091864" lon="8.54102420769773"><ele>403.0</ele><time>2026-03-30T16:04:06Z</time></trkpt><trkpt lat="39.5076175501854" lon="8.541197550104815"><ele>403.0</ele><time>2026-03-30T16:04:07Z</time></trkpt><trkpt lat="39.50750853898841" lon="8.541327613317035"><ele>403.0</ele><time>2026-03-30T16:04:08Z</time></trkpt><trkpt lat="39.50740549178601" lon="8.541452117693924"><ele>403.0</ele><time>2026-03-30T16:04:09Z</time></trkpt><trkpt lat="39.507290138170376" lon="8.541564866920806"><ele>403.33333333333337</ele><time>2026-03-30T16:04:10Z</time></trkpt><trkpt lat="39.507155269464455" lon="8.54167853748353"><ele>403.66666666666663</ele><time>2026-03-30T16:04:11Z</time></trkpt><trkpt lat="39.50702488501477" lon="8.541807423385533"><ele>404.0</ele><time>2026-03-30T16:04:12Z</time></trkpt><trkpt lat="39.506873075715745" lon="8.541910499601935"><ele>403.5</ele><time>2026-03-30T16:04:13Z</time></trkpt><trkpt lat="39.50673717314073" lon="8.542026863615588"><ele>403.0</ele><time>2026-03-30T16:04:14Z</time></trkpt><trkpt lat="39.50662950200024" lon="8.542134490738194"><ele>402.5</ele><time>2026-03-30T16:04:15Z</time></trkpt><trkpt lat="39.50652758387019" lon="8.54220593343671"><ele>402.0</ele><time>2026-03-30T16:04:16Z</time></trkpt><trkpt lat="39.50644592186261" lon="8.542250126946579"><ele>402.0</ele><time>2026-03-30T16:04:17Z</time></trkpt><trkpt lat="39.50635925300154" lon="8.542228647588287"><ele>402.0</ele><time>2026-03-30T16:04:18Z</time></trkpt><trkpt lat="39.506243124121625" lon="8.54223610360096"><ele>402.0</ele><time>2026-03-30T16:04:19Z</time></trkpt><trkpt lat="39.50616007620876" lon="8.542273254978166"><ele>402.0</ele><time>2026-03-30T16:04:20Z</time></trkpt><trkpt lat="39.506046771643945" lon="8.542173915515475"><ele>402.0</ele><time>2026-03-30T16:04:21Z</time></trkpt><trkpt lat="39.50600248059462" lon="8.542074821627898"><ele>401.20000000000005</ele><time>2026-03-30T16:04:22Z</time></trkpt><trkpt lat="39.50595828371487" lon="8.541968273441315"><ele>400.4</ele><time>2026-03-30T16:04:23Z</time></trkpt><trkpt lat="39.50591253887997" lon="8.54185101613197"><ele>399.6</ele><time>2026-03-30T16:04:24Z</time></trkpt><trkpt lat="39.50586430387097" lon="8.541716239669183"><ele>398.79999999999995</ele><time>2026-03-30T16:04:25Z</time></trkpt><trkpt lat="39.50581357488318" lon="8.541565840343656"><ele>398.0</ele><time>2026-03-30T16:04:26Z</time></trkpt><trkpt lat="39.50576262580834" lon="8.541412023434184"><ele>398.0</ele><time>2026-03-30T16:04:27Z</time></trkpt><trkpt lat="39.50571550448358" lon="8.541259440577285"><ele>398.0</ele><time>2026-03-30T16:04:28Z</time></trkpt><trkpt lat="39.5056619007388" lon="8.541104697869253"><ele>398.0</ele><time>2026-03-30T16:04:29Z</time></trkpt><trkpt lat="39.50560113792804" lon="8.540944700268495"><ele>398.0</ele><time>2026-03-30T16:04:30Z</time></trkpt><trkpt lat="39.505539087795626" lon="8.540783332323553"><ele>398.5</ele><time>2026-03-30T16:04:31Z</time></trkpt><trkpt lat="39.50547713316146" lon="8.540613661131792"><ele>399.0</ele><time>2026-03-30T16:04:32Z</time></trkpt><trkpt lat="39.50543369137634" lon="8.54044255402605"><ele>399.5</ele><time>2026-03-30T16:04:33Z</time></trkpt><trkpt lat="39.50535128963278" lon="8.540256986979022"><ele>400.0</ele><time>2026-03-30T16:04:34Z</time></trkpt><trkpt lat="39.50528580605646" lon="8.540074047868673"><ele>400.6666666666667</ele><time>2026-03-30T16:04:35Z</time></trkpt><trkpt lat="39.5052204196813" lon="8.539889023305959"><ele>401.33333333333337</ele><time>2026-03-30T16:04:36Z</time></trkpt><trkpt lat="39.50515309795294" lon="8.539702973479919"><ele>402.0</ele><time>2026-03-30T16:04:37Z</time></trkpt><trkpt lat="39.505079511405214" lon="8.539514575294614"><ele>403.0</ele><time>2026-03-30T16:04:38Z</time></trkpt><trkpt lat="39.50501553862045" lon="8.539324693100978"><ele>404.0</ele><time>2026-03-30T16:04:39Z</time></trkpt><trkpt lat="39.50494943732885" lon="8.539159962697063"><ele>405.0</ele><time>2026-03-30T16:04:40Z</time></trkpt><trkpt lat="39.504864009035536" lon="8.53901632602068"><ele>406.0</ele><time>2026-03-30T16:04:41Z</time></trkpt><trkpt lat="39.50474836296708" lon="8.53890734455783"><ele>406.0</ele><time>2026-03-30T16:04:42Z</time></trkpt><trkpt lat="39.50461527798931" lon="8.538837772822838"><ele>406.0</ele><time>2026-03-30T16:04:43Z</time></trkpt><trkpt lat="39.504475979208664" lon="8.53878769065432"><ele>406.0</ele><time>2026-03-30T16:04:44Z</time></trkpt><trkpt lat="39.50433984682713" lon="8.538731877229285"><ele>406.0</ele><time>2026-03-30T16:04:45Z</time></trkpt><trkpt lat="39.50420490627005" lon="8.538666125457668"><ele>406.0</ele><time>2026-03-30T16:04:46Z</time></trkpt><trkpt lat="39.504067255825504" lon="8.538589286355636"><ele>406.0</ele><time>2026-03-30T16:04:47Z</time></trkpt><trkpt lat="39.50392909431641" lon="8.538519278894697"><ele>406.0</ele><time>2026-03-30T16:04:48Z</time></trkpt><trkpt lat="39.503808416041004" lon="8.538441290050477"><ele>406.0</ele><time>2026-03-30T16:04:49Z</time></trkpt><trkpt lat="39.50369906898242" lon="8.538346011423423"><ele>406.0</ele><time>2026-03-30T16:04:50Z</time></trkpt><trkpt lat="39.50361201417974" lon="8.538211698882975"><ele>406.0</ele><time>2026-03-30T16:04:51Z</time></trkpt><trkpt lat="39.50355337786806" lon="8.538041067261531"><ele>406.0</ele><time>2026-03-30T16:04:52Z</time></trkpt><trkpt lat="39.50349569434537" lon="8.537866589213161"><ele>406.0</ele><time>2026-03-30T16:04:53Z</time></trkpt><trkpt lat="39.50342383898027" lon="8.537699361461028"><ele>407.6666666666667</ele><time>2026-03-30T16:04:54Z</time></trkpt><trkpt lat="39.50335183704247" lon="8.53752957594339"><ele>409.33333333333337</ele><time>2026-03-30T16:04:55Z</time></trkpt><trkpt lat="39.503286853081484" lon="8.537355941226057"><ele>411.0</ele><time>2026-03-30T16:04:56Z</time></trkpt><trkpt lat="39.5032514667991" lon="8.537164593722386"><ele>412.33333333333337</ele><time>2026-03-30T16:04:57Z</time></trkpt><trkpt lat="39.503259644979295" lon="8.536962880857123"><ele>413.6666666666667</ele><time>2026-03-30T16:04:58Z</time></trkpt><trkpt lat="39.5032854720409" lon="8.536762482494517"><ele>415.0</ele><time>2026-03-30T16:04:59Z</time></trkpt><trkpt lat="39.5033102982394" lon="8.536556876103448"><ele>415.0</ele><time>2026-03-30T16:05:00Z</time></trkpt><trkpt lat="39.50333363132828" lon="8.536351525819438"><ele>415.0</ele><time>2026-03-30T16:05:01Z</time></trkpt><trkpt lat="39.503349919625485" lon="8.536143647584966"><ele>415.0</ele><time>2026-03-30T16:05:02Z</time></trkpt><trkpt lat="39.50337009829573" lon="8.535935517481182"><ele>415.0</ele><time>2026-03-30T16:05:03Z</time></trkpt><trkpt lat="39.503389438740335" lon="8.535720962112746"><ele>415.0</ele><time>2026-03-30T16:05:04Z</time></trkpt><trkpt lat="39.50342417224052" lon="8.535511639329833"><ele>415.0</ele><time>2026-03-30T16:05:05Z</time></trkpt><trkpt lat="39.503476190891554" lon="8.535318001777002"><ele>414.5</ele><time>2026-03-30T16:05:06Z</time></trkpt><trkpt lat="39.503553408863404" lon="8.535143849641228"><ele>414.0</ele><time>2026-03-30T16:05:07Z</time></trkpt><trkpt lat="39.50362526831185" lon="8.534980038928646"><ele>413.5</ele><time>2026-03-30T16:05:08Z</time></trkpt><trkpt lat="39.50364865936952" lon="8.534802217279974"><ele>413.0</ele><time>2026-03-30T16:05:09Z</time></trkpt><trkpt lat="39.50362517257463" lon="8.53461055119205"><ele>411.66666666666663</ele><time>2026-03-30T16:05:10Z</time></trkpt><trkpt lat="39.50358563836679" lon="8.534418774252172"><ele>410.33333333333337</ele><time>2026-03-30T16:05:11Z</time></trkpt><trkpt lat="39.5035420403606" lon="8.534227478847559"><ele>409.0</ele><time>2026-03-30T16:05:12Z</time></trkpt><trkpt lat="39.503530399219514" lon="8.534032203776729"><ele>409.0</ele><time>2026-03-30T16:05:13Z</time></trkpt><trkpt lat="39.503568831037484" lon="8.533869077285843"><ele>409.0</ele><time>2026-03-30T16:05:14Z</time></trkpt><trkpt lat="39.503670528126776" lon="8.533740190886254"><ele>409.0</ele><time>2026-03-30T16:05:15Z</time></trkpt><trkpt lat="39.503768463970474" lon="8.533589028996383"><ele>409.0</ele><time>2026-03-30T16:05:16Z</time></trkpt><trkpt lat="39.503890842980574" lon="8.533473218667236"><ele>409.75</ele><time>2026-03-30T16:05:17Z</time></trkpt><trkpt lat="39.504001421074186" lon="8.533347939859292"><ele>410.5</ele><time>2026-03-30T16:05:18Z</time></trkpt><trkpt lat="39.50408695241843" lon="8.533227771871461"><ele>411.25</ele><time>2026-03-30T16:05:19Z</time></trkpt><trkpt lat="39.50414454509091" lon="8.53309459159777"><ele>412.0</ele><time>2026-03-30T16:05:20Z</time></trkpt><trkpt lat="39.504138884672216" lon="8.532922728222688"><ele>411.0</ele><time>2026-03-30T16:05:21Z</time></trkpt><trkpt lat="39.50408719011497" lon="8.532754186306747"><ele>410.0</ele><time>2026-03-30T16:05:22Z</time></trkpt><trkpt lat="39.50400442813953" lon="8.532601368031303"><ele>409.0</ele><time>2026-03-30T16:05:23Z</time></trkpt><trkpt lat="39.503919300137845" lon="8.532446012548375"><ele>408.0</ele><time>2026-03-30T16:05:24Z</time></trkpt><trkpt lat="39.50381430437323" lon="8.532316726895898"><ele>408.0</ele><time>2026-03-30T16:05:25Z</time></trkpt><trkpt lat="39.50368341355963" lon="8.532214654425832"><ele>408.0</ele><time>2026-03-30T16:05:26Z</time></trkpt><trkpt lat="39.503545584326595" lon="8.53211987272325"><ele>408.0</ele><time>2026-03-30T16:05:27Z</time></trkpt><trkpt lat="39.50341303662953" lon="8.532008370565716"><ele>409.0</ele><time>2026-03-30T16:05:28Z</time></trkpt><trkpt lat="39.503277320559626" lon="8.531891406722968"><ele>410.0</ele><time>2026-03-30T16:05:29Z</time></trkpt><trkpt lat="39.50313930165585" lon="8.531778909902215"><ele>411.0</ele><time>2026-03-30T16:05:30Z</time></trkpt><trkpt lat="39.50299362591064" lon="8.531682043904974"><ele>412.0</ele><time>2026-03-30T16:05:31Z</time></trkpt><trkpt lat="39.502836021007845" lon="8.531612821465366"><ele>413.0</ele><time>2026-03-30T16:05:32Z</time></trkpt><trkpt lat="39.502672256577775" lon="8.531565005224547"><ele>414.0</ele><time>2026-03-30T16:05:33Z</time></trkpt><trkpt lat="39.50251144467695" lon="8.531524241951086"><ele>414.0</ele><time>2026-03-30T16:05:34Z</time></trkpt><trkpt lat="39.50234839417964" lon="8.53147867805479"><ele>414.0</ele><time>2026-03-30T16:05:35Z</time></trkpt><trkpt lat="39.50218176295527" lon="8.53141826431689"><ele>414.0</ele><time>2026-03-30T16:05:36Z</time></trkpt><trkpt lat="39.50202426807223" lon="8.53137311453319"><ele>413.33333333333337</ele><time>2026-03-30T16:05:37Z</time></trkpt><trkpt lat="39.50186742126171" lon="8.531319109883427"><ele>412.6666666666667</ele><time>2026-03-30T16:05:38Z</time></trkpt><trkpt lat="39.501711004788056" lon="8.531271249893415"><ele>412.0</ele><time>2026-03-30T16:05:39Z</time></trkpt><trkpt lat="39.50156873021945" lon="8.531217451949892"><ele>413.5</ele><time>2026-03-30T16:05:40Z</time></trkpt><trkpt lat="39.5014504675109" lon="8.531136212275431"><ele>415.0</ele><time>2026-03-30T16:05:41Z</time></trkpt><trkpt lat="39.50137149914575" lon="8.5310207513048"><ele>416.5</ele><time>2026-03-30T16:05:42Z</time></trkpt><trkpt lat="39.50134658489177" lon="8.53086664859526"><ele>418.0</ele><time>2026-03-30T16:05:43Z</time></trkpt><trkpt lat="39.50132384842073" lon="8.53070788760434"><ele>418.0</ele><time>2026-03-30T16:05:44Z</time></trkpt><trkpt lat="39.50126499822351" lon="8.530557745560763"><ele>418.0</ele><time>2026-03-30T16:05:45Z</time></trkpt><trkpt lat="39.50117895529881" lon="8.530409211341071"><ele>418.0</ele><time>2026-03-30T16:05:46Z</time></trkpt><trkpt lat="39.50109383447018" lon="8.530260596509736"><ele>418.0</ele><time>2026-03-30T16:05:47Z</time></trkpt><trkpt lat="39.50100730668541" lon="8.530109856451633"><ele>416.0</ele><time>2026-03-30T16:05:48Z</time></trkpt><trkpt lat="39.50091437648621" lon="8.529957209951586"><ele>414.0</ele><time>2026-03-30T16:05:49Z</time></trkpt><trkpt lat="39.500820935752174" lon="8.529801051464547"><ele>412.0</ele><time>2026-03-30T16:05:50Z</time></trkpt><trkpt lat="39.50072960221138" lon="8.52964305262389"><ele>412.5</ele><time>2026-03-30T16:05:51Z</time></trkpt><trkpt lat="39.50063592233308" lon="8.529482895906897"><ele>413.0</ele><time>2026-03-30T16:05:52Z</time></trkpt><trkpt lat="39.50053268927329" lon="8.529343964087266"><ele>413.5</ele><time>2026-03-30T16:05:53Z</time></trkpt><trkpt lat="39.50041973777795" lon="8.529243990080797"><ele>414.0</ele><time>2026-03-30T16:05:54Z</time></trkpt><trkpt lat="39.50029720005012" lon="8.5291794969977"><ele>414.0</ele><time>2026-03-30T16:05:55Z</time></trkpt><trkpt lat="39.500199600897844" lon="8.529078413437277"><ele>414.0</ele><time>2026-03-30T16:05:56Z</time></trkpt><trkpt lat="39.50012592365129" lon="8.52893475172148"><ele>414.0</ele><time>2026-03-30T16:05:57Z</time></trkpt><trkpt lat="39.500068635367334" lon="8.528777394120118"><ele>414.0</ele><time>2026-03-30T16:05:58Z</time></trkpt><trkpt lat="39.500010101378926" lon="8.528617063509639"><ele>415.25</ele><time>2026-03-30T16:05:59Z</time></trkpt><trkpt lat="39.499948762441214" lon="8.528450596968915"><ele>416.5</ele><time>2026-03-30T16:06:00Z</time></trkpt><trkpt lat="39.49988004712086" lon="8.528284864978076"><ele>417.75</ele><time>2026-03-30T16:06:01Z</time></trkpt><trkpt lat="39.49981268502518" lon="8.52811495070057"><ele>419.0</ele><time>2026-03-30T16:06:02Z</time></trkpt><trkpt lat="39.49974688292591" lon="8.527941318424357"><ele>418.75</ele><time>2026-03-30T16:06:03Z</time></trkpt><trkpt lat="39.49967902035437" lon="8.5277708531648"><ele>418.5</ele><time>2026-03-30T16:06:04Z</time></trkpt><trkpt lat="39.49961702829444" lon="8.527609716898"><ele>418.25</ele><time>2026-03-30T16:06:05Z</time></trkpt><trkpt lat="39.499560924931934" lon="8.527458543772335"><ele>418.0</ele><time>2026-03-30T16:06:06Z</time></trkpt><trkpt lat="39.49950081498757" lon="8.52732414862687"><ele>418.0</ele><time>2026-03-30T16:06:07Z</time></trkpt><trkpt lat="39.499429148936635" lon="8.527228001772395"><ele>418.0</ele><time>2026-03-30T16:06:08Z</time></trkpt><trkpt lat="39.49932287066095" lon="8.52716627535856"><ele>418.0</ele><time>2026-03-30T16:06:09Z</time></trkpt><trkpt lat="39.49918231719847" lon="8.527209382648328"><ele>418.0</ele><time>2026-03-30T16:06:10Z</time></trkpt><trkpt lat="39.49905742359927" lon="8.527295703739995"><ele>418.0</ele><time>2026-03-30T16:06:11Z</time></trkpt><trkpt lat="39.49897067346875" lon="8.527353757480071"><ele>418.0</ele><time>2026-03-30T16:06:12Z</time></trkpt><trkpt lat="39.4988509006193" lon="8.527433910270462"><ele>418.0</ele><time>2026-03-30T16:06:13Z</time></trkpt><trkpt lat="39.49875834297358" lon="8.527474433974035"><ele>418.0</ele><time>2026-03-30T16:06:14Z</time></trkpt><trkpt lat="39.49863134700881" lon="8.527549512328848"><ele>418.75</ele><time>2026-03-30T16:06:15Z</time></trkpt><trkpt lat="39.4985000922993" lon="8.527579696321139"><ele>419.5</ele><time>2026-03-30T16:06:16Z</time></trkpt><trkpt lat="39.49837541955975" lon="8.527506983871397"><ele>420.25</ele><time>2026-03-30T16:06:17Z</time></trkpt><trkpt lat="39.498241027711806" lon="8.527445276919643"><ele>421.0</ele><time>2026-03-30T16:06:18Z</time></trkpt><trkpt lat="39.4981013846282" lon="8.527378489130683"><ele>421.0</ele><time>2026-03-30T16:06:19Z</time></trkpt><trkpt lat="39.49796622450387" lon="8.527313164822067"><ele>421.0</ele><time>2026-03-30T16:06:20Z</time></trkpt><trkpt lat="39.49783305516663" lon="8.527243256720949"><ele>421.0</ele><time>2026-03-30T16:06:21Z</time></trkpt><trkpt lat="39.497719013960946" lon="8.527137165152755"><ele>421.0</ele><time>2026-03-30T16:06:22Z</time></trkpt><trkpt lat="39.49765409849434" lon="8.526994921801798"><ele>420.25</ele><time>2026-03-30T16:06:23Z</time></trkpt><trkpt lat="39.4976318183811" lon="8.526832251959299"><ele>419.5</ele><time>2026-03-30T16:06:24Z</time></trkpt><trkpt lat="39.497615060196566" lon="8.526648850613599"><ele>418.75</ele><time>2026-03-30T16:06:25Z</time></trkpt><trkpt lat="39.497606055594225" lon="8.526460334165586"><ele>418.0</ele><time>2026-03-30T16:06:26Z</time></trkpt><trkpt lat="39.497614187963045" lon="8.526271107262714"><ele>417.6666666666667</ele><time>2026-03-30T16:06:27Z</time></trkpt><trkpt lat="39.49764315545562" lon="8.526078650105854"><ele>417.33333333333337</ele><time>2026-03-30T16:06:28Z</time></trkpt><trkpt lat="39.497688446153134" lon="8.52589663214002"><ele>417.0</ele><time>2026-03-30T16:06:29Z</time></trkpt><trkpt lat="39.497741849207316" lon="8.525711802090994"><ele>417.0</ele><time>2026-03-30T16:06:30Z</time></trkpt><trkpt lat="39.49778331124412" lon="8.525518317724382"><ele>417.0</ele><time>2026-03-30T16:06:31Z</time></trkpt><trkpt lat="39.497841038425996" lon="8.525337355733768"><ele>417.0</ele><time>2026-03-30T16:06:32Z</time></trkpt><trkpt lat="39.497902204520564" lon="8.525148054166689"><ele>419.0</ele><time>2026-03-30T16:06:33Z</time></trkpt><trkpt lat="39.49796313345598" lon="8.524962628976503"><ele>421.0</ele><time>2026-03-30T16:06:34Z</time></trkpt><trkpt lat="39.498022023333185" lon="8.524779050324835"><ele>423.0</ele><time>2026-03-30T16:06:35Z</time></trkpt><trkpt lat="39.49808380989439" lon="8.524601953378246"><ele>422.66666666666663</ele><time>2026-03-30T16:06:36Z</time></trkpt><trkpt lat="39.498147932577254" lon="8.524421411398052"><ele>422.3333333333333</ele><time>2026-03-30T16:06:37Z</time></trkpt><trkpt lat="39.49820315464393" lon="8.52424045227448"><ele>422.0</ele><time>2026-03-30T16:06:38Z</time></trkpt><trkpt lat="39.49825145403174" lon="8.524059029958702"><ele>422.0</ele><time>2026-03-30T16:06:39Z</time></trkpt><trkpt lat="39.49825544083689" lon="8.523872505615559"><ele>422.0</ele><time>2026-03-30T16:06:40Z</time></trkpt><trkpt lat="39.49821209902584" lon="8.523687343077933"><ele>422.0</ele><time>2026-03-30T16:06:41Z</time></trkpt><trkpt lat="39.498145859637326" lon="8.523513740982446"><ele>422.0</ele><time>2026-03-30T16:06:42Z</time></trkpt><trkpt lat="39.49807352724394" lon="8.523350350454601"><ele>423.5</ele><time>2026-03-30T16:06:43Z</time></trkpt><trkpt lat="39.49799126134788" lon="8.523203469430461"><ele>425.0</ele><time>2026-03-30T16:06:44Z</time></trkpt><trkpt lat="39.49787477176003" lon="8.52309952246823"><ele>426.5</ele><time>2026-03-30T16:06:45Z</time></trkpt><trkpt lat="39.497732271900055" lon="8.523048909974635"><ele>428.0</ele><time>2026-03-30T16:06:46Z</time></trkpt><trkpt lat="39.497585505003165" lon="8.523032029524696"><ele>428.0</ele><time>2026-03-30T16:06:47Z</time></trkpt><trkpt lat="39.497446494101624" lon="8.522990498615975"><ele>428.0</ele><time>2026-03-30T16:06:48Z</time></trkpt><trkpt lat="39.497310328971324" lon="8.522952579640908"><ele>428.0</ele><time>2026-03-30T16:06:49Z</time></trkpt><trkpt lat="39.49716718526463" lon="8.522912717270259"><ele>428.0</ele><time>2026-03-30T16:06:50Z</time></trkpt><trkpt lat="39.49702598029398" lon="8.522893124703465"><ele>428.75</ele><time>2026-03-30T16:06:51Z</time></trkpt><trkpt lat="39.49688483668303" lon="8.522844806135064"><ele>429.5</ele><time>2026-03-30T16:06:52Z</time></trkpt><trkpt lat="39.49673985713491" lon="8.52280547425805"><ele>430.25</ele><time>2026-03-30T16:06:53Z</time></trkpt><trkpt lat="39.49658996819404" lon="8.522762950030728"><ele>431.0</ele><time>2026-03-30T16:06:54Z</time></trkpt><trkpt lat="39.49644162699197" lon="8.522719117518783"><ele>431.0</ele><time>2026-03-30T16:06:55Z</time></trkpt><trkpt lat="39.49628971594834" lon="8.52267725819289"><ele>431.0</ele><time>2026-03-30T16:06:56Z</time></trkpt><trkpt lat="39.49614041645102" lon="8.522633828185386"><ele>431.0</ele><time>2026-03-30T16:06:57Z</time></trkpt><trkpt lat="39.4959847623313" lon="8.52259846719044"><ele>432.3333333333333</ele><time>2026-03-30T16:06:58Z</time></trkpt><trkpt lat="39.495832559250346" lon="8.522553218142042"><ele>433.66666666666663</ele><time>2026-03-30T16:06:59Z</time></trkpt><trkpt lat="39.495683080955004" lon="8.522510767173609"><ele>435.0</ele><time>2026-03-30T16:07:00Z</time></trkpt><trkpt lat="39.4955324822732" lon="8.522468017917276"><ele>436.0</ele><time>2026-03-30T16:07:01Z</time></trkpt><trkpt lat="39.49538249912831" lon="8.522429248684965"><ele>437.0</ele><time>2026-03-30T16:07:02Z</time></trkpt><trkpt lat="39.49523418959093" lon="8.522385188407863"><ele>438.0</ele><time>2026-03-30T16:07:03Z</time></trkpt><trkpt lat="39.49508514918955" lon="8.522346836743248"><ele>438.0</ele><time>2026-03-30T16:07:04Z</time></trkpt><trkpt lat="39.49493718410523" lon="8.522307605846358"><ele>438.0</ele><time>2026-03-30T16:07:05Z</time></trkpt><trkpt lat="39.49479120425188" lon="8.522245368868674"><ele>438.0</ele><time>2026-03-30T16:07:06Z</time></trkpt><trkpt lat="39.49464737710942" lon="8.522184865946436"><ele>437.66666666666663</ele><time>2026-03-30T16:07:07Z</time></trkpt><trkpt lat="39.49451556021096" lon="8.522097902899583"><ele>437.3333333333333</ele><time>2026-03-30T16:07:08Z</time></trkpt><trkpt lat="39.49438184433004" lon="8.522004651569397"><ele>437.0</ele><time>2026-03-30T16:07:09Z</time></trkpt><trkpt lat="39.49426246488397" lon="8.521879289372377"><ele>438.3333333333333</ele><time>2026-03-30T16:07:10Z</time></trkpt><trkpt lat="39.49414275865493" lon="8.521757578654594"><ele>439.66666666666663</ele><time>2026-03-30T16:07:11Z</time></trkpt><trkpt lat="39.4940271339623" lon="8.521625727806418"><ele>441.0</ele><time>2026-03-30T16:07:12Z</time></trkpt><trkpt lat="39.493931781694165" lon="8.52146764313929"><ele>441.0</ele><time>2026-03-30T16:07:13Z</time></trkpt><trkpt lat="39.493855418782" lon="8.521289261231734"><ele>441.0</ele><time>2026-03-30T16:07:14Z</time></trkpt><trkpt lat="39.49378285971301" lon="8.521104648256"><ele>441.0</ele><time>2026-03-30T16:07:15Z</time></trkpt><trkpt lat="39.49370748315177" lon="8.520914950728809"><ele>440.0</ele><time>2026-03-30T16:07:16Z</time></trkpt><trkpt lat="39.493633221224385" lon="8.520729251061468"><ele>439.0</ele><time>2026-03-30T16:07:17Z</time></trkpt><trkpt lat="39.49355447776751" lon="8.520550203521305"><ele>438.0</ele><time>2026-03-30T16:07:18Z</time></trkpt><trkpt lat="39.49347874300305" lon="8.520368416045082"><ele>438.0</ele><time>2026-03-30T16:07:19Z</time></trkpt><trkpt lat="39.49340385260934" lon="8.520181151596848"><ele>438.0</ele><time>2026-03-30T16:07:20Z</time></trkpt><trkpt lat="39.49332452378885" lon="8.519996232737295"><ele>438.0</ele><time>2026-03-30T16:07:21Z</time></trkpt><trkpt lat="39.49324719222503" lon="8.519811951887485"><ele>438.0</ele><time>2026-03-30T16:07:22Z</time></trkpt><trkpt lat="39.49317024307613" lon="8.519625963790972"><ele>438.0</ele><time>2026-03-30T16:07:23Z</time></trkpt><trkpt lat="39.49309461921197" lon="8.519438378683844"><ele>438.0</ele><time>2026-03-30T16:07:24Z</time></trkpt><trkpt lat="39.493018034546495" lon="8.51924869704976"><ele>437.66666666666663</ele><time>2026-03-30T16:07:25Z</time></trkpt><trkpt lat="39.4929397219228" lon="8.519064912534551"><ele>437.3333333333333</ele><time>2026-03-30T16:07:26Z</time></trkpt><trkpt lat="39.49286217777895" lon="8.518877078422662"><ele>437.0</ele><time>2026-03-30T16:07:27Z</time></trkpt><trkpt lat="39.49278602012163" lon="8.51869288390593"><ele>438.0</ele><time>2026-03-30T16:07:28Z</time></trkpt><trkpt lat="39.49271104596262" lon="8.518507095639512"><ele>439.0</ele><time>2026-03-30T16:07:29Z</time></trkpt><trkpt lat="39.49263768246825" lon="8.518322203907818"><ele>440.0</ele><time>2026-03-30T16:07:30Z</time></trkpt><trkpt lat="39.49255940336824" lon="8.51813960207749"><ele>440.0</ele><time>2026-03-30T16:07:31Z</time></trkpt><trkpt lat="39.49247181748593" lon="8.517967057224771"><ele>440.0</ele><time>2026-03-30T16:07:32Z</time></trkpt><trkpt lat="39.4923638428471" lon="8.517812690822751"><ele>440.0</ele><time>2026-03-30T16:07:33Z</time></trkpt><trkpt lat="39.49224103907397" lon="8.517677134403279"><ele>440.66666666666663</ele><time>2026-03-30T16:07:34Z</time></trkpt><trkpt lat="39.49210538667954" lon="8.517561609230036"><ele>441.33333333333337</ele><time>2026-03-30T16:07:35Z</time></trkpt><trkpt lat="39.49196587029333" lon="8.517450128857044"><ele>442.0</ele><time>2026-03-30T16:07:36Z</time></trkpt><trkpt lat="39.49182429083744" lon="8.517339757883784"><ele>442.0</ele><time>2026-03-30T16:07:37Z</time></trkpt><trkpt lat="39.49168504656657" lon="8.517227350334508"><ele>442.0</ele><time>2026-03-30T16:07:38Z</time></trkpt><trkpt lat="39.491551189978665" lon="8.517111316308691"><ele>442.0</ele><time>2026-03-30T16:07:39Z</time></trkpt><trkpt lat="39.49141445864271" lon="8.516994985377476"><ele>443.33333333333337</ele><time>2026-03-30T16:07:40Z</time></trkpt><trkpt lat="39.49127422956221" lon="8.516891041975283"><ele>444.66666666666663</ele><time>2026-03-30T16:07:41Z</time></trkpt><trkpt lat="39.49112348913349" lon="8.51681686071162"><ele>446.0</ele><time>2026-03-30T16:07:42Z</time></trkpt><trkpt lat="39.4909689640457" lon="8.516758746070904"><ele>446.3333333333333</ele><time>2026-03-30T16:07:43Z</time></trkpt><trkpt lat="39.490808086679436" lon="8.516737201922096"><ele>446.66666666666663</ele><time>2026-03-30T16:07:44Z</time></trkpt><trkpt lat="39.49064664589667" lon="8.51674927699012"><ele>447.0</ele><time>2026-03-30T16:07:45Z</time></trkpt><trkpt lat="39.490469790983504" lon="8.516772532811999"><ele>449.0</ele><time>2026-03-30T16:07:46Z</time></trkpt><trkpt lat="39.490328877492715" lon="8.51682041915506"><ele>451.0</ele><time>2026-03-30T16:07:47Z</time></trkpt><trkpt lat="39.49019097438741" lon="8.51690157695754"><ele>453.0</ele><time>2026-03-30T16:07:48Z</time></trkpt><trkpt lat="39.49003269137187" lon="8.516953575349456"><ele>453.0</ele><time>2026-03-30T16:07:49Z</time></trkpt><trkpt lat="39.489889517727036" lon="8.51701881415375"><ele>453.0</ele><time>2026-03-30T16:07:50Z</time></trkpt><trkpt lat="39.48974656281411" lon="8.517083854690076"><ele>453.0</ele><time>2026-03-30T16:07:51Z</time></trkpt><trkpt lat="39.48960126846374" lon="8.517149959106627"><ele>453.0</ele><time>2026-03-30T16:07:52Z</time></trkpt><trkpt lat="39.48945551653051" lon="8.517218682836438"><ele>453.0</ele><time>2026-03-30T16:07:53Z</time></trkpt><trkpt lat="39.489309761712846" lon="8.517294692214191"><ele>453.0</ele><time>2026-03-30T16:07:54Z</time></trkpt><trkpt lat="39.48916841252206" lon="8.517378748087442"><ele>453.0</ele><time>2026-03-30T16:07:55Z</time></trkpt><trkpt lat="39.48902853340779" lon="8.517463748140518"><ele>453.0</ele><time>2026-03-30T16:07:56Z</time></trkpt><trkpt lat="39.4888867860467" lon="8.517550605126651"><ele>453.0</ele><time>2026-03-30T16:07:57Z</time></trkpt><trkpt lat="39.48874694376989" lon="8.517636294814551"><ele>455.33333333333337</ele><time>2026-03-30T16:07:58Z</time></trkpt><trkpt lat="39.48860432340284" lon="8.517722386395539"><ele>457.6666666666667</ele><time>2026-03-30T16:07:59Z</time></trkpt><trkpt lat="39.48846490481555" lon="8.517823331762152"><ele>460.0</ele><time>2026-03-30T16:08:00Z</time></trkpt><trkpt lat="39.48830385658049" lon="8.517857146506149"><ele>460.0</ele><time>2026-03-30T16:08:01Z</time></trkpt><trkpt lat="39.48814567021555" lon="8.517874680199643"><ele>460.0</ele><time>2026-03-30T16:08:02Z</time></trkpt><trkpt lat="39.48798548394981" lon="8.517858812956467"><ele>460.0</ele><time>2026-03-30T16:08:03Z</time></trkpt><trkpt lat="39.48783246405951" lon="8.517803834445537"><ele>460.33333333333337</ele><time>2026-03-30T16:08:04Z</time></trkpt><trkpt lat="39.487684701704296" lon="8.517723698631379"><ele>460.66666666666663</ele><time>2026-03-30T16:08:05Z</time></trkpt><trkpt lat="39.48753395743468" lon="8.517634592125708"><ele>461.0</ele><time>2026-03-30T16:08:06Z</time></trkpt><trkpt lat="39.487394150006" lon="8.517512525233036"><ele>461.0</ele><time>2026-03-30T16:08:07Z</time></trkpt><trkpt lat="39.48725370895282" lon="8.51739887495427"><ele>461.0</ele><time>2026-03-30T16:08:08Z</time></trkpt><trkpt lat="39.487109668219446" lon="8.517290963242099"><ele>461.0</ele><time>2026-03-30T16:08:09Z</time></trkpt><trkpt lat="39.486974445683586" lon="8.517180973936535"><ele>461.5</ele><time>2026-03-30T16:08:10Z</time></trkpt><trkpt lat="39.48684598650614" lon="8.5170779283624"><ele>462.0</ele><time>2026-03-30T16:08:11Z</time></trkpt><trkpt lat="39.486720838077154" lon="8.516979902249679"><ele>462.5</ele><time>2026-03-30T16:08:12Z</time></trkpt><trkpt lat="39.48660721161081" lon="8.516869456750722"><ele>463.0</ele><time>2026-03-30T16:08:13Z</time></trkpt><trkpt lat="39.48650687133965" lon="8.516737184694165"><ele>463.0</ele><time>2026-03-30T16:08:14Z</time></trkpt><trkpt lat="39.48642558312853" lon="8.51656771978319"><ele>463.0</ele><time>2026-03-30T16:08:15Z</time></trkpt><trkpt lat="39.48634971605016" lon="8.516388637758482"><ele>463.0</ele><time>2026-03-30T16:08:16Z</time></trkpt><trkpt lat="39.486277473851494" lon="8.516194131523033"><ele>459.6666666666667</ele><time>2026-03-30T16:08:17Z</time></trkpt><trkpt lat="39.486202902421425" lon="8.515986830101186"><ele>456.33333333333337</ele><time>2026-03-30T16:08:18Z</time></trkpt><trkpt lat="39.486135980895554" lon="8.515768737648989"><ele>453.0</ele><time>2026-03-30T16:08:19Z</time></trkpt><trkpt lat="39.48607090684783" lon="8.515537018299586"><ele>452.0</ele><time>2026-03-30T16:08:20Z</time></trkpt><trkpt lat="39.48600847744697" lon="8.515313184220798"><ele>451.0</ele><time>2026-03-30T16:08:21Z</time></trkpt><trkpt lat="39.485944394865406" lon="8.515092289810196"><ele>450.0</ele><time>2026-03-30T16:08:22Z</time></trkpt><trkpt lat="39.48588462088213" lon="8.514875645966947"><ele>450.0</ele><time>2026-03-30T16:08:23Z</time></trkpt><trkpt lat="39.48582928275931" lon="8.51466394459308"><ele>450.0</ele><time>2026-03-30T16:08:24Z</time></trkpt><trkpt lat="39.485795355427925" lon="8.514443697826565"><ele>450.0</ele><time>2026-03-30T16:08:25Z</time></trkpt><trkpt lat="39.48578982239743" lon="8.514225636756198"><ele>449.25</ele><time>2026-03-30T16:08:26Z</time></trkpt><trkpt lat="39.4857546700558" lon="8.514025489942151"><ele>448.5</ele><time>2026-03-30T16:08:27Z</time></trkpt><trkpt lat="39.485693313684955" lon="8.513854718550327"><ele>447.75</ele><time>2026-03-30T16:08:28Z</time></trkpt><trkpt lat="39.48566670321939" lon="8.513696498884576"><ele>447.0</ele><time>2026-03-30T16:08:29Z</time></trkpt><trkpt lat="39.48570366386765" lon="8.513521375226727"><ele>447.0</ele><time>2026-03-30T16:08:30Z</time></trkpt><trkpt lat="39.48577713373237" lon="8.513337468019879"><ele>447.0</ele><time>2026-03-30T16:08:31Z</time></trkpt><trkpt lat="39.485845985930744" lon="8.513165794779571"><ele>447.0</ele><time>2026-03-30T16:08:32Z</time></trkpt><trkpt lat="39.48586460464141" lon="8.512993938165796"><ele>447.0</ele><time>2026-03-30T16:08:33Z</time></trkpt><trkpt lat="39.48582855322779" lon="8.512839098545093"><ele>447.0</ele><time>2026-03-30T16:08:34Z</time></trkpt><trkpt lat="39.48573769446973" lon="8.512717612428396"><ele>447.0</ele><time>2026-03-30T16:08:35Z</time></trkpt><trkpt lat="39.48560616695063" lon="8.512632259456355"><ele>447.0</ele><time>2026-03-30T16:08:36Z</time></trkpt><trkpt lat="39.48546878291076" lon="8.512558835662311"><ele>447.0</ele><time>2026-03-30T16:08:37Z</time></trkpt><trkpt lat="39.48535130378613" lon="8.51242944062445"><ele>443.66666666666663</ele><time>2026-03-30T16:08:38Z</time></trkpt><trkpt lat="39.48525075527621" lon="8.512254624040581"><ele>440.3333333333333</ele><time>2026-03-30T16:08:39Z</time></trkpt><trkpt lat="39.48513071246892" lon="8.51209037057832"><ele>437.0</ele><time>2026-03-30T16:08:40Z</time></trkpt><trkpt lat="39.48499978908721" lon="8.511951893474727"><ele>437.0</ele><time>2026-03-30T16:08:41Z</time></trkpt><trkpt lat="39.48486972543912" lon="8.51182089199446"><ele>437.0</ele><time>2026-03-30T16:08:42Z</time></trkpt><trkpt lat="39.48474101085957" lon="8.511695191951961"><ele>437.0</ele><time>2026-03-30T16:08:43Z</time></trkpt><trkpt lat="39.48461765552287" lon="8.511569587283347"><ele>432.66666666666663</ele><time>2026-03-30T16:08:44Z</time></trkpt><trkpt lat="39.484496513261675" lon="8.511442436566309"><ele>428.33333333333337</ele><time>2026-03-30T16:08:45Z</time></trkpt><trkpt lat="39.484378788163355" lon="8.511314217184902"><ele>424.0</ele><time>2026-03-30T16:08:46Z</time></trkpt><trkpt lat="39.484264750324435" lon="8.511186854233737"><ele>424.0</ele><time>2026-03-30T16:08:47Z</time></trkpt><trkpt lat="39.48415730073073" lon="8.511054132703899"><ele>424.0</ele><time>2026-03-30T16:08:48Z</time></trkpt><trkpt lat="39.48406431686716" lon="8.510908700009267"><ele>424.0</ele><time>2026-03-30T16:08:49Z</time></trkpt><trkpt lat="39.48399564802914" lon="8.510742052769347"><ele>424.0</ele><time>2026-03-30T16:08:50Z</time></trkpt><trkpt lat="39.48394977136043" lon="8.51056491675449"><ele>423.25</ele><time>2026-03-30T16:08:51Z</time></trkpt><trkpt lat="39.483916160304" lon="8.510388932006254"><ele>422.5</ele><time>2026-03-30T16:08:52Z</time></trkpt><trkpt lat="39.48391685409716" lon="8.510195005434136"><ele>421.75</ele><time>2026-03-30T16:08:53Z</time></trkpt><trkpt lat="39.4839096480313" lon="8.510005266996895"><ele>421.0</ele><time>2026-03-30T16:08:54Z</time></trkpt><trkpt lat="39.48395574722867" lon="8.509798817823047"><ele>421.0</ele><time>2026-03-30T16:08:55Z</time></trkpt><trkpt lat="39.48400985003995" lon="8.509598928213519"><ele>421.0</ele><time>2026-03-30T16:08:56Z</time></trkpt><trkpt lat="39.4840960604575" lon="8.509430720929284"><ele>421.0</ele><time>2026-03-30T16:08:57Z</time></trkpt><trkpt lat="39.48420656861043" lon="8.509273286282873"><ele>416.6666666666667</ele><time>2026-03-30T16:08:58Z</time></trkpt><trkpt lat="39.48430321639859" lon="8.509095310500848"><ele>412.33333333333337</ele><time>2026-03-30T16:08:59Z</time></trkpt><trkpt lat="39.48438000226244" lon="8.508913006767639"><ele>408.0</ele><time>2026-03-30T16:09:00Z</time></trkpt><trkpt lat="39.484406495443" lon="8.508690853715487"><ele>405.0</ele><time>2026-03-30T16:09:01Z</time></trkpt><trkpt lat="39.48440575188274" lon="8.508460528377926"><ele>402.0</ele><time>2026-03-30T16:09:02Z</time></trkpt><trkpt lat="39.48441206036931" lon="8.50823075478029"><ele>399.0</ele><time>2026-03-30T16:09:03Z</time></trkpt><trkpt lat="39.48442391874491" lon="8.507992308839203"><ele>397.66666666666663</ele><time>2026-03-30T16:09:04Z</time></trkpt><trkpt lat="39.484448814010904" lon="8.507755823831447"><ele>396.3333333333333</ele><time>2026-03-30T16:09:05Z</time></trkpt><trkpt lat="39.48447521274983" lon="8.507510107567633"><ele>395.0</ele><time>2026-03-30T16:09:06Z</time></trkpt><trkpt lat="39.48448823739801" lon="8.507262074053386"><ele>392.66666666666663</ele><time>2026-03-30T16:09:07Z</time></trkpt><trkpt lat="39.4845048353923" lon="8.507006492022933"><ele>390.33333333333337</ele><time>2026-03-30T16:09:08Z</time></trkpt><trkpt lat="39.48452496542445" lon="8.506746992176817"><ele>388.0</ele><time>2026-03-30T16:09:09Z</time></trkpt><trkpt lat="39.48453679832124" lon="8.506506161553176"><ele>388.0</ele><time>2026-03-30T16:09:10Z</time></trkpt><trkpt lat="39.48454462316496" lon="8.50629719468406"><ele>388.0</ele><time>2026-03-30T16:09:11Z</time></trkpt><trkpt lat="39.484534781324825" lon="8.50609827540713"><ele>388.0</ele><time>2026-03-30T16:09:12Z</time></trkpt><trkpt lat="39.48452265267278" lon="8.505903936641047"><ele>388.5</ele><time>2026-03-30T16:09:13Z</time></trkpt><trkpt lat="39.484534901744354" lon="8.505718003561134"><ele>389.0</ele><time>2026-03-30T16:09:14Z</time></trkpt><trkpt lat="39.484579700849324" lon="8.505540538394932"><ele>389.5</ele><time>2026-03-30T16:09:15Z</time></trkpt><trkpt lat="39.48464737176221" lon="8.50538093625947"><ele>390.0</ele><time>2026-03-30T16:09:16Z</time></trkpt><trkpt lat="39.48469980876754" lon="8.505233924039675"><ele>390.0</ele><time>2026-03-30T16:09:17Z</time></trkpt><trkpt lat="39.48470674451926" lon="8.505084182248485"><ele>390.0</ele><time>2026-03-30T16:09:18Z</time></trkpt><trkpt lat="39.48465655654548" lon="8.504949776211797"><ele>390.0</ele><time>2026-03-30T16:09:19Z</time></trkpt><trkpt lat="39.48455677281057" lon="8.5048637131718"><ele>390.0</ele><time>2026-03-30T16:09:20Z</time></trkpt><trkpt lat="39.484425101538534" lon="8.50485741497532"><ele>388.66666666666663</ele><time>2026-03-30T16:09:21Z</time></trkpt><trkpt lat="39.48429522584424" lon="8.504937502069565"><ele>387.3333333333333</ele><time>2026-03-30T16:09:22Z</time></trkpt><trkpt lat="39.48418209229505" lon="8.505083258878596"><ele>386.0</ele><time>2026-03-30T16:09:23Z</time></trkpt><trkpt lat="39.48408927750215" lon="8.505263874124285"><ele>385.66666666666663</ele><time>2026-03-30T16:09:24Z</time></trkpt><trkpt lat="39.483986413707626" lon="8.50543988360434"><ele>385.33333333333337</ele><time>2026-03-30T16:09:25Z</time></trkpt><trkpt lat="39.483869884818866" lon="8.505670131640615"><ele>385.0</ele><time>2026-03-30T16:09:26Z</time></trkpt><trkpt lat="39.483765763664955" lon="8.505817729145306"><ele>383.6666666666667</ele><time>2026-03-30T16:09:27Z</time></trkpt><trkpt lat="39.48363966920104" lon="8.505938851362448"><ele>382.33333333333337</ele><time>2026-03-30T16:09:28Z</time></trkpt><trkpt lat="39.48350612932344" lon="8.50603498193836"><ele>381.0</ele><time>2026-03-30T16:09:29Z</time></trkpt><trkpt lat="39.48336430791275" lon="8.50612934518721"><ele>381.0</ele><time>2026-03-30T16:09:30Z</time></trkpt><trkpt lat="39.48320594380867" lon="8.506180003016581"><ele>381.0</ele><time>2026-03-30T16:09:31Z</time></trkpt><trkpt lat="39.483046082405075" lon="8.506221374560326"><ele>381.0</ele><time>2026-03-30T16:09:32Z</time></trkpt><trkpt lat="39.48289110015285" lon="8.506250301756806"><ele>378.25</ele><time>2026-03-30T16:09:33Z</time></trkpt><trkpt lat="39.48274471900753" lon="8.506271242875322"><ele>375.5</ele><time>2026-03-30T16:09:34Z</time></trkpt><trkpt lat="39.48261354740584" lon="8.506291222394244"><ele>372.75</ele><time>2026-03-30T16:09:35Z</time></trkpt><trkpt lat="39.48250163377784" lon="8.506302097084317"><ele>370.0</ele><time>2026-03-30T16:09:36Z</time></trkpt><trkpt lat="39.48240531074171" lon="8.506281920300415"><ele>369.6</ele><time>2026-03-30T16:09:37Z</time></trkpt><trkpt lat="39.482335770075814" lon="8.506202238482333"><ele>369.2</ele><time>2026-03-30T16:09:38Z</time></trkpt><trkpt lat="39.482314514089744" lon="8.506080124659897"><ele>368.79999999999995</ele><time>2026-03-30T16:09:39Z</time></trkpt><trkpt lat="39.48234723895178" lon="8.505961927644966"><ele>368.4</ele><time>2026-03-30T16:09:40Z</time></trkpt><trkpt lat="39.48240418434462" lon="8.505858907592001"><ele>368.0</ele><time>2026-03-30T16:09:41Z</time></trkpt><trkpt lat="39.482454658418945" lon="8.50575743560915"><ele>368.0</ele><time>2026-03-30T16:09:42Z</time></trkpt><trkpt lat="39.48250326603322" lon="8.505642509950812"><ele>368.0</ele><time>2026-03-30T16:09:43Z</time></trkpt><trkpt lat="39.482561134502426" lon="8.505524815806197"><ele>368.0</ele><time>2026-03-30T16:09:44Z</time></trkpt><trkpt lat="39.48262817838637" lon="8.505405796892141"><ele>368.0</ele><time>2026-03-30T16:09:45Z</time></trkpt><trkpt lat="39.482711472374895" lon="8.505295532210281"><ele>368.0</ele><time>2026-03-30T16:09:46Z</time></trkpt><trkpt lat="39.48281627860738" lon="8.50520001209135"><ele>371.25</ele><time>2026-03-30T16:09:47Z</time></trkpt><trkpt lat="39.48292530113038" lon="8.505115454102622"><ele>374.5</ele><time>2026-03-30T16:09:48Z</time></trkpt><trkpt lat="39.483011419182475" lon="8.50500889855094"><ele>377.75</ele><time>2026-03-30T16:09:49Z</time></trkpt><trkpt lat="39.48305177658779" lon="8.50487066316209"><ele>381.0</ele><time>2026-03-30T16:09:50Z</time></trkpt><trkpt lat="39.483022536973245" lon="8.50471461248484"><ele>380.5</ele><time>2026-03-30T16:09:51Z</time></trkpt><trkpt lat="39.48295637963333" lon="8.504579098564692"><ele>380.0</ele><time>2026-03-30T16:09:52Z</time></trkpt><trkpt lat="39.482884948727246" lon="8.504454631170502"><ele>379.5</ele><time>2026-03-30T16:09:53Z</time></trkpt><trkpt lat="39.48283117508314" lon="8.504327699189908"><ele>379.0</ele><time>2026-03-30T16:09:54Z</time></trkpt><trkpt lat="39.48279220779019" lon="8.5041885693084"><ele>367.0</ele><time>2026-03-30T16:09:55Z</time></trkpt><trkpt lat="39.482762428297484" lon="8.504042800733352"><ele>355.0</ele><time>2026-03-30T16:09:56Z</time></trkpt><trkpt lat="39.48274045700473" lon="8.503895266609533"><ele>343.0</ele><time>2026-03-30T16:09:57Z</time></trkpt><trkpt lat="39.48272634661987" lon="8.503756128329531"><ele>331.0</ele><time>2026-03-30T16:09:58Z</time></trkpt><trkpt lat="39.482752433829475" lon="8.503615473124075"><ele>329.0</ele><time>2026-03-30T16:09:59Z</time></trkpt><trkpt lat="39.482827096431784" lon="8.503485454159774"><ele>327.0</ele><time>2026-03-30T16:10:00Z</time></trkpt><trkpt lat="39.48293166298124" lon="8.503366559191365"><ele>325.0</ele><time>2026-03-30T16:10:01Z</time></trkpt><trkpt lat="39.4830283977489" lon="8.503255932162343"><ele>323.0</ele><time>2026-03-30T16:10:02Z</time></trkpt><trkpt lat="39.48312375201787" lon="8.503135539370563"><ele>331.0</ele><time>2026-03-30T16:10:03Z</time></trkpt><trkpt lat="39.48320699651686" lon="8.503030081055092"><ele>339.0</ele><time>2026-03-30T16:10:04Z</time></trkpt><trkpt lat="39.483299332531004" lon="8.50296447376829"><ele>347.0</ele><time>2026-03-30T16:10:05Z</time></trkpt><trkpt lat="39.48341880010726" lon="8.502971040288758"><ele>355.0</ele><time>2026-03-30T16:10:06Z</time></trkpt><trkpt lat="39.48354970579195" lon="8.502954575915837"><ele>355.0</ele><time>2026-03-30T16:10:07Z</time></trkpt><trkpt lat="39.483685751150176" lon="8.50295038285267"><ele>355.0</ele><time>2026-03-30T16:10:08Z</time></trkpt><trkpt lat="39.483815958966744" lon="8.502936888211751"><ele>355.0</ele><time>2026-03-30T16:10:09Z</time></trkpt><trkpt lat="39.48394390505057" lon="8.50292554665199"><ele>355.0</ele><time>2026-03-30T16:10:10Z</time></trkpt><trkpt lat="39.484057412331985" lon="8.502900489337675"><ele>355.6</ele><time>2026-03-30T16:10:11Z</time></trkpt><trkpt lat="39.48414463398064" lon="8.502838000012442"><ele>356.2</ele><time>2026-03-30T16:10:12Z</time></trkpt><trkpt lat="39.484172360321836" lon="8.50271645160076"><ele>356.79999999999995</ele><time>2026-03-30T16:10:13Z</time></trkpt><trkpt lat="39.484154249851294" lon="8.502578638549467"><ele>357.4</ele><time>2026-03-30T16:10:14Z</time></trkpt><trkpt lat="39.48408412704677" lon="8.502450567414941"><ele>358.0</ele><time>2026-03-30T16:10:15Z</time></trkpt><trkpt lat="39.48400187227257" lon="8.502337525781366"><ele>358.0</ele><time>2026-03-30T16:10:16Z</time></trkpt><trkpt lat="39.48392235859156" lon="8.502216801071311"><ele>358.0</ele><time>2026-03-30T16:10:17Z</time></trkpt><trkpt lat="39.48383926880236" lon="8.502094194722874"><ele>358.0</ele><time>2026-03-30T16:10:18Z</time></trkpt><trkpt lat="39.483759712188494" lon="8.501972740427657"><ele>358.0</ele><time>2026-03-30T16:10:19Z</time></trkpt><trkpt lat="39.483680804016906" lon="8.501868560159231"><ele>350.2</ele><time>2026-03-30T16:10:20Z</time></trkpt><trkpt lat="39.48359393203257" lon="8.501785935076267"><ele>342.4</ele><time>2026-03-30T16:10:21Z</time></trkpt><trkpt lat="39.48353267165886" lon="8.501708918054588"><ele>334.59999999999997</ele><time>2026-03-30T16:10:22Z</time></trkpt><trkpt lat="39.483539836144224" lon="8.501604249905249"><ele>326.79999999999995</ele><time>2026-03-30T16:10:23Z</time></trkpt><trkpt lat="39.48359746864981" lon="8.501490169902105"><ele>319.0</ele><time>2026-03-30T16:10:24Z</time></trkpt><trkpt lat="39.48370011220556" lon="8.50143428381348"><ele>323.79999999999995</ele><time>2026-03-30T16:10:25Z</time></trkpt><trkpt lat="39.483785278198425" lon="8.501355532084753"><ele>328.59999999999997</ele><time>2026-03-30T16:10:26Z</time></trkpt><trkpt lat="39.48388332901048" lon="8.501288064158382"><ele>333.4</ele><time>2026-03-30T16:10:27Z</time></trkpt><trkpt lat="39.483972725988046" lon="8.501202180356893"><ele>338.2</ele><time>2026-03-30T16:10:28Z</time></trkpt><trkpt lat="39.484038343057456" lon="8.501099255519778"><ele>343.0</ele><time>2026-03-30T16:10:29Z</time></trkpt><trkpt lat="39.48405786091594" lon="8.500954926698387"><ele>343.0</ele><time>2026-03-30T16:10:30Z</time></trkpt><trkpt lat="39.484010169692425" lon="8.50081575836959"><ele>343.0</ele><time>2026-03-30T16:10:31Z</time></trkpt><trkpt lat="39.48391775931251" lon="8.500711805412257"><ele>343.0</ele><time>2026-03-30T16:10:32Z</time></trkpt><trkpt lat="39.48381901296984" lon="8.500619356716182"><ele>343.0</ele><time>2026-03-30T16:10:33Z</time></trkpt><trkpt lat="39.48374157292272" lon="8.500513461396093"><ele>342.25</ele><time>2026-03-30T16:10:34Z</time></trkpt><trkpt lat="39.483717997397214" lon="8.500356407550745"><ele>341.5</ele><time>2026-03-30T16:10:35Z</time></trkpt><trkpt lat="39.48373770421549" lon="8.500186900604096"><ele>340.75</ele><time>2026-03-30T16:10:36Z</time></trkpt><trkpt lat="39.48380072518643" lon="8.500038454415966"><ele>340.0</ele><time>2026-03-30T16:10:37Z</time></trkpt><trkpt lat="39.48388496112342" lon="8.499901166882946"><ele>340.0</ele><time>2026-03-30T16:10:38Z</time></trkpt><trkpt lat="39.48392776791821" lon="8.499753145551235"><ele>340.0</ele><time>2026-03-30T16:10:39Z</time></trkpt><trkpt lat="39.48391909887921" lon="8.49958423385937"><ele>340.0</ele><time>2026-03-30T16:10:40Z</time></trkpt><trkpt lat="39.48390264707868" lon="8.499421481899399"><ele>340.0</ele><time>2026-03-30T16:10:41Z</time></trkpt><trkpt lat="39.48390696282396" lon="8.499274630850937"><ele>339.4</ele><time>2026-03-30T16:10:42Z</time></trkpt><trkpt lat="39.48391111835753" lon="8.499137424228387"><ele>338.8</ele><time>2026-03-30T16:10:43Z</time></trkpt><trkpt lat="39.48389712675968" lon="8.499019978055182"><ele>338.20000000000005</ele><time>2026-03-30T16:10:44Z</time></trkpt><trkpt lat="39.48385430211051" lon="8.498918146786345"><ele>337.6</ele><time>2026-03-30T16:10:45Z</time></trkpt><trkpt lat="39.48377534039595" lon="8.49884967762907"><ele>337.0</ele><time>2026-03-30T16:10:46Z</time></trkpt><trkpt lat="39.48368077409562" lon="8.498830663733568"><ele>333.0</ele><time>2026-03-30T16:10:47Z</time></trkpt><trkpt lat="39.48358763851618" lon="8.498851739668718"><ele>329.0</ele><time>2026-03-30T16:10:48Z</time></trkpt><trkpt lat="39.48349963703085" lon="8.498876969376607"><ele>325.0</ele><time>2026-03-30T16:10:49Z</time></trkpt><trkpt lat="39.483410808582825" lon="8.498890215802488"><ele>321.0</ele><time>2026-03-30T16:10:50Z</time></trkpt><trkpt lat="39.48331946940455" lon="8.498921840822701"><ele>317.0</ele><time>2026-03-30T16:10:51Z</time></trkpt><trkpt lat="39.48322616079209" lon="8.49895375039823"><ele>317.0</ele><time>2026-03-30T16:10:52Z</time></trkpt><trkpt lat="39.48313024673314" lon="8.498987700934666"><ele>317.0</ele><time>2026-03-30T16:10:53Z</time></trkpt><trkpt lat="39.48303326162582" lon="8.499006992628974"><ele>317.0</ele><time>2026-03-30T16:10:54Z</time></trkpt><trkpt lat="39.4829385216194" lon="8.499006816822897"><ele>317.0</ele><time>2026-03-30T16:10:55Z</time></trkpt><trkpt lat="39.48284990944643" lon="8.498986370961033"><ele>317.0</ele><time>2026-03-30T16:10:56Z</time></trkpt><trkpt lat="39.4827616348302" lon="8.498950166841368"><ele>320.4</ele><time>2026-03-30T16:10:57Z</time></trkpt><trkpt lat="39.48268086563228" lon="8.498904049128264"><ele>323.79999999999995</ele><time>2026-03-30T16:10:58Z</time></trkpt><trkpt lat="39.48260960882865" lon="8.498851731215794"><ele>327.2</ele><time>2026-03-30T16:10:59Z</time></trkpt><trkpt lat="39.48252727186186" lon="8.49880503810354"><ele>330.59999999999997</ele><time>2026-03-30T16:11:00Z</time></trkpt><trkpt lat="39.48244032938779" lon="8.498760865010341"><ele>334.0</ele><time>2026-03-30T16:11:01Z</time></trkpt><trkpt lat="39.48235165368601" lon="8.498702476735138"><ele>334.0</ele><time>2026-03-30T16:11:02Z</time></trkpt><trkpt lat="39.48225507831003" lon="8.498647852521845"><ele>334.0</ele><time>2026-03-30T16:11:03Z</time></trkpt><trkpt lat="39.48216045947238" lon="8.498590198572373"><ele>334.0</ele><time>2026-03-30T16:11:04Z</time></trkpt><trkpt lat="39.48207151886423" lon="8.498529729326236"><ele>334.0</ele><time>2026-03-30T16:11:05Z</time></trkpt><trkpt lat="39.4819912035328" lon="8.49845113303059"><ele>334.0</ele><time>2026-03-30T16:11:06Z</time></trkpt><trkpt lat="39.48192424469207" lon="8.498345848215877"><ele>330.75</ele><time>2026-03-30T16:11:07Z</time></trkpt><trkpt lat="39.48186952140725" lon="8.49821310316206"><ele>327.5</ele><time>2026-03-30T16:11:08Z</time></trkpt><trkpt lat="39.48184121078507" lon="8.498055725114328"><ele>324.25</ele><time>2026-03-30T16:11:09Z</time></trkpt><trkpt lat="39.4817989797687" lon="8.497907770637157"><ele>321.0</ele><time>2026-03-30T16:11:10Z</time></trkpt><trkpt lat="39.4817330001738" lon="8.497787266678719"><ele>321.0</ele><time>2026-03-30T16:11:11Z</time></trkpt><trkpt lat="39.48165283810166" lon="8.49768133087021"><ele>321.0</ele><time>2026-03-30T16:11:12Z</time></trkpt><trkpt lat="39.48155744851436" lon="8.497598225262871"><ele>321.0</ele><time>2026-03-30T16:11:13Z</time></trkpt><trkpt lat="39.48144710984839" lon="8.497551488109327"><ele>321.0</ele><time>2026-03-30T16:11:14Z</time></trkpt><trkpt lat="39.48132433596416" lon="8.497547777511441"><ele>318.0</ele><time>2026-03-30T16:11:15Z</time></trkpt><trkpt lat="39.481201369920875" lon="8.497571796882347"><ele>315.0</ele><time>2026-03-30T16:11:16Z</time></trkpt><trkpt lat="39.48108083241075" lon="8.497600824137901"><ele>312.0</ele><time>2026-03-30T16:11:17Z</time></trkpt><trkpt lat="39.48096872927382" lon="8.497608933453085"><ele>309.0</ele><time>2026-03-30T16:11:18Z</time></trkpt><trkpt lat="39.48085691241257" lon="8.497610005130783"><ele>309.0</ele><time>2026-03-30T16:11:19Z</time></trkpt><trkpt lat="39.480746124201" lon="8.497609333641684"><ele>309.0</ele><time>2026-03-30T16:11:20Z</time></trkpt><trkpt lat="39.48063890455029" lon="8.497612460428861"><ele>309.0</ele><time>2026-03-30T16:11:21Z</time></trkpt><trkpt lat="39.48053050958225" lon="8.497620075112033"><ele>309.0</ele><time>2026-03-30T16:11:22Z</time></trkpt><trkpt lat="39.48042407008187" lon="8.497632079373034"><ele>309.0</ele><time>2026-03-30T16:11:23Z</time></trkpt><trkpt lat="39.48032149788164" lon="8.497638315187201"><ele>306.8</ele><time>2026-03-30T16:11:24Z</time></trkpt><trkpt lat="39.48021623782755" lon="8.497639385957056"><ele>304.59999999999997</ele><time>2026-03-30T16:11:25Z</time></trkpt><trkpt lat="39.48011193062382" lon="8.497621078563366"><ele>302.4</ele><time>2026-03-30T16:11:26Z</time></trkpt><trkpt lat="39.48001562530483" lon="8.497562385944795"><ele>300.2</ele><time>2026-03-30T16:11:27Z</time></trkpt><trkpt lat="39.479931939958554" lon="8.497466108468327"><ele>298.0</ele><time>2026-03-30T16:11:28Z</time></trkpt><trkpt lat="39.47986581332192" lon="8.497333087793269"><ele>298.0</ele><time>2026-03-30T16:11:29Z</time></trkpt><trkpt lat="39.47983037517567" lon="8.49717696282272"><ele>298.0</ele><time>2026-03-30T16:11:30Z</time></trkpt><trkpt lat="39.4798269789523" lon="8.497007158712556"><ele>298.0</ele><time>2026-03-30T16:11:31Z</time></trkpt><trkpt lat="39.47985835564296" lon="8.4968480080412"><ele>298.0</ele><time>2026-03-30T16:11:32Z</time></trkpt><trkpt lat="39.479921872788594" lon="8.496705996056981"><ele>298.25</ele><time>2026-03-30T16:11:33Z</time></trkpt><trkpt lat="39.479986921006656" lon="8.496578953571"><ele>298.5</ele><time>2026-03-30T16:11:34Z</time></trkpt><trkpt lat="39.48003520486888" lon="8.496447598331661"><ele>298.75</ele><time>2026-03-30T16:11:35Z</time></trkpt><trkpt lat="39.480041763994585" lon="8.496305856130583"><ele>299.0</ele><time>2026-03-30T16:11:36Z</time></trkpt><trkpt lat="39.480014756395576" lon="8.496162675683276"><ele>300.8</ele><time>2026-03-30T16:11:37Z</time></trkpt><trkpt lat="39.479966284515854" lon="8.496041571672931"><ele>302.59999999999997</ele><time>2026-03-30T16:11:38Z</time></trkpt><trkpt lat="39.47989173470513" lon="8.49593536305871"><ele>304.4</ele><time>2026-03-30T16:11:39Z</time></trkpt><trkpt lat="39.479799284225166" lon="8.495850827993216"><ele>306.2</ele><time>2026-03-30T16:11:40Z</time></trkpt><trkpt lat="39.47969104735412" lon="8.495809514816642"><ele>308.0</ele><time>2026-03-30T16:11:41Z</time></trkpt><trkpt lat="39.479572591772126" lon="8.495825182902237"><ele>308.0</ele><time>2026-03-30T16:11:42Z</time></trkpt><trkpt lat="39.47946380028342" lon="8.495897958373376"><ele>308.0</ele><time>2026-03-30T16:11:43Z</time></trkpt><trkpt lat="39.47936317653495" lon="8.495987213796662"><ele>308.0</ele><time>2026-03-30T16:11:44Z</time></trkpt><trkpt lat="39.479245628177615" lon="8.496042919695705"><ele>308.0</ele><time>2026-03-30T16:11:45Z</time></trkpt><trkpt lat="39.47913548459722" lon="8.49612348765366"><ele>308.0</ele><time>2026-03-30T16:11:46Z</time></trkpt><trkpt lat="39.47903042881231" lon="8.496227678762676"><ele>308.0</ele><time>2026-03-30T16:11:47Z</time></trkpt><trkpt lat="39.47894592025539" lon="8.496347365633284"><ele>308.0</ele><time>2026-03-30T16:11:48Z</time></trkpt><trkpt lat="39.47885649552732" lon="8.496444040848447"><ele>308.0</ele><time>2026-03-30T16:11:49Z</time></trkpt><trkpt lat="39.47876858290238" lon="8.496515070651917"><ele>304.2</ele><time>2026-03-30T16:11:50Z</time></trkpt><trkpt lat="39.478689394357225" lon="8.4965909790101"><ele>300.4</ele><time>2026-03-30T16:11:51Z</time></trkpt><trkpt lat="39.47860624871198" lon="8.49666722744615"><ele>296.59999999999997</ele><time>2026-03-30T16:11:52Z</time></trkpt><trkpt lat="39.47852451865433" lon="8.496741864160473"><ele>292.8</ele><time>2026-03-30T16:11:53Z</time></trkpt><trkpt lat="39.478443513362485" lon="8.496815593382808"><ele>289.0</ele><time>2026-03-30T16:11:54Z</time></trkpt><trkpt lat="39.478361692580144" lon="8.496890064789575"><ele>289.0</ele><time>2026-03-30T16:11:55Z</time></trkpt><trkpt lat="39.47828322475086" lon="8.496961484452438"><ele>289.0</ele><time>2026-03-30T16:11:56Z</time></trkpt><trkpt lat="39.47820950304062" lon="8.49704034535084"><ele>289.0</ele><time>2026-03-30T16:11:57Z</time></trkpt><trkpt lat="39.47814709072567" lon="8.497132114772118"><ele>289.0</ele><time>2026-03-30T16:11:58Z</time></trkpt><trkpt lat="39.47806896386532" lon="8.497202469714804"><ele>289.0</ele><time>2026-03-30T16:11:59Z</time></trkpt><trkpt lat="39.477984582005575" lon="8.497252406707277"><ele>285.2</ele><time>2026-03-30T16:12:00Z</time></trkpt><trkpt lat="39.47789469378443" lon="8.497302565449184"><ele>281.4</ele><time>2026-03-30T16:12:01Z</time></trkpt><trkpt lat="39.4778019587367" lon="8.49734734701916"><ele>277.6</ele><time>2026-03-30T16:12:02Z</time></trkpt><trkpt lat="39.4777027870135" lon="8.497380131918941"><ele>273.8</ele><time>2026-03-30T16:12:03Z</time></trkpt><trkpt lat="39.477600767353515" lon="8.497394215267454"><ele>270.0</ele><time>2026-03-30T16:12:04Z</time></trkpt><trkpt lat="39.47749381518551" lon="8.497379753568449"><ele>270.0</ele><time>2026-03-30T16:12:05Z</time></trkpt><trkpt lat="39.47738829465187" lon="8.49734664768998"><ele>270.0</ele><time>2026-03-30T16:12:06Z</time></trkpt><trkpt lat="39.47729857380909" lon="8.497277579013254"><ele>270.0</ele><time>2026-03-30T16:12:07Z</time></trkpt><trkpt lat="39.47723853242802" lon="8.497172477854084"><ele>270.0</ele><time>2026-03-30T16:12:08Z</time></trkpt><trkpt lat="39.477205558345595" lon="8.497045590886717"><ele>270.0</ele><time>2026-03-30T16:12:09Z</time></trkpt><trkpt lat="39.47719602220533" lon="8.496920330335948"><ele>270.8</ele><time>2026-03-30T16:12:10Z</time></trkpt><trkpt lat="39.47720885315738" lon="8.496787652034774"><ele>271.6</ele><time>2026-03-30T16:12:11Z</time></trkpt><trkpt lat="39.47724086397598" lon="8.496647399471097"><ele>272.4</ele><time>2026-03-30T16:12:12Z</time></trkpt><trkpt lat="39.47728437011949" lon="8.496506228172251"><ele>273.2</ele><time>2026-03-30T16:12:13Z</time></trkpt><trkpt lat="39.47732396717439" lon="8.496369306356666"><ele>274.0</ele><time>2026-03-30T16:12:14Z</time></trkpt><trkpt lat="39.47732617847004" lon="8.496228885912137"><ele>274.0</ele><time>2026-03-30T16:12:15Z</time></trkpt><trkpt lat="39.477276133229545" lon="8.496096353381319"><ele>274.0</ele><time>2026-03-30T16:12:16Z</time></trkpt><trkpt lat="39.47721457413184" lon="8.495989970780265"><ele>274.0</ele><time>2026-03-30T16:12:17Z</time></trkpt><trkpt lat="39.47718644061597" lon="8.495874664909529"><ele>274.0</ele><time>2026-03-30T16:12:18Z</time></trkpt><trkpt lat="39.47720847853257" lon="8.495753299266351"><ele>274.0</ele><time>2026-03-30T16:12:19Z</time></trkpt><trkpt lat="39.477278001293584" lon="8.495668715997452"><ele>274.0</ele><time>2026-03-30T16:12:20Z</time></trkpt><trkpt lat="39.47736961543515" lon="8.49562632879718"><ele>274.0</ele><time>2026-03-30T16:12:21Z</time></trkpt><trkpt lat="39.47744921743491" lon="8.495572910989415"><ele>274.0</ele><time>2026-03-30T16:12:22Z</time></trkpt><trkpt lat="39.47750116139426" lon="8.49547324910927"><ele>274.0</ele><time>2026-03-30T16:12:23Z</time></trkpt><trkpt lat="39.47751148647561" lon="8.495345127678739"><ele>274.0</ele><time>2026-03-30T16:12:24Z</time></trkpt><trkpt lat="39.477501116542314" lon="8.495209109925856"><ele>274.0</ele><time>2026-03-30T16:12:25Z</time></trkpt><trkpt lat="39.47746317370525" lon="8.495091261063491"><ele>274.0</ele><time>2026-03-30T16:12:26Z</time></trkpt><trkpt lat="39.47739339981763" lon="8.495002726999065"><ele>274.0</ele><time>2026-03-30T16:12:27Z</time></trkpt><trkpt lat="39.47731170951692" lon="8.49494851107634"><ele>274.0</ele><time>2026-03-30T16:12:28Z</time></trkpt><trkpt lat="39.47722340310154" lon="8.494904153891985"><ele>274.0</ele><time>2026-03-30T16:12:29Z</time></trkpt><trkpt lat="39.47714457307842" lon="8.494834161449681"><ele>268.59999999999997</ele><time>2026-03-30T16:12:30Z</time></trkpt><trkpt lat="39.4770796694047" lon="8.494740724591136"><ele>263.2</ele><time>2026-03-30T16:12:31Z</time></trkpt><trkpt lat="39.47702586977508" lon="8.494630340159834"><ele>257.79999999999995</ele><time>2026-03-30T16:12:32Z</time></trkpt><trkpt lat="39.477000799322056" lon="8.494504928780696"><ele>252.39999999999998</ele><time>2026-03-30T16:12:33Z</time></trkpt><trkpt lat="39.47700620384818" lon="8.49437804633224"><ele>247.0</ele><time>2026-03-30T16:12:34Z</time></trkpt><trkpt lat="39.477031821703804" lon="8.49425714357056"><ele>247.0</ele><time>2026-03-30T16:12:35Z</time></trkpt><trkpt lat="39.47705928322233" lon="8.494141348049148"><ele>247.0</ele><time>2026-03-30T16:12:36Z</time></trkpt><trkpt lat="39.47706799225323" lon="8.494021705115474"><ele>247.0</ele><time>2026-03-30T16:12:37Z</time></trkpt><trkpt lat="39.47706624608194" lon="8.493900161794024"><ele>247.0</ele><time>2026-03-30T16:12:38Z</time></trkpt><trkpt lat="39.477061995136" lon="8.493781303339809"><ele>247.0</ele><time>2026-03-30T16:12:39Z</time></trkpt><trkpt lat="39.477038625296146" lon="8.493668905557278"><ele>252.0</ele><time>2026-03-30T16:12:40Z</time></trkpt><trkpt lat="39.4769805953172" lon="8.493583402275833"><ele>257.0</ele><time>2026-03-30T16:12:41Z</time></trkpt><trkpt lat="39.47688931167384" lon="8.493549502541562"><ele>262.0</ele><time>2026-03-30T16:12:42Z</time></trkpt><trkpt lat="39.476790550984674" lon="8.49357576329729"><ele>267.0</ele><time>2026-03-30T16:12:43Z</time></trkpt><trkpt lat="39.476693566509354" lon="8.493621396512024"><ele>272.0</ele><time>2026-03-30T16:12:44Z</time></trkpt><trkpt lat="39.476607416442654" lon="8.493676132520758"><ele>272.0</ele><time>2026-03-30T16:12:45Z</time></trkpt><trkpt lat="39.47652507634504" lon="8.493717746388675"><ele>272.0</ele><time>2026-03-30T16:12:46Z</time></trkpt><trkpt lat="39.476445769696646" lon="8.49372973066358"><ele>272.0</ele><time>2026-03-30T16:12:47Z</time></trkpt><trkpt lat="39.47636048816573" lon="8.493724068152877"><ele>272.0</ele><time>2026-03-30T16:12:48Z</time></trkpt><trkpt lat="39.476286653356894" lon="8.493671755081438"><ele>272.0</ele><time>2026-03-30T16:12:49Z</time></trkpt><trkpt lat="39.47621830584419" lon="8.493610441896902"><ele>272.0</ele><time>2026-03-30T16:12:50Z</time></trkpt><trkpt lat="39.47614218177956" lon="8.493571234580854"><ele>271.6</ele><time>2026-03-30T16:12:51Z</time></trkpt><trkpt lat="39.47606245448787" lon="8.493567913359582"><ele>271.2</ele><time>2026-03-30T16:12:52Z</time></trkpt><trkpt lat="39.47597314542792" lon="8.493577021560196"><ele>270.8</ele><time>2026-03-30T16:12:53Z</time></trkpt><trkpt lat="39.47589122380279" lon="8.493643804087512"><ele>270.4</ele><time>2026-03-30T16:12:54Z</time></trkpt><trkpt lat="39.47583387339376" lon="8.493747601243925"><ele>270.0</ele><time>2026-03-30T16:12:55Z</time></trkpt><trkpt lat="39.47580096316882" lon="8.493868813843504"><ele>265.5</ele><time>2026-03-30T16:12:56Z</time></trkpt><trkpt lat="39.47574511357237" lon="8.493970122285612"><ele>261.0</ele><time>2026-03-30T16:12:57Z</time></trkpt><trkpt lat="39.47570150545679" lon="8.494070598168426"><ele>256.5</ele><time>2026-03-30T16:12:58Z</time></trkpt><trkpt lat="39.47565629338296" lon="8.494166759543063"><ele>252.0</ele><time>2026-03-30T16:12:59Z</time></trkpt><trkpt lat="39.47560363490677" lon="8.494254958105898"><ele>247.5</ele><time>2026-03-30T16:13:00Z</time></trkpt><trkpt lat="39.475535673321126" lon="8.494323849736745"><ele>243.0</ele><time>2026-03-30T16:13:01Z</time></trkpt><trkpt lat="39.47546387908042" lon="8.494369473339026"><ele>243.60000000000002</ele><time>2026-03-30T16:13:02Z</time></trkpt><trkpt lat="39.47538178217806" lon="8.494387097004102"><ele>244.20000000000002</ele><time>2026-03-30T16:13:03Z</time></trkpt><trkpt lat="39.47528834188147" lon="8.49436809578689"><ele>244.8</ele><time>2026-03-30T16:13:04Z</time></trkpt><trkpt lat="39.47519477086725" lon="8.494336143915463"><ele>245.4</ele><time>2026-03-30T16:13:05Z</time></trkpt><trkpt lat="39.47509785584317" lon="8.494315800463387"><ele>246.0</ele><time>2026-03-30T16:13:06Z</time></trkpt><trkpt lat="39.4749993085995" lon="8.494280110998382"><ele>246.0</ele><time>2026-03-30T16:13:07Z</time></trkpt><trkpt lat="39.47489817868824" lon="8.494242396988993"><ele>246.00000000000003</ele><time>2026-03-30T16:13:08Z</time></trkpt><trkpt lat="39.474795771718775" lon="8.494211299028956"><ele>246.00000000000003</ele><time>2026-03-30T16:13:09Z</time></trkpt><trkpt lat="39.47469431670922" lon="8.4941734307741"><ele>246.0</ele><time>2026-03-30T16:13:10Z</time></trkpt><trkpt lat="39.47459191907399" lon="8.494139059742897"><ele>246.0</ele><time>2026-03-30T16:13:11Z</time></trkpt><trkpt lat="39.47448794678762" lon="8.494107600132471"><ele>241.75</ele><time>2026-03-30T16:13:12Z</time></trkpt><trkpt lat="39.4743773973531" lon="8.49407249836679"><ele>237.5</ele><time>2026-03-30T16:13:13Z</time></trkpt><trkpt lat="39.474266381506304" lon="8.494021510772324"><ele>233.25</ele><time>2026-03-30T16:13:14Z</time></trkpt><trkpt lat="39.47416334808129" lon="8.49394647647425"><ele>229.0</ele><time>2026-03-30T16:13:15Z</time></trkpt><trkpt lat="39.474065068581666" lon="8.493860460146665"><ele>229.0</ele><time>2026-03-30T16:13:16Z</time></trkpt><trkpt lat="39.473973065694096" lon="8.493760728166784"><ele>229.0</ele><time>2026-03-30T16:13:17Z</time></trkpt><trkpt lat="39.47386389761016" lon="8.49368608388978"><ele>229.0</ele><time>2026-03-30T16:13:18Z</time></trkpt><trkpt lat="39.473755283763914" lon="8.493637804224228"><ele>229.0</ele><time>2026-03-30T16:13:19Z</time></trkpt><trkpt lat="39.47365365026591" lon="8.493612944720928"><ele>228.39999999999998</ele><time>2026-03-30T16:13:20Z</time></trkpt><trkpt lat="39.473555578712855" lon="8.493576968138123"><ele>227.79999999999998</ele><time>2026-03-30T16:13:21Z</time></trkpt><trkpt lat="39.47347177732918" lon="8.493514534799235"><ele>227.20000000000002</ele><time>2026-03-30T16:13:22Z</time></trkpt><trkpt lat="39.47339472548304" lon="8.493460753974883"><ele>226.60000000000002</ele><time>2026-03-30T16:13:23Z</time></trkpt><trkpt lat="39.473325530610765" lon="8.493364613416706"><ele>226.0</ele><time>2026-03-30T16:13:24Z</time></trkpt><trkpt lat="39.473306440779105" lon="8.493227091006718"><ele>226.0</ele><time>2026-03-30T16:13:25Z</time></trkpt><trkpt lat="39.47324471108362" lon="8.493069339094134"><ele>226.0</ele><time>2026-03-30T16:13:26Z</time></trkpt><trkpt lat="39.47326195245081" lon="8.492905262807689"><ele>226.0</ele><time>2026-03-30T16:13:27Z</time></trkpt><trkpt lat="39.4732787418664" lon="8.492745487478132"><ele>226.0</ele><time>2026-03-30T16:13:28Z</time></trkpt><trkpt lat="39.473205965024306" lon="8.492585321934307"><ele>229.5</ele><time>2026-03-30T16:13:29Z</time></trkpt><trkpt lat="39.47311123553401" lon="8.49247589597051"><ele>233.0</ele><time>2026-03-30T16:13:30Z</time></trkpt><trkpt lat="39.47299925882254" lon="8.492392150762251"><ele>236.5</ele><time>2026-03-30T16:13:31Z</time></trkpt><trkpt lat="39.47290640573872" lon="8.49230613073897"><ele>240.0</ele><time>2026-03-30T16:13:32Z</time></trkpt><trkpt lat="39.47284558076892" lon="8.492185875166381"><ele>233.75</ele><time>2026-03-30T16:13:33Z</time></trkpt><trkpt lat="39.4728135855392" lon="8.492048145604274"><ele>227.5</ele><time>2026-03-30T16:13:34Z</time></trkpt><trkpt lat="39.472783031295165" lon="8.491899884840729"><ele>221.25</ele><time>2026-03-30T16:13:35Z</time></trkpt><trkpt lat="39.47279556585915" lon="8.491741579943927"><ele>215.0</ele><time>2026-03-30T16:13:36Z</time></trkpt><trkpt lat="39.472803272692445" lon="8.491579183168518"><ele>215.0</ele><time>2026-03-30T16:13:37Z</time></trkpt><trkpt lat="39.47280276227094" lon="8.491418700711213"><ele>215.0</ele><time>2026-03-30T16:13:38Z</time></trkpt><trkpt lat="39.47278588958626" lon="8.491278141627493"><ele>215.0</ele><time>2026-03-30T16:13:39Z</time></trkpt><trkpt lat="39.472724931491186" lon="8.491162943196722"><ele>215.0</ele><time>2026-03-30T16:13:40Z</time></trkpt><trkpt lat="39.47260301994126" lon="8.4911074066509"><ele>217.5</ele><time>2026-03-30T16:13:41Z</time></trkpt><trkpt lat="39.472463096631586" lon="8.491115782852619"><ele>220.0</ele><time>2026-03-30T16:13:42Z</time></trkpt><trkpt lat="39.47232536957535" lon="8.49111169965177"><ele>222.5</ele><time>2026-03-30T16:13:43Z</time></trkpt><trkpt lat="39.472182735586216" lon="8.491094279010522"><ele>225.0</ele><time>2026-03-30T16:13:44Z</time></trkpt><trkpt lat="39.472047479264546" lon="8.491073382162977"><ele>225.0</ele><time>2026-03-30T16:13:45Z</time></trkpt><trkpt lat="39.47190776349781" lon="8.491046599409984"><ele>225.0</ele><time>2026-03-30T16:13:46Z</time></trkpt><trkpt lat="39.4717613267737" lon="8.491021323850221"><ele>225.0</ele><time>2026-03-30T16:13:47Z</time></trkpt><trkpt lat="39.47161377235035" lon="8.49099490889123"><ele>225.0</ele><time>2026-03-30T16:13:48Z</time></trkpt><trkpt lat="39.47144581668215" lon="8.490996054059751"><ele>225.0</ele><time>2026-03-30T16:13:49Z</time></trkpt><trkpt lat="39.47128781458675" lon="8.49100440066938"><ele>225.0</ele><time>2026-03-30T16:13:50Z</time></trkpt><trkpt lat="39.471130520736445" lon="8.49103532999763"><ele>225.0</ele><time>2026-03-30T16:13:51Z</time></trkpt><trkpt lat="39.470978782855695" lon="8.491080043384086"><ele>224.33333333333331</ele><time>2026-03-30T16:13:52Z</time></trkpt><trkpt lat="39.47082670453317" lon="8.491086362336539"><ele>223.66666666666666</ele><time>2026-03-30T16:13:53Z</time></trkpt><trkpt lat="39.47068336109406" lon="8.49105763744977"><ele>223.0</ele><time>2026-03-30T16:13:54Z</time></trkpt><trkpt lat="39.470531258710814" lon="8.49101176017708"><ele>217.33333333333331</ele><time>2026-03-30T16:13:55Z</time></trkpt><trkpt lat="39.470389302520985" lon="8.490938062564112"><ele>211.66666666666669</ele><time>2026-03-30T16:13:56Z</time></trkpt><trkpt lat="39.47024459252423" lon="8.490868772131478"><ele>206.0</ele><time>2026-03-30T16:13:57Z</time></trkpt><trkpt lat="39.47010473795438" lon="8.490781852326577"><ele>206.0</ele><time>2026-03-30T16:13:58Z</time></trkpt><trkpt lat="39.46999117035824" lon="8.490640365800699"><ele>206.0</ele><time>2026-03-30T16:13:59Z</time></trkpt><trkpt lat="39.46990861912991" lon="8.490457012893485"><ele>206.0</ele><time>2026-03-30T16:14:00Z</time></trkpt><trkpt lat="39.469837802691934" lon="8.490271057297315"><ele>201.0</ele><time>2026-03-30T16:14:01Z</time></trkpt><trkpt lat="39.46974169690279" lon="8.490110384344357"><ele>196.0</ele><time>2026-03-30T16:14:02Z</time></trkpt><trkpt lat="39.46961063461197" lon="8.48997982748785"><ele>191.0</ele><time>2026-03-30T16:14:03Z</time></trkpt><trkpt lat="39.46946707892595" lon="8.489877234606935"><ele>191.0</ele><time>2026-03-30T16:14:04Z</time></trkpt><trkpt lat="39.469325474314445" lon="8.48980002240549"><ele>191.0</ele><time>2026-03-30T16:14:04.999Z</time></trkpt><trkpt lat="39.469192267140215" lon="8.489711308682198"><ele>191.0</ele><time>2026-03-30T16:14:05.999Z</time></trkpt><trkpt lat="39.469066236789615" lon="8.489618919480678"><ele>191.0</ele><time>2026-03-30T16:14:06.999Z</time></trkpt><trkpt lat="39.468944372103444" lon="8.489524924374285"><ele>190.25</ele><time>2026-03-30T16:14:07.999Z</time></trkpt><trkpt lat="39.46882755325201" lon="8.48943821232322"><ele>189.5</ele><time>2026-03-30T16:14:08.999Z</time></trkpt><trkpt lat="39.46871227108153" lon="8.48935489250617"><ele>188.75</ele><time>2026-03-30T16:14:09.999Z</time></trkpt><trkpt lat="39.46860059639597" lon="8.489266078185421"><ele>188.0</ele><time>2026-03-30T16:14:10.999Z</time></trkpt><trkpt lat="39.46850954196657" lon="8.489158062402495"><ele>188.0</ele><time>2026-03-30T16:14:12Z</time></trkpt><trkpt lat="39.46846093146399" lon="8.489017239109877"><ele>188.0</ele><time>2026-03-30T16:14:13Z</time></trkpt><trkpt lat="39.46846167295528" lon="8.488853874390214"><ele>188.0</ele><time>2026-03-30T16:14:14Z</time></trkpt><trkpt lat="39.468501605509275" lon="8.488703404755771"><ele>188.0</ele><time>2026-03-30T16:14:15Z</time></trkpt><trkpt lat="39.468540320848064" lon="8.488556709003543"><ele>188.4</ele><time>2026-03-30T16:14:16Z</time></trkpt><trkpt lat="39.468566668340074" lon="8.488412206393301"><ele>188.8</ele><time>2026-03-30T16:14:17Z</time></trkpt><trkpt lat="39.468584412876005" lon="8.488267049934057"><ele>189.2</ele><time>2026-03-30T16:14:18Z</time></trkpt><trkpt lat="39.4685857725853" lon="8.488128943216724"><ele>189.6</ele><time>2026-03-30T16:14:19Z</time></trkpt><trkpt lat="39.46854970922423" lon="8.487991580783305"><ele>190.0</ele><time>2026-03-30T16:14:20Z</time></trkpt><trkpt lat="39.46845767608161" lon="8.487890889067982"><ele>190.0</ele><time>2026-03-30T16:14:21Z</time></trkpt><trkpt lat="39.46833311831624" lon="8.487849846135637"><ele>190.0</ele><time>2026-03-30T16:14:22Z</time></trkpt><trkpt lat="39.468205123225864" lon="8.4878604460236"><ele>190.0</ele><time>2026-03-30T16:14:23Z</time></trkpt><trkpt lat="39.468074889319276" lon="8.487918639839103"><ele>190.0</ele><time>2026-03-30T16:14:24Z</time></trkpt><trkpt lat="39.467948360410446" lon="8.487965835810273"><ele>186.5</ele><time>2026-03-30T16:14:25Z</time></trkpt><trkpt lat="39.467816576853316" lon="8.488001708437725"><ele>183.0</ele><time>2026-03-30T16:14:26Z</time></trkpt><trkpt lat="39.467679413129524" lon="8.488036708230267"><ele>179.5</ele><time>2026-03-30T16:14:27Z</time></trkpt><trkpt lat="39.46754694034999" lon="8.488064934680304"><ele>176.0</ele><time>2026-03-30T16:14:28Z</time></trkpt><trkpt lat="39.46742281442198" lon="8.48812381498846"><ele>176.0</ele><time>2026-03-30T16:14:29Z</time></trkpt><trkpt lat="39.46731620365983" lon="8.48821051763887"><ele>176.0</ele><time>2026-03-30T16:14:30Z</time></trkpt><trkpt lat="39.46720958997466" lon="8.488291735419207"><ele>176.0</ele><time>2026-03-30T16:14:31Z</time></trkpt><trkpt lat="39.467091755257506" lon="8.48831887225222"><ele>176.0</ele><time>2026-03-30T16:14:32Z</time></trkpt><trkpt lat="39.46697005720052" lon="8.488290440052085"><ele>173.75</ele><time>2026-03-30T16:14:33Z</time></trkpt><trkpt lat="39.466862730019756" lon="8.48820313498529"><ele>171.5</ele><time>2026-03-30T16:14:34Z</time></trkpt><trkpt lat="39.46676919433979" lon="8.488103422518526"><ele>169.25</ele><time>2026-03-30T16:14:35Z</time></trkpt><trkpt lat="39.46670001151709" lon="8.48799155188934"><ele>167.0</ele><time>2026-03-30T16:14:36Z</time></trkpt><trkpt lat="39.466690556769656" lon="8.487854169930346"><ele>167.0</ele><time>2026-03-30T16:14:37Z</time></trkpt><trkpt lat="39.46673493313192" lon="8.487713123802806"><ele>167.0</ele><time>2026-03-30T16:14:38Z</time></trkpt><trkpt lat="39.46680369182998" lon="8.487593000114565"><ele>167.0</ele><time>2026-03-30T16:14:39Z</time></trkpt><trkpt lat="39.466844437968845" lon="8.487464786392954"><ele>167.0</ele><time>2026-03-30T16:14:40Z</time></trkpt><trkpt lat="39.46682178023103" lon="8.48731802848553"><ele>167.0</ele><time>2026-03-30T16:14:41Z</time></trkpt><trkpt lat="39.466748551675686" lon="8.48718581736664"><ele>167.0</ele><time>2026-03-30T16:14:42Z</time></trkpt><trkpt lat="39.46668074786556" lon="8.487066032351747"><ele>167.0</ele><time>2026-03-30T16:14:43Z</time></trkpt><trkpt lat="39.46666361777933" lon="8.486934350567733"><ele>167.0</ele><time>2026-03-30T16:14:44Z</time></trkpt><trkpt lat="39.46669779577687" lon="8.486789882002814"><ele>166.25</ele><time>2026-03-30T16:14:45Z</time></trkpt><trkpt lat="39.46676762690242" lon="8.486659411338751"><ele>165.5</ele><time>2026-03-30T16:14:46Z</time></trkpt><trkpt lat="39.466830361810416" lon="8.48653296934158"><ele>164.75</ele><time>2026-03-30T16:14:47Z</time></trkpt><trkpt lat="39.46684725801196" lon="8.486385721724284"><ele>164.0</ele><time>2026-03-30T16:14:48Z</time></trkpt><trkpt lat="39.466804238019144" lon="8.486239107561385"><ele>165.75</ele><time>2026-03-30T16:14:49Z</time></trkpt><trkpt lat="39.466695210085064" lon="8.486145117413884"><ele>167.5</ele><time>2026-03-30T16:14:50Z</time></trkpt><trkpt lat="39.466563470907346" lon="8.48612980017122"><ele>169.25</ele><time>2026-03-30T16:14:51Z</time></trkpt><trkpt lat="39.46644975932398" lon="8.486141314434665"><ele>171.0</ele><time>2026-03-30T16:14:52Z</time></trkpt><trkpt lat="39.46637055357036" lon="8.486088521263904"><ele>171.0</ele><time>2026-03-30T16:14:53Z</time></trkpt><trkpt lat="39.46633686785318" lon="8.4859641074047"><ele>171.0</ele><time>2026-03-30T16:14:54Z</time></trkpt><trkpt lat="39.466338480664064" lon="8.485812711841474"><ele>171.0</ele><time>2026-03-30T16:14:55Z</time></trkpt><trkpt lat="39.466350109804075" lon="8.485670254774096"><ele>171.0</ele><time>2026-03-30T16:14:56Z</time></trkpt><trkpt lat="39.46632082696285" lon="8.48553750223722"><ele>171.0</ele><time>2026-03-30T16:14:57Z</time></trkpt><trkpt lat="39.46623368725551" lon="8.48544414123412"><ele>167.60000000000002</ele><time>2026-03-30T16:14:58Z</time></trkpt><trkpt lat="39.46613026090721" lon="8.485380540502216"><ele>164.20000000000002</ele><time>2026-03-30T16:14:59Z</time></trkpt><trkpt lat="39.466050992256285" lon="8.485302079352422"><ele>160.8</ele><time>2026-03-30T16:15:00Z</time></trkpt><trkpt lat="39.46599693899393" lon="8.485172383481991"><ele>157.4</ele><time>2026-03-30T16:15:01Z</time></trkpt><trkpt lat="39.46595399828878" lon="8.48503390806508"><ele>154.0</ele><time>2026-03-30T16:15:02Z</time></trkpt><trkpt lat="39.46590843615226" lon="8.484898050637206"><ele>154.0</ele><time>2026-03-30T16:15:03Z</time></trkpt><trkpt lat="39.465853225962064" lon="8.484769026238833"><ele>154.0</ele><time>2026-03-30T16:15:04Z</time></trkpt><trkpt lat="39.4657817044741" lon="8.484653645642162"><ele>154.0</ele><time>2026-03-30T16:15:05Z</time></trkpt><trkpt lat="39.46568378058402" lon="8.484571955709502"><ele>154.0</ele><time>2026-03-30T16:15:06Z</time></trkpt><trkpt lat="39.465580541244336" lon="8.484499242497535"><ele>151.75</ele><time>2026-03-30T16:15:07Z</time></trkpt><trkpt lat="39.465472595553365" lon="8.484431544304643"><ele>149.5</ele><time>2026-03-30T16:15:08Z</time></trkpt><trkpt lat="39.46536060092118" lon="8.484373238567656"><ele>147.25</ele><time>2026-03-30T16:15:09Z</time></trkpt><trkpt lat="39.465251084829475" lon="8.484304089429012"><ele>145.0</ele><time>2026-03-30T16:15:10Z</time></trkpt><trkpt lat="39.46515082095039" lon="8.4842416343426"><ele>145.0</ele><time>2026-03-30T16:15:11Z</time></trkpt><trkpt lat="39.46505112295031" lon="8.484196830004977"><ele>145.0</ele><time>2026-03-30T16:15:12Z</time></trkpt><trkpt lat="39.46495712462367" lon="8.484141887261995"><ele>145.0</ele><time>2026-03-30T16:15:13Z</time></trkpt><trkpt lat="39.464883842105834" lon="8.484040789090889"><ele>145.0</ele><time>2026-03-30T16:15:14Z</time></trkpt><trkpt lat="39.46485089599289" lon="8.483896463543875"><ele>145.0</ele><time>2026-03-30T16:15:15Z</time></trkpt><trkpt lat="39.46487544174735" lon="8.483736179324158"><ele>143.25</ele><time>2026-03-30T16:15:16Z</time></trkpt><trkpt lat="39.46493818994894" lon="8.483607784681153"><ele>141.5</ele><time>2026-03-30T16:15:17Z</time></trkpt><trkpt lat="39.46501304957272" lon="8.483491853498995"><ele>139.75</ele><time>2026-03-30T16:15:18Z</time></trkpt><trkpt lat="39.46509184060822" lon="8.48338022771777"><ele>138.0</ele><time>2026-03-30T16:15:19Z</time></trkpt><trkpt lat="39.46518381565871" lon="8.483283773514227"><ele>138.0</ele><time>2026-03-30T16:15:20Z</time></trkpt><trkpt lat="39.46528284133437" lon="8.483205802358768"><ele>138.0</ele><time>2026-03-30T16:15:21Z</time></trkpt><trkpt lat="39.46535795875516" lon="8.483100937790724"><ele>138.0</ele><time>2026-03-30T16:15:22Z</time></trkpt><trkpt lat="39.46537699247913" lon="8.482952670789713"><ele>138.0</ele><time>2026-03-30T16:15:23Z</time></trkpt><trkpt lat="39.46531938179035" lon="8.48280235831629"><ele>134.5</ele><time>2026-03-30T16:15:24Z</time></trkpt><trkpt lat="39.46523726433138" lon="8.482683068752442"><ele>131.0</ele><time>2026-03-30T16:15:25Z</time></trkpt><trkpt lat="39.46518418818325" lon="8.482555979163156"><ele>127.5</ele><time>2026-03-30T16:15:26Z</time></trkpt><trkpt lat="39.46520582267383" lon="8.482405241442816"><ele>124.0</ele><time>2026-03-30T16:15:27Z</time></trkpt><trkpt lat="39.4652805880739" lon="8.48226971384976"><ele>124.0</ele><time>2026-03-30T16:15:28Z</time></trkpt><trkpt lat="39.465380833531476" lon="8.482163978542934"><ele>124.0</ele><time>2026-03-30T16:15:29Z</time></trkpt><trkpt lat="39.46548747370367" lon="8.482082052710961"><ele>124.0</ele><time>2026-03-30T16:15:30Z</time></trkpt><trkpt lat="39.46560255139588" lon="8.482017386153789"><ele>124.0</ele><time>2026-03-30T16:15:31Z</time></trkpt><trkpt lat="39.4657111468195" lon="8.481940541899226"><ele>128.0</ele><time>2026-03-30T16:15:32Z</time></trkpt><trkpt lat="39.46579192637536" lon="8.481830376027172"><ele>132.0</ele><time>2026-03-30T16:15:33Z</time></trkpt><trkpt lat="39.46582778780329" lon="8.481697126286416"><ele>136.0</ele><time>2026-03-30T16:15:34Z</time></trkpt><trkpt lat="39.46579608277598" lon="8.481565256587572"><ele>140.0</ele><time>2026-03-30T16:15:35Z</time></trkpt><trkpt lat="39.46570576154456" lon="8.481472893492336"><ele>144.0</ele><time>2026-03-30T16:15:36Z</time></trkpt><trkpt lat="39.46558695712252" lon="8.481426168440176"><ele>144.0</ele><time>2026-03-30T16:15:37Z</time></trkpt><trkpt lat="39.465457606533995" lon="8.481407272069958"><ele>144.0</ele><time>2026-03-30T16:15:38Z</time></trkpt><trkpt lat="39.46532646824087" lon="8.481385420987039"><ele>144.0</ele><time>2026-03-30T16:15:39Z</time></trkpt><trkpt lat="39.46519377555147" lon="8.481377777437787"><ele>144.0</ele><time>2026-03-30T16:15:40Z</time></trkpt><trkpt lat="39.46505935681923" lon="8.481397979420633"><ele>138.5</ele><time>2026-03-30T16:15:41Z</time></trkpt><trkpt lat="39.46492379202986" lon="8.481427196934316"><ele>133.0</ele><time>2026-03-30T16:15:42Z</time></trkpt><trkpt lat="39.464797817189364" lon="8.481471802850288"><ele>127.5</ele><time>2026-03-30T16:15:43Z</time></trkpt><trkpt lat="39.46468032909188" lon="8.4814991533671"><ele>122.0</ele><time>2026-03-30T16:15:44Z</time></trkpt><trkpt lat="39.464570693187184" lon="8.481520367512399"><ele>119.6</ele><time>2026-03-30T16:15:45Z</time></trkpt><trkpt lat="39.464471710721334" lon="8.481482634887326"><ele>117.19999999999999</ele><time>2026-03-30T16:15:46Z</time></trkpt><trkpt lat="39.464385959235386" lon="8.48141962907768"><ele>114.8</ele><time>2026-03-30T16:15:47Z</time></trkpt><trkpt lat="39.46434819869932" lon="8.48127472043283"><ele>112.4</ele><time>2026-03-30T16:15:48Z</time></trkpt><trkpt lat="39.464368000472305" lon="8.481118434437716"><ele>110.0</ele><time>2026-03-30T16:15:49Z</time></trkpt><trkpt lat="39.464407322946315" lon="8.480975679922205"><ele>110.0</ele><time>2026-03-30T16:15:50Z</time></trkpt><trkpt lat="39.464438240827995" lon="8.480841949400615"><ele>110.0</ele><time>2026-03-30T16:15:51Z</time></trkpt><trkpt lat="39.46442133524017" lon="8.480716005325016"><ele>110.0</ele><time>2026-03-30T16:15:52Z</time></trkpt><trkpt lat="39.464344140887995" lon="8.48061782791652"><ele>110.0</ele><time>2026-03-30T16:15:53Z</time></trkpt><trkpt lat="39.464224630052755" lon="8.480575318928535"><ele>110.0</ele><time>2026-03-30T16:15:54Z</time></trkpt><trkpt lat="39.46409843310899" lon="8.480589059388581"><ele>110.0</ele><time>2026-03-30T16:15:55Z</time></trkpt><trkpt lat="39.46397695831323" lon="8.48060133284376"><ele>110.0</ele><time>2026-03-30T16:15:56Z</time></trkpt><trkpt lat="39.46385758874628" lon="8.480602629506405"><ele>110.0</ele><time>2026-03-30T16:15:57Z</time></trkpt><trkpt lat="39.46373994314069" lon="8.480602194711867"><ele>110.0</ele><time>2026-03-30T16:15:58Z</time></trkpt><trkpt lat="39.46362141100319" lon="8.480598372827988"><ele>109.75</ele><time>2026-03-30T16:15:59Z</time></trkpt><trkpt lat="39.46350760827769" lon="8.480580847630847"><ele>109.5</ele><time>2026-03-30T16:16:00Z</time></trkpt><trkpt lat="39.46340209041606" lon="8.480525872050533"><ele>109.25</ele><time>2026-03-30T16:16:01Z</time></trkpt><trkpt lat="39.46332986483146" lon="8.48041306408515"><ele>109.0</ele><time>2026-03-30T16:16:02Z</time></trkpt><trkpt lat="39.463284533309846" lon="8.480275650780762"><ele>109.0</ele><time>2026-03-30T16:16:03Z</time></trkpt><trkpt lat="39.463223296345014" lon="8.480144026522183"><ele>109.0</ele><time>2026-03-30T16:16:04Z</time></trkpt><trkpt lat="39.46315810041694" lon="8.480010602940443"><ele>109.0</ele><time>2026-03-30T16:16:05Z</time></trkpt><trkpt lat="39.463082788281675" lon="8.479876915728763"><ele>109.0</ele><time>2026-03-30T16:16:06Z</time></trkpt><trkpt lat="39.46301078309687" lon="8.479734148189712"><ele>104.0</ele><time>2026-03-30T16:16:07Z</time></trkpt><trkpt lat="39.46293686082853" lon="8.479586097113906"><ele>99.0</ele><time>2026-03-30T16:16:08Z</time></trkpt><trkpt lat="39.46286791987187" lon="8.47944113518945"><ele>94.0</ele><time>2026-03-30T16:16:09Z</time></trkpt><trkpt lat="39.46279906370755" lon="8.479301341320989"><ele>89.0</ele><time>2026-03-30T16:16:10Z</time></trkpt><trkpt lat="39.46273746223617" lon="8.47917161896605"><ele>89.0</ele><time>2026-03-30T16:16:11Z</time></trkpt><trkpt lat="39.46268740076829" lon="8.479045836229057"><ele>89.0</ele><time>2026-03-30T16:16:12Z</time></trkpt><trkpt lat="39.46267088878332" lon="8.47891165908872"><ele>89.0</ele><time>2026-03-30T16:16:13Z</time></trkpt><trkpt lat="39.46271800250869" lon="8.478779390820709"><ele>89.0</ele><time>2026-03-30T16:16:14Z</time></trkpt><trkpt lat="39.46279937532416" lon="8.478676492551378"><ele>89.0</ele><time>2026-03-30T16:16:15Z</time></trkpt><trkpt lat="39.46288313166803" lon="8.478583375485638"><ele>93.0</ele><time>2026-03-30T16:16:16Z</time></trkpt><trkpt lat="39.4629626517781" lon="8.478472438716052"><ele>97.0</ele><time>2026-03-30T16:16:17Z</time></trkpt><trkpt lat="39.463041019752495" lon="8.478356164014956"><ele>101.0</ele><time>2026-03-30T16:16:18Z</time></trkpt><trkpt lat="39.463116794735456" lon="8.478237382600529"><ele>105.0</ele><time>2026-03-30T16:16:19Z</time></trkpt><trkpt lat="39.46319315282961" lon="8.478117449524817"><ele>105.0</ele><time>2026-03-30T16:16:20Z</time></trkpt><trkpt lat="39.4632723312498" lon="8.478004289872697"><ele>105.0</ele><time>2026-03-30T16:16:21Z</time></trkpt><trkpt lat="39.463350650688966" lon="8.47789887375257"><ele>105.0</ele><time>2026-03-30T16:16:22Z</time></trkpt><trkpt lat="39.463423741152" lon="8.477793439555601"><ele>105.0</ele><time>2026-03-30T16:16:23Z</time></trkpt><trkpt lat="39.463474134463375" lon="8.47767709045435"><ele>105.0</ele><time>2026-03-30T16:16:24Z</time></trkpt><trkpt lat="39.46347984521404" lon="8.477545436188379"><ele>104.0</ele><time>2026-03-30T16:16:25Z</time></trkpt><trkpt lat="39.463432333904585" lon="8.477427685447246"><ele>103.0</ele><time>2026-03-30T16:16:26Z</time></trkpt><trkpt lat="39.4633356957247" lon="8.477375464957996"><ele>102.0</ele><time>2026-03-30T16:16:27Z</time></trkpt><trkpt lat="39.46323097846823" lon="8.477390590491579"><ele>101.0</ele><time>2026-03-30T16:16:28Z</time></trkpt><trkpt lat="39.46313682745148" lon="8.47748734885267"><ele>100.0</ele><time>2026-03-30T16:16:29Z</time></trkpt><trkpt lat="39.46306019022224" lon="8.477566916758308"><ele>100.0</ele><time>2026-03-30T16:16:30Z</time></trkpt><trkpt lat="39.46297289847228" lon="8.47765375115567"><ele>100.0</ele><time>2026-03-30T16:16:31Z</time></trkpt><trkpt lat="39.46287312993088" lon="8.477738049506746"><ele>100.0</ele><time>2026-03-30T16:16:32Z</time></trkpt><trkpt lat="39.46276296538002" lon="8.477816563750705"><ele>100.0</ele><time>2026-03-30T16:16:33Z</time></trkpt><trkpt lat="39.462645919630575" lon="8.477892742901748"><ele>96.0</ele><time>2026-03-30T16:16:34Z</time></trkpt><trkpt lat="39.46252506175538" lon="8.477977719327013"><ele>92.0</ele><time>2026-03-30T16:16:35Z</time></trkpt><trkpt lat="39.46239119367989" lon="8.478014227263984"><ele>88.0</ele><time>2026-03-30T16:16:36Z</time></trkpt><trkpt lat="39.46225820211641" lon="8.478041594451144"><ele>84.0</ele><time>2026-03-30T16:16:37Z</time></trkpt><trkpt lat="39.46212764556148" lon="8.478060738772983"><ele>84.75</ele><time>2026-03-30T16:16:38Z</time></trkpt><trkpt lat="39.46201256081592" lon="8.478150216264375"><ele>85.5</ele><time>2026-03-30T16:16:39Z</time></trkpt><trkpt lat="39.46191238759315" lon="8.478270417710931"><ele>86.25</ele><time>2026-03-30T16:16:40Z</time></trkpt><trkpt lat="39.46182355410018" lon="8.478409179002412"><ele>87.0</ele><time>2026-03-30T16:16:41Z</time></trkpt><trkpt lat="39.461747120556645" lon="8.478559192729623"><ele>87.0</ele><time>2026-03-30T16:16:42Z</time></trkpt><trkpt lat="39.46167137018974" lon="8.478711408083274"><ele>87.0</ele><time>2026-03-30T16:16:43Z</time></trkpt><trkpt lat="39.4615934205033" lon="8.478862484143717"><ele>87.0</ele><time>2026-03-30T16:16:44Z</time></trkpt><trkpt lat="39.46151096975557" lon="8.47900608336"><ele>87.0</ele><time>2026-03-30T16:16:45Z</time></trkpt><trkpt lat="39.461422891390484" lon="8.47914506398907"><ele>84.25</ele><time>2026-03-30T16:16:46Z</time></trkpt><trkpt lat="39.46133458501546" lon="8.47928250969448"><ele>81.5</ele><time>2026-03-30T16:16:47Z</time></trkpt><trkpt lat="39.46124959090005" lon="8.479414799987119"><ele>78.75</ele><time>2026-03-30T16:16:48Z</time></trkpt><trkpt lat="39.461169569572036" lon="8.479536137966777"><ele>76.0</ele><time>2026-03-30T16:16:49Z</time></trkpt><trkpt lat="39.46108448523186" lon="8.479641316279404"><ele>76.0</ele><time>2026-03-30T16:16:50Z</time></trkpt><trkpt lat="39.46098296897874" lon="8.479717646351439"><ele>76.0</ele><time>2026-03-30T16:16:51Z</time></trkpt><trkpt lat="39.46086213121894" lon="8.47971572830657"><ele>76.0</ele><time>2026-03-30T16:16:52Z</time></trkpt><trkpt lat="39.46074342123238" lon="8.479664545242356"><ele>76.0</ele><time>2026-03-30T16:16:53Z</time></trkpt><trkpt lat="39.46063673851472" lon="8.47957936048432"><ele>76.0</ele><time>2026-03-30T16:16:54Z</time></trkpt><trkpt lat="39.4605337784961" lon="8.479486765412897"><ele>76.0</ele><time>2026-03-30T16:16:55Z</time></trkpt><trkpt lat="39.46042243921727" lon="8.479403726936361"><ele>76.0</ele><time>2026-03-30T16:16:56Z</time></trkpt><trkpt lat="39.46030580640838" lon="8.47931564547375"><ele>76.0</ele><time>2026-03-30T16:16:57Z</time></trkpt><trkpt lat="39.46019461258521" lon="8.479218736363013"><ele>75.0</ele><time>2026-03-30T16:16:58Z</time></trkpt><trkpt lat="39.46009317940443" lon="8.479105302626618"><ele>74.0</ele><time>2026-03-30T16:16:59Z</time></trkpt><trkpt lat="39.4600048709345" lon="8.47897834654823"><ele>73.0</ele><time>2026-03-30T16:17:00Z</time></trkpt><trkpt lat="39.45992789078509" lon="8.478852056833498"><ele>72.0</ele><time>2026-03-30T16:17:01Z</time></trkpt><trkpt lat="39.45983297586658" lon="8.478763197881001"><ele>72.0</ele><time>2026-03-30T16:17:02Z</time></trkpt><trkpt lat="39.45970673888047" lon="8.478741262867931"><ele>72.0</ele><time>2026-03-30T16:17:03Z</time></trkpt><trkpt lat="39.45957097530532" lon="8.47873951283693"><ele>72.0</ele><time>2026-03-30T16:17:04Z</time></trkpt><trkpt lat="39.45944085120509" lon="8.47875382126312"><ele>72.0</ele><time>2026-03-30T16:17:05Z</time></trkpt><trkpt lat="39.4593043780773" lon="8.478744223477614"><ele>70.5</ele><time>2026-03-30T16:17:06Z</time></trkpt><trkpt lat="39.45916897601255" lon="8.478725064737693"><ele>69.0</ele><time>2026-03-30T16:17:07Z</time></trkpt><trkpt lat="39.45903276834396" lon="8.478709077222268"><ele>67.5</ele><time>2026-03-30T16:17:08Z</time></trkpt><trkpt lat="39.458892729847555" lon="8.478691928183563"><ele>66.0</ele><time>2026-03-30T16:17:09Z</time></trkpt><trkpt lat="39.45874773958602" lon="8.478667978153666"><ele>63.0</ele><time>2026-03-30T16:17:10Z</time></trkpt><trkpt lat="39.458601286941615" lon="8.478635388201871"><ele>60.0</ele><time>2026-03-30T16:17:11Z</time></trkpt><trkpt lat="39.45845174796625" lon="8.478596133250928"><ele>57.0</ele><time>2026-03-30T16:17:12Z</time></trkpt><trkpt lat="39.45830032000398" lon="8.478552260944383"><ele>57.0</ele><time>2026-03-30T16:17:13Z</time></trkpt><trkpt lat="39.45814975327905" lon="8.478504970887146"><ele>57.0</ele><time>2026-03-30T16:17:14Z</time></trkpt><trkpt lat="39.4580019411746" lon="8.478460644037296"><ele>57.0</ele><time>2026-03-30T16:17:15Z</time></trkpt><trkpt lat="39.45785773011821" lon="8.478415729402885"><ele>55.0</ele><time>2026-03-30T16:17:16Z</time></trkpt><trkpt lat="39.45771847583043" lon="8.478368865085265"><ele>53.0</ele><time>2026-03-30T16:17:17Z</time></trkpt><trkpt lat="39.45758041827572" lon="8.478327813949408"><ele>51.0</ele><time>2026-03-30T16:17:18Z</time></trkpt><trkpt lat="39.457442317530365" lon="8.478302760388692"><ele>49.0</ele><time>2026-03-30T16:17:19Z</time></trkpt><trkpt lat="39.45730464680209" lon="8.478300103381192"><ele>49.0</ele><time>2026-03-30T16:17:20Z</time></trkpt><trkpt lat="39.45717002665431" lon="8.478329108559066"><ele>49.0</ele><time>2026-03-30T16:17:21Z</time></trkpt><trkpt lat="39.45703223251317" lon="8.478366416932829"><ele>49.0</ele><time>2026-03-30T16:17:22Z</time></trkpt><trkpt lat="39.456905450151844" lon="8.478447659785894"><ele>49.0</ele><time>2026-03-30T16:17:23Z</time></trkpt><trkpt lat="39.456765035493206" lon="8.478492861947005"><ele>48.25</ele><time>2026-03-30T16:17:24Z</time></trkpt><trkpt lat="39.45661870090713" lon="8.478516294466798"><ele>47.5</ele><time>2026-03-30T16:17:25Z</time></trkpt><trkpt lat="39.456473528889646" lon="8.478517772675362"><ele>46.75</ele><time>2026-03-30T16:17:26Z</time></trkpt><trkpt lat="39.456331986385386" lon="8.478498652263019"><ele>46.0</ele><time>2026-03-30T16:17:27Z</time></trkpt><trkpt lat="39.45619267855891" lon="8.478477374599205"><ele>45.0</ele><time>2026-03-30T16:17:28Z</time></trkpt><trkpt lat="39.45605210981255" lon="8.478456781576073"><ele>44.0</ele><time>2026-03-30T16:17:29Z</time></trkpt><trkpt lat="39.45591156515467" lon="8.478446490875204"><ele>43.0</ele><time>2026-03-30T16:17:30Z</time></trkpt><trkpt lat="39.45577053585226" lon="8.47844104411244"><ele>42.0</ele><time>2026-03-30T16:17:31Z</time></trkpt><trkpt lat="39.45562929795449" lon="8.47843069769692"><ele>42.0</ele><time>2026-03-30T16:17:32Z</time></trkpt><trkpt lat="39.45548633307562" lon="8.478429541562633"><ele>42.0</ele><time>2026-03-30T16:17:33Z</time></trkpt><trkpt lat="39.45534331789032" lon="8.478435289631145"><ele>42.0</ele><time>2026-03-30T16:17:34Z</time></trkpt><trkpt lat="39.45520163653975" lon="8.478438655101005"><ele>42.0</ele><time>2026-03-30T16:17:35Z</time></trkpt><trkpt lat="39.455058489740466" lon="8.478439447137456"><ele>41.25</ele><time>2026-03-30T16:17:36Z</time></trkpt><trkpt lat="39.45491480911626" lon="8.47844310501801"><ele>40.5</ele><time>2026-03-30T16:17:37Z</time></trkpt><trkpt lat="39.45477002585179" lon="8.4784476797046"><ele>39.75</ele><time>2026-03-30T16:17:38Z</time></trkpt><trkpt lat="39.4546234642899" lon="8.47845590126555"><ele>39.0</ele><time>2026-03-30T16:17:39Z</time></trkpt><trkpt lat="39.45448066165575" lon="8.478455761315633"><ele>39.0</ele><time>2026-03-30T16:17:40Z</time></trkpt><trkpt lat="39.454342107925264" lon="8.478455404709468"><ele>39.0</ele><time>2026-03-30T16:17:41Z</time></trkpt><trkpt lat="39.454204926128014" lon="8.478460079573264"><ele>39.0</ele><time>2026-03-30T16:17:42Z</time></trkpt><trkpt lat="39.45407030748373" lon="8.478464699983988"><ele>39.0</ele><time>2026-03-30T16:17:43Z</time></trkpt><trkpt lat="39.453937268462035" lon="8.478474127523041"><ele>39.0</ele><time>2026-03-30T16:17:44Z</time></trkpt><trkpt lat="39.453808172632115" lon="8.478474600449445"><ele>39.0</ele><time>2026-03-30T16:17:45Z</time></trkpt><trkpt lat="39.45369275924554" lon="8.478530246750628"><ele>39.0</ele><time>2026-03-30T16:17:46Z</time></trkpt><trkpt lat="39.453616496021745" lon="8.478642375035665"><ele>39.0</ele><time>2026-03-30T16:17:47Z</time></trkpt><trkpt lat="39.45356077474769" lon="8.478745016755454"><ele>39.0</ele><time>2026-03-30T16:17:48Z</time></trkpt><trkpt lat="39.453507510303915" lon="8.478830342285837"><ele>39.0</ele><time>2026-03-30T16:17:49Z</time></trkpt><trkpt lat="39.45344710210599" lon="8.478898437691845"><ele>39.0</ele><time>2026-03-30T16:17:50Z</time></trkpt><trkpt lat="39.45338141478756" lon="8.478955920098239"><ele>39.0</ele><time>2026-03-30T16:17:51Z</time></trkpt><trkpt lat="39.45331598074819" lon="8.479001559581349"><ele>39.0</ele><time>2026-03-30T16:17:52Z</time></trkpt><trkpt lat="39.45324896561756" lon="8.479032214768704"><ele>39.0</ele><time>2026-03-30T16:17:53Z</time></trkpt><trkpt lat="39.453141726923704" lon="8.479040773469297"><ele>39.0</ele><time>2026-03-30T16:17:55Z</time></trkpt><trkpt lat="39.45303450577318" lon="8.479033965958125"><ele>39.0</ele><time>2026-03-30T16:17:57Z</time></trkpt><trkpt lat="39.45293641321336" lon="8.479010022113295"><ele>39.0</ele><time>2026-03-30T16:17:59Z</time></trkpt><trkpt lat="39.452838979003005" lon="8.478974327895362"><ele>39.0</ele><time>2026-03-30T16:18:01Z</time></trkpt><trkpt lat="39.4527379410978" lon="8.478964559256994"><ele>39.0</ele><time>2026-03-30T16:18:03Z</time></trkpt><trkpt lat="39.45264745677182" lon="8.47892515178487"><ele>38.2</ele><time>2026-03-30T16:18:05Z</time></trkpt><trkpt lat="39.45255680745483" lon="8.478904357076896"><ele>37.4</ele><time>2026-03-30T16:18:07Z</time></trkpt><trkpt lat="39.45246088408095" lon="8.478882352514852"><ele>36.6</ele><time>2026-03-30T16:18:09Z</time></trkpt><trkpt lat="39.452343870548354" lon="8.478855509926024"><ele>35.8</ele><time>2026-03-30T16:18:11Z</time></trkpt><trkpt lat="39.45227621329062" lon="8.478839989533732"><ele>35.0</ele><time>2026-03-30T16:18:12Z</time></trkpt><trkpt lat="39.452199380785906" lon="8.478822364365609"><ele>35.0</ele><time>2026-03-30T16:18:13Z</time></trkpt><trkpt lat="39.452111814101684" lon="8.478820929891953"><ele>35.0</ele><time>2026-03-30T16:18:14Z</time></trkpt><trkpt lat="39.452023449258036" lon="8.478791081772213"><ele>35.0</ele><time>2026-03-30T16:18:15Z</time></trkpt><trkpt lat="39.45193749271708" lon="8.478767211414143"><ele>35.0</ele><time>2026-03-30T16:18:16Z</time></trkpt><trkpt lat="39.45184822895893" lon="8.478733062977117"><ele>35.0</ele><time>2026-03-30T16:18:17Z</time></trkpt><trkpt lat="39.45175886896411" lon="8.478682719577796"><ele>35.0</ele><time>2026-03-30T16:18:18Z</time></trkpt><trkpt lat="39.45166422455404" lon="8.478626533427123"><ele>35.0</ele><time>2026-03-30T16:18:19Z</time></trkpt><trkpt lat="39.45156124315294" lon="8.478579768693328"><ele>35.0</ele><time>2026-03-30T16:18:20Z</time></trkpt><trkpt lat="39.4514520870184" lon="8.478529303313536"><ele>35.0</ele><time>2026-03-30T16:18:21Z</time></trkpt><trkpt lat="39.45134825775698" lon="8.478471617664002"><ele>35.0</ele><time>2026-03-30T16:18:22Z</time></trkpt><trkpt lat="39.451241699014226" lon="8.47841976462015"><ele>35.75</ele><time>2026-03-30T16:18:23Z</time></trkpt><trkpt lat="39.45112721849136" lon="8.478395183519984"><ele>36.5</ele><time>2026-03-30T16:18:24Z</time></trkpt><trkpt lat="39.45100490913878" lon="8.478407198816491"><ele>37.25</ele><time>2026-03-30T16:18:25Z</time></trkpt><trkpt lat="39.450887789020015" lon="8.478412956340577"><ele>38.0</ele><time>2026-03-30T16:18:26Z</time></trkpt><trkpt lat="39.450771781242516" lon="8.47838625452139"><ele>38.0</ele><time>2026-03-30T16:18:27Z</time></trkpt><trkpt lat="39.45066569954388" lon="8.478308957632045"><ele>38.0</ele><time>2026-03-30T16:18:28Z</time></trkpt><trkpt lat="39.450582014550015" lon="8.478188611774698"><ele>38.0</ele><time>2026-03-30T16:18:29Z</time></trkpt><trkpt lat="39.45053159596613" lon="8.478040029881058"><ele>38.0</ele><time>2026-03-30T16:18:30Z</time></trkpt><trkpt lat="39.45051015694372" lon="8.47787193970348"><ele>36.666666666666664</ele><time>2026-03-30T16:18:31Z</time></trkpt><trkpt lat="39.450480905419006" lon="8.477691132797341"><ele>35.333333333333336</ele><time>2026-03-30T16:18:32Z</time></trkpt><trkpt lat="39.45043562406723" lon="8.477501110140691"><ele>34.0</ele><time>2026-03-30T16:18:33Z</time></trkpt><trkpt lat="39.45038544793614" lon="8.47729712582065"><ele>36.0</ele><time>2026-03-30T16:18:34Z</time></trkpt><trkpt lat="39.45030319207322" lon="8.476872564963788"><ele>38.0</ele><time>2026-03-30T16:18:36Z</time></trkpt><trkpt lat="39.45026024953278" lon="8.476653769803542"><ele>38.0</ele><time>2026-03-30T16:18:37Z</time></trkpt><trkpt lat="39.45021367542029" lon="8.47643459653545"><ele>38.0</ele><time>2026-03-30T16:18:38Z</time></trkpt><trkpt lat="39.450165532720455" lon="8.476233324185094"><ele>38.0</ele><time>2026-03-30T16:18:39Z</time></trkpt><trkpt lat="39.45012847433567" lon="8.476033934064413"><ele>38.0</ele><time>2026-03-30T16:18:40Z</time></trkpt><trkpt lat="39.450115362667326" lon="8.47583010905503"><ele>38.0</ele><time>2026-03-30T16:18:41Z</time></trkpt><trkpt lat="39.450127448946056" lon="8.475626582207745"><ele>38.0</ele><time>2026-03-30T16:18:42Z</time></trkpt><trkpt lat="39.450160841495894" lon="8.475409578087062"><ele>40.0</ele><time>2026-03-30T16:18:43Z</time></trkpt><trkpt lat="39.45020427836735" lon="8.475198606475884"><ele>42.0</ele><time>2026-03-30T16:18:44Z</time></trkpt><trkpt lat="39.45024224061187" lon="8.474985363230896"><ele>44.0</ele><time>2026-03-30T16:18:45Z</time></trkpt><trkpt lat="39.45027969348397" lon="8.474765887186976"><ele>44.0</ele><time>2026-03-30T16:18:46Z</time></trkpt><trkpt lat="39.45031703846712" lon="8.474543885774645"><ele>44.0</ele><time>2026-03-30T16:18:47Z</time></trkpt><trkpt lat="39.45034264738869" lon="8.47431500464737"><ele>44.0</ele><time>2026-03-30T16:18:48Z</time></trkpt><trkpt lat="39.45035438477877" lon="8.474083907466296"><ele>44.0</ele><time>2026-03-30T16:18:49Z</time></trkpt><trkpt lat="39.45035785334617" lon="8.473850787870397"><ele>44.0</ele><time>2026-03-30T16:18:50Z</time></trkpt><trkpt lat="39.450359344484006" lon="8.473619534878173"><ele>44.0</ele><time>2026-03-30T16:18:51Z</time></trkpt><trkpt lat="39.45037536429412" lon="8.47338973118779"><ele>45.0</ele><time>2026-03-30T16:18:52Z</time></trkpt><trkpt lat="39.45040806168562" lon="8.473161058391323"><ele>46.0</ele><time>2026-03-30T16:18:53Z</time></trkpt><trkpt lat="39.45046093966177" lon="8.472939616002071"><ele>47.0</ele><time>2026-03-30T16:18:54Z</time></trkpt><trkpt lat="39.45050147453279" lon="8.472714544303088"><ele>41.0</ele><time>2026-03-30T16:18:55Z</time></trkpt><trkpt lat="39.450518903953544" lon="8.472483777506625"><ele>35.0</ele><time>2026-03-30T16:18:56Z</time></trkpt><trkpt lat="39.45052036728167" lon="8.472253571396362"><ele>29.0</ele><time>2026-03-30T16:18:57Z</time></trkpt><trkpt lat="39.45049888285572" lon="8.472019946528391"><ele>28.666666666666664</ele><time>2026-03-30T16:18:58Z</time></trkpt><trkpt lat="39.45047735798301" lon="8.471787052403027"><ele>28.333333333333336</ele><time>2026-03-30T16:18:59Z</time></trkpt><trkpt lat="39.45046105532436" lon="8.471555000394613"><ele>28.0</ele><time>2026-03-30T16:19:00Z</time></trkpt><trkpt lat="39.45045185601385" lon="8.47132082378391"><ele>35.0</ele><time>2026-03-30T16:19:01Z</time></trkpt><trkpt lat="39.45044397996645" lon="8.471086404369684"><ele>42.0</ele><time>2026-03-30T16:19:02Z</time></trkpt><trkpt lat="39.450435058478" lon="8.470848159973299"><ele>49.0</ele><time>2026-03-30T16:19:03Z</time></trkpt><trkpt lat="39.450423245346386" lon="8.47061239483178"><ele>48.666666666666664</ele><time>2026-03-30T16:19:04Z</time></trkpt><trkpt lat="39.45040560788467" lon="8.470374034118208"><ele>48.33333333333333</ele><time>2026-03-30T16:19:05Z</time></trkpt><trkpt lat="39.450382473131334" lon="8.470135334786793"><ele>48.0</ele><time>2026-03-30T16:19:06Z</time></trkpt><trkpt lat="39.450353138023715" lon="8.469894882148909"><ele>48.0</ele><time>2026-03-30T16:19:07Z</time></trkpt><trkpt lat="39.45032043757752" lon="8.469651907567695"><ele>48.0</ele><time>2026-03-30T16:19:08Z</time></trkpt><trkpt lat="39.450291006519684" lon="8.469407157157102"><ele>48.0</ele><time>2026-03-30T16:19:09Z</time></trkpt><trkpt lat="39.45026854344117" lon="8.469171901265002"><ele>45.0</ele><time>2026-03-30T16:19:10Z</time></trkpt><trkpt lat="39.450254468790476" lon="8.468949028716072"><ele>42.0</ele><time>2026-03-30T16:19:11Z</time></trkpt><trkpt lat="39.45025100666143" lon="8.46873454760951"><ele>39.0</ele><time>2026-03-30T16:19:12Z</time></trkpt><trkpt lat="39.45025957083554" lon="8.468532407078587"><ele>37.25</ele><time>2026-03-30T16:19:13Z</time></trkpt><trkpt lat="39.450264277170106" lon="8.468343731203156"><ele>35.5</ele><time>2026-03-30T16:19:14Z</time></trkpt><trkpt lat="39.45022929961669" lon="8.46816769165936"><ele>33.75</ele><time>2026-03-30T16:19:15Z</time></trkpt><trkpt lat="39.4501468456528" lon="8.468024862212483"><ele>32.0</ele><time>2026-03-30T16:19:16Z</time></trkpt><trkpt lat="39.45002928839202" lon="8.467917859942274"><ele>31.0</ele><time>2026-03-30T16:19:17Z</time></trkpt><trkpt lat="39.44989577040024" lon="8.46785503459267"><ele>30.0</ele><time>2026-03-30T16:19:18Z</time></trkpt><trkpt lat="39.44974769211296" lon="8.467855427135518"><ele>29.0</ele><time>2026-03-30T16:19:19Z</time></trkpt><trkpt lat="39.44960696925773" lon="8.467858335430819"><ele>28.0</ele><time>2026-03-30T16:19:20Z</time></trkpt><trkpt lat="39.44945439907598" lon="8.467883207087791"><ele>27.333333333333336</ele><time>2026-03-30T16:19:21Z</time></trkpt><trkpt lat="39.44928678391954" lon="8.467909526623961"><ele>26.666666666666664</ele><time>2026-03-30T16:19:22Z</time></trkpt><trkpt lat="39.44911680321425" lon="8.467917699727439"><ele>26.0</ele><time>2026-03-30T16:19:23Z</time></trkpt><trkpt lat="39.44895375646449" lon="8.467863798009475"><ele>27.0</ele><time>2026-03-30T16:19:24Z</time></trkpt><trkpt lat="39.44878620936523" lon="8.467790186220618"><ele>28.0</ele><time>2026-03-30T16:19:25Z</time></trkpt><trkpt lat="39.448612364402855" lon="8.467716145491057"><ele>29.0</ele><time>2026-03-30T16:19:26Z</time></trkpt><trkpt lat="39.448440894722474" lon="8.467638295422631"><ele>29.0</ele><time>2026-03-30T16:19:27Z</time></trkpt><trkpt lat="39.44827358675628" lon="8.467574104750614"><ele>29.0</ele><time>2026-03-30T16:19:28Z</time></trkpt><trkpt lat="39.44811226648442" lon="8.467488777762329"><ele>29.0</ele><time>2026-03-30T16:19:29Z</time></trkpt><trkpt lat="39.44798159146659" lon="8.467358609285249"><ele>29.0</ele><time>2026-03-30T16:19:30Z</time></trkpt><trkpt lat="39.44785696518492" lon="8.467218499387286"><ele>29.0</ele><time>2026-03-30T16:19:31Z</time></trkpt><trkpt lat="39.447739010149554" lon="8.46706663386151"><ele>29.0</ele><time>2026-03-30T16:19:32Z</time></trkpt><trkpt lat="39.44762130832548" lon="8.466913013462584"><ele>29.0</ele><time>2026-03-30T16:19:33Z</time></trkpt><trkpt lat="39.447520551917165" lon="8.46674860472318"><ele>29.0</ele><time>2026-03-30T16:19:34Z</time></trkpt><trkpt lat="39.447452982412784" lon="8.466558558285543"><ele>29.0</ele><time>2026-03-30T16:19:35Z</time></trkpt><trkpt lat="39.447422261878856" lon="8.466350099604337"><ele>28.333333333333332</ele><time>2026-03-30T16:19:36Z</time></trkpt><trkpt lat="39.447417688269695" lon="8.466131806656698"><ele>27.666666666666664</ele><time>2026-03-30T16:19:37Z</time></trkpt><trkpt lat="39.44741857357975" lon="8.465908641309158"><ele>27.0</ele><time>2026-03-30T16:19:38Z</time></trkpt><trkpt lat="39.4474191940414" lon="8.46568471240515"><ele>27.0</ele><time>2026-03-30T16:19:39Z</time></trkpt><trkpt lat="39.44741606153306" lon="8.465459658113222"><ele>27.0</ele><time>2026-03-30T16:19:40Z</time></trkpt><trkpt lat="39.44740890284959" lon="8.465240194146478"><ele>27.0</ele><time>2026-03-30T16:19:41Z</time></trkpt><trkpt lat="39.44738339094735" lon="8.465018461510622"><ele>26.333333333333336</ele><time>2026-03-30T16:19:42Z</time></trkpt><trkpt lat="39.44733801628845" lon="8.464802003715384"><ele>25.666666666666668</ele><time>2026-03-30T16:19:43Z</time></trkpt><trkpt lat="39.4473188937584" lon="8.464572301520837"><ele>25.0</ele><time>2026-03-30T16:19:44Z</time></trkpt><trkpt lat="39.44727454571001" lon="8.464355188478443"><ele>24.333333333333336</ele><time>2026-03-30T16:19:45Z</time></trkpt><trkpt lat="39.44723758050712" lon="8.464130832619686"><ele>23.666666666666668</ele><time>2026-03-30T16:19:46Z</time></trkpt><trkpt lat="39.447201328548715" lon="8.463905950820058"><ele>23.0</ele><time>2026-03-30T16:19:47Z</time></trkpt><trkpt lat="39.44716270639378" lon="8.46368337858654"><ele>25.0</ele><time>2026-03-30T16:19:48Z</time></trkpt><trkpt lat="39.44712325863989" lon="8.463459639128049"><ele>27.0</ele><time>2026-03-30T16:19:49Z</time></trkpt><trkpt lat="39.447084679466045" lon="8.463235475442229"><ele>29.0</ele><time>2026-03-30T16:19:50Z</time></trkpt><trkpt lat="39.44704746237904" lon="8.463025564122526"><ele>27.5</ele><time>2026-03-30T16:19:51Z</time></trkpt><trkpt lat="39.44701357561448" lon="8.462839896953389"><ele>26.0</ele><time>2026-03-30T16:19:52Z</time></trkpt><trkpt lat="39.446983896292885" lon="8.462664859028461"><ele>24.5</ele><time>2026-03-30T16:19:53Z</time></trkpt><trkpt lat="39.44696868277624" lon="8.462483978706029"><ele>23.0</ele><time>2026-03-30T16:19:54Z</time></trkpt><trkpt lat="39.44698858729879" lon="8.46231167181773"><ele>23.0</ele><time>2026-03-30T16:19:55Z</time></trkpt><trkpt lat="39.447042837442055" lon="8.462148217113782"><ele>23.0</ele><time>2026-03-30T16:19:56Z</time></trkpt><trkpt lat="39.447105754316546" lon="8.461990106752378"><ele>23.0</ele><time>2026-03-30T16:19:57Z</time></trkpt><trkpt lat="39.44716979549625" lon="8.46182912837963"><ele>23.0</ele><time>2026-03-30T16:19:58Z</time></trkpt><trkpt lat="39.44722819534766" lon="8.461659821482028"><ele>23.0</ele><time>2026-03-30T16:19:59Z</time></trkpt><trkpt lat="39.44728499599379" lon="8.46148039433632"><ele>23.0</ele><time>2026-03-30T16:20:00Z</time></trkpt><trkpt lat="39.447343677640255" lon="8.461293187762623"><ele>23.0</ele><time>2026-03-30T16:20:01Z</time></trkpt><trkpt lat="39.44740170596305" lon="8.461102431060985"><ele>24.666666666666668</ele><time>2026-03-30T16:20:02Z</time></trkpt><trkpt lat="39.44746396672338" lon="8.460910074239216"><ele>26.333333333333336</ele><time>2026-03-30T16:20:03Z</time></trkpt><trkpt lat="39.44752931515426" lon="8.460712439256975"><ele>28.0</ele><time>2026-03-30T16:20:04Z</time></trkpt><trkpt lat="39.447588878305844" lon="8.460529269755616"><ele>31.0</ele><time>2026-03-30T16:20:05Z</time></trkpt><trkpt lat="39.44764533675738" lon="8.460339276471327"><ele>34.0</ele><time>2026-03-30T16:20:06Z</time></trkpt><trkpt lat="39.4476995567812" lon="8.460137656714423"><ele>37.0</ele><time>2026-03-30T16:20:07Z</time></trkpt><trkpt lat="39.447755292681656" lon="8.45994651772006"><ele>37.0</ele><time>2026-03-30T16:20:08Z</time></trkpt><trkpt lat="39.44782790928293" lon="8.459758875600324"><ele>37.0</ele><time>2026-03-30T16:20:09Z</time></trkpt><trkpt lat="39.44791655743562" lon="8.459578860071964"><ele>37.0</ele><time>2026-03-30T16:20:10Z</time></trkpt><trkpt lat="39.44800751756015" lon="8.459399045240234"><ele>33.333333333333336</ele><time>2026-03-30T16:20:11Z</time></trkpt><trkpt lat="39.44809254804089" lon="8.459214424372535"><ele>29.666666666666664</ele><time>2026-03-30T16:20:12Z</time></trkpt><trkpt lat="39.44816494374836" lon="8.459024190682584"><ele>26.0</ele><time>2026-03-30T16:20:13Z</time></trkpt><trkpt lat="39.448228646211916" lon="8.45882329100593"><ele>27.0</ele><time>2026-03-30T16:20:14Z</time></trkpt><trkpt lat="39.44827592252561" lon="8.458615818442153"><ele>28.0</ele><time>2026-03-30T16:20:15Z</time></trkpt><trkpt lat="39.44831482089027" lon="8.458403150040924"><ele>29.0</ele><time>2026-03-30T16:20:16Z</time></trkpt><trkpt lat="39.44835575343616" lon="8.45819326984467"><ele>29.0</ele><time>2026-03-30T16:20:17Z</time></trkpt><trkpt lat="39.44839970585794" lon="8.45798288258312"><ele>29.0</ele><time>2026-03-30T16:20:18Z</time></trkpt><trkpt lat="39.4484489065458" lon="8.457775861002027"><ele>29.0</ele><time>2026-03-30T16:20:19Z</time></trkpt><trkpt lat="39.44850914889233" lon="8.457571002511294"><ele>30.333333333333332</ele><time>2026-03-30T16:20:20Z</time></trkpt><trkpt lat="39.4485875382836" lon="8.457371502682026"><ele>31.666666666666664</ele><time>2026-03-30T16:20:21Z</time></trkpt><trkpt lat="39.44868008299785" lon="8.457185218610991"><ele>33.0</ele><time>2026-03-30T16:20:22Z</time></trkpt><trkpt lat="39.448784261885166" lon="8.457002169330464"><ele>31.333333333333336</ele><time>2026-03-30T16:20:22.999Z</time></trkpt><trkpt lat="39.44889372886904" lon="8.45682348162166"><ele>29.666666666666668</ele><time>2026-03-30T16:20:23.999Z</time></trkpt><trkpt lat="39.44900759467563" lon="8.456650072501166"><ele>28.0</ele><time>2026-03-30T16:20:24.999Z</time></trkpt><trkpt lat="39.44911389363838" lon="8.456478286318614"><ele>28.0</ele><time>2026-03-30T16:20:25.999Z</time></trkpt><trkpt lat="39.449214325025814" lon="8.45630477535816"><ele>28.0</ele><time>2026-03-30T16:20:26.999Z</time></trkpt><trkpt lat="39.44931279539048" lon="8.456135642050574"><ele>28.0</ele><time>2026-03-30T16:20:27.999Z</time></trkpt><trkpt lat="39.44941324633449" lon="8.455967749700696"><ele>32.0</ele><time>2026-03-30T16:20:28.999Z</time></trkpt><trkpt lat="39.449497832716034" lon="8.455791101242497"><ele>36.0</ele><time>2026-03-30T16:20:29.999Z</time></trkpt><trkpt lat="39.449555682713964" lon="8.455593639703041"><ele>40.0</ele><time>2026-03-30T16:20:30.999Z</time></trkpt><trkpt lat="39.44958818674609" lon="8.455385329497123"><ele>43.0</ele><time>2026-03-30T16:20:31.999Z</time></trkpt><trkpt lat="39.44960825746744" lon="8.455169442082623"><ele>46.0</ele><time>2026-03-30T16:20:32.999Z</time></trkpt><trkpt lat="39.44962764664461" lon="8.454956803212388"><ele>49.0</ele><time>2026-03-30T16:20:33.999Z</time></trkpt><trkpt lat="39.44964908634191" lon="8.454745271273806"><ele>40.0</ele><time>2026-03-30T16:20:34.999Z</time></trkpt><trkpt lat="39.44967479291304" lon="8.454530197740436"><ele>31.0</ele><time>2026-03-30T16:20:35.999Z</time></trkpt><trkpt lat="39.44970111063577" lon="8.454317311140425"><ele>22.0</ele><time>2026-03-30T16:20:36.999Z</time></trkpt><trkpt lat="39.449717549421734" lon="8.454098913212952"><ele>22.0</ele><time>2026-03-30T16:20:37.999Z</time></trkpt><trkpt lat="39.44970892126937" lon="8.453876173030624"><ele>22.0</ele><time>2026-03-30T16:20:38.999Z</time></trkpt><trkpt lat="39.44968800615323" lon="8.453651922353483"><ele>22.0</ele><time>2026-03-30T16:20:39.999Z</time></trkpt><trkpt lat="39.44966391230156" lon="8.453427890268065"><ele>21.333333333333332</ele><time>2026-03-30T16:20:40.999Z</time></trkpt><trkpt lat="39.44964726067165" lon="8.45320280078008"><ele>20.666666666666668</ele><time>2026-03-30T16:20:41.999Z</time></trkpt><trkpt lat="39.449636040081444" lon="8.452981585121613"><ele>20.0</ele><time>2026-03-30T16:20:42.999Z</time></trkpt><trkpt lat="39.449623110870576" lon="8.452764191507482"><ele>23.666666666666668</ele><time>2026-03-30T16:20:43.999Z</time></trkpt><trkpt lat="39.449607498208806" lon="8.452546258871214"><ele>27.333333333333336</ele><time>2026-03-30T16:20:44.999Z</time></trkpt><trkpt lat="39.44959002511316" lon="8.452327676141941"><ele>31.0</ele><time>2026-03-30T16:20:45.999Z</time></trkpt><trkpt lat="39.449572007551865" lon="8.452113894141958"><ele>31.0</ele><time>2026-03-30T16:20:46.999Z</time></trkpt><trkpt lat="39.4495542573369" lon="8.451903970043077"><ele>31.0</ele><time>2026-03-30T16:20:47.999Z</time></trkpt><trkpt lat="39.44953913037268" lon="8.45169581292184"><ele>31.0</ele><time>2026-03-30T16:20:48.999Z</time></trkpt><trkpt lat="39.449578050523385" lon="8.451501935498554"><ele>27.0</ele><time>2026-03-30T16:20:49.999Z</time></trkpt><trkpt lat="39.4496379673794" lon="8.451307139830655"><ele>23.0</ele><time>2026-03-30T16:20:51Z</time></trkpt><trkpt lat="39.44969256453451" lon="8.45110580096323"><ele>19.0</ele><time>2026-03-30T16:20:52Z</time></trkpt><trkpt lat="39.44976498428621" lon="8.45091451010847"><ele>19.0</ele><time>2026-03-30T16:20:53Z</time></trkpt><trkpt lat="39.44982311006636" lon="8.450717653742778"><ele>19.0</ele><time>2026-03-30T16:20:54Z</time></trkpt><trkpt lat="39.44987976885914" lon="8.450521362399396"><ele>19.0</ele><time>2026-03-30T16:20:55Z</time></trkpt><trkpt lat="39.449933198259565" lon="8.45034178078205"><ele>19.25</ele><time>2026-03-30T16:20:56Z</time></trkpt><trkpt lat="39.44998735195871" lon="8.450165201996553"><ele>19.5</ele><time>2026-03-30T16:20:57Z</time></trkpt><trkpt lat="39.45002295256233" lon="8.449990505703564"><ele>19.75</ele><time>2026-03-30T16:20:58Z</time></trkpt><trkpt lat="39.450025961837525" lon="8.449809961798016"><ele>20.0</ele><time>2026-03-30T16:20:59Z</time></trkpt><trkpt lat="39.449985907673955" lon="8.449637432559866"><ele>19.25</ele><time>2026-03-30T16:21:00Z</time></trkpt><trkpt lat="39.44990284106682" lon="8.44948296376902"><ele>18.5</ele><time>2026-03-30T16:21:01Z</time></trkpt><trkpt lat="39.44979532034922" lon="8.449349673987115"><ele>17.75</ele><time>2026-03-30T16:21:02Z</time></trkpt><trkpt lat="39.449688657455404" lon="8.449220607993436"><ele>17.0</ele><time>2026-03-30T16:21:03Z</time></trkpt><trkpt lat="39.44959197019379" lon="8.449082250532253"><ele>16.75</ele><time>2026-03-30T16:21:04Z</time></trkpt><trkpt lat="39.44950176731619" lon="8.448939543905025"><ele>16.5</ele><time>2026-03-30T16:21:05Z</time></trkpt><trkpt lat="39.449415663746464" lon="8.448798126328912"><ele>16.25</ele><time>2026-03-30T16:21:06Z</time></trkpt><trkpt lat="39.449323036867796" lon="8.448671106634688"><ele>16.0</ele><time>2026-03-30T16:21:07Z</time></trkpt><trkpt lat="39.44921453383693" lon="8.448567328055109"><ele>16.0</ele><time>2026-03-30T16:21:08Z</time></trkpt><trkpt lat="39.449087695183614" lon="8.44850063950164"><ele>16.0</ele><time>2026-03-30T16:21:09Z</time></trkpt><trkpt lat="39.448951697256916" lon="8.448462056414867"><ele>16.0</ele><time>2026-03-30T16:21:10Z</time></trkpt><trkpt lat="39.448817614738125" lon="8.448422382457139"><ele>16.0</ele><time>2026-03-30T16:21:11Z</time></trkpt><trkpt lat="39.44868061023276" lon="8.448374412093992"><ele>16.5</ele><time>2026-03-30T16:21:12Z</time></trkpt><trkpt lat="39.448540694838485" lon="8.448323909979953"><ele>17.0</ele><time>2026-03-30T16:21:13Z</time></trkpt><trkpt lat="39.448401247339326" lon="8.448269823526129"><ele>17.5</ele><time>2026-03-30T16:21:14Z</time></trkpt><trkpt lat="39.44825999964026" lon="8.448216435333972"><ele>18.0</ele><time>2026-03-30T16:21:15Z</time></trkpt><trkpt lat="39.44812124368115" lon="8.448161160794498"><ele>18.0</ele><time>2026-03-30T16:21:16Z</time></trkpt><trkpt lat="39.44799125443192" lon="8.448110691863977"><ele>18.0</ele><time>2026-03-30T16:21:17Z</time></trkpt><trkpt lat="39.44787395850923" lon="8.448065484372886"><ele>18.0</ele><time>2026-03-30T16:21:18Z</time></trkpt><trkpt lat="39.44776102231237" lon="8.448022173639018"><ele>18.0</ele><time>2026-03-30T16:21:19Z</time></trkpt><trkpt lat="39.447648725616155" lon="8.447978033496327"><ele>17.2</ele><time>2026-03-30T16:21:20Z</time></trkpt><trkpt lat="39.4475395162101" lon="8.447935950307603"><ele>16.4</ele><time>2026-03-30T16:21:21Z</time></trkpt><trkpt lat="39.447436893189995" lon="8.447894536180963"><ele>15.599999999999998</ele><time>2026-03-30T16:21:22Z</time></trkpt><trkpt lat="39.44733936904372" lon="8.447856130250498"><ele>14.799999999999999</ele><time>2026-03-30T16:21:23Z</time></trkpt><trkpt lat="39.447237807511875" lon="8.447817559932355"><ele>14.0</ele><time>2026-03-30T16:21:24Z</time></trkpt><trkpt lat="39.44713073870551" lon="8.44777839106836"><ele>14.75</ele><time>2026-03-30T16:21:25Z</time></trkpt><trkpt lat="39.4470197503249" lon="8.447736751219132"><ele>15.5</ele><time>2026-03-30T16:21:26Z</time></trkpt><trkpt lat="39.446908092336386" lon="8.447674561631416"><ele>16.25</ele><time>2026-03-30T16:21:27Z</time></trkpt><trkpt lat="39.446800636739404" lon="8.447590906104567"><ele>17.0</ele><time>2026-03-30T16:21:28Z</time></trkpt><trkpt lat="39.44670250145166" lon="8.447482500522925"><ele>17.0</ele><time>2026-03-30T16:21:29Z</time></trkpt><trkpt lat="39.44660962211861" lon="8.447360786743651"><ele>17.0</ele><time>2026-03-30T16:21:30Z</time></trkpt><trkpt lat="39.446513002179614" lon="8.447241005477062"><ele>17.0</ele><time>2026-03-30T16:21:31Z</time></trkpt><trkpt lat="39.446410069043324" lon="8.44713159821072"><ele>17.0</ele><time>2026-03-30T16:21:32Z</time></trkpt><trkpt lat="39.44630431497178" lon="8.447026308189711"><ele>17.75</ele><time>2026-03-30T16:21:33Z</time></trkpt><trkpt lat="39.44619665998851" lon="8.44691477222612"><ele>18.5</ele><time>2026-03-30T16:21:34Z</time></trkpt><trkpt lat="39.446094463502085" lon="8.446798306748596"><ele>19.25</ele><time>2026-03-30T16:21:35Z</time></trkpt><trkpt lat="39.44600295448652" lon="8.4466805651137"><ele>20.0</ele><time>2026-03-30T16:21:36Z</time></trkpt><trkpt lat="39.44591646339959" lon="8.446557477563552"><ele>20.0</ele><time>2026-03-30T16:21:37Z</time></trkpt><trkpt lat="39.445837189760354" lon="8.446432299699785"><ele>20.0</ele><time>2026-03-30T16:21:38Z</time></trkpt><trkpt lat="39.445756091330004" lon="8.446309643534539"><ele>20.0</ele><time>2026-03-30T16:21:39Z</time></trkpt><trkpt lat="39.44567307414823" lon="8.446187292674036"><ele>20.0</ele><time>2026-03-30T16:21:40Z</time></trkpt><trkpt lat="39.44558363958646" lon="8.446071841200295"><ele>20.5</ele><time>2026-03-30T16:21:41Z</time></trkpt><trkpt lat="39.44548558052215" lon="8.445960632471527"><ele>21.0</ele><time>2026-03-30T16:21:42Z</time></trkpt><trkpt lat="39.44538217166872" lon="8.44584870029443"><ele>21.5</ele><time>2026-03-30T16:21:43Z</time></trkpt><trkpt lat="39.44527746647443" lon="8.445745300765386"><ele>22.0</ele><time>2026-03-30T16:21:44Z</time></trkpt><trkpt lat="39.445177121537256" lon="8.445630755278055"><ele>22.0</ele><time>2026-03-30T16:21:45Z</time></trkpt><trkpt lat="39.44507202603621" lon="8.445520456799407"><ele>22.0</ele><time>2026-03-30T16:21:46Z</time></trkpt><trkpt lat="39.44496694233302" lon="8.445414519609406"><ele>22.0</ele><time>2026-03-30T16:21:47Z</time></trkpt><trkpt lat="39.44486686104434" lon="8.445305586020766"><ele>22.0</ele><time>2026-03-30T16:21:48Z</time></trkpt><trkpt lat="39.44476658861204" lon="8.445197182919262"><ele>22.75</ele><time>2026-03-30T16:21:49Z</time></trkpt><trkpt lat="39.444672682071115" lon="8.445080531529781"><ele>23.5</ele><time>2026-03-30T16:21:50Z</time></trkpt><trkpt lat="39.44458752613079" lon="8.44496028086556"><ele>24.25</ele><time>2026-03-30T16:21:51Z</time></trkpt><trkpt lat="39.444507819886006" lon="8.444825915465632"><ele>25.0</ele><time>2026-03-30T16:21:52Z</time></trkpt><trkpt lat="39.44443163735437" lon="8.444700391452837"><ele>22.25</ele><time>2026-03-30T16:21:53Z</time></trkpt><trkpt lat="39.44435560213899" lon="8.444575920638831"><ele>19.5</ele><time>2026-03-30T16:21:54Z</time></trkpt><trkpt lat="39.444276272691354" lon="8.444454276908372"><ele>16.75</ele><time>2026-03-30T16:21:55Z</time></trkpt><trkpt lat="39.444200165847086" lon="8.444333214330607"><ele>14.0</ele><time>2026-03-30T16:21:56Z</time></trkpt><trkpt lat="39.444126661256185" lon="8.44421108290245"><ele>14.0</ele><time>2026-03-30T16:21:57Z</time></trkpt><trkpt lat="39.444060778855196" lon="8.44409114334532"><ele>13.999999999999998</ele><time>2026-03-30T16:21:58Z</time></trkpt><trkpt lat="39.44399789700501" lon="8.443975399601914"><ele>13.999999999999998</ele><time>2026-03-30T16:21:59Z</time></trkpt><trkpt lat="39.44394696614466" lon="8.44385559420297"><ele>14.0</ele><time>2026-03-30T16:22:00Z</time></trkpt><trkpt lat="39.44390560867724" lon="8.443730345817944"><ele>14.0</ele><time>2026-03-30T16:22:01Z</time></trkpt><trkpt lat="39.443873336390446" lon="8.443603821140726"><ele>13.6</ele><time>2026-03-30T16:22:02Z</time></trkpt><trkpt lat="39.44385822713181" lon="8.443469843607414"><ele>13.2</ele><time>2026-03-30T16:22:03Z</time></trkpt><trkpt lat="39.44386535755577" lon="8.443336084968632"><ele>12.799999999999999</ele><time>2026-03-30T16:22:04Z</time></trkpt><trkpt lat="39.44389214788211" lon="8.443202278014295"><ele>12.399999999999999</ele><time>2026-03-30T16:22:05Z</time></trkpt><trkpt lat="39.443935383813454" lon="8.443073378818596"><ele>12.0</ele><time>2026-03-30T16:22:06Z</time></trkpt><trkpt lat="39.443989898623826" lon="8.442956136169526"><ele>13.0</ele><time>2026-03-30T16:22:07Z</time></trkpt><trkpt lat="39.44404955284565" lon="8.442839424188294"><ele>14.0</ele><time>2026-03-30T16:22:08Z</time></trkpt><trkpt lat="39.444109650996865" lon="8.442717198799912"><ele>15.0</ele><time>2026-03-30T16:22:09Z</time></trkpt><trkpt lat="39.44416922587662" lon="8.442594295968568"><ele>16.0</ele><time>2026-03-30T16:22:10Z</time></trkpt><trkpt lat="39.44423020270001" lon="8.442465428696234"><ele>17.0</ele><time>2026-03-30T16:22:11Z</time></trkpt><trkpt lat="39.44429911004035" lon="8.442334241680332"><ele>17.0</ele><time>2026-03-30T16:22:12Z</time></trkpt><trkpt lat="39.44437166911093" lon="8.442206111421461"><ele>17.0</ele><time>2026-03-30T16:22:13Z</time></trkpt><trkpt lat="39.44444047548995" lon="8.44207567030124"><ele>17.0</ele><time>2026-03-30T16:22:14Z</time></trkpt><trkpt lat="39.44450546321918" lon="8.441956810728353"><ele>17.0</ele><time>2026-03-30T16:22:15Z</time></trkpt><trkpt lat="39.44456334231073" lon="8.441838131172887"><ele>17.0</ele><time>2026-03-30T16:22:16Z</time></trkpt><trkpt lat="39.4446069439222" lon="8.44171846916644"><ele>17.0</ele><time>2026-03-30T16:22:17Z</time></trkpt><trkpt lat="39.44463303800532" lon="8.441591859921733"><ele>17.0</ele><time>2026-03-30T16:22:18Z</time></trkpt><trkpt lat="39.44464065697783" lon="8.441456990619319"><ele>17.0</ele><time>2026-03-30T16:22:19Z</time></trkpt><trkpt lat="39.44462822714429" lon="8.441314704593738"><ele>17.0</ele><time>2026-03-30T16:22:20Z</time></trkpt><trkpt lat="39.44460201804735" lon="8.441169081099627"><ele>18.5</ele><time>2026-03-30T16:22:21Z</time></trkpt><trkpt lat="39.444570368735995" lon="8.441019458487258"><ele>20.0</ele><time>2026-03-30T16:22:22Z</time></trkpt><trkpt lat="39.44453978022684" lon="8.440857860481572"><ele>21.5</ele><time>2026-03-30T16:22:23Z</time></trkpt><trkpt lat="39.444513774037105" lon="8.44068667616451"><ele>23.0</ele><time>2026-03-30T16:22:24Z</time></trkpt><trkpt lat="39.44448820408746" lon="8.440509138251471"><ele>21.25</ele><time>2026-03-30T16:22:25Z</time></trkpt><trkpt lat="39.44445950667426" lon="8.440325156234557"><ele>19.5</ele><time>2026-03-30T16:22:26Z</time></trkpt><trkpt lat="39.44443054941975" lon="8.440133972449397"><ele>17.75</ele><time>2026-03-30T16:22:27Z</time></trkpt><trkpt lat="39.44440173424806" lon="8.439943335533775"><ele>16.0</ele><time>2026-03-30T16:22:28Z</time></trkpt><trkpt lat="39.44437375814991" lon="8.439757423088476"><ele>15.0</ele><time>2026-03-30T16:22:29Z</time></trkpt><trkpt lat="39.4443461370339" lon="8.439574484211935"><ele>14.0</ele><time>2026-03-30T16:22:30Z</time></trkpt><trkpt lat="39.44431762800264" lon="8.439394085937314"><ele>13.0</ele><time>2026-03-30T16:22:31Z</time></trkpt><trkpt lat="39.44429273489359" lon="8.43921164100798"><ele>12.0</ele><time>2026-03-30T16:22:32Z</time></trkpt><trkpt lat="39.44426848006348" lon="8.439029587728369"><ele>12.0</ele><time>2026-03-30T16:22:33Z</time></trkpt><trkpt lat="39.44424988839652" lon="8.438847128047017"><ele>12.0</ele><time>2026-03-30T16:22:34Z</time></trkpt><trkpt lat="39.44423390138019" lon="8.438664341902232"><ele>12.0</ele><time>2026-03-30T16:22:35Z</time></trkpt><trkpt lat="39.44421733082427" lon="8.43848401350694"><ele>12.0</ele><time>2026-03-30T16:22:36Z</time></trkpt><trkpt lat="39.444201259474845" lon="8.43830464250941"><ele>11.75</ele><time>2026-03-30T16:22:37Z</time></trkpt><trkpt lat="39.444186056126014" lon="8.438126877735614"><ele>11.5</ele><time>2026-03-30T16:22:38Z</time></trkpt><trkpt lat="39.444172551742135" lon="8.437950271496733"><ele>11.25</ele><time>2026-03-30T16:22:39Z</time></trkpt><trkpt lat="39.44416037044986" lon="8.437775138011837"><ele>11.0</ele><time>2026-03-30T16:22:40Z</time></trkpt><trkpt lat="39.44414724244978" lon="8.43759890318082"><ele>11.0</ele><time>2026-03-30T16:22:41Z</time></trkpt><trkpt lat="39.44413147318932" lon="8.437425584297362"><ele>11.0</ele><time>2026-03-30T16:22:42Z</time></trkpt><trkpt lat="39.444115431285105" lon="8.43725554499665"><ele>11.0</ele><time>2026-03-30T16:22:43Z</time></trkpt><trkpt lat="39.44410214155566" lon="8.437093777836843"><ele>11.0</ele><time>2026-03-30T16:22:44Z</time></trkpt><trkpt lat="39.44408761779921" lon="8.436938380098676"><ele>11.5</ele><time>2026-03-30T16:22:45Z</time></trkpt><trkpt lat="39.44407515295569" lon="8.436782881106948"><ele>12.0</ele><time>2026-03-30T16:22:46Z</time></trkpt><trkpt lat="39.444064447955974" lon="8.436625869308855"><ele>12.5</ele><time>2026-03-30T16:22:47Z</time></trkpt><trkpt lat="39.44405549713076" lon="8.436465531234498"><ele>13.0</ele><time>2026-03-30T16:22:48Z</time></trkpt><trkpt lat="39.44404427475863" lon="8.436305280969538"><ele>11.75</ele><time>2026-03-30T16:22:49Z</time></trkpt><trkpt lat="39.44402897161311" lon="8.436142621933095"><ele>10.5</ele><time>2026-03-30T16:22:50Z</time></trkpt><trkpt lat="39.44400517338298" lon="8.435980541977859"><ele>9.25</ele><time>2026-03-30T16:22:51Z</time></trkpt><trkpt lat="39.44396025617172" lon="8.435830806431587"><ele>8.0</ele><time>2026-03-30T16:22:52Z</time></trkpt><trkpt lat="39.443901541822754" lon="8.43569716724171"><ele>8.0</ele><time>2026-03-30T16:22:53Z</time></trkpt><trkpt lat="39.44384080981726" lon="8.43557646912745"><ele>8.0</ele><time>2026-03-30T16:22:54Z</time></trkpt><trkpt lat="39.44378559635555" lon="8.435458738696047"><ele>8.0</ele><time>2026-03-30T16:22:55Z</time></trkpt><trkpt lat="39.44373380996594" lon="8.43533990458889"><ele>8.0</ele><time>2026-03-30T16:22:56Z</time></trkpt><trkpt lat="39.44368119799129" lon="8.435226953186193"><ele>8.0</ele><time>2026-03-30T16:22:57Z</time></trkpt><trkpt lat="39.44362939466154" lon="8.43511759986647"><ele>9.0</ele><time>2026-03-30T16:22:58Z</time></trkpt><trkpt lat="39.443580571174806" lon="8.435009594914636"><ele>10.0</ele><time>2026-03-30T16:22:59Z</time></trkpt><trkpt lat="39.443533868007925" lon="8.43490545920888"><ele>11.0</ele><time>2026-03-30T16:23:00Z</time></trkpt><trkpt lat="39.44348803579917" lon="8.434801251994745"><ele>12.0</ele><time>2026-03-30T16:23:01Z</time></trkpt><trkpt lat="39.44343802623066" lon="8.434695496112989"><ele>13.0</ele><time>2026-03-30T16:23:02Z</time></trkpt><trkpt lat="39.44338688702233" lon="8.4345900895077"><ele>13.0</ele><time>2026-03-30T16:23:03Z</time></trkpt><trkpt lat="39.443337673418185" lon="8.434484086115086"><ele>13.0</ele><time>2026-03-30T16:23:04Z</time></trkpt><trkpt lat="39.44328766459374" lon="8.434376887448137"><ele>13.0</ele><time>2026-03-30T16:23:05Z</time></trkpt><trkpt lat="39.443237384858186" lon="8.434272121165465"><ele>13.0</ele><time>2026-03-30T16:23:06Z</time></trkpt><trkpt lat="39.443182459069206" lon="8.434165509075491"><ele>13.0</ele><time>2026-03-30T16:23:07Z</time></trkpt><trkpt lat="39.44313418875304" lon="8.434054362794877"><ele>13.0</ele><time>2026-03-30T16:23:08Z</time></trkpt><trkpt lat="39.44308896822176" lon="8.433949346804646"><ele>13.0</ele><time>2026-03-30T16:23:09Z</time></trkpt><trkpt lat="39.443046932029574" lon="8.433851772132913"><ele>13.0</ele><time>2026-03-30T16:23:10Z</time></trkpt><trkpt lat="39.44301192483898" lon="8.433748945782703"><ele>13.0</ele><time>2026-03-30T16:23:11Z</time></trkpt><trkpt lat="39.44298257439501" lon="8.433635930434397"><ele>13.0</ele><time>2026-03-30T16:23:12Z</time></trkpt><trkpt lat="39.442961017020714" lon="8.433493898829497"><ele>14.5</ele><time>2026-03-30T16:23:13Z</time></trkpt><trkpt lat="39.442941412673235" lon="8.433332968440864"><ele>16.0</ele><time>2026-03-30T16:23:14Z</time></trkpt><trkpt lat="39.44292374064359" lon="8.433150429365762"><ele>17.5</ele><time>2026-03-30T16:23:15Z</time></trkpt><trkpt lat="39.442908638304935" lon="8.432964030252933"><ele>19.0</ele><time>2026-03-30T16:23:16Z</time></trkpt><trkpt lat="39.44288769480396" lon="8.432755114941902"><ele>19.0</ele><time>2026-03-30T16:23:17Z</time></trkpt><trkpt lat="39.44287784089246" lon="8.432529396292633"><ele>19.0</ele><time>2026-03-30T16:23:18Z</time></trkpt><trkpt lat="39.442869611917864" lon="8.432305138117627"><ele>19.0</ele><time>2026-03-30T16:23:19Z</time></trkpt><trkpt lat="39.44285649769121" lon="8.432069322601837"><ele>17.666666666666664</ele><time>2026-03-30T16:23:20Z</time></trkpt><trkpt lat="39.44283655064298" lon="8.431833384775961"><ele>16.333333333333332</ele><time>2026-03-30T16:23:21Z</time></trkpt><trkpt lat="39.44280298130386" lon="8.431587933923554"><ele>15.0</ele><time>2026-03-30T16:23:22Z</time></trkpt><trkpt lat="39.44276348605969" lon="8.431335859034766"><ele>14.666666666666668</ele><time>2026-03-30T16:23:23Z</time></trkpt><trkpt lat="39.44270546342508" lon="8.43110316561336"><ele>14.333333333333334</ele><time>2026-03-30T16:23:24Z</time></trkpt><trkpt lat="39.442680687586176" lon="8.430871472655518"><ele>14.0</ele><time>2026-03-30T16:23:25Z</time></trkpt><trkpt lat="39.44265593821713" lon="8.430649725978228"><ele>12.666666666666668</ele><time>2026-03-30T16:23:26Z</time></trkpt><trkpt lat="39.44263519260278" lon="8.430431239564019"><ele>11.333333333333334</ele><time>2026-03-30T16:23:27Z</time></trkpt><trkpt lat="39.442615230906355" lon="8.43022054850579"><ele>10.0</ele><time>2026-03-30T16:23:28Z</time></trkpt><trkpt lat="39.44259498315744" lon="8.430017260812647"><ele>10.0</ele><time>2026-03-30T16:23:29Z</time></trkpt><trkpt lat="39.44257902650356" lon="8.429803286167285"><ele>10.0</ele><time>2026-03-30T16:23:30Z</time></trkpt><trkpt lat="39.442568489387774" lon="8.429598031032826"><ele>10.0</ele><time>2026-03-30T16:23:31Z</time></trkpt><trkpt lat="39.44255593458077" lon="8.429393178419119"><ele>10.0</ele><time>2026-03-30T16:23:32Z</time></trkpt><trkpt lat="39.4425297031494" lon="8.429223943314147"><ele>10.0</ele><time>2026-03-30T16:23:33Z</time></trkpt><trkpt lat="39.4425145559309" lon="8.429088847563104"><ele>10.0</ele><time>2026-03-30T16:23:34Z</time></trkpt><trkpt lat="39.44249007926804" lon="8.428950307090235"><ele>10.0</ele><time>2026-03-30T16:23:35Z</time></trkpt><trkpt lat="39.442489325033655" lon="8.42880681321927"><ele>9.5</ele><time>2026-03-30T16:23:36Z</time></trkpt><trkpt lat="39.44247500562372" lon="8.428655137730695"><ele>9.0</ele><time>2026-03-30T16:23:37Z</time></trkpt><trkpt lat="39.442458821945344" lon="8.428483715370673"><ele>8.5</ele><time>2026-03-30T16:23:38Z</time></trkpt><trkpt lat="39.44242644415585" lon="8.428292572584574"><ele>8.0</ele><time>2026-03-30T16:23:39Z</time></trkpt><trkpt lat="39.44241359437267" lon="8.428081684346006"><ele>7.666666666666666</ele><time>2026-03-30T16:23:40Z</time></trkpt><trkpt lat="39.44239461595721" lon="8.427866427523712"><ele>7.333333333333334</ele><time>2026-03-30T16:23:41Z</time></trkpt><trkpt lat="39.442374957216956" lon="8.427650139555595"><ele>7.0</ele><time>2026-03-30T16:23:42Z</time></trkpt><trkpt lat="39.44235302813299" lon="8.427426240760587"><ele>7.0</ele><time>2026-03-30T16:23:43Z</time></trkpt><trkpt lat="39.442328582895065" lon="8.427197179941507"><ele>7.0</ele><time>2026-03-30T16:23:44Z</time></trkpt><trkpt lat="39.44230414235576" lon="8.426964894891388"><ele>7.0</ele><time>2026-03-30T16:23:45Z</time></trkpt><trkpt lat="39.442285790136225" lon="8.426734516424363"><ele>7.333333333333334</ele><time>2026-03-30T16:23:46Z</time></trkpt><trkpt lat="39.44226965894958" lon="8.426510725191564"><ele>7.666666666666666</ele><time>2026-03-30T16:23:47Z</time></trkpt><trkpt lat="39.44225142492558" lon="8.426293892101798"><ele>8.0</ele><time>2026-03-30T16:23:48Z</time></trkpt><trkpt lat="39.44222705835461" lon="8.4260804277497"><ele>7.333333333333333</ele><time>2026-03-30T16:23:49Z</time></trkpt><trkpt lat="39.44217325376278" lon="8.425879022181624"><ele>6.666666666666666</ele><time>2026-03-30T16:23:50Z</time></trkpt><trkpt lat="39.442086371517156" lon="8.425687407496293"><ele>6.0</ele><time>2026-03-30T16:23:51Z</time></trkpt><trkpt lat="39.44197463946227" lon="8.42549769495833"><ele>6.0</ele><time>2026-03-30T16:23:52Z</time></trkpt><trkpt lat="39.44184732214887" lon="8.425305579208755"><ele>6.0</ele><time>2026-03-30T16:23:53Z</time></trkpt><trkpt lat="39.441716185462816" lon="8.425112732208518"><ele>6.0</ele><time>2026-03-30T16:23:54Z</time></trkpt><trkpt lat="39.441596271710516" lon="8.424921008524466"><ele>6.0</ele><time>2026-03-30T16:23:55Z</time></trkpt><trkpt lat="39.4414835043859" lon="8.424716836128516"><ele>6.0</ele><time>2026-03-30T16:23:56Z</time></trkpt><trkpt lat="39.44137388401834" lon="8.424507898051813"><ele>6.0</ele><time>2026-03-30T16:23:57Z</time></trkpt><trkpt lat="39.441264438564204" lon="8.424299903528086"><ele>6.666666666666666</ele><time>2026-03-30T16:23:58Z</time></trkpt><trkpt lat="39.44114955250247" lon="8.42409086091771"><ele>7.333333333333333</ele><time>2026-03-30T16:23:59Z</time></trkpt><trkpt lat="39.4410310841809" lon="8.423878634624973"><ele>8.0</ele><time>2026-03-30T16:24:00Z</time></trkpt><trkpt lat="39.44091262352618" lon="8.423666024225033"><ele>8.0</ele><time>2026-03-30T16:24:01Z</time></trkpt><trkpt lat="39.440800955319375" lon="8.423463376854189"><ele>8.0</ele><time>2026-03-30T16:24:02Z</time></trkpt><trkpt lat="39.440694817947104" lon="8.423268727043508"><ele>8.0</ele><time>2026-03-30T16:24:03Z</time></trkpt><trkpt lat="39.440595253003515" lon="8.423087607671583"><ele>8.0</ele><time>2026-03-30T16:24:04Z</time></trkpt><trkpt lat="39.44050261492016" lon="8.42291636089115"><ele>8.0</ele><time>2026-03-30T16:24:05Z</time></trkpt><trkpt lat="39.44042199818065" lon="8.422762100483007"><ele>8.0</ele><time>2026-03-30T16:24:06Z</time></trkpt><trkpt lat="39.44034513836409" lon="8.422606194551589"><ele>8.0</ele><time>2026-03-30T16:24:07Z</time></trkpt><trkpt lat="39.44028041337631" lon="8.422465497129165"><ele>8.25</ele><time>2026-03-30T16:24:08Z</time></trkpt><trkpt lat="39.44022511225725" lon="8.422322400387182"><ele>8.5</ele><time>2026-03-30T16:24:09Z</time></trkpt><trkpt lat="39.44018046194909" lon="8.422159400336191"><ele>8.75</ele><time>2026-03-30T16:24:10Z</time></trkpt><trkpt lat="39.440147454107766" lon="8.421985719728747"><ele>9.0</ele><time>2026-03-30T16:24:11Z</time></trkpt><trkpt lat="39.44012601078541" lon="8.421802246402141"><ele>9.0</ele><time>2026-03-30T16:24:12Z</time></trkpt><trkpt lat="39.4401054326961" lon="8.421608759695314"><ele>9.0</ele><time>2026-03-30T16:24:13Z</time></trkpt><trkpt lat="39.44008590180714" lon="8.421413579167014"><ele>9.0</ele><time>2026-03-30T16:24:14Z</time></trkpt><trkpt lat="39.440072616379965" lon="8.421225281255111"><ele>9.0</ele><time>2026-03-30T16:24:15Z</time></trkpt><trkpt lat="39.44006006340099" lon="8.421048896989504"><ele>8.5</ele><time>2026-03-30T16:24:16Z</time></trkpt><trkpt lat="39.4400469401971" lon="8.42088238478992"><ele>8.0</ele><time>2026-03-30T16:24:17Z</time></trkpt><trkpt lat="39.440036633323714" lon="8.42072583632068"><ele>7.5</ele><time>2026-03-30T16:24:18Z</time></trkpt><trkpt lat="39.44002580371284" lon="8.42057365116669"><ele>7.0</ele><time>2026-03-30T16:24:19Z</time></trkpt><trkpt lat="39.44001401446472" lon="8.42042992537882"><ele>6.6</ele><time>2026-03-30T16:24:20Z</time></trkpt><trkpt lat="39.44001985112242" lon="8.420268632116562"><ele>6.199999999999999</ele><time>2026-03-30T16:24:21Z</time></trkpt><trkpt lat="39.43999328389007" lon="8.420130223811759"><ele>5.8</ele><time>2026-03-30T16:24:22Z</time></trkpt><trkpt lat="39.439975908759294" lon="8.420014706021105"><ele>5.4</ele><time>2026-03-30T16:24:23Z</time></trkpt><trkpt lat="39.43994716565827" lon="8.419906604774036"><ele>5.0</ele><time>2026-03-30T16:24:24Z</time></trkpt><trkpt lat="39.43991075523952" lon="8.419806531839628"><ele>5.0</ele><time>2026-03-30T16:24:25Z</time></trkpt><trkpt lat="39.43986635351984" lon="8.419700391897964"><ele>5.0</ele><time>2026-03-30T16:24:26Z</time></trkpt><trkpt lat="39.439814024745395" lon="8.41959223252542"><ele>5.0</ele><time>2026-03-30T16:24:27Z</time></trkpt><trkpt lat="39.43975267885718" lon="8.41945808365963"><ele>5.0</ele><time>2026-03-30T16:24:28Z</time></trkpt><trkpt lat="39.43968171100568" lon="8.41929782693426"><ele>5.666666666666667</ele><time>2026-03-30T16:24:29Z</time></trkpt><trkpt lat="39.43960028095281" lon="8.419104835780661"><ele>6.333333333333334</ele><time>2026-03-30T16:24:30Z</time></trkpt><trkpt lat="39.439510617370935" lon="8.418905667426042"><ele>7.0</ele><time>2026-03-30T16:24:31Z</time></trkpt><trkpt lat="39.43942549399597" lon="8.418702118163374"><ele>7.0</ele><time>2026-03-30T16:24:32Z</time></trkpt><trkpt lat="39.43936699998239" lon="8.41848275865218"><ele>7.0</ele><time>2026-03-30T16:24:33Z</time></trkpt><trkpt lat="39.439333826569936" lon="8.418236265084861"><ele>7.0</ele><time>2026-03-30T16:24:34Z</time></trkpt><trkpt lat="39.439308650732826" lon="8.418002645047034"><ele>7.0</ele><time>2026-03-30T16:24:35Z</time></trkpt><trkpt lat="39.439292810168055" lon="8.417809695213194"><ele>7.0</ele><time>2026-03-30T16:24:36Z</time></trkpt><trkpt lat="39.439281882974484" lon="8.417641890258947"><ele>7.0</ele><time>2026-03-30T16:24:37Z</time></trkpt><trkpt lat="39.439269675950555" lon="8.417482720053599"><ele>7.0</ele><time>2026-03-30T16:24:38Z</time></trkpt><trkpt lat="39.439258356738236" lon="8.417349318137802"><ele>7.0</ele><time>2026-03-30T16:24:39Z</time></trkpt><trkpt lat="39.43924810344037" lon="8.417230439763424"><ele>6.999999999999999</ele><time>2026-03-30T16:24:40Z</time></trkpt><trkpt lat="39.43922499457955" lon="8.41710777734357"><ele>6.999999999999999</ele><time>2026-03-30T16:24:41Z</time></trkpt><trkpt lat="39.43918609060885" lon="8.416992130939178"><ele>7.0</ele><time>2026-03-30T16:24:42Z</time></trkpt><trkpt lat="39.43912934446441" lon="8.416877859281126"><ele>7.0</ele><time>2026-03-30T16:24:43Z</time></trkpt><trkpt lat="39.439053131670484" lon="8.416767729590912"><ele>6.6</ele><time>2026-03-30T16:24:44Z</time></trkpt><trkpt lat="39.43896148547996" lon="8.416671790621638"><ele>6.199999999999999</ele><time>2026-03-30T16:24:45Z</time></trkpt><trkpt lat="39.43887717594038" lon="8.41659384877827"><ele>5.8</ele><time>2026-03-30T16:24:46Z</time></trkpt><trkpt lat="39.43879274572333" lon="8.41652102439495"><ele>5.4</ele><time>2026-03-30T16:24:47Z</time></trkpt><trkpt lat="39.43868731812843" lon="8.416473827332377"><ele>5.0</ele><time>2026-03-30T16:24:48Z</time></trkpt><trkpt lat="39.43856861472175" lon="8.416473760571506"><ele>5.0</ele><time>2026-03-30T16:24:49Z</time></trkpt><trkpt lat="39.43844902290761" lon="8.416523380887138"><ele>5.0</ele><time>2026-03-30T16:24:50Z</time></trkpt><trkpt lat="39.438343540599384" lon="8.416569909080566"><ele>5.0</ele><time>2026-03-30T16:24:51Z</time></trkpt><trkpt lat="39.43822700640206" lon="8.416646630430366"><ele>5.0</ele><time>2026-03-30T16:24:52Z</time></trkpt><trkpt lat="39.43810766766792" lon="8.416715190812958"><ele>5.0</ele><time>2026-03-30T16:24:53Z</time></trkpt><trkpt lat="39.43797167430867" lon="8.41678234768974"><ele>5.0</ele><time>2026-03-30T16:24:54Z</time></trkpt><trkpt lat="39.43784088409214" lon="8.416857257287523"><ele>5.0</ele><time>2026-03-30T16:24:55Z</time></trkpt><trkpt lat="39.43769225013672" lon="8.416889332625958"><ele>5.0</ele><time>2026-03-30T16:24:56Z</time></trkpt><trkpt lat="39.43753861016989" lon="8.416886952778421"><ele>4.75</ele><time>2026-03-30T16:24:57Z</time></trkpt><trkpt lat="39.43739751977835" lon="8.416864370460145"><ele>4.5</ele><time>2026-03-30T16:24:58Z</time></trkpt><trkpt lat="39.43729738304613" lon="8.41682538543118"><ele>4.25</ele><time>2026-03-30T16:24:59Z</time></trkpt><trkpt lat="39.43719683825173" lon="8.416705872119376"><ele>4.0</ele><time>2026-03-30T16:25:00Z</time></trkpt><trkpt lat="39.43712112475702" lon="8.416565016712944"><ele>5.75</ele><time>2026-03-30T16:25:01Z</time></trkpt><trkpt lat="39.4370681741349" lon="8.416417955038002"><ele>7.5</ele><time>2026-03-30T16:25:02Z</time></trkpt><trkpt lat="39.437027854367436" lon="8.416253683205557"><ele>9.25</ele><time>2026-03-30T16:25:03Z</time></trkpt><trkpt lat="39.43697998564298" lon="8.416058219637062"><ele>11.0</ele><time>2026-03-30T16:25:04Z</time></trkpt><trkpt lat="39.43697591124769" lon="8.415820990955195"><ele>11.0</ele><time>2026-03-30T16:25:05Z</time></trkpt><trkpt lat="39.43699964409229" lon="8.415550385386325"><ele>11.0</ele><time>2026-03-30T16:25:06Z</time></trkpt><trkpt lat="39.437027337906876" lon="8.415280629738822"><ele>11.0</ele><time>2026-03-30T16:25:07Z</time></trkpt><trkpt lat="39.43695769505714" lon="8.415386060702986"><ele>10.75</ele><time>2026-03-30T16:25:08Z</time></trkpt><trkpt lat="39.43697778328107" lon="8.41519021075795"><ele>10.5</ele><time>2026-03-30T16:25:09Z</time></trkpt><trkpt lat="39.436998395779256" lon="8.414996097571766"><ele>10.25</ele><time>2026-03-30T16:25:10Z</time></trkpt><trkpt lat="39.4370184038925" lon="8.414821198981315"><ele>10.0</ele><time>2026-03-30T16:25:11Z</time></trkpt><trkpt lat="39.43703513967971" lon="8.414663558168177"><ele>10.0</ele><time>2026-03-30T16:25:12Z</time></trkpt><trkpt lat="39.43703144442505" lon="8.414528713203177"><ele>10.0</ele><time>2026-03-30T16:25:13Z</time></trkpt><trkpt lat="39.437043019269574" lon="8.414412478311126"><ele>10.0</ele><time>2026-03-30T16:25:14Z</time></trkpt><trkpt lat="39.43704536597592" lon="8.414303778204836"><ele>10.0</ele><time>2026-03-30T16:25:15Z</time></trkpt><trkpt lat="39.43702759944097" lon="8.414190628141693"><ele>10.0</ele><time>2026-03-30T16:25:16Z</time></trkpt><trkpt lat="39.436993668885556" lon="8.414083432465032"><ele>10.0</ele><time>2026-03-30T16:25:17Z</time></trkpt><trkpt lat="39.43694780257854" lon="8.413993092796327"><ele>10.0</ele><time>2026-03-30T16:25:18Z</time></trkpt><trkpt lat="39.436895179543335" lon="8.413933501926413"><ele>10.0</ele><time>2026-03-30T16:25:19Z</time></trkpt><trkpt lat="39.43684455880587" lon="8.413881227660143"><ele>10.0</ele><time>2026-03-30T16:25:20Z</time></trkpt><trkpt lat="39.436760448770855" lon="8.413830858459438"><ele>10.0</ele><time>2026-03-30T16:25:22Z</time></trkpt><trkpt lat="39.436635035099656" lon="8.413787810593726"><ele>10.0</ele><time>2026-03-30T16:25:24Z</time></trkpt><trkpt lat="39.436565530723456" lon="8.413790059555977"><ele>8.8</ele><time>2026-03-30T16:25:25Z</time></trkpt><trkpt lat="39.43649487816658" lon="8.41379286864548"><ele>7.6</ele><time>2026-03-30T16:25:26Z</time></trkpt><trkpt lat="39.43641402278652" lon="8.413799149384111"><ele>6.4</ele><time>2026-03-30T16:25:27Z</time></trkpt><trkpt lat="39.436310158384025" lon="8.413787157941375"><ele>5.2</ele><time>2026-03-30T16:25:28Z</time></trkpt><trkpt lat="39.436198442619364" lon="8.41379233722909"><ele>4.0</ele><time>2026-03-30T16:25:29Z</time></trkpt><trkpt lat="39.43601865742063" lon="8.413765247772309"><ele>3.6</ele><time>2026-03-30T16:25:30Z</time></trkpt><trkpt lat="39.43593284186086" lon="8.413758632304232"><ele>3.2</ele><time>2026-03-30T16:25:31Z</time></trkpt><trkpt lat="39.43582606638204" lon="8.4137500617619"><ele>2.8000000000000003</ele><time>2026-03-30T16:25:33Z</time></trkpt><trkpt lat="39.43574555680823" lon="8.413743599501528"><ele>2.4000000000000004</ele><time>2026-03-30T16:25:34Z</time></trkpt><trkpt lat="39.43565493617675" lon="8.413736325654929"><ele>2.0</ele><time>2026-03-30T16:25:35Z</time></trkpt><trkpt lat="39.43554960121944" lon="8.413740404953856"><ele>1.9999999999999998</ele><time>2026-03-30T16:25:36Z</time></trkpt><trkpt lat="39.435448831572856" lon="8.413725733702224"><ele>2.0</ele><time>2026-03-30T16:25:37Z</time></trkpt><trkpt lat="39.43536029106372" lon="8.41372680616801"><ele>2.0</ele><time>2026-03-30T16:25:38Z</time></trkpt><trkpt lat="39.4352816808272" lon="8.413721462926539"><ele>2.0</ele><time>2026-03-30T16:25:39Z</time></trkpt><trkpt lat="39.43519531468388" lon="8.413717542719285"><ele>1.9999999999999998</ele><time>2026-03-30T16:25:40Z</time></trkpt><trkpt lat="39.43510721981893" lon="8.41370987244515"><ele>2.0</ele><time>2026-03-30T16:25:41Z</time></trkpt><trkpt lat="39.435020857122645" lon="8.413698712948547"><ele>2.0</ele><time>2026-03-30T16:25:42Z</time></trkpt><trkpt lat="39.43493102405231" lon="8.413695013397836"><ele>2.0</ele><time>2026-03-30T16:25:43Z</time></trkpt><trkpt lat="39.43484011237982" lon="8.413697243349581"><ele>2.0</ele><time>2026-03-30T16:25:44Z</time></trkpt><trkpt lat="39.43474651915749" lon="8.413673405783763"><ele>2.0</ele><time>2026-03-30T16:25:45Z</time></trkpt><trkpt lat="39.43464034813473" lon="8.413684910682298"><ele>2.0</ele><time>2026-03-30T16:25:46Z</time></trkpt><trkpt lat="39.43452293343158" lon="8.413662992597253"><ele>2.25</ele><time>2026-03-30T16:25:47Z</time></trkpt><trkpt lat="39.43440261795357" lon="8.41365890791105"><ele>2.5</ele><time>2026-03-30T16:25:48Z</time></trkpt><trkpt lat="39.43428228972043" lon="8.413662227017289"><ele>2.75</ele><time>2026-03-30T16:25:49Z</time></trkpt><trkpt lat="39.434157392247116" lon="8.413649828574858"><ele>3.0</ele><time>2026-03-30T16:25:50Z</time></trkpt><trkpt lat="39.43402927863248" lon="8.41364061329116"><ele>3.0</ele><time>2026-03-30T16:25:51Z</time></trkpt><trkpt lat="39.43389627554147" lon="8.413636266553002"><ele>3.0</ele><time>2026-03-30T16:25:52Z</time></trkpt><trkpt lat="39.433756896130404" lon="8.413630133504673"><ele>3.0</ele><time>2026-03-30T16:25:53Z</time></trkpt><trkpt lat="39.43361421664285" lon="8.41362003261993"><ele>3.0</ele><time>2026-03-30T16:25:54Z</time></trkpt><trkpt lat="39.43347216383769" lon="8.413617687255313"><ele>3.75</ele><time>2026-03-30T16:25:55Z</time></trkpt><trkpt lat="39.4333427262226" lon="8.413615977035935"><ele>4.5</ele><time>2026-03-30T16:25:56Z</time></trkpt><trkpt lat="39.43322074688971" lon="8.413605852410788"><ele>5.25</ele><time>2026-03-30T16:25:57Z</time></trkpt><trkpt lat="39.43309569683116" lon="8.413594195437824"><ele>6.0</ele><time>2026-03-30T16:25:58Z</time></trkpt><trkpt lat="39.432975211081086" lon="8.413585109800225"><ele>6.0</ele><time>2026-03-30T16:25:59Z</time></trkpt><trkpt lat="39.432863191148044" lon="8.413581253356316"><ele>6.0</ele><time>2026-03-30T16:26:00Z</time></trkpt><trkpt lat="39.43274696285926" lon="8.413576424806678"><ele>6.0</ele><time>2026-03-30T16:26:01Z</time></trkpt><trkpt lat="39.43262759421684" lon="8.4135726236846"><ele>6.0</ele><time>2026-03-30T16:26:02Z</time></trkpt><trkpt lat="39.432503162425604" lon="8.413570104149544"><ele>6.0</ele><time>2026-03-30T16:26:03Z</time></trkpt><trkpt lat="39.432370476536626" lon="8.413561210391357"><ele>6.0</ele><time>2026-03-30T16:26:04Z</time></trkpt><trkpt lat="39.43223388380358" lon="8.413550203255921"><ele>6.0</ele><time>2026-03-30T16:26:05Z</time></trkpt><trkpt lat="39.4320936920534" lon="8.41353758007177"><ele>6.0</ele><time>2026-03-30T16:26:06Z</time></trkpt><trkpt lat="39.431953812699895" lon="8.413528301443458"><ele>6.25</ele><time>2026-03-30T16:26:07Z</time></trkpt><trkpt lat="39.43181170758885" lon="8.413517961800551"><ele>6.5</ele><time>2026-03-30T16:26:08Z</time></trkpt><trkpt lat="39.43166707192973" lon="8.413513788804002"><ele>6.75</ele><time>2026-03-30T16:26:09Z</time></trkpt><trkpt lat="39.43152193853258" lon="8.413500623305177"><ele>7.0</ele><time>2026-03-30T16:26:10Z</time></trkpt><trkpt lat="39.43138952732467" lon="8.4134920186185"><ele>7.75</ele><time>2026-03-30T16:26:11Z</time></trkpt><trkpt lat="39.431249340325294" lon="8.413477346742958"><ele>8.5</ele><time>2026-03-30T16:26:12Z</time></trkpt><trkpt lat="39.43110628052461" lon="8.413468344494586"><ele>9.25</ele><time>2026-03-30T16:26:13Z</time></trkpt><trkpt lat="39.43096418205857" lon="8.4134638174124"><ele>10.0</ele><time>2026-03-30T16:26:14Z</time></trkpt><trkpt lat="39.43082035055064" lon="8.413455131808668"><ele>10.0</ele><time>2026-03-30T16:26:15Z</time></trkpt><trkpt lat="39.43067478212735" lon="8.413454425027123"><ele>10.0</ele><time>2026-03-30T16:26:16Z</time></trkpt><trkpt lat="39.43052818866264" lon="8.413440695130143"><ele>10.0</ele><time>2026-03-30T16:26:17Z</time></trkpt><trkpt lat="39.430376585781026" lon="8.41342425812591"><ele>10.0</ele><time>2026-03-30T16:26:18Z</time></trkpt><trkpt lat="39.430219890249546" lon="8.413410474243493"><ele>10.0</ele><time>2026-03-30T16:26:19Z</time></trkpt><trkpt lat="39.43006245324314" lon="8.413396729024363"><ele>10.0</ele><time>2026-03-30T16:26:20Z</time></trkpt><trkpt lat="39.429902281329404" lon="8.41338493592256"><ele>10.0</ele><time>2026-03-30T16:26:21Z</time></trkpt><trkpt lat="39.42974568014303" lon="8.413373933371753"><ele>10.0</ele><time>2026-03-30T16:26:22Z</time></trkpt><trkpt lat="39.42958640881603" lon="8.413356552651695"><ele>10.0</ele><time>2026-03-30T16:26:23Z</time></trkpt><trkpt lat="39.42942399516428" lon="8.413340753259439"><ele>10.0</ele><time>2026-03-30T16:26:24Z</time></trkpt><trkpt lat="39.42926223228911" lon="8.413334136164309"><ele>10.0</ele><time>2026-03-30T16:26:25Z</time></trkpt><trkpt lat="39.42909196563656" lon="8.413344988267061"><ele>10.0</ele><time>2026-03-30T16:26:26Z</time></trkpt><trkpt lat="39.42892045120316" lon="8.413338389593884"><ele>10.0</ele><time>2026-03-30T16:26:27Z</time></trkpt><trkpt lat="39.4287461221795" lon="8.413326731831528"><ele>10.0</ele><time>2026-03-30T16:26:28Z</time></trkpt><trkpt lat="39.42856893124309" lon="8.413315827648255"><ele>10.0</ele><time>2026-03-30T16:26:29Z</time></trkpt><trkpt lat="39.42838985612298" lon="8.413304977658093"><ele>10.0</ele><time>2026-03-30T16:26:30Z</time></trkpt><trkpt lat="39.42820813547951" lon="8.41329652146979"><ele>10.0</ele><time>2026-03-30T16:26:31Z</time></trkpt><trkpt lat="39.428024224254806" lon="8.413309420851451"><ele>10.0</ele><time>2026-03-30T16:26:32Z</time></trkpt><trkpt lat="39.42783672517528" lon="8.413299464298705"><ele>10.0</ele><time>2026-03-30T16:26:33Z</time></trkpt><trkpt lat="39.42765442046973" lon="8.413296464658668"><ele>9.666666666666668</ele><time>2026-03-30T16:26:34Z</time></trkpt><trkpt lat="39.42746653482014" lon="8.413297535156838"><ele>9.333333333333334</ele><time>2026-03-30T16:26:35Z</time></trkpt><trkpt lat="39.42728008189081" lon="8.413295081204538"><ele>9.0</ele><time>2026-03-30T16:26:36Z</time></trkpt><trkpt lat="39.42710396810464" lon="8.413292951208284"><ele>8.5</ele><time>2026-03-30T16:26:37Z</time></trkpt><trkpt lat="39.426939241167624" lon="8.413289104449653"><ele>8.0</ele><time>2026-03-30T16:26:38Z</time></trkpt><trkpt lat="39.426788916251496" lon="8.413286947608754"><ele>7.5</ele><time>2026-03-30T16:26:39Z</time></trkpt><trkpt lat="39.4266590123297" lon="8.413280017175467"><ele>7.0</ele><time>2026-03-30T16:26:40Z</time></trkpt><trkpt lat="39.42653617954525" lon="8.413271767042524"><ele>7.0</ele><time>2026-03-30T16:26:41Z</time></trkpt><trkpt lat="39.42641346997698" lon="8.41326360431991"><ele>7.0</ele><time>2026-03-30T16:26:42Z</time></trkpt><trkpt lat="39.42629357098903" lon="8.413258692603689"><ele>7.0</ele><time>2026-03-30T16:26:43Z</time></trkpt><trkpt lat="39.426163353896904" lon="8.413262881944606"><ele>7.0</ele><time>2026-03-30T16:26:44Z</time></trkpt><trkpt lat="39.426037252265075" lon="8.413229587627255"><ele>7.0</ele><time>2026-03-30T16:26:45Z</time></trkpt><trkpt lat="39.425908265664624" lon="8.413229659551867"><ele>7.0</ele><time>2026-03-30T16:26:46Z</time></trkpt><trkpt lat="39.42577861455832" lon="8.41320667920463"><ele>7.0</ele><time>2026-03-30T16:26:47Z</time></trkpt><trkpt lat="39.42564384053688" lon="8.413189427088659"><ele>7.0</ele><time>2026-03-30T16:26:48Z</time></trkpt><trkpt lat="39.42550718882614" lon="8.413173711845799"><ele>7.5</ele><time>2026-03-30T16:26:49Z</time></trkpt><trkpt lat="39.42536958093794" lon="8.413151054038723"><ele>8.0</ele><time>2026-03-30T16:26:50Z</time></trkpt><trkpt lat="39.425228952092326" lon="8.41313065904753"><ele>8.5</ele><time>2026-03-30T16:26:51Z</time></trkpt><trkpt lat="39.425085684043275" lon="8.413118537180516"><ele>9.0</ele><time>2026-03-30T16:26:52Z</time></trkpt><trkpt lat="39.424941474621086" lon="8.413092112187545"><ele>9.0</ele><time>2026-03-30T16:26:53Z</time></trkpt><trkpt lat="39.42478720091681" lon="8.413080895724589"><ele>9.0</ele><time>2026-03-30T16:26:54Z</time></trkpt><trkpt lat="39.42463506653991" lon="8.413038548130734"><ele>9.0</ele><time>2026-03-30T16:26:55Z</time></trkpt><trkpt lat="39.424478937574435" lon="8.413026847703176"><ele>9.333333333333334</ele><time>2026-03-30T16:26:56Z</time></trkpt><trkpt lat="39.424322959982845" lon="8.412998604455924"><ele>9.666666666666668</ele><time>2026-03-30T16:26:57Z</time></trkpt><trkpt lat="39.424170340276554" lon="8.412979311546524"><ele>10.0</ele><time>2026-03-30T16:26:58Z</time></trkpt><trkpt lat="39.42402708875392" lon="8.412961233426659"><ele>9.5</ele><time>2026-03-30T16:26:59Z</time></trkpt><trkpt lat="39.42389036890167" lon="8.412935349644977"><ele>9.0</ele><time>2026-03-30T16:27:00Z</time></trkpt><trkpt lat="39.42375155339809" lon="8.412903276820186"><ele>8.5</ele><time>2026-03-30T16:27:01Z</time></trkpt><trkpt lat="39.42361059383575" lon="8.412877830205725"><ele>8.0</ele><time>2026-03-30T16:27:02Z</time></trkpt><trkpt lat="39.42346722013017" lon="8.412857611439124"><ele>8.0</ele><time>2026-03-30T16:27:03Z</time></trkpt><trkpt lat="39.42332356326341" lon="8.412831186990271"><ele>8.0</ele><time>2026-03-30T16:27:04Z</time></trkpt><trkpt lat="39.42318018983839" lon="8.412799618409949"><ele>8.0</ele><time>2026-03-30T16:27:05Z</time></trkpt><trkpt lat="39.423033521880136" lon="8.412767229668233"><ele>8.0</ele><time>2026-03-30T16:27:06Z</time></trkpt><trkpt lat="39.42288753527386" lon="8.412736555482468"><ele>8.75</ele><time>2026-03-30T16:27:07Z</time></trkpt><trkpt lat="39.42273869581183" lon="8.41271204154187"><ele>9.5</ele><time>2026-03-30T16:27:08Z</time></trkpt><trkpt lat="39.42259223461748" lon="8.412693507356751"><ele>10.25</ele><time>2026-03-30T16:27:09Z</time></trkpt><trkpt lat="39.42244956586991" lon="8.412675508362883"><ele>11.0</ele><time>2026-03-30T16:27:10Z</time></trkpt><trkpt lat="39.422306439856236" lon="8.412659065549978"><ele>11.0</ele><time>2026-03-30T16:27:11Z</time></trkpt><trkpt lat="39.42216516614793" lon="8.412636247462741"><ele>11.0</ele><time>2026-03-30T16:27:12Z</time></trkpt><trkpt lat="39.42202437820536" lon="8.412615812359288"><ele>11.0</ele><time>2026-03-30T16:27:13Z</time></trkpt><trkpt lat="39.42188245518671" lon="8.412600252520521"><ele>11.0</ele><time>2026-03-30T16:27:14Z</time></trkpt><trkpt lat="39.421735822443644" lon="8.412596175379946"><ele>11.0</ele><time>2026-03-30T16:27:15Z</time></trkpt><trkpt lat="39.42158811572948" lon="8.412602204585484"><ele>11.0</ele><time>2026-03-30T16:27:16Z</time></trkpt><trkpt lat="39.42143486353597" lon="8.412600793517532"><ele>11.0</ele><time>2026-03-30T16:27:17Z</time></trkpt><trkpt lat="39.421280506618295" lon="8.412581751478154"><ele>11.0</ele><time>2026-03-30T16:27:18Z</time></trkpt><trkpt lat="39.421124244845934" lon="8.412549906115768"><ele>11.0</ele><time>2026-03-30T16:27:19Z</time></trkpt><trkpt lat="39.4209657852128" lon="8.412520126739754"><ele>11.0</ele><time>2026-03-30T16:27:20Z</time></trkpt><trkpt lat="39.42080346145395" lon="8.412487606307634"><ele>11.0</ele><time>2026-03-30T16:27:21Z</time></trkpt><trkpt lat="39.42063790899656" lon="8.412456214828673"><ele>11.0</ele><time>2026-03-30T16:27:22Z</time></trkpt><trkpt lat="39.42046594633477" lon="8.41242230634613"><ele>11.0</ele><time>2026-03-30T16:27:23Z</time></trkpt><trkpt lat="39.42029305305311" lon="8.412389568693252"><ele>10.0</ele><time>2026-03-30T16:27:24Z</time></trkpt><trkpt lat="39.420122622625605" lon="8.412352542668945"><ele>9.0</ele><time>2026-03-30T16:27:25Z</time></trkpt><trkpt lat="39.419952308712006" lon="8.412311057542464"><ele>8.0</ele><time>2026-03-30T16:27:26Z</time></trkpt><trkpt lat="39.41978024664172" lon="8.412264541937036"><ele>8.0</ele><time>2026-03-30T16:27:27Z</time></trkpt><trkpt lat="39.41960912912476" lon="8.412216742290704"><ele>8.0</ele><time>2026-03-30T16:27:28Z</time></trkpt><trkpt lat="39.41943587923804" lon="8.41217657732935"><ele>8.0</ele><time>2026-03-30T16:27:29Z</time></trkpt><trkpt lat="39.419263197074805" lon="8.412139522792947"><ele>8.0</ele><time>2026-03-30T16:27:30Z</time></trkpt><trkpt lat="39.41909400853331" lon="8.41209901666657"><ele>8.0</ele><time>2026-03-30T16:27:31Z</time></trkpt><trkpt lat="39.418924687039684" lon="8.412054174681488"><ele>8.0</ele><time>2026-03-30T16:27:32Z</time></trkpt><trkpt lat="39.41875715676451" lon="8.412016769533126"><ele>11.0</ele><time>2026-03-30T16:27:33Z</time></trkpt><trkpt lat="39.418587952332395" lon="8.41198266980018"><ele>14.0</ele><time>2026-03-30T16:27:34Z</time></trkpt><trkpt lat="39.418420153811745" lon="8.411946191613769"><ele>17.0</ele><time>2026-03-30T16:27:35Z</time></trkpt><trkpt lat="39.41825403478581" lon="8.411902024881147"><ele>17.0</ele><time>2026-03-30T16:27:36Z</time></trkpt><trkpt lat="39.41808354154251" lon="8.411854005638391"><ele>17.0</ele><time>2026-03-30T16:27:37Z</time></trkpt><trkpt lat="39.41791240389105" lon="8.41179691668409"><ele>17.0</ele><time>2026-03-30T16:27:38Z</time></trkpt><trkpt lat="39.417741170144424" lon="8.411727607820854"><ele>21.0</ele><time>2026-03-30T16:27:39Z</time></trkpt><trkpt lat="39.417570861096564" lon="8.411650440246623"><ele>25.0</ele><time>2026-03-30T16:27:40Z</time></trkpt><trkpt lat="39.41740379086218" lon="8.411579241636979"><ele>29.0</ele><time>2026-03-30T16:27:41Z</time></trkpt><trkpt lat="39.4172291777771" lon="8.41150972061103"><ele>29.333333333333332</ele><time>2026-03-30T16:27:42Z</time></trkpt><trkpt lat="39.41705765613341" lon="8.411441490745906"><ele>29.666666666666664</ele><time>2026-03-30T16:27:43Z</time></trkpt><trkpt lat="39.41688911231475" lon="8.411377709286429"><ele>30.0</ele><time>2026-03-30T16:27:44Z</time></trkpt><trkpt lat="39.41671328337175" lon="8.41131870378117"><ele>30.0</ele><time>2026-03-30T16:27:45Z</time></trkpt><trkpt lat="39.41653670454744" lon="8.411260322154178"><ele>30.0</ele><time>2026-03-30T16:27:46Z</time></trkpt><trkpt lat="39.416358123839984" lon="8.411202312825322"><ele>30.0</ele><time>2026-03-30T16:27:47Z</time></trkpt><trkpt lat="39.416173570074584" lon="8.411143903309833"><ele>32.333333333333336</ele><time>2026-03-30T16:27:48Z</time></trkpt><trkpt lat="39.415981557686045" lon="8.41108050948967"><ele>34.66666666666667</ele><time>2026-03-30T16:27:49Z</time></trkpt><trkpt lat="39.41578760366956" lon="8.411019335999612"><ele>37.0</ele><time>2026-03-30T16:27:50Z</time></trkpt><trkpt lat="39.415587156947296" lon="8.410973343280622"><ele>40.0</ele><time>2026-03-30T16:27:51Z</time></trkpt><trkpt lat="39.41538875674926" lon="8.41092934585692"><ele>43.0</ele><time>2026-03-30T16:27:52Z</time></trkpt><trkpt lat="39.41519036308083" lon="8.410892282664111"><ele>46.0</ele><time>2026-03-30T16:27:53Z</time></trkpt><trkpt lat="39.414994305715446" lon="8.410863022809805"><ele>46.0</ele><time>2026-03-30T16:27:54Z</time></trkpt><trkpt lat="39.414809826181944" lon="8.410840132084163"><ele>46.0</ele><time>2026-03-30T16:27:55Z</time></trkpt><trkpt lat="39.41464114889517" lon="8.410812332012899"><ele>46.0</ele><time>2026-03-30T16:27:56Z</time></trkpt><trkpt lat="39.41451894063643" lon="8.41076482114666"><ele>47.25</ele><time>2026-03-30T16:27:57Z</time></trkpt><trkpt lat="39.41441641484921" lon="8.41065902198751"><ele>48.5</ele><time>2026-03-30T16:27:58Z</time></trkpt><trkpt lat="39.41434180875281" lon="8.410510439371192"><ele>49.75</ele><time>2026-03-30T16:27:59Z</time></trkpt><trkpt lat="39.41428831321585" lon="8.410339230367839"><ele>51.0</ele><time>2026-03-30T16:28:00Z</time></trkpt><trkpt lat="39.41421991673967" lon="8.410173017293316"><ele>51.0</ele><time>2026-03-30T16:28:01Z</time></trkpt><trkpt lat="39.41411185082208" lon="8.41004469190125"><ele>51.0</ele><time>2026-03-30T16:28:02Z</time></trkpt><trkpt lat="39.41394960646143" lon="8.409965558310898"><ele>51.0</ele><time>2026-03-30T16:28:03Z</time></trkpt><trkpt lat="39.413742478872294" lon="8.409934608485873"><ele>53.66666666666667</ele><time>2026-03-30T16:28:04Z</time></trkpt><trkpt lat="39.41352410229381" lon="8.4099372257116"><ele>56.333333333333336</ele><time>2026-03-30T16:28:05Z</time></trkpt><trkpt lat="39.41360064361929" lon="8.409715925801056"><ele>59.0</ele><time>2026-03-30T16:28:06Z</time></trkpt><trkpt lat="39.413451660947835" lon="8.409670810512942"><ele>60.5</ele><time>2026-03-30T16:28:07Z</time></trkpt><trkpt lat="39.41331061938261" lon="8.40961612579211"><ele>62.0</ele><time>2026-03-30T16:28:08Z</time></trkpt><trkpt lat="39.41318445352497" lon="8.409564509945467"><ele>63.5</ele><time>2026-03-30T16:28:09Z</time></trkpt><trkpt lat="39.41306473251697" lon="8.409514549651785"><ele>65.0</ele><time>2026-03-30T16:28:10Z</time></trkpt><trkpt lat="39.41296519091099" lon="8.409439495424603"><ele>65.0</ele><time>2026-03-30T16:28:11Z</time></trkpt><trkpt lat="39.41291828370564" lon="8.409302240528637"><ele>65.0</ele><time>2026-03-30T16:28:12Z</time></trkpt><trkpt lat="39.41289679172698" lon="8.40916021733029"><ele>65.0</ele><time>2026-03-30T16:28:13Z</time></trkpt><trkpt lat="39.41288038210459" lon="8.408996185647958"><ele>65.0</ele><time>2026-03-30T16:28:14Z</time></trkpt><trkpt lat="39.41285904334105" lon="8.408819308355143"><ele>64.4</ele><time>2026-03-30T16:28:15Z</time></trkpt><trkpt lat="39.412841369353856" lon="8.408654917184892"><ele>63.8</ele><time>2026-03-30T16:28:16Z</time></trkpt><trkpt lat="39.41282394872498" lon="8.408534521129782"><ele>63.2</ele><time>2026-03-30T16:28:17Z</time></trkpt><trkpt lat="39.41281526789152" lon="8.408418804762727"><ele>62.6</ele><time>2026-03-30T16:28:18Z</time></trkpt><trkpt lat="39.412816282865535" lon="8.408316991625513"><ele>62.0</ele><time>2026-03-30T16:28:19Z</time></trkpt><trkpt lat="39.412809807709266" lon="8.408217559773039"><ele>62.00000000000001</ele><time>2026-03-30T16:28:20Z</time></trkpt><trkpt lat="39.41279372604738" lon="8.408131042222344"><ele>62.0</ele><time>2026-03-30T16:28:21Z</time></trkpt><trkpt lat="39.41277250115299" lon="8.40803940949559"><ele>62.0</ele><time>2026-03-30T16:28:22Z</time></trkpt><trkpt lat="39.41274011824622" lon="8.407958905145417"><ele>62.0</ele><time>2026-03-30T16:28:23Z</time></trkpt><trkpt lat="39.41269848804864" lon="8.407890228414162"><ele>62.00000000000001</ele><time>2026-03-30T16:28:24Z</time></trkpt><trkpt lat="39.4126145066854" lon="8.40776599216827"><ele>62.0</ele><time>2026-03-30T16:28:26Z</time></trkpt><trkpt lat="39.41255736237765" lon="8.407687333248148"><ele>61.16666666666667</ele><time>2026-03-30T16:28:28Z</time></trkpt><trkpt lat="39.41250265821377" lon="8.407636938900184"><ele>60.333333333333336</ele><time>2026-03-30T16:28:47Z</time></trkpt><trkpt lat="39.412424934749936" lon="8.407543931282087"><ele>59.5</ele><time>2026-03-30T16:28:49Z</time></trkpt><trkpt lat="39.41236916919444" lon="8.407473320769222"><ele>58.66666666666667</ele><time>2026-03-30T16:28:50Z</time></trkpt><trkpt lat="39.41230777841924" lon="8.407389241098652"><ele>57.833333333333336</ele><time>2026-03-30T16:28:51Z</time></trkpt><trkpt lat="39.412234468206705" lon="8.407287818461777"><ele>57.0</ele><time>2026-03-30T16:28:52Z</time></trkpt><trkpt lat="39.41216756477225" lon="8.407183173411266"><ele>58.25</ele><time>2026-03-30T16:28:53Z</time></trkpt><trkpt lat="39.41209987306001" lon="8.40706764934778"><ele>59.5</ele><time>2026-03-30T16:28:54Z</time></trkpt><trkpt lat="39.412020642673866" lon="8.406960987069308"><ele>60.75</ele><time>2026-03-30T16:28:55Z</time></trkpt><trkpt lat="39.411929027905664" lon="8.40686303692546"><ele>62.0</ele><time>2026-03-30T16:28:56Z</time></trkpt><trkpt lat="39.411820892421396" lon="8.406774344189115"><ele>62.0</ele><time>2026-03-30T16:28:57Z</time></trkpt><trkpt lat="39.41170702013084" lon="8.406699991220236"><ele>62.0</ele><time>2026-03-30T16:28:58Z</time></trkpt><trkpt lat="39.411583663813914" lon="8.40663009529253"><ele>62.0</ele><time>2026-03-30T16:28:59Z</time></trkpt><trkpt lat="39.41145381349552" lon="8.406557597297747"><ele>62.0</ele><time>2026-03-30T16:29:00Z</time></trkpt><trkpt lat="39.41131900910751" lon="8.406498628866354"><ele>62.5</ele><time>2026-03-30T16:29:01Z</time></trkpt><trkpt lat="39.411195678629795" lon="8.406438921038564"><ele>63.0</ele><time>2026-03-30T16:29:02Z</time></trkpt><trkpt lat="39.41106971736628" lon="8.406377413023995"><ele>63.5</ele><time>2026-03-30T16:29:03Z</time></trkpt><trkpt lat="39.41094353086285" lon="8.406308668040346"><ele>64.0</ele><time>2026-03-30T16:29:04Z</time></trkpt><trkpt lat="39.41081659266004" lon="8.406243999067216"><ele>64.0</ele><time>2026-03-30T16:29:05Z</time></trkpt><trkpt lat="39.41068957957629" lon="8.406175505812971"><ele>64.0</ele><time>2026-03-30T16:29:06Z</time></trkpt><trkpt lat="39.410559443345285" lon="8.406120136182196"><ele>64.0</ele><time>2026-03-30T16:29:07Z</time></trkpt><trkpt lat="39.41041649909115" lon="8.406091816304116"><ele>64.0</ele><time>2026-03-30T16:29:08Z</time></trkpt><trkpt lat="39.41026497518011" lon="8.406094941552569"><ele>65.33333333333333</ele><time>2026-03-30T16:29:09Z</time></trkpt><trkpt lat="39.41010732918567" lon="8.406108368255532"><ele>66.66666666666667</ele><time>2026-03-30T16:29:10Z</time></trkpt><trkpt lat="39.40994673976508" lon="8.406095116440726"><ele>68.0</ele><time>2026-03-30T16:29:11Z</time></trkpt><trkpt lat="39.40978369550947" lon="8.406097517313487"><ele>67.66666666666667</ele><time>2026-03-30T16:29:12Z</time></trkpt><trkpt lat="39.40961800712746" lon="8.40610018062943"><ele>67.33333333333333</ele><time>2026-03-30T16:29:13Z</time></trkpt><trkpt lat="39.4094524691829" lon="8.406113052060965"><ele>67.0</ele><time>2026-03-30T16:29:14Z</time></trkpt><trkpt lat="39.4092877175991" lon="8.40611401932634"><ele>67.0</ele><time>2026-03-30T16:29:15Z</time></trkpt><trkpt lat="39.4091190108802" lon="8.406112138791135"><ele>67.0</ele><time>2026-03-30T16:29:16Z</time></trkpt><trkpt lat="39.408953478465584" lon="8.406102156081147"><ele>67.0</ele><time>2026-03-30T16:29:17Z</time></trkpt><trkpt lat="39.408789235840985" lon="8.406064504673271"><ele>69.66666666666666</ele><time>2026-03-30T16:29:18Z</time></trkpt><trkpt lat="39.40862228880426" lon="8.405995306678692"><ele>72.33333333333333</ele><time>2026-03-30T16:29:19Z</time></trkpt><trkpt lat="39.408457787136044" lon="8.405900067925929"><ele>75.0</ele><time>2026-03-30T16:29:20Z</time></trkpt><trkpt lat="39.40829294437296" lon="8.40579487434526"><ele>75.0</ele><time>2026-03-30T16:29:21Z</time></trkpt><trkpt lat="39.408125129299016" lon="8.40569229817477"><ele>75.0</ele><time>2026-03-30T16:29:22Z</time></trkpt><trkpt lat="39.407951826006396" lon="8.405589703900368"><ele>75.0</ele><time>2026-03-30T16:29:23Z</time></trkpt><trkpt lat="39.40778641913208" lon="8.405494414339545"><ele>71.33333333333333</ele><time>2026-03-30T16:29:24Z</time></trkpt><trkpt lat="39.40763465113019" lon="8.405413106273842"><ele>67.66666666666666</ele><time>2026-03-30T16:29:25Z</time></trkpt><trkpt lat="39.40748973144447" lon="8.405335053344215"><ele>64.0</ele><time>2026-03-30T16:29:26Z</time></trkpt><trkpt lat="39.40735056280201" lon="8.405249902498618"><ele>64.0</ele><time>2026-03-30T16:29:27Z</time></trkpt><trkpt lat="39.40720558561118" lon="8.405167222494837"><ele>64.0</ele><time>2026-03-30T16:29:28Z</time></trkpt><trkpt lat="39.40705069173379" lon="8.405079249331127"><ele>64.0</ele><time>2026-03-30T16:29:29Z</time></trkpt><trkpt lat="39.40689507315265" lon="8.4049863562136"><ele>67.66666666666666</ele><time>2026-03-30T16:29:30Z</time></trkpt><trkpt lat="39.40674533722527" lon="8.404892814215808"><ele>71.33333333333333</ele><time>2026-03-30T16:29:31Z</time></trkpt><trkpt lat="39.40660620970917" lon="8.40480683358301"><ele>75.0</ele><time>2026-03-30T16:29:32Z</time></trkpt><trkpt lat="39.40647080202775" lon="8.404734860891798"><ele>75.0</ele><time>2026-03-30T16:29:33Z</time></trkpt><trkpt lat="39.40634015212157" lon="8.40467746547685"><ele>75.0</ele><time>2026-03-30T16:29:34Z</time></trkpt><trkpt lat="39.40620445268163" lon="8.40465929549289"><ele>75.0</ele><time>2026-03-30T16:29:35Z</time></trkpt><trkpt lat="39.406070126635186" lon="8.404691579825435"><ele>75.0</ele><time>2026-03-30T16:29:36Z</time></trkpt><trkpt lat="39.40593328033664" lon="8.40475792758511"><ele>74.66666666666667</ele><time>2026-03-30T16:29:37Z</time></trkpt><trkpt lat="39.40578513280883" lon="8.404796291380535"><ele>74.33333333333334</ele><time>2026-03-30T16:29:38Z</time></trkpt><trkpt lat="39.40562729524973" lon="8.404814954940306"><ele>74.0</ele><time>2026-03-30T16:29:39Z</time></trkpt><trkpt lat="39.40546371737473" lon="8.404840282953254"><ele>74.0</ele><time>2026-03-30T16:29:40Z</time></trkpt><trkpt lat="39.405291726734944" lon="8.40484048190843"><ele>74.0</ele><time>2026-03-30T16:29:41Z</time></trkpt><trkpt lat="39.40511415185973" lon="8.404854213699824"><ele>74.0</ele><time>2026-03-30T16:29:42Z</time></trkpt><trkpt lat="39.40493269733627" lon="8.404859785716452"><ele>74.0</ele><time>2026-03-30T16:29:43Z</time></trkpt><trkpt lat="39.404754264400815" lon="8.404798930024796"><ele>74.0</ele><time>2026-03-30T16:29:44Z</time></trkpt><trkpt lat="39.40457166730689" lon="8.40475441607172"><ele>74.0</ele><time>2026-03-30T16:29:45Z</time></trkpt><trkpt lat="39.40439305416643" lon="8.404672080722879"><ele>67.0</ele><time>2026-03-30T16:29:46Z</time></trkpt><trkpt lat="39.40421263530555" lon="8.404599816485367"><ele>60.0</ele><time>2026-03-30T16:29:47Z</time></trkpt><trkpt lat="39.40403951703295" lon="8.40449549565068"><ele>53.0</ele><time>2026-03-30T16:29:48Z</time></trkpt><trkpt lat="39.40387239908289" lon="8.404389208692688"><ele>56.333333333333336</ele><time>2026-03-30T16:29:49Z</time></trkpt><trkpt lat="39.4037176307386" lon="8.404287347212392"><ele>59.66666666666667</ele><time>2026-03-30T16:29:50Z</time></trkpt><trkpt lat="39.40356487286487" lon="8.404186424167731"><ele>63.0</ele><time>2026-03-30T16:29:51Z</time></trkpt><trkpt lat="39.403408517414995" lon="8.404116794373559"><ele>63.0</ele><time>2026-03-30T16:29:52Z</time></trkpt><trkpt lat="39.403269557767516" lon="8.404017852211435"><ele>63.0</ele><time>2026-03-30T16:29:53Z</time></trkpt><trkpt lat="39.40315151461422" lon="8.403895222701356"><ele>63.0</ele><time>2026-03-30T16:29:54Z</time></trkpt><trkpt lat="39.403054108723225" lon="8.403741900073664"><ele>63.0</ele><time>2026-03-30T16:29:55Z</time></trkpt><trkpt lat="39.402976885469194" lon="8.403571224298288"><ele>63.0</ele><time>2026-03-30T16:29:56Z</time></trkpt><trkpt lat="39.40291232926184" lon="8.403402613183742"><ele>63.0</ele><time>2026-03-30T16:29:57Z</time></trkpt><trkpt lat="39.40284357410363" lon="8.40324299756155"><ele>63.0</ele><time>2026-03-30T16:29:58Z</time></trkpt><trkpt lat="39.40277381261971" lon="8.403098899767329"><ele>54.0</ele><time>2026-03-30T16:29:59Z</time></trkpt><trkpt lat="39.4026948106703" lon="8.4029739658054"><ele>45.0</ele><time>2026-03-30T16:30:00Z</time></trkpt><trkpt lat="39.402599114350785" lon="8.40287169578839"><ele>36.0</ele><time>2026-03-30T16:30:01Z</time></trkpt><trkpt lat="39.40249116905879" lon="8.402795602548803"><ele>27.0</ele><time>2026-03-30T16:30:02Z</time></trkpt><trkpt lat="39.402369651096485" lon="8.402762066245149"><ele>27.0</ele><time>2026-03-30T16:30:03Z</time></trkpt><trkpt lat="39.40223516391405" lon="8.402751970883042"><ele>27.0</ele><time>2026-03-30T16:30:04Z</time></trkpt><trkpt lat="39.40210044874535" lon="8.402730979563726"><ele>27.0</ele><time>2026-03-30T16:30:05Z</time></trkpt><trkpt lat="39.4019678450164" lon="8.402700015997407"><ele>27.0</ele><time>2026-03-30T16:30:06Z</time></trkpt><trkpt lat="39.401824930282054" lon="8.402681577924177"><ele>30.5</ele><time>2026-03-30T16:30:07Z</time></trkpt><trkpt lat="39.401682716144514" lon="8.402655789517043"><ele>34.0</ele><time>2026-03-30T16:30:08Z</time></trkpt><trkpt lat="39.401532826383665" lon="8.402625405777494"><ele>37.5</ele><time>2026-03-30T16:30:09Z</time></trkpt><trkpt lat="39.40139204093269" lon="8.402599584673716"><ele>41.0</ele><time>2026-03-30T16:30:10Z</time></trkpt><trkpt lat="39.401256684482696" lon="8.40258288756018"><ele>45.75</ele><time>2026-03-30T16:30:11Z</time></trkpt><trkpt lat="39.40113667542728" lon="8.402561684484725"><ele>50.5</ele><time>2026-03-30T16:30:12Z</time></trkpt><trkpt lat="39.40103832388116" lon="8.402473373759381"><ele>55.25</ele><time>2026-03-30T16:30:13Z</time></trkpt><trkpt lat="39.40093285057096" lon="8.402374303716455"><ele>60.0</ele><time>2026-03-30T16:30:14Z</time></trkpt><trkpt lat="39.40081573868096" lon="8.402280599586643"><ele>60.0</ele><time>2026-03-30T16:30:15Z</time></trkpt><trkpt lat="39.40071605593159" lon="8.402187325826208"><ele>60.0</ele><time>2026-03-30T16:30:16Z</time></trkpt><trkpt lat="39.40062348193474" lon="8.402113699111272"><ele>60.0</ele><time>2026-03-30T16:30:17Z</time></trkpt><trkpt lat="39.40053562298535" lon="8.402068361084503"><ele>60.0</ele><time>2026-03-30T16:30:18Z</time></trkpt><trkpt lat="39.40044063767932" lon="8.402072395118998"><ele>60.0</ele><time>2026-03-30T16:30:19Z</time></trkpt><trkpt lat="39.40034214417779" lon="8.402105594225358"><ele>61.5</ele><time>2026-03-30T16:30:20Z</time></trkpt><trkpt lat="39.40024005808728" lon="8.402153754484019"><ele>63.0</ele><time>2026-03-30T16:30:21Z</time></trkpt><trkpt lat="39.40012575811208" lon="8.402200964335606"><ele>64.5</ele><time>2026-03-30T16:30:22Z</time></trkpt><trkpt lat="39.4000171182404" lon="8.402265006284493"><ele>66.0</ele><time>2026-03-30T16:30:23Z</time></trkpt><trkpt lat="39.399903452261825" lon="8.402318431515688"><ele>66.0</ele><time>2026-03-30T16:30:24Z</time></trkpt><trkpt lat="39.39978304006034" lon="8.402375719920997"><ele>66.0</ele><time>2026-03-30T16:30:25Z</time></trkpt><trkpt lat="39.399661981609334" lon="8.402456138179398"><ele>66.0</ele><time>2026-03-30T16:30:26Z</time></trkpt><trkpt lat="39.399532140670104" lon="8.402544030570477"><ele>66.0</ele><time>2026-03-30T16:30:27Z</time></trkpt><trkpt lat="39.399396722560056" lon="8.402626047058275"><ele>62.0</ele><time>2026-03-30T16:30:28Z</time></trkpt><trkpt lat="39.39924709637918" lon="8.402697309988458"><ele>58.0</ele><time>2026-03-30T16:30:29Z</time></trkpt><trkpt lat="39.39908148483563" lon="8.40273300803769"><ele>54.0</ele><time>2026-03-30T16:30:30Z</time></trkpt><trkpt lat="39.398922122673355" lon="8.402780557000158"><ele>52.66666666666667</ele><time>2026-03-30T16:30:31Z</time></trkpt><trkpt lat="39.39876920137173" lon="8.402861122829295"><ele>51.333333333333336</ele><time>2026-03-30T16:30:32Z</time></trkpt><trkpt lat="39.39861894163562" lon="8.402925583439595"><ele>50.0</ele><time>2026-03-30T16:30:33Z</time></trkpt><trkpt lat="39.39847458436559" lon="8.403003128823938"><ele>56.66666666666667</ele><time>2026-03-30T16:30:34Z</time></trkpt><trkpt lat="39.398327318511136" lon="8.4030670177869"><ele>63.33333333333333</ele><time>2026-03-30T16:30:35Z</time></trkpt><trkpt lat="39.39817476329727" lon="8.403116662906314"><ele>70.0</ele><time>2026-03-30T16:30:36Z</time></trkpt><trkpt lat="39.39802116119798" lon="8.403156570862931"><ele>69.66666666666666</ele><time>2026-03-30T16:30:37Z</time></trkpt><trkpt lat="39.39786574456655" lon="8.403191387441627"><ele>69.33333333333333</ele><time>2026-03-30T16:30:38Z</time></trkpt><trkpt lat="39.39771119714328" lon="8.403231721528954"><ele>69.0</ele><time>2026-03-30T16:30:39Z</time></trkpt><trkpt lat="39.39755878652666" lon="8.40328525167037"><ele>69.0</ele><time>2026-03-30T16:30:40Z</time></trkpt><trkpt lat="39.39741147276106" lon="8.40333846123319"><ele>69.0</ele><time>2026-03-30T16:30:41Z</time></trkpt><trkpt lat="39.39725871186241" lon="8.403391606401005"><ele>69.0</ele><time>2026-03-30T16:30:42Z</time></trkpt><trkpt lat="39.39710318639655" lon="8.403436537314228"><ele>70.33333333333333</ele><time>2026-03-30T16:30:43Z</time></trkpt><trkpt lat="39.39694960682617" lon="8.40344899215579"><ele>71.66666666666666</ele><time>2026-03-30T16:30:44Z</time></trkpt><trkpt lat="39.396787852662875" lon="8.40343318651162"><ele>73.0</ele><time>2026-03-30T16:30:45Z</time></trkpt><trkpt lat="39.39663047834356" lon="8.403427376822767"><ele>73.0</ele><time>2026-03-30T16:30:46Z</time></trkpt><trkpt lat="39.39646812098798" lon="8.403414884609582"><ele>73.0</ele><time>2026-03-30T16:30:47Z</time></trkpt><trkpt lat="39.396315659378445" lon="8.403450670838732"><ele>73.0</ele><time>2026-03-30T16:30:48Z</time></trkpt><trkpt lat="39.39615829394976" lon="8.403490536264036"><ele>71.66666666666666</ele><time>2026-03-30T16:30:49Z</time></trkpt><trkpt lat="39.39600384459657" lon="8.403558436435922"><ele>70.33333333333333</ele><time>2026-03-30T16:30:50Z</time></trkpt><trkpt lat="39.39585822906742" lon="8.403652425623703"><ele>69.0</ele><time>2026-03-30T16:30:51Z</time></trkpt><trkpt lat="39.39571099812183" lon="8.403744913885795"><ele>70.66666666666667</ele><time>2026-03-30T16:30:52Z</time></trkpt><trkpt lat="39.39556970395302" lon="8.403856698294232"><ele>72.33333333333334</ele><time>2026-03-30T16:30:53Z</time></trkpt><trkpt lat="39.39542990240837" lon="8.403960280873847"><ele>74.0</ele><time>2026-03-30T16:30:54Z</time></trkpt><trkpt lat="39.39528665520936" lon="8.40403776102785"><ele>74.0</ele><time>2026-03-30T16:30:55Z</time></trkpt><trkpt lat="39.39513790752555" lon="8.404085359844427"><ele>74.0</ele><time>2026-03-30T16:30:56Z</time></trkpt><trkpt lat="39.394980911493214" lon="8.40409191729809"><ele>74.0</ele><time>2026-03-30T16:30:57Z</time></trkpt><trkpt lat="39.39482859404817" lon="8.404071517004922"><ele>74.0</ele><time>2026-03-30T16:30:58Z</time></trkpt><trkpt lat="39.39467682365901" lon="8.404017195721536"><ele>74.0</ele><time>2026-03-30T16:30:59Z</time></trkpt><trkpt lat="39.39452722771568" lon="8.403936039784975"><ele>74.0</ele><time>2026-03-30T16:31:00Z</time></trkpt><trkpt lat="39.39437218096627" lon="8.403878241728158"><ele>71.0</ele><time>2026-03-30T16:31:01Z</time></trkpt><trkpt lat="39.39421861215724" lon="8.403861140105453"><ele>68.0</ele><time>2026-03-30T16:31:02Z</time></trkpt><trkpt lat="39.3940697073025" lon="8.403871580520383"><ele>65.0</ele><time>2026-03-30T16:31:03Z</time></trkpt><trkpt lat="39.393919012332766" lon="8.40394033086737"><ele>61.66666666666667</ele><time>2026-03-30T16:31:04Z</time></trkpt><trkpt lat="39.393781572510385" lon="8.404045055584572"><ele>58.33333333333333</ele><time>2026-03-30T16:31:05Z</time></trkpt><trkpt lat="39.393653890703085" lon="8.404187116980522"><ele>55.0</ele><time>2026-03-30T16:31:06Z</time></trkpt><trkpt lat="39.39352933225043" lon="8.404338077700887"><ele>55.0</ele><time>2026-03-30T16:31:07Z</time></trkpt><trkpt lat="39.39339460169853" lon="8.404481193428138"><ele>55.0</ele><time>2026-03-30T16:31:08Z</time></trkpt><trkpt lat="39.39324393837762" lon="8.404579117326913"><ele>55.0</ele><time>2026-03-30T16:31:09Z</time></trkpt><trkpt lat="39.39308966562106" lon="8.404657820074549"><ele>58.666666666666664</ele><time>2026-03-30T16:31:10Z</time></trkpt><trkpt lat="39.3929368891248" lon="8.40472537357129"><ele>62.33333333333333</ele><time>2026-03-30T16:31:11Z</time></trkpt><trkpt lat="39.392786087315606" lon="8.40478964399944"><ele>66.0</ele><time>2026-03-30T16:31:12Z</time></trkpt><trkpt lat="39.39263840688155" lon="8.404853604385067"><ele>66.0</ele><time>2026-03-30T16:31:13Z</time></trkpt><trkpt lat="39.39249461537549" lon="8.4049366246526"><ele>66.0</ele><time>2026-03-30T16:31:14Z</time></trkpt><trkpt lat="39.39234512110429" lon="8.405003587988602"><ele>66.0</ele><time>2026-03-30T16:31:15Z</time></trkpt><trkpt lat="39.392204412597714" lon="8.4050648537321"><ele>66.25</ele><time>2026-03-30T16:31:16Z</time></trkpt><trkpt lat="39.392063639993914" lon="8.405116074819901"><ele>66.5</ele><time>2026-03-30T16:31:17Z</time></trkpt><trkpt lat="39.3919365807421" lon="8.4051734941985"><ele>66.75</ele><time>2026-03-30T16:31:18Z</time></trkpt><trkpt lat="39.39182689581067" lon="8.405194207563238"><ele>67.0</ele><time>2026-03-30T16:31:19Z</time></trkpt><trkpt lat="39.39173806211957" lon="8.405201095844056"><ele>67.0</ele><time>2026-03-30T16:31:20Z</time></trkpt><trkpt lat="39.391665232014645" lon="8.405185267257005"><ele>67.0</ele><time>2026-03-30T16:31:21Z</time></trkpt><trkpt lat="39.39157166563424" lon="8.405158782982625"><ele>67.0</ele><time>2026-03-30T16:31:25Z</time></trkpt><trkpt lat="39.391515744017035" lon="8.405114353519277"><ele>67.0</ele><time>2026-03-30T16:31:26Z</time></trkpt><trkpt lat="39.391438428140916" lon="8.405111024001958"><ele>67.0</ele><time>2026-03-30T16:31:27Z</time></trkpt><trkpt lat="39.391320614984714" lon="8.405137705634406"><ele>67.0</ele><time>2026-03-30T16:31:29Z</time></trkpt><trkpt lat="39.39119582808069" lon="8.405187227211185"><ele>70.2</ele><time>2026-03-30T16:31:31Z</time></trkpt><trkpt lat="39.39111460625817" lon="8.40523073835439"><ele>73.4</ele><time>2026-03-30T16:31:32Z</time></trkpt><trkpt lat="39.3910224240473" lon="8.40529040636809"><ele>76.60000000000001</ele><time>2026-03-30T16:31:33Z</time></trkpt><trkpt lat="39.390940588320504" lon="8.405374364701759"><ele>79.80000000000001</ele><time>2026-03-30T16:31:34Z</time></trkpt><trkpt lat="39.39084601452599" lon="8.40544897199331"><ele>83.0</ele><time>2026-03-30T16:31:35Z</time></trkpt><trkpt lat="39.39074707117784" lon="8.405527501891862"><ele>83.0</ele><time>2026-03-30T16:31:36Z</time></trkpt><trkpt lat="39.390637221104534" lon="8.405609677841339"><ele>83.0</ele><time>2026-03-30T16:31:37Z</time></trkpt><trkpt lat="39.39051935215859" lon="8.405686957503052"><ele>83.0</ele><time>2026-03-30T16:31:38Z</time></trkpt><trkpt lat="39.39041828630344" lon="8.405761730295968"><ele>83.0</ele><time>2026-03-30T16:31:39Z</time></trkpt><trkpt lat="39.39031701813899" lon="8.405843516797592"><ele>84.5</ele><time>2026-03-30T16:31:40Z</time></trkpt><trkpt lat="39.39020905052026" lon="8.405929556178306"><ele>86.0</ele><time>2026-03-30T16:31:41Z</time></trkpt><trkpt lat="39.39009057992925" lon="8.406003194297242"><ele>87.5</ele><time>2026-03-30T16:31:42Z</time></trkpt><trkpt lat="39.38997037098207" lon="8.406049489244875"><ele>89.0</ele><time>2026-03-30T16:31:43Z</time></trkpt><trkpt lat="39.38986499030662" lon="8.406041564553"><ele>89.0</ele><time>2026-03-30T16:31:44Z</time></trkpt><trkpt lat="39.389784654437975" lon="8.405951486677488"><ele>89.0</ele><time>2026-03-30T16:31:45Z</time></trkpt><trkpt lat="39.3896983486472" lon="8.405901361062526"><ele>89.0</ele><time>2026-03-30T16:31:46Z</time></trkpt><trkpt lat="39.38959160630925" lon="8.405879592428567"><ele>89.0</ele><time>2026-03-30T16:31:47Z</time></trkpt><trkpt lat="39.38946997274289" lon="8.405901354092743"><ele>89.0</ele><time>2026-03-30T16:31:48Z</time></trkpt><trkpt lat="39.389338973975725" lon="8.4059374056392"><ele>92.75</ele><time>2026-03-30T16:31:49Z</time></trkpt><trkpt lat="39.38919981232098" lon="8.405973682067772"><ele>96.5</ele><time>2026-03-30T16:31:50Z</time></trkpt><trkpt lat="39.38905984636516" lon="8.406011057887554"><ele>100.25</ele><time>2026-03-30T16:31:51Z</time></trkpt><trkpt lat="39.38893056044141" lon="8.406060611491982"><ele>104.0</ele><time>2026-03-30T16:31:52Z</time></trkpt><trkpt lat="39.388800315635315" lon="8.406128498827991"><ele>103.75</ele><time>2026-03-30T16:31:53Z</time></trkpt><trkpt lat="39.3886734490357" lon="8.406216810567754"><ele>103.5</ele><time>2026-03-30T16:31:54Z</time></trkpt><trkpt lat="39.38855459551726" lon="8.406314090311838"><ele>103.25</ele><time>2026-03-30T16:31:55Z</time></trkpt><trkpt lat="39.3884332408588" lon="8.406401510014872"><ele>103.0</ele><time>2026-03-30T16:31:56Z</time></trkpt><trkpt lat="39.388300013313085" lon="8.406469339594377"><ele>103.0</ele><time>2026-03-30T16:31:57Z</time></trkpt><trkpt lat="39.388150861674895" lon="8.40647974099878"><ele>103.0</ele><time>2026-03-30T16:31:58Z</time></trkpt><trkpt lat="39.38799254621313" lon="8.406455646433084"><ele>103.0</ele><time>2026-03-30T16:31:59Z</time></trkpt><trkpt lat="39.387831318817796" lon="8.406405743277663"><ele>106.0</ele><time>2026-03-30T16:32:00Z</time></trkpt><trkpt lat="39.387661900295335" lon="8.406363937127331"><ele>109.0</ele><time>2026-03-30T16:32:01Z</time></trkpt><trkpt lat="39.38748052828344" lon="8.406340619565633"><ele>112.0</ele><time>2026-03-30T16:32:02Z</time></trkpt><trkpt lat="39.38728921483326" lon="8.406350489479065"><ele>115.33333333333334</ele><time>2026-03-30T16:32:03Z</time></trkpt><trkpt lat="39.38708935917388" lon="8.40640924172118"><ele>118.66666666666666</ele><time>2026-03-30T16:32:04Z</time></trkpt><trkpt lat="39.386883610364556" lon="8.406504299286153"><ele>122.0</ele><time>2026-03-30T16:32:05Z</time></trkpt><trkpt lat="39.38667113941198" lon="8.406606064622933"><ele>122.0</ele><time>2026-03-30T16:32:06Z</time></trkpt><trkpt lat="39.38648512211401" lon="8.406678953478702"><ele>122.0</ele><time>2026-03-30T16:32:07Z</time></trkpt><trkpt lat="39.38633915469032" lon="8.406733894820098"><ele>122.0</ele><time>2026-03-30T16:32:08Z</time></trkpt><trkpt lat="39.38621360092754" lon="8.406787742564026"><ele>124.6</ele><time>2026-03-30T16:32:09Z</time></trkpt><trkpt lat="39.386099735701734" lon="8.406838205183925"><ele>127.19999999999999</ele><time>2026-03-30T16:32:10Z</time></trkpt><trkpt lat="39.38599417526763" lon="8.406861362637159"><ele>129.8</ele><time>2026-03-30T16:32:11Z</time></trkpt><trkpt lat="39.385901632756145" lon="8.406805367561835"><ele>132.4</ele><time>2026-03-30T16:32:12Z</time></trkpt><trkpt lat="39.38581116540674" lon="8.406752870588136"><ele>135.0</ele><time>2026-03-30T16:32:13Z</time></trkpt><trkpt lat="39.38575355140898" lon="8.406628681464328"><ele>135.0</ele><time>2026-03-30T16:32:14Z</time></trkpt><trkpt lat="39.38576442169327" lon="8.40646569004398"><ele>135.0</ele><time>2026-03-30T16:32:15Z</time></trkpt><trkpt lat="39.385830271144584" lon="8.406314944658535"><ele>135.0</ele><time>2026-03-30T16:32:16Z</time></trkpt><trkpt lat="39.38592678136072" lon="8.406184144069925"><ele>135.0</ele><time>2026-03-30T16:32:17Z</time></trkpt><trkpt lat="39.386019520468714" lon="8.406028643572341"><ele>139.25</ele><time>2026-03-30T16:32:18Z</time></trkpt><trkpt lat="39.38612314592713" lon="8.405887038351835"><ele>143.5</ele><time>2026-03-30T16:32:19Z</time></trkpt><trkpt lat="39.38621261778806" lon="8.405746800384248"><ele>147.75</ele><time>2026-03-30T16:32:20Z</time></trkpt><trkpt lat="39.38630422708834" lon="8.405611706701764"><ele>152.0</ele><time>2026-03-30T16:32:21Z</time></trkpt><trkpt lat="39.38639233120041" lon="8.405473282215556"><ele>153.0</ele><time>2026-03-30T16:32:22Z</time></trkpt><trkpt lat="39.38648518833803" lon="8.405340912481709"><ele>154.0</ele><time>2026-03-30T16:32:23Z</time></trkpt><trkpt lat="39.386593072807145" lon="8.405228900930853"><ele>155.0</ele><time>2026-03-30T16:32:24Z</time></trkpt><trkpt lat="39.386716058946845" lon="8.405124723936229"><ele>156.0</ele><time>2026-03-30T16:32:25Z</time></trkpt><trkpt lat="39.38684734239758" lon="8.40504043240206"><ele>156.0</ele><time>2026-03-30T16:32:26Z</time></trkpt><trkpt lat="39.38698681391786" lon="8.404977791208996"><ele>156.0</ele><time>2026-03-30T16:32:27Z</time></trkpt><trkpt lat="39.38713530652019" lon="8.404952094392923"><ele>156.0</ele><time>2026-03-30T16:32:28Z</time></trkpt><trkpt lat="39.387274640800186" lon="8.404889852059652"><ele>156.0</ele><time>2026-03-30T16:32:29Z</time></trkpt><trkpt lat="39.38741211468452" lon="8.404854190755188"><ele>154.25</ele><time>2026-03-30T16:32:30Z</time></trkpt><trkpt lat="39.387553866246314" lon="8.40482069583887"><ele>152.5</ele><time>2026-03-30T16:32:31Z</time></trkpt><trkpt lat="39.387699190890984" lon="8.4047830885742"><ele>150.75</ele><time>2026-03-30T16:32:32Z</time></trkpt><trkpt lat="39.387849705398004" lon="8.404741108755701"><ele>149.0</ele><time>2026-03-30T16:32:33Z</time></trkpt><trkpt lat="39.38800640156322" lon="8.404724933562571"><ele>147.5</ele><time>2026-03-30T16:32:34Z</time></trkpt><trkpt lat="39.38815601356754" lon="8.404708691569768"><ele>146.0</ele><time>2026-03-30T16:32:35Z</time></trkpt><trkpt lat="39.388304677294045" lon="8.404676106758613"><ele>144.5</ele><time>2026-03-30T16:32:36Z</time></trkpt><trkpt lat="39.38844935107899" lon="8.40467557351985"><ele>143.0</ele><time>2026-03-30T16:32:37Z</time></trkpt><trkpt lat="39.38858327054282" lon="8.404679881009663"><ele>143.0</ele><time>2026-03-30T16:32:38Z</time></trkpt><trkpt lat="39.388706480824546" lon="8.404669390564248"><ele>143.0</ele><time>2026-03-30T16:32:39Z</time></trkpt><trkpt lat="39.38882555675187" lon="8.404658018884295"><ele>143.0</ele><time>2026-03-30T16:32:40Z</time></trkpt><trkpt lat="39.38894110491421" lon="8.404637332440002"><ele>143.0</ele><time>2026-03-30T16:32:41Z</time></trkpt><trkpt lat="39.3890569310521" lon="8.404608874517162"><ele>150.25</ele><time>2026-03-30T16:32:42Z</time></trkpt><trkpt lat="39.3891717481413" lon="8.404563516042934"><ele>157.5</ele><time>2026-03-30T16:32:43Z</time></trkpt><trkpt lat="39.38929443298903" lon="8.40451429842448"><ele>164.75</ele><time>2026-03-30T16:32:44Z</time></trkpt><trkpt lat="39.38942831297475" lon="8.40444776326333"><ele>172.0</ele><time>2026-03-30T16:32:45Z</time></trkpt><trkpt lat="39.38956929070961" lon="8.404361192330219"><ele>165.0</ele><time>2026-03-30T16:32:46Z</time></trkpt><trkpt lat="39.38971880172821" lon="8.404260949918303"><ele>158.0</ele><time>2026-03-30T16:32:47Z</time></trkpt><trkpt lat="39.3899005463878" lon="8.404162207781713"><ele>151.0</ele><time>2026-03-30T16:32:48Z</time></trkpt><trkpt lat="39.390089604516376" lon="8.404027547721457"><ele>151.0</ele><time>2026-03-30T16:32:49Z</time></trkpt><trkpt lat="39.39024989977527" lon="8.403877663319962"><ele>151.0</ele><time>2026-03-30T16:32:50Z</time></trkpt><trkpt lat="39.39039167017419" lon="8.403730157475138"><ele>151.0</ele><time>2026-03-30T16:32:51Z</time></trkpt><trkpt lat="39.390551494956235" lon="8.403623440861526"><ele>153.66666666666669</ele><time>2026-03-30T16:32:52Z</time></trkpt><trkpt lat="39.39071657134007" lon="8.40354259696322"><ele>156.33333333333334</ele><time>2026-03-30T16:32:53Z</time></trkpt><trkpt lat="39.39086887855611" lon="8.403484753151936"><ele>159.0</ele><time>2026-03-30T16:32:54Z</time></trkpt><trkpt lat="39.39100738617037" lon="8.403431263611786"><ele>159.0</ele><time>2026-03-30T16:32:55Z</time></trkpt><trkpt lat="39.39113020414772" lon="8.403358191954595"><ele>159.0</ele><time>2026-03-30T16:32:56Z</time></trkpt><trkpt lat="39.39123135820274" lon="8.403256792525285"><ele>159.0</ele><time>2026-03-30T16:32:57Z</time></trkpt><trkpt lat="39.39131386516854" lon="8.403123159757651"><ele>159.0</ele><time>2026-03-30T16:32:58Z</time></trkpt><trkpt lat="39.391408312034606" lon="8.402991969811263"><ele>157.75</ele><time>2026-03-30T16:32:59Z</time></trkpt><trkpt lat="39.39147672198639" lon="8.402825385676673"><ele>156.5</ele><time>2026-03-30T16:33:00Z</time></trkpt><trkpt lat="39.39154957683461" lon="8.402668684092056"><ele>155.25</ele><time>2026-03-30T16:33:01Z</time></trkpt><trkpt lat="39.391636805897804" lon="8.402530287622568"><ele>154.0</ele><time>2026-03-30T16:33:02Z</time></trkpt><trkpt lat="39.39174618104271" lon="8.402415627809267"><ele>154.0</ele><time>2026-03-30T16:33:03Z</time></trkpt><trkpt lat="39.391874599600236" lon="8.402334452607333"><ele>154.0</ele><time>2026-03-30T16:33:04Z</time></trkpt><trkpt lat="39.392012319943625" lon="8.40223799632601"><ele>154.0</ele><time>2026-03-30T16:33:05Z</time></trkpt><trkpt lat="39.39216080010368" lon="8.402144901692408"><ele>156.33333333333334</ele><time>2026-03-30T16:33:06Z</time></trkpt><trkpt lat="39.392302389507215" lon="8.402023547426163"><ele>158.66666666666666</ele><time>2026-03-30T16:33:07Z</time></trkpt><trkpt lat="39.39243374682678" lon="8.401883045339554"><ele>161.0</ele><time>2026-03-30T16:33:08Z</time></trkpt><trkpt lat="39.392569280512966" lon="8.401740891463405"><ele>161.0</ele><time>2026-03-30T16:33:09Z</time></trkpt><trkpt lat="39.39270318267905" lon="8.401593021594906"><ele>161.0</ele><time>2026-03-30T16:33:10Z</time></trkpt><trkpt lat="39.39284069099583" lon="8.40146343822737"><ele>161.0</ele><time>2026-03-30T16:33:11Z</time></trkpt><trkpt lat="39.39299248674477" lon="8.40139835345636"><ele>164.5</ele><time>2026-03-30T16:33:12Z</time></trkpt><trkpt lat="39.39314525674651" lon="8.401363519587678"><ele>168.0</ele><time>2026-03-30T16:33:13Z</time></trkpt><trkpt lat="39.393294362786655" lon="8.401346555605812"><ele>171.5</ele><time>2026-03-30T16:33:14Z</time></trkpt><trkpt lat="39.393428697554306" lon="8.401286365891174"><ele>175.0</ele><time>2026-03-30T16:33:15Z</time></trkpt><trkpt lat="39.39355768070405" lon="8.401205011144848"><ele>175.0</ele><time>2026-03-30T16:33:16Z</time></trkpt><trkpt lat="39.39367610822702" lon="8.401093502722745"><ele>175.0</ele><time>2026-03-30T16:33:17Z</time></trkpt><trkpt lat="39.39379244096336" lon="8.400977098184972"><ele>175.0</ele><time>2026-03-30T16:33:18Z</time></trkpt><trkpt lat="39.39391400661441" lon="8.400855332648822"><ele>175.0</ele><time>2026-03-30T16:33:19Z</time></trkpt><trkpt lat="39.39403710561314" lon="8.400721467258188"><ele>176.0</ele><time>2026-03-30T16:33:20Z</time></trkpt><trkpt lat="39.394160932016355" lon="8.400572714713629"><ele>177.0</ele><time>2026-03-30T16:33:21Z</time></trkpt><trkpt lat="39.394284277968424" lon="8.400421076117572"><ele>178.0</ele><time>2026-03-30T16:33:22Z</time></trkpt><trkpt lat="39.394410321419734" lon="8.400271385330148"><ele>178.0</ele><time>2026-03-30T16:33:23Z</time></trkpt><trkpt lat="39.3945374934093" lon="8.400126565436922"><ele>178.0</ele><time>2026-03-30T16:33:24Z</time></trkpt><trkpt lat="39.39466820018629" lon="8.399978712089789"><ele>178.0</ele><time>2026-03-30T16:33:25Z</time></trkpt><trkpt lat="39.39480103651125" lon="8.399830880612518"><ele>175.0</ele><time>2026-03-30T16:33:26Z</time></trkpt><trkpt lat="39.39493179350836" lon="8.399684554355098"><ele>172.0</ele><time>2026-03-30T16:33:27Z</time></trkpt><trkpt lat="39.395055549046795" lon="8.39955130313979"><ele>169.0</ele><time>2026-03-30T16:33:28Z</time></trkpt><trkpt lat="39.39517654355923" lon="8.399428263881385"><ele>169.0</ele><time>2026-03-30T16:33:29Z</time></trkpt><trkpt lat="39.39528547693803" lon="8.399305953981791"><ele>169.0</ele><time>2026-03-30T16:33:30Z</time></trkpt><trkpt lat="39.39539253690458" lon="8.39917166364008"><ele>169.0</ele><time>2026-03-30T16:33:31Z</time></trkpt><trkpt lat="39.3954936308201" lon="8.399026146919326"><ele>169.0</ele><time>2026-03-30T16:33:32Z</time></trkpt><trkpt lat="39.395582711703476" lon="8.398874028298703"><ele>164.5</ele><time>2026-03-30T16:33:33Z</time></trkpt><trkpt lat="39.39565933934568" lon="8.39873357072686"><ele>160.0</ele><time>2026-03-30T16:33:34Z</time></trkpt><trkpt lat="39.395717319299756" lon="8.39859100624333"><ele>155.5</ele><time>2026-03-30T16:33:35Z</time></trkpt><trkpt lat="39.39577096421176" lon="8.39845098450228"><ele>151.0</ele><time>2026-03-30T16:33:36Z</time></trkpt><trkpt lat="39.3958107651091" lon="8.398316559162387"><ele>151.0</ele><time>2026-03-30T16:33:37Z</time></trkpt><trkpt lat="39.395851317462615" lon="8.398193525634348"><ele>151.0</ele><time>2026-03-30T16:33:38Z</time></trkpt><trkpt lat="39.395889171643915" lon="8.398078243608838"><ele>151.0</ele><time>2026-03-30T16:33:39Z</time></trkpt><trkpt lat="39.395906797230786" lon="8.397963331896593"><ele>151.0</ele><time>2026-03-30T16:33:40Z</time></trkpt><trkpt lat="39.39593626664479" lon="8.397857403698223"><ele>151.0</ele><time>2026-03-30T16:33:41Z</time></trkpt><trkpt lat="39.39595907716372" lon="8.39776236121364"><ele>151.0</ele><time>2026-03-30T16:33:42Z</time></trkpt><trkpt lat="39.3959767334081" lon="8.397676184969168"><ele>151.0</ele><time>2026-03-30T16:33:43Z</time></trkpt><trkpt lat="39.39599042994356" lon="8.397596046323738"><ele>151.0</ele><time>2026-03-30T16:33:44Z</time></trkpt><trkpt lat="39.396022673189364" lon="8.397503816753566"><ele>151.0</ele><time>2026-03-30T16:33:46Z</time></trkpt><trkpt lat="39.39600089866608" lon="8.39739758566983"><ele>151.0</ele><time>2026-03-30T16:45:51Z</time></trkpt><trkpt lat="39.39594087991429" lon="8.397133251906672"><ele>151.0</ele><time>2026-03-30T16:46:42.999Z</time></trkpt><trkpt lat="39.39590982777942" lon="8.397022986386"><ele>151.0</ele><time>2026-03-30T16:46:43.999Z</time></trkpt><trkpt lat="39.3958757425616" lon="8.39690031437494"><ele>151.0</ele><time>2026-03-30T16:46:44.999Z</time></trkpt><trkpt lat="39.39583654762006" lon="8.39677326805859"><ele>151.0</ele><time>2026-03-30T16:46:45.999Z</time></trkpt><trkpt lat="39.39578309202287" lon="8.396638356032978"><ele>151.0</ele><time>2026-03-30T16:46:46.999Z</time></trkpt><trkpt lat="39.39571935017529" lon="8.396498008652792"><ele>151.0</ele><time>2026-03-30T16:46:47.999Z</time></trkpt><trkpt lat="39.39564209205323" lon="8.396354550918794"><ele>151.0</ele><time>2026-03-30T16:46:48.999Z</time></trkpt><trkpt lat="39.39555739320607" lon="8.396214185691834"><ele>151.0</ele><time>2026-03-30T16:46:49.999Z</time></trkpt><trkpt lat="39.39545619383283" lon="8.396086977716937"><ele>151.0</ele><time>2026-03-30T16:46:50.999Z</time></trkpt><trkpt lat="39.39534446494354" lon="8.395968286419778"><ele>151.0</ele><time>2026-03-30T16:46:51.999Z</time></trkpt><trkpt lat="39.39522045230325" lon="8.395852814372715"><ele>151.0</ele><time>2026-03-30T16:46:52.999Z</time></trkpt><trkpt lat="39.395092362001975" lon="8.395748902873947"><ele>151.0</ele><time>2026-03-30T16:46:53.999Z</time></trkpt><trkpt lat="39.39496620443461" lon="8.395637052858584"><ele>151.0</ele><time>2026-03-30T16:46:54.999Z</time></trkpt><trkpt lat="39.3948452633507" lon="8.395526500492036"><ele>151.0</ele><time>2026-03-30T16:46:55.999Z</time></trkpt><trkpt lat="39.39473396021795" lon="8.39542375044986"><ele>151.0</ele><time>2026-03-30T16:46:56.999Z</time></trkpt><trkpt lat="39.39462659433172" lon="8.395325583338728"><ele>151.0</ele><time>2026-03-30T16:46:57.999Z</time></trkpt><trkpt lat="39.394523182742574" lon="8.39522353232404"><ele>149.0</ele><time>2026-03-30T16:46:58.999Z</time></trkpt><trkpt lat="39.39441267565766" lon="8.395125733989167"><ele>147.0</ele><time>2026-03-30T16:46:59.999Z</time></trkpt><trkpt lat="39.39429394291017" lon="8.395023652553244"><ele>145.0</ele><time>2026-03-30T16:47:00.999Z</time></trkpt><trkpt lat="39.39417102879657" lon="8.394932289501572"><ele>143.0</ele><time>2026-03-30T16:47:01.999Z</time></trkpt><trkpt lat="39.39403953137666" lon="8.39484865204266"><ele>143.0</ele><time>2026-03-30T16:47:02.999Z</time></trkpt><trkpt lat="39.39391459967415" lon="8.39477880605297"><ele>143.0</ele><time>2026-03-30T16:47:03.999Z</time></trkpt><trkpt lat="39.39377097866607" lon="8.394768004989459"><ele>143.0</ele><time>2026-03-30T16:47:04.999Z</time></trkpt><trkpt lat="39.39363166105698" lon="8.394739346548963"><ele>143.0</ele><time>2026-03-30T16:47:05.999Z</time></trkpt><trkpt lat="39.393488827263496" lon="8.394736820094959"><ele>144.33333333333331</ele><time>2026-03-30T16:47:06.999Z</time></trkpt><trkpt lat="39.39333940811441" lon="8.394744538116422"><ele>145.66666666666666</ele><time>2026-03-30T16:47:07.999Z</time></trkpt><trkpt lat="39.39318678433783" lon="8.39476193111349"><ele>147.0</ele><time>2026-03-30T16:47:08.999Z</time></trkpt><trkpt lat="39.39302131429546" lon="8.394765729087501"><ele>147.0</ele><time>2026-03-30T16:47:09.999Z</time></trkpt><trkpt lat="39.392849868845076" lon="8.394757396253775"><ele>147.0</ele><time>2026-03-30T16:47:10.999Z</time></trkpt><trkpt lat="39.39266931852291" lon="8.394757367423425"><ele>147.0</ele><time>2026-03-30T16:47:11.999Z</time></trkpt><trkpt lat="39.392476329364484" lon="8.394766158882064"><ele>147.0</ele><time>2026-03-30T16:47:12.999Z</time></trkpt><trkpt lat="39.39228252494306" lon="8.3947802796058"><ele>147.0</ele><time>2026-03-30T16:47:13.999Z</time></trkpt><trkpt lat="39.39208447907517" lon="8.394803423788266"><ele>147.0</ele><time>2026-03-30T16:47:14.999Z</time></trkpt><trkpt lat="39.39188402968186" lon="8.394825763037545"><ele>146.33333333333334</ele><time>2026-03-30T16:47:15.999Z</time></trkpt><trkpt lat="39.39168047710278" lon="8.394848830213355"><ele>145.66666666666669</ele><time>2026-03-30T16:47:16.999Z</time></trkpt><trkpt lat="39.39146562669284" lon="8.394875850376089"><ele>145.0</ele><time>2026-03-30T16:47:17.999Z</time></trkpt><trkpt lat="39.3910380775829" lon="8.394934896876443"><ele>144.0</ele><time>2026-03-30T16:47:19.999Z</time></trkpt><trkpt lat="39.39082289245259" lon="8.39496461700856"><ele>143.0</ele><time>2026-03-30T16:47:20.999Z</time></trkpt><trkpt lat="39.39060421877524" lon="8.394989256372574"><ele>142.0</ele><time>2026-03-30T16:47:21.999Z</time></trkpt><trkpt lat="39.39038244399532" lon="8.395006054649562"><ele>142.0</ele><time>2026-03-30T16:47:22.999Z</time></trkpt><trkpt lat="39.39016805663248" lon="8.395031212002797"><ele>142.0</ele><time>2026-03-30T16:47:23.999Z</time></trkpt><trkpt lat="39.389948216002715" lon="8.39506056555112"><ele>142.0</ele><time>2026-03-30T16:47:24.999Z</time></trkpt><trkpt lat="39.389727520024984" lon="8.39508666874391"><ele>141.0</ele><time>2026-03-30T16:47:25.999Z</time></trkpt><trkpt lat="39.38950721912096" lon="8.395110134384845"><ele>140.0</ele><time>2026-03-30T16:47:26.999Z</time></trkpt><trkpt lat="39.389282373722146" lon="8.395132705847619"><ele>139.0</ele><time>2026-03-30T16:47:27.999Z</time></trkpt><trkpt lat="39.3890577816379" lon="8.395155675179092"><ele>138.66666666666669</ele><time>2026-03-30T16:47:28.999Z</time></trkpt><trkpt lat="39.38883630503208" lon="8.395178385405293"><ele>138.33333333333334</ele><time>2026-03-30T16:47:29.999Z</time></trkpt><trkpt lat="39.38861524167797" lon="8.395207665631517"><ele>138.0</ele><time>2026-03-30T16:47:30.999Z</time></trkpt><trkpt lat="39.38840720380154" lon="8.395231506470171"><ele>138.0</ele><time>2026-03-30T16:47:31.999Z</time></trkpt><trkpt lat="39.38819751327678" lon="8.395254578481579"><ele>138.0</ele><time>2026-03-30T16:47:32.999Z</time></trkpt><trkpt lat="39.38798759273264" lon="8.395210054279604"><ele>138.0</ele><time>2026-03-30T16:47:33.999Z</time></trkpt><trkpt lat="39.38777595842295" lon="8.395152742622146"><ele>138.0</ele><time>2026-03-30T16:47:34.999Z</time></trkpt><trkpt lat="39.38755497830386" lon="8.395103375289377"><ele>138.0</ele><time>2026-03-30T16:47:35.999Z</time></trkpt><trkpt lat="39.3873405238765" lon="8.395018895418929"><ele>138.0</ele><time>2026-03-30T16:47:36.999Z</time></trkpt><trkpt lat="39.38712117466521" lon="8.394947438766842"><ele>138.0</ele><time>2026-03-30T16:47:37.999Z</time></trkpt><trkpt lat="39.38689859495175" lon="8.394888361466148"><ele>138.0</ele><time>2026-03-30T16:47:38.999Z</time></trkpt><trkpt lat="39.38667814177974" lon="8.394829911603242"><ele>138.0</ele><time>2026-03-30T16:47:39.999Z</time></trkpt><trkpt lat="39.38646216529632" lon="8.394768450331638"><ele>138.0</ele><time>2026-03-30T16:47:40.999Z</time></trkpt><trkpt lat="39.386251269496185" lon="8.394706648950413"><ele>138.0</ele><time>2026-03-30T16:47:41.999Z</time></trkpt><trkpt lat="39.38604555698959" lon="8.394639435026036"><ele>138.33333333333334</ele><time>2026-03-30T16:47:42.999Z</time></trkpt><trkpt lat="39.38585196305473" lon="8.394549457788983"><ele>138.66666666666669</ele><time>2026-03-30T16:47:43.999Z</time></trkpt><trkpt lat="39.38566925774826" lon="8.394435843130482"><ele>139.0</ele><time>2026-03-30T16:47:44.999Z</time></trkpt><trkpt lat="39.385487005079746" lon="8.394331907451944"><ele>139.66666666666669</ele><time>2026-03-30T16:47:45.999Z</time></trkpt><trkpt lat="39.385296047809526" lon="8.394271779451781"><ele>140.33333333333334</ele><time>2026-03-30T16:47:46.999Z</time></trkpt><trkpt lat="39.385095159798155" lon="8.394274920841612"><ele>141.0</ele><time>2026-03-30T16:47:47.999Z</time></trkpt><trkpt lat="39.38489196621836" lon="8.394289034106675"><ele>141.0</ele><time>2026-03-30T16:47:48.999Z</time></trkpt><trkpt lat="39.3846927683297" lon="8.39428678575928"><ele>141.0</ele><time>2026-03-30T16:47:49.999Z</time></trkpt><trkpt lat="39.38449009325017" lon="8.394249782419816"><ele>141.0</ele><time>2026-03-30T16:47:50.999Z</time></trkpt><trkpt lat="39.38428646688935" lon="8.394198968527316"><ele>141.33333333333334</ele><time>2026-03-30T16:47:51.999Z</time></trkpt><trkpt lat="39.384084641724186" lon="8.394140030924355"><ele>141.66666666666669</ele><time>2026-03-30T16:47:52.999Z</time></trkpt><trkpt lat="39.38388316864372" lon="8.394067208437196"><ele>142.0</ele><time>2026-03-30T16:47:53.999Z</time></trkpt><trkpt lat="39.38368515252478" lon="8.39398832271115"><ele>142.33333333333334</ele><time>2026-03-30T16:47:54.999Z</time></trkpt><trkpt lat="39.38348646614818" lon="8.3939119536428"><ele>142.66666666666666</ele><time>2026-03-30T16:47:55.999Z</time></trkpt><trkpt lat="39.383280751290634" lon="8.39384863454806"><ele>143.0</ele><time>2026-03-30T16:47:56.999Z</time></trkpt><trkpt lat="39.38307840399498" lon="8.393787743730908"><ele>140.33333333333331</ele><time>2026-03-30T16:47:57.999Z</time></trkpt><trkpt lat="39.38288094680624" lon="8.393727171952477"><ele>137.66666666666666</ele><time>2026-03-30T16:47:58.999Z</time></trkpt><trkpt lat="39.38268737893372" lon="8.393675214297751"><ele>135.0</ele><time>2026-03-30T16:47:59.999Z</time></trkpt><trkpt lat="39.38248626084039" lon="8.393654540057534"><ele>135.0</ele><time>2026-03-30T16:48:00.999Z</time></trkpt><trkpt lat="39.38228576001057" lon="8.393683376432287"><ele>135.0</ele><time>2026-03-30T16:48:01.999Z</time></trkpt><trkpt lat="39.382090374991144" lon="8.393766333556439"><ele>135.0</ele><time>2026-03-30T16:48:02.999Z</time></trkpt><trkpt lat="39.38189920939488" lon="8.39386730857003"><ele>135.66666666666666</ele><time>2026-03-30T16:48:03.999Z</time></trkpt><trkpt lat="39.381721647026204" lon="8.393977012144527"><ele>136.33333333333331</ele><time>2026-03-30T16:48:04.999Z</time></trkpt><trkpt lat="39.38153844941006" lon="8.394102570032226"><ele>137.0</ele><time>2026-03-30T16:48:05.999Z</time></trkpt><trkpt lat="39.38136444174452" lon="8.394249613379348"><ele>135.0</ele><time>2026-03-30T16:48:06.999Z</time></trkpt><trkpt lat="39.38119158761993" lon="8.394400728539779"><ele>133.0</ele><time>2026-03-30T16:48:07.999Z</time></trkpt><trkpt lat="39.38100606016622" lon="8.394528555033625"><ele>131.0</ele><time>2026-03-30T16:48:08.999Z</time></trkpt><trkpt lat="39.380805328727426" lon="8.394599131434106"><ele>131.0</ele><time>2026-03-30T16:48:09.999Z</time></trkpt><trkpt lat="39.380594415340845" lon="8.394610094555729"><ele>131.0</ele><time>2026-03-30T16:48:10.999Z</time></trkpt><trkpt lat="39.380386374430465" lon="8.394609997525965"><ele>131.0</ele><time>2026-03-30T16:48:11.999Z</time></trkpt><trkpt lat="39.380184862203954" lon="8.39464553711128"><ele>132.0</ele><time>2026-03-30T16:48:12.999Z</time></trkpt><trkpt lat="39.37998635777516" lon="8.39471769536332"><ele>133.0</ele><time>2026-03-30T16:48:13.999Z</time></trkpt><trkpt lat="39.37980255776611" lon="8.394801816420134"><ele>134.0</ele><time>2026-03-30T16:48:14.999Z</time></trkpt><trkpt lat="39.37963379859355" lon="8.394880296888914"><ele>130.33333333333331</ele><time>2026-03-30T16:48:15.999Z</time></trkpt><trkpt lat="39.37947891394666" lon="8.394964446826668"><ele>126.66666666666666</ele><time>2026-03-30T16:48:16.999Z</time></trkpt><trkpt lat="39.379334867064294" lon="8.395074885907803"><ele>123.0</ele><time>2026-03-30T16:48:17.999Z</time></trkpt><trkpt lat="39.37921792792369" lon="8.395230879907501"><ele>123.0</ele><time>2026-03-30T16:48:18.999Z</time></trkpt><trkpt lat="39.379134236445296" lon="8.395415273241163"><ele>123.0</ele><time>2026-03-30T16:48:19.999Z</time></trkpt><trkpt lat="39.379047386661256" lon="8.3955804530206"><ele>123.0</ele><time>2026-03-30T16:48:20.999Z</time></trkpt><trkpt lat="39.37892293201317" lon="8.395696774516953"><ele>123.66666666666666</ele><time>2026-03-30T16:48:21.999Z</time></trkpt><trkpt lat="39.37876430407928" lon="8.39574877564317"><ele>124.33333333333333</ele><time>2026-03-30T16:48:22.999Z</time></trkpt><trkpt lat="39.378593861433956" lon="8.3957413441416"><ele>125.0</ele><time>2026-03-30T16:48:23.999Z</time></trkpt><trkpt lat="39.37842118178362" lon="8.39568191380637"><ele>125.0</ele><time>2026-03-30T16:48:24.999Z</time></trkpt><trkpt lat="39.37825156478347" lon="8.39560601063033"><ele>125.0</ele><time>2026-03-30T16:48:25.999Z</time></trkpt><trkpt lat="39.37808369619915" lon="8.395542647183001"><ele>125.0</ele><time>2026-03-30T16:48:26.999Z</time></trkpt><trkpt lat="39.377921383264386" lon="8.39549633009257"><ele>122.0</ele><time>2026-03-30T16:48:27.999Z</time></trkpt><trkpt lat="39.37776002640004" lon="8.395458404573963"><ele>119.0</ele><time>2026-03-30T16:48:28.999Z</time></trkpt><trkpt lat="39.37760844622056" lon="8.395417650668351"><ele>116.0</ele><time>2026-03-30T16:48:29.999Z</time></trkpt><trkpt lat="39.37747119002548" lon="8.395385685002939"><ele>116.0</ele><time>2026-03-30T16:48:30.999Z</time></trkpt><trkpt lat="39.3773384739642" lon="8.395363027956115"><ele>116.0</ele><time>2026-03-30T16:48:31.999Z</time></trkpt><trkpt lat="39.37719699070297" lon="8.395338705831774"><ele>116.0</ele><time>2026-03-30T16:48:32.999Z</time></trkpt><trkpt lat="39.37704729128029" lon="8.395310264948584"><ele>116.0</ele><time>2026-03-30T16:48:33.999Z</time></trkpt><trkpt lat="39.37689847400224" lon="8.395260744758744"><ele>115.33333333333333</ele><time>2026-03-30T16:48:34.999Z</time></trkpt><trkpt lat="39.37674647828528" lon="8.39517544539389"><ele>114.66666666666666</ele><time>2026-03-30T16:48:35.999Z</time></trkpt><trkpt lat="39.37659498092517" lon="8.395064476662379"><ele>114.0</ele><time>2026-03-30T16:48:36.999Z</time></trkpt><trkpt lat="39.37644501586819" lon="8.394931321766807"><ele>114.66666666666666</ele><time>2026-03-30T16:48:37.999Z</time></trkpt><trkpt lat="39.37629714565333" lon="8.394788599560625"><ele>115.33333333333333</ele><time>2026-03-30T16:48:38.999Z</time></trkpt><trkpt lat="39.37614548207954" lon="8.394648682332214"><ele>116.0</ele><time>2026-03-30T16:48:39.999Z</time></trkpt><trkpt lat="39.375985040894946" lon="8.394507937419881"><ele>114.33333333333333</ele><time>2026-03-30T16:48:40.999Z</time></trkpt><trkpt lat="39.37582895643407" lon="8.394366613402207"><ele>112.66666666666666</ele><time>2026-03-30T16:48:41.999Z</time></trkpt><trkpt lat="39.375675499769386" lon="8.394220058425969"><ele>111.0</ele><time>2026-03-30T16:48:42.999Z</time></trkpt><trkpt lat="39.37552206661245" lon="8.394061998508654"><ele>110.66666666666666</ele><time>2026-03-30T16:48:43.999Z</time></trkpt><trkpt lat="39.3753617736302" lon="8.393917207999104"><ele>110.33333333333333</ele><time>2026-03-30T16:48:44.999Z</time></trkpt><trkpt lat="39.375198973496154" lon="8.39377548054838"><ele>110.0</ele><time>2026-03-30T16:48:45.999Z</time></trkpt><trkpt lat="39.37503085868348" lon="8.39363449114648"><ele>110.0</ele><time>2026-03-30T16:48:46.999Z</time></trkpt><trkpt lat="39.374862201502914" lon="8.393504851834146"><ele>110.0</ele><time>2026-03-30T16:48:47.999Z</time></trkpt><trkpt lat="39.37468570597476" lon="8.393388451848454"><ele>110.0</ele><time>2026-03-30T16:48:48.999Z</time></trkpt><trkpt lat="39.374513229172884" lon="8.393293932554895"><ele>108.66666666666666</ele><time>2026-03-30T16:48:49.999Z</time></trkpt><trkpt lat="39.3743437818608" lon="8.39322873121238"><ele>107.33333333333334</ele><time>2026-03-30T16:48:50.999Z</time></trkpt><trkpt lat="39.37419081450596" lon="8.393205634391352"><ele>106.0</ele><time>2026-03-30T16:48:51.999Z</time></trkpt><trkpt lat="39.374050136099115" lon="8.393240543543364"><ele>106.0</ele><time>2026-03-30T16:48:52.999Z</time></trkpt><trkpt lat="39.373908613166996" lon="8.393329064865004"><ele>106.0</ele><time>2026-03-30T16:48:53.999Z</time></trkpt><trkpt lat="39.373770046722015" lon="8.39347149738391"><ele>106.0</ele><time>2026-03-30T16:48:54.999Z</time></trkpt><trkpt lat="39.3736481384286" lon="8.393652239363604"><ele>102.0</ele><time>2026-03-30T16:48:55.999Z</time></trkpt><trkpt lat="39.37353121102605" lon="8.393830238069363"><ele>98.0</ele><time>2026-03-30T16:48:56.999Z</time></trkpt><trkpt lat="39.373414071058036" lon="8.393988954013718"><ele>94.0</ele><time>2026-03-30T16:48:57.999Z</time></trkpt><trkpt lat="39.37329575996934" lon="8.394153155718948"><ele>93.66666666666666</ele><time>2026-03-30T16:48:58.999Z</time></trkpt><trkpt lat="39.37319544081612" lon="8.394335928526989"><ele>93.33333333333333</ele><time>2026-03-30T16:48:59.999Z</time></trkpt><trkpt lat="39.373112578135725" lon="8.394532385983798"><ele>93.0</ele><time>2026-03-30T16:49:00.999Z</time></trkpt><trkpt lat="39.37302734157683" lon="8.394731301763002"><ele>88.66666666666667</ele><time>2026-03-30T16:49:01.999Z</time></trkpt><trkpt lat="39.37293894254258" lon="8.39492218204834"><ele>84.33333333333334</ele><time>2026-03-30T16:49:02.999Z</time></trkpt><trkpt lat="39.372849360275225" lon="8.39510715449006"><ele>80.0</ele><time>2026-03-30T16:49:03.999Z</time></trkpt><trkpt lat="39.37276629979973" lon="8.395289962015067"><ele>80.0</ele><time>2026-03-30T16:49:04.999Z</time></trkpt><trkpt lat="39.37268142611413" lon="8.395454006139301"><ele>80.0</ele><time>2026-03-30T16:49:05.999Z</time></trkpt><trkpt lat="39.37262760399615" lon="8.395628230295285"><ele>80.0</ele><time>2026-03-30T16:49:06.999Z</time></trkpt><trkpt lat="39.372558737639686" lon="8.395790304435666"><ele>80.0</ele><time>2026-03-30T16:49:07.999Z</time></trkpt><trkpt lat="39.37250783540183" lon="8.395966404491142"><ele>82.2</ele><time>2026-03-30T16:49:08.999Z</time></trkpt><trkpt lat="39.372453424850484" lon="8.396128700783136"><ele>84.4</ele><time>2026-03-30T16:49:09.999Z</time></trkpt><trkpt lat="39.37241151166182" lon="8.396267592618523"><ele>86.6</ele><time>2026-03-30T16:49:10.999Z</time></trkpt><trkpt lat="39.37237370133566" lon="8.396374276638788"><ele>88.8</ele><time>2026-03-30T16:49:11.999Z</time></trkpt><trkpt lat="39.372319378916096" lon="8.3964204899854"><ele>91.0</ele><time>2026-03-30T16:49:12.999Z</time></trkpt><trkpt lat="39.37225062413639" lon="8.39643898793006"><ele>91.0</ele><time>2026-03-30T16:49:13.999Z</time></trkpt><trkpt lat="39.372171294799855" lon="8.39636229096576"><ele>91.0</ele><time>2026-03-30T16:49:14.999Z</time></trkpt><trkpt lat="39.37213206163093" lon="8.396251249196151"><ele>91.0</ele><time>2026-03-30T16:49:15.999Z</time></trkpt><trkpt lat="39.37217133626211" lon="8.396115440196763"><ele>91.0</ele><time>2026-03-30T16:49:16.999Z</time></trkpt><trkpt lat="39.372236297398544" lon="8.395999969899197"><ele>91.0</ele><time>2026-03-30T16:49:17.999Z</time></trkpt><trkpt lat="39.37228392671444" lon="8.395870026850641"><ele>91.0</ele><time>2026-03-30T16:49:18.999Z</time></trkpt><trkpt lat="39.37229893351672" lon="8.395710256706325"><ele>91.0</ele><time>2026-03-30T16:49:19.999Z</time></trkpt><trkpt lat="39.37229480704702" lon="8.395539245437524"><ele>91.0</ele><time>2026-03-30T16:49:20.999Z</time></trkpt><trkpt lat="39.37230294597891" lon="8.395352944602152"><ele>91.0</ele><time>2026-03-30T16:49:21.999Z</time></trkpt><trkpt lat="39.37231716639352" lon="8.395155880798347"><ele>87.33333333333333</ele><time>2026-03-30T16:49:22.999Z</time></trkpt><trkpt lat="39.37233085016029" lon="8.394957419485966"><ele>83.66666666666667</ele><time>2026-03-30T16:49:23.999Z</time></trkpt><trkpt lat="39.37234448762649" lon="8.394754411843753"><ele>80.0</ele><time>2026-03-30T16:49:24.999Z</time></trkpt><trkpt lat="39.372352623476395" lon="8.394553746645903"><ele>77.25</ele><time>2026-03-30T16:49:25.999Z</time></trkpt><trkpt lat="39.372353542051705" lon="8.394370561110346"><ele>74.5</ele><time>2026-03-30T16:49:26.999Z</time></trkpt><trkpt lat="39.37234682132772" lon="8.394198569885242"><ele>71.75</ele><time>2026-03-30T16:49:27.999Z</time></trkpt><trkpt lat="39.37231280268773" lon="8.394062139145142"><ele>69.0</ele><time>2026-03-30T16:49:28.999Z</time></trkpt><trkpt lat="39.372236572933915" lon="8.393971122772015"><ele>70.75</ele><time>2026-03-30T16:49:29.999Z</time></trkpt><trkpt lat="39.3721317900259" lon="8.393929393810549"><ele>72.5</ele><time>2026-03-30T16:49:30.999Z</time></trkpt><trkpt lat="39.372011120490036" lon="8.39390969266222"><ele>74.25</ele><time>2026-03-30T16:49:31.999Z</time></trkpt><trkpt lat="39.371882365140316" lon="8.393879938640373"><ele>76.0</ele><time>2026-03-30T16:49:32.999Z</time></trkpt><trkpt lat="39.371742033967465" lon="8.393838005855741"><ele>69.33333333333333</ele><time>2026-03-30T16:49:33.999Z</time></trkpt><trkpt lat="39.37159194759796" lon="8.39379495887729"><ele>62.66666666666667</ele><time>2026-03-30T16:49:34.999Z</time></trkpt><trkpt lat="39.371436658611536" lon="8.393768464435054"><ele>56.0</ele><time>2026-03-30T16:49:35.999Z</time></trkpt><trkpt lat="39.371286042758776" lon="8.393749242418242"><ele>54.5</ele><time>2026-03-30T16:49:36.999Z</time></trkpt><trkpt lat="39.37114334980109" lon="8.393697895552009"><ele>53.0</ele><time>2026-03-30T16:49:37.999Z</time></trkpt><trkpt lat="39.37104457221458" lon="8.393560332114514"><ele>51.5</ele><time>2026-03-30T16:49:38.999Z</time></trkpt><trkpt lat="39.37093616883865" lon="8.393439495705026"><ele>50.0</ele><time>2026-03-30T16:49:39.999Z</time></trkpt><trkpt lat="39.370833056865706" lon="8.393317573763223"><ele>50.0</ele><time>2026-03-30T16:49:40.999Z</time></trkpt><trkpt lat="39.3707277070625" lon="8.393212855345617"><ele>50.0</ele><time>2026-03-30T16:49:41.999Z</time></trkpt><trkpt lat="39.37062669800499" lon="8.393123242816328"><ele>50.0</ele><time>2026-03-30T16:49:42.999Z</time></trkpt><trkpt lat="39.370526059366796" lon="8.39306404337302"><ele>50.0</ele><time>2026-03-30T16:49:43.999Z</time></trkpt><trkpt lat="39.37042101278641" lon="8.393057794292915"><ele>46.25</ele><time>2026-03-30T16:49:44.999Z</time></trkpt><trkpt lat="39.37032044099317" lon="8.393130444171533"><ele>42.5</ele><time>2026-03-30T16:49:45.999Z</time></trkpt><trkpt lat="39.37026323510745" lon="8.39325719101287"><ele>38.75</ele><time>2026-03-30T16:49:46.999Z</time></trkpt><trkpt lat="39.37023176175333" lon="8.393404675284833"><ele>35.0</ele><time>2026-03-30T16:49:47.999Z</time></trkpt><trkpt lat="39.370207565912786" lon="8.393559476097959"><ele>35.0</ele><time>2026-03-30T16:49:48.999Z</time></trkpt><trkpt lat="39.37017406236082" lon="8.39371245168931"><ele>35.0</ele><time>2026-03-30T16:49:49.999Z</time></trkpt><trkpt lat="39.37012057547927" lon="8.393866386345536"><ele>35.0</ele><time>2026-03-30T16:49:50.999Z</time></trkpt><trkpt lat="39.37004390585445" lon="8.394023967687245"><ele>35.0</ele><time>2026-03-30T16:49:51.999Z</time></trkpt><trkpt lat="39.3699599033103" lon="8.394167279950528"><ele>34.25</ele><time>2026-03-30T16:49:52.999Z</time></trkpt><trkpt lat="39.36986836899033" lon="8.39429199802523"><ele>33.5</ele><time>2026-03-30T16:49:53.999Z</time></trkpt><trkpt lat="39.36976568590291" lon="8.394397746805694"><ele>32.75</ele><time>2026-03-30T16:49:54.999Z</time></trkpt><trkpt lat="39.369646625849306" lon="8.394493799200596"><ele>32.0</ele><time>2026-03-30T16:49:55.999Z</time></trkpt><trkpt lat="39.36954033153412" lon="8.394564101453668"><ele>32.0</ele><time>2026-03-30T16:49:56.999Z</time></trkpt><trkpt lat="39.369409507233385" lon="8.394600577517751"><ele>32.0</ele><time>2026-03-30T16:49:57.999Z</time></trkpt><trkpt lat="39.369266292107994" lon="8.394596379846272"><ele>32.0</ele><time>2026-03-30T16:49:58.999Z</time></trkpt><trkpt lat="39.3691166646486" lon="8.394576715502522"><ele>32.0</ele><time>2026-03-30T16:49:59.999Z</time></trkpt><trkpt lat="39.36896936729068" lon="8.394558835098556"><ele>34.0</ele><time>2026-03-30T16:50:00.999Z</time></trkpt><trkpt lat="39.36883501361094" lon="8.394567093729394"><ele>36.0</ele><time>2026-03-30T16:50:01.999Z</time></trkpt><trkpt lat="39.36871175706141" lon="8.394604691061845"><ele>38.0</ele><time>2026-03-30T16:50:02.999Z</time></trkpt><trkpt lat="39.36860388630126" lon="8.394678610052214"><ele>40.0</ele><time>2026-03-30T16:50:03.999Z</time></trkpt><trkpt lat="39.368500395166" lon="8.394748168441911"><ele>40.4</ele><time>2026-03-30T16:50:04.999Z</time></trkpt><trkpt lat="39.36841291333627" lon="8.394820994830157"><ele>40.8</ele><time>2026-03-30T16:50:05.999Z</time></trkpt><trkpt lat="39.36832491495067" lon="8.394891204709445"><ele>41.2</ele><time>2026-03-30T16:50:06.999Z</time></trkpt><trkpt lat="39.36823000134902" lon="8.3949421582196"><ele>41.6</ele><time>2026-03-30T16:50:07.999Z</time></trkpt><trkpt lat="39.368148946551756" lon="8.395019440853863"><ele>42.0</ele><time>2026-03-30T16:50:08.999Z</time></trkpt><trkpt lat="39.36806011698747" lon="8.395088001328194"><ele>41.25</ele><time>2026-03-30T16:50:09.999Z</time></trkpt><trkpt lat="39.36797479114008" lon="8.39517131077393"><ele>40.5</ele><time>2026-03-30T16:50:10.999Z</time></trkpt><trkpt lat="39.36789219503111" lon="8.395272661653832"><ele>39.75</ele><time>2026-03-30T16:50:11.999Z</time></trkpt><trkpt lat="39.367819066971784" lon="8.395389988778401"><ele>39.0</ele><time>2026-03-30T16:50:12.999Z</time></trkpt><trkpt lat="39.36775555207997" lon="8.395515542602025"><ele>39.0</ele><time>2026-03-30T16:50:13.999Z</time></trkpt><trkpt lat="39.36769978797965" lon="8.395633984417037"><ele>39.0</ele><time>2026-03-30T16:50:14.999Z</time></trkpt><trkpt lat="39.367650692930084" lon="8.395752205492364"><ele>39.0</ele><time>2026-03-30T16:50:15.999Z</time></trkpt><trkpt lat="39.36760567924269" lon="8.395869556369338"><ele>39.0</ele><time>2026-03-30T16:50:16.999Z</time></trkpt><trkpt lat="39.36757756193001" lon="8.395993608903844"><ele>39.0</ele><time>2026-03-30T16:50:17.999Z</time></trkpt><trkpt lat="39.36759112505551" lon="8.396158303143983"><ele>39.0</ele><time>2026-03-30T16:50:18.999Z</time></trkpt><trkpt lat="39.36756773191788" lon="8.396303859381224"><ele>39.0</ele><time>2026-03-30T16:50:19.999Z</time></trkpt><trkpt lat="39.367503545938106" lon="8.39648396096606"><ele>39.0</ele><time>2026-03-30T16:50:20.999Z</time></trkpt><trkpt lat="39.367447979470825" lon="8.396654242072152"><ele>39.0</ele><time>2026-03-30T16:50:21.999Z</time></trkpt><trkpt lat="39.36740422774046" lon="8.396852565507212"><ele>41.5</ele><time>2026-03-30T16:50:22.999Z</time></trkpt><trkpt lat="39.36738004243325" lon="8.39700876950281"><ele>44.0</ele><time>2026-03-30T16:50:23.999Z</time></trkpt><trkpt lat="39.36733891392643" lon="8.397195721739335"><ele>46.5</ele><time>2026-03-30T16:50:24.999Z</time></trkpt><trkpt lat="39.36728486865045" lon="8.397389786648233"><ele>49.0</ele><time>2026-03-30T16:50:25.999Z</time></trkpt><trkpt lat="39.36722227356785" lon="8.39759746128227"><ele>46.0</ele><time>2026-03-30T16:50:26.999Z</time></trkpt><trkpt lat="39.3671703499869" lon="8.397813118712794"><ele>43.0</ele><time>2026-03-30T16:50:27.999Z</time></trkpt><trkpt lat="39.3671230689113" lon="8.398021728524576"><ele>40.0</ele><time>2026-03-30T16:50:28.999Z</time></trkpt><trkpt lat="39.36707397644054" lon="8.398237252398948"><ele>40.0</ele><time>2026-03-30T16:50:29.999Z</time></trkpt><trkpt lat="39.36701802609918" lon="8.398455379609478"><ele>40.0</ele><time>2026-03-30T16:50:30.999Z</time></trkpt><trkpt lat="39.36695808948101" lon="8.398678210406288"><ele>40.0</ele><time>2026-03-30T16:50:31.999Z</time></trkpt><trkpt lat="39.36690273924551" lon="8.398903722419364"><ele>42.0</ele><time>2026-03-30T16:50:32.999Z</time></trkpt><trkpt lat="39.3668466136061" lon="8.399115114646323"><ele>44.0</ele><time>2026-03-30T16:50:33.999Z</time></trkpt><trkpt lat="39.3667708657313" lon="8.399306734559314"><ele>46.0</ele><time>2026-03-30T16:50:34.999Z</time></trkpt><trkpt lat="39.366666810811644" lon="8.399459709087138"><ele>46.0</ele><time>2026-03-30T16:50:35.999Z</time></trkpt><trkpt lat="39.366531313463696" lon="8.399570303142362"><ele>46.0</ele><time>2026-03-30T16:50:36.999Z</time></trkpt><trkpt lat="39.36637486490694" lon="8.399639786463828"><ele>46.0</ele><time>2026-03-30T16:50:37.999Z</time></trkpt><trkpt lat="39.3662048001128" lon="8.399690895859088"><ele>47.333333333333336</ele><time>2026-03-30T16:50:38.999Z</time></trkpt><trkpt lat="39.36604111434539" lon="8.399749261869777"><ele>48.66666666666667</ele><time>2026-03-30T16:50:39.999Z</time></trkpt><trkpt lat="39.365880953652045" lon="8.39981177736511"><ele>50.0</ele><time>2026-03-30T16:50:40.999Z</time></trkpt><trkpt lat="39.36572465505359" lon="8.399868347680021"><ele>50.0</ele><time>2026-03-30T16:50:41.999Z</time></trkpt><trkpt lat="39.3655681294329" lon="8.399917345513526"><ele>50.0</ele><time>2026-03-30T16:50:42.999Z</time></trkpt><trkpt lat="39.36540925077027" lon="8.399948048912343"><ele>50.0</ele><time>2026-03-30T16:50:43.999Z</time></trkpt><trkpt lat="39.365260651223444" lon="8.399973800549516"><ele>51.25</ele><time>2026-03-30T16:50:44.999Z</time></trkpt><trkpt lat="39.365123963327186" lon="8.400021896054552"><ele>52.5</ele><time>2026-03-30T16:50:45.999Z</time></trkpt><trkpt lat="39.365005941998916" lon="8.400108375354064"><ele>53.75</ele><time>2026-03-30T16:50:46.999Z</time></trkpt><trkpt lat="39.36491051363725" lon="8.400242120177705"><ele>55.0</ele><time>2026-03-30T16:50:47.999Z</time></trkpt><trkpt lat="39.364849463587184" lon="8.400420930248842"><ele>57.25</ele><time>2026-03-30T16:50:48.999Z</time></trkpt><trkpt lat="39.36485374338149" lon="8.400617206218588"><ele>59.5</ele><time>2026-03-30T16:50:49.999Z</time></trkpt><trkpt lat="39.3648781533923" lon="8.400810840110712"><ele>61.75</ele><time>2026-03-30T16:50:50.999Z</time></trkpt><trkpt lat="39.364859102630895" lon="8.400991212854198"><ele>64.0</ele><time>2026-03-30T16:50:51.999Z</time></trkpt><trkpt lat="39.36477620338175" lon="8.40115287513546"><ele>66.0</ele><time>2026-03-30T16:50:52.999Z</time></trkpt><trkpt lat="39.364652806628605" lon="8.401271861498525"><ele>68.0</ele><time>2026-03-30T16:50:53.999Z</time></trkpt><trkpt lat="39.36451874762147" lon="8.401347920616123"><ele>70.0</ele><time>2026-03-30T16:50:54.999Z</time></trkpt><trkpt lat="39.36438497588718" lon="8.401345496941094"><ele>72.0</ele><time>2026-03-30T16:50:55.999Z</time></trkpt><trkpt lat="39.36425678289704" lon="8.401276447503822"><ele>72.0</ele><time>2026-03-30T16:50:56.999Z</time></trkpt><trkpt lat="39.364142150790975" lon="8.401199929726333"><ele>72.0</ele><time>2026-03-30T16:50:57.999Z</time></trkpt><trkpt lat="39.36402992343679" lon="8.401177225612114"><ele>72.0</ele><time>2026-03-30T16:50:58.999Z</time></trkpt><trkpt lat="39.36391742804332" lon="8.401223760709433"><ele>72.0</ele><time>2026-03-30T16:50:59.999Z</time></trkpt><trkpt lat="39.36383658950971" lon="8.401345476561119"><ele>76.0</ele><time>2026-03-30T16:51:00.999Z</time></trkpt><trkpt lat="39.36380910698857" lon="8.401510671071446"><ele>80.0</ele><time>2026-03-30T16:51:01.999Z</time></trkpt><trkpt lat="39.36381269000837" lon="8.401675998665658"><ele>84.0</ele><time>2026-03-30T16:51:02.999Z</time></trkpt><trkpt lat="39.36382251343493" lon="8.401836943293592"><ele>88.0</ele><time>2026-03-30T16:51:03.999Z</time></trkpt><trkpt lat="39.36380674249885" lon="8.401996784053257"><ele>88.0</ele><time>2026-03-30T16:51:04.999Z</time></trkpt><trkpt lat="39.36374208222879" lon="8.402142723522076"><ele>88.0</ele><time>2026-03-30T16:51:05.999Z</time></trkpt><trkpt lat="39.363637351662064" lon="8.402265894053036"><ele>88.0</ele><time>2026-03-30T16:51:06.999Z</time></trkpt><trkpt lat="39.36350433712787" lon="8.40234433587871"><ele>88.0</ele><time>2026-03-30T16:51:07.999Z</time></trkpt><trkpt lat="39.363361029265505" lon="8.40238711339682"><ele>86.25</ele><time>2026-03-30T16:51:08.999Z</time></trkpt><trkpt lat="39.36322649796381" lon="8.402448282939686"><ele>84.5</ele><time>2026-03-30T16:51:09.999Z</time></trkpt><trkpt lat="39.36312087155213" lon="8.402569822819183"><ele>82.75</ele><time>2026-03-30T16:51:10.999Z</time></trkpt><trkpt lat="39.363048112323504" lon="8.402728767414915"><ele>81.0</ele><time>2026-03-30T16:51:11.999Z</time></trkpt><trkpt lat="39.3630132159289" lon="8.402916354237217"><ele>82.0</ele><time>2026-03-30T16:51:12.999Z</time></trkpt><trkpt lat="39.362989396838195" lon="8.403105193986493"><ele>83.0</ele><time>2026-03-30T16:51:13.999Z</time></trkpt><trkpt lat="39.36292674405725" lon="8.403274605769935"><ele>84.0</ele><time>2026-03-30T16:51:14.999Z</time></trkpt><trkpt lat="39.36281259443198" lon="8.403401569227999"><ele>85.0</ele><time>2026-03-30T16:51:15.999Z</time></trkpt><trkpt lat="39.36267647538865" lon="8.403494935133635"><ele>85.0</ele><time>2026-03-30T16:51:16.999Z</time></trkpt><trkpt lat="39.36254322633877" lon="8.403591115385831"><ele>85.0</ele><time>2026-03-30T16:51:17.999Z</time></trkpt><trkpt lat="39.362416907409674" lon="8.40370057849568"><ele>85.0</ele><time>2026-03-30T16:51:18.999Z</time></trkpt><trkpt lat="39.36229181949488" lon="8.403818534060887"><ele>87.33333333333333</ele><time>2026-03-30T16:51:19.999Z</time></trkpt><trkpt lat="39.36216435642201" lon="8.403935567038193"><ele>89.66666666666667</ele><time>2026-03-30T16:51:20.999Z</time></trkpt><trkpt lat="39.36203099020918" lon="8.404050307764365"><ele>92.0</ele><time>2026-03-30T16:51:21.999Z</time></trkpt><trkpt lat="39.36189824238011" lon="8.40416364695709"><ele>92.0</ele><time>2026-03-30T16:51:22.999Z</time></trkpt><trkpt lat="39.36176421668706" lon="8.404272393192866"><ele>92.0</ele><time>2026-03-30T16:51:23.999Z</time></trkpt><trkpt lat="39.36163115896263" lon="8.404378207146161"><ele>92.0</ele><time>2026-03-30T16:51:24.999Z</time></trkpt><trkpt lat="39.36149622102394" lon="8.404485206614865"><ele>92.0</ele><time>2026-03-30T16:51:25.999Z</time></trkpt><trkpt lat="39.36136309461072" lon="8.404590540263767"><ele>92.0</ele><time>2026-03-30T16:51:26.999Z</time></trkpt><trkpt lat="39.36122789273413" lon="8.404691324330242"><ele>92.0</ele><time>2026-03-30T16:51:27.999Z</time></trkpt><trkpt lat="39.36109104847796" lon="8.404789484634067"><ele>92.0</ele><time>2026-03-30T16:51:28.999Z</time></trkpt><trkpt lat="39.360960311676244" lon="8.404885447919009"><ele>92.0</ele><time>2026-03-30T16:51:29.999Z</time></trkpt><trkpt lat="39.36084546970503" lon="8.405000875132291"><ele>92.0</ele><time>2026-03-30T16:51:30.999Z</time></trkpt><trkpt lat="39.36076394124416" lon="8.405165445756223"><ele>92.0</ele><time>2026-03-30T16:51:31.999Z</time></trkpt><trkpt lat="39.360711749799364" lon="8.40536020731554"><ele>97.0</ele><time>2026-03-30T16:51:32.999Z</time></trkpt><trkpt lat="39.36067056007292" lon="8.405558955339384"><ele>102.0</ele><time>2026-03-30T16:51:33.999Z</time></trkpt><trkpt lat="39.3606229365614" lon="8.405755107295285"><ele>107.0</ele><time>2026-03-30T16:51:34.999Z</time></trkpt><trkpt lat="39.360563453008915" lon="8.405942467451245"><ele>107.33333333333333</ele><time>2026-03-30T16:51:35.999Z</time></trkpt><trkpt lat="39.360484341808366" lon="8.406123419483933"><ele>107.66666666666666</ele><time>2026-03-30T16:51:36.999Z</time></trkpt><trkpt lat="39.360393090158006" lon="8.406295335092674"><ele>108.0</ele><time>2026-03-30T16:51:37.999Z</time></trkpt><trkpt lat="39.36030375448095" lon="8.406471711634323"><ele>106.66666666666666</ele><time>2026-03-30T16:51:38.999Z</time></trkpt><trkpt lat="39.36021745181716" lon="8.40665386330416"><ele>105.33333333333333</ele><time>2026-03-30T16:51:39.999Z</time></trkpt><trkpt lat="39.360125715728245" lon="8.406829188334768"><ele>104.0</ele><time>2026-03-30T16:51:40.999Z</time></trkpt><trkpt lat="39.36002558338999" lon="8.406994545109887"><ele>105.33333333333333</ele><time>2026-03-30T16:51:41.999Z</time></trkpt><trkpt lat="39.359931372333754" lon="8.40716230041698"><ele>106.66666666666666</ele><time>2026-03-30T16:51:42.999Z</time></trkpt><trkpt lat="39.359866599761" lon="8.407355166851184"><ele>108.0</ele><time>2026-03-30T16:51:43.999Z</time></trkpt><trkpt lat="39.35985087926773" lon="8.407561959010783"><ele>108.0</ele><time>2026-03-30T16:51:44.999Z</time></trkpt><trkpt lat="39.35987399899383" lon="8.407778239142955"><ele>108.0</ele><time>2026-03-30T16:51:45.999Z</time></trkpt><trkpt lat="39.359887324271824" lon="8.407989122525777"><ele>108.0</ele><time>2026-03-30T16:51:46.999Z</time></trkpt><trkpt lat="39.3598697732314" lon="8.408201160026875"><ele>109.66666666666666</ele><time>2026-03-30T16:51:47.999Z</time></trkpt><trkpt lat="39.35981492011394" lon="8.40840668194024"><ele>111.33333333333333</ele><time>2026-03-30T16:51:48.999Z</time></trkpt><trkpt lat="39.35973734392733" lon="8.408597024425255"><ele>113.0</ele><time>2026-03-30T16:51:49.999Z</time></trkpt><trkpt lat="39.35964421612121" lon="8.408777901921827"><ele>114.33333333333333</ele><time>2026-03-30T16:51:50.999Z</time></trkpt><trkpt lat="39.35956261671289" lon="8.408962528006013"><ele>115.66666666666666</ele><time>2026-03-30T16:51:51.999Z</time></trkpt><trkpt lat="39.3594907413385" lon="8.409159168867781"><ele>117.0</ele><time>2026-03-30T16:51:52.999Z</time></trkpt><trkpt lat="39.35943722506744" lon="8.409362258340398"><ele>117.0</ele><time>2026-03-30T16:51:53.999Z</time></trkpt><trkpt lat="39.359402179687905" lon="8.40956885612455"><ele>117.0</ele><time>2026-03-30T16:51:54.999Z</time></trkpt><trkpt lat="39.359405609644824" lon="8.409782846957782"><ele>117.0</ele><time>2026-03-30T16:51:55.999Z</time></trkpt><trkpt lat="39.35944564180635" lon="8.409996293810096"><ele>119.33333333333334</ele><time>2026-03-30T16:51:57Z</time></trkpt><trkpt lat="39.35950363125256" lon="8.410200720761717"><ele>121.66666666666667</ele><time>2026-03-30T16:51:58Z</time></trkpt><trkpt lat="39.359559729307165" lon="8.410402252553533"><ele>124.0</ele><time>2026-03-30T16:51:59Z</time></trkpt><trkpt lat="39.359609115144345" lon="8.410611892419741"><ele>127.0</ele><time>2026-03-30T16:52:00Z</time></trkpt><trkpt lat="39.35964711830689" lon="8.410826166676857"><ele>130.0</ele><time>2026-03-30T16:52:01Z</time></trkpt><trkpt lat="39.35967281807182" lon="8.411043164430138"><ele>133.0</ele><time>2026-03-30T16:52:02Z</time></trkpt><trkpt lat="39.35969008910588" lon="8.411267220236665"><ele>135.33333333333334</ele><time>2026-03-30T16:52:03Z</time></trkpt><trkpt lat="39.35970462145575" lon="8.411489731806732"><ele>137.66666666666666</ele><time>2026-03-30T16:52:04Z</time></trkpt><trkpt lat="39.35971674411165" lon="8.411715990332496"><ele>140.0</ele><time>2026-03-30T16:52:05Z</time></trkpt><trkpt lat="39.35972083232999" lon="8.411942686352182"><ele>140.0</ele><time>2026-03-30T16:52:06Z</time></trkpt><trkpt lat="39.35972776555295" lon="8.412171350956344"><ele>140.0</ele><time>2026-03-30T16:52:07Z</time></trkpt><trkpt lat="39.35973575817502" lon="8.41240118102525"><ele>140.0</ele><time>2026-03-30T16:52:08Z</time></trkpt><trkpt lat="39.35975026751321" lon="8.412628641172102"><ele>140.0</ele><time>2026-03-30T16:52:09Z</time></trkpt><trkpt lat="39.35976921450403" lon="8.412858495680988"><ele>140.0</ele><time>2026-03-30T16:52:10Z</time></trkpt><trkpt lat="39.359809190162906" lon="8.41308411943726"><ele>140.0</ele><time>2026-03-30T16:52:11Z</time></trkpt><trkpt lat="39.35987707263448" lon="8.413295990436941"><ele>140.33333333333331</ele><time>2026-03-30T16:52:12Z</time></trkpt><trkpt lat="39.35996338357903" lon="8.413500875865354"><ele>140.66666666666666</ele><time>2026-03-30T16:52:13Z</time></trkpt><trkpt lat="39.3600402499809" lon="8.413712167140071"><ele>141.0</ele><time>2026-03-30T16:52:14Z</time></trkpt><trkpt lat="39.36010979485305" lon="8.41392547323856"><ele>141.0</ele><time>2026-03-30T16:52:15Z</time></trkpt><trkpt lat="39.36017219679524" lon="8.414142464327012"><ele>141.0</ele><time>2026-03-30T16:52:16Z</time></trkpt><trkpt lat="39.360229972972206" lon="8.414362811892778"><ele>141.0</ele><time>2026-03-30T16:52:17Z</time></trkpt><trkpt lat="39.3602829842077" lon="8.414576390791597"><ele>143.0</ele><time>2026-03-30T16:52:18Z</time></trkpt><trkpt lat="39.36034741190418" lon="8.414781913278158"><ele>145.0</ele><time>2026-03-30T16:52:19Z</time></trkpt><trkpt lat="39.36043642938907" lon="8.414980389059945"><ele>147.0</ele><time>2026-03-30T16:52:20Z</time></trkpt><trkpt lat="39.36055051469525" lon="8.415160157698239"><ele>147.66666666666666</ele><time>2026-03-30T16:52:21Z</time></trkpt><trkpt lat="39.360674231974414" lon="8.415329053326403"><ele>148.33333333333331</ele><time>2026-03-30T16:52:22Z</time></trkpt><trkpt lat="39.36080363016775" lon="8.415496360928124"><ele>149.0</ele><time>2026-03-30T16:52:23Z</time></trkpt><trkpt lat="39.36092874461386" lon="8.415673796286823"><ele>149.0</ele><time>2026-03-30T16:52:24Z</time></trkpt><trkpt lat="39.36104203185982" lon="8.415857317654698"><ele>149.0</ele><time>2026-03-30T16:52:25Z</time></trkpt><trkpt lat="39.36115482691194" lon="8.416050842421878"><ele>149.0</ele><time>2026-03-30T16:52:26Z</time></trkpt><trkpt lat="39.36126480485793" lon="8.4162404725594"><ele>151.66666666666666</ele><time>2026-03-30T16:52:27Z</time></trkpt><trkpt lat="39.361373346419114" lon="8.41643043037026"><ele>154.33333333333334</ele><time>2026-03-30T16:52:28Z</time></trkpt><trkpt lat="39.36148530480105" lon="8.416617066474755"><ele>157.0</ele><time>2026-03-30T16:52:29Z</time></trkpt><trkpt lat="39.361594832254745" lon="8.416799029739838"><ele>157.0</ele><time>2026-03-30T16:52:30Z</time></trkpt><trkpt lat="39.36173042525029" lon="8.416952839057823"><ele>157.0</ele><time>2026-03-30T16:52:31Z</time></trkpt><trkpt lat="39.361874949618006" lon="8.417092411743269"><ele>157.0</ele><time>2026-03-30T16:52:32Z</time></trkpt><trkpt lat="39.36202177019046" lon="8.417220150378917"><ele>158.66666666666669</ele><time>2026-03-30T16:52:33Z</time></trkpt><trkpt lat="39.36217238730872" lon="8.417354103131785"><ele>160.33333333333334</ele><time>2026-03-30T16:52:34Z</time></trkpt><trkpt lat="39.36231232730921" lon="8.417491539460892"><ele>162.0</ele><time>2026-03-30T16:52:35Z</time></trkpt><trkpt lat="39.36245980058461" lon="8.417627556673397"><ele>163.33333333333334</ele><time>2026-03-30T16:52:36Z</time></trkpt><trkpt lat="39.362599737936094" lon="8.417758916396947"><ele>164.66666666666669</ele><time>2026-03-30T16:52:37Z</time></trkpt><trkpt lat="39.36275975472652" lon="8.417852853693944"><ele>166.0</ele><time>2026-03-30T16:52:38Z</time></trkpt><trkpt lat="39.36291970792606" lon="8.417898679085079"><ele>166.33333333333334</ele><time>2026-03-30T16:52:39Z</time></trkpt><trkpt lat="39.36306267407221" lon="8.417972850244068"><ele>166.66666666666666</ele><time>2026-03-30T16:52:40Z</time></trkpt><trkpt lat="39.36316918042795" lon="8.418107668666261"><ele>167.0</ele><time>2026-03-30T16:52:41Z</time></trkpt><trkpt lat="39.36324465651134" lon="8.418289911172097"><ele>167.0</ele><time>2026-03-30T16:52:42Z</time></trkpt><trkpt lat="39.36333327232433" lon="8.418457815298865"><ele>167.0</ele><time>2026-03-30T16:52:43Z</time></trkpt><trkpt lat="39.36344622050695" lon="8.41861129766364"><ele>167.0</ele><time>2026-03-30T16:52:44Z</time></trkpt><trkpt lat="39.363577646236735" lon="8.418739900199991"><ele>168.33333333333331</ele><time>2026-03-30T16:52:45Z</time></trkpt><trkpt lat="39.363716467786254" lon="8.418847710373374"><ele>169.66666666666666</ele><time>2026-03-30T16:52:46Z</time></trkpt><trkpt lat="39.363851740266796" lon="8.418956753903064"><ele>171.0</ele><time>2026-03-30T16:52:47Z</time></trkpt><trkpt lat="39.36396928898249" lon="8.419082574155826"><ele>173.33333333333334</ele><time>2026-03-30T16:52:48Z</time></trkpt><trkpt lat="39.36405470527098" lon="8.419244178859964"><ele>175.66666666666669</ele><time>2026-03-30T16:52:49Z</time></trkpt><trkpt lat="39.36409460361867" lon="8.419427145245287"><ele>178.0</ele><time>2026-03-30T16:52:50Z</time></trkpt><trkpt lat="39.36407531745632" lon="8.41962207068259"><ele>178.5</ele><time>2026-03-30T16:52:51Z</time></trkpt><trkpt lat="39.364009855861156" lon="8.419803887417782"><ele>179.0</ele><time>2026-03-30T16:52:52Z</time></trkpt><trkpt lat="39.363929474572885" lon="8.419966602157634"><ele>179.5</ele><time>2026-03-30T16:52:53Z</time></trkpt><trkpt lat="39.36391225931835" lon="8.420104539212184"><ele>180.0</ele><time>2026-03-30T16:52:54Z</time></trkpt><trkpt lat="39.363890846682985" lon="8.42028662686413"><ele>180.0</ele><time>2026-03-30T16:52:55Z</time></trkpt><trkpt lat="39.36390572085043" lon="8.420468706449094"><ele>180.0</ele><time>2026-03-30T16:52:56Z</time></trkpt><trkpt lat="39.36395559025167" lon="8.420643234339977"><ele>180.0</ele><time>2026-03-30T16:52:57Z</time></trkpt><trkpt lat="39.36403489158864" lon="8.420808580360465"><ele>180.0</ele><time>2026-03-30T16:52:58Z</time></trkpt><trkpt lat="39.36412136003349" lon="8.420964404877912"><ele>183.66666666666666</ele><time>2026-03-30T16:52:59Z</time></trkpt><trkpt lat="39.364215963231025" lon="8.421118749335333"><ele>187.33333333333331</ele><time>2026-03-30T16:53:00Z</time></trkpt><trkpt lat="39.36430626719789" lon="8.42128061137865"><ele>191.0</ele><time>2026-03-30T16:53:01Z</time></trkpt><trkpt lat="39.36437937184174" lon="8.421455781141155"><ele>192.0</ele><time>2026-03-30T16:53:02Z</time></trkpt><trkpt lat="39.36443593198935" lon="8.421643708889553"><ele>193.0</ele><time>2026-03-30T16:53:03Z</time></trkpt><trkpt lat="39.364478311433615" lon="8.421838631431259"><ele>194.0</ele><time>2026-03-30T16:53:04Z</time></trkpt><trkpt lat="39.3645042722793" lon="8.422040646450137"><ele>197.0</ele><time>2026-03-30T16:53:05Z</time></trkpt><trkpt lat="39.36452540650132" lon="8.42224366618221"><ele>200.0</ele><time>2026-03-30T16:53:06Z</time></trkpt><trkpt lat="39.36452702189219" lon="8.42244963605054"><ele>203.0</ele><time>2026-03-30T16:53:07Z</time></trkpt><trkpt lat="39.364513560007396" lon="8.422655991724872"><ele>203.0</ele><time>2026-03-30T16:53:08Z</time></trkpt><trkpt lat="39.36451958379425" lon="8.422860708467796"><ele>203.0</ele><time>2026-03-30T16:53:09Z</time></trkpt><trkpt lat="39.364553008554935" lon="8.423061109907133"><ele>203.0</ele><time>2026-03-30T16:53:10Z</time></trkpt><trkpt lat="39.36460667416174" lon="8.423247619744279"><ele>205.75</ele><time>2026-03-30T16:53:11Z</time></trkpt><trkpt lat="39.36464864238425" lon="8.423436572608539"><ele>208.5</ele><time>2026-03-30T16:53:12Z</time></trkpt><trkpt lat="39.364645041774075" lon="8.423627361288453"><ele>211.25</ele><time>2026-03-30T16:53:13Z</time></trkpt><trkpt lat="39.36461329602544" lon="8.423794141837627"><ele>214.0</ele><time>2026-03-30T16:53:14Z</time></trkpt><trkpt lat="39.36461042549056" lon="8.423944739171105"><ele>216.5</ele><time>2026-03-30T16:53:15Z</time></trkpt><trkpt lat="39.3646570466975" lon="8.424073423422632"><ele>219.0</ele><time>2026-03-30T16:53:16Z</time></trkpt><trkpt lat="39.36473567195591" lon="8.424177688370508"><ele>221.5</ele><time>2026-03-30T16:53:17Z</time></trkpt><trkpt lat="39.364824257589156" lon="8.424282740499685"><ele>224.0</ele><time>2026-03-30T16:53:18Z</time></trkpt><trkpt lat="39.364891360150395" lon="8.42440270577916"><ele>224.0</ele><time>2026-03-30T16:53:19Z</time></trkpt><trkpt lat="39.36494504292602" lon="8.42453935374873"><ele>224.0</ele><time>2026-03-30T16:53:20Z</time></trkpt><trkpt lat="39.36497107752389" lon="8.424692918595545"><ele>224.0</ele><time>2026-03-30T16:53:21Z</time></trkpt><trkpt lat="39.36497499759232" lon="8.424866607095213"><ele>224.0</ele><time>2026-03-30T16:53:22Z</time></trkpt><trkpt lat="39.364971329533326" lon="8.425045412322692"><ele>224.5</ele><time>2026-03-30T16:53:23Z</time></trkpt><trkpt lat="39.36496307662861" lon="8.425215243194595"><ele>225.0</ele><time>2026-03-30T16:53:24Z</time></trkpt><trkpt lat="39.364961127622585" lon="8.425392680869727"><ele>225.5</ele><time>2026-03-30T16:53:25Z</time></trkpt><trkpt lat="39.36495652757922" lon="8.425568192919819"><ele>226.0</ele><time>2026-03-30T16:53:26Z</time></trkpt><trkpt lat="39.364937931191356" lon="8.42575279628602"><ele>226.0</ele><time>2026-03-30T16:53:27Z</time></trkpt><trkpt lat="39.36488870652573" lon="8.425931132186168"><ele>226.0</ele><time>2026-03-30T16:53:28Z</time></trkpt><trkpt lat="39.36480362226344" lon="8.426098512260083"><ele>226.0</ele><time>2026-03-30T16:53:29Z</time></trkpt><trkpt lat="39.364703965632465" lon="8.426243021174772"><ele>227.0</ele><time>2026-03-30T16:53:30Z</time></trkpt><trkpt lat="39.364582838323294" lon="8.426381261790747"><ele>228.0</ele><time>2026-03-30T16:53:31Z</time></trkpt><trkpt lat="39.364476135485766" lon="8.426530774083272"><ele>229.0</ele><time>2026-03-30T16:53:32Z</time></trkpt><trkpt lat="39.36438960642798" lon="8.42669261916813"><ele>229.0</ele><time>2026-03-30T16:53:33Z</time></trkpt><trkpt lat="39.36431209455966" lon="8.42685816393368"><ele>229.0</ele><time>2026-03-30T16:53:34Z</time></trkpt><trkpt lat="39.364267834313516" lon="8.427014683615198"><ele>229.0</ele><time>2026-03-30T16:53:35Z</time></trkpt><trkpt lat="39.36426174000669" lon="8.427180246828218"><ele>229.0</ele><time>2026-03-30T16:53:36Z</time></trkpt><trkpt lat="39.364302647192055" lon="8.427340198075935"><ele>228.5</ele><time>2026-03-30T16:53:37Z</time></trkpt><trkpt lat="39.364362661296795" lon="8.427485392292356"><ele>228.0</ele><time>2026-03-30T16:53:38Z</time></trkpt><trkpt lat="39.364403872294965" lon="8.427637668625117"><ele>227.5</ele><time>2026-03-30T16:53:39Z</time></trkpt><trkpt lat="39.36437743940148" lon="8.427796942835778"><ele>227.0</ele><time>2026-03-30T16:53:40Z</time></trkpt><trkpt lat="39.364303287138185" lon="8.427935361102193"><ele>227.75</ele><time>2026-03-30T16:53:41Z</time></trkpt><trkpt lat="39.3641825008871" lon="8.42804431042343"><ele>228.5</ele><time>2026-03-30T16:53:42Z</time></trkpt><trkpt lat="39.36410564231003" lon="8.42818966360318"><ele>229.25</ele><time>2026-03-30T16:53:43Z</time></trkpt><trkpt lat="39.3640640867963" lon="8.42834761411173"><ele>230.0</ele><time>2026-03-30T16:53:44Z</time></trkpt><trkpt lat="39.36407578099085" lon="8.428520261127264"><ele>230.0</ele><time>2026-03-30T16:53:45Z</time></trkpt><trkpt lat="39.36413850481401" lon="8.42868004120501"><ele>230.0</ele><time>2026-03-30T16:53:46Z</time></trkpt><trkpt lat="39.36421769495171" lon="8.428828888409539"><ele>230.0</ele><time>2026-03-30T16:53:47Z</time></trkpt><trkpt lat="39.36427307887115" lon="8.42898329259934"><ele>230.0</ele><time>2026-03-30T16:53:48Z</time></trkpt><trkpt lat="39.36428745053298" lon="8.429155756279183"><ele>231.5</ele><time>2026-03-30T16:53:49Z</time></trkpt><trkpt lat="39.364252521973604" lon="8.429328230694255"><ele>233.0</ele><time>2026-03-30T16:53:50Z</time></trkpt><trkpt lat="39.36417580436652" lon="8.429480581101362"><ele>234.5</ele><time>2026-03-30T16:53:51Z</time></trkpt><trkpt lat="39.36407003231063" lon="8.42960536806358"><ele>236.0</ele><time>2026-03-30T16:53:52Z</time></trkpt><trkpt lat="39.36396502404476" lon="8.429727390762263"><ele>237.75</ele><time>2026-03-30T16:53:53Z</time></trkpt><trkpt lat="39.36387480365284" lon="8.429859846575772"><ele>239.5</ele><time>2026-03-30T16:53:54Z</time></trkpt><trkpt lat="39.36380892078324" lon="8.430011605581534"><ele>241.25</ele><time>2026-03-30T16:53:55Z</time></trkpt><trkpt lat="39.363781084555555" lon="8.430184301060844"><ele>243.0</ele><time>2026-03-30T16:53:56Z</time></trkpt><trkpt lat="39.36379800803295" lon="8.430369238208149"><ele>242.5</ele><time>2026-03-30T16:53:57Z</time></trkpt><trkpt lat="39.363833742101505" lon="8.430552318057417"><ele>242.0</ele><time>2026-03-30T16:53:58Z</time></trkpt><trkpt lat="39.36386240005677" lon="8.430736198926986"><ele>241.5</ele><time>2026-03-30T16:53:59Z</time></trkpt><trkpt lat="39.36388061587514" lon="8.430919203999125"><ele>241.0</ele><time>2026-03-30T16:54:00Z</time></trkpt><trkpt lat="39.36388057115789" lon="8.43110575386361"><ele>241.0</ele><time>2026-03-30T16:54:01Z</time></trkpt><trkpt lat="39.36386010639886" lon="8.431297768518085"><ele>241.0</ele><time>2026-03-30T16:54:02Z</time></trkpt><trkpt lat="39.36382066663143" lon="8.43148198957688"><ele>241.0</ele><time>2026-03-30T16:54:03Z</time></trkpt><trkpt lat="39.363770535983576" lon="8.431654031004022"><ele>241.0</ele><time>2026-03-30T16:54:04Z</time></trkpt><trkpt lat="39.363707753313854" lon="8.431825588685307"><ele>240.5</ele><time>2026-03-30T16:54:05Z</time></trkpt><trkpt lat="39.363644820299726" lon="8.431989014142514"><ele>240.0</ele><time>2026-03-30T16:54:06Z</time></trkpt><trkpt lat="39.36358055948167" lon="8.432148599347444"><ele>239.5</ele><time>2026-03-30T16:54:07Z</time></trkpt><trkpt lat="39.36353976658949" lon="8.43231756303619"><ele>239.0</ele><time>2026-03-30T16:54:08Z</time></trkpt><trkpt lat="39.36352517079796" lon="8.432496811453618"><ele>240.5</ele><time>2026-03-30T16:54:09Z</time></trkpt><trkpt lat="39.36353797988736" lon="8.432679164651743"><ele>242.0</ele><time>2026-03-30T16:54:10Z</time></trkpt><trkpt lat="39.36354872567906" lon="8.432858867151557"><ele>243.5</ele><time>2026-03-30T16:54:11Z</time></trkpt><trkpt lat="39.3635540477408" lon="8.433036419456762"><ele>245.0</ele><time>2026-03-30T16:54:12Z</time></trkpt><trkpt lat="39.363555175406525" lon="8.433213941080984"><ele>246.5</ele><time>2026-03-30T16:54:13Z</time></trkpt><trkpt lat="39.36354895023033" lon="8.433392425646302"><ele>248.0</ele><time>2026-03-30T16:54:14Z</time></trkpt><trkpt lat="39.36353836189255" lon="8.43357259169297"><ele>249.5</ele><time>2026-03-30T16:54:15Z</time></trkpt><trkpt lat="39.36353111233383" lon="8.433750099790286"><ele>251.0</ele><time>2026-03-30T16:54:16Z</time></trkpt><trkpt lat="39.36352570974105" lon="8.43392610250986"><ele>251.75</ele><time>2026-03-30T16:54:17Z</time></trkpt><trkpt lat="39.36352363998218" lon="8.434104554097974"><ele>252.5</ele><time>2026-03-30T16:54:18Z</time></trkpt><trkpt lat="39.36351909262202" lon="8.434280731884412"><ele>253.25</ele><time>2026-03-30T16:54:19Z</time></trkpt><trkpt lat="39.3635025188954" lon="8.434454393760381"><ele>254.0</ele><time>2026-03-30T16:54:20Z</time></trkpt><trkpt lat="39.363473303940125" lon="8.434623768590377"><ele>255.25</ele><time>2026-03-30T16:54:21Z</time></trkpt><trkpt lat="39.36344732067413" lon="8.434787925213161"><ele>256.5</ele><time>2026-03-30T16:54:22Z</time></trkpt><trkpt lat="39.3634264229914" lon="8.434953790419309"><ele>257.75</ele><time>2026-03-30T16:54:23Z</time></trkpt><trkpt lat="39.363415276174415" lon="8.435119239905909"><ele>259.0</ele><time>2026-03-30T16:54:24Z</time></trkpt><trkpt lat="39.363415704199284" lon="8.435285096082445"><ele>259.0</ele><time>2026-03-30T16:54:25Z</time></trkpt><trkpt lat="39.36342985250345" lon="8.435453499241714"><ele>259.0</ele><time>2026-03-30T16:54:26Z</time></trkpt><trkpt lat="39.36345842798845" lon="8.435622598235234"><ele>259.0</ele><time>2026-03-30T16:54:27Z</time></trkpt><trkpt lat="39.36349063365443" lon="8.435793658823028"><ele>259.0</ele><time>2026-03-30T16:54:28Z</time></trkpt><trkpt lat="39.36352047836958" lon="8.435964409769971"><ele>260.5</ele><time>2026-03-30T16:54:29Z</time></trkpt><trkpt lat="39.363544099540626" lon="8.436136487137615"><ele>262.0</ele><time>2026-03-30T16:54:30Z</time></trkpt><trkpt lat="39.36356122446254" lon="8.4363099662045"><ele>263.5</ele><time>2026-03-30T16:54:31Z</time></trkpt><trkpt lat="39.36357227827818" lon="8.436486757750709"><ele>265.0</ele><time>2026-03-30T16:54:32Z</time></trkpt><trkpt lat="39.36356864348182" lon="8.436666533086454"><ele>266.5</ele><time>2026-03-30T16:54:33Z</time></trkpt><trkpt lat="39.3635457542711" lon="8.43684198642957"><ele>268.0</ele><time>2026-03-30T16:54:34Z</time></trkpt><trkpt lat="39.36351008932106" lon="8.437013368604676"><ele>269.5</ele><time>2026-03-30T16:54:35Z</time></trkpt><trkpt lat="39.36348248284888" lon="8.437187461293295"><ele>271.0</ele><time>2026-03-30T16:54:36Z</time></trkpt><trkpt lat="39.363483347160404" lon="8.437361683579327"><ele>271.5</ele><time>2026-03-30T16:54:37Z</time></trkpt><trkpt lat="39.36352120193383" lon="8.437536082314063"><ele>272.0</ele><time>2026-03-30T16:54:38Z</time></trkpt><trkpt lat="39.363578315086045" lon="8.437698237284142"><ele>272.5</ele><time>2026-03-30T16:54:39Z</time></trkpt><trkpt lat="39.36363124288419" lon="8.437858873889198"><ele>273.0</ele><time>2026-03-30T16:54:40Z</time></trkpt><trkpt lat="39.36366748219881" lon="8.438017063142329"><ele>271.75</ele><time>2026-03-30T16:54:41Z</time></trkpt><trkpt lat="39.36367942038114" lon="8.438180008828784"><ele>270.5</ele><time>2026-03-30T16:54:42Z</time></trkpt><trkpt lat="39.36365351696131" lon="8.4383443181993"><ele>269.25</ele><time>2026-03-30T16:54:43Z</time></trkpt><trkpt lat="39.363589664013396" lon="8.438492218578046"><ele>268.0</ele><time>2026-03-30T16:54:44Z</time></trkpt><trkpt lat="39.36349734826585" lon="8.438614912837792"><ele>268.0</ele><time>2026-03-30T16:54:45Z</time></trkpt><trkpt lat="39.363382778374564" lon="8.438706322586198"><ele>268.0</ele><time>2026-03-30T16:54:46Z</time></trkpt><trkpt lat="39.363253202539774" lon="8.438761045821911"><ele>268.0</ele><time>2026-03-30T16:54:47Z</time></trkpt><trkpt lat="39.36311583787059" lon="8.438772426754406"><ele>268.0</ele><time>2026-03-30T16:54:48Z</time></trkpt><trkpt lat="39.362980389765944" lon="8.438738350553109"><ele>270.5</ele><time>2026-03-30T16:54:49Z</time></trkpt><trkpt lat="39.36284832382816" lon="8.43870028576392"><ele>273.0</ele><time>2026-03-30T16:54:50Z</time></trkpt><trkpt lat="39.36270734141783" lon="8.438707883180848"><ele>275.5</ele><time>2026-03-30T16:54:51Z</time></trkpt><trkpt lat="39.36257816780095" lon="8.438766904884769"><ele>278.0</ele><time>2026-03-30T16:54:52Z</time></trkpt><trkpt lat="39.362464302167396" lon="8.438882039478042"><ele>278.0</ele><time>2026-03-30T16:54:53Z</time></trkpt><trkpt lat="39.36236654692029" lon="8.439029556969546"><ele>278.0</ele><time>2026-03-30T16:54:54Z</time></trkpt><trkpt lat="39.362279237310894" lon="8.439192448876328"><ele>278.0</ele><time>2026-03-30T16:54:55Z</time></trkpt><trkpt lat="39.36219407439715" lon="8.439352994814069"><ele>280.33333333333337</ele><time>2026-03-30T16:54:56Z</time></trkpt><trkpt lat="39.36209201815025" lon="8.439498746961386"><ele>282.6666666666667</ele><time>2026-03-30T16:54:57Z</time></trkpt><trkpt lat="39.36198130513587" lon="8.439633802265034"><ele>285.0</ele><time>2026-03-30T16:54:58Z</time></trkpt><trkpt lat="39.36186429970835" lon="8.439756157124105"><ele>285.0</ele><time>2026-03-30T16:54:59Z</time></trkpt><trkpt lat="39.361735202660554" lon="8.439868103443846"><ele>285.0</ele><time>2026-03-30T16:55:00Z</time></trkpt><trkpt lat="39.36160453025345" lon="8.439971410837547"><ele>285.0</ele><time>2026-03-30T16:55:01Z</time></trkpt><trkpt lat="39.361469169806085" lon="8.440069612281542"><ele>290.6666666666667</ele><time>2026-03-30T16:55:02Z</time></trkpt><trkpt lat="39.361329545969305" lon="8.440152478626088"><ele>296.33333333333337</ele><time>2026-03-30T16:55:03Z</time></trkpt><trkpt lat="39.36118831486488" lon="8.440226852963614"><ele>302.0</ele><time>2026-03-30T16:55:04Z</time></trkpt><trkpt lat="39.361041325743415" lon="8.440289727970253"><ele>302.0</ele><time>2026-03-30T16:55:05Z</time></trkpt><trkpt lat="39.3608913919636" lon="8.440351868783402"><ele>302.0</ele><time>2026-03-30T16:55:06Z</time></trkpt><trkpt lat="39.36074106246066" lon="8.440412859968525"><ele>302.0</ele><time>2026-03-30T16:55:07Z</time></trkpt><trkpt lat="39.36058797429868" lon="8.440469613220506"><ele>298.0</ele><time>2026-03-30T16:55:08Z</time></trkpt><trkpt lat="39.36042992214285" lon="8.440518570121345"><ele>294.0</ele><time>2026-03-30T16:55:09Z</time></trkpt><trkpt lat="39.36026704439017" lon="8.44056035397475"><ele>290.0</ele><time>2026-03-30T16:55:10Z</time></trkpt><trkpt lat="39.36010125428016" lon="8.44059248207729"><ele>290.0</ele><time>2026-03-30T16:55:11Z</time></trkpt><trkpt lat="39.35993001567845" lon="8.440613501520623"><ele>290.0</ele><time>2026-03-30T16:55:12Z</time></trkpt><trkpt lat="39.35975935820325" lon="8.440617111481655"><ele>290.0</ele><time>2026-03-30T16:55:13Z</time></trkpt><trkpt lat="39.3595880164834" lon="8.440612473456202"><ele>291.33333333333337</ele><time>2026-03-30T16:55:14Z</time></trkpt><trkpt lat="39.35941821627518" lon="8.44060785816509"><ele>292.6666666666667</ele><time>2026-03-30T16:55:15Z</time></trkpt><trkpt lat="39.35924667072317" lon="8.44060890093682"><ele>294.0</ele><time>2026-03-30T16:55:16Z</time></trkpt><trkpt lat="39.35908129465112" lon="8.440611712963946"><ele>294.0</ele><time>2026-03-30T16:55:17Z</time></trkpt><trkpt lat="39.35891968622785" lon="8.440614591409789"><ele>294.0</ele><time>2026-03-30T16:55:18Z</time></trkpt><trkpt lat="39.35877494658115" lon="8.440615550150786"><ele>294.0</ele><time>2026-03-30T16:55:19Z</time></trkpt><trkpt lat="39.358643939526026" lon="8.440590086318181"><ele>294.0</ele><time>2026-03-30T16:55:20Z</time></trkpt><trkpt lat="39.35852719480759" lon="8.440513288945448"><ele>300.75</ele><time>2026-03-30T16:55:21Z</time></trkpt><trkpt lat="39.358424169132" lon="8.44040651272312"><ele>307.5</ele><time>2026-03-30T16:55:22Z</time></trkpt><trkpt lat="39.358313112381914" lon="8.440325482300278"><ele>314.25</ele><time>2026-03-30T16:55:23Z</time></trkpt><trkpt lat="39.35818468214585" lon="8.440280786893583"><ele>321.0</ele><time>2026-03-30T16:55:24Z</time></trkpt><trkpt lat="39.35805156211868" lon="8.440263697361805"><ele>319.25</ele><time>2026-03-30T16:55:25Z</time></trkpt><trkpt lat="39.35791225206775" lon="8.440245313983032"><ele>317.5</ele><time>2026-03-30T16:55:26Z</time></trkpt><trkpt lat="39.35777249859317" lon="8.440218008265658"><ele>315.75</ele><time>2026-03-30T16:55:27Z</time></trkpt><trkpt lat="39.3576268192364" lon="8.440189745792608"><ele>314.0</ele><time>2026-03-30T16:55:28Z</time></trkpt><trkpt lat="39.35747673439064" lon="8.440162645873476"><ele>314.0</ele><time>2026-03-30T16:55:29Z</time></trkpt><trkpt lat="39.357327051689154" lon="8.440159323254772"><ele>314.0</ele><time>2026-03-30T16:55:30Z</time></trkpt><trkpt lat="39.35717261561423" lon="8.440188276777912"><ele>314.0</ele><time>2026-03-30T16:55:31Z</time></trkpt><trkpt lat="39.357016414743235" lon="8.44023064359444"><ele>312.6666666666667</ele><time>2026-03-30T16:55:32Z</time></trkpt><trkpt lat="39.356856882264864" lon="8.44028361345536"><ele>311.3333333333333</ele><time>2026-03-30T16:55:33Z</time></trkpt><trkpt lat="39.35670027988606" lon="8.440347044034533"><ele>310.0</ele><time>2026-03-30T16:55:34Z</time></trkpt><trkpt lat="39.35654462668265" lon="8.44042374179364"><ele>306.3333333333333</ele><time>2026-03-30T16:55:35Z</time></trkpt><trkpt lat="39.35639540791018" lon="8.440514205072075"><ele>302.6666666666667</ele><time>2026-03-30T16:55:36Z</time></trkpt><trkpt lat="39.35624741599348" lon="8.440618489767251"><ele>299.0</ele><time>2026-03-30T16:55:37Z</time></trkpt><trkpt lat="39.356101002523516" lon="8.440724234339987"><ele>299.0</ele><time>2026-03-30T16:55:38Z</time></trkpt><trkpt lat="39.35594823620891" lon="8.44081416835557"><ele>299.0</ele><time>2026-03-30T16:55:39Z</time></trkpt><trkpt lat="39.355783739460925" lon="8.440869554450904"><ele>299.0</ele><time>2026-03-30T16:55:40Z</time></trkpt><trkpt lat="39.35561701591324" lon="8.440870807295106"><ele>301.0</ele><time>2026-03-30T16:55:41Z</time></trkpt><trkpt lat="39.35545446470993" lon="8.440827775365195"><ele>303.0</ele><time>2026-03-30T16:55:42Z</time></trkpt><trkpt lat="39.35529237488008" lon="8.440756778675468"><ele>305.0</ele><time>2026-03-30T16:55:43Z</time></trkpt><trkpt lat="39.35513818526936" lon="8.440681316543037"><ele>305.0</ele><time>2026-03-30T16:55:44Z</time></trkpt><trkpt lat="39.354987726710945" lon="8.44060262022421"><ele>305.0</ele><time>2026-03-30T16:55:45Z</time></trkpt><trkpt lat="39.35483891480717" lon="8.440514291060541"><ele>305.0</ele><time>2026-03-30T16:55:46Z</time></trkpt><trkpt lat="39.35469470453741" lon="8.440417627493858"><ele>305.6666666666667</ele><time>2026-03-30T16:55:47Z</time></trkpt><trkpt lat="39.3545546361919" lon="8.44031089720077"><ele>306.3333333333333</ele><time>2026-03-30T16:55:48Z</time></trkpt><trkpt lat="39.35441631024874" lon="8.44020423883066"><ele>307.0</ele><time>2026-03-30T16:55:49Z</time></trkpt><trkpt lat="39.354274719226275" lon="8.4400978116066"><ele>307.0</ele><time>2026-03-30T16:55:50Z</time></trkpt><trkpt lat="39.35413107866577" lon="8.439993602267528"><ele>307.0</ele><time>2026-03-30T16:55:51Z</time></trkpt><trkpt lat="39.35398550370703" lon="8.439886007747681"><ele>307.0</ele><time>2026-03-30T16:55:52Z</time></trkpt><trkpt lat="39.35384100931008" lon="8.43978211154775"><ele>309.0</ele><time>2026-03-30T16:55:53Z</time></trkpt><trkpt lat="39.35369410124829" lon="8.439673695465617"><ele>311.0</ele><time>2026-03-30T16:55:54Z</time></trkpt><trkpt lat="39.35354845659119" lon="8.439559958160599"><ele>313.0</ele><time>2026-03-30T16:55:55Z</time></trkpt><trkpt lat="39.35340613070101" lon="8.439446226971784"><ele>314.66666666666663</ele><time>2026-03-30T16:55:56Z</time></trkpt><trkpt lat="39.35326101492418" lon="8.439332604735698"><ele>316.3333333333333</ele><time>2026-03-30T16:55:57Z</time></trkpt><trkpt lat="39.35311461267263" lon="8.43922262442685"><ele>318.0</ele><time>2026-03-30T16:55:58Z</time></trkpt><trkpt lat="39.352970379281416" lon="8.439109598263705"><ele>319.3333333333333</ele><time>2026-03-30T16:55:59Z</time></trkpt><trkpt lat="39.352825911070546" lon="8.439001920648643"><ele>320.66666666666663</ele><time>2026-03-30T16:56:00Z</time></trkpt><trkpt lat="39.352683564966966" lon="8.438900102344366"><ele>322.0</ele><time>2026-03-30T16:56:01Z</time></trkpt><trkpt lat="39.35253745709893" lon="8.43880083813579"><ele>326.0</ele><time>2026-03-30T16:56:02Z</time></trkpt><trkpt lat="39.352389571775284" lon="8.438713448817934"><ele>330.0</ele><time>2026-03-30T16:56:03Z</time></trkpt><trkpt lat="39.35223861547135" lon="8.438646126126747"><ele>334.0</ele><time>2026-03-30T16:56:04.001Z</time></trkpt><trkpt lat="39.35208257863544" lon="8.438595339625518"><ele>335.0</ele><time>2026-03-30T16:56:05.001Z</time></trkpt><trkpt lat="39.351921441240385" lon="8.438553144405775"><ele>336.0</ele><time>2026-03-30T16:56:06.001Z</time></trkpt><trkpt lat="39.351750362282864" lon="8.438506662549303"><ele>337.0</ele><time>2026-03-30T16:56:07Z</time></trkpt><trkpt lat="39.35158243992022" lon="8.438440877937094"><ele>337.0</ele><time>2026-03-30T16:56:08Z</time></trkpt><trkpt lat="39.35141219984694" lon="8.43835524213095"><ele>337.0</ele><time>2026-03-30T16:56:09Z</time></trkpt><trkpt lat="39.35123970212323" lon="8.438256457168269"><ele>337.0</ele><time>2026-03-30T16:56:10Z</time></trkpt><trkpt lat="39.35106558275561" lon="8.438158938612968"><ele>335.66666666666663</ele><time>2026-03-30T16:56:11Z</time></trkpt><trkpt lat="39.35088470198974" lon="8.438064753413524"><ele>334.3333333333333</ele><time>2026-03-30T16:56:12Z</time></trkpt><trkpt lat="39.35070267016972" lon="8.437973040016946"><ele>333.0</ele><time>2026-03-30T16:56:13Z</time></trkpt><trkpt lat="39.35052853917427" lon="8.437881561731023"><ele>340.3333333333333</ele><time>2026-03-30T16:56:14Z</time></trkpt><trkpt lat="39.35035650604857" lon="8.437787440780669"><ele>347.66666666666663</ele><time>2026-03-30T16:56:15Z</time></trkpt><trkpt lat="39.35018529630748" lon="8.437690611239512"><ele>355.0</ele><time>2026-03-30T16:56:16Z</time></trkpt><trkpt lat="39.350013448326145" lon="8.437593922202517"><ele>355.0</ele><time>2026-03-30T16:56:17Z</time></trkpt><trkpt lat="39.34983181908215" lon="8.43751181117709"><ele>355.0</ele><time>2026-03-30T16:56:18Z</time></trkpt><trkpt lat="39.349641019887954" lon="8.437475334684475"><ele>355.0</ele><time>2026-03-30T16:56:19Z</time></trkpt><trkpt lat="39.34945453440136" lon="8.437498959264568"><ele>355.66666666666663</ele><time>2026-03-30T16:56:20Z</time></trkpt><trkpt lat="39.34927286604232" lon="8.437560226029518"><ele>356.3333333333333</ele><time>2026-03-30T16:56:21Z</time></trkpt><trkpt lat="39.3490998075004" lon="8.437638209262145"><ele>357.0</ele><time>2026-03-30T16:56:22Z</time></trkpt><trkpt lat="39.348925708786595" lon="8.43772108343678"><ele>365.3333333333333</ele><time>2026-03-30T16:56:23Z</time></trkpt><trkpt lat="39.348750022923056" lon="8.437793158998835"><ele>373.66666666666663</ele><time>2026-03-30T16:56:24Z</time></trkpt><trkpt lat="39.348572537611425" lon="8.437858878138563"><ele>382.0</ele><time>2026-03-30T16:56:25Z</time></trkpt><trkpt lat="39.3483976579379" lon="8.437921556364234"><ele>382.0</ele><time>2026-03-30T16:56:26Z</time></trkpt><trkpt lat="39.3482219208556" lon="8.437991187292305"><ele>382.0</ele><time>2026-03-30T16:56:27Z</time></trkpt><trkpt lat="39.34805160439627" lon="8.4380707921485"><ele>382.0</ele><time>2026-03-30T16:56:28Z</time></trkpt><trkpt lat="39.34788197951961" lon="8.4381512822347"><ele>382.0</ele><time>2026-03-30T16:56:29Z</time></trkpt><trkpt lat="39.34771185464502" lon="8.438224776068601"><ele>382.0</ele><time>2026-03-30T16:56:30Z</time></trkpt><trkpt lat="39.34753975930666" lon="8.438288257415342"><ele>382.0</ele><time>2026-03-30T16:56:31Z</time></trkpt><trkpt lat="39.347366635567255" lon="8.438347803425648"><ele>389.3333333333333</ele><time>2026-03-30T16:56:32Z</time></trkpt><trkpt lat="39.347196765468986" lon="8.438431245662048"><ele>396.66666666666663</ele><time>2026-03-30T16:56:33Z</time></trkpt><trkpt lat="39.34703927766944" lon="8.438549505173908"><ele>404.0</ele><time>2026-03-30T16:56:34Z</time></trkpt><trkpt lat="39.34688243014306" lon="8.438660280793018"><ele>404.0</ele><time>2026-03-30T16:56:35Z</time></trkpt><trkpt lat="39.34671395276729" lon="8.43874040100089"><ele>404.0</ele><time>2026-03-30T16:56:36Z</time></trkpt><trkpt lat="39.34653330956145" lon="8.43877921355093"><ele>404.0</ele><time>2026-03-30T16:56:37Z</time></trkpt><trkpt lat="39.346353285420356" lon="8.438794910886138"><ele>406.66666666666663</ele><time>2026-03-30T16:56:38Z</time></trkpt><trkpt lat="39.34617201801631" lon="8.438815309635153"><ele>409.33333333333337</ele><time>2026-03-30T16:56:39Z</time></trkpt><trkpt lat="39.34598929835865" lon="8.438843510662062"><ele>412.0</ele><time>2026-03-30T16:56:40Z</time></trkpt><trkpt lat="39.34580776186768" lon="8.438876481927634"><ele>412.0</ele><time>2026-03-30T16:56:41Z</time></trkpt><trkpt lat="39.34562871065394" lon="8.438904229204352"><ele>412.0</ele><time>2026-03-30T16:56:42Z</time></trkpt><trkpt lat="39.345454328304925" lon="8.438929622416053"><ele>412.0</ele><time>2026-03-30T16:56:43Z</time></trkpt><trkpt lat="39.34528166116866" lon="8.438954709320193"><ele>415.33333333333337</ele><time>2026-03-30T16:56:44Z</time></trkpt><trkpt lat="39.34510936605725" lon="8.438981563976286"><ele>418.66666666666663</ele><time>2026-03-30T16:56:45Z</time></trkpt><trkpt lat="39.344936333204316" lon="8.43900210899475"><ele>422.0</ele><time>2026-03-30T16:56:46Z</time></trkpt><trkpt lat="39.344760241118244" lon="8.439006708659292"><ele>425.0</ele><time>2026-03-30T16:56:47Z</time></trkpt><trkpt lat="39.34458746330908" lon="8.439003944790215"><ele>428.0</ele><time>2026-03-30T16:56:48Z</time></trkpt><trkpt lat="39.344415106391715" lon="8.439013589838094"><ele>431.0</ele><time>2026-03-30T16:56:49Z</time></trkpt><trkpt lat="39.34424404169783" lon="8.439047495896457"><ele>431.0</ele><time>2026-03-30T16:56:50Z</time></trkpt><trkpt lat="39.34407193445931" lon="8.439085310715235"><ele>431.0</ele><time>2026-03-30T16:56:51Z</time></trkpt><trkpt lat="39.34390914788921" lon="8.439102253460264"><ele>431.0</ele><time>2026-03-30T16:56:52Z</time></trkpt><trkpt lat="39.343752268629736" lon="8.43910689003935"><ele>428.66666666666663</ele><time>2026-03-30T16:56:53Z</time></trkpt><trkpt lat="39.34359441272229" lon="8.439091274417855"><ele>426.33333333333337</ele><time>2026-03-30T16:56:54Z</time></trkpt><trkpt lat="39.343429338565095" lon="8.439072754301286"><ele>424.0</ele><time>2026-03-30T16:56:55Z</time></trkpt><trkpt lat="39.34326535325439" lon="8.439054896336678"><ele>424.0</ele><time>2026-03-30T16:56:56Z</time></trkpt><trkpt lat="39.343099671869695" lon="8.439065895318832"><ele>424.0</ele><time>2026-03-30T16:56:57Z</time></trkpt><trkpt lat="39.34291088820341" lon="8.439200018040983"><ele>424.0</ele><time>2026-03-30T16:56:58Z</time></trkpt><trkpt lat="39.34274061046425" lon="8.439283416666045"><ele>420.0</ele><time>2026-03-30T16:56:59Z</time></trkpt><trkpt lat="39.34256218708112" lon="8.439375176168536"><ele>416.0</ele><time>2026-03-30T16:57:00Z</time></trkpt><trkpt lat="39.3423741101855" lon="8.439460791111493"><ele>412.0</ele><time>2026-03-30T16:57:01Z</time></trkpt><trkpt lat="39.34218401369964" lon="8.439526023166335"><ele>409.6666666666667</ele><time>2026-03-30T16:57:02Z</time></trkpt><trkpt lat="39.341991884276716" lon="8.439583397962997"><ele>407.33333333333337</ele><time>2026-03-30T16:57:03Z</time></trkpt><trkpt lat="39.341793187056496" lon="8.439619191374382"><ele>405.0</ele><time>2026-03-30T16:57:04Z</time></trkpt><trkpt lat="39.34159322927182" lon="8.439636707501661"><ele>401.0</ele><time>2026-03-30T16:57:05Z</time></trkpt><trkpt lat="39.3413912163631" lon="8.439648591850649"><ele>397.0</ele><time>2026-03-30T16:57:06Z</time></trkpt><trkpt lat="39.34118867142932" lon="8.439664189361329"><ele>393.0</ele><time>2026-03-30T16:57:07Z</time></trkpt><trkpt lat="39.340987505168236" lon="8.439689701130362"><ele>387.0</ele><time>2026-03-30T16:57:08Z</time></trkpt><trkpt lat="39.340784206823876" lon="8.439733954889983"><ele>381.0</ele><time>2026-03-30T16:57:09Z</time></trkpt><trkpt lat="39.34058764065408" lon="8.43978145930618"><ele>375.0</ele><time>2026-03-30T16:57:10Z</time></trkpt><trkpt lat="39.34038404476267" lon="8.439834220000643"><ele>371.6666666666667</ele><time>2026-03-30T16:57:11Z</time></trkpt><trkpt lat="39.34018236935479" lon="8.439886079023983"><ele>368.33333333333337</ele><time>2026-03-30T16:57:12Z</time></trkpt><trkpt lat="39.33997581448455" lon="8.43992528565409"><ele>365.0</ele><time>2026-03-30T16:57:13Z</time></trkpt><trkpt lat="39.339770616994386" lon="8.439950887188527"><ele>362.0</ele><time>2026-03-30T16:57:14Z</time></trkpt><trkpt lat="39.33956045015563" lon="8.439969360126057"><ele>359.0</ele><time>2026-03-30T16:57:15Z</time></trkpt><trkpt lat="39.33935509875804" lon="8.439985570483238"><ele>356.0</ele><time>2026-03-30T16:57:16Z</time></trkpt><trkpt lat="39.339155844317595" lon="8.440006432366548"><ele>356.0</ele><time>2026-03-30T16:57:17Z</time></trkpt><trkpt lat="39.338959922779786" lon="8.440031647617712"><ele>356.0</ele><time>2026-03-30T16:57:18Z</time></trkpt><trkpt lat="39.33877767260716" lon="8.440055024145527"><ele>356.0</ele><time>2026-03-30T16:57:19Z</time></trkpt><trkpt lat="39.33860465417021" lon="8.440072150603145"><ele>352.6666666666667</ele><time>2026-03-30T16:57:20Z</time></trkpt><trkpt lat="39.33844425046361" lon="8.440069756393425"><ele>349.3333333333333</ele><time>2026-03-30T16:57:21Z</time></trkpt><trkpt lat="39.338261345305334" lon="8.440089997513773"><ele>346.0</ele><time>2026-03-30T16:57:22Z</time></trkpt><trkpt lat="39.338079833595586" lon="8.440114038483793"><ele>342.3333333333333</ele><time>2026-03-30T16:57:23Z</time></trkpt><trkpt lat="39.33790960437937" lon="8.440131242262252"><ele>338.6666666666667</ele><time>2026-03-30T16:57:24Z</time></trkpt><trkpt lat="39.3377539169368" lon="8.440140547894167"><ele>335.0</ele><time>2026-03-30T16:57:25Z</time></trkpt><trkpt lat="39.33758950979884" lon="8.440132088913087"><ele>335.0</ele><time>2026-03-30T16:57:26Z</time></trkpt><trkpt lat="39.33741933552406" lon="8.440087753912387"><ele>335.0</ele><time>2026-03-30T16:57:27Z</time></trkpt><trkpt lat="39.33725850123137" lon="8.440023187949661"><ele>335.0</ele><time>2026-03-30T16:57:28Z</time></trkpt><trkpt lat="39.33712532444322" lon="8.43995800463624"><ele>330.75</ele><time>2026-03-30T16:57:29Z</time></trkpt><trkpt lat="39.33701460223866" lon="8.439901070492812"><ele>326.5</ele><time>2026-03-30T16:57:30Z</time></trkpt><trkpt lat="39.33689765087473" lon="8.439858109000351"><ele>322.25</ele><time>2026-03-30T16:57:31Z</time></trkpt><trkpt lat="39.33677861446176" lon="8.439819936786117"><ele>318.0</ele><time>2026-03-30T16:57:32Z</time></trkpt><trkpt lat="39.33667611565553" lon="8.439833160632654"><ele>318.0</ele><time>2026-03-30T16:57:33Z</time></trkpt><trkpt lat="39.33657298408163" lon="8.439897152109953"><ele>318.0</ele><time>2026-03-30T16:57:34Z</time></trkpt><trkpt lat="39.33648759514417" lon="8.440005347466375"><ele>318.0</ele><time>2026-03-30T16:57:35Z</time></trkpt><trkpt lat="39.33642758827767" lon="8.440141546234315"><ele>318.0</ele><time>2026-03-30T16:57:36Z</time></trkpt><trkpt lat="39.33638358415615" lon="8.44027737631464"><ele>313.75</ele><time>2026-03-30T16:57:37Z</time></trkpt><trkpt lat="39.33633539126893" lon="8.440409478996065"><ele>309.5</ele><time>2026-03-30T16:57:38Z</time></trkpt><trkpt lat="39.33626063447896" lon="8.440530341526975"><ele>305.25</ele><time>2026-03-30T16:57:39Z</time></trkpt><trkpt lat="39.33615687652796" lon="8.440637254237107"><ele>301.0</ele><time>2026-03-30T16:57:40Z</time></trkpt><trkpt lat="39.33603090298871" lon="8.440733502480025"><ele>301.0</ele><time>2026-03-30T16:57:41Z</time></trkpt><trkpt lat="39.33590167594091" lon="8.440808976897708"><ele>301.0</ele><time>2026-03-30T16:57:42Z</time></trkpt><trkpt lat="39.335784534841395" lon="8.440869174631887"><ele>301.0</ele><time>2026-03-30T16:57:43Z</time></trkpt><trkpt lat="39.33566805021076" lon="8.44094731026891"><ele>301.0</ele><time>2026-03-30T16:57:44Z</time></trkpt><trkpt lat="39.33555969514084" lon="8.441033740925112"><ele>296.6</ele><time>2026-03-30T16:57:45Z</time></trkpt><trkpt lat="39.33546315977029" lon="8.441110497422912"><ele>292.20000000000005</ele><time>2026-03-30T16:57:46Z</time></trkpt><trkpt lat="39.33538480019878" lon="8.44115898009053"><ele>287.79999999999995</ele><time>2026-03-30T16:57:47Z</time></trkpt><trkpt lat="39.335321532394474" lon="8.441158879988661"><ele>283.4</ele><time>2026-03-30T16:57:48Z</time></trkpt><trkpt lat="39.3352780693595" lon="8.440988929384899"><ele>279.0</ele><time>2026-03-30T16:57:50Z</time></trkpt><trkpt lat="39.33532034945525" lon="8.440899754629307"><ele>279.0</ele><time>2026-03-30T16:57:51Z</time></trkpt><trkpt lat="39.335386143412464" lon="8.440852141697956"><ele>279.0</ele><time>2026-03-30T16:57:52Z</time></trkpt><trkpt lat="39.33546066646541" lon="8.440819420213831"><ele>279.0</ele><time>2026-03-30T16:57:53Z</time></trkpt><trkpt lat="39.335548768984346" lon="8.440801545628725"><ele>279.0</ele><time>2026-03-30T16:57:54Z</time></trkpt><trkpt lat="39.33564012231916" lon="8.440759037264437"><ele>279.0</ele><time>2026-03-30T16:57:55Z</time></trkpt><trkpt lat="39.33572106437994" lon="8.440673687740485"><ele>279.0</ele><time>2026-03-30T16:57:56Z</time></trkpt><trkpt lat="39.33576260113703" lon="8.440546847958839"><ele>278.75</ele><time>2026-03-30T16:57:57Z</time></trkpt><trkpt lat="39.33577060000483" lon="8.440408221845008"><ele>278.5</ele><time>2026-03-30T16:57:58Z</time></trkpt><trkpt lat="39.33572642714108" lon="8.44027289335048"><ele>278.25</ele><time>2026-03-30T16:57:59Z</time></trkpt><trkpt lat="39.33564119179384" lon="8.440168386015479"><ele>278.0</ele><time>2026-03-30T16:58:00Z</time></trkpt><trkpt lat="39.33553403509709" lon="8.44010187297342"><ele>278.0</ele><time>2026-03-30T16:58:01Z</time></trkpt><trkpt lat="39.33541790611527" lon="8.44007363208358"><ele>278.0</ele><time>2026-03-30T16:58:02Z</time></trkpt><trkpt lat="39.33530421884966" lon="8.440046437866128"><ele>278.0</ele><time>2026-03-30T16:58:03Z</time></trkpt><trkpt lat="39.33519677628372" lon="8.439999532578927"><ele>278.0</ele><time>2026-03-30T16:58:04Z</time></trkpt><trkpt lat="39.335091731376195" lon="8.43993821393272"><ele>278.0</ele><time>2026-03-30T16:58:05Z</time></trkpt><trkpt lat="39.33498975264392" lon="8.439899374552262"><ele>278.0</ele><time>2026-03-30T16:58:06Z</time></trkpt><trkpt lat="39.33489391016914" lon="8.43990678108232"><ele>278.0</ele><time>2026-03-30T16:58:07Z</time></trkpt><trkpt lat="39.33482370782196" lon="8.439968037535403"><ele>278.0</ele><time>2026-03-30T16:58:08Z</time></trkpt><trkpt lat="39.33478779145396" lon="8.440057907597728"><ele>278.0</ele><time>2026-03-30T16:58:09.001Z</time></trkpt><trkpt lat="39.334780850041" lon="8.440156854657513"><ele>278.0</ele><time>2026-03-30T16:58:10.001Z</time></trkpt><trkpt lat="39.334794463481344" lon="8.440239316899481"><ele>278.0</ele><time>2026-03-30T16:58:11.001Z</time></trkpt><trkpt lat="39.33481946249405" lon="8.440328204261464"><ele>278.0</ele><time>2026-03-30T16:58:12.001Z</time></trkpt><trkpt lat="39.334826121163495" lon="8.440438652556956"><ele>278.0</ele><time>2026-03-30T16:58:13.001Z</time></trkpt><trkpt lat="39.33478252574713" lon="8.440561048074056"><ele>278.0</ele><time>2026-03-30T16:58:14.001Z</time></trkpt><trkpt lat="39.33468476269143" lon="8.440654010294386"><ele>278.0</ele><time>2026-03-30T16:58:15.001Z</time></trkpt><trkpt lat="39.33455241970221" lon="8.440710573252456"><ele>271.75</ele><time>2026-03-30T16:58:16.001Z</time></trkpt><trkpt lat="39.334430921756876" lon="8.440735663451875"><ele>265.5</ele><time>2026-03-30T16:58:17Z</time></trkpt><trkpt lat="39.33430846329645" lon="8.44077129815246"><ele>259.25</ele><time>2026-03-30T16:58:18Z</time></trkpt><trkpt lat="39.33418435679197" lon="8.44081657294576"><ele>253.0</ele><time>2026-03-30T16:58:19Z</time></trkpt><trkpt lat="39.33406110195964" lon="8.440867568726196"><ele>253.0</ele><time>2026-03-30T16:58:20Z</time></trkpt><trkpt lat="39.333929612442056" lon="8.440912424665777"><ele>253.0</ele><time>2026-03-30T16:58:21Z</time></trkpt><trkpt lat="39.33380322080305" lon="8.440965052636932"><ele>253.0</ele><time>2026-03-30T16:58:22Z</time></trkpt><trkpt lat="39.333673373425306" lon="8.441015896619946"><ele>253.0</ele><time>2026-03-30T16:58:23Z</time></trkpt><trkpt lat="39.33353477958228" lon="8.44107234358695"><ele>249.60000000000002</ele><time>2026-03-30T16:58:24Z</time></trkpt><trkpt lat="39.333398770386154" lon="8.441124925899677"><ele>246.20000000000002</ele><time>2026-03-30T16:58:25Z</time></trkpt><trkpt lat="39.333283524310744" lon="8.441164135753837"><ele>242.8</ele><time>2026-03-30T16:58:26Z</time></trkpt><trkpt lat="39.333200783662555" lon="8.441201740292563"><ele>239.4</ele><time>2026-03-30T16:58:27Z</time></trkpt><trkpt lat="39.333146736458026" lon="8.44127341724641"><ele>236.0</ele><time>2026-03-30T16:58:28Z</time></trkpt><trkpt lat="39.33313643650681" lon="8.441385942798888"><ele>236.0</ele><time>2026-03-30T16:58:29Z</time></trkpt><trkpt lat="39.33317030711514" lon="8.4415148351696"><ele>236.00000000000003</ele><time>2026-03-30T16:58:30Z</time></trkpt><trkpt lat="39.33322446031116" lon="8.441631181342997"><ele>236.00000000000003</ele><time>2026-03-30T16:58:31Z</time></trkpt><trkpt lat="39.33329301324014" lon="8.44173784361844"><ele>236.0</ele><time>2026-03-30T16:58:32Z</time></trkpt><trkpt lat="39.33334979042663" lon="8.441857814736096"><ele>236.0</ele><time>2026-03-30T16:58:33Z</time></trkpt><trkpt lat="39.333363819992755" lon="8.441999242061081"><ele>237.75</ele><time>2026-03-30T16:58:34Z</time></trkpt><trkpt lat="39.3333229087227" lon="8.442138915795343"><ele>239.5</ele><time>2026-03-30T16:58:35Z</time></trkpt><trkpt lat="39.33323897241987" lon="8.442246071058783"><ele>241.25</ele><time>2026-03-30T16:58:36Z</time></trkpt><trkpt lat="39.33312433742575" lon="8.44230480556328"><ele>243.0</ele><time>2026-03-30T16:58:37Z</time></trkpt><trkpt lat="39.33300174789593" lon="8.442286873930078"><ele>237.60000000000002</ele><time>2026-03-30T16:58:38Z</time></trkpt><trkpt lat="39.33289881275564" lon="8.442222500881616"><ele>232.20000000000002</ele><time>2026-03-30T16:58:39Z</time></trkpt><trkpt lat="39.33280690543054" lon="8.442205402176887"><ele>226.8</ele><time>2026-03-30T16:58:40Z</time></trkpt><trkpt lat="39.33271839762572" lon="8.442284219832604"><ele>221.4</ele><time>2026-03-30T16:58:41Z</time></trkpt><trkpt lat="39.332649085555495" lon="8.442425160059987"><ele>216.0</ele><time>2026-03-30T16:58:42Z</time></trkpt><trkpt lat="39.332600117063" lon="8.442585893099892"><ele>216.0</ele><time>2026-03-30T16:58:43Z</time></trkpt><trkpt lat="39.33253829393607" lon="8.442742288370852"><ele>216.0</ele><time>2026-03-30T16:58:44Z</time></trkpt><trkpt lat="39.3324683428434" lon="8.442882316232321"><ele>216.0</ele><time>2026-03-30T16:58:45Z</time></trkpt><trkpt lat="39.332406505185226" lon="8.443026288221308"><ele>216.0</ele><time>2026-03-30T16:58:46Z</time></trkpt><trkpt lat="39.33236099786907" lon="8.443168493355579"><ele>220.8</ele><time>2026-03-30T16:58:47Z</time></trkpt><trkpt lat="39.332316564716415" lon="8.443296261008276"><ele>225.60000000000002</ele><time>2026-03-30T16:58:48Z</time></trkpt><trkpt lat="39.33226225174176" lon="8.44339196490818"><ele>230.4</ele><time>2026-03-30T16:58:49Z</time></trkpt><trkpt lat="39.33218859274758" lon="8.443442342718974"><ele>235.2</ele><time>2026-03-30T16:58:50Z</time></trkpt><trkpt lat="39.332102346626385" lon="8.443429969213101"><ele>240.0</ele><time>2026-03-30T16:58:51Z</time></trkpt><trkpt lat="39.33203043426135" lon="8.443353332816455"><ele>240.8</ele><time>2026-03-30T16:58:52Z</time></trkpt><trkpt lat="39.33199920832869" lon="8.443232942754644"><ele>241.6</ele><time>2026-03-30T16:58:53Z</time></trkpt><trkpt lat="39.33201590460078" lon="8.443106657713965"><ele>242.39999999999998</ele><time>2026-03-30T16:58:54Z</time></trkpt><trkpt lat="39.332055925532245" lon="8.442977058177673"><ele>243.2</ele><time>2026-03-30T16:58:55Z</time></trkpt><trkpt lat="39.332097993778355" lon="8.442840005830142"><ele>244.0</ele><time>2026-03-30T16:58:56Z</time></trkpt><trkpt lat="39.33213656997053" lon="8.44269360029877"><ele>244.0</ele><time>2026-03-30T16:58:57Z</time></trkpt><trkpt lat="39.33217024941135" lon="8.442534021503409"><ele>244.0</ele><time>2026-03-30T16:58:58Z</time></trkpt><trkpt lat="39.33220628664823" lon="8.442365839327575"><ele>244.0</ele><time>2026-03-30T16:58:59Z</time></trkpt><trkpt lat="39.33223954360703" lon="8.44219642220776"><ele>244.0</ele><time>2026-03-30T16:59:00Z</time></trkpt><trkpt lat="39.33226096217502" lon="8.442015761921963"><ele>241.25</ele><time>2026-03-30T16:59:01Z</time></trkpt><trkpt lat="39.33225836778986" lon="8.441830124599875"><ele>238.5</ele><time>2026-03-30T16:59:02Z</time></trkpt><trkpt lat="39.332228368669035" lon="8.441634535449872"><ele>235.75</ele><time>2026-03-30T16:59:03Z</time></trkpt><trkpt lat="39.33217269496385" lon="8.44145498701426"><ele>233.0</ele><time>2026-03-30T16:59:04Z</time></trkpt><trkpt lat="39.332095103112" lon="8.441295881487841"><ele>228.0</ele><time>2026-03-30T16:59:05Z</time></trkpt><trkpt lat="39.33201171377729" lon="8.441147102544992"><ele>223.0</ele><time>2026-03-30T16:59:06Z</time></trkpt><trkpt lat="39.3319499191678" lon="8.440988098524219"><ele>218.0</ele><time>2026-03-30T16:59:07Z</time></trkpt><trkpt lat="39.3319323257275" lon="8.44080753301842"><ele>213.0</ele><time>2026-03-30T16:59:08Z</time></trkpt><trkpt lat="39.33197537306682" lon="8.440631489429203"><ele>213.0</ele><time>2026-03-30T16:59:09Z</time></trkpt><trkpt lat="39.33206369423444" lon="8.440474098228401"><ele>213.0</ele><time>2026-03-30T16:59:10Z</time></trkpt><trkpt lat="39.33215691165462" lon="8.440344074750989"><ele>213.0</ele><time>2026-03-30T16:59:11Z</time></trkpt><trkpt lat="39.332216174210345" lon="8.440212577870437"><ele>213.0</ele><time>2026-03-30T16:59:12Z</time></trkpt><trkpt lat="39.33221417958687" lon="8.440053303604282"><ele>208.5</ele><time>2026-03-30T16:59:13Z</time></trkpt><trkpt lat="39.33215699291709" lon="8.439903717392964"><ele>204.0</ele><time>2026-03-30T16:59:14Z</time></trkpt><trkpt lat="39.33207043819995" lon="8.439787457102225"><ele>199.5</ele><time>2026-03-30T16:59:15Z</time></trkpt><trkpt lat="39.331978384634674" lon="8.439683107713417"><ele>195.0</ele><time>2026-03-30T16:59:16Z</time></trkpt><trkpt lat="39.33189836790532" lon="8.439570155084235"><ele>193.75</ele><time>2026-03-30T16:59:17Z</time></trkpt><trkpt lat="39.331824550607614" lon="8.439444088763265"><ele>192.5</ele><time>2026-03-30T16:59:18Z</time></trkpt><trkpt lat="39.33175821295935" lon="8.439301867348815"><ele>191.25</ele><time>2026-03-30T16:59:19Z</time></trkpt><trkpt lat="39.331689259704255" lon="8.439148329603833"><ele>190.0</ele><time>2026-03-30T16:59:20Z</time></trkpt><trkpt lat="39.331625124739965" lon="8.438987643691258"><ele>190.0</ele><time>2026-03-30T16:59:21Z</time></trkpt><trkpt lat="39.331574726900264" lon="8.438819887275784"><ele>190.0</ele><time>2026-03-30T16:59:22Z</time></trkpt><trkpt lat="39.33153492984994" lon="8.438643074206427"><ele>190.0</ele><time>2026-03-30T16:59:23Z</time></trkpt><trkpt lat="39.33149505910112" lon="8.438465171011492"><ele>190.0</ele><time>2026-03-30T16:59:24Z</time></trkpt><trkpt lat="39.33145920711051" lon="8.438290005361761"><ele>191.5</ele><time>2026-03-30T16:59:25Z</time></trkpt><trkpt lat="39.33143269424982" lon="8.438115872502136"><ele>193.0</ele><time>2026-03-30T16:59:26Z</time></trkpt><trkpt lat="39.33141172986946" lon="8.437944495018908"><ele>194.5</ele><time>2026-03-30T16:59:27Z</time></trkpt><trkpt lat="39.33139203514659" lon="8.437780501190346"><ele>196.0</ele><time>2026-03-30T16:59:28Z</time></trkpt><trkpt lat="39.33137954548034" lon="8.437622574985449"><ele>196.25</ele><time>2026-03-30T16:59:29Z</time></trkpt><trkpt lat="39.331379303963104" lon="8.43746785273573"><ele>196.5</ele><time>2026-03-30T16:59:30Z</time></trkpt><trkpt lat="39.33139116541927" lon="8.437316385327373"><ele>196.75</ele><time>2026-03-30T16:59:31Z</time></trkpt><trkpt lat="39.33140655817647" lon="8.437162274782414"><ele>197.0</ele><time>2026-03-30T16:59:32Z</time></trkpt><trkpt lat="39.331429504819646" lon="8.436999611838813"><ele>190.75</ele><time>2026-03-30T16:59:33Z</time></trkpt><trkpt lat="39.33145961167287" lon="8.436838022968386"><ele>184.5</ele><time>2026-03-30T16:59:34Z</time></trkpt><trkpt lat="39.33150375848084" lon="8.436679707416458"><ele>178.25</ele><time>2026-03-30T16:59:35Z</time></trkpt><trkpt lat="39.331552213539744" lon="8.436518000099865"><ele>172.0</ele><time>2026-03-30T16:59:36Z</time></trkpt><trkpt lat="39.33159798978421" lon="8.436348955305967"><ele>167.5</ele><time>2026-03-30T16:59:37Z</time></trkpt><trkpt lat="39.33163946526614" lon="8.436181142318333"><ele>163.0</ele><time>2026-03-30T16:59:38Z</time></trkpt><trkpt lat="39.331679983383715" lon="8.436008965253926"><ele>158.5</ele><time>2026-03-30T16:59:39Z</time></trkpt><trkpt lat="39.33172419804537" lon="8.435837405682346"><ele>154.0</ele><time>2026-03-30T16:59:40Z</time></trkpt><trkpt lat="39.33177370719279" lon="8.435665075023561"><ele>154.0</ele><time>2026-03-30T16:59:41Z</time></trkpt><trkpt lat="39.33182834005557" lon="8.435493690781632"><ele>154.0</ele><time>2026-03-30T16:59:42Z</time></trkpt><trkpt lat="39.33186846201378" lon="8.43534557241993"><ele>154.0</ele><time>2026-03-30T16:59:43Z</time></trkpt><trkpt lat="39.33188049541399" lon="8.435228676158271"><ele>154.0</ele><time>2026-03-30T16:59:44Z</time></trkpt><trkpt lat="39.33186239994454" lon="8.435129237513113"><ele>154.0</ele><time>2026-03-30T16:59:45Z</time></trkpt><trkpt lat="39.33181953987478" lon="8.435054195921696"><ele>151.0</ele><time>2026-03-30T16:59:46Z</time></trkpt><trkpt lat="39.33176341327946" lon="8.435003581386312"><ele>148.0</ele><time>2026-03-30T16:59:47Z</time></trkpt><trkpt lat="39.33168955228222" lon="8.434946863518661"><ele>145.0</ele><time>2026-03-30T16:59:49Z</time></trkpt><trkpt lat="39.331623123051834" lon="8.434941328448543"><ele>142.0</ele><time>2026-03-30T16:59:52Z</time></trkpt><trkpt lat="39.3315576062756" lon="8.43499280352894"><ele>139.0</ele><time>2026-03-30T16:59:54Z</time></trkpt><trkpt lat="39.331489577175525" lon="8.434994084838605"><ele>136.0</ele><time>2026-03-30T16:59:56Z</time></trkpt><trkpt lat="39.33141291269174" lon="8.434896116612714"><ele>134.4</ele><time>2026-03-30T16:59:58Z</time></trkpt><trkpt lat="39.331331925454364" lon="8.434812605890407"><ele>132.8</ele><time>2026-03-30T17:00:00Z</time></trkpt><trkpt lat="39.33124664005208" lon="8.434757520206531"><ele>131.20000000000002</ele><time>2026-03-30T17:00:02Z</time></trkpt><trkpt lat="39.33117073899797" lon="8.434685410379007"><ele>129.6</ele><time>2026-03-30T17:00:04Z</time></trkpt><trkpt lat="39.33107164442381" lon="8.434663537014861"><ele>128.0</ele><time>2026-03-30T17:01:04Z</time></trkpt><trkpt lat="39.3309581359536" lon="8.434580649256798"><ele>128.0</ele><time>2026-03-30T17:01:06Z</time></trkpt><trkpt lat="39.330885595860465" lon="8.434528670216421"><ele>128.0</ele><time>2026-03-30T17:01:07Z</time></trkpt><trkpt lat="39.330817840755714" lon="8.434469334513597"><ele>128.0</ele><time>2026-03-30T17:01:08Z</time></trkpt><trkpt lat="39.33075075518277" lon="8.434397301007664"><ele>128.0</ele><time>2026-03-30T17:01:09Z</time></trkpt><trkpt lat="39.330682840546885" lon="8.434307370615393"><ele>128.0</ele><time>2026-03-30T17:01:10Z</time></trkpt><trkpt lat="39.33065021433185" lon="8.43417145602661"><ele>128.0</ele><time>2026-03-30T17:01:11Z</time></trkpt><trkpt lat="39.330619575925255" lon="8.43404521693447"><ele>128.0</ele><time>2026-03-30T17:01:12Z</time></trkpt><trkpt lat="39.33058781674529" lon="8.433909963656987"><ele>128.0</ele><time>2026-03-30T17:01:13Z</time></trkpt><trkpt lat="39.33053436983021" lon="8.433789591883267"><ele>128.0</ele><time>2026-03-30T17:01:14Z</time></trkpt><trkpt lat="39.33042127297392" lon="8.433712973686196"><ele>128.0</ele><time>2026-03-30T17:01:15Z</time></trkpt><trkpt lat="39.330322616544294" lon="8.433648534445702"><ele>130.5</ele><time>2026-03-30T17:01:16Z</time></trkpt><trkpt lat="39.330222034731904" lon="8.433589581609583"><ele>133.0</ele><time>2026-03-30T17:01:17Z</time></trkpt><trkpt lat="39.33011624587573" lon="8.433525653043032"><ele>135.5</ele><time>2026-03-30T17:01:18Z</time></trkpt><trkpt lat="39.3300000476756" lon="8.433454919336679"><ele>138.0</ele><time>2026-03-30T17:01:19Z</time></trkpt><trkpt lat="39.32987874942392" lon="8.433387459783749"><ele>138.0</ele><time>2026-03-30T17:01:20Z</time></trkpt><trkpt lat="39.32978121944915" lon="8.433323352105186"><ele>138.0</ele><time>2026-03-30T17:01:21Z</time></trkpt><trkpt lat="39.32972418222027" lon="8.433201267491432"><ele>138.0</ele><time>2026-03-30T17:01:22Z</time></trkpt><trkpt lat="39.32971423360427" lon="8.4330703053769"><ele>138.0</ele><time>2026-03-30T17:01:23Z</time></trkpt><trkpt lat="39.32975175879471" lon="8.432966580685543"><ele>138.0</ele><time>2026-03-30T17:01:24Z</time></trkpt><trkpt lat="39.32976930244561" lon="8.432869111371568"><ele>138.20000000000002</ele><time>2026-03-30T17:01:25Z</time></trkpt><trkpt lat="39.32973387626126" lon="8.432779055854883"><ele>138.4</ele><time>2026-03-30T17:01:26Z</time></trkpt><trkpt lat="39.32966112843875" lon="8.432712422235207"><ele>138.60000000000002</ele><time>2026-03-30T17:01:27Z</time></trkpt><trkpt lat="39.32957407414842" lon="8.432674316224274"><ele>138.8</ele><time>2026-03-30T17:01:28Z</time></trkpt><trkpt lat="39.329484752379074" lon="8.432612386226369"><ele>139.0</ele><time>2026-03-30T17:01:29Z</time></trkpt><trkpt lat="39.329380158887915" lon="8.432582890453759"><ele>139.0</ele><time>2026-03-30T17:01:30Z</time></trkpt><trkpt lat="39.329274283101064" lon="8.432576978944859"><ele>139.0</ele><time>2026-03-30T17:01:31Z</time></trkpt><trkpt lat="39.3291507110561" lon="8.432645287129384"><ele>139.0</ele><time>2026-03-30T17:01:32Z</time></trkpt><trkpt lat="39.32905085368038" lon="8.432762996315448"><ele>139.0</ele><time>2026-03-30T17:01:33Z</time></trkpt><trkpt lat="39.32895517856632" lon="8.43289045602749"><ele>142.75</ele><time>2026-03-30T17:01:34Z</time></trkpt><trkpt lat="39.32885762000022" lon="8.433013320794384"><ele>146.5</ele><time>2026-03-30T17:01:35Z</time></trkpt><trkpt lat="39.32876329757194" lon="8.433139100383118"><ele>150.25</ele><time>2026-03-30T17:01:36Z</time></trkpt><trkpt lat="39.32865938663331" lon="8.433248286576593"><ele>154.0</ele><time>2026-03-30T17:01:37Z</time></trkpt><trkpt lat="39.32853548579348" lon="8.433339415703209"><ele>154.0</ele><time>2026-03-30T17:01:38Z</time></trkpt><trkpt lat="39.32840013360054" lon="8.433315890658031"><ele>154.0</ele><time>2026-03-30T17:01:39Z</time></trkpt><trkpt lat="39.3282713432765" lon="8.433316589073836"><ele>154.0</ele><time>2026-03-30T17:01:40Z</time></trkpt><trkpt lat="39.32808422541095" lon="8.43332412509149"><ele>153.66666666666669</ele><time>2026-03-30T17:01:41Z</time></trkpt><trkpt lat="39.327925712933926" lon="8.433330321986727"><ele>153.33333333333334</ele><time>2026-03-30T17:01:42Z</time></trkpt><trkpt lat="39.3277683898598" lon="8.433347180271879"><ele>153.0</ele><time>2026-03-30T17:01:43Z</time></trkpt><trkpt lat="39.32760597583225" lon="8.433348034682885"><ele>153.0</ele><time>2026-03-30T17:01:44Z</time></trkpt><trkpt lat="39.32744844505407" lon="8.433316965416674"><ele>153.0</ele><time>2026-03-30T17:01:45Z</time></trkpt><trkpt lat="39.32728875422087" lon="8.433286821412148"><ele>153.0</ele><time>2026-03-30T17:01:46Z</time></trkpt><trkpt lat="39.32714174339776" lon="8.433246135433249"><ele>154.25</ele><time>2026-03-30T17:01:47Z</time></trkpt><trkpt lat="39.32699681607651" lon="8.433219771578958"><ele>155.5</ele><time>2026-03-30T17:01:48Z</time></trkpt><trkpt lat="39.326864737835415" lon="8.433251942965923"><ele>156.75</ele><time>2026-03-30T17:01:49Z</time></trkpt><trkpt lat="39.32673339924932" lon="8.43330916345047"><ele>158.0</ele><time>2026-03-30T17:01:50Z</time></trkpt><trkpt lat="39.326604096654506" lon="8.433368120209002"><ele>158.0</ele><time>2026-03-30T17:01:51Z</time></trkpt><trkpt lat="39.32646916281264" lon="8.433346926917563"><ele>158.0</ele><time>2026-03-30T17:01:52Z</time></trkpt><trkpt lat="39.326329710460314" lon="8.433299365642803"><ele>158.0</ele><time>2026-03-30T17:01:53Z</time></trkpt><trkpt lat="39.326180467069676" lon="8.433313363874193"><ele>158.0</ele><time>2026-03-30T17:01:54Z</time></trkpt><trkpt lat="39.32603316623195" lon="8.433323038213071"><ele>158.25</ele><time>2026-03-30T17:01:55Z</time></trkpt><trkpt lat="39.32588222571359" lon="8.433340760081727"><ele>158.5</ele><time>2026-03-30T17:01:56Z</time></trkpt><trkpt lat="39.325737147702995" lon="8.433305901052186"><ele>158.75</ele><time>2026-03-30T17:01:57Z</time></trkpt><trkpt lat="39.32558956356091" lon="8.433306688798577"><ele>159.0</ele><time>2026-03-30T17:01:58Z</time></trkpt><trkpt lat="39.32546692326068" lon="8.433307088784339"><ele>157.75</ele><time>2026-03-30T17:01:59Z</time></trkpt><trkpt lat="39.32535780533899" lon="8.433377404809299"><ele>156.5</ele><time>2026-03-30T17:02:00Z</time></trkpt><trkpt lat="39.32525948452109" lon="8.433504327357268"><ele>155.25</ele><time>2026-03-30T17:02:01Z</time></trkpt><trkpt lat="39.32517891648982" lon="8.433646267887791"><ele>154.0</ele><time>2026-03-30T17:02:02Z</time></trkpt><trkpt lat="39.32506912215559" lon="8.433689745958644"><ele>154.0</ele><time>2026-03-30T17:02:03Z</time></trkpt><trkpt lat="39.32495965146692" lon="8.433673296382278"><ele>154.0</ele><time>2026-03-30T17:02:04Z</time></trkpt><trkpt lat="39.32483778764169" lon="8.433668045539985"><ele>154.0</ele><time>2026-03-30T17:02:05Z</time></trkpt><trkpt lat="39.324727269645095" lon="8.433709578035415"><ele>154.0</ele><time>2026-03-30T17:02:06Z</time></trkpt><trkpt lat="39.3246604035677" lon="8.433834724582194"><ele>155.5</ele><time>2026-03-30T17:02:07Z</time></trkpt><trkpt lat="39.324623773983255" lon="8.433987689158252"><ele>157.0</ele><time>2026-03-30T17:02:08Z</time></trkpt><trkpt lat="39.32459911219384" lon="8.434144599166324"><ele>158.5</ele><time>2026-03-30T17:02:09Z</time></trkpt><trkpt lat="39.32457340600921" lon="8.4343041612626"><ele>160.0</ele><time>2026-03-30T17:02:10Z</time></trkpt><trkpt lat="39.324519605248334" lon="8.434439211900001"><ele>160.0</ele><time>2026-03-30T17:02:11Z</time></trkpt><trkpt lat="39.32444067696844" lon="8.43455973842498"><ele>160.0</ele><time>2026-03-30T17:02:12Z</time></trkpt><trkpt lat="39.32433868395333" lon="8.434662701580686"><ele>160.0</ele><time>2026-03-30T17:02:13Z</time></trkpt><trkpt lat="39.32423046841709" lon="8.434768918702796"><ele>160.0</ele><time>2026-03-30T17:02:14Z</time></trkpt><trkpt lat="39.3241168975169" lon="8.434861958328892"><ele>163.0</ele><time>2026-03-30T17:02:15Z</time></trkpt><trkpt lat="39.32403607015509" lon="8.435003968628761"><ele>166.0</ele><time>2026-03-30T17:02:16Z</time></trkpt><trkpt lat="39.323990038962386" lon="8.435171333089041"><ele>169.0</ele><time>2026-03-30T17:02:17Z</time></trkpt><trkpt lat="39.32396392196911" lon="8.435345326511571"><ele>172.0</ele><time>2026-03-30T17:02:18Z</time></trkpt><trkpt lat="39.3239351281975" lon="8.435516116295409"><ele>170.75</ele><time>2026-03-30T17:02:19Z</time></trkpt><trkpt lat="39.32390677225266" lon="8.435691376953377"><ele>169.5</ele><time>2026-03-30T17:02:20Z</time></trkpt><trkpt lat="39.32389204723112" lon="8.435871683026575"><ele>168.25</ele><time>2026-03-30T17:02:21Z</time></trkpt><trkpt lat="39.323898072208195" lon="8.43605392290422"><ele>167.0</ele><time>2026-03-30T17:02:22Z</time></trkpt><trkpt lat="39.32391668583566" lon="8.43622540104448"><ele>171.5</ele><time>2026-03-30T17:02:23Z</time></trkpt><trkpt lat="39.323900209467304" lon="8.436379884342772"><ele>176.0</ele><time>2026-03-30T17:02:24Z</time></trkpt><trkpt lat="39.32387075813232" lon="8.43651642199009"><ele>180.5</ele><time>2026-03-30T17:02:25Z</time></trkpt><trkpt lat="39.32375718602271" lon="8.43655998148518"><ele>185.0</ele><time>2026-03-30T17:02:26Z</time></trkpt><trkpt lat="39.323662992989036" lon="8.436607192839451"><ele>185.0</ele><time>2026-03-30T17:02:27Z</time></trkpt><trkpt lat="39.32354310651208" lon="8.436589080416027"><ele>185.0</ele><time>2026-03-30T17:02:28Z</time></trkpt><trkpt lat="39.32342856007551" lon="8.436544885790173"><ele>185.0</ele><time>2026-03-30T17:02:29Z</time></trkpt><trkpt lat="39.323341726018164" lon="8.436452193902126"><ele>185.0</ele><time>2026-03-30T17:02:30Z</time></trkpt><trkpt lat="39.323314718534135" lon="8.436282781318212"><ele>181.25</ele><time>2026-03-30T17:02:31Z</time></trkpt><trkpt lat="39.323243046180735" lon="8.436157145689457"><ele>177.5</ele><time>2026-03-30T17:02:32Z</time></trkpt><trkpt lat="39.32316659721772" lon="8.436025863958623"><ele>173.75</ele><time>2026-03-30T17:02:33Z</time></trkpt><trkpt lat="39.3230634008528" lon="8.435928900049575"><ele>170.0</ele><time>2026-03-30T17:02:34Z</time></trkpt><trkpt lat="39.3229506783473" lon="8.435848680530135"><ele>170.0</ele><time>2026-03-30T17:02:35Z</time></trkpt><trkpt lat="39.32283218196995" lon="8.43578784181667"><ele>170.0</ele><time>2026-03-30T17:02:36Z</time></trkpt><trkpt lat="39.32271199144249" lon="8.4357718745733"><ele>170.0</ele><time>2026-03-30T17:02:37Z</time></trkpt><trkpt lat="39.322587922742734" lon="8.435808011313977"><ele>170.0</ele><time>2026-03-30T17:02:38Z</time></trkpt><trkpt lat="39.32246803806763" lon="8.43588754741159"><ele>170.0</ele><time>2026-03-30T17:02:39Z</time></trkpt><trkpt lat="39.32235388521646" lon="8.4359706781982"><ele>170.0</ele><time>2026-03-30T17:02:40Z</time></trkpt><trkpt lat="39.322230322066595" lon="8.436027169224216"><ele>170.0</ele><time>2026-03-30T17:02:41Z</time></trkpt><trkpt lat="39.3220977368162" lon="8.436052385522244"><ele>170.0</ele><time>2026-03-30T17:02:42Z</time></trkpt><trkpt lat="39.321960793835466" lon="8.436025716369942"><ele>169.5</ele><time>2026-03-30T17:02:43Z</time></trkpt><trkpt lat="39.32181920107755" lon="8.436003092262553"><ele>169.0</ele><time>2026-03-30T17:02:44Z</time></trkpt><trkpt lat="39.32168085925898" lon="8.43599015041388"><ele>168.5</ele><time>2026-03-30T17:02:45Z</time></trkpt><trkpt lat="39.32154437051385" lon="8.435925619211778"><ele>168.0</ele><time>2026-03-30T17:02:46Z</time></trkpt><trkpt lat="39.321407735089586" lon="8.435915115239506"><ele>167.75</ele><time>2026-03-30T17:02:47Z</time></trkpt><trkpt lat="39.32128113758951" lon="8.435920117205058"><ele>167.5</ele><time>2026-03-30T17:02:48Z</time></trkpt><trkpt lat="39.32116463186026" lon="8.435946345636895"><ele>167.25</ele><time>2026-03-30T17:02:49Z</time></trkpt><trkpt lat="39.32105305560322" lon="8.436001410078623"><ele>167.0</ele><time>2026-03-30T17:02:50Z</time></trkpt><trkpt lat="39.320946702079965" lon="8.436066725913"><ele>167.0</ele><time>2026-03-30T17:02:51Z</time></trkpt><trkpt lat="39.320843244297464" lon="8.436107129188636"><ele>167.0</ele><time>2026-03-30T17:02:52Z</time></trkpt><trkpt lat="39.320743331372526" lon="8.436099592974127"><ele>167.0</ele><time>2026-03-30T17:02:53Z</time></trkpt><trkpt lat="39.320667955098315" lon="8.436044797306984"><ele>167.0</ele><time>2026-03-30T17:02:54Z</time></trkpt><trkpt lat="39.32064328292374" lon="8.435916739253374"><ele>167.0</ele><time>2026-03-30T17:02:55Z</time></trkpt><trkpt lat="39.32059203279209" lon="8.435834504778231"><ele>166.42857142857142</ele><time>2026-03-30T17:02:56Z</time></trkpt><trkpt lat="39.32052473283833" lon="8.435788761754528"><ele>165.85714285714286</ele><time>2026-03-30T17:02:57Z</time></trkpt><trkpt lat="39.320456907898354" lon="8.435750746481919"><ele>165.28571428571428</ele><time>2026-03-30T17:02:58Z</time></trkpt><trkpt lat="39.320390332961935" lon="8.435721314242933"><ele>164.71428571428572</ele><time>2026-03-30T17:02:59Z</time></trkpt><trkpt lat="39.32032295237368" lon="8.435694917455951"><ele>164.14285714285714</ele><time>2026-03-30T17:03:00Z</time></trkpt><trkpt lat="39.32025767413462" lon="8.435662748900118"><ele>163.57142857142858</ele><time>2026-03-30T17:03:01Z</time></trkpt><trkpt lat="39.32019200759612" lon="8.435633091454141"><ele>163.0</ele><time>2026-03-30T17:03:02Z</time></trkpt><trkpt lat="39.32012645038833" lon="8.435603744960158"><ele>163.0</ele><time>2026-03-30T17:03:03Z</time></trkpt><trkpt lat="39.32006206457374" lon="8.435574557833645"><ele>163.0</ele><time>2026-03-30T17:03:04Z</time></trkpt><trkpt lat="39.319997854252605" lon="8.43556978432059"><ele>163.0</ele><time>2026-03-30T17:03:05Z</time></trkpt><trkpt lat="39.31993311589951" lon="8.435603086317338"><ele>163.0</ele><time>2026-03-30T17:03:06Z</time></trkpt><trkpt lat="39.31988716036514" lon="8.435677454640414"><ele>163.0</ele><time>2026-03-30T17:03:07Z</time></trkpt><trkpt lat="39.319864577403756" lon="8.435766587972553"><ele>163.0</ele><time>2026-03-30T17:03:08Z</time></trkpt><trkpt lat="39.31984676250813" lon="8.435856661757102"><ele>163.0</ele><time>2026-03-30T17:03:09Z</time></trkpt><trkpt lat="39.319821092781005" lon="8.435942481266128"><ele>163.0</ele><time>2026-03-30T17:03:10Z</time></trkpt><trkpt lat="39.31979091591752" lon="8.436022362009327"><ele>163.0</ele><time>2026-03-30T17:03:11Z</time></trkpt><trkpt lat="39.319758214192774" lon="8.436102607552911"><ele>163.0</ele><time>2026-03-30T17:03:12Z</time></trkpt><trkpt lat="39.31969840269797" lon="8.436158537871085"><ele>163.0</ele><time>2026-03-30T17:03:13Z</time></trkpt><trkpt lat="39.31964608141918" lon="8.436206016567164"><ele>163.0</ele><time>2026-03-30T17:03:14Z</time></trkpt><trkpt lat="39.31952347882179" lon="8.436247118232254"><ele>163.0</ele><time>2026-03-30T17:03:16Z</time></trkpt><trkpt lat="39.319459117410396" lon="8.436229434787133"><ele>161.42857142857144</ele><time>2026-03-30T17:03:17Z</time></trkpt><trkpt lat="39.31938506284381" lon="8.436214162970728"><ele>159.85714285714283</ele><time>2026-03-30T17:03:18Z</time></trkpt><trkpt lat="39.3193145743298" lon="8.436199389618277"><ele>158.28571428571428</ele><time>2026-03-30T17:03:19Z</time></trkpt><trkpt lat="39.3192417102115" lon="8.436188680062726"><ele>156.71428571428572</ele><time>2026-03-30T17:03:20Z</time></trkpt><trkpt lat="39.31916987471016" lon="8.436179798474999"><ele>155.14285714285717</ele><time>2026-03-30T17:03:21Z</time></trkpt><trkpt lat="39.31909884645664" lon="8.436171016685904"><ele>153.57142857142856</ele><time>2026-03-30T17:03:22Z</time></trkpt><trkpt lat="39.31902391956873" lon="8.436161396866042"><ele>152.0</ele><time>2026-03-30T17:03:23Z</time></trkpt><trkpt lat="39.31894544812359" lon="8.43615078619928"><ele>152.0</ele><time>2026-03-30T17:03:24Z</time></trkpt><trkpt lat="39.31886622210695" lon="8.436140073496173"><ele>152.0</ele><time>2026-03-30T17:03:25Z</time></trkpt><trkpt lat="39.31879135201518" lon="8.436129069243156"><ele>152.0</ele><time>2026-03-30T17:03:26Z</time></trkpt><trkpt lat="39.31872286942582" lon="8.436118885411688"><ele>152.0</ele><time>2026-03-30T17:03:27Z</time></trkpt><trkpt lat="39.31865498149984" lon="8.436108790004264"><ele>152.0</ele><time>2026-03-30T17:03:28Z</time></trkpt><trkpt lat="39.31859064822786" lon="8.436099223206712"><ele>152.0</ele><time>2026-03-30T17:03:29Z</time></trkpt><trkpt lat="39.31852223452922" lon="8.436110625271345"><ele>152.0</ele><time>2026-03-30T17:03:30Z</time></trkpt><trkpt lat="39.31845862702253" lon="8.436099638270464"><ele>152.0</ele><time>2026-03-30T17:03:31Z</time></trkpt><trkpt lat="39.3183871850996" lon="8.436092850434802"><ele>152.0</ele><time>2026-03-30T17:03:32Z</time></trkpt><trkpt lat="39.31831718693785" lon="8.436097503554388"><ele>152.0</ele><time>2026-03-30T17:03:33Z</time></trkpt><trkpt lat="39.31825332571472" lon="8.436130383010314"><ele>152.0</ele><time>2026-03-30T17:03:34Z</time></trkpt><trkpt lat="39.318189076966846" lon="8.436181856103886"><ele>152.0</ele><time>2026-03-30T17:03:35Z</time></trkpt><trkpt lat="39.31812795361489" lon="8.436227479069546"><ele>152.0</ele><time>2026-03-30T17:03:36Z</time></trkpt><trkpt lat="39.31805621197367" lon="8.436269714215513"><ele>152.0</ele><time>2026-03-30T17:03:37Z</time></trkpt><trkpt lat="39.31798201577689" lon="8.436299284701699"><ele>151.66666666666666</ele><time>2026-03-30T17:03:38Z</time></trkpt><trkpt lat="39.31790282603226" lon="8.436293057917817"><ele>151.33333333333331</ele><time>2026-03-30T17:03:39Z</time></trkpt><trkpt lat="39.31782216948083" lon="8.436288944413072"><ele>151.0</ele><time>2026-03-30T17:03:40Z</time></trkpt><trkpt lat="39.31774361805636" lon="8.436263186366572"><ele>150.66666666666666</ele><time>2026-03-30T17:03:41Z</time></trkpt><trkpt lat="39.3176607944938" lon="8.436240466215661"><ele>150.33333333333334</ele><time>2026-03-30T17:03:42Z</time></trkpt><trkpt lat="39.31758081354142" lon="8.436216341052512"><ele>150.0</ele><time>2026-03-30T17:03:43Z</time></trkpt><trkpt lat="39.31748652225193" lon="8.436206342107052"><ele>150.0</ele><time>2026-03-30T17:03:44Z</time></trkpt><trkpt lat="39.31739466980956" lon="8.436221266827017"><ele>150.0</ele><time>2026-03-30T17:03:45Z</time></trkpt><trkpt lat="39.31730479459596" lon="8.436283935814126"><ele>150.0</ele><time>2026-03-30T17:03:46Z</time></trkpt><trkpt lat="39.31723327480088" lon="8.436376192989663"><ele>150.0</ele><time>2026-03-30T17:03:47Z</time></trkpt><trkpt lat="39.31718869534283" lon="8.436491405549548"><ele>150.0</ele><time>2026-03-30T17:03:48Z</time></trkpt><trkpt lat="39.31714656016769" lon="8.436604735246412"><ele>149.4</ele><time>2026-03-30T17:03:49Z</time></trkpt><trkpt lat="39.31709421422717" lon="8.43671380306617"><ele>148.8</ele><time>2026-03-30T17:03:50Z</time></trkpt><trkpt lat="39.31706198657337" lon="8.436840684110715"><ele>148.2</ele><time>2026-03-30T17:03:51Z</time></trkpt><trkpt lat="39.317032536488476" lon="8.436968118036361"><ele>147.6</ele><time>2026-03-30T17:03:52Z</time></trkpt><trkpt lat="39.31701293651923" lon="8.43710035278592"><ele>147.0</ele><time>2026-03-30T17:03:53Z</time></trkpt><trkpt lat="39.3169813160087" lon="8.437225381207616"><ele>149.4</ele><time>2026-03-30T17:03:54Z</time></trkpt><trkpt lat="39.31696082923794" lon="8.437358449132983"><ele>151.79999999999998</ele><time>2026-03-30T17:03:55Z</time></trkpt><trkpt lat="39.31694749061986" lon="8.437493956768241"><ele>154.2</ele><time>2026-03-30T17:03:56Z</time></trkpt><trkpt lat="39.3169142451922" lon="8.43761706870454"><ele>156.6</ele><time>2026-03-30T17:03:57Z</time></trkpt><trkpt lat="39.31689803931149" lon="8.437734114831793"><ele>159.0</ele><time>2026-03-30T17:03:58Z</time></trkpt><trkpt lat="39.31682998345992" lon="8.437812222285803"><ele>159.0</ele><time>2026-03-30T17:03:59Z</time></trkpt><trkpt lat="39.31673223015051" lon="8.437805736243561"><ele>159.0</ele><time>2026-03-30T17:04:00Z</time></trkpt><trkpt lat="39.31665239022894" lon="8.437768033902543"><ele>159.0</ele><time>2026-03-30T17:04:01Z</time></trkpt><trkpt lat="39.31657123929668" lon="8.437722949076376"><ele>159.0</ele><time>2026-03-30T17:04:02Z</time></trkpt><trkpt lat="39.31647891127898" lon="8.437678267606255"><ele>159.0</ele><time>2026-03-30T17:04:03Z</time></trkpt><trkpt lat="39.316396579287954" lon="8.437625128260006"><ele>160.8</ele><time>2026-03-30T17:04:04Z</time></trkpt><trkpt lat="39.31631076177867" lon="8.437589621924467"><ele>162.60000000000002</ele><time>2026-03-30T17:04:05Z</time></trkpt><trkpt lat="39.31622098412787" lon="8.437550245334004"><ele>164.4</ele><time>2026-03-30T17:04:06Z</time></trkpt><trkpt lat="39.31613239817868" lon="8.437494693990882"><ele>166.20000000000002</ele><time>2026-03-30T17:04:07Z</time></trkpt><trkpt lat="39.31604853813915" lon="8.437415075120727"><ele>168.0</ele><time>2026-03-30T17:04:08Z</time></trkpt><trkpt lat="39.315971521212816" lon="8.437319353580481"><ele>168.0</ele><time>2026-03-30T17:04:09Z</time></trkpt><trkpt lat="39.31590085760642" lon="8.437221600058402"><ele>168.0</ele><time>2026-03-30T17:04:10Z</time></trkpt><trkpt lat="39.31583945038882" lon="8.437129078334873"><ele>168.0</ele><time>2026-03-30T17:04:11Z</time></trkpt><trkpt lat="39.315820591218696" lon="8.437017100849879"><ele>168.0</ele><time>2026-03-30T17:04:12Z</time></trkpt><trkpt lat="39.315880675235455" lon="8.436900204492439"><ele>168.0</ele><time>2026-03-30T17:04:12.999Z</time></trkpt><trkpt lat="39.3159365417402" lon="8.43679690830052"><ele>165.8</ele><time>2026-03-30T17:04:13.999Z</time></trkpt><trkpt lat="39.31595898979458" lon="8.436673196538285"><ele>163.60000000000002</ele><time>2026-03-30T17:04:14.999Z</time></trkpt><trkpt lat="39.315974132741985" lon="8.436543952639434"><ele>161.39999999999998</ele><time>2026-03-30T17:04:15.999Z</time></trkpt><trkpt lat="39.31597058741779" lon="8.436422394044618"><ele>159.2</ele><time>2026-03-30T17:04:16.999Z</time></trkpt><trkpt lat="39.31593618703456" lon="8.43630339935154"><ele>157.0</ele><time>2026-03-30T17:04:17.999Z</time></trkpt><trkpt lat="39.315873674696945" lon="8.436199539925603"><ele>155.75</ele><time>2026-03-30T17:04:18.999Z</time></trkpt><trkpt lat="39.315784756069775" lon="8.436121734827626"><ele>154.5</ele><time>2026-03-30T17:04:19.999Z</time></trkpt><trkpt lat="39.31567969212356" lon="8.43607382822213"><ele>153.25</ele><time>2026-03-30T17:04:20.999Z</time></trkpt><trkpt lat="39.315565297507895" lon="8.436102325792056"><ele>152.0</ele><time>2026-03-30T17:04:21.999Z</time></trkpt><trkpt lat="39.31544739827346" lon="8.436112594141882"><ele>152.0</ele><time>2026-03-30T17:04:22.999Z</time></trkpt><trkpt lat="39.315329834026464" lon="8.436140242919743"><ele>152.0</ele><time>2026-03-30T17:04:23.999Z</time></trkpt><trkpt lat="39.31522317873044" lon="8.436187337714165"><ele>152.0</ele><time>2026-03-30T17:04:24.999Z</time></trkpt><trkpt lat="39.315110390629535" lon="8.436201855550838"><ele>152.0</ele><time>2026-03-30T17:04:25.999Z</time></trkpt><trkpt lat="39.315008091378054" lon="8.436228605423794"><ele>152.0</ele><time>2026-03-30T17:04:27Z</time></trkpt><trkpt lat="39.314906374117776" lon="8.436239515299528"><ele>152.0</ele><time>2026-03-30T17:04:28Z</time></trkpt><trkpt lat="39.314813501156365" lon="8.436282919681103"><ele>152.0</ele><time>2026-03-30T17:04:29Z</time></trkpt><trkpt lat="39.31472112380525" lon="8.436336967853352"><ele>152.0</ele><time>2026-03-30T17:04:30Z</time></trkpt><trkpt lat="39.31466536517161" lon="8.43644520885076"><ele>152.0</ele><time>2026-03-30T17:04:31Z</time></trkpt><trkpt lat="39.31460878152777" lon="8.43654536026902"><ele>152.6</ele><time>2026-03-30T17:04:32Z</time></trkpt><trkpt lat="39.31454690687687" lon="8.436645195986607"><ele>153.2</ele><time>2026-03-30T17:04:33Z</time></trkpt><trkpt lat="39.31446852340196" lon="8.436727745248525"><ele>153.8</ele><time>2026-03-30T17:04:34Z</time></trkpt><trkpt lat="39.31437105970334" lon="8.436762668364947"><ele>154.4</ele><time>2026-03-30T17:04:35Z</time></trkpt><trkpt lat="39.31427121144976" lon="8.436755840648127"><ele>155.0</ele><time>2026-03-30T17:04:36Z</time></trkpt><trkpt lat="39.31417177773433" lon="8.436721035239945"><ele>155.0</ele><time>2026-03-30T17:04:37Z</time></trkpt><trkpt lat="39.31407507729643" lon="8.436679249093965"><ele>155.0</ele><time>2026-03-30T17:04:38Z</time></trkpt><trkpt lat="39.31397609532422" lon="8.436626054975472"><ele>155.0</ele><time>2026-03-30T17:04:39Z</time></trkpt><trkpt lat="39.313881337963196" lon="8.436554974848784"><ele>155.0</ele><time>2026-03-30T17:04:40Z</time></trkpt><trkpt lat="39.31378677507199" lon="8.436483193953402"><ele>155.0</ele><time>2026-03-30T17:04:41Z</time></trkpt><trkpt lat="39.31367852822519" lon="8.43643849928208"><ele>154.0</ele><time>2026-03-30T17:04:42Z</time></trkpt><trkpt lat="39.313563694905284" lon="8.436432315370126"><ele>153.0</ele><time>2026-03-30T17:04:43Z</time></trkpt><trkpt lat="39.313455880805144" lon="8.43643889531066"><ele>152.0</ele><time>2026-03-30T17:04:44Z</time></trkpt><trkpt lat="39.31336339043125" lon="8.436455519620797"><ele>151.0</ele><time>2026-03-30T17:04:45Z</time></trkpt><trkpt lat="39.3132738191004" lon="8.436497046267068"><ele>150.0</ele><time>2026-03-30T17:04:46Z</time></trkpt><trkpt lat="39.31318453408957" lon="8.4365457840934"><ele>150.0</ele><time>2026-03-30T17:04:47Z</time></trkpt><trkpt lat="39.31310067725093" lon="8.436606785477808"><ele>150.0</ele><time>2026-03-30T17:04:48Z</time></trkpt><trkpt lat="39.313011229448605" lon="8.436667609021642"><ele>150.0</ele><time>2026-03-30T17:04:49Z</time></trkpt><trkpt lat="39.31291676315246" lon="8.436719404864826"><ele>150.0</ele><time>2026-03-30T17:04:50Z</time></trkpt><trkpt lat="39.312824024290094" lon="8.43678319713869"><ele>150.0</ele><time>2026-03-30T17:04:51Z</time></trkpt><trkpt lat="39.3127247902254" lon="8.43678946833973"><ele>148.8</ele><time>2026-03-30T17:04:52Z</time></trkpt><trkpt lat="39.31262675609265" lon="8.436760681568934"><ele>147.6</ele><time>2026-03-30T17:04:53Z</time></trkpt><trkpt lat="39.31252767989666" lon="8.436721312287071"><ele>146.4</ele><time>2026-03-30T17:04:54Z</time></trkpt><trkpt lat="39.312420612949765" lon="8.436702391447458"><ele>145.2</ele><time>2026-03-30T17:04:55Z</time></trkpt><trkpt lat="39.31231126339127" lon="8.436716620416124"><ele>144.0</ele><time>2026-03-30T17:04:56Z</time></trkpt><trkpt lat="39.31221016891325" lon="8.436775116934069"><ele>143.6</ele><time>2026-03-30T17:04:57Z</time></trkpt><trkpt lat="39.31213074250795" lon="8.436850234159829"><ele>143.2</ele><time>2026-03-30T17:04:58Z</time></trkpt><trkpt lat="39.31207188111409" lon="8.436952210034132"><ele>142.79999999999998</ele><time>2026-03-30T17:04:59Z</time></trkpt><trkpt lat="39.31201414584335" lon="8.437054883187482"><ele>142.4</ele><time>2026-03-30T17:05:00Z</time></trkpt><trkpt lat="39.3119649701805" lon="8.437164954236765"><ele>142.0</ele><time>2026-03-30T17:05:01Z</time></trkpt><trkpt lat="39.311908913477005" lon="8.437264331293973"><ele>143.0</ele><time>2026-03-30T17:05:02Z</time></trkpt><trkpt lat="39.31184079256262" lon="8.437354178809139"><ele>144.0</ele><time>2026-03-30T17:05:03Z</time></trkpt><trkpt lat="39.3117462442492" lon="8.437397759219305"><ele>145.0</ele><time>2026-03-30T17:05:04Z</time></trkpt><trkpt lat="39.31164323095327" lon="8.437395825186812"><ele>146.0</ele><time>2026-03-30T17:05:05Z</time></trkpt><trkpt lat="39.31153792285095" lon="8.437386749789098"><ele>147.0</ele><time>2026-03-30T17:05:06Z</time></trkpt><trkpt lat="39.311425396881546" lon="8.437373127435277"><ele>147.6</ele><time>2026-03-30T17:05:07Z</time></trkpt><trkpt lat="39.31132767631711" lon="8.437301802956618"><ele>148.2</ele><time>2026-03-30T17:05:08Z</time></trkpt><trkpt lat="39.31124736390405" lon="8.437211558424298"><ele>148.8</ele><time>2026-03-30T17:05:09Z</time></trkpt><trkpt lat="39.31117572854907" lon="8.437118862870804"><ele>149.4</ele><time>2026-03-30T17:05:10Z</time></trkpt><trkpt lat="39.31109623231173" lon="8.437052095828287"><ele>150.0</ele><time>2026-03-30T17:05:11Z</time></trkpt><trkpt lat="39.31101701314893" lon="8.436994375857777"><ele>149.6</ele><time>2026-03-30T17:05:12Z</time></trkpt><trkpt lat="39.31092159891561" lon="8.437019358779333"><ele>149.2</ele><time>2026-03-30T17:05:13Z</time></trkpt><trkpt lat="39.310830558550535" lon="8.437026288228529"><ele>148.8</ele><time>2026-03-30T17:05:14Z</time></trkpt><trkpt lat="39.31073973959603" lon="8.437071166550007"><ele>148.4</ele><time>2026-03-30T17:05:15Z</time></trkpt><trkpt lat="39.31064802930605" lon="8.437112884149002"><ele>148.0</ele><time>2026-03-30T17:05:16Z</time></trkpt><trkpt lat="39.3105467292174" lon="8.437152899211556"><ele>148.0</ele><time>2026-03-30T17:05:17Z</time></trkpt><trkpt lat="39.31043208873269" lon="8.43715700646844"><ele>148.0</ele><time>2026-03-30T17:05:18Z</time></trkpt><trkpt lat="39.31031924500826" lon="8.437156390051511"><ele>148.0</ele><time>2026-03-30T17:05:19Z</time></trkpt><trkpt lat="39.310205143225126" lon="8.437174639265965"><ele>148.0</ele><time>2026-03-30T17:05:20Z</time></trkpt><trkpt lat="39.310090755439425" lon="8.437214423877169"><ele>148.0</ele><time>2026-03-30T17:05:21Z</time></trkpt><trkpt lat="39.30997271492473" lon="8.437258452258131"><ele>148.0</ele><time>2026-03-30T17:05:22Z</time></trkpt><trkpt lat="39.30984430824681" lon="8.437281747612396"><ele>148.0</ele><time>2026-03-30T17:05:23Z</time></trkpt><trkpt lat="39.30971070281531" lon="8.437270024249948"><ele>148.0</ele><time>2026-03-30T17:05:24Z</time></trkpt><trkpt lat="39.30957692269454" lon="8.437232931271367"><ele>146.5</ele><time>2026-03-30T17:05:25Z</time></trkpt><trkpt lat="39.30943907440872" lon="8.437188952184668"><ele>145.0</ele><time>2026-03-30T17:05:26Z</time></trkpt><trkpt lat="39.3093033373643" lon="8.437155640669872"><ele>143.5</ele><time>2026-03-30T17:05:27Z</time></trkpt><trkpt lat="39.30917002378664" lon="8.437132457368145"><ele>142.0</ele><time>2026-03-30T17:05:28Z</time></trkpt><trkpt lat="39.309036864860595" lon="8.437109681583355"><ele>138.5</ele><time>2026-03-30T17:05:29Z</time></trkpt><trkpt lat="39.30891200819946" lon="8.437075861830007"><ele>135.0</ele><time>2026-03-30T17:05:30Z</time></trkpt><trkpt lat="39.30878661834514" lon="8.437091302045355"><ele>131.5</ele><time>2026-03-30T17:05:31Z</time></trkpt><trkpt lat="39.30867670498903" lon="8.437177260517515"><ele>128.0</ele><time>2026-03-30T17:05:32Z</time></trkpt><trkpt lat="39.30862032129548" lon="8.437333494492515"><ele>126.0</ele><time>2026-03-30T17:05:33Z</time></trkpt><trkpt lat="39.30855076564216" lon="8.437463888660925"><ele>124.0</ele><time>2026-03-30T17:05:34Z</time></trkpt><trkpt lat="39.30848833867532" lon="8.437607465964815"><ele>122.0</ele><time>2026-03-30T17:05:35Z</time></trkpt><trkpt lat="39.308439803795814" lon="8.437763706807477"><ele>120.0</ele><time>2026-03-30T17:05:36Z</time></trkpt><trkpt lat="39.308381519220745" lon="8.437920777088806"><ele>121.75</ele><time>2026-03-30T17:05:37Z</time></trkpt><trkpt lat="39.308331131012025" lon="8.438075548285324"><ele>123.5</ele><time>2026-03-30T17:05:38Z</time></trkpt><trkpt lat="39.308312619983234" lon="8.438230960042839"><ele>125.25</ele><time>2026-03-30T17:05:39Z</time></trkpt><trkpt lat="39.308329517608335" lon="8.438389478383227"><ele>127.0</ele><time>2026-03-30T17:05:40Z</time></trkpt><trkpt lat="39.308378886433864" lon="8.438546032564286"><ele>127.0</ele><time>2026-03-30T17:05:41Z</time></trkpt><trkpt lat="39.3084226102802" lon="8.438711127347636"><ele>127.0</ele><time>2026-03-30T17:05:42Z</time></trkpt><trkpt lat="39.30847853295191" lon="8.438871112188103"><ele>127.0</ele><time>2026-03-30T17:05:43Z</time></trkpt><trkpt lat="39.30853261346208" lon="8.439034487729081"><ele>127.0</ele><time>2026-03-30T17:05:44Z</time></trkpt><trkpt lat="39.30857727502256" lon="8.43919578494592"><ele>126.75</ele><time>2026-03-30T17:05:45Z</time></trkpt><trkpt lat="39.30859150391274" lon="8.439356002659515"><ele>126.5</ele><time>2026-03-30T17:05:46Z</time></trkpt><trkpt lat="39.308566265866105" lon="8.439507477681875"><ele>126.25</ele><time>2026-03-30T17:05:47Z</time></trkpt><trkpt lat="39.30850204145304" lon="8.439633000325133"><ele>126.0</ele><time>2026-03-30T17:05:48Z</time></trkpt><trkpt lat="39.30840557304737" lon="8.439700859956043"><ele>128.0</ele><time>2026-03-30T17:05:49Z</time></trkpt><trkpt lat="39.308297166551036" lon="8.43972375815632"><ele>130.0</ele><time>2026-03-30T17:05:50Z</time></trkpt><trkpt lat="39.3081761989681" lon="8.439713945693411"><ele>132.0</ele><time>2026-03-30T17:05:51Z</time></trkpt><trkpt lat="39.308046264513735" lon="8.43971455182561"><ele>134.0</ele><time>2026-03-30T17:05:52Z</time></trkpt><trkpt lat="39.307913625923504" lon="8.439685511408308"><ele>134.25</ele><time>2026-03-30T17:05:53Z</time></trkpt><trkpt lat="39.307775236467705" lon="8.439664029961554"><ele>134.5</ele><time>2026-03-30T17:05:54Z</time></trkpt><trkpt lat="39.30763801118328" lon="8.439641204172359"><ele>134.75</ele><time>2026-03-30T17:05:55Z</time></trkpt><trkpt lat="39.307499710089274" lon="8.439599105090004"><ele>135.0</ele><time>2026-03-30T17:05:56Z</time></trkpt><trkpt lat="39.30737215219435" lon="8.439527328626134"><ele>130.5</ele><time>2026-03-30T17:05:57Z</time></trkpt><trkpt lat="39.307249762580696" lon="8.439448656414521"><ele>126.0</ele><time>2026-03-30T17:05:58Z</time></trkpt><trkpt lat="39.307132908971475" lon="8.439369172324335"><ele>121.5</ele><time>2026-03-30T17:05:59Z</time></trkpt><trkpt lat="39.30702284726337" lon="8.439301656080659"><ele>117.0</ele><time>2026-03-30T17:06:00Z</time></trkpt><trkpt lat="39.306929192376835" lon="8.439272444617806"><ele>116.8</ele><time>2026-03-30T17:06:01Z</time></trkpt><trkpt lat="39.30683756973297" lon="8.439302262123462"><ele>116.6</ele><time>2026-03-30T17:06:02Z</time></trkpt><trkpt lat="39.30676740595651" lon="8.439401415308886"><ele>116.39999999999999</ele><time>2026-03-30T17:06:03Z</time></trkpt><trkpt lat="39.30673184231812" lon="8.43953259070398"><ele>116.19999999999999</ele><time>2026-03-30T17:06:04Z</time></trkpt><trkpt lat="39.306716478342615" lon="8.439668335994092"><ele>116.0</ele><time>2026-03-30T17:06:05Z</time></trkpt><trkpt lat="39.30668627704876" lon="8.43980910845326"><ele>117.6</ele><time>2026-03-30T17:06:06Z</time></trkpt><trkpt lat="39.306671443885726" lon="8.439952358983547"><ele>119.19999999999999</ele><time>2026-03-30T17:06:07Z</time></trkpt><trkpt lat="39.306673774185164" lon="8.440102219353072"><ele>120.80000000000001</ele><time>2026-03-30T17:06:08Z</time></trkpt><trkpt lat="39.30665788200051" lon="8.440244057778857"><ele>122.4</ele><time>2026-03-30T17:06:09Z</time></trkpt><trkpt lat="39.30664680611021" lon="8.440381528339817"><ele>124.0</ele><time>2026-03-30T17:06:10Z</time></trkpt><trkpt lat="39.30663083919891" lon="8.440497948028435"><ele>124.83333333333334</ele><time>2026-03-30T17:06:11Z</time></trkpt><trkpt lat="39.306603770150595" lon="8.440596080727724"><ele>125.66666666666667</ele><time>2026-03-30T17:06:12Z</time></trkpt><trkpt lat="39.30652916913517" lon="8.440655975910609"><ele>126.5</ele><time>2026-03-30T17:06:12.999Z</time></trkpt><trkpt lat="39.30643841174341" lon="8.44066058424858"><ele>127.33333333333334</ele><time>2026-03-30T17:06:13.999Z</time></trkpt><trkpt lat="39.30635561955677" lon="8.440602231600806"><ele>128.16666666666666</ele><time>2026-03-30T17:06:14.999Z</time></trkpt><trkpt lat="39.30630106413722" lon="8.440504365530234"><ele>129.0</ele><time>2026-03-30T17:06:15.999Z</time></trkpt><trkpt lat="39.306268380513785" lon="8.440387621019221"><ele>131.8</ele><time>2026-03-30T17:06:16.999Z</time></trkpt><trkpt lat="39.30623052927318" lon="8.440269632084073"><ele>134.60000000000002</ele><time>2026-03-30T17:06:17.999Z</time></trkpt><trkpt lat="39.30618746645817" lon="8.44015080430082"><ele>137.4</ele><time>2026-03-30T17:06:18.999Z</time></trkpt><trkpt lat="39.30615762594601" lon="8.440022110982175"><ele>140.20000000000002</ele><time>2026-03-30T17:06:19.999Z</time></trkpt><trkpt lat="39.306158900388425" lon="8.439881127472608"><ele>143.0</ele><time>2026-03-30T17:06:20.999Z</time></trkpt><trkpt lat="39.30619452188683" lon="8.4397427318935"><ele>140.75</ele><time>2026-03-30T17:06:21.999Z</time></trkpt><trkpt lat="39.306220761891566" lon="8.43959940946702"><ele>138.5</ele><time>2026-03-30T17:06:22.999Z</time></trkpt><trkpt lat="39.30621663755519" lon="8.43944564227624"><ele>136.25</ele><time>2026-03-30T17:06:23.999Z</time></trkpt><trkpt lat="39.30619260196562" lon="8.439293055847878"><ele>134.0</ele><time>2026-03-30T17:06:24.999Z</time></trkpt><trkpt lat="39.30617723842691" lon="8.439145207381188"><ele>134.0</ele><time>2026-03-30T17:06:25.999Z</time></trkpt><trkpt lat="39.30610464893606" lon="8.43899866581407"><ele>134.0</ele><time>2026-03-30T17:06:26.999Z</time></trkpt><trkpt lat="39.306010588193494" lon="8.438875301054585"><ele>134.0</ele><time>2026-03-30T17:06:27.999Z</time></trkpt><trkpt lat="39.30593697315653" lon="8.438761177728747"><ele>134.0</ele><time>2026-03-30T17:06:28.999Z</time></trkpt><trkpt lat="39.30590417728031" lon="8.438643134467943"><ele>133.6</ele><time>2026-03-30T17:06:29.999Z</time></trkpt><trkpt lat="39.30590435693386" lon="8.438533966636408"><ele>133.2</ele><time>2026-03-30T17:06:30.999Z</time></trkpt><trkpt lat="39.30591106316883" lon="8.438434978919624"><ele>132.79999999999998</ele><time>2026-03-30T17:06:31.999Z</time></trkpt><trkpt lat="39.30593059973153" lon="8.438274366789509"><ele>132.4</ele><time>2026-03-30T17:06:33Z</time></trkpt><trkpt lat="39.30596483427449" lon="8.438128097714936"><ele>132.0</ele><time>2026-03-30T17:06:34Z</time></trkpt><trkpt lat="39.30601397455212" lon="8.438000706012785"><ele>135.25</ele><time>2026-03-30T17:06:35Z</time></trkpt><trkpt lat="39.306077432859894" lon="8.43788118306491"><ele>138.5</ele><time>2026-03-30T17:06:36Z</time></trkpt><trkpt lat="39.30615294632919" lon="8.437775287107593"><ele>141.75</ele><time>2026-03-30T17:06:37Z</time></trkpt><trkpt lat="39.306250349265405" lon="8.437702096935892"><ele>145.0</ele><time>2026-03-30T17:06:38Z</time></trkpt><trkpt lat="39.30636061689496" lon="8.437627044466183"><ele>135.75</ele><time>2026-03-30T17:06:39Z</time></trkpt><trkpt lat="39.30647187342844" lon="8.437568761733948"><ele>126.5</ele><time>2026-03-30T17:06:40Z</time></trkpt><trkpt lat="39.30659073947122" lon="8.437537341587612"><ele>117.25</ele><time>2026-03-30T17:06:41Z</time></trkpt><trkpt lat="39.30671879055854" lon="8.43748187143976"><ele>108.0</ele><time>2026-03-30T17:06:42Z</time></trkpt><trkpt lat="39.30683756573472" lon="8.437441999568891"><ele>108.0</ele><time>2026-03-30T17:06:43Z</time></trkpt><trkpt lat="39.306929706580874" lon="8.437374014525838"><ele>108.0</ele><time>2026-03-30T17:06:44Z</time></trkpt><trkpt lat="39.306978081162256" lon="8.437284517576966"><ele>108.0</ele><time>2026-03-30T17:06:45Z</time></trkpt><trkpt lat="39.30698010615619" lon="8.437190345104101"><ele>108.0</ele><time>2026-03-30T17:06:46Z</time></trkpt><trkpt lat="39.306949835672974" lon="8.437089844895896"><ele>108.0</ele><time>2026-03-30T17:06:47Z</time></trkpt><trkpt lat="39.30692678033384" lon="8.436985851378044"><ele>108.0</ele><time>2026-03-30T17:06:48Z</time></trkpt><trkpt lat="39.3068922410451" lon="8.43687725538832"><ele>109.60000000000001</ele><time>2026-03-30T17:06:49Z</time></trkpt><trkpt lat="39.30683512232574" lon="8.436768100059263"><ele>111.20000000000002</ele><time>2026-03-30T17:06:50Z</time></trkpt><trkpt lat="39.3067740410514" lon="8.436666483395557"><ele>112.8</ele><time>2026-03-30T17:06:51Z</time></trkpt><trkpt lat="39.30671597661756" lon="8.436553527580028"><ele>114.4</ele><time>2026-03-30T17:06:52Z</time></trkpt><trkpt lat="39.30669881187834" lon="8.436429409417402"><ele>116.0</ele><time>2026-03-30T17:06:53Z</time></trkpt><trkpt lat="39.30675918721997" lon="8.436332381894246"><ele>112.6</ele><time>2026-03-30T17:06:54Z</time></trkpt><trkpt lat="39.30679439912143" lon="8.436235511436106"><ele>109.19999999999999</ele><time>2026-03-30T17:06:55Z</time></trkpt><trkpt lat="39.306831725742526" lon="8.43612915859108"><ele>105.80000000000001</ele><time>2026-03-30T17:06:56Z</time></trkpt><trkpt lat="39.306837694751835" lon="8.436026370653602"><ele>102.4</ele><time>2026-03-30T17:06:57Z</time></trkpt><trkpt lat="39.306798097413754" lon="8.435925337471371"><ele>99.0</ele><time>2026-03-30T17:06:58Z</time></trkpt><trkpt lat="39.30668451678954" lon="8.435883110909627"><ele>99.0</ele><time>2026-03-30T17:06:59Z</time></trkpt><trkpt lat="39.30660415003795" lon="8.435809941850586"><ele>99.0</ele><time>2026-03-30T17:07:00Z</time></trkpt><trkpt lat="39.306524998391595" lon="8.435736827781902"><ele>99.0</ele><time>2026-03-30T17:07:01Z</time></trkpt><trkpt lat="39.306439690761906" lon="8.43565294522498"><ele>99.0</ele><time>2026-03-30T17:07:02Z</time></trkpt><trkpt lat="39.3063569271982" lon="8.435570765907572"><ele>99.0</ele><time>2026-03-30T17:07:03Z</time></trkpt><trkpt lat="39.30626650196874" lon="8.435483810694679"><ele>95.2</ele><time>2026-03-30T17:07:04Z</time></trkpt><trkpt lat="39.306168382580495" lon="8.435416500034453"><ele>91.4</ele><time>2026-03-30T17:07:05Z</time></trkpt><trkpt lat="39.30606439624616" lon="8.435377292740739"><ele>87.6</ele><time>2026-03-30T17:07:06Z</time></trkpt><trkpt lat="39.30595085059282" lon="8.435397645776241"><ele>83.8</ele><time>2026-03-30T17:07:07Z</time></trkpt><trkpt lat="39.30584306741899" lon="8.435415647847146"><ele>80.0</ele><time>2026-03-30T17:07:08Z</time></trkpt><trkpt lat="39.305734808923916" lon="8.435461046144756"><ele>84.0</ele><time>2026-03-30T17:07:09Z</time></trkpt><trkpt lat="39.30563183235911" lon="8.43552286637746"><ele>88.0</ele><time>2026-03-30T17:07:10Z</time></trkpt><trkpt lat="39.305519390366555" lon="8.435563413984093"><ele>92.0</ele><time>2026-03-30T17:07:11Z</time></trkpt><trkpt lat="39.30541475705042" lon="8.435618541592012"><ele>96.0</ele><time>2026-03-30T17:07:12Z</time></trkpt><trkpt lat="39.30530314142531" lon="8.435678333018172"><ele>96.0</ele><time>2026-03-30T17:07:13Z</time></trkpt><trkpt lat="39.30519403383006" lon="8.43575641809818"><ele>96.0</ele><time>2026-03-30T17:07:14Z</time></trkpt><trkpt lat="39.30510679539997" lon="8.435874866682676"><ele>96.0</ele><time>2026-03-30T17:07:15Z</time></trkpt><trkpt lat="39.3050196652296" lon="8.435984363700335"><ele>96.0</ele><time>2026-03-30T17:07:16Z</time></trkpt><trkpt lat="39.30490669057614" lon="8.436027144157164"><ele>96.0</ele><time>2026-03-30T17:07:17Z</time></trkpt><trkpt lat="39.30478712882567" lon="8.436046033994861"><ele>96.0</ele><time>2026-03-30T17:07:18Z</time></trkpt><trkpt lat="39.304667847867194" lon="8.436087249845443"><ele>96.0</ele><time>2026-03-30T17:07:19Z</time></trkpt><trkpt lat="39.30454700039095" lon="8.436129006901494"><ele>96.0</ele><time>2026-03-30T17:07:20Z</time></trkpt><trkpt lat="39.304421975626774" lon="8.436172207384203"><ele>101.0</ele><time>2026-03-30T17:07:21Z</time></trkpt><trkpt lat="39.30429641881902" lon="8.436215591700737"><ele>106.0</ele><time>2026-03-30T17:07:22Z</time></trkpt><trkpt lat="39.30416781201473" lon="8.436260029889517"><ele>111.0</ele><time>2026-03-30T17:07:23Z</time></trkpt><trkpt lat="39.30404039809904" lon="8.436304055919205"><ele>116.0</ele><time>2026-03-30T17:07:24Z</time></trkpt><trkpt lat="39.30391903052348" lon="8.436345427678535"><ele>112.0</ele><time>2026-03-30T17:07:25Z</time></trkpt><trkpt lat="39.30380323267584" lon="8.436384708743867"><ele>108.0</ele><time>2026-03-30T17:07:26Z</time></trkpt><trkpt lat="39.30368418863145" lon="8.436426717064395"><ele>104.0</ele><time>2026-03-30T17:07:27Z</time></trkpt><trkpt lat="39.30356320570349" lon="8.436472854188446"><ele>100.0</ele><time>2026-03-30T17:07:28Z</time></trkpt><trkpt lat="39.30345218477059" lon="8.436529328625218"><ele>100.0</ele><time>2026-03-30T17:07:29Z</time></trkpt><trkpt lat="39.30333769395607" lon="8.436584254475848"><ele>100.0</ele><time>2026-03-30T17:07:30Z</time></trkpt><trkpt lat="39.303222078299605" lon="8.436602244494805"><ele>100.0</ele><time>2026-03-30T17:07:31Z</time></trkpt><trkpt lat="39.30311935896649" lon="8.436577786969595"><ele>100.0</ele><time>2026-03-30T17:07:32Z</time></trkpt><trkpt lat="39.30301104869862" lon="8.436567978507963"><ele>96.25</ele><time>2026-03-30T17:07:33Z</time></trkpt><trkpt lat="39.302902102052386" lon="8.436597631476614"><ele>92.5</ele><time>2026-03-30T17:07:34Z</time></trkpt><trkpt lat="39.302803603605994" lon="8.436662609357242"><ele>88.75</ele><time>2026-03-30T17:07:35Z</time></trkpt><trkpt lat="39.302714057786574" lon="8.436778858933952"><ele>85.0</ele><time>2026-03-30T17:07:36Z</time></trkpt><trkpt lat="39.302616429543406" lon="8.436877121103901"><ele>85.0</ele><time>2026-03-30T17:07:37Z</time></trkpt><trkpt lat="39.30253546731897" lon="8.436971955871844"><ele>85.0</ele><time>2026-03-30T17:07:38Z</time></trkpt><trkpt lat="39.30245979741638" lon="8.437033653223624"><ele>85.0</ele><time>2026-03-30T17:07:39Z</time></trkpt><trkpt lat="39.30238499771047" lon="8.437071736809033"><ele>85.0</ele><time>2026-03-30T17:07:40Z</time></trkpt><trkpt lat="39.30229603259228" lon="8.43701890178289"><ele>85.0</ele><time>2026-03-30T17:07:41Z</time></trkpt><trkpt lat="39.30223850506553" lon="8.436894410843752"><ele>88.8</ele><time>2026-03-30T17:07:42Z</time></trkpt><trkpt lat="39.30216790497554" lon="8.436804950413148"><ele>92.6</ele><time>2026-03-30T17:07:43Z</time></trkpt><trkpt lat="39.30209280708191" lon="8.43670988988004"><ele>96.4</ele><time>2026-03-30T17:07:44Z</time></trkpt><trkpt lat="39.302008808664716" lon="8.43660424165301"><ele>100.2</ele><time>2026-03-30T17:07:45Z</time></trkpt><trkpt lat="39.301924412766496" lon="8.4364980947872"><ele>104.0</ele><time>2026-03-30T17:07:46Z</time></trkpt><trkpt lat="39.301827706807224" lon="8.436404313248225"><ele>95.25</ele><time>2026-03-30T17:07:47Z</time></trkpt><trkpt lat="39.30174260271785" lon="8.436289308895162"><ele>86.5</ele><time>2026-03-30T17:07:48Z</time></trkpt><trkpt lat="39.30165224074843" lon="8.43618009842433"><ele>77.75</ele><time>2026-03-30T17:07:49Z</time></trkpt><trkpt lat="39.30156070468825" lon="8.436084310746544"><ele>69.0</ele><time>2026-03-30T17:07:50Z</time></trkpt><trkpt lat="39.30146126114657" lon="8.436010653370412"><ele>71.0</ele><time>2026-03-30T17:07:51Z</time></trkpt><trkpt lat="39.30134722953399" lon="8.435964087215721"><ele>73.0</ele><time>2026-03-30T17:07:52Z</time></trkpt><trkpt lat="39.30123278289264" lon="8.43593250977828"><ele>75.0</ele><time>2026-03-30T17:07:53Z</time></trkpt><trkpt lat="39.301115786638825" lon="8.435893750553072"><ele>77.0</ele><time>2026-03-30T17:07:54Z</time></trkpt><trkpt lat="39.30099816355412" lon="8.435865575519335"><ele>77.0</ele><time>2026-03-30T17:07:55Z</time></trkpt><trkpt lat="39.30087903730126" lon="8.435830503555954"><ele>77.0</ele><time>2026-03-30T17:07:56Z</time></trkpt><trkpt lat="39.30075936275703" lon="8.435792828437613"><ele>77.0</ele><time>2026-03-30T17:07:57Z</time></trkpt><trkpt lat="39.3006371023877" lon="8.435766773231624"><ele>77.0</ele><time>2026-03-30T17:07:58Z</time></trkpt><trkpt lat="39.30050880462826" lon="8.435771618044788"><ele>75.0</ele><time>2026-03-30T17:07:59Z</time></trkpt><trkpt lat="39.30038497161198" lon="8.43579886076069"><ele>73.0</ele><time>2026-03-30T17:08:00Z</time></trkpt><trkpt lat="39.300279326069386" lon="8.435840034451754"><ele>71.0</ele><time>2026-03-30T17:08:01Z</time></trkpt><trkpt lat="39.300195623212616" lon="8.435903040784513"><ele>69.0</ele><time>2026-03-30T17:08:02Z</time></trkpt><trkpt lat="39.30014223191954" lon="8.435991098410584"><ele>67.0</ele><time>2026-03-30T17:08:03Z</time></trkpt><trkpt lat="39.30013145819133" lon="8.436112493698253"><ele>67.0</ele><time>2026-03-30T17:08:04Z</time></trkpt><trkpt lat="39.300144313996995" lon="8.436239906288936"><ele>67.0</ele><time>2026-03-30T17:08:05Z</time></trkpt><trkpt lat="39.300092625684826" lon="8.43633457431393"><ele>67.0</ele><time>2026-03-30T17:08:06Z</time></trkpt><trkpt lat="39.30000799375187" lon="8.43634285017727"><ele>67.0</ele><time>2026-03-30T17:08:07Z</time></trkpt><trkpt lat="39.29992334031401" lon="8.436337181548678"><ele>67.0</ele><time>2026-03-30T17:08:08Z</time></trkpt><trkpt lat="39.2998466349449" lon="8.436268095323673"><ele>67.0</ele><time>2026-03-30T17:08:09Z</time></trkpt><trkpt lat="39.299758983786774" lon="8.43622218067048"><ele>67.0</ele><time>2026-03-30T17:08:10Z</time></trkpt><trkpt lat="39.29966712648909" lon="8.436174056385687"><ele>67.0</ele><time>2026-03-30T17:08:11Z</time></trkpt><trkpt lat="39.29956136567128" lon="8.436141733810231"><ele>67.0</ele><time>2026-03-30T17:08:12Z</time></trkpt><trkpt lat="39.299459477407176" lon="8.43606957426471"><ele>67.0</ele><time>2026-03-30T17:08:13Z</time></trkpt><trkpt lat="39.29936389328852" lon="8.435993309604536"><ele>68.2</ele><time>2026-03-30T17:08:14Z</time></trkpt><trkpt lat="39.29929543494954" lon="8.435868797594317"><ele>69.4</ele><time>2026-03-30T17:08:15Z</time></trkpt><trkpt lat="39.29924647976405" lon="8.435737358439214"><ele>70.6</ele><time>2026-03-30T17:08:16Z</time></trkpt><trkpt lat="39.29918808119819" lon="8.435633636683853"><ele>71.8</ele><time>2026-03-30T17:08:17Z</time></trkpt><trkpt lat="39.299100367006496" lon="8.435568783017704"><ele>73.0</ele><time>2026-03-30T17:08:18Z</time></trkpt><trkpt lat="39.29899110456496" lon="8.435545060987872"><ele>74.0</ele><time>2026-03-30T17:08:19Z</time></trkpt><trkpt lat="39.298882275003784" lon="8.435543766815156"><ele>75.0</ele><time>2026-03-30T17:08:20Z</time></trkpt><trkpt lat="39.298773399423496" lon="8.435517497698056"><ele>76.0</ele><time>2026-03-30T17:08:21Z</time></trkpt><trkpt lat="39.298661552245306" lon="8.435504783490078"><ele>77.0</ele><time>2026-03-30T17:08:22Z</time></trkpt><trkpt lat="39.29854646356125" lon="8.435503171688643"><ele>78.0</ele><time>2026-03-30T17:08:23Z</time></trkpt><trkpt lat="39.29843134260957" lon="8.435540043026833"><ele>78.0</ele><time>2026-03-30T17:08:24Z</time></trkpt><trkpt lat="39.298311491085784" lon="8.435555434212262"><ele>78.0</ele><time>2026-03-30T17:08:25Z</time></trkpt><trkpt lat="39.29819278237705" lon="8.43557455809995"><ele>78.0</ele><time>2026-03-30T17:08:26Z</time></trkpt><trkpt lat="39.298073226693575" lon="8.435601945039982"><ele>78.0</ele><time>2026-03-30T17:08:27Z</time></trkpt><trkpt lat="39.29795315465966" lon="8.435631043700916"><ele>75.0</ele><time>2026-03-30T17:08:28Z</time></trkpt><trkpt lat="39.2978262924676" lon="8.43565177682026"><ele>72.0</ele><time>2026-03-30T17:08:29Z</time></trkpt><trkpt lat="39.29770125389558" lon="8.435676857190183"><ele>69.0</ele><time>2026-03-30T17:08:30Z</time></trkpt><trkpt lat="39.29756635896088" lon="8.435692168713956"><ele>66.0</ele><time>2026-03-30T17:08:31Z</time></trkpt><trkpt lat="39.29744674069436" lon="8.435711995623686"><ele>66.0</ele><time>2026-03-30T17:08:32Z</time></trkpt><trkpt lat="39.297326838135724" lon="8.435730691017794"><ele>66.0</ele><time>2026-03-30T17:08:33Z</time></trkpt><trkpt lat="39.297208544531856" lon="8.435756253379424"><ele>66.0</ele><time>2026-03-30T17:08:34Z</time></trkpt><trkpt lat="39.297088243925906" lon="8.435781125757774"><ele>66.0</ele><time>2026-03-30T17:08:35Z</time></trkpt><trkpt lat="39.29696871868511" lon="8.435809497840847"><ele>64.0</ele><time>2026-03-30T17:08:36Z</time></trkpt><trkpt lat="39.2968435906795" lon="8.43582702350627"><ele>62.0</ele><time>2026-03-30T17:08:37Z</time></trkpt><trkpt lat="39.29671807257641" lon="8.435843724200035"><ele>60.0</ele><time>2026-03-30T17:08:38Z</time></trkpt><trkpt lat="39.29659590718126" lon="8.435873237303413"><ele>58.0</ele><time>2026-03-30T17:08:39.001Z</time></trkpt><trkpt lat="39.296467070646855" lon="8.43590608042809"><ele>52.75</ele><time>2026-03-30T17:08:40.001Z</time></trkpt><trkpt lat="39.29633937171383" lon="8.435948847072751"><ele>47.5</ele><time>2026-03-30T17:08:41.001Z</time></trkpt><trkpt lat="39.296208066247786" lon="8.43599047968277"><ele>42.25</ele><time>2026-03-30T17:08:42.001Z</time></trkpt><trkpt lat="39.296079678050226" lon="8.436050949913612"><ele>37.0</ele><time>2026-03-30T17:08:43.001Z</time></trkpt><trkpt lat="39.29595142809502" lon="8.436111311408828"><ele>37.0</ele><time>2026-03-30T17:08:44Z</time></trkpt><trkpt lat="39.295827769665514" lon="8.436171111668832"><ele>37.0</ele><time>2026-03-30T17:08:45Z</time></trkpt><trkpt lat="39.29570474760461" lon="8.43623199492221"><ele>37.0</ele><time>2026-03-30T17:08:46Z</time></trkpt><trkpt lat="39.29558823046135" lon="8.436291357398519"><ele>37.0</ele><time>2026-03-30T17:08:47Z</time></trkpt><trkpt lat="39.2954735158775" lon="8.436350834498041"><ele>39.5</ele><time>2026-03-30T17:08:48Z</time></trkpt><trkpt lat="39.295356725153795" lon="8.436411096444042"><ele>42.0</ele><time>2026-03-30T17:08:49Z</time></trkpt><trkpt lat="39.29523894153595" lon="8.436471008023165"><ele>44.5</ele><time>2026-03-30T17:08:50Z</time></trkpt><trkpt lat="39.295123051890684" lon="8.436536617210407"><ele>47.0</ele><time>2026-03-30T17:08:51Z</time></trkpt><trkpt lat="39.29501013179395" lon="8.436613591830778"><ele>47.0</ele><time>2026-03-30T17:08:52Z</time></trkpt><trkpt lat="39.294896120452876" lon="8.436697106512725"><ele>47.0</ele><time>2026-03-30T17:08:53Z</time></trkpt><trkpt lat="39.29477724855399" lon="8.436770376003738"><ele>47.0</ele><time>2026-03-30T17:08:54Z</time></trkpt><trkpt lat="39.29465048597083" lon="8.436796675106724"><ele>47.0</ele><time>2026-03-30T17:08:55Z</time></trkpt><trkpt lat="39.29452718310037" lon="8.43684310139028"><ele>47.5</ele><time>2026-03-30T17:08:56Z</time></trkpt><trkpt lat="39.294422804101025" lon="8.436928517531806"><ele>48.0</ele><time>2026-03-30T17:08:57Z</time></trkpt><trkpt lat="39.29432380717568" lon="8.437027633951484"><ele>48.5</ele><time>2026-03-30T17:08:58Z</time></trkpt><trkpt lat="39.29422714985286" lon="8.437121157995055"><ele>49.0</ele><time>2026-03-30T17:08:59Z</time></trkpt><trkpt lat="39.294133346040645" lon="8.437220866972313"><ele>49.0</ele><time>2026-03-30T17:09:00Z</time></trkpt><trkpt lat="39.294040241673" lon="8.43731660241293"><ele>49.0</ele><time>2026-03-30T17:09:01Z</time></trkpt><trkpt lat="39.29393917919877" lon="8.437405056961484"><ele>49.0</ele><time>2026-03-30T17:09:02Z</time></trkpt><trkpt lat="39.293828979928044" lon="8.437465800097193"><ele>49.0</ele><time>2026-03-30T17:09:03Z</time></trkpt><trkpt lat="39.293707812882765" lon="8.43747366341828"><ele>46.25</ele><time>2026-03-30T17:09:04Z</time></trkpt><trkpt lat="39.29359063573872" lon="8.43742583250962"><ele>43.5</ele><time>2026-03-30T17:09:05Z</time></trkpt><trkpt lat="39.29347116323796" lon="8.437396646196168"><ele>40.75</ele><time>2026-03-30T17:09:06Z</time></trkpt><trkpt lat="39.293361337719304" lon="8.437370632700958"><ele>38.0</ele><time>2026-03-30T17:09:07Z</time></trkpt><trkpt lat="39.29324238878823" lon="8.437364156336955"><ele>38.0</ele><time>2026-03-30T17:09:08Z</time></trkpt><trkpt lat="39.29312709935163" lon="8.437376372641458"><ele>38.0</ele><time>2026-03-30T17:09:09Z</time></trkpt><trkpt lat="39.293012606963714" lon="8.43738497200138"><ele>38.0</ele><time>2026-03-30T17:09:10Z</time></trkpt><trkpt lat="39.29289841671698" lon="8.437392695865576"><ele>38.0</ele><time>2026-03-30T17:09:11Z</time></trkpt><trkpt lat="39.292789649832905" lon="8.437417747019403"><ele>35.25</ele><time>2026-03-30T17:09:12Z</time></trkpt><trkpt lat="39.29267686704701" lon="8.437438223182792"><ele>32.5</ele><time>2026-03-30T17:09:13Z</time></trkpt><trkpt lat="39.2925730760468" lon="8.43751058343067"><ele>29.75</ele><time>2026-03-30T17:09:14Z</time></trkpt><trkpt lat="39.29248346733026" lon="8.437600051466294"><ele>27.0</ele><time>2026-03-30T17:09:15Z</time></trkpt><trkpt lat="39.292399996881564" lon="8.437698757983732"><ele>27.0</ele><time>2026-03-30T17:09:16Z</time></trkpt><trkpt lat="39.292319258361324" lon="8.43779968018553"><ele>27.000000000000004</ele><time>2026-03-30T17:09:17Z</time></trkpt><trkpt lat="39.29223627934683" lon="8.437893651515033"><ele>27.000000000000004</ele><time>2026-03-30T17:09:18Z</time></trkpt><trkpt lat="39.292146674867645" lon="8.437983268784066"><ele>27.0</ele><time>2026-03-30T17:09:19Z</time></trkpt><trkpt lat="39.29205417901955" lon="8.438065075297954"><ele>27.0</ele><time>2026-03-30T17:09:20Z</time></trkpt><trkpt lat="39.29195510157581" lon="8.438136139796306"><ele>27.0</ele><time>2026-03-30T17:09:21Z</time></trkpt><trkpt lat="39.29184991902788" lon="8.438203913947639"><ele>27.0</ele><time>2026-03-30T17:09:22Z</time></trkpt><trkpt lat="39.29174554535608" lon="8.43827606820996"><ele>27.0</ele><time>2026-03-30T17:09:23Z</time></trkpt><trkpt lat="39.29163797021172" lon="8.438353473845176"><ele>27.0</ele><time>2026-03-30T17:09:24Z</time></trkpt><trkpt lat="39.29153755461154" lon="8.438451361506734"><ele>24.75</ele><time>2026-03-30T17:09:25Z</time></trkpt><trkpt lat="39.29141922482195" lon="8.438520001121203"><ele>22.5</ele><time>2026-03-30T17:09:26Z</time></trkpt><trkpt lat="39.29128976167936" lon="8.438539766883746"><ele>20.25</ele><time>2026-03-30T17:09:27Z</time></trkpt><trkpt lat="39.291163118334005" lon="8.438571923212487"><ele>18.0</ele><time>2026-03-30T17:09:28Z</time></trkpt><trkpt lat="39.29103611366221" lon="8.438572047526373"><ele>18.0</ele><time>2026-03-30T17:09:29Z</time></trkpt><trkpt lat="39.290909253877174" lon="8.438570231166855"><ele>18.0</ele><time>2026-03-30T17:09:30Z</time></trkpt><trkpt lat="39.29078319408892" lon="8.438564733320122"><ele>18.0</ele><time>2026-03-30T17:09:31Z</time></trkpt><trkpt lat="39.29065820720944" lon="8.438559899630754"><ele>18.0</ele><time>2026-03-30T17:09:32Z</time></trkpt><trkpt lat="39.2905352331657" lon="8.438559492755855"><ele>16.25</ele><time>2026-03-30T17:09:33Z</time></trkpt><trkpt lat="39.29041413731921" lon="8.43856885146726"><ele>14.5</ele><time>2026-03-30T17:09:34Z</time></trkpt><trkpt lat="39.290296941091455" lon="8.4385973262907"><ele>12.75</ele><time>2026-03-30T17:09:35Z</time></trkpt><trkpt lat="39.29018328273732" lon="8.43863925081947"><ele>11.0</ele><time>2026-03-30T17:09:36Z</time></trkpt><trkpt lat="39.29006467064468" lon="8.438654108797868"><ele>11.0</ele><time>2026-03-30T17:09:37Z</time></trkpt><trkpt lat="39.28995163903406" lon="8.438708062366231"><ele>11.0</ele><time>2026-03-30T17:09:38Z</time></trkpt><trkpt lat="39.289835229525025" lon="8.438733706015356"><ele>11.0</ele><time>2026-03-30T17:09:39Z</time></trkpt><trkpt lat="39.28972233182756" lon="8.438759452720161"><ele>11.0</ele><time>2026-03-30T17:09:40Z</time></trkpt><trkpt lat="39.28961181940541" lon="8.438792401699095"><ele>11.200000000000001</ele><time>2026-03-30T17:09:41Z</time></trkpt><trkpt lat="39.28950565418337" lon="8.438826935942675"><ele>11.4</ele><time>2026-03-30T17:09:42Z</time></trkpt><trkpt lat="39.28940179153855" lon="8.438863485696364"><ele>11.6</ele><time>2026-03-30T17:09:43Z</time></trkpt><trkpt lat="39.289299828130815" lon="8.438900490678035"><ele>11.8</ele><time>2026-03-30T17:09:44Z</time></trkpt><trkpt lat="39.28919789283431" lon="8.438942423623667"><ele>12.0</ele><time>2026-03-30T17:09:45Z</time></trkpt><trkpt lat="39.289097566828445" lon="8.438991234361778"><ele>12.0</ele><time>2026-03-30T17:09:46Z</time></trkpt><trkpt lat="39.28900062563657" lon="8.439050575153342"><ele>12.0</ele><time>2026-03-30T17:09:47Z</time></trkpt><trkpt lat="39.288908130347416" lon="8.439119105241895"><ele>12.0</ele><time>2026-03-30T17:09:48Z</time></trkpt><trkpt lat="39.28881889075902" lon="8.439198922857448"><ele>12.0</ele><time>2026-03-30T17:09:49Z</time></trkpt><trkpt lat="39.28873367888455" lon="8.4392895642397"><ele>12.0</ele><time>2026-03-30T17:09:50Z</time></trkpt><trkpt lat="39.288652011910116" lon="8.439383349598295"><ele>12.2</ele><time>2026-03-30T17:09:51Z</time></trkpt><trkpt lat="39.28856866901293" lon="8.439472526405158"><ele>12.399999999999999</ele><time>2026-03-30T17:09:52Z</time></trkpt><trkpt lat="39.28848336591095" lon="8.439561228203942"><ele>12.600000000000001</ele><time>2026-03-30T17:09:53Z</time></trkpt><trkpt lat="39.28839833899766" lon="8.439648327559757"><ele>12.8</ele><time>2026-03-30T17:09:54Z</time></trkpt><trkpt lat="39.28831344085297" lon="8.439733495494888"><ele>13.0</ele><time>2026-03-30T17:09:55Z</time></trkpt><trkpt lat="39.28822858812316" lon="8.439820991685046"><ele>13.0</ele><time>2026-03-30T17:09:56Z</time></trkpt><trkpt lat="39.28814113907602" lon="8.43991483187879"><ele>13.0</ele><time>2026-03-30T17:09:57Z</time></trkpt><trkpt lat="39.2880487384206" lon="8.440010343195455"><ele>13.0</ele><time>2026-03-30T17:09:58Z</time></trkpt><trkpt lat="39.28795528657278" lon="8.440110877299695"><ele>13.0</ele><time>2026-03-30T17:09:59Z</time></trkpt><trkpt lat="39.28785998540034" lon="8.440216090692392"><ele>13.25</ele><time>2026-03-30T17:10:00Z</time></trkpt><trkpt lat="39.28776005539659" lon="8.4403229499285"><ele>13.5</ele><time>2026-03-30T17:10:01Z</time></trkpt><trkpt lat="39.28765907398792" lon="8.440435879656663"><ele>13.75</ele><time>2026-03-30T17:10:02Z</time></trkpt><trkpt lat="39.28755341947098" lon="8.440553667284995"><ele>14.0</ele><time>2026-03-30T17:10:03Z</time></trkpt><trkpt lat="39.2874338317601" lon="8.440664735641947"><ele>14.0</ele><time>2026-03-30T17:10:04Z</time></trkpt><trkpt lat="39.287316984471026" lon="8.440777844342728"><ele>14.0</ele><time>2026-03-30T17:10:05Z</time></trkpt><trkpt lat="39.287202559727" lon="8.440896745865567"><ele>14.0</ele><time>2026-03-30T17:10:06Z</time></trkpt><trkpt lat="39.28707977663232" lon="8.44101687698005"><ele>14.0</ele><time>2026-03-30T17:10:07Z</time></trkpt><trkpt lat="39.28695552644577" lon="8.441142681432735"><ele>14.0</ele><time>2026-03-30T17:10:08Z</time></trkpt><trkpt lat="39.28682948538569" lon="8.441271252602071"><ele>14.0</ele><time>2026-03-30T17:10:09Z</time></trkpt><trkpt lat="39.286706976984085" lon="8.44140436435763"><ele>14.0</ele><time>2026-03-30T17:10:10Z</time></trkpt><trkpt lat="39.28657787291665" lon="8.441532073395956"><ele>14.0</ele><time>2026-03-30T17:10:11Z</time></trkpt><trkpt lat="39.286468688248426" lon="8.441673186419676"><ele>14.0</ele><time>2026-03-30T17:10:12Z</time></trkpt><trkpt lat="39.28634008490097" lon="8.441808423014553"><ele>14.0</ele><time>2026-03-30T17:10:13Z</time></trkpt><trkpt lat="39.28620694925768" lon="8.441940883317308"><ele>14.333333333333334</ele><time>2026-03-30T17:10:14Z</time></trkpt><trkpt lat="39.28607202026402" lon="8.442073566444272"><ele>14.666666666666668</ele><time>2026-03-30T17:10:15Z</time></trkpt><trkpt lat="39.28593396668387" lon="8.442213041829968"><ele>15.0</ele><time>2026-03-30T17:10:16Z</time></trkpt><trkpt lat="39.285806088241394" lon="8.44237279598883"><ele>15.0</ele><time>2026-03-30T17:10:17Z</time></trkpt><trkpt lat="39.2856794060686" lon="8.442538051804789"><ele>15.0</ele><time>2026-03-30T17:10:18Z</time></trkpt><trkpt lat="39.285569612091855" lon="8.442726104438632"><ele>15.0</ele><time>2026-03-30T17:10:19Z</time></trkpt><trkpt lat="39.285458170773126" lon="8.442918047519704"><ele>14.666666666666668</ele><time>2026-03-30T17:10:20Z</time></trkpt><trkpt lat="39.28535422559233" lon="8.443117145808088"><ele>14.333333333333334</ele><time>2026-03-30T17:10:21Z</time></trkpt><trkpt lat="39.28524483750113" lon="8.443317710559505"><ele>14.0</ele><time>2026-03-30T17:10:22Z</time></trkpt><trkpt lat="39.28513288931117" lon="8.44352306949605"><ele>14.0</ele><time>2026-03-30T17:10:23Z</time></trkpt><trkpt lat="39.2850134896753" lon="8.443721483817061"><ele>14.0</ele><time>2026-03-30T17:10:24Z</time></trkpt><trkpt lat="39.284897377827065" lon="8.443924441881432"><ele>14.0</ele><time>2026-03-30T17:10:25Z</time></trkpt><trkpt lat="39.28478405087089" lon="8.444132607421"><ele>13.0</ele><time>2026-03-30T17:10:26Z</time></trkpt><trkpt lat="39.284686510777824" lon="8.444349589990368"><ele>12.0</ele><time>2026-03-30T17:10:27Z</time></trkpt><trkpt lat="39.28459800718861" lon="8.444574884602284"><ele>11.0</ele><time>2026-03-30T17:10:28Z</time></trkpt><trkpt lat="39.28451153496219" lon="8.44480721201222"><ele>11.0</ele><time>2026-03-30T17:10:29Z</time></trkpt><trkpt lat="39.28441926760469" lon="8.445043789601812"><ele>11.0</ele><time>2026-03-30T17:10:30Z</time></trkpt><trkpt lat="39.284318972510825" lon="8.445280097979659"><ele>11.0</ele><time>2026-03-30T17:10:31Z</time></trkpt><trkpt lat="39.284218840261374" lon="8.445519967297901"><ele>11.333333333333332</ele><time>2026-03-30T17:10:32Z</time></trkpt><trkpt lat="39.2841237927255" lon="8.445766097753609"><ele>11.666666666666666</ele><time>2026-03-30T17:10:33Z</time></trkpt><trkpt lat="39.28402188461998" lon="8.446010301886849"><ele>12.0</ele><time>2026-03-30T17:10:34Z</time></trkpt><trkpt lat="39.28390871375645" lon="8.446261753314909"><ele>11.333333333333334</ele><time>2026-03-30T17:10:35Z</time></trkpt><trkpt lat="39.283820272875744" lon="8.446513744770643"><ele>10.666666666666668</ele><time>2026-03-30T17:10:36Z</time></trkpt><trkpt lat="39.28371834350359" lon="8.44676219303617"><ele>10.0</ele><time>2026-03-30T17:10:37Z</time></trkpt><trkpt lat="39.28360304609426" lon="8.447002256252361"><ele>9.666666666666668</ele><time>2026-03-30T17:10:38Z</time></trkpt><trkpt lat="39.28349987558052" lon="8.447250572988988"><ele>9.333333333333334</ele><time>2026-03-30T17:10:39Z</time></trkpt><trkpt lat="39.283396948045535" lon="8.447500231011121"><ele>9.0</ele><time>2026-03-30T17:10:40Z</time></trkpt><trkpt lat="39.28329385625171" lon="8.447750289022183"><ele>9.0</ele><time>2026-03-30T17:10:40.999Z</time></trkpt><trkpt lat="39.28319109532756" lon="8.447997380679704"><ele>9.0</ele><time>2026-03-30T17:10:41.999Z</time></trkpt><trkpt lat="39.28308959661697" lon="8.44824942949828"><ele>9.0</ele><time>2026-03-30T17:10:42.999Z</time></trkpt><trkpt lat="39.2830085598413" lon="8.448513809733756"><ele>9.0</ele><time>2026-03-30T17:10:43.999Z</time></trkpt><trkpt lat="39.28291152074693" lon="8.448767951929398"><ele>9.0</ele><time>2026-03-30T17:10:45Z</time></trkpt><trkpt lat="39.282828092067426" lon="8.449030291903487"><ele>9.0</ele><time>2026-03-30T17:10:46Z</time></trkpt><trkpt lat="39.28274883738385" lon="8.449292378923154"><ele>9.333333333333334</ele><time>2026-03-30T17:10:47Z</time></trkpt><trkpt lat="39.28265045176222" lon="8.44953952339925"><ele>9.666666666666668</ele><time>2026-03-30T17:10:48Z</time></trkpt><trkpt lat="39.282581364928454" lon="8.449789034879108"><ele>10.0</ele><time>2026-03-30T17:10:49Z</time></trkpt><trkpt lat="39.282494019996726" lon="8.450016109130022"><ele>11.0</ele><time>2026-03-30T17:10:50Z</time></trkpt><trkpt lat="39.28242355349176" lon="8.450230076892312"><ele>12.0</ele><time>2026-03-30T17:10:51Z</time></trkpt><trkpt lat="39.2823544200167" lon="8.450456811924202"><ele>13.0</ele><time>2026-03-30T17:10:52Z</time></trkpt><trkpt lat="39.28228173273695" lon="8.450705778747807"><ele>13.0</ele><time>2026-03-30T17:10:53Z</time></trkpt><trkpt lat="39.28220027259103" lon="8.45094754662521"><ele>13.0</ele><time>2026-03-30T17:10:54Z</time></trkpt><trkpt lat="39.282124583677486" lon="8.451188362820098"><ele>13.0</ele><time>2026-03-30T17:10:55Z</time></trkpt><trkpt lat="39.282065552998546" lon="8.451432433204745"><ele>13.0</ele><time>2026-03-30T17:10:56Z</time></trkpt><trkpt lat="39.282024419234666" lon="8.451670038742714"><ele>13.0</ele><time>2026-03-30T17:10:57Z</time></trkpt><trkpt lat="39.28198004388915" lon="8.451910913074583"><ele>13.0</ele><time>2026-03-30T17:10:58Z</time></trkpt><trkpt lat="39.28193324059786" lon="8.452158516655091"><ele>13.666666666666666</ele><time>2026-03-30T17:10:59Z</time></trkpt><trkpt lat="39.28187856580043" lon="8.452412477398767"><ele>14.333333333333332</ele><time>2026-03-30T17:11:00Z</time></trkpt><trkpt lat="39.28182024971111" lon="8.452662903768005"><ele>15.0</ele><time>2026-03-30T17:11:01Z</time></trkpt><trkpt lat="39.28176575103658" lon="8.45291213397087"><ele>15.333333333333332</ele><time>2026-03-30T17:11:02Z</time></trkpt><trkpt lat="39.28171433212559" lon="8.453155029503167"><ele>15.666666666666666</ele><time>2026-03-30T17:11:03Z</time></trkpt><trkpt lat="39.28166526707267" lon="8.453399622161268"><ele>16.0</ele><time>2026-03-30T17:11:04Z</time></trkpt><trkpt lat="39.28161748488885" lon="8.453639221726755"><ele>17.0</ele><time>2026-03-30T17:11:05Z</time></trkpt><trkpt lat="39.281567408997034" lon="8.453875768512027"><ele>18.0</ele><time>2026-03-30T17:11:06Z</time></trkpt><trkpt lat="39.28152442090875" lon="8.45411619338796"><ele>19.0</ele><time>2026-03-30T17:11:07Z</time></trkpt><trkpt lat="39.2815198617954" lon="8.45436549256757"><ele>19.0</ele><time>2026-03-30T17:11:08Z</time></trkpt><trkpt lat="39.28155250640592" lon="8.45460276783811"><ele>19.0</ele><time>2026-03-30T17:11:09Z</time></trkpt><trkpt lat="39.281604084141605" lon="8.45484303685978"><ele>19.0</ele><time>2026-03-30T17:11:10Z</time></trkpt><trkpt lat="39.281670949590875" lon="8.455075474092883"><ele>18.666666666666664</ele><time>2026-03-30T17:11:11Z</time></trkpt><trkpt lat="39.28175123444566" lon="8.455301316031614"><ele>18.333333333333332</ele><time>2026-03-30T17:11:12Z</time></trkpt><trkpt lat="39.28182403999239" lon="8.455543166021473"><ele>18.0</ele><time>2026-03-30T17:11:13Z</time></trkpt><trkpt lat="39.28189490057233" lon="8.455787167041242"><ele>17.333333333333332</ele><time>2026-03-30T17:11:14Z</time></trkpt><trkpt lat="39.2819586314907" lon="8.45602472238942"><ele>16.666666666666664</ele><time>2026-03-30T17:11:15Z</time></trkpt><trkpt lat="39.28200209252103" lon="8.456263641569613"><ele>16.0</ele><time>2026-03-30T17:11:16Z</time></trkpt><trkpt lat="39.28203695254244" lon="8.456494940583966"><ele>16.0</ele><time>2026-03-30T17:11:17Z</time></trkpt><trkpt lat="39.28205355651518" lon="8.45673436658043"><ele>16.0</ele><time>2026-03-30T17:11:18Z</time></trkpt><trkpt lat="39.28205372119884" lon="8.456983566010965"><ele>16.0</ele><time>2026-03-30T17:11:19Z</time></trkpt><trkpt lat="39.282049399869116" lon="8.45722897229643"><ele>15.333333333333332</ele><time>2026-03-30T17:11:20Z</time></trkpt><trkpt lat="39.282051920717656" lon="8.457459289016755"><ele>14.666666666666668</ele><time>2026-03-30T17:11:21Z</time></trkpt><trkpt lat="39.28204544755797" lon="8.457658014519915"><ele>14.0</ele><time>2026-03-30T17:11:22Z</time></trkpt><trkpt lat="39.282041116522954" lon="8.457838633932283"><ele>13.333333333333334</ele><time>2026-03-30T17:11:23Z</time></trkpt><trkpt lat="39.28203587445603" lon="8.458013767747032"><ele>12.666666666666668</ele><time>2026-03-30T17:11:24Z</time></trkpt><trkpt lat="39.28202446117781" lon="8.458206334244158"><ele>12.0</ele><time>2026-03-30T17:11:25Z</time></trkpt><trkpt lat="39.28200302705728" lon="8.458419676787653"><ele>12.0</ele><time>2026-03-30T17:11:26Z</time></trkpt><trkpt lat="39.28195026360704" lon="8.458638683849495"><ele>12.0</ele><time>2026-03-30T17:11:27Z</time></trkpt><trkpt lat="39.281897520723255" lon="8.45885652860034"><ele>12.0</ele><time>2026-03-30T17:11:28Z</time></trkpt><trkpt lat="39.281825735133765" lon="8.459065412758465"><ele>12.0</ele><time>2026-03-30T17:11:29Z</time></trkpt><trkpt lat="39.281727726949335" lon="8.459263359771631"><ele>12.0</ele><time>2026-03-30T17:11:30Z</time></trkpt><trkpt lat="39.281610024478084" lon="8.459450448775723"><ele>12.0</ele><time>2026-03-30T17:11:31Z</time></trkpt><trkpt lat="39.28146994583589" lon="8.459617371525518"><ele>13.0</ele><time>2026-03-30T17:11:32Z</time></trkpt><trkpt lat="39.28131637076007" lon="8.459771291774105"><ele>14.0</ele><time>2026-03-30T17:11:33Z</time></trkpt><trkpt lat="39.28114344645437" lon="8.459895742935498"><ele>15.0</ele><time>2026-03-30T17:11:34Z</time></trkpt><trkpt lat="39.28097512103344" lon="8.460045164770163"><ele>15.0</ele><time>2026-03-30T17:11:35Z</time></trkpt><trkpt lat="39.2808047833978" lon="8.460187512005161"><ele>15.0</ele><time>2026-03-30T17:11:36Z</time></trkpt><trkpt lat="39.28065233013504" lon="8.460363660759139"><ele>15.0</ele><time>2026-03-30T17:11:37Z</time></trkpt><trkpt lat="39.28052057444004" lon="8.460565660498641"><ele>14.333333333333332</ele><time>2026-03-30T17:11:38Z</time></trkpt><trkpt lat="39.280392986906584" lon="8.460771435787942"><ele>13.666666666666666</ele><time>2026-03-30T17:11:39Z</time></trkpt><trkpt lat="39.28025608475362" lon="8.460966182152552"><ele>13.0</ele><time>2026-03-30T17:11:40Z</time></trkpt><trkpt lat="39.280129479399505" lon="8.461173969235208"><ele>13.0</ele><time>2026-03-30T17:11:41Z</time></trkpt><trkpt lat="39.28001491994445" lon="8.461391733789702"><ele>13.0</ele><time>2026-03-30T17:11:42Z</time></trkpt><trkpt lat="39.279883929192145" lon="8.461595823659245"><ele>13.0</ele><time>2026-03-30T17:11:43Z</time></trkpt><trkpt lat="39.27974698572143" lon="8.461778243666714"><ele>13.0</ele><time>2026-03-30T17:11:44Z</time></trkpt><trkpt lat="39.279629613873695" lon="8.46198031374707"><ele>13.0</ele><time>2026-03-30T17:11:45Z</time></trkpt><trkpt lat="39.27953221672855" lon="8.462193810165846"><ele>13.0</ele><time>2026-03-30T17:11:46Z</time></trkpt><trkpt lat="39.279436506939234" lon="8.462410079611962"><ele>13.666666666666666</ele><time>2026-03-30T17:11:47Z</time></trkpt><trkpt lat="39.27935470137358" lon="8.462636106406654"><ele>14.333333333333332</ele><time>2026-03-30T17:11:48Z</time></trkpt><trkpt lat="39.279285769296784" lon="8.462869679379201"><ele>15.0</ele><time>2026-03-30T17:11:49Z</time></trkpt><trkpt lat="39.27923441636478" lon="8.463111281745384"><ele>15.0</ele><time>2026-03-30T17:11:50Z</time></trkpt><trkpt lat="39.279203522354855" lon="8.463358402660212"><ele>15.0</ele><time>2026-03-30T17:11:51Z</time></trkpt><trkpt lat="39.27918989692457" lon="8.463607991899949"><ele>15.0</ele><time>2026-03-30T17:11:52Z</time></trkpt><trkpt lat="39.27918878587123" lon="8.463856307694448"><ele>15.0</ele><time>2026-03-30T17:11:53Z</time></trkpt><trkpt lat="39.279168408984084" lon="8.46409771426931"><ele>15.0</ele><time>2026-03-30T17:11:54Z</time></trkpt><trkpt lat="39.27915775199353" lon="8.464338034248932"><ele>15.0</ele><time>2026-03-30T17:11:55Z</time></trkpt><trkpt lat="39.279128620228796" lon="8.464564585517163"><ele>15.333333333333332</ele><time>2026-03-30T17:11:56Z</time></trkpt><trkpt lat="39.27908273959508" lon="8.464775876566549"><ele>15.666666666666666</ele><time>2026-03-30T17:11:57Z</time></trkpt><trkpt lat="39.279023531159346" lon="8.464987884279804"><ele>16.0</ele><time>2026-03-30T17:11:58Z</time></trkpt><trkpt lat="39.278953468694816" lon="8.465199765756973"><ele>16.0</ele><time>2026-03-30T17:11:59Z</time></trkpt><trkpt lat="39.27887865081421" lon="8.465408706679256"><ele>16.0</ele><time>2026-03-30T17:12:00Z</time></trkpt><trkpt lat="39.27877426203881" lon="8.465591607798888"><ele>16.0</ele><time>2026-03-30T17:12:01Z</time></trkpt><trkpt lat="39.27866750164557" lon="8.465755914178644"><ele>16.0</ele><time>2026-03-30T17:12:02Z</time></trkpt><trkpt lat="39.2785547143969" lon="8.465888483816688"><ele>16.0</ele><time>2026-03-30T17:12:03Z</time></trkpt><trkpt lat="39.27844017828764" lon="8.465998004388148"><ele>16.0</ele><time>2026-03-30T17:12:04Z</time></trkpt><trkpt lat="39.278323759082056" lon="8.466097918590508"><ele>16.0</ele><time>2026-03-30T17:12:05Z</time></trkpt><trkpt lat="39.27820877283172" lon="8.466200039232282"><ele>16.75</ele><time>2026-03-30T17:12:06Z</time></trkpt><trkpt lat="39.2780914231067" lon="8.46631208887365"><ele>17.5</ele><time>2026-03-30T17:12:07Z</time></trkpt><trkpt lat="39.27797006722447" lon="8.46643149806804"><ele>18.25</ele><time>2026-03-30T17:12:08Z</time></trkpt><trkpt lat="39.277851286020976" lon="8.466542689009277"><ele>19.0</ele><time>2026-03-30T17:12:09Z</time></trkpt><trkpt lat="39.27774154849756" lon="8.466639635458275"><ele>19.0</ele><time>2026-03-30T17:12:10Z</time></trkpt><trkpt lat="39.27764176696478" lon="8.466729082426028"><ele>19.0</ele><time>2026-03-30T17:12:11Z</time></trkpt><trkpt lat="39.277554566443904" lon="8.466814034704253"><ele>19.0</ele><time>2026-03-30T17:12:12Z</time></trkpt><trkpt lat="39.27746829140862" lon="8.466904093825967"><ele>19.0</ele><time>2026-03-30T17:12:13Z</time></trkpt><trkpt lat="39.27739297984249" lon="8.467006243221764"><ele>19.0</ele><time>2026-03-30T17:12:14Z</time></trkpt><trkpt lat="39.277339020670546" lon="8.467125834310869"><ele>19.0</ele><time>2026-03-30T17:12:15Z</time></trkpt><trkpt lat="39.27730908581415" lon="8.467258399066695"><ele>19.0</ele><time>2026-03-30T17:12:16Z</time></trkpt><trkpt lat="39.27730576321022" lon="8.467400685770953"><ele>19.0</ele><time>2026-03-30T17:12:17Z</time></trkpt><trkpt lat="39.277313254957726" lon="8.467538717242622"><ele>19.0</ele><time>2026-03-30T17:12:18Z</time></trkpt><trkpt lat="39.277331830408286" lon="8.46767009168938"><ele>19.0</ele><time>2026-03-30T17:12:19Z</time></trkpt><trkpt lat="39.277361402841336" lon="8.467799606601698"><ele>19.0</ele><time>2026-03-30T17:12:20Z</time></trkpt><trkpt lat="39.27738219363378" lon="8.467917727778884"><ele>19.0</ele><time>2026-03-30T17:12:21Z</time></trkpt><trkpt lat="39.27736726665977" lon="8.468032632381144"><ele>19.0</ele><time>2026-03-30T17:12:22Z</time></trkpt><trkpt lat="39.277275041633864" lon="8.468082863655763"><ele>19.0</ele><time>2026-03-30T17:12:23Z</time></trkpt><trkpt lat="39.27721640837165" lon="8.46814093687274"><ele>19.0</ele><time>2026-03-30T17:12:24Z</time></trkpt><trkpt lat="39.277148590540506" lon="8.468194793188623"><ele>19.0</ele><time>2026-03-30T17:12:25Z</time></trkpt><trkpt lat="39.27706626610649" lon="8.468206347108366"><ele>19.0</ele><time>2026-03-30T17:12:26Z</time></trkpt><trkpt lat="39.276969705937" lon="8.468198664781362"><ele>19.0</ele><time>2026-03-30T17:12:27Z</time></trkpt><trkpt lat="39.27686382296421" lon="8.46818586803135"><ele>19.0</ele><time>2026-03-30T17:12:28Z</time></trkpt><trkpt lat="39.276754866098756" lon="8.46817754491404"><ele>19.0</ele><time>2026-03-30T17:12:29Z</time></trkpt><trkpt lat="39.276513162642324" lon="8.468169866876268"><ele>19.0</ele><time>2026-03-30T17:12:31Z</time></trkpt><trkpt lat="39.276380644350304" lon="8.468160019113292"><ele>19.0</ele><time>2026-03-30T17:12:32Z</time></trkpt><trkpt lat="39.276241166835334" lon="8.468142933081557"><ele>19.333333333333332</ele><time>2026-03-30T17:12:33Z</time></trkpt><trkpt lat="39.27609467533336" lon="8.468108547190086"><ele>19.666666666666668</ele><time>2026-03-30T17:12:34Z</time></trkpt><trkpt lat="39.275937869416026" lon="8.468077005110967"><ele>20.0</ele><time>2026-03-30T17:12:35Z</time></trkpt><trkpt lat="39.27577080737752" lon="8.46804721628002"><ele>20.333333333333336</ele><time>2026-03-30T17:12:36Z</time></trkpt><trkpt lat="39.27560087623083" lon="8.46802042639182"><ele>20.666666666666668</ele><time>2026-03-30T17:12:37Z</time></trkpt><trkpt lat="39.27542320642505" lon="8.467994325101914"><ele>21.0</ele><time>2026-03-30T17:12:38Z</time></trkpt><trkpt lat="39.27525151930629" lon="8.467957350045962"><ele>21.333333333333332</ele><time>2026-03-30T17:12:39Z</time></trkpt><trkpt lat="39.275072048897066" lon="8.467918740786004"><ele>21.666666666666664</ele><time>2026-03-30T17:12:40Z</time></trkpt><trkpt lat="39.27489312410691" lon="8.46788780280923"><ele>22.0</ele><time>2026-03-30T17:12:41Z</time></trkpt><trkpt lat="39.27471339964217" lon="8.467860874504186"><ele>22.0</ele><time>2026-03-30T17:12:42Z</time></trkpt><trkpt lat="39.27453202187052" lon="8.467828260205744"><ele>22.0</ele><time>2026-03-30T17:12:43Z</time></trkpt><trkpt lat="39.27434792175492" lon="8.467789902057428"><ele>22.0</ele><time>2026-03-30T17:12:44Z</time></trkpt><trkpt lat="39.27416573843908" lon="8.46775620925605"><ele>22.0</ele><time>2026-03-30T17:12:45Z</time></trkpt><trkpt lat="39.27398046529112" lon="8.467724461795749"><ele>22.0</ele><time>2026-03-30T17:12:46Z</time></trkpt><trkpt lat="39.273798549534746" lon="8.467696776214172"><ele>22.0</ele><time>2026-03-30T17:12:46.999Z</time></trkpt><trkpt lat="39.2736126983681" lon="8.467666482070353"><ele>23.333333333333332</ele><time>2026-03-30T17:12:47.999Z</time></trkpt><trkpt lat="39.273430874814075" lon="8.467631990647572"><ele>24.666666666666664</ele><time>2026-03-30T17:12:48.999Z</time></trkpt><trkpt lat="39.2732513373069" lon="8.467594472429647"><ele>26.0</ele><time>2026-03-30T17:12:49.999Z</time></trkpt><trkpt lat="39.27308286286408" lon="8.46755686449508"><ele>26.0</ele><time>2026-03-30T17:12:51Z</time></trkpt><trkpt lat="39.272920000359846" lon="8.467530417361386"><ele>26.0</ele><time>2026-03-30T17:12:52Z</time></trkpt><trkpt lat="39.272770147483925" lon="8.467514598187952"><ele>26.0</ele><time>2026-03-30T17:12:53Z</time></trkpt><trkpt lat="39.27263547988182" lon="8.467492180159834"><ele>26.0</ele><time>2026-03-30T17:12:54Z</time></trkpt><trkpt lat="39.27251521584567" lon="8.467453571047411"><ele>26.0</ele><time>2026-03-30T17:12:55Z</time></trkpt><trkpt lat="39.27242069327307" lon="8.467385739007955"><ele>26.0</ele><time>2026-03-30T17:12:56Z</time></trkpt><trkpt lat="39.27235053870496" lon="8.467296553320889"><ele>26.0</ele><time>2026-03-30T17:12:57Z</time></trkpt><trkpt lat="39.27227971608448" lon="8.467211838461767"><ele>26.0</ele><time>2026-03-30T17:12:58Z</time></trkpt><trkpt lat="39.27220037890411" lon="8.467171870385199"><ele>26.166666666666664</ele><time>2026-03-30T17:12:59Z</time></trkpt><trkpt lat="39.2721230977498" lon="8.467179178377473"><ele>26.333333333333332</ele><time>2026-03-30T17:13:00Z</time></trkpt><trkpt lat="39.27205838920549" lon="8.467232738845595"><ele>26.5</ele><time>2026-03-30T17:13:01Z</time></trkpt><trkpt lat="39.272016864531025" lon="8.467306125572483"><ele>26.666666666666664</ele><time>2026-03-30T17:13:02Z</time></trkpt><trkpt lat="39.272006065244646" lon="8.467456660791074"><ele>26.833333333333332</ele><time>2026-03-30T17:13:04Z</time></trkpt><trkpt lat="39.27199649273539" lon="8.467574588276962"><ele>27.0</ele><time>2026-03-30T17:13:06Z</time></trkpt><trkpt lat="39.272008420349735" lon="8.4676896786454"><ele>27.0</ele><time>2026-03-30T17:13:08Z</time></trkpt><trkpt lat="39.27197492700806" lon="8.46777562080643"><ele>27.000000000000004</ele><time>2026-03-30T17:13:09Z</time></trkpt><trkpt lat="39.27188228006961" lon="8.467822824739159"><ele>27.000000000000004</ele><time>2026-03-30T17:13:10Z</time></trkpt><trkpt lat="39.27180900396387" lon="8.46789547607342"><ele>27.0</ele><time>2026-03-30T17:13:11Z</time></trkpt><trkpt lat="39.27173609719498" lon="8.467990757463145"><ele>27.0</ele><time>2026-03-30T17:13:12Z</time></trkpt><trkpt lat="39.271634759864845" lon="8.468062940517816"><ele>27.0</ele><time>2026-03-30T17:13:13Z</time></trkpt><trkpt lat="39.27153912826435" lon="8.468154851281374"><ele>27.0</ele><time>2026-03-30T17:13:14Z</time></trkpt><trkpt lat="39.27143931269943" lon="8.468250783129363"><ele>27.0</ele><time>2026-03-30T17:13:15Z</time></trkpt><trkpt lat="39.27134011234757" lon="8.468347659981712"><ele>27.0</ele><time>2026-03-30T17:13:16Z</time></trkpt><trkpt lat="39.27124801506198" lon="8.46843800065567"><ele>28.0</ele><time>2026-03-30T17:13:17Z</time></trkpt><trkpt lat="39.271165316073926" lon="8.468527024700649"><ele>29.0</ele><time>2026-03-30T17:13:18Z</time></trkpt><trkpt lat="39.27108112131973" lon="8.46859415581263"><ele>30.0</ele><time>2026-03-30T17:13:19Z</time></trkpt><trkpt lat="39.271022113111044" lon="8.468681455574506"><ele>31.0</ele><time>2026-03-30T17:13:20Z</time></trkpt><trkpt lat="39.27095693155737" lon="8.468734651869001"><ele>32.0</ele><time>2026-03-30T17:13:21Z</time></trkpt><trkpt lat="39.27090688548249" lon="8.468789368331267"><ele>33.0</ele><time>2026-03-30T17:13:22Z</time></trkpt><trkpt lat="39.27090749180688" lon="8.46889859793303"><ele>33.0</ele><time>2026-03-30T17:13:24Z</time></trkpt><trkpt lat="39.270989848466755" lon="8.468929648122986"><ele>33.0</ele><time>2026-03-30T17:13:26Z</time></trkpt><trkpt lat="39.271047437453106" lon="8.468978979801863"><ele>33.0</ele><time>2026-03-30T17:13:28Z</time></trkpt><trkpt lat="39.27109026119999" lon="8.46885732000691"><ele>33.0</ele><time>2026-03-30T17:13:29Z</time></trkpt><trkpt lat="39.27111598046075" lon="8.468751007251607"><ele>33.0</ele><time>2026-03-30T17:16:23.999Z</time></trkpt><trkpt lat="39.27119628984535" lon="8.468669868635482"><ele>33.0</ele><time>2026-03-30T17:16:26.999Z</time></trkpt><trkpt lat="39.271171686912155" lon="8.468585362016903"><ele>33.199999999999996</ele><time>2026-03-30T17:16:32.999Z</time></trkpt><trkpt lat="39.27123989289735" lon="8.468476566728272"><ele>33.4</ele><time>2026-03-30T17:16:35.999Z</time></trkpt><trkpt lat="39.271347867212704" lon="8.468395603525169"><ele>33.599999999999994</ele><time>2026-03-30T17:16:37.999Z</time></trkpt><trkpt lat="39.27140777132688" lon="8.468333142872723"><ele>33.8</ele><time>2026-03-30T17:16:38.999Z</time></trkpt><trkpt lat="39.27147732341362" lon="8.468268594340921"><ele>34.0</ele><time>2026-03-30T17:16:39.999Z</time></trkpt><trkpt lat="39.2715419071786" lon="8.468203590902077"><ele>32.833333333333336</ele><time>2026-03-30T17:16:40.999Z</time></trkpt><trkpt lat="39.27160911593356" lon="8.468138158550916"><ele>31.666666666666668</ele><time>2026-03-30T17:16:41.999Z</time></trkpt><trkpt lat="39.27167585342617" lon="8.468076761845046"><ele>30.5</ele><time>2026-03-30T17:16:42.999Z</time></trkpt><trkpt lat="39.27173989637867" lon="8.468015701758462"><ele>29.333333333333336</ele><time>2026-03-30T17:16:43.999Z</time></trkpt><trkpt lat="39.271806103045684" lon="8.467956092058673"><ele>28.166666666666668</ele><time>2026-03-30T17:16:44.999Z</time></trkpt><trkpt lat="39.27186929395028" lon="8.467898603127438"><ele>27.0</ele><time>2026-03-30T17:16:45.999Z</time></trkpt><trkpt lat="39.27193133624541" lon="8.467846930595494"><ele>27.0</ele><time>2026-03-30T17:16:46.999Z</time></trkpt><trkpt lat="39.272014344651815" lon="8.467845582838981"><ele>27.0</ele><time>2026-03-30T17:16:47.999Z</time></trkpt><trkpt lat="39.272069649524475" lon="8.467804130705535"><ele>27.0</ele><time>2026-03-30T17:16:48.999Z</time></trkpt><trkpt lat="39.27213716170838" lon="8.467671448543863"><ele>27.0</ele><time>2026-03-30T17:16:50.999Z</time></trkpt><trkpt lat="39.27219498878781" lon="8.46763732217434"><ele>27.0</ele><time>2026-03-30T17:16:51.999Z</time></trkpt><trkpt lat="39.27226102592261" lon="8.46759061619471"><ele>27.0</ele><time>2026-03-30T17:16:52.999Z</time></trkpt><trkpt lat="39.2723129174951" lon="8.467512739685557"><ele>27.0</ele><time>2026-03-30T17:16:53.999Z</time></trkpt><trkpt lat="39.27234602123579" lon="8.46741899490113"><ele>27.0</ele><time>2026-03-30T17:16:54.999Z</time></trkpt><trkpt lat="39.27233765198259" lon="8.467318655193884"><ele>27.0</ele><time>2026-03-30T17:16:55.999Z</time></trkpt><trkpt lat="39.2723022363551" lon="8.46723404861559"><ele>27.0</ele><time>2026-03-30T17:16:56.999Z</time></trkpt><trkpt lat="39.27224166232503" lon="8.467182289911731"><ele>27.0</ele><time>2026-03-30T17:16:57.999Z</time></trkpt><trkpt lat="39.27216692671854" lon="8.46717329389855"><ele>27.0</ele><time>2026-03-30T17:16:58.999Z</time></trkpt><trkpt lat="39.27209181556228" lon="8.467191278694372"><ele>27.0</ele><time>2026-03-30T17:16:59.999Z</time></trkpt><trkpt lat="39.272023765872014" lon="8.46723228043486"><ele>27.0</ele><time>2026-03-30T17:17:00.999Z</time></trkpt><trkpt lat="39.271955753303" lon="8.467274529891291"><ele>27.0</ele><time>2026-03-30T17:17:01.999Z</time></trkpt><trkpt lat="39.27187440154975" lon="8.467281364846366"><ele>27.0</ele><time>2026-03-30T17:17:03Z</time></trkpt><trkpt lat="39.271799483720116" lon="8.467250931467929"><ele>27.0</ele><time>2026-03-30T17:17:04Z</time></trkpt><trkpt lat="39.2717184042343" lon="8.46722104431988"><ele>27.0</ele><time>2026-03-30T17:17:05Z</time></trkpt><trkpt lat="39.271633167907275" lon="8.467182770999381"><ele>27.0</ele><time>2026-03-30T17:17:06Z</time></trkpt><trkpt lat="39.27154953103235" lon="8.467138217076858"><ele>27.0</ele><time>2026-03-30T17:17:07Z</time></trkpt><trkpt lat="39.27146873518592" lon="8.467096246643756"><ele>27.0</ele><time>2026-03-30T17:17:08Z</time></trkpt><trkpt lat="39.27139765896295" lon="8.467056779598398"><ele>27.0</ele><time>2026-03-30T17:17:09Z</time></trkpt><trkpt lat="39.27133165506367" lon="8.467020836527837"><ele>27.0</ele><time>2026-03-30T17:17:10Z</time></trkpt><trkpt lat="39.27126238492907" lon="8.466985505621107"><ele>27.0</ele><time>2026-03-30T17:17:11Z</time></trkpt><trkpt lat="39.271179234654944" lon="8.466938682836144"><ele>27.5</ele><time>2026-03-30T17:17:12Z</time></trkpt><trkpt lat="39.27107656035908" lon="8.466876882240335"><ele>28.0</ele><time>2026-03-30T17:17:13Z</time></trkpt><trkpt lat="39.27095871691264" lon="8.466796671315137"><ele>28.5</ele><time>2026-03-30T17:17:14Z</time></trkpt><trkpt lat="39.27083624175083" lon="8.466698642963108"><ele>29.0</ele><time>2026-03-30T17:17:15Z</time></trkpt><trkpt lat="39.27071478491903" lon="8.46660073779398"><ele>29.333333333333332</ele><time>2026-03-30T17:17:16Z</time></trkpt><trkpt lat="39.27059082157141" lon="8.466490601214081"><ele>29.666666666666664</ele><time>2026-03-30T17:17:17Z</time></trkpt><trkpt lat="39.27047148583764" lon="8.466366007925389"><ele>30.0</ele><time>2026-03-30T17:17:18Z</time></trkpt><trkpt lat="39.27034712212982" lon="8.466230912241922"><ele>29.333333333333336</ele><time>2026-03-30T17:17:19Z</time></trkpt><trkpt lat="39.27022074088609" lon="8.46609075845095"><ele>28.666666666666668</ele><time>2026-03-30T17:17:20Z</time></trkpt><trkpt lat="39.27008846089658" lon="8.465942368741068"><ele>28.0</ele><time>2026-03-30T17:17:21Z</time></trkpt><trkpt lat="39.269954375066376" lon="8.465789640974984"><ele>28.0</ele><time>2026-03-30T17:17:22Z</time></trkpt><trkpt lat="39.26981986731144" lon="8.465634895138589"><ele>28.0</ele><time>2026-03-30T17:17:23Z</time></trkpt><trkpt lat="39.26967717507694" lon="8.465473257760626"><ele>28.0</ele><time>2026-03-30T17:17:24Z</time></trkpt><trkpt lat="39.26953207833753" lon="8.465308922473364"><ele>26.666666666666668</ele><time>2026-03-30T17:17:25Z</time></trkpt><trkpt lat="39.26938809617902" lon="8.465138216796035"><ele>25.333333333333336</ele><time>2026-03-30T17:17:26Z</time></trkpt><trkpt lat="39.26924074367968" lon="8.46496233240874"><ele>24.0</ele><time>2026-03-30T17:17:27Z</time></trkpt><trkpt lat="39.269089767186955" lon="8.464788086830342"><ele>23.333333333333332</ele><time>2026-03-30T17:17:28Z</time></trkpt><trkpt lat="39.26893748581371" lon="8.464612691394501"><ele>22.666666666666664</ele><time>2026-03-30T17:17:29Z</time></trkpt><trkpt lat="39.268784603631765" lon="8.46444235401735"><ele>22.0</ele><time>2026-03-30T17:17:30Z</time></trkpt><trkpt lat="39.26863066617872" lon="8.464269795023341"><ele>22.0</ele><time>2026-03-30T17:17:31Z</time></trkpt><trkpt lat="39.268479639946534" lon="8.464094054858606"><ele>22.0</ele><time>2026-03-30T17:17:32Z</time></trkpt><trkpt lat="39.2683289345472" lon="8.463921415438792"><ele>22.0</ele><time>2026-03-30T17:17:33Z</time></trkpt><trkpt lat="39.268178830246626" lon="8.463747399382152"><ele>23.333333333333332</ele><time>2026-03-30T17:17:34Z</time></trkpt><trkpt lat="39.26802883814426" lon="8.46357410744903"><ele>24.666666666666664</ele><time>2026-03-30T17:17:35Z</time></trkpt><trkpt lat="39.267879513545026" lon="8.463399922049947"><ele>26.0</ele><time>2026-03-30T17:17:36Z</time></trkpt><trkpt lat="39.26773353444682" lon="8.463231202201246"><ele>26.0</ele><time>2026-03-30T17:17:37Z</time></trkpt><trkpt lat="39.26758519386527" lon="8.463056594090814"><ele>26.0</ele><time>2026-03-30T17:17:38Z</time></trkpt><trkpt lat="39.26743585190587" lon="8.46288066699844"><ele>26.0</ele><time>2026-03-30T17:17:39Z</time></trkpt><trkpt lat="39.267288963234556" lon="8.462705012783992"><ele>26.0</ele><time>2026-03-30T17:17:40Z</time></trkpt><trkpt lat="39.26713752868288" lon="8.462533432322287"><ele>26.0</ele><time>2026-03-30T17:17:41Z</time></trkpt><trkpt lat="39.266987714899884" lon="8.46236150186279"><ele>26.0</ele><time>2026-03-30T17:17:42Z</time></trkpt><trkpt lat="39.26683403777416" lon="8.462189561068596"><ele>25.333333333333332</ele><time>2026-03-30T17:17:43Z</time></trkpt><trkpt lat="39.266685085667056" lon="8.462012086474973"><ele>24.666666666666664</ele><time>2026-03-30T17:17:44Z</time></trkpt><trkpt lat="39.2665349275084" lon="8.461838471845425"><ele>24.0</ele><time>2026-03-30T17:17:45Z</time></trkpt><trkpt lat="39.266381785123606" lon="8.461666689528817"><ele>24.0</ele><time>2026-03-30T17:17:46Z</time></trkpt><trkpt lat="39.26622148704641" lon="8.461507013343978"><ele>24.0</ele><time>2026-03-30T17:17:47Z</time></trkpt><trkpt lat="39.2660588119617" lon="8.461346976253067"><ele>24.0</ele><time>2026-03-30T17:17:48Z</time></trkpt><trkpt lat="39.26588635478363" lon="8.461202108217629"><ele>23.0</ele><time>2026-03-30T17:17:49Z</time></trkpt><trkpt lat="39.265707904964586" lon="8.461060746731926"><ele>22.0</ele><time>2026-03-30T17:17:50Z</time></trkpt><trkpt lat="39.265526353326216" lon="8.460923684764651"><ele>21.0</ele><time>2026-03-30T17:17:51Z</time></trkpt><trkpt lat="39.265348465123076" lon="8.460777913546767"><ele>21.0</ele><time>2026-03-30T17:17:52Z</time></trkpt><trkpt lat="39.26517239146829" lon="8.460633496529265"><ele>21.0</ele><time>2026-03-30T17:17:53Z</time></trkpt><trkpt lat="39.26499623006235" lon="8.460489645464621"><ele>21.0</ele><time>2026-03-30T17:17:54Z</time></trkpt><trkpt lat="39.264818560997014" lon="8.460344604182778"><ele>22.0</ele><time>2026-03-30T17:17:55Z</time></trkpt><trkpt lat="39.26463490025401" lon="8.460211419670701"><ele>23.0</ele><time>2026-03-30T17:17:56Z</time></trkpt><trkpt lat="39.26444771106533" lon="8.460089267688144"><ele>24.0</ele><time>2026-03-30T17:17:57Z</time></trkpt><trkpt lat="39.26425019096863" lon="8.45998942375225"><ele>24.0</ele><time>2026-03-30T17:17:58Z</time></trkpt><trkpt lat="39.26404802493984" lon="8.4599131198693"><ele>24.0</ele><time>2026-03-30T17:17:59Z</time></trkpt><trkpt lat="39.26384180299082" lon="8.4598577701208"><ele>24.0</ele><time>2026-03-30T17:18:00Z</time></trkpt><trkpt lat="39.26363495714667" lon="8.459830285254526"><ele>25.0</ele><time>2026-03-30T17:18:01Z</time></trkpt><trkpt lat="39.26343114189846" lon="8.459814592299152"><ele>26.0</ele><time>2026-03-30T17:18:02Z</time></trkpt><trkpt lat="39.263226866886356" lon="8.459793952664997"><ele>27.0</ele><time>2026-03-30T17:18:03Z</time></trkpt><trkpt lat="39.263023986308106" lon="8.459836363232165"><ele>27.333333333333336</ele><time>2026-03-30T17:18:04Z</time></trkpt><trkpt lat="39.26282256069719" lon="8.459876123583836"><ele>27.666666666666668</ele><time>2026-03-30T17:18:05Z</time></trkpt><trkpt lat="39.26262211344879" lon="8.459914105964145"><ele>28.0</ele><time>2026-03-30T17:18:06Z</time></trkpt><trkpt lat="39.26241844961533" lon="8.45993118058992"><ele>29.0</ele><time>2026-03-30T17:18:07Z</time></trkpt><trkpt lat="39.26221519150601" lon="8.45996845629939"><ele>30.0</ele><time>2026-03-30T17:18:08Z</time></trkpt><trkpt lat="39.26201495109943" lon="8.460005178591182"><ele>31.0</ele><time>2026-03-30T17:18:09Z</time></trkpt><trkpt lat="39.26181607557799" lon="8.460060993634292"><ele>31.0</ele><time>2026-03-30T17:18:10Z</time></trkpt><trkpt lat="39.26161671188096" lon="8.460095780256164"><ele>31.0</ele><time>2026-03-30T17:18:11Z</time></trkpt><trkpt lat="39.261418657681844" lon="8.46013273296584"><ele>31.0</ele><time>2026-03-30T17:18:12Z</time></trkpt><trkpt lat="39.26122484607178" lon="8.460167700889448"><ele>32.333333333333336</ele><time>2026-03-30T17:18:12.999Z</time></trkpt><trkpt lat="39.26102907211402" lon="8.460202493072979"><ele>33.666666666666664</ele><time>2026-03-30T17:18:13.999Z</time></trkpt><trkpt lat="39.26083382448626" lon="8.460236363062336"><ele>35.0</ele><time>2026-03-30T17:18:14.999Z</time></trkpt><trkpt lat="39.260636505314295" lon="8.46027434935532"><ele>37.0</ele><time>2026-03-30T17:18:15.999Z</time></trkpt><trkpt lat="39.26044110783366" lon="8.460313715089034"><ele>39.0</ele><time>2026-03-30T17:18:16.999Z</time></trkpt><trkpt lat="39.26024468315984" lon="8.460351499715646"><ele>41.0</ele><time>2026-03-30T17:18:17.999Z</time></trkpt><trkpt lat="39.2600463646065" lon="8.460369423329285"><ele>41.0</ele><time>2026-03-30T17:18:18.999Z</time></trkpt><trkpt lat="39.25985626452848" lon="8.460404030189094"><ele>41.0</ele><time>2026-03-30T17:18:19.999Z</time></trkpt><trkpt lat="39.25967236299567" lon="8.46043750814739"><ele>41.0</ele><time>2026-03-30T17:18:20.999Z</time></trkpt><trkpt lat="39.259497696045734" lon="8.46048293643135"><ele>38.666666666666664</ele><time>2026-03-30T17:18:21.999Z</time></trkpt><trkpt lat="39.2593294152156" lon="8.460495312509373"><ele>36.333333333333336</ele><time>2026-03-30T17:18:22.999Z</time></trkpt><trkpt lat="39.25917021381972" lon="8.460498085441952"><ele>34.0</ele><time>2026-03-30T17:18:23.999Z</time></trkpt><trkpt lat="39.25902326349361" lon="8.460493467457665"><ele>34.6</ele><time>2026-03-30T17:18:24.999Z</time></trkpt><trkpt lat="39.258893533908754" lon="8.460480929382594"><ele>35.2</ele><time>2026-03-30T17:18:25.999Z</time></trkpt><trkpt lat="39.258780289297306" lon="8.460460693029603"><ele>35.800000000000004</ele><time>2026-03-30T17:18:26.999Z</time></trkpt><trkpt lat="39.258685808987416" lon="8.460416892993136"><ele>36.4</ele><time>2026-03-30T17:18:27.999Z</time></trkpt><trkpt lat="39.25860918189466" lon="8.460346351574463"><ele>37.0</ele><time>2026-03-30T17:18:28.999Z</time></trkpt><trkpt lat="39.25855399557773" lon="8.460263413193662"><ele>37.16666666666667</ele><time>2026-03-30T17:18:29.999Z</time></trkpt><trkpt lat="39.25849689976464" lon="8.460205961498755"><ele>37.333333333333336</ele><time>2026-03-30T17:18:30.999Z</time></trkpt><trkpt lat="39.258425765896924" lon="8.460176763044078"><ele>37.5</ele><time>2026-03-30T17:18:31.999Z</time></trkpt><trkpt lat="39.25834839959107" lon="8.46018765853672"><ele>37.666666666666664</ele><time>2026-03-30T17:18:32.999Z</time></trkpt><trkpt lat="39.25825908669139" lon="8.460206705328009"><ele>37.83333333333333</ele><time>2026-03-30T17:18:33.999Z</time></trkpt><trkpt lat="39.258180135683645" lon="8.460183514013847"><ele>38.0</ele><time>2026-03-30T17:18:34.999Z</time></trkpt><trkpt lat="39.25808945539578" lon="8.460164993555209"><ele>38.0</ele><time>2026-03-30T17:18:35.999Z</time></trkpt><trkpt lat="39.2579911823546" lon="8.46012101157837"><ele>38.0</ele><time>2026-03-30T17:18:36.999Z</time></trkpt><trkpt lat="39.25789158937527" lon="8.460054016148476"><ele>38.0</ele><time>2026-03-30T17:18:37.999Z</time></trkpt><trkpt lat="39.25779359402095" lon="8.45998116431622"><ele>38.0</ele><time>2026-03-30T17:18:38.999Z</time></trkpt><trkpt lat="39.25768166609831" lon="8.459908316317062"><ele>38.0</ele><time>2026-03-30T17:18:39.999Z</time></trkpt><trkpt lat="39.25756317039944" lon="8.459832135674262"><ele>38.0</ele><time>2026-03-30T17:18:40.999Z</time></trkpt><trkpt lat="39.25744058958655" lon="8.459753581136427"><ele>38.0</ele><time>2026-03-30T17:18:41.999Z</time></trkpt><trkpt lat="39.25731613293419" lon="8.459661592224496"><ele>38.0</ele><time>2026-03-30T17:18:42.999Z</time></trkpt><trkpt lat="39.25719500966565" lon="8.459576856246082"><ele>39.5</ele><time>2026-03-30T17:18:43.999Z</time></trkpt><trkpt lat="39.257066791221554" lon="8.459502209188082"><ele>41.0</ele><time>2026-03-30T17:18:44.999Z</time></trkpt><trkpt lat="39.2569347950677" lon="8.459422370852792"><ele>42.5</ele><time>2026-03-30T17:18:45.999Z</time></trkpt><trkpt lat="39.25680453471294" lon="8.459336779933723"><ele>44.0</ele><time>2026-03-30T17:18:46.999Z</time></trkpt><trkpt lat="39.25668316469457" lon="8.459245984448373"><ele>44.0</ele><time>2026-03-30T17:18:47.999Z</time></trkpt><trkpt lat="39.25656438886129" lon="8.459161576158534"><ele>44.0</ele><time>2026-03-30T17:18:48.999Z</time></trkpt><trkpt lat="39.25643917413525" lon="8.459081958503823"><ele>44.0</ele><time>2026-03-30T17:18:49.999Z</time></trkpt><trkpt lat="39.256310095636366" lon="8.459005860521025"><ele>44.0</ele><time>2026-03-30T17:18:50.999Z</time></trkpt><trkpt lat="39.25617669660541" lon="8.45893129020404"><ele>43.666666666666664</ele><time>2026-03-30T17:18:51.999Z</time></trkpt><trkpt lat="39.25603655738415" lon="8.458872646738328"><ele>43.333333333333336</ele><time>2026-03-30T17:18:52.999Z</time></trkpt><trkpt lat="39.25588865710299" lon="8.458812668686528"><ele>43.0</ele><time>2026-03-30T17:18:53.999Z</time></trkpt><trkpt lat="39.255743908318635" lon="8.458757451779013"><ele>44.333333333333336</ele><time>2026-03-30T17:18:54.999Z</time></trkpt><trkpt lat="39.25559506418174" lon="8.458714679746539"><ele>45.666666666666664</ele><time>2026-03-30T17:18:55.999Z</time></trkpt><trkpt lat="39.25544214305123" lon="8.458690360239897"><ele>47.0</ele><time>2026-03-30T17:18:56.999Z</time></trkpt><trkpt lat="39.255280320357755" lon="8.458681027735242"><ele>47.0</ele><time>2026-03-30T17:18:57.999Z</time></trkpt><trkpt lat="39.25511577703687" lon="8.458690028323993"><ele>47.0</ele><time>2026-03-30T17:18:58.999Z</time></trkpt><trkpt lat="39.254949604838885" lon="8.458706876404868"><ele>47.0</ele><time>2026-03-30T17:18:59.999Z</time></trkpt><trkpt lat="39.25477590815311" lon="8.45874652448692"><ele>46.33333333333333</ele><time>2026-03-30T17:19:00.999Z</time></trkpt><trkpt lat="39.25460668531546" lon="8.458795762889714"><ele>45.666666666666664</ele><time>2026-03-30T17:19:01.999Z</time></trkpt><trkpt lat="39.25444534749792" lon="8.458862132187654"><ele>45.0</ele><time>2026-03-30T17:19:02.999Z</time></trkpt><trkpt lat="39.254295885003266" lon="8.458836824647165"><ele>45.0</ele><time>2026-03-30T17:19:03.999Z</time></trkpt><trkpt lat="39.2541419931603" lon="8.458856311419542"><ele>45.0</ele><time>2026-03-30T17:19:04.999Z</time></trkpt><trkpt lat="39.25398526722665" lon="8.45887114121121"><ele>45.0</ele><time>2026-03-30T17:19:05.999Z</time></trkpt><trkpt lat="39.25383045053364" lon="8.45888708800682"><ele>46.0</ele><time>2026-03-30T17:19:06.999Z</time></trkpt><trkpt lat="39.253685253345516" lon="8.458904321521176"><ele>47.0</ele><time>2026-03-30T17:19:07.999Z</time></trkpt><trkpt lat="39.253548549144" lon="8.458919175724176"><ele>48.0</ele><time>2026-03-30T17:19:09Z</time></trkpt><trkpt lat="39.25342000657508" lon="8.45893388015889"><ele>49.0</ele><time>2026-03-30T17:19:10Z</time></trkpt><trkpt lat="39.25330219930909" lon="8.458949541024461"><ele>49.0</ele><time>2026-03-30T17:19:11Z</time></trkpt><trkpt lat="39.2531832705245" lon="8.45896613912237"><ele>49.0</ele><time>2026-03-30T17:19:12Z</time></trkpt><trkpt lat="39.253059085531916" lon="8.458986697242533"><ele>49.0</ele><time>2026-03-30T17:19:13Z</time></trkpt><trkpt lat="39.252934751447306" lon="8.459007638337555"><ele>49.0</ele><time>2026-03-30T17:19:14Z</time></trkpt><trkpt lat="39.25280752693613" lon="8.459021526965353"><ele>49.25</ele><time>2026-03-30T17:19:15Z</time></trkpt><trkpt lat="39.25267606134514" lon="8.459023057035468"><ele>49.5</ele><time>2026-03-30T17:19:16Z</time></trkpt><trkpt lat="39.25254374681251" lon="8.459018501555498"><ele>49.75</ele><time>2026-03-30T17:19:17Z</time></trkpt><trkpt lat="39.25240541462266" lon="8.458999258576123"><ele>50.0</ele><time>2026-03-30T17:19:18Z</time></trkpt><trkpt lat="39.25226834900012" lon="8.45897016746221"><ele>50.5</ele><time>2026-03-30T17:19:19Z</time></trkpt><trkpt lat="39.25212953374098" lon="8.458934527673176"><ele>51.0</ele><time>2026-03-30T17:19:20Z</time></trkpt><trkpt lat="39.25199003044579" lon="8.458882156611699"><ele>51.5</ele><time>2026-03-30T17:19:21Z</time></trkpt><trkpt lat="39.251851860624505" lon="8.458825836384111"><ele>52.0</ele><time>2026-03-30T17:19:22Z</time></trkpt><trkpt lat="39.251710066118584" lon="8.458767756954796"><ele>53.0</ele><time>2026-03-30T17:19:23Z</time></trkpt><trkpt lat="39.25156855657794" lon="8.458707179783147"><ele>54.0</ele><time>2026-03-30T17:19:24Z</time></trkpt><trkpt lat="39.25142356744004" lon="8.458637883559243"><ele>55.0</ele><time>2026-03-30T17:19:25Z</time></trkpt><trkpt lat="39.25127350621369" lon="8.458569124976455"><ele>55.0</ele><time>2026-03-30T17:19:26Z</time></trkpt><trkpt lat="39.25112840255564" lon="8.45847775095541"><ele>55.0</ele><time>2026-03-30T17:19:27Z</time></trkpt><trkpt lat="39.25097132700493" lon="8.458418890765694"><ele>55.0</ele><time>2026-03-30T17:19:28Z</time></trkpt><trkpt lat="39.25082617140433" lon="8.458334572957812"><ele>55.0</ele><time>2026-03-30T17:19:29Z</time></trkpt><trkpt lat="39.25068799295065" lon="8.458224061110927"><ele>55.0</ele><time>2026-03-30T17:19:30Z</time></trkpt><trkpt lat="39.25056831823747" lon="8.45810037062569"><ele>55.0</ele><time>2026-03-30T17:19:31Z</time></trkpt><trkpt lat="39.25042959239025" lon="8.458035068227998"><ele>56.0</ele><time>2026-03-30T17:19:32Z</time></trkpt><trkpt lat="39.25030489741272" lon="8.457965586914664"><ele>57.0</ele><time>2026-03-30T17:19:33Z</time></trkpt><trkpt lat="39.25034322943633" lon="8.457322780835618"><ele>59.0</ele><time>2026-03-30T17:19:34Z</time></trkpt><trkpt lat="39.24994331509535" lon="8.45792603865808"><ele>59.0</ele><time>2026-03-30T17:19:35Z</time></trkpt><trkpt lat="39.249802200031816" lon="8.457865580011427"><ele>59.0</ele><time>2026-03-30T17:19:36Z</time></trkpt><trkpt lat="39.2496654506642" lon="8.457788528602814"><ele>59.0</ele><time>2026-03-30T17:19:37Z</time></trkpt><trkpt lat="39.249523371086994" lon="8.457721217521456"><ele>59.0</ele><time>2026-03-30T17:19:38Z</time></trkpt><trkpt lat="39.249377696712735" lon="8.457652203377119"><ele>59.66666666666667</ele><time>2026-03-30T17:19:39Z</time></trkpt><trkpt lat="39.249226423942325" lon="8.457580548332158"><ele>60.33333333333333</ele><time>2026-03-30T17:19:40Z</time></trkpt><trkpt lat="39.24907772397135" lon="8.45751035542779"><ele>61.0</ele><time>2026-03-30T17:19:41Z</time></trkpt><trkpt lat="39.248930790872556" lon="8.457441295020894"><ele>61.5</ele><time>2026-03-30T17:19:42Z</time></trkpt><trkpt lat="39.24879548879616" lon="8.457377341366714"><ele>62.0</ele><time>2026-03-30T17:19:43Z</time></trkpt><trkpt lat="39.2486671330461" lon="8.457315379686987"><ele>62.5</ele><time>2026-03-30T17:19:44Z</time></trkpt><trkpt lat="39.24853172291424" lon="8.457275830865253"><ele>63.0</ele><time>2026-03-30T17:19:45Z</time></trkpt><trkpt lat="39.2483987939837" lon="8.45721645989577"><ele>63.0</ele><time>2026-03-30T17:19:46Z</time></trkpt><trkpt lat="39.248269397527395" lon="8.457163118213309"><ele>63.0</ele><time>2026-03-30T17:19:47Z</time></trkpt><trkpt lat="39.24813593862173" lon="8.457130439730626"><ele>63.0</ele><time>2026-03-30T17:19:48Z</time></trkpt><trkpt lat="39.2478645994422" lon="8.457111452147089"><ele>63.5</ele><time>2026-03-30T17:19:50Z</time></trkpt><trkpt lat="39.24772022644031" lon="8.457119138790205"><ele>64.0</ele><time>2026-03-30T17:19:51Z</time></trkpt><trkpt lat="39.247570644376616" lon="8.45712128659357"><ele>64.5</ele><time>2026-03-30T17:19:52Z</time></trkpt><trkpt lat="39.2474198205034" lon="8.457131953645423"><ele>65.0</ele><time>2026-03-30T17:19:53Z</time></trkpt><trkpt lat="39.24726603197821" lon="8.457144886083293"><ele>66.0</ele><time>2026-03-30T17:19:54Z</time></trkpt><trkpt lat="39.24710523078742" lon="8.457171711572233"><ele>67.0</ele><time>2026-03-30T17:19:55Z</time></trkpt><trkpt lat="39.2469493142639" lon="8.457193125803533"><ele>68.0</ele><time>2026-03-30T17:19:56Z</time></trkpt><trkpt lat="39.24678157116724" lon="8.457217327158776"><ele>68.0</ele><time>2026-03-30T17:19:57Z</time></trkpt><trkpt lat="39.246621718712866" lon="8.45724033063074"><ele>68.0</ele><time>2026-03-30T17:19:58Z</time></trkpt><trkpt lat="39.24645720529016" lon="8.457238626633787"><ele>68.0</ele><time>2026-03-30T17:19:59Z</time></trkpt><trkpt lat="39.246291257493574" lon="8.457258959684312"><ele>67.33333333333334</ele><time>2026-03-30T17:20:00Z</time></trkpt><trkpt lat="39.24612077054923" lon="8.457282544032402"><ele>66.66666666666667</ele><time>2026-03-30T17:20:01Z</time></trkpt><trkpt lat="39.24595320742104" lon="8.457325669206122"><ele>66.0</ele><time>2026-03-30T17:20:02Z</time></trkpt><trkpt lat="39.2457820190356" lon="8.457356055837918"><ele>67.0</ele><time>2026-03-30T17:20:03Z</time></trkpt><trkpt lat="39.245611969570845" lon="8.457390591365149"><ele>68.0</ele><time>2026-03-30T17:20:04Z</time></trkpt><trkpt lat="39.24544467220206" lon="8.457407157267303"><ele>69.0</ele><time>2026-03-30T17:20:05Z</time></trkpt><trkpt lat="39.24527835379305" lon="8.457446874761791"><ele>69.0</ele><time>2026-03-30T17:20:06Z</time></trkpt><trkpt lat="39.24510622318651" lon="8.457489164627827"><ele>69.0</ele><time>2026-03-30T17:20:06.999Z</time></trkpt><trkpt lat="39.24492206157468" lon="8.457536495883513"><ele>69.0</ele><time>2026-03-30T17:20:07.999Z</time></trkpt><trkpt lat="39.2447174709169" lon="8.45759373782417"><ele>71.0</ele><time>2026-03-30T17:20:08.999Z</time></trkpt><trkpt lat="39.24449846555092" lon="8.457655131869801"><ele>73.0</ele><time>2026-03-30T17:20:09.999Z</time></trkpt><trkpt lat="39.24426711682177" lon="8.457720373793448"><ele>73.0</ele><time>2026-03-30T17:20:10.999Z</time></trkpt><trkpt lat="39.244033715020215" lon="8.457786345296524"><ele>73.0</ele><time>2026-03-30T17:20:11.999Z</time></trkpt><trkpt lat="39.24381678033025" lon="8.457848586643191"><ele>74.0</ele><time>2026-03-30T17:20:12.999Z</time></trkpt><trkpt lat="39.24361697990254" lon="8.457907826710086"><ele>75.0</ele><time>2026-03-30T17:20:13.999Z</time></trkpt><trkpt lat="39.24343205982198" lon="8.45797894711375"><ele>76.0</ele><time>2026-03-30T17:20:14.999Z</time></trkpt><trkpt lat="39.24325517935339" lon="8.458021111068215"><ele>77.33333333333333</ele><time>2026-03-30T17:20:15.999Z</time></trkpt><trkpt lat="39.24308900808451" lon="8.458067883791953"><ele>78.66666666666667</ele><time>2026-03-30T17:20:16.999Z</time></trkpt><trkpt lat="39.24293581442438" lon="8.458111568820222"><ele>80.0</ele><time>2026-03-30T17:20:17.999Z</time></trkpt><trkpt lat="39.24279877810876" lon="8.458150441049346"><ele>80.0</ele><time>2026-03-30T17:20:18.999Z</time></trkpt><trkpt lat="39.242671181322876" lon="8.458181992031149"><ele>80.0</ele><time>2026-03-30T17:20:19.999Z</time></trkpt><trkpt lat="39.24255893941847" lon="8.458208902269556"><ele>80.0</ele><time>2026-03-30T17:20:20.999Z</time></trkpt><trkpt lat="39.24245435337914" lon="8.45823433919392"><ele>80.0</ele><time>2026-03-30T17:20:21.999Z</time></trkpt><trkpt lat="39.242356284814655" lon="8.458238747914036"><ele>80.0</ele><time>2026-03-30T17:20:22.999Z</time></trkpt><trkpt lat="39.24226979130643" lon="8.458222307578122"><ele>80.33333333333334</ele><time>2026-03-30T17:20:23.999Z</time></trkpt><trkpt lat="39.24218086754673" lon="8.458215046291846"><ele>80.66666666666667</ele><time>2026-03-30T17:20:24.999Z</time></trkpt><trkpt lat="39.242098363445656" lon="8.458230429398391"><ele>81.0</ele><time>2026-03-30T17:20:25.999Z</time></trkpt><trkpt lat="39.24203718428036" lon="8.458269041184794"><ele>81.33333333333333</ele><time>2026-03-30T17:20:26.999Z</time></trkpt><trkpt lat="39.241975406403036" lon="8.458332074411326"><ele>81.66666666666666</ele><time>2026-03-30T17:20:27.999Z</time></trkpt><trkpt lat="39.24190372055115" lon="8.458397625424286"><ele>82.0</ele><time>2026-03-30T17:20:28.999Z</time></trkpt><trkpt lat="39.241814132230964" lon="8.458452072229493"><ele>82.0</ele><time>2026-03-30T17:20:29.999Z</time></trkpt><trkpt lat="39.241700251748306" lon="8.458467963501079"><ele>82.0</ele><time>2026-03-30T17:20:30.999Z</time></trkpt><trkpt lat="39.24157333857008" lon="8.458504208168563"><ele>82.0</ele><time>2026-03-30T17:20:31.999Z</time></trkpt><trkpt lat="39.241438130152474" lon="8.45854311200626"><ele>82.0</ele><time>2026-03-30T17:20:32.999Z</time></trkpt><trkpt lat="39.24130785162262" lon="8.45858059733532"><ele>82.0</ele><time>2026-03-30T17:20:33.999Z</time></trkpt><trkpt lat="39.241177090717585" lon="8.458618229868724"><ele>82.0</ele><time>2026-03-30T17:20:34.999Z</time></trkpt><trkpt lat="39.241047481456086" lon="8.45865580781909"><ele>82.0</ele><time>2026-03-30T17:20:35.999Z</time></trkpt><trkpt lat="39.240918662703464" lon="8.458693156573615"><ele>82.0</ele><time>2026-03-30T17:20:36.999Z</time></trkpt><trkpt lat="39.240788624325084" lon="8.45873085893985"><ele>82.0</ele><time>2026-03-30T17:20:37.999Z</time></trkpt><trkpt lat="39.24066153238065" lon="8.458767459156245"><ele>82.0</ele><time>2026-03-30T17:20:38.999Z</time></trkpt><trkpt lat="39.240532065501284" lon="8.45880466606112"><ele>82.0</ele><time>2026-03-30T17:20:39.999Z</time></trkpt><trkpt lat="39.240401162866235" lon="8.45884228557818"><ele>82.0</ele><time>2026-03-30T17:20:40.999Z</time></trkpt><trkpt lat="39.24026664880753" lon="8.458880942966541"><ele>83.66666666666666</ele><time>2026-03-30T17:20:41.999Z</time></trkpt><trkpt lat="39.24012402610067" lon="8.458921930668184"><ele>85.33333333333333</ele><time>2026-03-30T17:20:42.999Z</time></trkpt><trkpt lat="39.23997453217628" lon="8.45896489346309"><ele>87.0</ele><time>2026-03-30T17:20:43.999Z</time></trkpt><trkpt lat="39.23981639501218" lon="8.459010337577052"><ele>87.66666666666667</ele><time>2026-03-30T17:20:44.999Z</time></trkpt><trkpt lat="39.23963587870824" lon="8.459062213939339"><ele>88.33333333333334</ele><time>2026-03-30T17:20:45.999Z</time></trkpt><trkpt lat="39.239442304277965" lon="8.459117842946227"><ele>89.0</ele><time>2026-03-30T17:20:46.999Z</time></trkpt><trkpt lat="39.23923713679149" lon="8.459176803543196"><ele>89.0</ele><time>2026-03-30T17:20:47.999Z</time></trkpt><trkpt lat="39.23903806479519" lon="8.459253752327301"><ele>89.0</ele><time>2026-03-30T17:20:48.999Z</time></trkpt><trkpt lat="39.23884078779398" lon="8.459294049887623"><ele>89.0</ele><time>2026-03-30T17:20:49.999Z</time></trkpt><trkpt lat="39.23864077635838" lon="8.459347173832448"><ele>90.0</ele><time>2026-03-30T17:20:50.999Z</time></trkpt><trkpt lat="39.238435539394374" lon="8.45941624497602"><ele>91.0</ele><time>2026-03-30T17:20:51.999Z</time></trkpt><trkpt lat="39.23822918790058" lon="8.45948556767091"><ele>92.0</ele><time>2026-03-30T17:20:52.999Z</time></trkpt><trkpt lat="39.23802204426319" lon="8.4595264714642"><ele>93.0</ele><time>2026-03-30T17:20:53.999Z</time></trkpt><trkpt lat="39.237826197727365" lon="8.459603866626033"><ele>94.0</ele><time>2026-03-30T17:20:54.999Z</time></trkpt><trkpt lat="39.23762605787988" lon="8.459657251500149"><ele>95.0</ele><time>2026-03-30T17:20:55.999Z</time></trkpt><trkpt lat="39.23742783993375" lon="8.459710993261181"><ele>95.66666666666667</ele><time>2026-03-30T17:20:56.999Z</time></trkpt><trkpt lat="39.23722627975687" lon="8.459768484025536"><ele>96.33333333333334</ele><time>2026-03-30T17:20:57.999Z</time></trkpt><trkpt lat="39.23702746820084" lon="8.459825001417931"><ele>97.0</ele><time>2026-03-30T17:20:58.999Z</time></trkpt><trkpt lat="39.23682641886764" lon="8.459885096791576"><ele>97.0</ele><time>2026-03-30T17:20:59.999Z</time></trkpt><trkpt lat="39.236628431502204" lon="8.459944153014176"><ele>97.0</ele><time>2026-03-30T17:21:00.999Z</time></trkpt><trkpt lat="39.236428155529424" lon="8.460003900344816"><ele>97.0</ele><time>2026-03-30T17:21:01.999Z</time></trkpt><trkpt lat="39.23622688743376" lon="8.460063573883632"><ele>97.66666666666667</ele><time>2026-03-30T17:21:02.999Z</time></trkpt><trkpt lat="39.23602914290894" lon="8.460120063273356"><ele>98.33333333333334</ele><time>2026-03-30T17:21:03.999Z</time></trkpt><trkpt lat="39.235829078043466" lon="8.46017668903297"><ele>99.0</ele><time>2026-03-30T17:21:04.999Z</time></trkpt><trkpt lat="39.23562938675677" lon="8.460230164576561"><ele>100.66666666666666</ele><time>2026-03-30T17:21:05.999Z</time></trkpt><trkpt lat="39.23543169410355" lon="8.460285471913757"><ele>102.33333333333333</ele><time>2026-03-30T17:21:06.999Z</time></trkpt><trkpt lat="39.2352334263603" lon="8.460337434901952"><ele>104.0</ele><time>2026-03-30T17:21:07.999Z</time></trkpt><trkpt lat="39.23503782962407" lon="8.460395403816507"><ele>104.33333333333333</ele><time>2026-03-30T17:21:08.999Z</time></trkpt><trkpt lat="39.23484495668973" lon="8.46045273170631"><ele>104.66666666666666</ele><time>2026-03-30T17:21:09.999Z</time></trkpt><trkpt lat="39.234656887090644" lon="8.460519686351446"><ele>105.0</ele><time>2026-03-30T17:21:10.999Z</time></trkpt><trkpt lat="39.234471557679086" lon="8.460606897842622"><ele>105.0</ele><time>2026-03-30T17:21:11.999Z</time></trkpt><trkpt lat="39.2342860720547" lon="8.460707642748416"><ele>105.0</ele><time>2026-03-30T17:21:12.999Z</time></trkpt><trkpt lat="39.23411337698005" lon="8.460831254231127"><ele>105.0</ele><time>2026-03-30T17:21:13.999Z</time></trkpt><trkpt lat="39.23394194646879" lon="8.460976697101056"><ele>106.66666666666666</ele><time>2026-03-30T17:21:15Z</time></trkpt><trkpt lat="39.233782770052045" lon="8.461142095442941"><ele>108.33333333333333</ele><time>2026-03-30T17:21:16Z</time></trkpt><trkpt lat="39.23363673285839" lon="8.461329272422669"><ele>110.0</ele><time>2026-03-30T17:21:17Z</time></trkpt><trkpt lat="39.23349778703057" lon="8.46152902238286"><ele>110.0</ele><time>2026-03-30T17:21:18Z</time></trkpt><trkpt lat="39.23336449225049" lon="8.461734743712793"><ele>110.0</ele><time>2026-03-30T17:21:19Z</time></trkpt><trkpt lat="39.23322887564795" lon="8.461935685934321"><ele>110.0</ele><time>2026-03-30T17:21:20Z</time></trkpt><trkpt lat="39.23309173527698" lon="8.462135934720536"><ele>112.66666666666666</ele><time>2026-03-30T17:21:21Z</time></trkpt><trkpt lat="39.232954283938646" lon="8.46233279858153"><ele>115.33333333333334</ele><time>2026-03-30T17:21:22Z</time></trkpt><trkpt lat="39.23281977551006" lon="8.462526401385396"><ele>118.0</ele><time>2026-03-30T17:21:23Z</time></trkpt><trkpt lat="39.23268292630467" lon="8.462716027099102"><ele>118.0</ele><time>2026-03-30T17:21:24Z</time></trkpt><trkpt lat="39.23254919749976" lon="8.462900875876963"><ele>118.0</ele><time>2026-03-30T17:21:25Z</time></trkpt><trkpt lat="39.232421199208055" lon="8.463072772679103"><ele>118.0</ele><time>2026-03-30T17:21:26Z</time></trkpt><trkpt lat="39.23229336087255" lon="8.463223684707318"><ele>119.0</ele><time>2026-03-30T17:21:27Z</time></trkpt><trkpt lat="39.23217152921328" lon="8.463365950787527"><ele>120.0</ele><time>2026-03-30T17:21:28Z</time></trkpt><trkpt lat="39.2320580815901" lon="8.463482616367381"><ele>121.0</ele><time>2026-03-30T17:21:29Z</time></trkpt><trkpt lat="39.23194582530492" lon="8.463570178952187"><ele>122.0</ele><time>2026-03-30T17:21:30Z</time></trkpt><trkpt lat="39.231833617894885" lon="8.463633763470218"><ele>122.0</ele><time>2026-03-30T17:21:31Z</time></trkpt><trkpt lat="39.23172427650384" lon="8.463684038461532"><ele>122.0</ele><time>2026-03-30T17:21:32Z</time></trkpt><trkpt lat="39.23163600990973" lon="8.463788700758505"><ele>122.0</ele><time>2026-03-30T17:21:33Z</time></trkpt><trkpt lat="39.231566823870835" lon="8.463932184353288"><ele>122.0</ele><time>2026-03-30T17:21:34Z</time></trkpt><trkpt lat="39.2314698801539" lon="8.464045086247044"><ele>122.33333333333333</ele><time>2026-03-30T17:21:35Z</time></trkpt><trkpt lat="39.23134336455635" lon="8.4641352118373"><ele>122.66666666666666</ele><time>2026-03-30T17:21:36Z</time></trkpt><trkpt lat="39.231212912177426" lon="8.464227591999428"><ele>123.0</ele><time>2026-03-30T17:21:37Z</time></trkpt><trkpt lat="39.23107702201282" lon="8.464337863574947"><ele>123.0</ele><time>2026-03-30T17:21:38Z</time></trkpt><trkpt lat="39.23092620075219" lon="8.464430256109132"><ele>123.0</ele><time>2026-03-30T17:21:39Z</time></trkpt><trkpt lat="39.2307672650548" lon="8.464521909960851"><ele>123.0</ele><time>2026-03-30T17:21:40Z</time></trkpt><trkpt lat="39.23060273986585" lon="8.464605688554624"><ele>122.66666666666666</ele><time>2026-03-30T17:21:41Z</time></trkpt><trkpt lat="39.230438448963184" lon="8.464674363773604"><ele>122.33333333333333</ele><time>2026-03-30T17:21:42Z</time></trkpt><trkpt lat="39.2302654401408" lon="8.464733276801448"><ele>122.0</ele><time>2026-03-30T17:21:43Z</time></trkpt><trkpt lat="39.23008489290892" lon="8.464783787474953"><ele>122.0</ele><time>2026-03-30T17:21:44Z</time></trkpt><trkpt lat="39.22990238169361" lon="8.464831274215898"><ele>122.0</ele><time>2026-03-30T17:21:45Z</time></trkpt><trkpt lat="39.22971743507886" lon="8.464875593903296"><ele>122.0</ele><time>2026-03-30T17:21:46Z</time></trkpt><trkpt lat="39.22953215500532" lon="8.464923794431645"><ele>122.0</ele><time>2026-03-30T17:21:47Z</time></trkpt><trkpt lat="39.22934049638373" lon="8.464964577700762"><ele>122.0</ele><time>2026-03-30T17:21:48Z</time></trkpt><trkpt lat="39.22914520386038" lon="8.465006382825203"><ele>122.0</ele><time>2026-03-30T17:21:49Z</time></trkpt><trkpt lat="39.22895683085534" lon="8.4650428915525"><ele>122.0</ele><time>2026-03-30T17:21:50Z</time></trkpt><trkpt lat="39.2287676860302" lon="8.465079025943721"><ele>122.0</ele><time>2026-03-30T17:21:51Z</time></trkpt><trkpt lat="39.22857544907286" lon="8.465121375662894"><ele>122.0</ele><time>2026-03-30T17:21:52Z</time></trkpt><trkpt lat="39.2283806238153" lon="8.465162390258842"><ele>122.0</ele><time>2026-03-30T17:21:53Z</time></trkpt><trkpt lat="39.228189080766" lon="8.465204819018712"><ele>122.0</ele><time>2026-03-30T17:21:54Z</time></trkpt><trkpt lat="39.22799564055248" lon="8.465246703860693"><ele>122.0</ele><time>2026-03-30T17:21:55Z</time></trkpt><trkpt lat="39.2278037696911" lon="8.465286624371545"><ele>121.33333333333333</ele><time>2026-03-30T17:21:56Z</time></trkpt><trkpt lat="39.22761057460458" lon="8.465327350196011"><ele>120.66666666666666</ele><time>2026-03-30T17:21:57Z</time></trkpt><trkpt lat="39.22741930269396" lon="8.465369218446863"><ele>120.0</ele><time>2026-03-30T17:21:58Z</time></trkpt><trkpt lat="39.227226499305466" lon="8.465411467139658"><ele>120.66666666666666</ele><time>2026-03-30T17:21:59Z</time></trkpt><trkpt lat="39.22703191012989" lon="8.465455135070146"><ele>121.33333333333333</ele><time>2026-03-30T17:22:00Z</time></trkpt><trkpt lat="39.22683852899202" lon="8.465497395816302"><ele>122.0</ele><time>2026-03-30T17:22:01Z</time></trkpt><trkpt lat="39.226642479567836" lon="8.465537306085832"><ele>120.66666666666666</ele><time>2026-03-30T17:22:02Z</time></trkpt><trkpt lat="39.22644725184356" lon="8.465581189817213"><ele>119.33333333333334</ele><time>2026-03-30T17:22:03Z</time></trkpt><trkpt lat="39.226251794580236" lon="8.465623125372106"><ele>118.0</ele><time>2026-03-30T17:22:04Z</time></trkpt><trkpt lat="39.22605743673568" lon="8.465670344271016"><ele>118.0</ele><time>2026-03-30T17:22:05Z</time></trkpt><trkpt lat="39.22586066905102" lon="8.465713173190517"><ele>118.0</ele><time>2026-03-30T17:22:06Z</time></trkpt><trkpt lat="39.22566147827757" lon="8.465756709104692"><ele>118.0</ele><time>2026-03-30T17:22:07Z</time></trkpt><trkpt lat="39.22546251073519" lon="8.465793959346618"><ele>117.33333333333334</ele><time>2026-03-30T17:22:08Z</time></trkpt><trkpt lat="39.225264732664975" lon="8.465838282325048"><ele>116.66666666666666</ele><time>2026-03-30T17:22:09Z</time></trkpt><trkpt lat="39.225065689730975" lon="8.465879742276972"><ele>116.0</ele><time>2026-03-30T17:22:10Z</time></trkpt><trkpt lat="39.2248694735458" lon="8.465928705147558"><ele>115.33333333333333</ele><time>2026-03-30T17:22:11Z</time></trkpt><trkpt lat="39.22466752941937" lon="8.46597141587771"><ele>114.66666666666666</ele><time>2026-03-30T17:22:12Z</time></trkpt><trkpt lat="39.2244715099733" lon="8.466011935565323"><ele>114.0</ele><time>2026-03-30T17:22:13Z</time></trkpt><trkpt lat="39.22427133044583" lon="8.4660530837337"><ele>114.0</ele><time>2026-03-30T17:22:14Z</time></trkpt><trkpt lat="39.22406873582202" lon="8.466093996528027"><ele>114.0</ele><time>2026-03-30T17:22:15Z</time></trkpt><trkpt lat="39.223865122665465" lon="8.466137308716629"><ele>114.0</ele><time>2026-03-30T17:22:16Z</time></trkpt><trkpt lat="39.223662296788824" lon="8.4661831714162"><ele>114.0</ele><time>2026-03-30T17:22:17Z</time></trkpt><trkpt lat="39.22345754448986" lon="8.466227868417851"><ele>114.0</ele><time>2026-03-30T17:22:18Z</time></trkpt><trkpt lat="39.22325103613359" lon="8.466272360918417"><ele>114.0</ele><time>2026-03-30T17:22:19Z</time></trkpt><trkpt lat="39.22304191573594" lon="8.466318591576382"><ele>114.0</ele><time>2026-03-30T17:22:19.999Z</time></trkpt><trkpt lat="39.22283295630276" lon="8.466367983058388"><ele>114.0</ele><time>2026-03-30T17:22:20.999Z</time></trkpt><trkpt lat="39.22262092473331" lon="8.466423798762175"><ele>114.0</ele><time>2026-03-30T17:22:21.999Z</time></trkpt><trkpt lat="39.222405573812026" lon="8.466490672208803"><ele>112.0</ele><time>2026-03-30T17:22:22.999Z</time></trkpt><trkpt lat="39.22219217096177" lon="8.4665650140236"><ele>110.0</ele><time>2026-03-30T17:22:23.999Z</time></trkpt><trkpt lat="39.22197997342691" lon="8.466652647512943"><ele>108.0</ele><time>2026-03-30T17:22:24.999Z</time></trkpt><trkpt lat="39.22176419731663" lon="8.466717479923778"><ele>108.0</ele><time>2026-03-30T17:22:25.999Z</time></trkpt><trkpt lat="39.22155390913136" lon="8.466810984715238"><ele>108.0</ele><time>2026-03-30T17:22:26.999Z</time></trkpt><trkpt lat="39.22134738280738" lon="8.466926037861661"><ele>108.0</ele><time>2026-03-30T17:22:27.999Z</time></trkpt><trkpt lat="39.22113393909634" lon="8.46702030700124"><ele>107.5</ele><time>2026-03-30T17:22:28.999Z</time></trkpt><trkpt lat="39.22091859659412" lon="8.467113996928905"><ele>107.0</ele><time>2026-03-30T17:22:29.999Z</time></trkpt><trkpt lat="39.22070744070919" lon="8.467213026961746"><ele>106.0</ele><time>2026-03-30T17:22:30.999Z</time></trkpt><trkpt lat="39.2204970214057" lon="8.467311526206247"><ele>105.0</ele><time>2026-03-30T17:22:31.999Z</time></trkpt><trkpt lat="39.22028468979739" lon="8.467408079581984"><ele>104.0</ele><time>2026-03-30T17:22:32.999Z</time></trkpt><trkpt lat="39.22007570146452" lon="8.467504521095401"><ele>104.0</ele><time>2026-03-30T17:22:33.999Z</time></trkpt><trkpt lat="39.21986721711759" lon="8.46759902839778"><ele>104.0</ele><time>2026-03-30T17:22:34.999Z</time></trkpt><trkpt lat="39.21966118679152" lon="8.467692861190597"><ele>104.0</ele><time>2026-03-30T17:22:35.999Z</time></trkpt><trkpt lat="39.219456948570155" lon="8.467786172512698"><ele>104.0</ele><time>2026-03-30T17:22:36.999Z</time></trkpt><trkpt lat="39.219254777401254" lon="8.467880639868051"><ele>104.0</ele><time>2026-03-30T17:22:37.999Z</time></trkpt><trkpt lat="39.21905233878253" lon="8.4679692867017"><ele>104.0</ele><time>2026-03-30T17:22:38.999Z</time></trkpt><trkpt lat="39.21884604545136" lon="8.468058565943043"><ele>103.66666666666666</ele><time>2026-03-30T17:22:39.999Z</time></trkpt><trkpt lat="39.21864220476875" lon="8.468152230046396"><ele>103.33333333333334</ele><time>2026-03-30T17:22:40.999Z</time></trkpt><trkpt lat="39.21844488143727" lon="8.468240235852896"><ele>103.0</ele><time>2026-03-30T17:22:41.999Z</time></trkpt><trkpt lat="39.21824535775822" lon="8.468327420997316"><ele>102.33333333333334</ele><time>2026-03-30T17:22:42.999Z</time></trkpt><trkpt lat="39.218037668680005" lon="8.468420608945538"><ele>101.66666666666666</ele><time>2026-03-30T17:22:43.999Z</time></trkpt><trkpt lat="39.21783237446288" lon="8.468514860083094"><ele>101.0</ele><time>2026-03-30T17:22:44.999Z</time></trkpt><trkpt lat="39.21761572788978" lon="8.468599120444491"><ele>101.0</ele><time>2026-03-30T17:22:45.999Z</time></trkpt><trkpt lat="39.2174377546749" lon="8.468705886142363"><ele>101.0</ele><time>2026-03-30T17:22:46.999Z</time></trkpt><trkpt lat="39.21723798345408" lon="8.468796443238983"><ele>101.0</ele><time>2026-03-30T17:22:47.999Z</time></trkpt><trkpt lat="39.21703700651977" lon="8.468889444367166"><ele>100.66666666666666</ele><time>2026-03-30T17:22:48.999Z</time></trkpt><trkpt lat="39.2168302214913" lon="8.468983756263933"><ele>100.33333333333334</ele><time>2026-03-30T17:22:49.999Z</time></trkpt><trkpt lat="39.216625019376714" lon="8.469075374634588"><ele>100.0</ele><time>2026-03-30T17:22:50.999Z</time></trkpt><trkpt lat="39.216415794529276" lon="8.46916823142432"><ele>98.66666666666667</ele><time>2026-03-30T17:22:51.999Z</time></trkpt><trkpt lat="39.21620580088622" lon="8.469264581654654"><ele>97.33333333333334</ele><time>2026-03-30T17:22:52.999Z</time></trkpt><trkpt lat="39.21599933796641" lon="8.469359549863144"><ele>96.0</ele><time>2026-03-30T17:22:53.999Z</time></trkpt><trkpt lat="39.215800543379956" lon="8.469454424915012"><ele>95.33333333333333</ele><time>2026-03-30T17:22:54.999Z</time></trkpt><trkpt lat="39.21561310857475" lon="8.469540612806782"><ele>94.66666666666666</ele><time>2026-03-30T17:22:55.999Z</time></trkpt><trkpt lat="39.215427595108025" lon="8.46962566409134"><ele>94.0</ele><time>2026-03-30T17:22:56.999Z</time></trkpt><trkpt lat="39.21525575987345" lon="8.469707893716029"><ele>94.0</ele><time>2026-03-30T17:22:57.999Z</time></trkpt><trkpt lat="39.21508982834453" lon="8.46978174149185"><ele>94.0</ele><time>2026-03-30T17:22:58.999Z</time></trkpt><trkpt lat="39.21492523664174" lon="8.469848276969994"><ele>94.0</ele><time>2026-03-30T17:22:59.999Z</time></trkpt><trkpt lat="39.21476935083637" lon="8.46991863691055"><ele>93.33333333333333</ele><time>2026-03-30T17:23:00.999Z</time></trkpt><trkpt lat="39.2146208169508" lon="8.469988230593007"><ele>92.66666666666667</ele><time>2026-03-30T17:23:01.999Z</time></trkpt><trkpt lat="39.21447337430157" lon="8.470053736428511"><ele>92.0</ele><time>2026-03-30T17:23:02.999Z</time></trkpt><trkpt lat="39.21433272280032" lon="8.470119141723597"><ele>92.0</ele><time>2026-03-30T17:23:03.999Z</time></trkpt><trkpt lat="39.21420123260807" lon="8.47017916922815"><ele>92.0</ele><time>2026-03-30T17:23:04.999Z</time></trkpt><trkpt lat="39.21406919340275" lon="8.47023608312892"><ele>92.0</ele><time>2026-03-30T17:23:05.999Z</time></trkpt><trkpt lat="39.21394459336578" lon="8.470295877492838"><ele>92.0</ele><time>2026-03-30T17:23:06.999Z</time></trkpt><trkpt lat="39.21383134874842" lon="8.470347072315704"><ele>91.8</ele><time>2026-03-30T17:23:07.999Z</time></trkpt><trkpt lat="39.21372245825516" lon="8.470398774226366"><ele>91.6</ele><time>2026-03-30T17:23:08.999Z</time></trkpt><trkpt lat="39.2136277044926" lon="8.470442071864596"><ele>91.39999999999999</ele><time>2026-03-30T17:23:09.999Z</time></trkpt><trkpt lat="39.2135266473084" lon="8.470485780869284"><ele>91.19999999999999</ele><time>2026-03-30T17:23:10.999Z</time></trkpt><trkpt lat="39.21342422596705" lon="8.470535174215922"><ele>91.0</ele><time>2026-03-30T17:23:11.999Z</time></trkpt><trkpt lat="39.213306822921616" lon="8.470591588199271"><ele>91.0</ele><time>2026-03-30T17:23:12.999Z</time></trkpt><trkpt lat="39.21317322648325" lon="8.4706510852112"><ele>91.0</ele><time>2026-03-30T17:23:13.999Z</time></trkpt><trkpt lat="39.21303690291027" lon="8.470710092187108"><ele>91.0</ele><time>2026-03-30T17:23:14.999Z</time></trkpt><trkpt lat="39.21289357151482" lon="8.470772431678085"><ele>91.0</ele><time>2026-03-30T17:23:15.999Z</time></trkpt><trkpt lat="39.212736329672154" lon="8.470841979446847"><ele>90.0</ele><time>2026-03-30T17:23:16.999Z</time></trkpt><trkpt lat="39.21257784792151" lon="8.470918022570052"><ele>89.0</ele><time>2026-03-30T17:23:17.999Z</time></trkpt><trkpt lat="39.21241358101117" lon="8.470998396782042"><ele>88.0</ele><time>2026-03-30T17:23:18.999Z</time></trkpt><trkpt lat="39.21224347824081" lon="8.471078087613343"><ele>87.0</ele><time>2026-03-30T17:23:19.999Z</time></trkpt><trkpt lat="39.212067255171455" lon="8.47115999663757"><ele>86.0</ele><time>2026-03-30T17:23:21Z</time></trkpt><trkpt lat="39.211888758894524" lon="8.471244174859306"><ele>85.0</ele><time>2026-03-30T17:23:22Z</time></trkpt><trkpt lat="39.2117051362649" lon="8.471329314115856"><ele>85.0</ele><time>2026-03-30T17:23:23Z</time></trkpt><trkpt lat="39.21151539740148" lon="8.471409657258071"><ele>85.0</ele><time>2026-03-30T17:23:24Z</time></trkpt><trkpt lat="39.2113204552679" lon="8.471495210889113"><ele>85.0</ele><time>2026-03-30T17:23:25Z</time></trkpt><trkpt lat="39.211122847260775" lon="8.471580929960652"><ele>84.33333333333333</ele><time>2026-03-30T17:23:26Z</time></trkpt><trkpt lat="39.21092660477383" lon="8.471672204173082"><ele>83.66666666666667</ele><time>2026-03-30T17:23:27Z</time></trkpt><trkpt lat="39.21073080223383" lon="8.471767127104343"><ele>83.0</ele><time>2026-03-30T17:23:28Z</time></trkpt><trkpt lat="39.21053533057253" lon="8.471858294700981"><ele>82.66666666666667</ele><time>2026-03-30T17:23:29Z</time></trkpt><trkpt lat="39.210339520210276" lon="8.471945556081318"><ele>82.33333333333333</ele><time>2026-03-30T17:23:30Z</time></trkpt><trkpt lat="39.21014121699917" lon="8.472037876763466"><ele>82.0</ele><time>2026-03-30T17:23:31Z</time></trkpt><trkpt lat="39.2099399050512" lon="8.472126816175065"><ele>81.33333333333333</ele><time>2026-03-30T17:23:32Z</time></trkpt><trkpt lat="39.20973712943089" lon="8.472216263727988"><ele>80.66666666666667</ele><time>2026-03-30T17:23:33Z</time></trkpt><trkpt lat="39.20953487237628" lon="8.472307338931696"><ele>80.0</ele><time>2026-03-30T17:23:34Z</time></trkpt><trkpt lat="39.209333799045" lon="8.472402098453633"><ele>80.0</ele><time>2026-03-30T17:23:35Z</time></trkpt><trkpt lat="39.209129515029296" lon="8.472502382393484"><ele>80.0</ele><time>2026-03-30T17:23:36Z</time></trkpt><trkpt lat="39.208925455344186" lon="8.47259603471201"><ele>80.0</ele><time>2026-03-30T17:23:37Z</time></trkpt><trkpt lat="39.208721021567044" lon="8.47268634836792"><ele>79.33333333333334</ele><time>2026-03-30T17:23:38Z</time></trkpt><trkpt lat="39.20851768584036" lon="8.472778115474815"><ele>78.66666666666667</ele><time>2026-03-30T17:23:39Z</time></trkpt><trkpt lat="39.20831529219527" lon="8.472870357645245"><ele>78.0</ele><time>2026-03-30T17:23:40Z</time></trkpt><trkpt lat="39.208110912055105" lon="8.472962833694691"><ele>77.66666666666667</ele><time>2026-03-30T17:23:41Z</time></trkpt><trkpt lat="39.207905252916966" lon="8.473056617344682"><ele>77.33333333333334</ele><time>2026-03-30T17:23:42Z</time></trkpt><trkpt lat="39.2076999465833" lon="8.473150348927792"><ele>77.0</ele><time>2026-03-30T17:23:43Z</time></trkpt><trkpt lat="39.20749275445846" lon="8.473245542599583"><ele>76.33333333333334</ele><time>2026-03-30T17:23:44Z</time></trkpt><trkpt lat="39.20728635728062" lon="8.473342122203459"><ele>75.66666666666667</ele><time>2026-03-30T17:23:45Z</time></trkpt><trkpt lat="39.20707897837795" lon="8.47343679881157"><ele>75.0</ele><time>2026-03-30T17:23:46Z</time></trkpt><trkpt lat="39.206875597095795" lon="8.473535280159444"><ele>75.0</ele><time>2026-03-30T17:23:47Z</time></trkpt><trkpt lat="39.20666784874781" lon="8.473631726891306"><ele>75.0</ele><time>2026-03-30T17:23:48Z</time></trkpt><trkpt lat="39.206460278865" lon="8.473723558674179"><ele>75.0</ele><time>2026-03-30T17:23:49Z</time></trkpt><trkpt lat="39.206250021685314" lon="8.473813584865827"><ele>74.33333333333333</ele><time>2026-03-30T17:23:50Z</time></trkpt><trkpt lat="39.2060403852972" lon="8.473907659577975"><ele>73.66666666666666</ele><time>2026-03-30T17:23:51Z</time></trkpt><trkpt lat="39.205832051839856" lon="8.47400217290425"><ele>73.0</ele><time>2026-03-30T17:23:52Z</time></trkpt><trkpt lat="39.20562019927676" lon="8.474101557559704"><ele>71.33333333333333</ele><time>2026-03-30T17:23:53Z</time></trkpt><trkpt lat="39.20541186147299" lon="8.474198545279407"><ele>69.66666666666667</ele><time>2026-03-30T17:23:54Z</time></trkpt><trkpt lat="39.20519885548776" lon="8.474294260994164"><ele>68.0</ele><time>2026-03-30T17:23:55Z</time></trkpt><trkpt lat="39.20499072459682" lon="8.474393640812162"><ele>67.0</ele><time>2026-03-30T17:23:56Z</time></trkpt><trkpt lat="39.20477857036079" lon="8.474490233887042"><ele>66.0</ele><time>2026-03-30T17:23:57Z</time></trkpt><trkpt lat="39.20456985815488" lon="8.474586838290861"><ele>65.0</ele><time>2026-03-30T17:23:58Z</time></trkpt><trkpt lat="39.204358517467284" lon="8.47468043829816"><ele>65.0</ele><time>2026-03-30T17:23:59Z</time></trkpt><trkpt lat="39.20414451624298" lon="8.474773666723681"><ele>65.0</ele><time>2026-03-30T17:24:00Z</time></trkpt><trkpt lat="39.203935888038444" lon="8.474866688954995"><ele>65.0</ele><time>2026-03-30T17:24:01Z</time></trkpt><trkpt lat="39.20372350144755" lon="8.474961268515841"><ele>64.66666666666667</ele><time>2026-03-30T17:24:02Z</time></trkpt><trkpt lat="39.20351437263888" lon="8.475059315679019"><ele>64.33333333333333</ele><time>2026-03-30T17:24:03Z</time></trkpt><trkpt lat="39.20330534308278" lon="8.47515674875322"><ele>64.0</ele><time>2026-03-30T17:24:04Z</time></trkpt><trkpt lat="39.20309351800698" lon="8.475253034066192"><ele>63.666666666666664</ele><time>2026-03-30T17:24:05Z</time></trkpt><trkpt lat="39.202884128483916" lon="8.475345179331516"><ele>63.33333333333333</ele><time>2026-03-30T17:24:06Z</time></trkpt><trkpt lat="39.20267239001543" lon="8.47543640384619"><ele>63.0</ele><time>2026-03-30T17:24:07Z</time></trkpt><trkpt lat="39.202461527146575" lon="8.475515430368214"><ele>63.0</ele><time>2026-03-30T17:24:08Z</time></trkpt><trkpt lat="39.2022522792487" lon="8.47558677091801"><ele>63.0</ele><time>2026-03-30T17:24:09Z</time></trkpt><trkpt lat="39.20203838776955" lon="8.47565485653822"><ele>63.0</ele><time>2026-03-30T17:24:10Z</time></trkpt><trkpt lat="39.201826009387304" lon="8.475717335705921"><ele>63.0</ele><time>2026-03-30T17:24:11Z</time></trkpt><trkpt lat="39.20161111078428" lon="8.475773610341667"><ele>63.0</ele><time>2026-03-30T17:24:12Z</time></trkpt><trkpt lat="39.2013982309057" lon="8.475825862755206"><ele>63.0</ele><time>2026-03-30T17:24:13Z</time></trkpt><trkpt lat="39.20118152385281" lon="8.475876130368993"><ele>61.66666666666667</ele><time>2026-03-30T17:24:14Z</time></trkpt><trkpt lat="39.20097142541959" lon="8.475928169945838"><ele>60.333333333333336</ele><time>2026-03-30T17:24:15Z</time></trkpt><trkpt lat="39.20075901952836" lon="8.47598167139485"><ele>59.0</ele><time>2026-03-30T17:24:16Z</time></trkpt><trkpt lat="39.200546510484656" lon="8.476035416703494"><ele>58.0</ele><time>2026-03-30T17:24:17Z</time></trkpt><trkpt lat="39.20033998434819" lon="8.476063700789592"><ele>57.0</ele><time>2026-03-30T17:24:18Z</time></trkpt><trkpt lat="39.200146098942945" lon="8.476123819751498"><ele>56.0</ele><time>2026-03-30T17:24:19Z</time></trkpt><trkpt lat="39.19995744917725" lon="8.476167408145555"><ele>55.66666666666667</ele><time>2026-03-30T17:24:20Z</time></trkpt><trkpt lat="39.19977709847301" lon="8.476211649403675"><ele>55.33333333333333</ele><time>2026-03-30T17:24:21Z</time></trkpt><trkpt lat="39.19960615475238" lon="8.47625151707033"><ele>55.0</ele><time>2026-03-30T17:24:22Z</time></trkpt><trkpt lat="39.199449310197245" lon="8.476287465608861"><ele>55.0</ele><time>2026-03-30T17:24:23Z</time></trkpt><trkpt lat="39.19930347130928" lon="8.476309476569085"><ele>55.0</ele><time>2026-03-30T17:24:24Z</time></trkpt><trkpt lat="39.19917280049836" lon="8.476313445677047"><ele>55.0</ele><time>2026-03-30T17:24:25Z</time></trkpt><trkpt lat="39.19905297700307" lon="8.476296487442923"><ele>55.0</ele><time>2026-03-30T17:24:26Z</time></trkpt><trkpt lat="39.19893344978053" lon="8.476281548251643"><ele>54.75</ele><time>2026-03-30T17:24:27Z</time></trkpt><trkpt lat="39.198820568081985" lon="8.476293241747365"><ele>54.5</ele><time>2026-03-30T17:24:28Z</time></trkpt><trkpt lat="39.19871191005905" lon="8.476364391144678"><ele>54.25</ele><time>2026-03-30T17:24:29Z</time></trkpt><trkpt lat="39.19860302525755" lon="8.47645834842919"><ele>54.0</ele><time>2026-03-30T17:24:30Z</time></trkpt><trkpt lat="39.19847775862675" lon="8.476535168429352"><ele>54.0</ele><time>2026-03-30T17:24:31Z</time></trkpt><trkpt lat="39.19832304877296" lon="8.476567378555597"><ele>54.0</ele><time>2026-03-30T17:24:32Z</time></trkpt><trkpt lat="39.19815426914039" lon="8.476591608944311"><ele>54.0</ele><time>2026-03-30T17:24:33Z</time></trkpt><trkpt lat="39.19797739634792" lon="8.47663381344206"><ele>53.33333333333333</ele><time>2026-03-30T17:24:34Z</time></trkpt><trkpt lat="39.19779314932829" lon="8.476699083815248"><ele>52.666666666666664</ele><time>2026-03-30T17:24:35Z</time></trkpt><trkpt lat="39.197613204121126" lon="8.476770284915723"><ele>52.0</ele><time>2026-03-30T17:24:36Z</time></trkpt><trkpt lat="39.197430805450374" lon="8.476843324073462"><ele>52.0</ele><time>2026-03-30T17:24:37Z</time></trkpt><trkpt lat="39.19724239881152" lon="8.476922297828423"><ele>52.0</ele><time>2026-03-30T17:24:38Z</time></trkpt><trkpt lat="39.197057781949006" lon="8.477019378360078"><ele>52.0</ele><time>2026-03-30T17:24:39Z</time></trkpt><trkpt lat="39.196875976907705" lon="8.477124249073235"><ele>51.666666666666664</ele><time>2026-03-30T17:24:40Z</time></trkpt><trkpt lat="39.1967039713418" lon="8.477233982888347"><ele>51.33333333333333</ele><time>2026-03-30T17:24:40.999Z</time></trkpt><trkpt lat="39.196531486532145" lon="8.47734993022703"><ele>51.0</ele><time>2026-03-30T17:24:41.999Z</time></trkpt><trkpt lat="39.196360382987834" lon="8.477470102151127"><ele>50.66666666666667</ele><time>2026-03-30T17:24:42.999Z</time></trkpt><trkpt lat="39.19618818505238" lon="8.477594893104072"><ele>50.333333333333336</ele><time>2026-03-30T17:24:43.999Z</time></trkpt><trkpt lat="39.19601848469163" lon="8.477729326363383"><ele>50.0</ele><time>2026-03-30T17:24:44.999Z</time></trkpt><trkpt lat="39.195853977305255" lon="8.477877435009587"><ele>49.333333333333336</ele><time>2026-03-30T17:24:45.999Z</time></trkpt><trkpt lat="39.1956949670662" lon="8.478033698997097"><ele>48.66666666666667</ele><time>2026-03-30T17:24:46.999Z</time></trkpt><trkpt lat="39.195539017286336" lon="8.47819802343917"><ele>48.0</ele><time>2026-03-30T17:24:47.999Z</time></trkpt><trkpt lat="39.19538719323506" lon="8.478364998788647"><ele>47.666666666666664</ele><time>2026-03-30T17:24:48.999Z</time></trkpt><trkpt lat="39.195236595925245" lon="8.478538147221196"><ele>47.33333333333333</ele><time>2026-03-30T17:24:49.999Z</time></trkpt><trkpt lat="39.195075958174705" lon="8.478703179917275"><ele>47.0</ele><time>2026-03-30T17:24:50.999Z</time></trkpt><trkpt lat="39.1949425826413" lon="8.478901186978272"><ele>47.0</ele><time>2026-03-30T17:24:51.999Z</time></trkpt><trkpt lat="39.194801018381106" lon="8.479093090350547"><ele>47.0</ele><time>2026-03-30T17:24:52.999Z</time></trkpt><trkpt lat="39.194667161057204" lon="8.479293541752256"><ele>47.0</ele><time>2026-03-30T17:24:53.999Z</time></trkpt><trkpt lat="39.194526208077775" lon="8.479486764232137"><ele>46.33333333333333</ele><time>2026-03-30T17:24:54.999Z</time></trkpt><trkpt lat="39.19439899986123" lon="8.479697760746454"><ele>45.666666666666664</ele><time>2026-03-30T17:24:55.999Z</time></trkpt><trkpt lat="39.1942762197195" lon="8.479911325247622"><ele>45.0</ele><time>2026-03-30T17:24:56.999Z</time></trkpt><trkpt lat="39.19416835923377" lon="8.480136266173307"><ele>45.0</ele><time>2026-03-30T17:24:57.999Z</time></trkpt><trkpt lat="39.19404399976752" lon="8.480350042550336"><ele>45.0</ele><time>2026-03-30T17:24:58.999Z</time></trkpt><trkpt lat="39.19392036120529" lon="8.480562755711315"><ele>45.0</ele><time>2026-03-30T17:24:59.999Z</time></trkpt><trkpt lat="39.193802338756505" lon="8.48077989706403"><ele>44.666666666666664</ele><time>2026-03-30T17:25:00.999Z</time></trkpt><trkpt lat="39.193684286594106" lon="8.480995480828655"><ele>44.33333333333333</ele><time>2026-03-30T17:25:01.999Z</time></trkpt><trkpt lat="39.193564376464785" lon="8.481207446757812"><ele>44.0</ele><time>2026-03-30T17:25:02.999Z</time></trkpt><trkpt lat="39.19344221350558" lon="8.481420039868004"><ele>44.0</ele><time>2026-03-30T17:25:03.999Z</time></trkpt><trkpt lat="39.19331113730613" lon="8.481622853773265"><ele>44.0</ele><time>2026-03-30T17:25:04.999Z</time></trkpt><trkpt lat="39.19320318067683" lon="8.481844422714824"><ele>44.0</ele><time>2026-03-30T17:25:05.999Z</time></trkpt><trkpt lat="39.19308405992303" lon="8.482058331158878"><ele>44.666666666666664</ele><time>2026-03-30T17:25:06.999Z</time></trkpt><trkpt lat="39.192965564019595" lon="8.482263793418726"><ele>45.333333333333336</ele><time>2026-03-30T17:25:07.999Z</time></trkpt><trkpt lat="39.19284580725168" lon="8.482471358498541"><ele>46.0</ele><time>2026-03-30T17:25:08.999Z</time></trkpt><trkpt lat="39.19272576922592" lon="8.482677318843846"><ele>46.0</ele><time>2026-03-30T17:25:09.999Z</time></trkpt><trkpt lat="39.19260902319304" lon="8.482885710241042"><ele>46.0</ele><time>2026-03-30T17:25:10.999Z</time></trkpt><trkpt lat="39.19249680237366" lon="8.483090104169912"><ele>46.0</ele><time>2026-03-30T17:25:11.999Z</time></trkpt><trkpt lat="39.19237612259365" lon="8.483297665783327"><ele>48.333333333333336</ele><time>2026-03-30T17:25:12.999Z</time></trkpt><trkpt lat="39.1922714513792" lon="8.48350118190763"><ele>50.66666666666667</ele><time>2026-03-30T17:25:13.999Z</time></trkpt><trkpt lat="39.19214320864394" lon="8.483691935958918"><ele>53.0</ele><time>2026-03-30T17:25:14.999Z</time></trkpt><trkpt lat="39.19204121880322" lon="8.483906621621212"><ele>55.0</ele><time>2026-03-30T17:25:15.999Z</time></trkpt><trkpt lat="39.19192738563222" lon="8.48410534351635"><ele>57.0</ele><time>2026-03-30T17:25:16.999Z</time></trkpt><trkpt lat="39.19180928776264" lon="8.484306611696432"><ele>59.0</ele><time>2026-03-30T17:25:17.999Z</time></trkpt><trkpt lat="39.19169057266264" lon="8.484511057681145"><ele>61.333333333333336</ele><time>2026-03-30T17:25:18.999Z</time></trkpt><trkpt lat="39.191573993731964" lon="8.484717051575947"><ele>63.66666666666667</ele><time>2026-03-30T17:25:19.999Z</time></trkpt><trkpt lat="39.19145683125477" lon="8.484923728173499"><ele>66.0</ele><time>2026-03-30T17:25:20.999Z</time></trkpt><trkpt lat="39.19134601154286" lon="8.485129812593856"><ele>66.33333333333333</ele><time>2026-03-30T17:25:21.999Z</time></trkpt><trkpt lat="39.19123036207559" lon="8.485337501540094"><ele>66.66666666666666</ele><time>2026-03-30T17:25:22.999Z</time></trkpt><trkpt lat="39.19111215271034" lon="8.485547054912585"><ele>67.0</ele><time>2026-03-30T17:25:23.999Z</time></trkpt><trkpt lat="39.19087612111571" lon="8.485958591753684"><ele>67.66666666666666</ele><time>2026-03-30T17:25:25.999Z</time></trkpt><trkpt lat="39.190752637333546" lon="8.486165245405491"><ele>68.33333333333333</ele><time>2026-03-30T17:25:27Z</time></trkpt><trkpt lat="39.190632937058446" lon="8.486368388981674"><ele>69.0</ele><time>2026-03-30T17:25:28Z</time></trkpt><trkpt lat="39.190520849358556" lon="8.486571882700066"><ele>70.33333333333333</ele><time>2026-03-30T17:25:29Z</time></trkpt><trkpt lat="39.190408896206414" lon="8.48677213423094"><ele>71.66666666666666</ele><time>2026-03-30T17:25:30Z</time></trkpt><trkpt lat="39.19029529807201" lon="8.48698099229937"><ele>73.0</ele><time>2026-03-30T17:25:31Z</time></trkpt><trkpt lat="39.19017709934825" lon="8.48718508758494"><ele>74.0</ele><time>2026-03-30T17:25:32Z</time></trkpt><trkpt lat="39.190066687675206" lon="8.487371504784594"><ele>75.0</ele><time>2026-03-30T17:25:33Z</time></trkpt><trkpt lat="39.189960593756695" lon="8.487550546221089"><ele>76.0</ele><time>2026-03-30T17:25:34Z</time></trkpt><trkpt lat="39.18985328440569" lon="8.487726474071529"><ele>76.0</ele><time>2026-03-30T17:25:35Z</time></trkpt><trkpt lat="39.189749694925" lon="8.487889572515849"><ele>76.0</ele><time>2026-03-30T17:25:36Z</time></trkpt><trkpt lat="39.18965313559603" lon="8.488042448163476"><ele>76.0</ele><time>2026-03-30T17:25:37Z</time></trkpt><trkpt lat="39.18955461228532" lon="8.488180562179434"><ele>77.0</ele><time>2026-03-30T17:25:38Z</time></trkpt><trkpt lat="39.18944620571176" lon="8.488281076749688"><ele>78.0</ele><time>2026-03-30T17:25:39Z</time></trkpt><trkpt lat="39.18935137741223" lon="8.488374241663461"><ele>79.0</ele><time>2026-03-30T17:25:40Z</time></trkpt><trkpt lat="39.189295794385686" lon="8.488502963986685"><ele>80.0</ele><time>2026-03-30T17:25:41Z</time></trkpt><trkpt lat="39.189280153289815" lon="8.488667478650576"><ele>79.75</ele><time>2026-03-30T17:25:42Z</time></trkpt><trkpt lat="39.189250837122756" lon="8.488832161056324"><ele>79.5</ele><time>2026-03-30T17:25:43Z</time></trkpt><trkpt lat="39.1891805156531" lon="8.48898196964203"><ele>79.25</ele><time>2026-03-30T17:25:44Z</time></trkpt><trkpt lat="39.189095178078816" lon="8.4891433438534"><ele>79.0</ele><time>2026-03-30T17:25:45Z</time></trkpt><trkpt lat="39.189017845512026" lon="8.489306630587935"><ele>80.66666666666666</ele><time>2026-03-30T17:25:46Z</time></trkpt><trkpt lat="39.18893399204489" lon="8.489477004673208"><ele>82.33333333333333</ele><time>2026-03-30T17:25:47Z</time></trkpt><trkpt lat="39.188850094955306" lon="8.489653924293158"><ele>84.0</ele><time>2026-03-30T17:25:48Z</time></trkpt><trkpt lat="39.188786842276095" lon="8.489851657830615"><ele>84.0</ele><time>2026-03-30T17:25:49Z</time></trkpt><trkpt lat="39.18872405730556" lon="8.490056585985178"><ele>84.0</ele><time>2026-03-30T17:25:50Z</time></trkpt><trkpt lat="39.18865580415232" lon="8.490265428739276"><ele>84.0</ele><time>2026-03-30T17:25:51Z</time></trkpt><trkpt lat="39.18858416606842" lon="8.490478419729298"><ele>83.33333333333333</ele><time>2026-03-30T17:25:52Z</time></trkpt><trkpt lat="39.18850610265105" lon="8.490695834468182"><ele>82.66666666666666</ele><time>2026-03-30T17:25:53Z</time></trkpt><trkpt lat="39.188424174066455" lon="8.490918369582134"><ele>82.0</ele><time>2026-03-30T17:25:54Z</time></trkpt><trkpt lat="39.188348843979156" lon="8.49115370073559"><ele>82.0</ele><time>2026-03-30T17:25:55Z</time></trkpt><trkpt lat="39.18828119983476" lon="8.491388442119879"><ele>82.0</ele><time>2026-03-30T17:25:56Z</time></trkpt><trkpt lat="39.18821263144369" lon="8.491603109578508"><ele>82.0</ele><time>2026-03-30T17:25:57Z</time></trkpt><trkpt lat="39.188123468560555" lon="8.491811528086032"><ele>84.66666666666666</ele><time>2026-03-30T17:25:58Z</time></trkpt><trkpt lat="39.188019828061414" lon="8.49201703778607"><ele>87.33333333333333</ele><time>2026-03-30T17:25:59Z</time></trkpt><trkpt lat="39.18790435059247" lon="8.492223688630263"><ele>90.0</ele><time>2026-03-30T17:26:00Z</time></trkpt><trkpt lat="39.18779592438669" lon="8.492436197334959"><ele>90.0</ele><time>2026-03-30T17:26:01Z</time></trkpt><trkpt lat="39.1876881995402" lon="8.492645100462841"><ele>90.0</ele><time>2026-03-30T17:26:02Z</time></trkpt><trkpt lat="39.18756254804871" lon="8.492839089178874"><ele>90.0</ele><time>2026-03-30T17:26:03Z</time></trkpt><trkpt lat="39.18743673744271" lon="8.493040030971171"><ele>91.66666666666667</ele><time>2026-03-30T17:26:04Z</time></trkpt><trkpt lat="39.18730981334354" lon="8.493238059439825"><ele>93.33333333333334</ele><time>2026-03-30T17:26:05Z</time></trkpt><trkpt lat="39.18717791428006" lon="8.493432544348522"><ele>95.0</ele><time>2026-03-30T17:26:06Z</time></trkpt><trkpt lat="39.18704525725126" lon="8.49362515645206"><ele>92.66666666666667</ele><time>2026-03-30T17:26:07Z</time></trkpt><trkpt lat="39.18691269544747" lon="8.493811932766324"><ele>90.33333333333333</ele><time>2026-03-30T17:26:08Z</time></trkpt><trkpt lat="39.18677722564025" lon="8.493997533759451"><ele>88.0</ele><time>2026-03-30T17:26:09Z</time></trkpt><trkpt lat="39.18664125543326" lon="8.494181714413429"><ele>89.0</ele><time>2026-03-30T17:26:10Z</time></trkpt><trkpt lat="39.18650512689239" lon="8.494366195710407"><ele>90.0</ele><time>2026-03-30T17:26:11Z</time></trkpt><trkpt lat="39.18637054600897" lon="8.494546947531948"><ele>91.0</ele><time>2026-03-30T17:26:12Z</time></trkpt><trkpt lat="39.18623527180063" lon="8.494724325332722"><ele>91.0</ele><time>2026-03-30T17:26:13Z</time></trkpt><trkpt lat="39.186095350247" lon="8.494894641544409"><ele>91.0</ele><time>2026-03-30T17:26:14Z</time></trkpt><trkpt lat="39.185952461213525" lon="8.495062135618815"><ele>91.0</ele><time>2026-03-30T17:26:15Z</time></trkpt><trkpt lat="39.185809241076484" lon="8.495225024603668"><ele>91.66666666666666</ele><time>2026-03-30T17:26:16Z</time></trkpt><trkpt lat="39.18566474165718" lon="8.495383005935924"><ele>92.33333333333333</ele><time>2026-03-30T17:26:17Z</time></trkpt><trkpt lat="39.18551843400935" lon="8.495539207059252"><ele>93.0</ele><time>2026-03-30T17:26:18Z</time></trkpt><trkpt lat="39.18536652064413" lon="8.495686390096958"><ele>93.0</ele><time>2026-03-30T17:26:19Z</time></trkpt><trkpt lat="39.18521430907217" lon="8.495829118885286"><ele>93.0</ele><time>2026-03-30T17:26:20Z</time></trkpt><trkpt lat="39.18506306536446" lon="8.495970682203945"><ele>93.0</ele><time>2026-03-30T17:26:21Z</time></trkpt><trkpt lat="39.18491126094271" lon="8.496109468729365"><ele>93.0</ele><time>2026-03-30T17:26:22Z</time></trkpt><trkpt lat="39.18476155273196" lon="8.496246188676619"><ele>93.0</ele><time>2026-03-30T17:26:23Z</time></trkpt><trkpt lat="39.18461119011551" lon="8.496379201751614"><ele>93.0</ele><time>2026-03-30T17:26:24Z</time></trkpt><trkpt lat="39.18446168527872" lon="8.496515337723768"><ele>93.0</ele><time>2026-03-30T17:26:25Z</time></trkpt><trkpt lat="39.184311555788064" lon="8.49665103351375"><ele>93.0</ele><time>2026-03-30T17:26:26Z</time></trkpt><trkpt lat="39.18416095854966" lon="8.49678853464989"><ele>93.0</ele><time>2026-03-30T17:26:27Z</time></trkpt><trkpt lat="39.18401032484707" lon="8.496924350164997"><ele>93.66666666666667</ele><time>2026-03-30T17:26:28Z</time></trkpt><trkpt lat="39.18385656081199" lon="8.497062745198992"><ele>94.33333333333334</ele><time>2026-03-30T17:26:29Z</time></trkpt><trkpt lat="39.18370905973645" lon="8.497205532980342"><ele>95.0</ele><time>2026-03-30T17:26:30Z</time></trkpt><trkpt lat="39.18355733661851" lon="8.497343767937288"><ele>95.0</ele><time>2026-03-30T17:26:31Z</time></trkpt><trkpt lat="39.183404113501474" lon="8.497478651378836"><ele>95.0</ele><time>2026-03-30T17:26:32Z</time></trkpt><trkpt lat="39.183250011230996" lon="8.497614258395823"><ele>95.0</ele><time>2026-03-30T17:26:33Z</time></trkpt><trkpt lat="39.18309352380246" lon="8.497749166310113"><ele>95.0</ele><time>2026-03-30T17:26:34Z</time></trkpt><trkpt lat="39.18293636809167" lon="8.497884634291303"><ele>95.0</ele><time>2026-03-30T17:26:35Z</time></trkpt><trkpt lat="39.18277455919049" lon="8.498020267596607"><ele>95.0</ele><time>2026-03-30T17:26:36Z</time></trkpt><trkpt lat="39.182615018489194" lon="8.49816027029126"><ele>95.33333333333334</ele><time>2026-03-30T17:26:37Z</time></trkpt><trkpt lat="39.182457849681334" lon="8.498298281762514"><ele>95.66666666666667</ele><time>2026-03-30T17:26:38Z</time></trkpt><trkpt lat="39.18229799725913" lon="8.4984319198906"><ele>96.0</ele><time>2026-03-30T17:26:39Z</time></trkpt><trkpt lat="39.18214004196583" lon="8.49855740232332"><ele>95.0</ele><time>2026-03-30T17:26:40Z</time></trkpt><trkpt lat="39.181972379989055" lon="8.498676852000196"><ele>94.0</ele><time>2026-03-30T17:26:41Z</time></trkpt><trkpt lat="39.1818029229657" lon="8.49878977957196"><ele>93.0</ele><time>2026-03-30T17:26:42Z</time></trkpt><trkpt lat="39.181631060759855" lon="8.49889270554403"><ele>93.33333333333333</ele><time>2026-03-30T17:26:43Z</time></trkpt><trkpt lat="39.18145376652047" lon="8.498990671299362"><ele>93.66666666666666</ele><time>2026-03-30T17:26:44Z</time></trkpt><trkpt lat="39.181275624361824" lon="8.499088747397222"><ele>94.0</ele><time>2026-03-30T17:26:45Z</time></trkpt><trkpt lat="39.181096708925935" lon="8.499189063669496"><ele>94.0</ele><time>2026-03-30T17:26:46Z</time></trkpt><trkpt lat="39.180916324066274" lon="8.499287043407612"><ele>94.0</ele><time>2026-03-30T17:26:47Z</time></trkpt><trkpt lat="39.18073476863895" lon="8.499382656053173"><ele>94.0</ele><time>2026-03-30T17:26:48Z</time></trkpt><trkpt lat="39.18055206522725" lon="8.499479644167605"><ele>93.0</ele><time>2026-03-30T17:26:49Z</time></trkpt><trkpt lat="39.18036637202731" lon="8.499572124461226"><ele>92.0</ele><time>2026-03-30T17:26:49.999Z</time></trkpt><trkpt lat="39.18018035653488" lon="8.499668742990535"><ele>91.0</ele><time>2026-03-30T17:26:50.999Z</time></trkpt><trkpt lat="39.17999079983632" lon="8.499766029138064"><ele>89.66666666666666</ele><time>2026-03-30T17:26:51.999Z</time></trkpt><trkpt lat="39.17980134067735" lon="8.499866246312019"><ele>88.33333333333333</ele><time>2026-03-30T17:26:52.999Z</time></trkpt><trkpt lat="39.17961710577886" lon="8.499973414492292"><ele>87.0</ele><time>2026-03-30T17:26:53.999Z</time></trkpt><trkpt lat="39.17943086972795" lon="8.500074776172156"><ele>87.0</ele><time>2026-03-30T17:26:54.999Z</time></trkpt><trkpt lat="39.17924258217189" lon="8.500172917930316"><ele>87.0</ele><time>2026-03-30T17:26:55.999Z</time></trkpt><trkpt lat="39.17905278324483" lon="8.500277196798544"><ele>87.0</ele><time>2026-03-30T17:26:56.999Z</time></trkpt><trkpt lat="39.1788604121053" lon="8.50038530354183"><ele>86.0</ele><time>2026-03-30T17:26:57.999Z</time></trkpt><trkpt lat="39.17866276561332" lon="8.50046914198924"><ele>85.0</ele><time>2026-03-30T17:26:58.999Z</time></trkpt><trkpt lat="39.178477297836935" lon="8.500567608320436"><ele>84.0</ele><time>2026-03-30T17:26:59.999Z</time></trkpt><trkpt lat="39.17829576880705" lon="8.500663545514925"><ele>83.0</ele><time>2026-03-30T17:27:00.999Z</time></trkpt><trkpt lat="39.17811831986739" lon="8.500757426698053"><ele>82.0</ele><time>2026-03-30T17:27:01.999Z</time></trkpt><trkpt lat="39.17794504825818" lon="8.500849379035591"><ele>81.0</ele><time>2026-03-30T17:27:02.999Z</time></trkpt><trkpt lat="39.17777916770592" lon="8.500956712014597"><ele>81.0</ele><time>2026-03-30T17:27:03.999Z</time></trkpt><trkpt lat="39.17760715198907" lon="8.501044399761462"><ele>81.0</ele><time>2026-03-30T17:27:04.999Z</time></trkpt><trkpt lat="39.17743700459889" lon="8.50113292227347"><ele>81.0</ele><time>2026-03-30T17:27:05.999Z</time></trkpt><trkpt lat="39.17727077284385" lon="8.501218606556938"><ele>80.0</ele><time>2026-03-30T17:27:06.999Z</time></trkpt><trkpt lat="39.177116362649734" lon="8.501299966752441"><ele>79.0</ele><time>2026-03-30T17:27:07.999Z</time></trkpt><trkpt lat="39.176972457390804" lon="8.501377145156628"><ele>78.0</ele><time>2026-03-30T17:27:08.999Z</time></trkpt><trkpt lat="39.1768361029006" lon="8.501442475327236"><ele>78.0</ele><time>2026-03-30T17:27:09.999Z</time></trkpt><trkpt lat="39.17671337401137" lon="8.501473171488415"><ele>78.0</ele><time>2026-03-30T17:27:10.999Z</time></trkpt><trkpt lat="39.17659122158225" lon="8.501484507596993"><ele>78.0</ele><time>2026-03-30T17:27:11.999Z</time></trkpt><trkpt lat="39.17649046147441" lon="8.50151678743753"><ele>78.0</ele><time>2026-03-30T17:27:12.999Z</time></trkpt><trkpt lat="39.17640891813539" lon="8.501589003863025"><ele>78.25</ele><time>2026-03-30T17:27:13.999Z</time></trkpt><trkpt lat="39.176341074627025" lon="8.501684552840313"><ele>78.5</ele><time>2026-03-30T17:27:14.999Z</time></trkpt><trkpt lat="39.176256294030395" lon="8.501778522657107"><ele>78.75</ele><time>2026-03-30T17:27:15.999Z</time></trkpt><trkpt lat="39.17614768920845" lon="8.501823753735614"><ele>79.0</ele><time>2026-03-30T17:27:16.999Z</time></trkpt><trkpt lat="39.176029946156255" lon="8.501884242889007"><ele>79.0</ele><time>2026-03-30T17:27:17.999Z</time></trkpt><trkpt lat="39.17590853832855" lon="8.501969184370852"><ele>79.0</ele><time>2026-03-30T17:27:18.999Z</time></trkpt><trkpt lat="39.17577088295243" lon="8.502037511251837"><ele>79.0</ele><time>2026-03-30T17:27:19.999Z</time></trkpt><trkpt lat="39.175625600149964" lon="8.502106435104164"><ele>79.0</ele><time>2026-03-30T17:27:20.999Z</time></trkpt><trkpt lat="39.17547845059656" lon="8.502179703042525"><ele>77.66666666666666</ele><time>2026-03-30T17:27:21.999Z</time></trkpt><trkpt lat="39.17532209346294" lon="8.502262724099833"><ele>76.33333333333333</ele><time>2026-03-30T17:27:22.999Z</time></trkpt><trkpt lat="39.175163333421956" lon="8.502350829272991"><ele>75.0</ele><time>2026-03-30T17:27:23.999Z</time></trkpt><trkpt lat="39.17500053209745" lon="8.502438696628214"><ele>75.0</ele><time>2026-03-30T17:27:24.999Z</time></trkpt><trkpt lat="39.174831300453235" lon="8.5025273738312"><ele>75.0</ele><time>2026-03-30T17:27:25.999Z</time></trkpt><trkpt lat="39.17465676642287" lon="8.502616479095115"><ele>75.0</ele><time>2026-03-30T17:27:26.999Z</time></trkpt><trkpt lat="39.17448111317782" lon="8.502713747688718"><ele>75.0</ele><time>2026-03-30T17:27:27.999Z</time></trkpt><trkpt lat="39.17430089833166" lon="8.502812469681736"><ele>75.0</ele><time>2026-03-30T17:27:28.999Z</time></trkpt><trkpt lat="39.17412112614885" lon="8.502913903092688"><ele>75.0</ele><time>2026-03-30T17:27:29.999Z</time></trkpt><trkpt lat="39.173938576640495" lon="8.503010920755875"><ele>75.0</ele><time>2026-03-30T17:27:30.999Z</time></trkpt><trkpt lat="39.17375681452164" lon="8.503105668096838"><ele>75.0</ele><time>2026-03-30T17:27:31.999Z</time></trkpt><trkpt lat="39.173573319483985" lon="8.503199873299122"><ele>75.0</ele><time>2026-03-30T17:27:33Z</time></trkpt><trkpt lat="39.17338908329309" lon="8.50329736799099"><ele>75.0</ele><time>2026-03-30T17:27:34Z</time></trkpt><trkpt lat="39.17320442547255" lon="8.503395397893113"><ele>75.0</ele><time>2026-03-30T17:27:35Z</time></trkpt><trkpt lat="39.17301664832322" lon="8.503494919573573"><ele>75.0</ele><time>2026-03-30T17:27:36Z</time></trkpt><trkpt lat="39.17282759866471" lon="8.503596037161106"><ele>74.66666666666667</ele><time>2026-03-30T17:27:37Z</time></trkpt><trkpt lat="39.17263484271734" lon="8.503699230190621"><ele>74.33333333333334</ele><time>2026-03-30T17:27:38Z</time></trkpt><trkpt lat="39.17243608236267" lon="8.503806024790126"><ele>74.0</ele><time>2026-03-30T17:27:39Z</time></trkpt><trkpt lat="39.172227490991126" lon="8.503915741098522"><ele>72.5</ele><time>2026-03-30T17:27:40Z</time></trkpt><trkpt lat="39.17200048431246" lon="8.504035744823758"><ele>71.0</ele><time>2026-03-30T17:27:41Z</time></trkpt><trkpt lat="39.17175889345268" lon="8.504165532869838"><ele>71.0</ele><time>2026-03-30T17:27:42Z</time></trkpt><trkpt lat="39.171530264890215" lon="8.504284636758598"><ele>71.0</ele><time>2026-03-30T17:27:43Z</time></trkpt><trkpt lat="39.17131606890323" lon="8.504400833089559"><ele>70.66666666666667</ele><time>2026-03-30T17:27:44Z</time></trkpt><trkpt lat="39.17111051039782" lon="8.50451167012443"><ele>70.33333333333333</ele><time>2026-03-30T17:27:45Z</time></trkpt><trkpt lat="39.170913778823945" lon="8.504621364608816"><ele>70.0</ele><time>2026-03-30T17:27:46Z</time></trkpt><trkpt lat="39.170715121326644" lon="8.50473003068058"><ele>70.0</ele><time>2026-03-30T17:27:47Z</time></trkpt><trkpt lat="39.17051530613991" lon="8.504835641583224"><ele>70.0</ele><time>2026-03-30T17:27:48Z</time></trkpt><trkpt lat="39.170315867123826" lon="8.504941632404845"><ele>70.0</ele><time>2026-03-30T17:27:49Z</time></trkpt><trkpt lat="39.170117176765274" lon="8.505048101239419"><ele>70.0</ele><time>2026-03-30T17:27:50Z</time></trkpt><trkpt lat="39.16991716298074" lon="8.505152925274002"><ele>70.0</ele><time>2026-03-30T17:27:51Z</time></trkpt><trkpt lat="39.16971758507291" lon="8.505257933833423"><ele>70.0</ele><time>2026-03-30T17:27:52Z</time></trkpt><trkpt lat="39.16952210794312" lon="8.505364237749692"><ele>70.66666666666666</ele><time>2026-03-30T17:27:53Z</time></trkpt><trkpt lat="39.16933219506111" lon="8.505470649610919"><ele>71.33333333333333</ele><time>2026-03-30T17:27:54Z</time></trkpt><trkpt lat="39.16914607889462" lon="8.505574340712258"><ele>72.0</ele><time>2026-03-30T17:27:55Z</time></trkpt><trkpt lat="39.16895860401466" lon="8.505675304691826"><ele>72.33333333333333</ele><time>2026-03-30T17:27:56Z</time></trkpt><trkpt lat="39.16877527443703" lon="8.505774593281604"><ele>72.66666666666666</ele><time>2026-03-30T17:27:57Z</time></trkpt><trkpt lat="39.16859877117555" lon="8.505868617460042"><ele>73.0</ele><time>2026-03-30T17:27:58Z</time></trkpt><trkpt lat="39.16842486423024" lon="8.505961493703465"><ele>73.0</ele><time>2026-03-30T17:27:59Z</time></trkpt><trkpt lat="39.1682523364804" lon="8.506053344859488"><ele>73.0</ele><time>2026-03-30T17:28:00Z</time></trkpt><trkpt lat="39.16807967318573" lon="8.506142693434148"><ele>73.0</ele><time>2026-03-30T17:28:01Z</time></trkpt><trkpt lat="39.16790919203494" lon="8.506231664924771"><ele>71.66666666666666</ele><time>2026-03-30T17:28:02Z</time></trkpt><trkpt lat="39.167738542282436" lon="8.506321756399087"><ele>70.33333333333333</ele><time>2026-03-30T17:28:03Z</time></trkpt><trkpt lat="39.16756801386521" lon="8.506411509655381"><ele>69.0</ele><time>2026-03-30T17:28:04Z</time></trkpt><trkpt lat="39.167405118953745" lon="8.506497615800903"><ele>68.66666666666667</ele><time>2026-03-30T17:28:05Z</time></trkpt><trkpt lat="39.167251475671165" lon="8.506582045004992"><ele>68.33333333333334</ele><time>2026-03-30T17:28:06Z</time></trkpt><trkpt lat="39.16710261899762" lon="8.506661321171565"><ele>68.0</ele><time>2026-03-30T17:28:07Z</time></trkpt><trkpt lat="39.166960225505775" lon="8.50673839221154"><ele>68.0</ele><time>2026-03-30T17:28:08Z</time></trkpt><trkpt lat="39.16682340065563" lon="8.506808313448694"><ele>68.0</ele><time>2026-03-30T17:28:09Z</time></trkpt><trkpt lat="39.16669359228972" lon="8.506875764323917"><ele>68.0</ele><time>2026-03-30T17:28:10Z</time></trkpt><trkpt lat="39.1665726678094" lon="8.50694134568631"><ele>68.0</ele><time>2026-03-30T17:28:11Z</time></trkpt><trkpt lat="39.16645799819193" lon="8.507002891105754"><ele>68.2</ele><time>2026-03-30T17:28:12Z</time></trkpt><trkpt lat="39.16634951559025" lon="8.507060759402922"><ele>68.4</ele><time>2026-03-30T17:28:13Z</time></trkpt><trkpt lat="39.16625311312918" lon="8.507118686983755"><ele>68.60000000000001</ele><time>2026-03-30T17:28:14Z</time></trkpt><trkpt lat="39.16616829554955" lon="8.507164755938899"><ele>68.8</ele><time>2026-03-30T17:28:15Z</time></trkpt><trkpt lat="39.16610247079541" lon="8.507196950256022"><ele>69.0</ele><time>2026-03-30T17:28:16Z</time></trkpt><trkpt lat="39.166036683992516" lon="8.507214612844649"><ele>69.0</ele><time>2026-03-30T17:28:18Z</time></trkpt><trkpt lat="39.16594612033074" lon="8.507214777245167"><ele>69.0</ele><time>2026-03-30T17:28:25Z</time></trkpt><trkpt lat="39.1658391226706" lon="8.507160334064345"><ele>69.0</ele><time>2026-03-30T17:28:27Z</time></trkpt><trkpt lat="39.16578406652778" lon="8.507106955256454"><ele>69.0</ele><time>2026-03-30T17:28:28Z</time></trkpt><trkpt lat="39.16570871301385" lon="8.507081101709613"><ele>69.0</ele><time>2026-03-30T17:28:29Z</time></trkpt><trkpt lat="39.165621080415825" lon="8.50708696478464"><ele>69.0</ele><time>2026-03-30T17:28:30Z</time></trkpt><trkpt lat="39.165534166668074" lon="8.507121864941494"><ele>69.2</ele><time>2026-03-30T17:28:31Z</time></trkpt><trkpt lat="39.1654613131301" lon="8.507183107596836"><ele>69.4</ele><time>2026-03-30T17:28:32Z</time></trkpt><trkpt lat="39.16540767474269" lon="8.507266922442351"><ele>69.6</ele><time>2026-03-30T17:28:33Z</time></trkpt><trkpt lat="39.16534941410937" lon="8.507298969072512"><ele>69.8</ele><time>2026-03-30T17:28:33.999Z</time></trkpt><trkpt lat="39.16532529785368" lon="8.50753307548282"><ele>70.0</ele><time>2026-03-30T17:28:35.999Z</time></trkpt><trkpt lat="39.165236631058505" lon="8.507661829123137"><ele>70.0</ele><time>2026-03-30T17:28:37.999Z</time></trkpt><trkpt lat="39.16517243120398" lon="8.507721540156703"><ele>70.0</ele><time>2026-03-30T17:28:38.999Z</time></trkpt><trkpt lat="39.16508744044213" lon="8.50776890412781"><ele>70.0</ele><time>2026-03-30T17:28:39.999Z</time></trkpt><trkpt lat="39.164995516576234" lon="8.507802996927454"><ele>70.0</ele><time>2026-03-30T17:28:40.999Z</time></trkpt><trkpt lat="39.16489975927496" lon="8.507846886045924"><ele>70.0</ele><time>2026-03-30T17:28:41.999Z</time></trkpt><trkpt lat="39.1647975793128" lon="8.507900508102981"><ele>71.0</ele><time>2026-03-30T17:28:42.999Z</time></trkpt><trkpt lat="39.164688135953575" lon="8.507959355374679"><ele>72.0</ele><time>2026-03-30T17:28:43.999Z</time></trkpt><trkpt lat="39.164458854745284" lon="8.508073720812055"><ele>73.0</ele><time>2026-03-30T17:28:45.999Z</time></trkpt><trkpt lat="39.16433842013664" lon="8.508131942205608"><ele>73.0</ele><time>2026-03-30T17:28:46.999Z</time></trkpt><trkpt lat="39.16421317295016" lon="8.508189304874115"><ele>73.0</ele><time>2026-03-30T17:28:47.999Z</time></trkpt><trkpt lat="39.1640834553863" lon="8.50824410778305"><ele>73.0</ele><time>2026-03-30T17:28:48.999Z</time></trkpt><trkpt lat="39.16394943092845" lon="8.508300255232296"><ele>73.0</ele><time>2026-03-30T17:28:49.999Z</time></trkpt><trkpt lat="39.16381004511497" lon="8.508355959110402"><ele>73.0</ele><time>2026-03-30T17:28:50.999Z</time></trkpt><trkpt lat="39.16366913078478" lon="8.508408760866098"><ele>73.0</ele><time>2026-03-30T17:28:51.999Z</time></trkpt><trkpt lat="39.16352263613098" lon="8.508458487325747"><ele>73.0</ele><time>2026-03-30T17:28:52.999Z</time></trkpt><trkpt lat="39.16337825761245" lon="8.508505987956443"><ele>73.0</ele><time>2026-03-30T17:28:53.999Z</time></trkpt><trkpt lat="39.163235575394125" lon="8.508545877983192"><ele>72.75</ele><time>2026-03-30T17:28:54.999Z</time></trkpt><trkpt lat="39.163089559979646" lon="8.50858621812036"><ele>72.5</ele><time>2026-03-30T17:28:55.999Z</time></trkpt><trkpt lat="39.162943673374244" lon="8.508625642779268"><ele>72.25</ele><time>2026-03-30T17:28:56.999Z</time></trkpt><trkpt lat="39.16279636328081" lon="8.508664827725347"><ele>72.0</ele><time>2026-03-30T17:28:57.999Z</time></trkpt><trkpt lat="39.162647427132015" lon="8.50870284105425"><ele>72.0</ele><time>2026-03-30T17:28:58.999Z</time></trkpt><trkpt lat="39.162496253808435" lon="8.50873816573111"><ele>72.0</ele><time>2026-03-30T17:28:59.999Z</time></trkpt><trkpt lat="39.16234323508839" lon="8.508772096656909"><ele>72.0</ele><time>2026-03-30T17:29:00.999Z</time></trkpt><trkpt lat="39.16218351726218" lon="8.508803816489927"><ele>73.0</ele><time>2026-03-30T17:29:02Z</time></trkpt><trkpt lat="39.16202275763839" lon="8.508836001536604"><ele>74.0</ele><time>2026-03-30T17:29:02.999Z</time></trkpt><trkpt lat="39.16186621417664" lon="8.508880596675127"><ele>75.0</ele><time>2026-03-30T17:29:03.999Z</time></trkpt><trkpt lat="39.16170829152328" lon="8.508926637507724"><ele>75.0</ele><time>2026-03-30T17:29:04.999Z</time></trkpt><trkpt lat="39.16155419286776" lon="8.508977841006034"><ele>75.0</ele><time>2026-03-30T17:29:05.999Z</time></trkpt><trkpt lat="39.16139633847843" lon="8.509035818429675"><ele>75.0</ele><time>2026-03-30T17:29:06.999Z</time></trkpt><trkpt lat="39.16123682908338" lon="8.509090030494624"><ele>74.33333333333333</ele><time>2026-03-30T17:29:07.999Z</time></trkpt><trkpt lat="39.16107836608422" lon="8.509148291724976"><ele>73.66666666666666</ele><time>2026-03-30T17:29:08.999Z</time></trkpt><trkpt lat="39.1609049396769" lon="8.509171604601981"><ele>73.0</ele><time>2026-03-30T17:29:09.999Z</time></trkpt><trkpt lat="39.160688321626075" lon="8.509095712748005"><ele>73.0</ele><time>2026-03-30T17:29:10.999Z</time></trkpt><trkpt lat="39.160508705944984" lon="8.509127781893467"><ele>73.0</ele><time>2026-03-30T17:29:11.999Z</time></trkpt><trkpt lat="39.160329213211085" lon="8.509156882765986"><ele>73.0</ele><time>2026-03-30T17:29:12.999Z</time></trkpt><trkpt lat="39.16014299050107" lon="8.509193436585285"><ele>73.0</ele><time>2026-03-30T17:29:13.999Z</time></trkpt><trkpt lat="39.15995710964088" lon="8.509227248660855"><ele>73.0</ele><time>2026-03-30T17:29:14.999Z</time></trkpt><trkpt lat="39.15976166714983" lon="8.50925923515368"><ele>73.0</ele><time>2026-03-30T17:29:15.999Z</time></trkpt><trkpt lat="39.15956415699275" lon="8.509293961632606"><ele>73.0</ele><time>2026-03-30T17:29:16.999Z</time></trkpt><trkpt lat="39.159368818443646" lon="8.50933222839853"><ele>73.0</ele><time>2026-03-30T17:29:17.999Z</time></trkpt><trkpt lat="39.159170389200874" lon="8.509369369559053"><ele>73.0</ele><time>2026-03-30T17:29:18.999Z</time></trkpt><trkpt lat="39.15896363337477" lon="8.509416265335782"><ele>74.66666666666666</ele><time>2026-03-30T17:29:19.999Z</time></trkpt><trkpt lat="39.15875474293075" lon="8.509463422594608"><ele>76.33333333333333</ele><time>2026-03-30T17:29:20.999Z</time></trkpt><trkpt lat="39.15854261117426" lon="8.509505690574107"><ele>78.0</ele><time>2026-03-30T17:29:21.999Z</time></trkpt><trkpt lat="39.15832655727893" lon="8.509548059190179"><ele>76.66666666666667</ele><time>2026-03-30T17:29:22.999Z</time></trkpt><trkpt lat="39.15810941996519" lon="8.509589939956491"><ele>75.33333333333334</ele><time>2026-03-30T17:29:23.999Z</time></trkpt><trkpt lat="39.15788640975539" lon="8.50963667077349"><ele>74.0</ele><time>2026-03-30T17:29:24.999Z</time></trkpt><trkpt lat="39.157666466884535" lon="8.509678784748631"><ele>74.0</ele><time>2026-03-30T17:29:25.999Z</time></trkpt><trkpt lat="39.15744752844736" lon="8.509718314469854"><ele>74.0</ele><time>2026-03-30T17:29:26.999Z</time></trkpt><trkpt lat="39.15722012710793" lon="8.509761381843148"><ele>70.0</ele><time>2026-03-30T17:29:27.999Z</time></trkpt><trkpt lat="39.15699626671036" lon="8.509807515885324"><ele>66.0</ele><time>2026-03-30T17:29:28.999Z</time></trkpt><trkpt lat="39.156766266165825" lon="8.509848694193572"><ele>66.0</ele><time>2026-03-30T17:29:29.999Z</time></trkpt><trkpt lat="39.156540268668216" lon="8.509893620081746"><ele>66.0</ele><time>2026-03-30T17:29:30.999Z</time></trkpt><trkpt lat="39.156314979422845" lon="8.509942777853094"><ele>64.33333333333333</ele><time>2026-03-30T17:29:31.999Z</time></trkpt><trkpt lat="39.156087743018574" lon="8.509985379371866"><ele>62.666666666666664</ele><time>2026-03-30T17:29:32.999Z</time></trkpt><trkpt lat="39.1558823282026" lon="8.51003483118651"><ele>61.0</ele><time>2026-03-30T17:29:33.999Z</time></trkpt><trkpt lat="39.15568472482624" lon="8.51007394270196"><ele>61.0</ele><time>2026-03-30T17:29:34.999Z</time></trkpt><trkpt lat="39.155488769957756" lon="8.510110126030812"><ele>61.0</ele><time>2026-03-30T17:29:35.999Z</time></trkpt><trkpt lat="39.15530367739652" lon="8.510150314370792"><ele>61.0</ele><time>2026-03-30T17:29:36.999Z</time></trkpt><trkpt lat="39.15512217175924" lon="8.51018192405757"><ele>61.0</ele><time>2026-03-30T17:29:37.999Z</time></trkpt><trkpt lat="39.15495182207476" lon="8.510222094597273"><ele>61.0</ele><time>2026-03-30T17:29:39Z</time></trkpt><trkpt lat="39.15480008760082" lon="8.51024826842183"><ele>61.0</ele><time>2026-03-30T17:29:40Z</time></trkpt><trkpt lat="39.15466360881102" lon="8.51027646523"><ele>60.8</ele><time>2026-03-30T17:29:41Z</time></trkpt><trkpt lat="39.15455188808379" lon="8.51029947731612"><ele>60.599999999999994</ele><time>2026-03-30T17:29:42Z</time></trkpt><trkpt lat="39.15446615650645" lon="8.510312641256505"><ele>60.4</ele><time>2026-03-30T17:29:43Z</time></trkpt><trkpt lat="39.154388149860445" lon="8.510285167583143"><ele>60.2</ele><time>2026-03-30T17:29:45Z</time></trkpt><trkpt lat="39.154319170165174" lon="8.510264334100745"><ele>60.0</ele><time>2026-03-30T17:29:51Z</time></trkpt><trkpt lat="39.15422503397294" lon="8.510155617369229"><ele>60.0</ele><time>2026-03-30T17:29:53Z</time></trkpt><trkpt lat="39.15416638006264" lon="8.510086766141107"><ele>60.0</ele><time>2026-03-30T17:29:54Z</time></trkpt><trkpt lat="39.15409289215761" lon="8.510049939297918"><ele>60.0</ele><time>2026-03-30T17:29:55Z</time></trkpt><trkpt lat="39.154001058902345" lon="8.51004893390304"><ele>60.0</ele><time>2026-03-30T17:29:56Z</time></trkpt><trkpt lat="39.153909264853795" lon="8.510085911067044"><ele>60.0</ele><time>2026-03-30T17:29:57Z</time></trkpt><trkpt lat="39.15382832360456" lon="8.5101450674482"><ele>60.0</ele><time>2026-03-30T17:29:58Z</time></trkpt><trkpt lat="39.15376244135959" lon="8.510221682450327"><ele>59.833333333333336</ele><time>2026-03-30T17:29:59Z</time></trkpt><trkpt lat="39.1537206934861" lon="8.510303089400564"><ele>59.66666666666667</ele><time>2026-03-30T17:30:00Z</time></trkpt><trkpt lat="39.15369940876725" lon="8.510389397003753"><ele>59.5</ele><time>2026-03-30T17:30:01Z</time></trkpt><trkpt lat="39.15363282269591" lon="8.510505655594294"><ele>59.333333333333336</ele><time>2026-03-30T17:30:03Z</time></trkpt><trkpt lat="39.15353633525323" lon="8.510521890348867"><ele>59.16666666666667</ele><time>2026-03-30T17:30:04Z</time></trkpt><trkpt lat="39.15345558926627" lon="8.510530115767057"><ele>59.0</ele><time>2026-03-30T17:30:05Z</time></trkpt><trkpt lat="39.153364713822256" lon="8.51051565753808"><ele>59.25</ele><time>2026-03-30T17:30:06Z</time></trkpt><trkpt lat="39.15327245325359" lon="8.510534334837846"><ele>59.5</ele><time>2026-03-30T17:30:07Z</time></trkpt><trkpt lat="39.15316590314661" lon="8.510555905005397"><ele>59.75</ele><time>2026-03-30T17:30:08Z</time></trkpt><trkpt lat="39.15304046062788" lon="8.510580011229338"><ele>60.0</ele><time>2026-03-30T17:30:09Z</time></trkpt><trkpt lat="39.1528842449603" lon="8.510610638225863"><ele>60.0</ele><time>2026-03-30T17:30:10Z</time></trkpt><trkpt lat="39.15271347373166" lon="8.51064411893242"><ele>60.0</ele><time>2026-03-30T17:30:11Z</time></trkpt><trkpt lat="39.15253946427508" lon="8.51067775063722"><ele>60.0</ele><time>2026-03-30T17:30:12Z</time></trkpt><trkpt lat="39.1523634595451" lon="8.510726400403263"><ele>60.66666666666667</ele><time>2026-03-30T17:30:13Z</time></trkpt><trkpt lat="39.15219688437772" lon="8.510760454852479"><ele>61.333333333333336</ele><time>2026-03-30T17:30:14Z</time></trkpt><trkpt lat="39.1520285660687" lon="8.510798678643198"><ele>62.0</ele><time>2026-03-30T17:30:15Z</time></trkpt><trkpt lat="39.15185630384929" lon="8.510811672402784"><ele>62.0</ele><time>2026-03-30T17:30:16Z</time></trkpt><trkpt lat="39.15168365450937" lon="8.51084530869362"><ele>62.0</ele><time>2026-03-30T17:30:17Z</time></trkpt><trkpt lat="39.151509008219456" lon="8.510879334043205"><ele>62.0</ele><time>2026-03-30T17:30:18Z</time></trkpt><trkpt lat="39.15133527490041" lon="8.510913689981498"><ele>61.66666666666667</ele><time>2026-03-30T17:30:19Z</time></trkpt><trkpt lat="39.15116259236321" lon="8.510947830161575"><ele>61.33333333333333</ele><time>2026-03-30T17:30:20Z</time></trkpt><trkpt lat="39.15098616232364" lon="8.511001288865163"><ele>61.0</ele><time>2026-03-30T17:30:21Z</time></trkpt><trkpt lat="39.15080923583944" lon="8.511036439506578"><ele>60.0</ele><time>2026-03-30T17:30:22Z</time></trkpt><trkpt lat="39.15062832318971" lon="8.511072668218578"><ele>59.0</ele><time>2026-03-30T17:30:23Z</time></trkpt><trkpt lat="39.15044574275619" lon="8.511106845096275"><ele>58.0</ele><time>2026-03-30T17:30:24Z</time></trkpt><trkpt lat="39.150256876197474" lon="8.511147020150233"><ele>58.0</ele><time>2026-03-30T17:30:25Z</time></trkpt><trkpt lat="39.150068219228615" lon="8.511164371386702"><ele>58.0</ele><time>2026-03-30T17:30:26Z</time></trkpt><trkpt lat="39.14988153569648" lon="8.511201272549982"><ele>58.0</ele><time>2026-03-30T17:30:27Z</time></trkpt><trkpt lat="39.14969277936787" lon="8.511238583441683"><ele>58.0</ele><time>2026-03-30T17:30:28Z</time></trkpt><trkpt lat="39.149504894076" lon="8.511298117317908"><ele>58.0</ele><time>2026-03-30T17:30:29Z</time></trkpt><trkpt lat="39.1493108129764" lon="8.511333436028494"><ele>58.0</ele><time>2026-03-30T17:30:30Z</time></trkpt><trkpt lat="39.14911521549062" lon="8.511367919130636"><ele>58.0</ele><time>2026-03-30T17:30:31Z</time></trkpt><trkpt lat="39.14892012263842" lon="8.511405772377096"><ele>58.0</ele><time>2026-03-30T17:30:32Z</time></trkpt><trkpt lat="39.14872279135001" lon="8.511442350705048"><ele>58.0</ele><time>2026-03-30T17:30:33Z</time></trkpt><trkpt lat="39.14852437300801" lon="8.511478474685589"><ele>58.0</ele><time>2026-03-30T17:30:34Z</time></trkpt><trkpt lat="39.1483377911556" lon="8.51151401340974"><ele>58.0</ele><time>2026-03-30T17:30:35Z</time></trkpt><trkpt lat="39.14815939863038" lon="8.51154690029511"><ele>58.0</ele><time>2026-03-30T17:30:36Z</time></trkpt><trkpt lat="39.14798960976788" lon="8.511576434831255"><ele>56.666666666666664</ele><time>2026-03-30T17:30:37Z</time></trkpt><trkpt lat="39.14782490313222" lon="8.511571183064286"><ele>55.33333333333333</ele><time>2026-03-30T17:30:38Z</time></trkpt><trkpt lat="39.147670889666955" lon="8.51160390054793"><ele>54.0</ele><time>2026-03-30T17:30:39Z</time></trkpt><trkpt lat="39.147524175463374" lon="8.511606925171135"><ele>54.0</ele><time>2026-03-30T17:30:40Z</time></trkpt><trkpt lat="39.1473906165312" lon="8.511606951429172"><ele>54.0</ele><time>2026-03-30T17:30:41Z</time></trkpt><trkpt lat="39.14726893377541" lon="8.511606841975603"><ele>54.0</ele><time>2026-03-30T17:30:42Z</time></trkpt><trkpt lat="39.14716561066493" lon="8.511589642800015"><ele>54.0</ele><time>2026-03-30T17:30:43Z</time></trkpt><trkpt lat="39.147070905049326" lon="8.511552972039205"><ele>53.666666666666664</ele><time>2026-03-30T17:30:44Z</time></trkpt><trkpt lat="39.146987548368585" lon="8.511525724178744"><ele>53.33333333333333</ele><time>2026-03-30T17:30:45Z</time></trkpt><trkpt lat="39.146908711264246" lon="8.511550011014913"><ele>53.0</ele><time>2026-03-30T17:30:46Z</time></trkpt><trkpt lat="39.146833796694" lon="8.511603222674024"><ele>52.666666666666664</ele><time>2026-03-30T17:30:47Z</time></trkpt><trkpt lat="39.146750040457775" lon="8.51164961016342"><ele>52.33333333333333</ele><time>2026-03-30T17:30:48Z</time></trkpt><trkpt lat="39.14664957174206" lon="8.511670208935914"><ele>52.0</ele><time>2026-03-30T17:30:48.999Z</time></trkpt><trkpt lat="39.14654418772701" lon="8.51165937448813"><ele>51.0</ele><time>2026-03-30T17:30:49.999Z</time></trkpt><trkpt lat="39.146440016262346" lon="8.511640072652124"><ele>50.0</ele><time>2026-03-30T17:30:50.999Z</time></trkpt><trkpt lat="39.1463261229863" lon="8.511624901417965"><ele>49.0</ele><time>2026-03-30T17:30:51.999Z</time></trkpt><trkpt lat="39.14620905706165" lon="8.511616914966218"><ele>48.0</ele><time>2026-03-30T17:30:52.999Z</time></trkpt><trkpt lat="39.1460866516187" lon="8.511611853951242"><ele>48.0</ele><time>2026-03-30T17:30:53.999Z</time></trkpt><trkpt lat="39.145955544906606" lon="8.51160383558157"><ele>48.0</ele><time>2026-03-30T17:30:54.999Z</time></trkpt><trkpt lat="39.14581457540831" lon="8.511595686840357"><ele>48.0</ele><time>2026-03-30T17:30:55.999Z</time></trkpt><trkpt lat="39.14566779660483" lon="8.5115871735174"><ele>48.0</ele><time>2026-03-30T17:30:56.999Z</time></trkpt><trkpt lat="39.1455180140394" lon="8.51158282935951"><ele>48.0</ele><time>2026-03-30T17:30:57.999Z</time></trkpt><trkpt lat="39.14535699526763" lon="8.511574573214133"><ele>48.0</ele><time>2026-03-30T17:30:58.999Z</time></trkpt><trkpt lat="39.14519556571732" lon="8.511562847352094"><ele>48.0</ele><time>2026-03-30T17:30:59.999Z</time></trkpt><trkpt lat="39.14503468713476" lon="8.511552060358445"><ele>48.0</ele><time>2026-03-30T17:31:00.999Z</time></trkpt><trkpt lat="39.144885322479624" lon="8.511551768153963"><ele>48.0</ele><time>2026-03-30T17:31:01.999Z</time></trkpt><trkpt lat="39.14474524568464" lon="8.51154672129564"><ele>48.0</ele><time>2026-03-30T17:31:02.999Z</time></trkpt><trkpt lat="39.144606673731474" lon="8.511533705174443"><ele>48.0</ele><time>2026-03-30T17:31:03.999Z</time></trkpt><trkpt lat="39.14446561388911" lon="8.511525942292772"><ele>48.0</ele><time>2026-03-30T17:31:04.999Z</time></trkpt><trkpt lat="39.144322642905585" lon="8.511521536795602"><ele>48.0</ele><time>2026-03-30T17:31:05.999Z</time></trkpt><trkpt lat="39.14417881138548" lon="8.51151539311954"><ele>48.0</ele><time>2026-03-30T17:31:06.999Z</time></trkpt><trkpt lat="39.144032328412436" lon="8.511506216262015"><ele>48.0</ele><time>2026-03-30T17:31:07.999Z</time></trkpt><trkpt lat="39.14388344499352" lon="8.511502405571001"><ele>48.0</ele><time>2026-03-30T17:31:08.999Z</time></trkpt><trkpt lat="39.143731837216365" lon="8.51149564593658"><ele>48.0</ele><time>2026-03-30T17:31:09.999Z</time></trkpt><trkpt lat="39.14358134115476" lon="8.511490537089403"><ele>48.0</ele><time>2026-03-30T17:31:10.999Z</time></trkpt><trkpt lat="39.14342486877636" lon="8.511481719492826"><ele>48.0</ele><time>2026-03-30T17:31:11.999Z</time></trkpt><trkpt lat="39.1432697336815" lon="8.511474084180664"><ele>48.0</ele><time>2026-03-30T17:31:12.999Z</time></trkpt><trkpt lat="39.143108137035895" lon="8.511464174160228"><ele>48.0</ele><time>2026-03-30T17:31:13.999Z</time></trkpt><trkpt lat="39.14294317293332" lon="8.511460396669078"><ele>48.66666666666667</ele><time>2026-03-30T17:31:14.999Z</time></trkpt><trkpt lat="39.142770770063564" lon="8.511451465835204"><ele>49.333333333333336</ele><time>2026-03-30T17:31:15.999Z</time></trkpt><trkpt lat="39.14259236763591" lon="8.511445486057614"><ele>50.0</ele><time>2026-03-30T17:31:16.999Z</time></trkpt><trkpt lat="39.142408298089336" lon="8.511435271197154"><ele>50.333333333333336</ele><time>2026-03-30T17:31:17.999Z</time></trkpt><trkpt lat="39.142223201543246" lon="8.511428967424136"><ele>50.66666666666667</ele><time>2026-03-30T17:31:18.999Z</time></trkpt><trkpt lat="39.14203802294598" lon="8.511416888641198"><ele>51.0</ele><time>2026-03-30T17:31:19.999Z</time></trkpt><trkpt lat="39.14184789100302" lon="8.51140753156574"><ele>51.0</ele><time>2026-03-30T17:31:20.999Z</time></trkpt><trkpt lat="39.14165626799702" lon="8.511398618845636"><ele>51.0</ele><time>2026-03-30T17:31:21.999Z</time></trkpt><trkpt lat="39.141464534987946" lon="8.511390294290088"><ele>51.0</ele><time>2026-03-30T17:31:22.999Z</time></trkpt><trkpt lat="39.14127094930849" lon="8.511383471829179"><ele>50.0</ele><time>2026-03-30T17:31:23.999Z</time></trkpt><trkpt lat="39.14107370318546" lon="8.511373722178739"><ele>49.0</ele><time>2026-03-30T17:31:24.999Z</time></trkpt><trkpt lat="39.140876308770515" lon="8.511363201452166"><ele>48.0</ele><time>2026-03-30T17:31:25.999Z</time></trkpt><trkpt lat="39.14067788144532" lon="8.511352928600317"><ele>48.0</ele><time>2026-03-30T17:31:26.999Z</time></trkpt><trkpt lat="39.14047925558169" lon="8.511341965180522"><ele>48.0</ele><time>2026-03-30T17:31:27.999Z</time></trkpt><trkpt lat="39.140279727200365" lon="8.511332198753534"><ele>48.0</ele><time>2026-03-30T17:31:28.999Z</time></trkpt><trkpt lat="39.14007498640659" lon="8.511322480587555"><ele>48.66666666666667</ele><time>2026-03-30T17:31:29.999Z</time></trkpt><trkpt lat="39.139869213884054" lon="8.51131511468577"><ele>49.333333333333336</ele><time>2026-03-30T17:31:30.999Z</time></trkpt><trkpt lat="39.139663479938896" lon="8.51130714548226"><ele>50.0</ele><time>2026-03-30T17:31:31.999Z</time></trkpt><trkpt lat="39.139457456325374" lon="8.511298360391262"><ele>50.0</ele><time>2026-03-30T17:31:32.999Z</time></trkpt><trkpt lat="39.1392508022303" lon="8.511288290110828"><ele>50.0</ele><time>2026-03-30T17:31:33.999Z</time></trkpt><trkpt lat="39.13904143120279" lon="8.511277344512646"><ele>50.0</ele><time>2026-03-30T17:31:34.999Z</time></trkpt><trkpt lat="39.13883367682643" lon="8.511267547248186"><ele>49.0</ele><time>2026-03-30T17:31:35.999Z</time></trkpt><trkpt lat="39.13862510168387" lon="8.511266192379896"><ele>48.0</ele><time>2026-03-30T17:31:36.999Z</time></trkpt><trkpt lat="39.13841174365501" lon="8.5112490295285"><ele>47.0</ele><time>2026-03-30T17:31:37.999Z</time></trkpt><trkpt lat="39.13819942984354" lon="8.511237622244737"><ele>46.666666666666664</ele><time>2026-03-30T17:31:38.999Z</time></trkpt><trkpt lat="39.13798688248813" lon="8.511228904176425"><ele>46.333333333333336</ele><time>2026-03-30T17:31:39.999Z</time></trkpt><trkpt lat="39.13777479842115" lon="8.51122052826268"><ele>46.0</ele><time>2026-03-30T17:31:40.999Z</time></trkpt><trkpt lat="39.13755964405735" lon="8.511212333431196"><ele>46.66666666666667</ele><time>2026-03-30T17:31:41.999Z</time></trkpt><trkpt lat="39.13734710054556" lon="8.511203746801323"><ele>47.333333333333336</ele><time>2026-03-30T17:31:42.999Z</time></trkpt><trkpt lat="39.13713600713927" lon="8.51118748714444"><ele>48.0</ele><time>2026-03-30T17:31:43.999Z</time></trkpt><trkpt lat="39.1369203310154" lon="8.511178097059853"><ele>48.0</ele><time>2026-03-30T17:31:45Z</time></trkpt><trkpt lat="39.13670816755714" lon="8.511172166473953"><ele>48.0</ele><time>2026-03-30T17:31:46Z</time></trkpt><trkpt lat="39.13648869013721" lon="8.511169977433152"><ele>48.0</ele><time>2026-03-30T17:31:47Z</time></trkpt><trkpt lat="39.13627972826554" lon="8.511159242656818"><ele>47.333333333333336</ele><time>2026-03-30T17:31:48Z</time></trkpt><trkpt lat="39.13607187288367" lon="8.511142159253748"><ele>46.66666666666667</ele><time>2026-03-30T17:31:49Z</time></trkpt><trkpt lat="39.13585788588577" lon="8.511116608919602"><ele>46.0</ele><time>2026-03-30T17:31:50Z</time></trkpt><trkpt lat="39.13563730567592" lon="8.511083283917431"><ele>45.333333333333336</ele><time>2026-03-30T17:31:51Z</time></trkpt><trkpt lat="39.135416236140735" lon="8.511042555525759"><ele>44.666666666666664</ele><time>2026-03-30T17:31:52Z</time></trkpt><trkpt lat="39.135198659176545" lon="8.510991089218058"><ele>44.0</ele><time>2026-03-30T17:31:53Z</time></trkpt><trkpt lat="39.134991932048564" lon="8.510948645700175"><ele>43.33333333333333</ele><time>2026-03-30T17:31:54Z</time></trkpt><trkpt lat="39.13477444630047" lon="8.510878913745593"><ele>42.666666666666664</ele><time>2026-03-30T17:31:55Z</time></trkpt><trkpt lat="39.13456845928589" lon="8.510783242572389"><ele>42.0</ele><time>2026-03-30T17:31:56Z</time></trkpt><trkpt lat="39.134358656831395" lon="8.510703683025032"><ele>42.0</ele><time>2026-03-30T17:31:57Z</time></trkpt><trkpt lat="39.134144343190165" lon="8.510634882801492"><ele>42.0</ele><time>2026-03-30T17:31:58Z</time></trkpt><trkpt lat="39.13393333181792" lon="8.510549864333957"><ele>42.0</ele><time>2026-03-30T17:31:59Z</time></trkpt><trkpt lat="39.133719158880204" lon="8.510467438328504"><ele>41.333333333333336</ele><time>2026-03-30T17:32:00Z</time></trkpt><trkpt lat="39.133508696648626" lon="8.510388977926052"><ele>40.66666666666667</ele><time>2026-03-30T17:32:01Z</time></trkpt><trkpt lat="39.13329276571737" lon="8.51030676918515"><ele>40.0</ele><time>2026-03-30T17:32:02Z</time></trkpt><trkpt lat="39.133084534509536" lon="8.51022819337402"><ele>40.0</ele><time>2026-03-30T17:32:03Z</time></trkpt><trkpt lat="39.13287483056913" lon="8.510149163620934"><ele>40.0</ele><time>2026-03-30T17:32:04Z</time></trkpt><trkpt lat="39.13266700262203" lon="8.510065300492263"><ele>40.0</ele><time>2026-03-30T17:32:05Z</time></trkpt><trkpt lat="39.13245297096725" lon="8.509981497543592"><ele>39.333333333333336</ele><time>2026-03-30T17:32:06Z</time></trkpt><trkpt lat="39.13224351148144" lon="8.509902664914241"><ele>38.666666666666664</ele><time>2026-03-30T17:32:07Z</time></trkpt><trkpt lat="39.132033391033836" lon="8.509832445238985"><ele>38.0</ele><time>2026-03-30T17:32:08Z</time></trkpt><trkpt lat="39.13182437726819" lon="8.50977536136068"><ele>38.0</ele><time>2026-03-30T17:32:09Z</time></trkpt><trkpt lat="39.13162194577205" lon="8.509726276266496"><ele>38.0</ele><time>2026-03-30T17:32:10Z</time></trkpt><trkpt lat="39.131422238815496" lon="8.509694022705117"><ele>38.0</ele><time>2026-03-30T17:32:11Z</time></trkpt><trkpt lat="39.131231493873976" lon="8.509669654663039"><ele>37.666666666666664</ele><time>2026-03-30T17:32:12Z</time></trkpt><trkpt lat="39.13104945709809" lon="8.509673024853884"><ele>37.333333333333336</ele><time>2026-03-30T17:32:13Z</time></trkpt><trkpt lat="39.130877280342496" lon="8.509698619409884"><ele>37.0</ele><time>2026-03-30T17:32:14Z</time></trkpt><trkpt lat="39.130716436804576" lon="8.509732022717985"><ele>37.0</ele><time>2026-03-30T17:32:15Z</time></trkpt><trkpt lat="39.130568577320425" lon="8.509773642235661"><ele>37.0</ele><time>2026-03-30T17:32:16Z</time></trkpt><trkpt lat="39.13047128427912" lon="8.509840388708968"><ele>37.0</ele><time>2026-03-30T17:32:17Z</time></trkpt><trkpt lat="39.13034889298723" lon="8.509866218652428"><ele>37.0</ele><time>2026-03-30T17:32:18Z</time></trkpt><trkpt lat="39.130247616500895" lon="8.50992656276956"><ele>37.0</ele><time>2026-03-30T17:32:19Z</time></trkpt><trkpt lat="39.13013786241474" lon="8.509959997173059"><ele>37.0</ele><time>2026-03-30T17:32:20Z</time></trkpt><trkpt lat="39.13004107892115" lon="8.510001868937149"><ele>37.0</ele><time>2026-03-30T17:32:21Z</time></trkpt><trkpt lat="39.12995538161523" lon="8.510053128880521"><ele>37.0</ele><time>2026-03-30T17:32:22Z</time></trkpt><trkpt lat="39.12986950335727" lon="8.510070925358535"><ele>37.0</ele><time>2026-03-30T17:32:23Z</time></trkpt><trkpt lat="39.12979902736071" lon="8.510115215413448"><ele>37.0</ele><time>2026-03-30T17:32:24Z</time></trkpt><trkpt lat="39.129709959708826" lon="8.510108614559723"><ele>37.0</ele><time>2026-03-30T17:32:25Z</time></trkpt><trkpt lat="39.12962552742247" lon="8.510059434642859"><ele>37.0</ele><time>2026-03-30T17:32:26Z</time></trkpt><trkpt lat="39.12954419011555" lon="8.510001318645395"><ele>37.0</ele><time>2026-03-30T17:32:27Z</time></trkpt><trkpt lat="39.12944355814155" lon="8.50995055346219"><ele>37.0</ele><time>2026-03-30T17:32:28Z</time></trkpt><trkpt lat="39.12930732769927" lon="8.509981321932301"><ele>37.0</ele><time>2026-03-30T17:32:30Z</time></trkpt><trkpt lat="39.12922653418651" lon="8.51004866770198"><ele>37.0</ele><time>2026-03-30T17:32:31Z</time></trkpt><trkpt lat="39.1291603804296" lon="8.510158248833578"><ele>37.0</ele><time>2026-03-30T17:32:32Z</time></trkpt><trkpt lat="39.12911085425314" lon="8.510288577118661"><ele>37.0</ele><time>2026-03-30T17:32:33Z</time></trkpt><trkpt lat="39.12905233933176" lon="8.510414996260698"><ele>37.0</ele><time>2026-03-30T17:32:34Z</time></trkpt><trkpt lat="39.12895253262365" lon="8.510506791037566"><ele>36.333333333333336</ele><time>2026-03-30T17:32:35Z</time></trkpt><trkpt lat="39.12881291922304" lon="8.510560258237366"><ele>35.666666666666664</ele><time>2026-03-30T17:32:36Z</time></trkpt><trkpt lat="39.12866047353621" lon="8.510610084379307"><ele>35.0</ele><time>2026-03-30T17:32:37Z</time></trkpt><trkpt lat="39.12851522742426" lon="8.51066940855436"><ele>35.0</ele><time>2026-03-30T17:32:38Z</time></trkpt><trkpt lat="39.12836033942946" lon="8.510736394769747"><ele>35.0</ele><time>2026-03-30T17:32:39Z</time></trkpt><trkpt lat="39.128199400506105" lon="8.510813483343323"><ele>35.0</ele><time>2026-03-30T17:32:40Z</time></trkpt><trkpt lat="39.128034553255" lon="8.510893172972533"><ele>35.0</ele><time>2026-03-30T17:32:41Z</time></trkpt><trkpt lat="39.12787244889949" lon="8.51097351444499"><ele>35.0</ele><time>2026-03-30T17:32:42Z</time></trkpt><trkpt lat="39.12770811718018" lon="8.511053855778417"><ele>35.0</ele><time>2026-03-30T17:32:43Z</time></trkpt><trkpt lat="39.12754358533208" lon="8.511139801846307"><ele>34.0</ele><time>2026-03-30T17:32:44Z</time></trkpt><trkpt lat="39.127383805836395" lon="8.511238151783585"><ele>33.0</ele><time>2026-03-30T17:32:45Z</time></trkpt><trkpt lat="39.127223347412404" lon="8.511348612792906"><ele>32.0</ele><time>2026-03-30T17:32:46Z</time></trkpt><trkpt lat="39.12706399249715" lon="8.511462460344452"><ele>32.0</ele><time>2026-03-30T17:32:47Z</time></trkpt><trkpt lat="39.12690343417699" lon="8.511578655834883"><ele>32.0</ele><time>2026-03-30T17:32:48Z</time></trkpt><trkpt lat="39.12673857648541" lon="8.511695986947846"><ele>32.0</ele><time>2026-03-30T17:32:49Z</time></trkpt><trkpt lat="39.12657194444537" lon="8.511808188265043"><ele>31.333333333333332</ele><time>2026-03-30T17:32:50Z</time></trkpt><trkpt lat="39.12640332280282" lon="8.511920865523004"><ele>30.666666666666664</ele><time>2026-03-30T17:32:51Z</time></trkpt><trkpt lat="39.1262341000327" lon="8.512038488415804"><ele>30.0</ele><time>2026-03-30T17:32:52Z</time></trkpt><trkpt lat="39.12606349695293" lon="8.512159717429443"><ele>30.0</ele><time>2026-03-30T17:32:53Z</time></trkpt><trkpt lat="39.12589201409384" lon="8.512280926660502"><ele>30.0</ele><time>2026-03-30T17:32:54Z</time></trkpt><trkpt lat="39.12572389635866" lon="8.512407192380769"><ele>30.0</ele><time>2026-03-30T17:32:55Z</time></trkpt><trkpt lat="39.125556273284026" lon="8.512524312441245"><ele>29.0</ele><time>2026-03-30T17:32:56Z</time></trkpt><trkpt lat="39.125391031402586" lon="8.512641983992642"><ele>28.0</ele><time>2026-03-30T17:32:57Z</time></trkpt><trkpt lat="39.12523209337611" lon="8.512751153726489"><ele>27.0</ele><time>2026-03-30T17:32:58Z</time></trkpt><trkpt lat="39.12507357206278" lon="8.512861636198771"><ele>26.666666666666664</ele><time>2026-03-30T17:32:59Z</time></trkpt><trkpt lat="39.12491596359293" lon="8.512970471670302"><ele>26.333333333333332</ele><time>2026-03-30T17:33:00Z</time></trkpt><trkpt lat="39.124757673171246" lon="8.51308071291241"><ele>26.0</ele><time>2026-03-30T17:33:01Z</time></trkpt><trkpt lat="39.12459698739358" lon="8.513189545895864"><ele>26.0</ele><time>2026-03-30T17:33:02Z</time></trkpt><trkpt lat="39.124432458386835" lon="8.513302579330002"><ele>26.0</ele><time>2026-03-30T17:33:03Z</time></trkpt><trkpt lat="39.124268748483544" lon="8.513409405564655"><ele>26.0</ele><time>2026-03-30T17:33:04Z</time></trkpt><trkpt lat="39.12410746311897" lon="8.513524213508274"><ele>25.666666666666664</ele><time>2026-03-30T17:33:05Z</time></trkpt><trkpt lat="39.12394703313748" lon="8.513639477548379"><ele>25.333333333333336</ele><time>2026-03-30T17:33:06Z</time></trkpt><trkpt lat="39.123783421586324" lon="8.513751212287838"><ele>25.0</ele><time>2026-03-30T17:33:07Z</time></trkpt><trkpt lat="39.12362092082934" lon="8.513856483466007"><ele>25.0</ele><time>2026-03-30T17:33:08Z</time></trkpt><trkpt lat="39.1234631362111" lon="8.513968153132662"><ele>25.0</ele><time>2026-03-30T17:33:09Z</time></trkpt><trkpt lat="39.123301547019956" lon="8.514076848518972"><ele>25.0</ele><time>2026-03-30T17:33:10Z</time></trkpt><trkpt lat="39.12314300521766" lon="8.514187478947221"><ele>25.0</ele><time>2026-03-30T17:33:11Z</time></trkpt><trkpt lat="39.12298312868182" lon="8.514300135847009"><ele>25.0</ele><time>2026-03-30T17:33:12Z</time></trkpt><trkpt lat="39.12282529473203" lon="8.514413005979677"><ele>25.0</ele><time>2026-03-30T17:33:13Z</time></trkpt><trkpt lat="39.12266423179841" lon="8.514520984167646"><ele>24.666666666666668</ele><time>2026-03-30T17:33:14Z</time></trkpt><trkpt lat="39.12250186622341" lon="8.514629717053191"><ele>24.333333333333336</ele><time>2026-03-30T17:33:15Z</time></trkpt><trkpt lat="39.12234654822679" lon="8.514741358894506"><ele>24.0</ele><time>2026-03-30T17:33:16Z</time></trkpt><trkpt lat="39.12218872650144" lon="8.514853803551162"><ele>24.0</ele><time>2026-03-30T17:33:17Z</time></trkpt><trkpt lat="39.122029961477566" lon="8.51496087081457"><ele>24.0</ele><time>2026-03-30T17:33:18Z</time></trkpt><trkpt lat="39.12187216208587" lon="8.515075675095499"><ele>24.0</ele><time>2026-03-30T17:33:19Z</time></trkpt><trkpt lat="39.12171295396967" lon="8.515185509582784"><ele>23.666666666666668</ele><time>2026-03-30T17:33:20Z</time></trkpt><trkpt lat="39.12156054847071" lon="8.515289464177727"><ele>23.333333333333336</ele><time>2026-03-30T17:33:21Z</time></trkpt><trkpt lat="39.12141122536058" lon="8.515384405264085"><ele>23.0</ele><time>2026-03-30T17:33:22Z</time></trkpt><trkpt lat="39.121263422835426" lon="8.515489303987014"><ele>23.0</ele><time>2026-03-30T17:33:23Z</time></trkpt><trkpt lat="39.12111645135908" lon="8.515590375889783"><ele>23.0</ele><time>2026-03-30T17:33:24Z</time></trkpt><trkpt lat="39.12096604337726" lon="8.51569030327877"><ele>23.0</ele><time>2026-03-30T17:33:25Z</time></trkpt><trkpt lat="39.12082039652769" lon="8.515790550819629"><ele>23.333333333333336</ele><time>2026-03-30T17:33:25.999Z</time></trkpt><trkpt lat="39.12067495171989" lon="8.51589437861225"><ele>23.666666666666668</ele><time>2026-03-30T17:33:26.999Z</time></trkpt><trkpt lat="39.12053451710259" lon="8.515990896407578"><ele>24.0</ele><time>2026-03-30T17:33:27.999Z</time></trkpt><trkpt lat="39.1204035673108" lon="8.516083915129123"><ele>24.0</ele><time>2026-03-30T17:33:28.999Z</time></trkpt><trkpt lat="39.120275616080846" lon="8.516174232110155"><ele>24.0</ele><time>2026-03-30T17:33:29.999Z</time></trkpt><trkpt lat="39.1201431657041" lon="8.516251922452549"><ele>24.0</ele><time>2026-03-30T17:33:30.999Z</time></trkpt><trkpt lat="39.12000954848127" lon="8.516320187409626"><ele>24.0</ele><time>2026-03-30T17:33:31.999Z</time></trkpt><trkpt lat="39.11988109567612" lon="8.516376577307438"><ele>23.5</ele><time>2026-03-30T17:33:32.999Z</time></trkpt><trkpt lat="39.11975724872827" lon="8.516428649712356"><ele>23.0</ele><time>2026-03-30T17:33:33.999Z</time></trkpt><trkpt lat="39.11964089845226" lon="8.516479879507036"><ele>22.5</ele><time>2026-03-30T17:33:34.999Z</time></trkpt><trkpt lat="39.11952616610622" lon="8.516527445105698"><ele>22.0</ele><time>2026-03-30T17:33:35.999Z</time></trkpt><trkpt lat="39.11940423123096" lon="8.516567241188264"><ele>22.0</ele><time>2026-03-30T17:33:36.999Z</time></trkpt><trkpt lat="39.11927790280947" lon="8.516607625510872"><ele>22.0</ele><time>2026-03-30T17:33:37.999Z</time></trkpt><trkpt lat="39.11915085060567" lon="8.516642231331003"><ele>22.0</ele><time>2026-03-30T17:33:38.999Z</time></trkpt><trkpt lat="39.11902706065404" lon="8.516673107065488"><ele>22.0</ele><time>2026-03-30T17:33:39.999Z</time></trkpt><trkpt lat="39.11891178857658" lon="8.516696849664413"><ele>22.0</ele><time>2026-03-30T17:33:40.999Z</time></trkpt><trkpt lat="39.11880129512674" lon="8.516719187368341"><ele>22.0</ele><time>2026-03-30T17:33:41.999Z</time></trkpt><trkpt lat="39.1186827934973" lon="8.516742847053747"><ele>22.0</ele><time>2026-03-30T17:33:42.999Z</time></trkpt><trkpt lat="39.118556523983536" lon="8.516763452513162"><ele>22.0</ele><time>2026-03-30T17:33:43.999Z</time></trkpt><trkpt lat="39.11842062212183" lon="8.516770853405461"><ele>22.0</ele><time>2026-03-30T17:33:44.999Z</time></trkpt><trkpt lat="39.11827682572537" lon="8.516770763121654"><ele>22.0</ele><time>2026-03-30T17:33:45.999Z</time></trkpt><trkpt lat="39.11812697877678" lon="8.516771633840353"><ele>22.0</ele><time>2026-03-30T17:33:46.999Z</time></trkpt><trkpt lat="39.11796891919474" lon="8.51676362359097"><ele>21.666666666666664</ele><time>2026-03-30T17:33:47.999Z</time></trkpt><trkpt lat="39.1178040531366" lon="8.516758648798834"><ele>21.333333333333332</ele><time>2026-03-30T17:33:48.999Z</time></trkpt><trkpt lat="39.11763324883162" lon="8.516741258762606"><ele>21.0</ele><time>2026-03-30T17:33:49.999Z</time></trkpt><trkpt lat="39.117455357764065" lon="8.516717142737143"><ele>21.0</ele><time>2026-03-30T17:33:51Z</time></trkpt><trkpt lat="39.1172773985853" lon="8.516682109364643"><ele>21.0</ele><time>2026-03-30T17:33:52Z</time></trkpt><trkpt lat="39.11710742434956" lon="8.516637061259296"><ele>21.0</ele><time>2026-03-30T17:33:53Z</time></trkpt><trkpt lat="39.1169400687284" lon="8.516580570982827"><ele>21.0</ele><time>2026-03-30T17:33:54Z</time></trkpt><trkpt lat="39.11676864554444" lon="8.516515845170103"><ele>21.0</ele><time>2026-03-30T17:33:55Z</time></trkpt><trkpt lat="39.116592785064" lon="8.516444658813302"><ele>21.0</ele><time>2026-03-30T17:33:56Z</time></trkpt><trkpt lat="39.1164104049218" lon="8.516369453697978"><ele>20.666666666666668</ele><time>2026-03-30T17:33:57Z</time></trkpt><trkpt lat="39.11621985416428" lon="8.516289863689746"><ele>20.333333333333336</ele><time>2026-03-30T17:33:58Z</time></trkpt><trkpt lat="39.11603508905615" lon="8.516189473929865"><ele>20.0</ele><time>2026-03-30T17:33:59Z</time></trkpt><trkpt lat="39.11584982487475" lon="8.516108401825539"><ele>19.666666666666668</ele><time>2026-03-30T17:34:00Z</time></trkpt><trkpt lat="39.11566468323207" lon="8.516027383335835"><ele>19.333333333333332</ele><time>2026-03-30T17:34:01Z</time></trkpt><trkpt lat="39.1154760653886" lon="8.515961183612683"><ele>19.0</ele><time>2026-03-30T17:34:02Z</time></trkpt><trkpt lat="39.1152980763041" lon="8.515875008756948"><ele>19.0</ele><time>2026-03-30T17:34:03Z</time></trkpt><trkpt lat="39.11512221522742" lon="8.515799737933051"><ele>19.0</ele><time>2026-03-30T17:34:04Z</time></trkpt><trkpt lat="39.11495115334664" lon="8.515732716698428"><ele>19.0</ele><time>2026-03-30T17:34:05Z</time></trkpt><trkpt lat="39.11478393210173" lon="8.515658952672107"><ele>19.0</ele><time>2026-03-30T17:34:06Z</time></trkpt><trkpt lat="39.11462165050285" lon="8.51558174564695"><ele>19.0</ele><time>2026-03-30T17:34:07Z</time></trkpt><trkpt lat="39.114463341271055" lon="8.515511839616389"><ele>19.0</ele><time>2026-03-30T17:34:08Z</time></trkpt><trkpt lat="39.11431234470052" lon="8.515448843772162"><ele>19.0</ele><time>2026-03-30T17:34:09Z</time></trkpt><trkpt lat="39.114172629516716" lon="8.515364823322153"><ele>19.0</ele><time>2026-03-30T17:34:10Z</time></trkpt><trkpt lat="39.11403530613802" lon="8.51530353145277"><ele>19.0</ele><time>2026-03-30T17:34:11Z</time></trkpt><trkpt lat="39.11389176333477" lon="8.515262022826619"><ele>19.0</ele><time>2026-03-30T17:34:12Z</time></trkpt><trkpt lat="39.113756799660955" lon="8.515189944851004"><ele>19.0</ele><time>2026-03-30T17:34:13Z</time></trkpt><trkpt lat="39.113616072051826" lon="8.51513752674429"><ele>19.0</ele><time>2026-03-30T17:34:14Z</time></trkpt><trkpt lat="39.11347656298326" lon="8.515076105176217"><ele>19.0</ele><time>2026-03-30T17:34:15Z</time></trkpt><trkpt lat="39.1133350821888" lon="8.515013913233767"><ele>19.0</ele><time>2026-03-30T17:34:16Z</time></trkpt><trkpt lat="39.11319728984508" lon="8.514954532151469"><ele>19.0</ele><time>2026-03-30T17:34:17Z</time></trkpt><trkpt lat="39.11306859356837" lon="8.514893276555403"><ele>19.0</ele><time>2026-03-30T17:34:18Z</time></trkpt><trkpt lat="39.11294262208902" lon="8.514835012966268"><ele>19.0</ele><time>2026-03-30T17:34:19Z</time></trkpt><trkpt lat="39.11281173879527" lon="8.514777176016848"><ele>19.0</ele><time>2026-03-30T17:34:20Z</time></trkpt><trkpt lat="39.11267934892463" lon="8.514714735510626"><ele>19.0</ele><time>2026-03-30T17:34:21Z</time></trkpt><trkpt lat="39.112538978366516" lon="8.514655380773199"><ele>19.0</ele><time>2026-03-30T17:34:22Z</time></trkpt><trkpt lat="39.11239480841749" lon="8.514592665216586"><ele>19.0</ele><time>2026-03-30T17:34:23Z</time></trkpt><trkpt lat="39.1122457515" lon="8.514527699685638"><ele>19.0</ele><time>2026-03-30T17:34:24Z</time></trkpt><trkpt lat="39.112093907082986" lon="8.51445783142053"><ele>19.0</ele><time>2026-03-30T17:34:25Z</time></trkpt><trkpt lat="39.11194120742445" lon="8.514388866344547"><ele>19.0</ele><time>2026-03-30T17:34:26Z</time></trkpt><trkpt lat="39.11178100279408" lon="8.514321583559452"><ele>19.0</ele><time>2026-03-30T17:34:27Z</time></trkpt><trkpt lat="39.111628945854726" lon="8.514243179756127"><ele>19.0</ele><time>2026-03-30T17:34:28Z</time></trkpt><trkpt lat="39.111470751488355" lon="8.514174831152761"><ele>19.0</ele><time>2026-03-30T17:34:29Z</time></trkpt><trkpt lat="39.11131206426605" lon="8.514110437196935"><ele>18.666666666666664</ele><time>2026-03-30T17:34:30Z</time></trkpt><trkpt lat="39.1111539165118" lon="8.514026107056134"><ele>18.333333333333332</ele><time>2026-03-30T17:34:31Z</time></trkpt><trkpt lat="39.1109874821321" lon="8.513963007279477"><ele>18.0</ele><time>2026-03-30T17:34:32Z</time></trkpt><trkpt lat="39.11081622018105" lon="8.513921166885465"><ele>17.666666666666668</ele><time>2026-03-30T17:34:33Z</time></trkpt><trkpt lat="39.1106455014199" lon="8.51386675445723"><ele>17.333333333333336</ele><time>2026-03-30T17:34:34Z</time></trkpt><trkpt lat="39.11047232857497" lon="8.513819757741894"><ele>17.0</ele><time>2026-03-30T17:34:35Z</time></trkpt><trkpt lat="39.110296898766634" lon="8.513774260993925"><ele>17.0</ele><time>2026-03-30T17:34:36Z</time></trkpt><trkpt lat="39.11012213000433" lon="8.513728464731063"><ele>17.0</ele><time>2026-03-30T17:34:37Z</time></trkpt><trkpt lat="39.109950136451225" lon="8.513684887862029"><ele>17.0</ele><time>2026-03-30T17:34:38Z</time></trkpt><trkpt lat="39.109779401246854" lon="8.513642139745913"><ele>16.0</ele><time>2026-03-30T17:34:39Z</time></trkpt><trkpt lat="39.109609019330385" lon="8.513598578949875"><ele>15.0</ele><time>2026-03-30T17:34:40Z</time></trkpt><trkpt lat="39.109438732180635" lon="8.5135537126728"><ele>14.0</ele><time>2026-03-30T17:34:41Z</time></trkpt><trkpt lat="39.10926732704328" lon="8.51351090490813"><ele>14.0</ele><time>2026-03-30T17:34:42Z</time></trkpt><trkpt lat="39.10909673037355" lon="8.513470816742066"><ele>14.0</ele><time>2026-03-30T17:34:43Z</time></trkpt><trkpt lat="39.10892483629542" lon="8.513431628442174"><ele>14.0</ele><time>2026-03-30T17:34:44Z</time></trkpt><trkpt lat="39.1087534778311" lon="8.51339054331398"><ele>14.666666666666668</ele><time>2026-03-30T17:34:45Z</time></trkpt><trkpt lat="39.108581692672765" lon="8.513343740136916"><ele>15.333333333333332</ele><time>2026-03-30T17:34:46Z</time></trkpt><trkpt lat="39.10840789057666" lon="8.513296075513034"><ele>16.0</ele><time>2026-03-30T17:34:47Z</time></trkpt><trkpt lat="39.10823209406695" lon="8.513250803901428"><ele>16.0</ele><time>2026-03-30T17:34:48Z</time></trkpt><trkpt lat="39.108054505764706" lon="8.513209226140695"><ele>16.0</ele><time>2026-03-30T17:34:49Z</time></trkpt><trkpt lat="39.10788220414966" lon="8.51317051170495"><ele>16.0</ele><time>2026-03-30T17:34:50Z</time></trkpt><trkpt lat="39.10771413316165" lon="8.513132323227493"><ele>16.0</ele><time>2026-03-30T17:34:51Z</time></trkpt><trkpt lat="39.107545885618805" lon="8.513091437550115"><ele>16.0</ele><time>2026-03-30T17:34:52Z</time></trkpt><trkpt lat="39.10738169590768" lon="8.513048361046637"><ele>16.0</ele><time>2026-03-30T17:34:53Z</time></trkpt><trkpt lat="39.10721841423105" lon="8.513006596292096"><ele>15.0</ele><time>2026-03-30T17:34:54Z</time></trkpt><trkpt lat="39.10705379877884" lon="8.512966373933818"><ele>14.0</ele><time>2026-03-30T17:34:55Z</time></trkpt><trkpt lat="39.10688885802152" lon="8.512923841186472"><ele>13.0</ele><time>2026-03-30T17:34:56Z</time></trkpt><trkpt lat="39.1067224166517" lon="8.512878432579528"><ele>12.333333333333332</ele><time>2026-03-30T17:34:57Z</time></trkpt><trkpt lat="39.10655981520539" lon="8.512832666012326"><ele>11.666666666666666</ele><time>2026-03-30T17:34:58Z</time></trkpt><trkpt lat="39.10639616598079" lon="8.512789864141713"><ele>11.0</ele><time>2026-03-30T17:34:59Z</time></trkpt><trkpt lat="39.106230392941406" lon="8.51274834516025"><ele>11.0</ele><time>2026-03-30T17:35:00Z</time></trkpt><trkpt lat="39.106063960893664" lon="8.51270973215782"><ele>11.0</ele><time>2026-03-30T17:35:01Z</time></trkpt><trkpt lat="39.10589684519796" lon="8.512670037656108"><ele>11.0</ele><time>2026-03-30T17:35:02Z</time></trkpt><trkpt lat="39.105728689917825" lon="8.512631603849673"><ele>12.0</ele><time>2026-03-30T17:35:03Z</time></trkpt><trkpt lat="39.10556177390085" lon="8.512589369643925"><ele>13.0</ele><time>2026-03-30T17:35:04Z</time></trkpt><trkpt lat="39.10539445341784" lon="8.51254753326902"><ele>14.0</ele><time>2026-03-30T17:35:05Z</time></trkpt><trkpt lat="39.105227884819406" lon="8.512501509262394"><ele>14.0</ele><time>2026-03-30T17:35:06Z</time></trkpt><trkpt lat="39.105059003739456" lon="8.512451928444744"><ele>14.0</ele><time>2026-03-30T17:35:07Z</time></trkpt><trkpt lat="39.10489107393782" lon="8.512405648590926"><ele>14.0</ele><time>2026-03-30T17:35:08Z</time></trkpt><trkpt lat="39.104720724158724" lon="8.512355005295651"><ele>14.0</ele><time>2026-03-30T17:35:09Z</time></trkpt><trkpt lat="39.10455499201421" lon="8.512294575975838"><ele>14.0</ele><time>2026-03-30T17:35:10Z</time></trkpt><trkpt lat="39.104393664119186" lon="8.512226248663863"><ele>14.0</ele><time>2026-03-30T17:35:11Z</time></trkpt><trkpt lat="39.104235568015945" lon="8.512151451638388"><ele>13.333333333333334</ele><time>2026-03-30T17:35:12Z</time></trkpt><trkpt lat="39.10407960090223" lon="8.512070803853682"><ele>12.666666666666668</ele><time>2026-03-30T17:35:13Z</time></trkpt><trkpt lat="39.103922979139334" lon="8.51198574683297"><ele>12.0</ele><time>2026-03-30T17:35:14Z</time></trkpt><trkpt lat="39.103768647336636" lon="8.511894633878216"><ele>12.0</ele><time>2026-03-30T17:35:15Z</time></trkpt><trkpt lat="39.103617317840076" lon="8.511795905171141"><ele>12.0</ele><time>2026-03-30T17:35:16Z</time></trkpt><trkpt lat="39.10346883010132" lon="8.511688194966462"><ele>12.0</ele><time>2026-03-30T17:35:17Z</time></trkpt><trkpt lat="39.103322350143294" lon="8.511571371882994"><ele>12.333333333333332</ele><time>2026-03-30T17:35:18Z</time></trkpt><trkpt lat="39.10318130581172" lon="8.511447494033396"><ele>12.666666666666666</ele><time>2026-03-30T17:35:19Z</time></trkpt><trkpt lat="39.10304489986074" lon="8.511315335276672"><ele>13.0</ele><time>2026-03-30T17:35:20Z</time></trkpt><trkpt lat="39.10291204573737" lon="8.511178680480736"><ele>13.0</ele><time>2026-03-30T17:35:21Z</time></trkpt><trkpt lat="39.10278109915625" lon="8.511031875781498"><ele>13.0</ele><time>2026-03-30T17:35:22Z</time></trkpt><trkpt lat="39.10265269075755" lon="8.510876386391436"><ele>13.0</ele><time>2026-03-30T17:35:23Z</time></trkpt><trkpt lat="39.102524936514946" lon="8.510715156916618"><ele>13.0</ele><time>2026-03-30T17:35:24Z</time></trkpt><trkpt lat="39.10239491582155" lon="8.510546180454593"><ele>13.0</ele><time>2026-03-30T17:35:25Z</time></trkpt><trkpt lat="39.10226707403532" lon="8.51037537697802"><ele>13.0</ele><time>2026-03-30T17:35:26Z</time></trkpt><trkpt lat="39.1021439980984" lon="8.510205479478959"><ele>12.666666666666666</ele><time>2026-03-30T17:35:27Z</time></trkpt><trkpt lat="39.10202576368007" lon="8.510036724000472"><ele>12.333333333333332</ele><time>2026-03-30T17:35:28Z</time></trkpt><trkpt lat="39.10190967113265" lon="8.509866726703871"><ele>12.0</ele><time>2026-03-30T17:35:29Z</time></trkpt><trkpt lat="39.10179315700936" lon="8.50969290456842"><ele>11.666666666666666</ele><time>2026-03-30T17:35:30Z</time></trkpt><trkpt lat="39.101675391033886" lon="8.50951922705933"><ele>11.333333333333332</ele><time>2026-03-30T17:35:31Z</time></trkpt><trkpt lat="39.10155792469052" lon="8.509343547344045"><ele>11.0</ele><time>2026-03-30T17:35:32Z</time></trkpt><trkpt lat="39.10144007221814" lon="8.509168980409415"><ele>11.0</ele><time>2026-03-30T17:35:33Z</time></trkpt><trkpt lat="39.101321464365014" lon="8.508989946533276"><ele>11.0</ele><time>2026-03-30T17:35:34Z</time></trkpt><trkpt lat="39.10120273252106" lon="8.508809703682692"><ele>11.0</ele><time>2026-03-30T17:35:35Z</time></trkpt><trkpt lat="39.101079316177426" lon="8.508632548017266"><ele>11.0</ele><time>2026-03-30T17:35:36Z</time></trkpt><trkpt lat="39.10095623878962" lon="8.508454413943193"><ele>11.0</ele><time>2026-03-30T17:35:37Z</time></trkpt><trkpt lat="39.10083416317988" lon="8.508274580427365"><ele>11.0</ele><time>2026-03-30T17:35:38Z</time></trkpt><trkpt lat="39.100709636582685" lon="8.508095008842137"><ele>11.0</ele><time>2026-03-30T17:35:39Z</time></trkpt><trkpt lat="39.1005895977336" lon="8.507916701950572"><ele>11.0</ele><time>2026-03-30T17:35:40Z</time></trkpt><trkpt lat="39.10047221567554" lon="8.507743002833962"><ele>11.0</ele><time>2026-03-30T17:35:41Z</time></trkpt><trkpt lat="39.100353605121136" lon="8.507570700907102"><ele>11.0</ele><time>2026-03-30T17:35:42Z</time></trkpt><trkpt lat="39.10023578030705" lon="8.507400752265722"><ele>11.0</ele><time>2026-03-30T17:35:42.999Z</time></trkpt><trkpt lat="39.100116790507975" lon="8.507236445332342"><ele>11.0</ele><time>2026-03-30T17:35:43.999Z</time></trkpt><trkpt lat="39.100002024057716" lon="8.507065398533836"><ele>10.0</ele><time>2026-03-30T17:35:44.999Z</time></trkpt><trkpt lat="39.09988449081093" lon="8.506892479578415"><ele>9.0</ele><time>2026-03-30T17:35:45.999Z</time></trkpt><trkpt lat="39.09976943221509" lon="8.506718973509084"><ele>8.0</ele><time>2026-03-30T17:35:46.999Z</time></trkpt><trkpt lat="39.09965250222398" lon="8.506543518124529"><ele>8.0</ele><time>2026-03-30T17:35:47.999Z</time></trkpt><trkpt lat="39.09953659663885" lon="8.506368304254227"><ele>8.0</ele><time>2026-03-30T17:35:48.999Z</time></trkpt><trkpt lat="39.099423583528726" lon="8.506191718987"><ele>8.0</ele><time>2026-03-30T17:35:49.999Z</time></trkpt><trkpt lat="39.09931226221105" lon="8.506013041618802"><ele>8.333333333333332</ele><time>2026-03-30T17:35:50.999Z</time></trkpt><trkpt lat="39.09920059574798" lon="8.505831931314368"><ele>8.666666666666666</ele><time>2026-03-30T17:35:51.999Z</time></trkpt><trkpt lat="39.09908762641849" lon="8.505649502324925"><ele>9.0</ele><time>2026-03-30T17:35:52.999Z</time></trkpt><trkpt lat="39.09897590705407" lon="8.50546323824933"><ele>8.666666666666666</ele><time>2026-03-30T17:35:53.999Z</time></trkpt><trkpt lat="39.09886549602133" lon="8.505277990894946"><ele>8.333333333333332</ele><time>2026-03-30T17:35:54.999Z</time></trkpt><trkpt lat="39.098757127555444" lon="8.505091202272416"><ele>8.0</ele><time>2026-03-30T17:35:55.999Z</time></trkpt><trkpt lat="39.098649611436166" lon="8.504906399356225"><ele>8.0</ele><time>2026-03-30T17:35:57Z</time></trkpt><trkpt lat="39.09854151621686" lon="8.504722641435077"><ele>8.0</ele><time>2026-03-30T17:35:58Z</time></trkpt><trkpt lat="39.0984329395682" lon="8.504542751680424"><ele>8.0</ele><time>2026-03-30T17:35:59Z</time></trkpt><trkpt lat="39.09832345209611" lon="8.50436779527438"><ele>8.333333333333332</ele><time>2026-03-30T17:36:00Z</time></trkpt><trkpt lat="39.09821634079675" lon="8.504193333688786"><ele>8.666666666666666</ele><time>2026-03-30T17:36:01Z</time></trkpt><trkpt lat="39.09811125847315" lon="8.504018156888689"><ele>9.0</ele><time>2026-03-30T17:36:02Z</time></trkpt><trkpt lat="39.098005978289564" lon="8.503845416957846"><ele>9.0</ele><time>2026-03-30T17:36:03Z</time></trkpt><trkpt lat="39.097903075476474" lon="8.503672557854811"><ele>9.0</ele><time>2026-03-30T17:36:04Z</time></trkpt><trkpt lat="39.09780140264882" lon="8.503497589307466"><ele>9.0</ele><time>2026-03-30T17:36:05Z</time></trkpt><trkpt lat="39.09769963724698" lon="8.503321013428872"><ele>9.0</ele><time>2026-03-30T17:36:06Z</time></trkpt><trkpt lat="39.09759832619601" lon="8.503149114443456"><ele>9.0</ele><time>2026-03-30T17:36:07Z</time></trkpt><trkpt lat="39.097498313410085" lon="8.502988941326716"><ele>9.0</ele><time>2026-03-30T17:36:08Z</time></trkpt><trkpt lat="39.09740180963324" lon="8.502849670491978"><ele>8.5</ele><time>2026-03-30T17:36:09Z</time></trkpt><trkpt lat="39.09732676672918" lon="8.502698813665225"><ele>8.0</ele><time>2026-03-30T17:36:10Z</time></trkpt><trkpt lat="39.097236774480656" lon="8.502568482023879"><ele>7.5</ele><time>2026-03-30T17:36:11Z</time></trkpt><trkpt lat="39.097159258937126" lon="8.502427118002927"><ele>7.0</ele><time>2026-03-30T17:36:12Z</time></trkpt><trkpt lat="39.097082488869894" lon="8.502284651803773"><ele>7.0</ele><time>2026-03-30T17:36:13Z</time></trkpt><trkpt lat="39.09700399613191" lon="8.502149425952526"><ele>7.0</ele><time>2026-03-30T17:36:14Z</time></trkpt><trkpt lat="39.096932978374745" lon="8.50201747676293"><ele>7.0</ele><time>2026-03-30T17:36:15Z</time></trkpt><trkpt lat="39.09686187387268" lon="8.501903516946456"><ele>7.0</ele><time>2026-03-30T17:36:16Z</time></trkpt><trkpt lat="39.09678482487708" lon="8.501804900269635"><ele>6.8</ele><time>2026-03-30T17:36:17Z</time></trkpt><trkpt lat="39.09671923666742" lon="8.501712527888326"><ele>6.6</ele><time>2026-03-30T17:36:18Z</time></trkpt><trkpt lat="39.096668681860066" lon="8.501617774432676"><ele>6.3999999999999995</ele><time>2026-03-30T17:36:19Z</time></trkpt><trkpt lat="39.09662876927637" lon="8.501541707402378"><ele>6.199999999999999</ele><time>2026-03-30T17:36:20Z</time></trkpt><trkpt lat="39.096587592378604" lon="8.501390767633248"><ele>6.0</ele><time>2026-03-30T17:36:22Z</time></trkpt><trkpt lat="39.0965945030505" lon="8.501303174558563"><ele>5.999999999999999</ele><time>2026-03-30T17:36:23Z</time></trkpt><trkpt lat="39.09660775701123" lon="8.501213317295395"><ele>6.0</ele><time>2026-03-30T17:36:24Z</time></trkpt><trkpt lat="39.096597987009716" lon="8.50112176134213"><ele>6.0</ele><time>2026-03-30T17:36:25Z</time></trkpt><trkpt lat="39.096559091859596" lon="8.501041547543656"><ele>6.0</ele><time>2026-03-30T17:36:26Z</time></trkpt><trkpt lat="39.09650292969545" lon="8.500989771820862"><ele>6.0</ele><time>2026-03-30T17:36:27Z</time></trkpt><trkpt lat="39.09643167995266" lon="8.50096987745172"><ele>5.999999999999999</ele><time>2026-03-30T17:36:28Z</time></trkpt><trkpt lat="39.096353542315704" lon="8.500958506836206"><ele>6.0</ele><time>2026-03-30T17:36:29Z</time></trkpt><trkpt lat="39.09628187643254" lon="8.500916978163522"><ele>6.0</ele><time>2026-03-30T17:36:30Z</time></trkpt><trkpt lat="39.09622006714652" lon="8.500843085827317"><ele>6.0</ele><time>2026-03-30T17:36:31Z</time></trkpt><trkpt lat="39.09614936360156" lon="8.500728913479524"><ele>6.0</ele><time>2026-03-30T17:36:32Z</time></trkpt><trkpt lat="39.09606654959642" lon="8.500590199444401"><ele>6.0</ele><time>2026-03-30T17:36:33Z</time></trkpt><trkpt lat="39.09597630433394" lon="8.500434665152191"><ele>5.5</ele><time>2026-03-30T17:36:34Z</time></trkpt><trkpt lat="39.09589371344549" lon="8.500295062121307"><ele>5.0</ele><time>2026-03-30T17:36:35Z</time></trkpt><trkpt lat="39.0958275527186" lon="8.500174216885245"><ele>4.5</ele><time>2026-03-30T17:36:36Z</time></trkpt><trkpt lat="39.09576242373844" lon="8.500051065623115"><ele>4.0</ele><time>2026-03-30T17:36:37Z</time></trkpt><trkpt lat="39.09570065041057" lon="8.499893368983837"><ele>4.0</ele><time>2026-03-30T17:36:38Z</time></trkpt><trkpt lat="39.09560909749433" lon="8.499737614844005"><ele>4.0</ele><time>2026-03-30T17:36:39Z</time></trkpt><trkpt lat="39.09550643715502" lon="8.499577484008045"><ele>4.0</ele><time>2026-03-30T17:36:40Z</time></trkpt><trkpt lat="39.09538315703693" lon="8.499396976035781"><ele>4.0</ele><time>2026-03-30T17:36:41Z</time></trkpt><trkpt lat="39.09523763415094" lon="8.499199456411382"><ele>4.0</ele><time>2026-03-30T17:36:42Z</time></trkpt><trkpt lat="39.09506958351943" lon="8.49897853686349"><ele>4.0</ele><time>2026-03-30T17:36:43Z</time></trkpt><trkpt lat="39.09487634775252" lon="8.498810142433745"><ele>4.0</ele><time>2026-03-30T17:36:44Z</time></trkpt><trkpt lat="39.09466365681154" lon="8.498544469165536"><ele>4.0</ele><time>2026-03-30T17:36:45Z</time></trkpt><trkpt lat="39.09442979430717" lon="8.498270121012402"><ele>4.0</ele><time>2026-03-30T17:36:46Z</time></trkpt><trkpt lat="39.09422195622092" lon="8.497999407988718"><ele>4.0</ele><time>2026-03-30T17:36:47Z</time></trkpt><trkpt lat="39.09403253808507" lon="8.497753902414999"><ele>4.0</ele><time>2026-03-30T17:36:48Z</time></trkpt><trkpt lat="39.09384927141206" lon="8.497525744056668"><ele>4.0</ele><time>2026-03-30T17:36:49Z</time></trkpt><trkpt lat="39.09367422665823" lon="8.497314899031197"><ele>4.0</ele><time>2026-03-30T17:36:50Z</time></trkpt><trkpt lat="39.093523660528135" lon="8.497124563934065"><ele>3.6666666666666665</ele><time>2026-03-30T17:36:51Z</time></trkpt><trkpt lat="39.09338234304096" lon="8.496939862248817"><ele>3.333333333333333</ele><time>2026-03-30T17:36:52Z</time></trkpt><trkpt lat="39.0932482882668" lon="8.496758369978258"><ele>3.0</ele><time>2026-03-30T17:36:53Z</time></trkpt><trkpt lat="39.093121880479885" lon="8.496581965080162"><ele>3.0</ele><time>2026-03-30T17:36:54Z</time></trkpt><trkpt lat="39.09301198406704" lon="8.496420046794622"><ele>3.0</ele><time>2026-03-30T17:36:55Z</time></trkpt><trkpt lat="39.09292026163619" lon="8.496287987845285"><ele>3.0</ele><time>2026-03-30T17:36:56Z</time></trkpt><trkpt lat="39.09283560485259" lon="8.496164844247598"><ele>3.0</ele><time>2026-03-30T17:36:57Z</time></trkpt><trkpt lat="39.09274888219478" lon="8.49603108131961"><ele>2.6666666666666665</ele><time>2026-03-30T17:36:58Z</time></trkpt><trkpt lat="39.09266387456525" lon="8.495879977589121"><ele>2.333333333333333</ele><time>2026-03-30T17:36:59Z</time></trkpt><trkpt lat="39.09255908688792" lon="8.495724698134214"><ele>2.0</ele><time>2026-03-30T17:37:00Z</time></trkpt><trkpt lat="39.09243478417024" lon="8.495539342256654"><ele>1.6666666666666665</ele><time>2026-03-30T17:37:01Z</time></trkpt><trkpt lat="39.09229885600094" lon="8.495336650798604"><ele>1.3333333333333333</ele><time>2026-03-30T17:37:02Z</time></trkpt><trkpt lat="39.092150290860516" lon="8.495112585149974"><ele>1.0</ele><time>2026-03-30T17:37:03Z</time></trkpt><trkpt lat="39.09199075089481" lon="8.494864746844287"><ele>1.0</ele><time>2026-03-30T17:37:04Z</time></trkpt><trkpt lat="39.091814974821354" lon="8.494610587137222"><ele>1.0</ele><time>2026-03-30T17:37:05Z</time></trkpt><trkpt lat="39.09165413278644" lon="8.494374995366206"><ele>1.0</ele><time>2026-03-30T17:37:06Z</time></trkpt><trkpt lat="39.091503655862994" lon="8.49416242127711"><ele>1.0</ele><time>2026-03-30T17:37:07Z</time></trkpt><trkpt lat="39.091360998077505" lon="8.493947350638006"><ele>1.0</ele><time>2026-03-30T17:37:08Z</time></trkpt><trkpt lat="39.09122046701215" lon="8.493731762605325"><ele>1.3333333333333333</ele><time>2026-03-30T17:37:09Z</time></trkpt><trkpt lat="39.091079645726104" lon="8.493517420357671"><ele>1.6666666666666665</ele><time>2026-03-30T17:37:10Z</time></trkpt><trkpt lat="39.09094393295972" lon="8.493308269197774"><ele>2.0</ele><time>2026-03-30T17:37:11Z</time></trkpt><trkpt lat="39.0908068147154" lon="8.493102694141697"><ele>1.6666666666666665</ele><time>2026-03-30T17:37:12Z</time></trkpt><trkpt lat="39.09067512715294" lon="8.492897355705468"><ele>1.3333333333333333</ele><time>2026-03-30T17:37:13Z</time></trkpt><trkpt lat="39.090540619945166" lon="8.49269679995331"><ele>1.0</ele><time>2026-03-30T17:37:14Z</time></trkpt><trkpt lat="39.09040524356562" lon="8.492499460206112"><ele>1.0</ele><time>2026-03-30T17:37:15Z</time></trkpt><trkpt lat="39.090267475298425" lon="8.492298958038836"><ele>1.0</ele><time>2026-03-30T17:37:16Z</time></trkpt><trkpt lat="39.0901272964449" lon="8.492089281431046"><ele>1.0</ele><time>2026-03-30T17:37:17Z</time></trkpt><trkpt lat="39.08998428919433" lon="8.491877381840728"><ele>1.0</ele><time>2026-03-30T17:37:18Z</time></trkpt><trkpt lat="39.08984132537732" lon="8.491657904052126"><ele>1.0</ele><time>2026-03-30T17:37:19Z</time></trkpt><trkpt lat="39.08969885710583" lon="8.491438853417485"><ele>1.0</ele><time>2026-03-30T17:37:20Z</time></trkpt><trkpt lat="39.089553914926555" lon="8.491218699889705"><ele>1.0</ele><time>2026-03-30T17:37:21Z</time></trkpt><trkpt lat="39.08940786042298" lon="8.490996002073036"><ele>1.0</ele><time>2026-03-30T17:37:22Z</time></trkpt><trkpt lat="39.08925930555086" lon="8.490787225529129"><ele>1.0</ele><time>2026-03-30T17:37:23Z</time></trkpt><trkpt lat="39.0891073231501" lon="8.490588739150693"><ele>1.3333333333333333</ele><time>2026-03-30T17:37:24Z</time></trkpt><trkpt lat="39.08893530633956" lon="8.490417005447737"><ele>1.6666666666666665</ele><time>2026-03-30T17:37:24.999Z</time></trkpt><trkpt lat="39.08877917684711" lon="8.490229226821437"><ele>2.0</ele><time>2026-03-30T17:37:25.999Z</time></trkpt><trkpt lat="39.088628840971204" lon="8.490048464508304"><ele>2.0</ele><time>2026-03-30T17:37:26.999Z</time></trkpt><trkpt lat="39.08847818759106" lon="8.489885559977896"><ele>2.0</ele><time>2026-03-30T17:37:27.999Z</time></trkpt><trkpt lat="39.08813220895068" lon="8.490004007146231"><ele>1.0</ele><time>2026-03-30T17:37:28.999Z</time></trkpt><trkpt lat="39.08791657815664" lon="8.489948441820433"><ele>0.0</ele><time>2026-03-30T17:37:29.999Z</time></trkpt><trkpt lat="39.08769308865589" lon="8.489904387950384"><ele>-1.0</ele><time>2026-03-30T17:37:30.999Z</time></trkpt><trkpt lat="39.087467444560524" lon="8.48987371819811"><ele>-1.0</ele><time>2026-03-30T17:37:31.999Z</time></trkpt><trkpt lat="39.08724643594722" lon="8.48983442513228"><ele>-1.0</ele><time>2026-03-30T17:37:32.999Z</time></trkpt><trkpt lat="39.087028856232116" lon="8.489788427592972"><ele>-1.0</ele><time>2026-03-30T17:37:33.999Z</time></trkpt><trkpt lat="39.08681259061052" lon="8.489746925273007"><ele>-1.0</ele><time>2026-03-30T17:37:34.999Z</time></trkpt><trkpt lat="39.086596484493846" lon="8.489709037197395"><ele>-1.0</ele><time>2026-03-30T17:37:35.999Z</time></trkpt><trkpt lat="39.0863829735867" lon="8.489672703871488"><ele>-1.0</ele><time>2026-03-30T17:37:36.999Z</time></trkpt><trkpt lat="39.08617000827229" lon="8.48963499962503"><ele>-1.0</ele><time>2026-03-30T17:37:37.999Z</time></trkpt><trkpt lat="39.08595683272184" lon="8.489596456046446"><ele>-1.0</ele><time>2026-03-30T17:37:38.999Z</time></trkpt><trkpt lat="39.085746184027386" lon="8.489557175204606"><ele>-1.0</ele><time>2026-03-30T17:37:39.999Z</time></trkpt><trkpt lat="39.08553384025918" lon="8.489519995175357"><ele>-0.3333333333333333</ele><time>2026-03-30T17:37:40.999Z</time></trkpt><trkpt lat="39.08532319071326" lon="8.48948027414698"><ele>0.3333333333333333</ele><time>2026-03-30T17:37:41.999Z</time></trkpt><trkpt lat="39.085114533635924" lon="8.489432549984985"><ele>1.0</ele><time>2026-03-30T17:37:42.999Z</time></trkpt><trkpt lat="39.084903818780035" lon="8.489369817477767"><ele>1.6666666666666665</ele><time>2026-03-30T17:37:43.999Z</time></trkpt><trkpt lat="39.084697073908465" lon="8.489296756462679"><ele>2.3333333333333335</ele><time>2026-03-30T17:37:44.999Z</time></trkpt><trkpt lat="39.08449093603743" lon="8.48920479438725"><ele>3.0</ele><time>2026-03-30T17:37:45.999Z</time></trkpt><trkpt lat="39.08428841678297" lon="8.489109353042387"><ele>2.6666666666666665</ele><time>2026-03-30T17:37:46.999Z</time></trkpt><trkpt lat="39.08408997334816" lon="8.489006823125631"><ele>2.333333333333333</ele><time>2026-03-30T17:37:47.999Z</time></trkpt><trkpt lat="39.08389529282222" lon="8.488888686073636"><ele>2.0</ele><time>2026-03-30T17:37:48.999Z</time></trkpt><trkpt lat="39.08370787292159" lon="8.488752566872318"><ele>2.0</ele><time>2026-03-30T17:37:49.999Z</time></trkpt><trkpt lat="39.083522223750755" lon="8.488611063621518"><ele>2.0</ele><time>2026-03-30T17:37:50.999Z</time></trkpt><trkpt lat="39.08333873478419" lon="8.488469799236473"><ele>2.0</ele><time>2026-03-30T17:37:51.999Z</time></trkpt><trkpt lat="39.08315709044241" lon="8.488325848864184"><ele>1.6666666666666665</ele><time>2026-03-30T17:37:52.999Z</time></trkpt><trkpt lat="39.08297076354886" lon="8.488180870514345"><ele>1.3333333333333333</ele><time>2026-03-30T17:37:53.999Z</time></trkpt><trkpt lat="39.08278835737144" lon="8.488044992928245"><ele>1.0</ele><time>2026-03-30T17:37:54.999Z</time></trkpt><trkpt lat="39.082606859153984" lon="8.48790994517853"><ele>1.6666666666666665</ele><time>2026-03-30T17:37:55.999Z</time></trkpt><trkpt lat="39.08242821304106" lon="8.487769600835488"><ele>2.3333333333333335</ele><time>2026-03-30T17:37:56.999Z</time></trkpt><trkpt lat="39.08224697485086" lon="8.487625877650572"><ele>3.0</ele><time>2026-03-30T17:37:57.999Z</time></trkpt><trkpt lat="39.08206880490467" lon="8.487480706744785"><ele>3.0</ele><time>2026-03-30T17:37:58.999Z</time></trkpt><trkpt lat="39.081885921330596" lon="8.487341907450775"><ele>3.0</ele><time>2026-03-30T17:37:59.999Z</time></trkpt><trkpt lat="39.08170604271052" lon="8.487201752990712"><ele>3.0</ele><time>2026-03-30T17:38:00.999Z</time></trkpt><trkpt lat="39.081522285979936" lon="8.487065639811851"><ele>3.0</ele><time>2026-03-30T17:38:01.999Z</time></trkpt><trkpt lat="39.0813403952978" lon="8.486930730941138"><ele>3.0</ele><time>2026-03-30T17:38:03Z</time></trkpt><trkpt lat="39.08116261444144" lon="8.486789809348089"><ele>3.0</ele><time>2026-03-30T17:38:04Z</time></trkpt><trkpt lat="39.08098624955426" lon="8.486647090311914"><ele>3.0</ele><time>2026-03-30T17:38:05Z</time></trkpt><trkpt lat="39.08080719034122" lon="8.486508583468902"><ele>3.0</ele><time>2026-03-30T17:38:06Z</time></trkpt><trkpt lat="39.080629027193226" lon="8.486377244198797"><ele>3.0</ele><time>2026-03-30T17:38:07Z</time></trkpt><trkpt lat="39.080445264261726" lon="8.486246861631844"><ele>2.6666666666666665</ele><time>2026-03-30T17:38:08Z</time></trkpt><trkpt lat="39.080267621735565" lon="8.486109085650108"><ele>2.333333333333333</ele><time>2026-03-30T17:38:09Z</time></trkpt><trkpt lat="39.08008587268707" lon="8.485971974860522"><ele>2.0</ele><time>2026-03-30T17:38:10Z</time></trkpt><trkpt lat="39.07990473642629" lon="8.485842945278092"><ele>2.0</ele><time>2026-03-30T17:38:11Z</time></trkpt><trkpt lat="39.0797265419555" lon="8.485705772610693"><ele>2.0</ele><time>2026-03-30T17:38:12Z</time></trkpt><trkpt lat="39.079551790320345" lon="8.485563287510274"><ele>2.0</ele><time>2026-03-30T17:38:13Z</time></trkpt><trkpt lat="39.079376507719374" lon="8.48542213598604"><ele>2.0</ele><time>2026-03-30T17:38:14Z</time></trkpt><trkpt lat="39.079197615167686" lon="8.485282671546813"><ele>2.0</ele><time>2026-03-30T17:38:15Z</time></trkpt><trkpt lat="39.07901891503031" lon="8.485151335295717"><ele>2.0</ele><time>2026-03-30T17:38:16Z</time></trkpt><trkpt lat="39.07885194239795" lon="8.4850321600823"><ele>2.0</ele><time>2026-03-30T17:38:17Z</time></trkpt><trkpt lat="39.078695268686225" lon="8.484909171045532"><ele>2.0</ele><time>2026-03-30T17:38:18Z</time></trkpt><trkpt lat="39.07853824520809" lon="8.48478591683395"><ele>2.0</ele><time>2026-03-30T17:38:19Z</time></trkpt><trkpt lat="39.07837812548044" lon="8.484659429023488"><ele>1.6666666666666665</ele><time>2026-03-30T17:38:20Z</time></trkpt><trkpt lat="39.078219298416755" lon="8.484528657434307"><ele>1.3333333333333333</ele><time>2026-03-30T17:38:21Z</time></trkpt><trkpt lat="39.07805871919631" lon="8.484405838838045"><ele>1.0</ele><time>2026-03-30T17:38:22Z</time></trkpt><trkpt lat="39.07790104158748" lon="8.484290304328567"><ele>1.0</ele><time>2026-03-30T17:38:23Z</time></trkpt><trkpt lat="39.07773574476667" lon="8.484176708866732"><ele>1.0</ele><time>2026-03-30T17:38:24Z</time></trkpt><trkpt lat="39.07756936716344" lon="8.484061222406364"><ele>1.0</ele><time>2026-03-30T17:38:25Z</time></trkpt><trkpt lat="39.0774038557005" lon="8.483936967311973"><ele>1.0</ele><time>2026-03-30T17:38:26Z</time></trkpt><trkpt lat="39.077234153779116" lon="8.483805271941645"><ele>1.0</ele><time>2026-03-30T17:38:27Z</time></trkpt><trkpt lat="39.07706809002665" lon="8.48366922526892"><ele>1.0</ele><time>2026-03-30T17:38:28Z</time></trkpt><trkpt lat="39.07689585362495" lon="8.483536467616235"><ele>1.0</ele><time>2026-03-30T17:38:29Z</time></trkpt><trkpt lat="39.07672379744781" lon="8.483408215065538"><ele>1.0</ele><time>2026-03-30T17:38:30Z</time></trkpt><trkpt lat="39.07655025596309" lon="8.483279239548756"><ele>1.0</ele><time>2026-03-30T17:38:31Z</time></trkpt><trkpt lat="39.07637998899851" lon="8.483139501023853"><ele>1.0</ele><time>2026-03-30T17:38:32Z</time></trkpt><trkpt lat="39.07620853573943" lon="8.482997691013832"><ele>1.0</ele><time>2026-03-30T17:38:33Z</time></trkpt><trkpt lat="39.07603257704146" lon="8.48286320693367"><ele>1.0</ele><time>2026-03-30T17:38:34Z</time></trkpt><trkpt lat="39.07585659452248" lon="8.48273230530806"><ele>0.6666666666666666</ele><time>2026-03-30T17:38:35Z</time></trkpt><trkpt lat="39.07567964726382" lon="8.482600551931261"><ele>0.3333333333333333</ele><time>2026-03-30T17:38:36Z</time></trkpt><trkpt lat="39.075504474837444" lon="8.482467906131678"><ele>0.0</ele><time>2026-03-30T17:38:37Z</time></trkpt><trkpt lat="39.07533014091129" lon="8.482331055914598"><ele>0.0</ele><time>2026-03-30T17:38:38Z</time></trkpt><trkpt lat="39.075156714964955" lon="8.482199412403189"><ele>0.0</ele><time>2026-03-30T17:38:39Z</time></trkpt><trkpt lat="39.07497682020165" lon="8.482074001938107"><ele>0.0</ele><time>2026-03-30T17:38:40Z</time></trkpt><trkpt lat="39.07480249964048" lon="8.4819387400695"><ele>0.0</ele><time>2026-03-30T17:38:41Z</time></trkpt><trkpt lat="39.0746272834863" lon="8.481805365753596"><ele>0.0</ele><time>2026-03-30T17:38:42Z</time></trkpt><trkpt lat="39.074453838067164" lon="8.481671163339929"><ele>0.0</ele><time>2026-03-30T17:38:43Z</time></trkpt><trkpt lat="39.07428043521556" lon="8.481536252655253"><ele>0.0</ele><time>2026-03-30T17:38:44Z</time></trkpt><trkpt lat="39.07410845895598" lon="8.481402219114864"><ele>0.0</ele><time>2026-03-30T17:38:45Z</time></trkpt><trkpt lat="39.073937830808624" lon="8.481269251395426"><ele>0.0</ele><time>2026-03-30T17:38:46Z</time></trkpt><trkpt lat="39.07376208577501" lon="8.481142565799376"><ele>0.3333333333333333</ele><time>2026-03-30T17:38:47Z</time></trkpt><trkpt lat="39.073591792779325" lon="8.481008835692606"><ele>0.6666666666666666</ele><time>2026-03-30T17:38:48Z</time></trkpt><trkpt lat="39.07342390706369" lon="8.480872195956195"><ele>1.0</ele><time>2026-03-30T17:38:49Z</time></trkpt><trkpt lat="39.07325101927588" lon="8.480737916780836"><ele>1.0</ele><time>2026-03-30T17:38:50Z</time></trkpt><trkpt lat="39.07307947174964" lon="8.480610690786394"><ele>1.0</ele><time>2026-03-30T17:38:51Z</time></trkpt><trkpt lat="39.07290637377848" lon="8.48048103059937"><ele>1.0</ele><time>2026-03-30T17:38:52Z</time></trkpt><trkpt lat="39.07273921146368" lon="8.48034360882267"><ele>0.6666666666666666</ele><time>2026-03-30T17:38:53Z</time></trkpt><trkpt lat="39.07257485653713" lon="8.480199100138723"><ele>0.3333333333333333</ele><time>2026-03-30T17:38:54Z</time></trkpt><trkpt lat="39.072415011820915" lon="8.480051632797503"><ele>0.0</ele><time>2026-03-30T17:38:55Z</time></trkpt><trkpt lat="39.07225775341121" lon="8.479898494296174"><ele>0.0</ele><time>2026-03-30T17:38:56Z</time></trkpt><trkpt lat="39.07209509922258" lon="8.47975498394848"><ele>0.0</ele><time>2026-03-30T17:38:57Z</time></trkpt><trkpt lat="39.07193467567407" lon="8.47960715450603"><ele>0.0</ele><time>2026-03-30T17:38:58Z</time></trkpt><trkpt lat="39.0717716178236" lon="8.479459234779997"><ele>0.0</ele><time>2026-03-30T17:38:59Z</time></trkpt><trkpt lat="39.07160966351751" lon="8.479309151288945"><ele>0.0</ele><time>2026-03-30T17:39:00Z</time></trkpt><trkpt lat="39.07144846607145" lon="8.479155075165382"><ele>0.0</ele><time>2026-03-30T17:39:01Z</time></trkpt><trkpt lat="39.07128708706333" lon="8.479003126204267"><ele>0.0</ele><time>2026-03-30T17:39:02Z</time></trkpt><trkpt lat="39.07112858859655" lon="8.478847507204629"><ele>0.0</ele><time>2026-03-30T17:39:03Z</time></trkpt><trkpt lat="39.07097320663397" lon="8.478690057508533"><ele>0.0</ele><time>2026-03-30T17:39:04Z</time></trkpt><trkpt lat="39.07081629190982" lon="8.478536399695686"><ele>0.0</ele><time>2026-03-30T17:39:05Z</time></trkpt><trkpt lat="39.07065468526094" lon="8.478388335805086"><ele>0.0</ele><time>2026-03-30T17:39:06Z</time></trkpt><trkpt lat="39.0704917907622" lon="8.478242718014858"><ele>0.0</ele><time>2026-03-30T17:39:07Z</time></trkpt><trkpt lat="39.070320575678515" lon="8.478114759881544"><ele>0.0</ele><time>2026-03-30T17:39:08Z</time></trkpt><trkpt lat="39.07014029102161" lon="8.478005704291329"><ele>0.0</ele><time>2026-03-30T17:39:09Z</time></trkpt><trkpt lat="39.06995065700802" lon="8.477914463110332"><ele>0.0</ele><time>2026-03-30T17:39:10Z</time></trkpt><trkpt lat="39.06975801678297" lon="8.477845519691288"><ele>0.0</ele><time>2026-03-30T17:39:11Z</time></trkpt><trkpt lat="39.069561032277406" lon="8.477796572355063"><ele>0.0</ele><time>2026-03-30T17:39:12Z</time></trkpt><trkpt lat="39.06936054726006" lon="8.477772579269367"><ele>0.0</ele><time>2026-03-30T17:39:13Z</time></trkpt><trkpt lat="39.06915806595229" lon="8.477775328341158"><ele>0.0</ele><time>2026-03-30T17:39:14Z</time></trkpt><trkpt lat="39.068956689739075" lon="8.47779941920578"><ele>0.0</ele><time>2026-03-30T17:39:15Z</time></trkpt><trkpt lat="39.068753950262995" lon="8.477833790760991"><ele>0.0</ele><time>2026-03-30T17:39:16Z</time></trkpt><trkpt lat="39.068547928957514" lon="8.477877288622897"><ele>0.0</ele><time>2026-03-30T17:39:17Z</time></trkpt><trkpt lat="39.0683477821098" lon="8.47789491275261"><ele>0.0</ele><time>2026-03-30T17:39:18Z</time></trkpt><trkpt lat="39.068153623078096" lon="8.477929883026086"><ele>0.0</ele><time>2026-03-30T17:39:19Z</time></trkpt><trkpt lat="39.067961982068674" lon="8.477964399774402"><ele>0.0</ele><time>2026-03-30T17:39:20Z</time></trkpt><trkpt lat="39.06776615539127" lon="8.477999669053622"><ele>0.0</ele><time>2026-03-30T17:39:20.999Z</time></trkpt><trkpt lat="39.067572731770426" lon="8.478034505178833"><ele>0.0</ele><time>2026-03-30T17:39:21.999Z</time></trkpt><trkpt lat="39.0673803081842" lon="8.47806916119262"><ele>0.0</ele><time>2026-03-30T17:39:22.999Z</time></trkpt><trkpt lat="39.06718719271448" lon="8.478103941818247"><ele>0.0</ele><time>2026-03-30T17:39:23.999Z</time></trkpt><trkpt lat="39.066994785786264" lon="8.478138594833988"><ele>0.0</ele><time>2026-03-30T17:39:24.999Z</time></trkpt><trkpt lat="39.06680365433953" lon="8.478193906524822"><ele>0.3333333333333333</ele><time>2026-03-30T17:39:25.999Z</time></trkpt><trkpt lat="39.06660848490013" lon="8.478208170119977"><ele>0.6666666666666666</ele><time>2026-03-30T17:39:26.999Z</time></trkpt><trkpt lat="39.066415138228884" lon="8.478242992366246"><ele>1.0</ele><time>2026-03-30T17:39:27.999Z</time></trkpt><trkpt lat="39.06622041506419" lon="8.478278062524687"><ele>1.0</ele><time>2026-03-30T17:39:28.999Z</time></trkpt><trkpt lat="39.06602823027735" lon="8.478330778933891"><ele>1.0</ele><time>2026-03-30T17:39:29.999Z</time></trkpt><trkpt lat="39.065832775306205" lon="8.478361845200766"><ele>1.0</ele><time>2026-03-30T17:39:30.999Z</time></trkpt><trkpt lat="39.06563774709449" lon="8.478397866920428"><ele>0.6666666666666666</ele><time>2026-03-30T17:39:31.999Z</time></trkpt><trkpt lat="39.06544316976246" lon="8.478437226378235"><ele>0.3333333333333333</ele><time>2026-03-30T17:39:32.999Z</time></trkpt><trkpt lat="39.065243372038054" lon="8.478452769288479"><ele>0.0</ele><time>2026-03-30T17:39:33.999Z</time></trkpt><trkpt lat="39.065049920941625" lon="8.478507557179773"><ele>0.3333333333333333</ele><time>2026-03-30T17:39:34.999Z</time></trkpt><trkpt lat="39.064853512417656" lon="8.478537797173624"><ele>0.6666666666666666</ele><time>2026-03-30T17:39:35.999Z</time></trkpt><trkpt lat="39.064657575892404" lon="8.478569474269909"><ele>1.0</ele><time>2026-03-30T17:39:36.999Z</time></trkpt><trkpt lat="39.06446370200951" lon="8.478608239288578"><ele>1.0</ele><time>2026-03-30T17:39:37.999Z</time></trkpt><trkpt lat="39.06426835541762" lon="8.478646266669072"><ele>1.0</ele><time>2026-03-30T17:39:38.999Z</time></trkpt><trkpt lat="39.06407213611589" lon="8.478681857806396"><ele>1.0</ele><time>2026-03-30T17:39:39.999Z</time></trkpt><trkpt lat="39.06387427387144" lon="8.478698020819559"><ele>1.3333333333333333</ele><time>2026-03-30T17:39:40.999Z</time></trkpt><trkpt lat="39.06367747354376" lon="8.478733598075578"><ele>1.6666666666666665</ele><time>2026-03-30T17:39:41.999Z</time></trkpt><trkpt lat="39.06348456606043" lon="8.478786194267435"><ele>2.0</ele><time>2026-03-30T17:39:42.999Z</time></trkpt><trkpt lat="39.06328911790581" lon="8.478818832878314"><ele>1.6666666666666665</ele><time>2026-03-30T17:39:43.999Z</time></trkpt><trkpt lat="39.06309144544833" lon="8.47885716296766"><ele>1.3333333333333333</ele><time>2026-03-30T17:39:44.999Z</time></trkpt><trkpt lat="39.06289553703704" lon="8.478896291628807"><ele>1.0</ele><time>2026-03-30T17:39:45.999Z</time></trkpt><trkpt lat="39.06269775867778" lon="8.478910603057807"><ele>1.0</ele><time>2026-03-30T17:39:46.999Z</time></trkpt><trkpt lat="39.06250077405744" lon="8.478943527775465"><ele>1.0</ele><time>2026-03-30T17:39:47.999Z</time></trkpt><trkpt lat="39.06230446762494" lon="8.478967084813917"><ele>1.0</ele><time>2026-03-30T17:39:48.999Z</time></trkpt><trkpt lat="39.06210988792802" lon="8.478985784725475"><ele>1.0</ele><time>2026-03-30T17:39:49.999Z</time></trkpt><trkpt lat="39.061912003372775" lon="8.478960303455912"><ele>1.0</ele><time>2026-03-30T17:39:50.999Z</time></trkpt><trkpt lat="39.06171627706573" lon="8.47891423930995"><ele>1.0</ele><time>2026-03-30T17:39:51.999Z</time></trkpt><trkpt lat="39.06152259787074" lon="8.478853943531428"><ele>1.0</ele><time>2026-03-30T17:39:52.999Z</time></trkpt><trkpt lat="39.061334022455235" lon="8.478775803223439"><ele>1.0</ele><time>2026-03-30T17:39:53.999Z</time></trkpt><trkpt lat="39.061152414085036" lon="8.478672714420325"><ele>1.0</ele><time>2026-03-30T17:39:54.999Z</time></trkpt><trkpt lat="39.06098194711592" lon="8.478544623979708"><ele>1.0</ele><time>2026-03-30T17:39:55.999Z</time></trkpt><trkpt lat="39.06082007882779" lon="8.478397171884305"><ele>1.0</ele><time>2026-03-30T17:39:56.999Z</time></trkpt><trkpt lat="39.06066828047711" lon="8.478234568293379"><ele>1.0</ele><time>2026-03-30T17:39:57.999Z</time></trkpt><trkpt lat="39.06052350389145" lon="8.478061493293971"><ele>1.0</ele><time>2026-03-30T17:39:58.999Z</time></trkpt><trkpt lat="39.06039106988666" lon="8.477873742459856"><ele>1.0</ele><time>2026-03-30T17:39:59.999Z</time></trkpt><trkpt lat="39.06027090884214" lon="8.477671571532808"><ele>1.0</ele><time>2026-03-30T17:40:00.999Z</time></trkpt><trkpt lat="39.060162652503955" lon="8.477457832833764"><ele>1.0</ele><time>2026-03-30T17:40:01.999Z</time></trkpt><trkpt lat="39.060056554103376" lon="8.477243376874412"><ele>1.0</ele><time>2026-03-30T17:40:02.999Z</time></trkpt><trkpt lat="39.059951735529744" lon="8.477025251485722"><ele>1.0</ele><time>2026-03-30T17:40:03.999Z</time></trkpt><trkpt lat="39.059847402689236" lon="8.47680802653872"><ele>0.6666666666666666</ele><time>2026-03-30T17:40:04.999Z</time></trkpt><trkpt lat="39.059747000966716" lon="8.476588472440987"><ele>0.3333333333333333</ele><time>2026-03-30T17:40:05.999Z</time></trkpt><trkpt lat="39.059647959758784" lon="8.476366819515091"><ele>0.0</ele><time>2026-03-30T17:40:06.999Z</time></trkpt><trkpt lat="39.05954573438683" lon="8.476152028962826"><ele>0.0</ele><time>2026-03-30T17:40:07.999Z</time></trkpt><trkpt lat="39.059441929276794" lon="8.475940731028931"><ele>0.0</ele><time>2026-03-30T17:40:09Z</time></trkpt><trkpt lat="39.05934337823881" lon="8.475725581322106"><ele>0.0</ele><time>2026-03-30T17:40:10Z</time></trkpt><trkpt lat="39.059249338919784" lon="8.475505253706821"><ele>0.3333333333333333</ele><time>2026-03-30T17:40:11Z</time></trkpt><trkpt lat="39.05915513017538" lon="8.475285647820957"><ele>0.6666666666666666</ele><time>2026-03-30T17:40:12Z</time></trkpt><trkpt lat="39.05906924603035" lon="8.475062218433317"><ele>1.0</ele><time>2026-03-30T17:40:13Z</time></trkpt><trkpt lat="39.058997908690834" lon="8.474832702314952"><ele>1.3333333333333333</ele><time>2026-03-30T17:40:14Z</time></trkpt><trkpt lat="39.058940912333206" lon="8.474600842687009"><ele>1.6666666666666665</ele><time>2026-03-30T17:40:15Z</time></trkpt><trkpt lat="39.05888645915141" lon="8.474374945028949"><ele>2.0</ele><time>2026-03-30T17:40:16Z</time></trkpt><trkpt lat="39.058838650828335" lon="8.47414897671825"><ele>2.0</ele><time>2026-03-30T17:40:17Z</time></trkpt><trkpt lat="39.05879633472587" lon="8.473919570634521"><ele>2.0</ele><time>2026-03-30T17:40:18Z</time></trkpt><trkpt lat="39.05876033556599" lon="8.473692032768247"><ele>2.0</ele><time>2026-03-30T17:40:19Z</time></trkpt><trkpt lat="39.05873861339316" lon="8.473459916751182"><ele>2.0</ele><time>2026-03-30T17:40:20Z</time></trkpt><trkpt lat="39.05872234951487" lon="8.473223966221342"><ele>2.0</ele><time>2026-03-30T17:40:21Z</time></trkpt><trkpt lat="39.058711057392784" lon="8.472987183874372"><ele>2.0</ele><time>2026-03-30T17:40:22Z</time></trkpt><trkpt lat="39.05870285813881" lon="8.472750365020392"><ele>2.0</ele><time>2026-03-30T17:40:23Z</time></trkpt><trkpt lat="39.05870087511665" lon="8.472516718342385"><ele>2.0</ele><time>2026-03-30T17:40:24Z</time></trkpt><trkpt lat="39.05870243809916" lon="8.472283200493465"><ele>2.0</ele><time>2026-03-30T17:40:25Z</time></trkpt><trkpt lat="39.05870230841685" lon="8.472047519838293"><ele>1.6666666666666665</ele><time>2026-03-30T17:40:26Z</time></trkpt><trkpt lat="39.058693529158404" lon="8.47181364214055"><ele>1.3333333333333333</ele><time>2026-03-30T17:40:27Z</time></trkpt><trkpt lat="39.058671588102904" lon="8.47158018112075"><ele>1.0</ele><time>2026-03-30T17:40:28Z</time></trkpt><trkpt lat="39.058634334460216" lon="8.471347056462236"><ele>1.3333333333333333</ele><time>2026-03-30T17:40:29Z</time></trkpt><trkpt lat="39.05857861978247" lon="8.471114755250694"><ele>1.6666666666666665</ele><time>2026-03-30T17:40:30Z</time></trkpt><trkpt lat="39.05851126556053" lon="8.470892072307478"><ele>2.0</ele><time>2026-03-30T17:40:31Z</time></trkpt><trkpt lat="39.05843876087339" lon="8.4706715493002"><ele>2.0</ele><time>2026-03-30T17:40:32Z</time></trkpt><trkpt lat="39.0583719427484" lon="8.470464009950971"><ele>2.0</ele><time>2026-03-30T17:40:33Z</time></trkpt><trkpt lat="39.0583071593825" lon="8.470272197654387"><ele>2.0</ele><time>2026-03-30T17:40:34Z</time></trkpt><trkpt lat="39.058246772439716" lon="8.470085373609042"><ele>1.75</ele><time>2026-03-30T17:40:35Z</time></trkpt><trkpt lat="39.058192117082605" lon="8.469912186402588"><ele>1.5</ele><time>2026-03-30T17:40:36Z</time></trkpt><trkpt lat="39.05814304426773" lon="8.46975081622578"><ele>1.25</ele><time>2026-03-30T17:40:37Z</time></trkpt><trkpt lat="39.058094494740196" lon="8.469596640370511"><ele>1.0</ele><time>2026-03-30T17:40:38Z</time></trkpt><trkpt lat="39.05803960312651" lon="8.469441092769992"><ele>1.0</ele><time>2026-03-30T17:40:39Z</time></trkpt><trkpt lat="39.05798679055313" lon="8.469274117361104"><ele>1.0</ele><time>2026-03-30T17:40:40Z</time></trkpt><trkpt lat="39.05793587301263" lon="8.469100887095303"><ele>1.0</ele><time>2026-03-30T17:40:41Z</time></trkpt><trkpt lat="39.05788481562024" lon="8.468924206018864"><ele>1.0</ele><time>2026-03-30T17:40:42Z</time></trkpt><trkpt lat="39.05783362935711" lon="8.4687468964828"><ele>1.6666666666666665</ele><time>2026-03-30T17:40:43Z</time></trkpt><trkpt lat="39.05778431648366" lon="8.468564819352636"><ele>2.3333333333333335</ele><time>2026-03-30T17:40:44Z</time></trkpt><trkpt lat="39.057733377517" lon="8.468379463740774"><ele>3.0</ele><time>2026-03-30T17:40:45Z</time></trkpt><trkpt lat="39.05768160926021" lon="8.46819518237372"><ele>3.0</ele><time>2026-03-30T17:40:46Z</time></trkpt><trkpt lat="39.057632099239065" lon="8.468009320512135"><ele>3.0</ele><time>2026-03-30T17:40:47Z</time></trkpt><trkpt lat="39.05758726556578" lon="8.467817981753036"><ele>3.0</ele><time>2026-03-30T17:40:48Z</time></trkpt><trkpt lat="39.05754061559234" lon="8.467627040229686"><ele>3.0</ele><time>2026-03-30T17:40:49Z</time></trkpt><trkpt lat="39.057493974928384" lon="8.46743715511711"><ele>3.0</ele><time>2026-03-30T17:40:50Z</time></trkpt><trkpt lat="39.05744692426982" lon="8.467250315643652"><ele>3.0</ele><time>2026-03-30T17:40:51Z</time></trkpt><trkpt lat="39.057397156878814" lon="8.467063078177345"><ele>2.0</ele><time>2026-03-30T17:40:52Z</time></trkpt><trkpt lat="39.05734830846533" lon="8.466876592278647"><ele>1.0</ele><time>2026-03-30T17:40:53Z</time></trkpt><trkpt lat="39.05730068642084" lon="8.466690581015387"><ele>0.0</ele><time>2026-03-30T17:40:54Z</time></trkpt><trkpt lat="39.05725472028735" lon="8.466501654845212"><ele>0.0</ele><time>2026-03-30T17:40:55Z</time></trkpt><trkpt lat="39.05720795506236" lon="8.466315209175198"><ele>0.0</ele><time>2026-03-30T17:40:56Z</time></trkpt><trkpt lat="39.05716239514912" lon="8.466128742186601"><ele>0.0</ele><time>2026-03-30T17:40:57Z</time></trkpt><trkpt lat="39.05711575256893" lon="8.465942224721156"><ele>1.0</ele><time>2026-03-30T17:40:58Z</time></trkpt><trkpt lat="39.0570733393976" lon="8.465754055280447"><ele>2.0</ele><time>2026-03-30T17:40:59Z</time></trkpt><trkpt lat="39.05702898147765" lon="8.465564127078096"><ele>3.0</ele><time>2026-03-30T17:41:00Z</time></trkpt><trkpt lat="39.056990092230905" lon="8.46536761127675"><ele>3.0</ele><time>2026-03-30T17:41:01Z</time></trkpt><trkpt lat="39.056959257153366" lon="8.465166598103583"><ele>3.0</ele><time>2026-03-30T17:41:02Z</time></trkpt><trkpt lat="39.05695158359021" lon="8.46495768674453"><ele>3.0</ele><time>2026-03-30T17:41:03Z</time></trkpt><trkpt lat="39.05696032505222" lon="8.464743502167801"><ele>3.0</ele><time>2026-03-30T17:41:04Z</time></trkpt><trkpt lat="39.05698712583469" lon="8.464538867778284"><ele>3.0</ele><time>2026-03-30T17:41:05Z</time></trkpt><trkpt lat="39.05702487276324" lon="8.464342973390156"><ele>3.0</ele><time>2026-03-30T17:41:06Z</time></trkpt><trkpt lat="39.05707648004556" lon="8.464148593845557"><ele>3.0</ele><time>2026-03-30T17:41:07Z</time></trkpt><trkpt lat="39.057139972609214" lon="8.46396057559847"><ele>3.0</ele><time>2026-03-30T17:41:08Z</time></trkpt><trkpt lat="39.05721949060578" lon="8.46378827509401"><ele>3.0</ele><time>2026-03-30T17:41:09Z</time></trkpt><trkpt lat="39.05731462939253" lon="8.463622824482307"><ele>3.0</ele><time>2026-03-30T17:41:10Z</time></trkpt><trkpt lat="39.057423386201535" lon="8.463474119066724"><ele>3.0</ele><time>2026-03-30T17:41:11Z</time></trkpt><trkpt lat="39.05752795687856" lon="8.463355334152558"><ele>3.0</ele><time>2026-03-30T17:41:12Z</time></trkpt><trkpt lat="39.05763101863399" lon="8.463253181480225"><ele>3.0</ele><time>2026-03-30T17:41:13Z</time></trkpt><trkpt lat="39.057716413404606" lon="8.463160129400876"><ele>3.0</ele><time>2026-03-30T17:41:14Z</time></trkpt><trkpt lat="39.057801885692776" lon="8.46308483837053"><ele>3.0</ele><time>2026-03-30T17:41:15Z</time></trkpt><trkpt lat="39.05787167216524" lon="8.463008821627582"><ele>3.0</ele><time>2026-03-30T17:41:16Z</time></trkpt><trkpt lat="39.05793800138047" lon="8.46296841730539"><ele>3.0</ele><time>2026-03-30T17:41:17Z</time></trkpt><trkpt lat="39.05796713515295" lon="8.46286764627415"><ele>3.0</ele><time>2026-03-30T17:41:18Z</time></trkpt><trkpt lat="39.0578828896014" lon="8.462726125887302"><ele>3.2</ele><time>2026-03-30T17:41:21Z</time></trkpt><trkpt lat="39.057855562917936" lon="8.462641433343471"><ele>3.4</ele><time>2026-03-30T17:41:23Z</time></trkpt><trkpt lat="39.057789567557506" lon="8.462490418397854"><ele>3.6000000000000005</ele><time>2026-03-30T17:41:24.999Z</time></trkpt><trkpt lat="39.05774664068262" lon="8.462381996081547"><ele>3.8000000000000003</ele><time>2026-03-30T17:41:25.999Z</time></trkpt><trkpt lat="39.05770330749106" lon="8.46227254752553"><ele>4.0</ele><time>2026-03-30T17:41:26.999Z</time></trkpt><trkpt lat="39.057671115556474" lon="8.46214676301032"><ele>4.0</ele><time>2026-03-30T17:41:27.999Z</time></trkpt><trkpt lat="39.05761584530043" lon="8.462027342234606"><ele>4.0</ele><time>2026-03-30T17:41:28.999Z</time></trkpt><trkpt lat="39.05756462582612" lon="8.461896704185214"><ele>4.0</ele><time>2026-03-30T17:41:29.999Z</time></trkpt><trkpt lat="39.05751771655261" lon="8.46176694093296"><ele>4.0</ele><time>2026-03-30T17:41:30.999Z</time></trkpt><trkpt lat="39.05745908501738" lon="8.461644097354675"><ele>4.0</ele><time>2026-03-30T17:41:31.999Z</time></trkpt><trkpt lat="39.05741326413127" lon="8.461522299908086"><ele>4.0</ele><time>2026-03-30T17:41:32.999Z</time></trkpt><trkpt lat="39.05736799175526" lon="8.461403127205866"><ele>4.0</ele><time>2026-03-30T17:41:33.999Z</time></trkpt><trkpt lat="39.05732298577024" lon="8.46128549792186"><ele>4.0</ele><time>2026-03-30T17:41:34.999Z</time></trkpt><trkpt lat="39.057285473843834" lon="8.461155801907669"><ele>4.0</ele><time>2026-03-30T17:41:35.999Z</time></trkpt><trkpt lat="39.057272787190065" lon="8.461013427342861"><ele>4.0</ele><time>2026-03-30T17:41:36.999Z</time></trkpt><trkpt lat="39.057248346921455" lon="8.46086329420385"><ele>4.0</ele><time>2026-03-30T17:41:37.999Z</time></trkpt><trkpt lat="39.057228264954176" lon="8.460719925797152"><ele>4.0</ele><time>2026-03-30T17:41:38.999Z</time></trkpt><trkpt lat="39.05721298416219" lon="8.460598222838275"><ele>4.0</ele><time>2026-03-30T17:41:39.999Z</time></trkpt><trkpt lat="39.05720483302595" lon="8.46046878296372"><ele>4.0</ele><time>2026-03-30T17:41:40.999Z</time></trkpt><trkpt lat="39.05718231415257" lon="8.460383692472014"><ele>4.0</ele><time>2026-03-30T17:41:41.999Z</time></trkpt><trkpt lat="39.057186098610906" lon="8.460283303558162"><ele>4.4</ele><time>2026-03-30T17:41:42.999Z</time></trkpt><trkpt lat="39.057184693528136" lon="8.460200934287695"><ele>4.800000000000001</ele><time>2026-03-30T17:41:43.999Z</time></trkpt><trkpt lat="39.05718434818043" lon="8.460119676773079"><ele>5.199999999999999</ele><time>2026-03-30T17:41:44.999Z</time></trkpt><trkpt lat="39.057163599348485" lon="8.460016397309465"><ele>5.6</ele><time>2026-03-30T17:41:50.999Z</time></trkpt><trkpt lat="39.057001030115444" lon="8.459954524289982"><ele>6.0</ele><time>2026-03-30T17:41:51.999Z</time></trkpt><trkpt lat="39.05691319313282" lon="8.459945023989068"><ele>6.0</ele><time>2026-03-30T17:41:52.999Z</time></trkpt><trkpt lat="39.05683433954374" lon="8.459936493973395"><ele>6.0</ele><time>2026-03-30T17:41:53.999Z</time></trkpt><trkpt lat="39.056734543067805" lon="8.459925698498116"><ele>6.0</ele><time>2026-03-30T17:41:54.999Z</time></trkpt><trkpt lat="39.0566455954258" lon="8.459916076554547"><ele>6.0</ele><time>2026-03-30T17:41:55.999Z</time></trkpt><trkpt lat="39.05656006202765" lon="8.459915677341723"><ele>6.0</ele><time>2026-03-30T17:41:56.999Z</time></trkpt><trkpt lat="39.05642917621387" lon="8.459892665373852"><ele>6.0</ele><time>2026-03-30T17:41:57.999Z</time></trkpt><trkpt lat="39.05631145258424" lon="8.459879930952336"><ele>6.0</ele><time>2026-03-30T17:41:58.999Z</time></trkpt><trkpt lat="39.0562069646399" lon="8.459863733096428"><ele>6.0</ele><time>2026-03-30T17:41:59.999Z</time></trkpt><trkpt lat="39.05610034872282" lon="8.459842240061521"><ele>6.0</ele><time>2026-03-30T17:42:00.999Z</time></trkpt><trkpt lat="39.055993392325874" lon="8.459812805370138"><ele>6.0</ele><time>2026-03-30T17:42:01.999Z</time></trkpt><trkpt lat="39.05589312821876" lon="8.45978138731091"><ele>6.0</ele><time>2026-03-30T17:42:02.999Z</time></trkpt><trkpt lat="39.0557915207104" lon="8.459749548824632"><ele>6.0</ele><time>2026-03-30T17:42:03.999Z</time></trkpt><trkpt lat="39.05567933759845" lon="8.459711205486066"><ele>6.0</ele><time>2026-03-30T17:42:04.999Z</time></trkpt><trkpt lat="39.05554951256884" lon="8.45966753332638"><ele>6.0</ele><time>2026-03-30T17:42:05.999Z</time></trkpt><trkpt lat="39.05540168301086" lon="8.459618696790194"><ele>5.333333333333333</ele><time>2026-03-30T17:42:06.999Z</time></trkpt><trkpt lat="39.055248558699866" lon="8.45956821502434"><ele>4.666666666666666</ele><time>2026-03-30T17:42:07.999Z</time></trkpt><trkpt lat="39.05509206867986" lon="8.459516623470506"><ele>4.0</ele><time>2026-03-30T17:42:08.999Z</time></trkpt><trkpt lat="39.05493392133689" lon="8.459464485648486"><ele>3.333333333333333</ele><time>2026-03-30T17:42:09.999Z</time></trkpt><trkpt lat="39.05477059442879" lon="8.45941094671563"><ele>2.6666666666666665</ele><time>2026-03-30T17:42:10.999Z</time></trkpt><trkpt lat="39.054607094049366" lon="8.459356627001675"><ele>2.0</ele><time>2026-03-30T17:42:11.999Z</time></trkpt><trkpt lat="39.05443751658929" lon="8.459284018413484"><ele>2.0</ele><time>2026-03-30T17:42:12.999Z</time></trkpt><trkpt lat="39.054273430491634" lon="8.459194407300243"><ele>2.0</ele><time>2026-03-30T17:42:13.999Z</time></trkpt><trkpt lat="39.054106449826484" lon="8.459123189611274"><ele>2.0</ele><time>2026-03-30T17:42:15Z</time></trkpt><trkpt lat="39.05395845432607" lon="8.4590346800942"><ele>1.6666666666666665</ele><time>2026-03-30T17:42:16Z</time></trkpt><trkpt lat="39.05382154624303" lon="8.458934004348764"><ele>1.3333333333333333</ele><time>2026-03-30T17:42:17Z</time></trkpt><trkpt lat="39.05367485972095" lon="8.45885313166154"><ele>1.0</ele><time>2026-03-30T17:42:18Z</time></trkpt><trkpt lat="39.05351979122814" lon="8.458792278838619"><ele>1.0</ele><time>2026-03-30T17:42:19Z</time></trkpt><trkpt lat="39.05337230654603" lon="8.4587136247971"><ele>1.0</ele><time>2026-03-30T17:42:20Z</time></trkpt><trkpt lat="39.053225647217836" lon="8.458637576881959"><ele>1.0</ele><time>2026-03-30T17:42:21Z</time></trkpt><trkpt lat="39.05308925379023" lon="8.458560787162051"><ele>1.0</ele><time>2026-03-30T17:42:22Z</time></trkpt><trkpt lat="39.05296430288272" lon="8.458502172677374"><ele>1.0</ele><time>2026-03-30T17:42:23Z</time></trkpt><trkpt lat="39.052825753189936" lon="8.45847686396623"><ele>1.0</ele><time>2026-03-30T17:42:24Z</time></trkpt><trkpt lat="39.052689737519536" lon="8.45842028352934"><ele>1.0</ele><time>2026-03-30T17:42:25Z</time></trkpt><trkpt lat="39.05254301400556" lon="8.458396193489184"><ele>1.0</ele><time>2026-03-30T17:42:26Z</time></trkpt><trkpt lat="39.0524066784094" lon="8.458321644719428"><ele>1.0</ele><time>2026-03-30T17:42:27Z</time></trkpt><trkpt lat="39.05225963674998" lon="8.458276692959146"><ele>1.0</ele><time>2026-03-30T17:42:28Z</time></trkpt><trkpt lat="39.05210663940119" lon="8.458242258061558"><ele>1.0</ele><time>2026-03-30T17:42:29Z</time></trkpt><trkpt lat="39.051952842593046" lon="8.458198681280257"><ele>1.0</ele><time>2026-03-30T17:42:30Z</time></trkpt><trkpt lat="39.05179832625876" lon="8.458143915951624"><ele>1.0</ele><time>2026-03-30T17:42:31Z</time></trkpt><trkpt lat="39.0516419101955" lon="8.458087505024421"><ele>0.6666666666666666</ele><time>2026-03-30T17:42:32Z</time></trkpt><trkpt lat="39.05148468809149" lon="8.458049369282014"><ele>0.3333333333333333</ele><time>2026-03-30T17:42:33Z</time></trkpt><trkpt lat="39.05132619342528" lon="8.4580031131691"><ele>0.0</ele><time>2026-03-30T17:42:34Z</time></trkpt><trkpt lat="39.051167927778984" lon="8.457950442160366"><ele>0.3333333333333333</ele><time>2026-03-30T17:42:35Z</time></trkpt><trkpt lat="39.05100756829058" lon="8.457886075158072"><ele>0.6666666666666666</ele><time>2026-03-30T17:42:36Z</time></trkpt><trkpt lat="39.050851130832456" lon="8.457816564007686"><ele>1.0</ele><time>2026-03-30T17:42:37Z</time></trkpt><trkpt lat="39.050695599697185" lon="8.457740491041774"><ele>1.0</ele><time>2026-03-30T17:42:38Z</time></trkpt><trkpt lat="39.05054021774746" lon="8.457662662745152"><ele>1.0</ele><time>2026-03-30T17:42:39Z</time></trkpt><trkpt lat="39.05038893230871" lon="8.457587306196363"><ele>1.0</ele><time>2026-03-30T17:42:40Z</time></trkpt><trkpt lat="39.050235497002156" lon="8.457508627024646"><ele>1.0</ele><time>2026-03-30T17:42:41Z</time></trkpt><trkpt lat="39.05008782897741" lon="8.457426531114534"><ele>1.0</ele><time>2026-03-30T17:42:42Z</time></trkpt><trkpt lat="39.049935828455375" lon="8.457347889495534"><ele>1.0</ele><time>2026-03-30T17:42:43Z</time></trkpt><trkpt lat="39.04978588155748" lon="8.457277448791016"><ele>1.3333333333333333</ele><time>2026-03-30T17:42:44Z</time></trkpt><trkpt lat="39.04963771947489" lon="8.45720460246315"><ele>1.6666666666666665</ele><time>2026-03-30T17:42:45Z</time></trkpt><trkpt lat="39.049491123329354" lon="8.457139046133928"><ele>2.0</ele><time>2026-03-30T17:42:46Z</time></trkpt><trkpt lat="39.04934058577654" lon="8.457080210772833"><ele>2.0</ele><time>2026-03-30T17:42:47Z</time></trkpt><trkpt lat="39.049186811653726" lon="8.457008921007814"><ele>2.0</ele><time>2026-03-30T17:42:48Z</time></trkpt><trkpt lat="39.04902359011601" lon="8.456991791479746"><ele>2.0</ele><time>2026-03-30T17:42:49Z</time></trkpt><trkpt lat="39.04886234164496" lon="8.456961654294362"><ele>1.6666666666666665</ele><time>2026-03-30T17:42:50Z</time></trkpt><trkpt lat="39.0486978034061" lon="8.456933333451955"><ele>1.3333333333333333</ele><time>2026-03-30T17:42:51Z</time></trkpt><trkpt lat="39.048534569112974" lon="8.45690413089594"><ele>1.0</ele><time>2026-03-30T17:42:52Z</time></trkpt><trkpt lat="39.048368335611265" lon="8.456882772354614"><ele>1.0</ele><time>2026-03-30T17:42:53Z</time></trkpt><trkpt lat="39.04820068461359" lon="8.456877115334635"><ele>1.0</ele><time>2026-03-30T17:42:54Z</time></trkpt><trkpt lat="39.04803380794162" lon="8.456888547136542"><ele>1.0</ele><time>2026-03-30T17:42:55Z</time></trkpt><trkpt lat="39.047868844994454" lon="8.456898397756778"><ele>1.0</ele><time>2026-03-30T17:42:56Z</time></trkpt><trkpt lat="39.04769892301302" lon="8.456874401744358"><ele>1.0</ele><time>2026-03-30T17:42:57Z</time></trkpt><trkpt lat="39.04753261898996" lon="8.45686680154996"><ele>1.0</ele><time>2026-03-30T17:42:58Z</time></trkpt><trkpt lat="39.04736640068381" lon="8.456877920983885"><ele>1.0</ele><time>2026-03-30T17:42:59Z</time></trkpt><trkpt lat="39.0472022457931" lon="8.456863153764376"><ele>1.0</ele><time>2026-03-30T17:43:00Z</time></trkpt><trkpt lat="39.04704033203877" lon="8.456852132811862"><ele>1.0</ele><time>2026-03-30T17:43:01Z</time></trkpt><trkpt lat="39.04688090060096" lon="8.456838118683757"><ele>1.0</ele><time>2026-03-30T17:43:02Z</time></trkpt><trkpt lat="39.046721884281595" lon="8.456819400379874"><ele>1.0</ele><time>2026-03-30T17:43:03Z</time></trkpt><trkpt lat="39.046565293317855" lon="8.456804427749644"><ele>1.0</ele><time>2026-03-30T17:43:04Z</time></trkpt><trkpt lat="39.04641193744795" lon="8.45677797537974"><ele>1.0</ele><time>2026-03-30T17:43:05Z</time></trkpt><trkpt lat="39.046257521567476" lon="8.456743200603317"><ele>1.0</ele><time>2026-03-30T17:43:06Z</time></trkpt><trkpt lat="39.04610281328763" lon="8.456690557564047"><ele>1.0</ele><time>2026-03-30T17:43:07Z</time></trkpt><trkpt lat="39.04595962157847" lon="8.456612970775835"><ele>1.0</ele><time>2026-03-30T17:43:08Z</time></trkpt><trkpt lat="39.04581965956639" lon="8.456526801973492"><ele>1.0</ele><time>2026-03-30T17:43:09Z</time></trkpt><trkpt lat="39.04567983753988" lon="8.456435901345243"><ele>1.0</ele><time>2026-03-30T17:43:10Z</time></trkpt><trkpt lat="39.045537899115004" lon="8.456351816974543"><ele>2.0</ele><time>2026-03-30T17:43:11Z</time></trkpt><trkpt lat="39.045390388149244" lon="8.456276761245862"><ele>3.0</ele><time>2026-03-30T17:43:12Z</time></trkpt><trkpt lat="39.045242121506796" lon="8.456195518573283"><ele>4.0</ele><time>2026-03-30T17:43:13Z</time></trkpt><trkpt lat="39.04509792583356" lon="8.456105350457738"><ele>3.333333333333333</ele><time>2026-03-30T17:43:14Z</time></trkpt><trkpt lat="39.04495199069156" lon="8.456014157459668"><ele>2.6666666666666665</ele><time>2026-03-30T17:43:15Z</time></trkpt><trkpt lat="39.044805977135425" lon="8.455926703771215"><ele>2.0</ele><time>2026-03-30T17:43:16Z</time></trkpt><trkpt lat="39.04465608478636" lon="8.455837830551861"><ele>2.0</ele><time>2026-03-30T17:43:17Z</time></trkpt><trkpt lat="39.044491056436996" lon="8.455792646627057"><ele>2.0</ele><time>2026-03-30T17:43:18Z</time></trkpt><trkpt lat="39.044331389840764" lon="8.455752902641857"><ele>2.0</ele><time>2026-03-30T17:43:19Z</time></trkpt><trkpt lat="39.04416955752746" lon="8.455712619542929"><ele>2.0</ele><time>2026-03-30T17:43:20Z</time></trkpt><trkpt lat="39.04400744809132" lon="8.455672267478239"><ele>2.0</ele><time>2026-03-30T17:43:21Z</time></trkpt><trkpt lat="39.043847319500216" lon="8.455632898648584"><ele>2.0</ele><time>2026-03-30T17:43:22Z</time></trkpt><trkpt lat="39.043686651493395" lon="8.455596182515228"><ele>2.0</ele><time>2026-03-30T17:43:22.999Z</time></trkpt><trkpt lat="39.043526360000804" lon="8.45555955173848"><ele>2.0</ele><time>2026-03-30T17:43:23.999Z</time></trkpt><trkpt lat="39.04336851192919" lon="8.455532002253774"><ele>2.0</ele><time>2026-03-30T17:43:24.999Z</time></trkpt><trkpt lat="39.043205309316555" lon="8.455509472223055"><ele>2.6666666666666665</ele><time>2026-03-30T17:43:25.999Z</time></trkpt><trkpt lat="39.043040906449235" lon="8.45548677632651"><ele>3.333333333333333</ele><time>2026-03-30T17:43:26.999Z</time></trkpt><trkpt lat="39.04287304426629" lon="8.455465014150011"><ele>4.0</ele><time>2026-03-30T17:43:27.999Z</time></trkpt><trkpt lat="39.04270124146844" lon="8.455445015939183"><ele>4.0</ele><time>2026-03-30T17:43:28.999Z</time></trkpt><trkpt lat="39.04252904707912" lon="8.455423949282524"><ele>4.0</ele><time>2026-03-30T17:43:29.999Z</time></trkpt><trkpt lat="39.04235683277008" lon="8.455403932660346"><ele>4.0</ele><time>2026-03-30T17:43:30.999Z</time></trkpt><trkpt lat="39.04218474950384" lon="8.455387607795775"><ele>3.6666666666666665</ele><time>2026-03-30T17:43:31.999Z</time></trkpt><trkpt lat="39.04201483780572" lon="8.45536209132927"><ele>3.333333333333333</ele><time>2026-03-30T17:43:32.999Z</time></trkpt><trkpt lat="39.041849253768284" lon="8.45530454397354"><ele>3.0</ele><time>2026-03-30T17:43:33.999Z</time></trkpt><trkpt lat="39.04168594649731" lon="8.455230880277119"><ele>2.6666666666666665</ele><time>2026-03-30T17:43:34.999Z</time></trkpt><trkpt lat="39.04152243842818" lon="8.45515063234485"><ele>2.333333333333333</ele><time>2026-03-30T17:43:35.999Z</time></trkpt><trkpt lat="39.041363901511176" lon="8.455065409074185"><ele>2.0</ele><time>2026-03-30T17:43:36.999Z</time></trkpt><trkpt lat="39.04120156879492" lon="8.454987963458334"><ele>2.0</ele><time>2026-03-30T17:43:37.999Z</time></trkpt><trkpt lat="39.04106345782572" lon="8.454885285788762"><ele>2.0</ele><time>2026-03-30T17:43:38.999Z</time></trkpt><trkpt lat="39.04094119448375" lon="8.45477952697646"><ele>2.0</ele><time>2026-03-30T17:43:39.999Z</time></trkpt><trkpt lat="39.04084977335103" lon="8.454670092415153"><ele>2.0</ele><time>2026-03-30T17:43:40.999Z</time></trkpt><trkpt lat="39.0407886107989" lon="8.454562644726364"><ele>2.2</ele><time>2026-03-30T17:43:41.999Z</time></trkpt><trkpt lat="39.04076701185968" lon="8.454472193181369"><ele>2.4000000000000004</ele><time>2026-03-30T17:43:42.999Z</time></trkpt><trkpt lat="39.04080388356587" lon="8.454345873406304"><ele>2.5999999999999996</ele><time>2026-03-30T17:43:44.999Z</time></trkpt><trkpt lat="39.04070801908961" lon="8.454249896432007"><ele>2.8</ele><time>2026-03-30T17:43:46.999Z</time></trkpt><trkpt lat="39.04063230404135" lon="8.45427633775037"><ele>3.0</ele><time>2026-03-30T17:43:47.999Z</time></trkpt><trkpt lat="39.04055595519291" lon="8.454336386974806"><ele>3.2</ele><time>2026-03-30T17:43:48.999Z</time></trkpt><trkpt lat="39.04047816617975" lon="8.454390320859455"><ele>3.4</ele><time>2026-03-30T17:43:49.999Z</time></trkpt><trkpt lat="39.04037028933195" lon="8.454418057771438"><ele>3.6000000000000005</ele><time>2026-03-30T17:43:50.999Z</time></trkpt><trkpt lat="39.04025284057642" lon="8.454402491965531"><ele>3.8000000000000003</ele><time>2026-03-30T17:43:51.999Z</time></trkpt><trkpt lat="39.04013637066372" lon="8.454424646607036"><ele>4.0</ele><time>2026-03-30T17:43:52.999Z</time></trkpt><trkpt lat="39.04001438330962" lon="8.454438610979087"><ele>4.0</ele><time>2026-03-30T17:43:53.999Z</time></trkpt><trkpt lat="39.03988477921835" lon="8.454436672499623"><ele>4.0</ele><time>2026-03-30T17:43:54.999Z</time></trkpt><trkpt lat="39.03974345752484" lon="8.454441744938064"><ele>4.0</ele><time>2026-03-30T17:43:55.999Z</time></trkpt><trkpt lat="39.039608670929226" lon="8.454417253187115"><ele>4.0</ele><time>2026-03-30T17:43:56.999Z</time></trkpt><trkpt lat="39.03946795389219" lon="8.454390390054497"><ele>4.0</ele><time>2026-03-30T17:43:57.999Z</time></trkpt><trkpt lat="39.039322199984774" lon="8.454368848518314"><ele>4.0</ele><time>2026-03-30T17:43:58.999Z</time></trkpt><trkpt lat="39.03917232100832" lon="8.454355034810138"><ele>4.0</ele><time>2026-03-30T17:43:59.999Z</time></trkpt><trkpt lat="39.03902190534285" lon="8.454332906518683"><ele>4.0</ele><time>2026-03-30T17:44:00.999Z</time></trkpt><trkpt lat="39.03886819016" lon="8.45431269501548"><ele>4.0</ele><time>2026-03-30T17:44:01.999Z</time></trkpt><trkpt lat="39.038708943824055" lon="8.454290462870517"><ele>4.0</ele><time>2026-03-30T17:44:02.999Z</time></trkpt><trkpt lat="39.03855081351306" lon="8.454270668479323"><ele>4.0</ele><time>2026-03-30T17:44:03.999Z</time></trkpt><trkpt lat="39.03839032326265" lon="8.45424779279955"><ele>4.0</ele><time>2026-03-30T17:44:04.999Z</time></trkpt><trkpt lat="39.03823255937455" lon="8.454225194343449"><ele>4.0</ele><time>2026-03-30T17:44:05.999Z</time></trkpt><trkpt lat="39.03807370944259" lon="8.454202774076759"><ele>4.0</ele><time>2026-03-30T17:44:06.999Z</time></trkpt><trkpt lat="39.03791436589115" lon="8.454178744928287"><ele>4.0</ele><time>2026-03-30T17:44:07.999Z</time></trkpt><trkpt lat="39.03774946565129" lon="8.454166142307649"><ele>4.0</ele><time>2026-03-30T17:44:08.999Z</time></trkpt><trkpt lat="39.03757842849771" lon="8.454171347899871"><ele>4.0</ele><time>2026-03-30T17:44:09.999Z</time></trkpt><trkpt lat="39.037429591685424" lon="8.454181024802807"><ele>4.333333333333333</ele><time>2026-03-30T17:44:10.999Z</time></trkpt><trkpt lat="39.03727842805353" lon="8.454194198273594"><ele>4.666666666666667</ele><time>2026-03-30T17:44:11.999Z</time></trkpt><trkpt lat="39.03712143190272" lon="8.454212583524061"><ele>5.0</ele><time>2026-03-30T17:44:12.999Z</time></trkpt><trkpt lat="39.036938046529286" lon="8.454244647299209"><ele>5.0</ele><time>2026-03-30T17:44:13.999Z</time></trkpt><trkpt lat="39.036769077989" lon="8.454267310640487"><ele>5.0</ele><time>2026-03-30T17:44:14.999Z</time></trkpt><trkpt lat="39.03660054227839" lon="8.454289715219852"><ele>5.0</ele><time>2026-03-30T17:44:15.999Z</time></trkpt><trkpt lat="39.036429047519384" lon="8.454313458449905"><ele>4.333333333333334</ele><time>2026-03-30T17:44:16.999Z</time></trkpt><trkpt lat="39.03625371776739" lon="8.45433920480708"><ele>3.666666666666667</ele><time>2026-03-30T17:44:17.999Z</time></trkpt><trkpt lat="39.03607733131562" lon="8.454341520497339"><ele>3.0</ele><time>2026-03-30T17:44:18.999Z</time></trkpt><trkpt lat="39.035897461787364" lon="8.454364035691958"><ele>3.0</ele><time>2026-03-30T17:44:19.999Z</time></trkpt><trkpt lat="39.03571840936538" lon="8.454402841934945"><ele>3.0</ele><time>2026-03-30T17:44:21Z</time></trkpt><trkpt lat="39.03553842876488" lon="8.454393665871955"><ele>3.0</ele><time>2026-03-30T17:44:22Z</time></trkpt><trkpt lat="39.03536392853657" lon="8.454375242340545"><ele>3.0</ele><time>2026-03-30T17:44:23Z</time></trkpt><trkpt lat="39.0351926855662" lon="8.45433691684173"><ele>3.0</ele><time>2026-03-30T17:44:24Z</time></trkpt><trkpt lat="39.0350213294732" lon="8.45427514596127"><ele>3.0</ele><time>2026-03-30T17:44:25Z</time></trkpt><trkpt lat="39.03485706511588" lon="8.454189282799375"><ele>2.6666666666666665</ele><time>2026-03-30T17:44:26Z</time></trkpt><trkpt lat="39.03469635480109" lon="8.454082178531024"><ele>2.333333333333333</ele><time>2026-03-30T17:44:27Z</time></trkpt><trkpt lat="39.03453929951209" lon="8.45396444446016"><ele>2.0</ele><time>2026-03-30T17:44:28Z</time></trkpt><trkpt lat="39.03437900663917" lon="8.453846570358754"><ele>2.0</ele><time>2026-03-30T17:44:29Z</time></trkpt><trkpt lat="39.03421571206654" lon="8.453737715770778"><ele>2.0</ele><time>2026-03-30T17:44:30Z</time></trkpt><trkpt lat="39.03404542229467" lon="8.453638041435832"><ele>2.0</ele><time>2026-03-30T17:44:31Z</time></trkpt><trkpt lat="39.033868384165594" lon="8.453546728952798"><ele>2.0</ele><time>2026-03-30T17:44:32Z</time></trkpt><trkpt lat="39.033694245550336" lon="8.453461780455598"><ele>2.0</ele><time>2026-03-30T17:44:33Z</time></trkpt><trkpt lat="39.03351377982183" lon="8.45337828720652"><ele>2.0</ele><time>2026-03-30T17:44:34Z</time></trkpt><trkpt lat="39.033333111551656" lon="8.453297596942726"><ele>2.0</ele><time>2026-03-30T17:44:35Z</time></trkpt><trkpt lat="39.03315722038462" lon="8.453218534481111"><ele>2.0</ele><time>2026-03-30T17:44:36Z</time></trkpt><trkpt lat="39.03298509856896" lon="8.453139502416027"><ele>2.0</ele><time>2026-03-30T17:44:37Z</time></trkpt><trkpt lat="39.032803183621496" lon="8.453055972504004"><ele>2.0</ele><time>2026-03-30T17:44:38Z</time></trkpt><trkpt lat="39.03262330562767" lon="8.452976221269699"><ele>2.0</ele><time>2026-03-30T17:44:39Z</time></trkpt><trkpt lat="39.03244337225124" lon="8.452898711622941"><ele>2.0</ele><time>2026-03-30T17:44:40Z</time></trkpt><trkpt lat="39.03226135399486" lon="8.452818141827358"><ele>1.6666666666666665</ele><time>2026-03-30T17:44:41Z</time></trkpt><trkpt lat="39.03207610232983" lon="8.452752959023076"><ele>1.3333333333333333</ele><time>2026-03-30T17:44:42Z</time></trkpt><trkpt lat="39.03190294972633" lon="8.452659218663943"><ele>1.0</ele><time>2026-03-30T17:44:43Z</time></trkpt><trkpt lat="39.03173641442466" lon="8.452533598698311"><ele>0.3333333333333333</ele><time>2026-03-30T17:44:44Z</time></trkpt><trkpt lat="39.03157362864696" lon="8.452395655950236"><ele>-0.3333333333333333</ele><time>2026-03-30T17:44:45Z</time></trkpt><trkpt lat="39.0314174321978" lon="8.452250628605414"><ele>-1.0</ele><time>2026-03-30T17:44:46Z</time></trkpt><trkpt lat="39.03125149507261" lon="8.452108988460243"><ele>0.0</ele><time>2026-03-30T17:44:47Z</time></trkpt><trkpt lat="39.031073888590726" lon="8.452029446573203"><ele>1.0</ele><time>2026-03-30T17:44:48Z</time></trkpt><trkpt lat="39.03090345589228" lon="8.451951918071103"><ele>2.0</ele><time>2026-03-30T17:44:49Z</time></trkpt><trkpt lat="39.03073687500608" lon="8.451834969831422"><ele>2.0</ele><time>2026-03-30T17:44:50Z</time></trkpt><trkpt lat="39.030564627223804" lon="8.451734670226468"><ele>2.0</ele><time>2026-03-30T17:44:51Z</time></trkpt><trkpt lat="39.030388887528275" lon="8.451632400914132"><ele>2.0</ele><time>2026-03-30T17:44:52Z</time></trkpt><trkpt lat="39.03020838285505" lon="8.451549948389179"><ele>2.0</ele><time>2026-03-30T17:44:53Z</time></trkpt><trkpt lat="39.03004000583303" lon="8.451446910230533"><ele>2.0</ele><time>2026-03-30T17:44:54Z</time></trkpt><trkpt lat="39.0298690479994" lon="8.451347927638432"><ele>2.0</ele><time>2026-03-30T17:44:55Z</time></trkpt><trkpt lat="39.02970586293204" lon="8.451229474361742"><ele>1.6666666666666665</ele><time>2026-03-30T17:44:56Z</time></trkpt><trkpt lat="39.02953372252496" lon="8.451124587906445"><ele>1.3333333333333333</ele><time>2026-03-30T17:44:57Z</time></trkpt><trkpt lat="39.02936202092789" lon="8.45101989065521"><ele>1.0</ele><time>2026-03-30T17:44:58Z</time></trkpt><trkpt lat="39.029185562248074" lon="8.450915359446704"><ele>1.0</ele><time>2026-03-30T17:44:59Z</time></trkpt><trkpt lat="39.02900787405159" lon="8.450811531448982"><ele>1.0</ele><time>2026-03-30T17:45:00Z</time></trkpt><trkpt lat="39.028836257573886" lon="8.450712174533795"><ele>1.0</ele><time>2026-03-30T17:45:01Z</time></trkpt><trkpt lat="39.02866316532396" lon="8.450611963229232"><ele>1.0</ele><time>2026-03-30T17:45:02Z</time></trkpt><trkpt lat="39.02848835073224" lon="8.450508304182524"><ele>1.0</ele><time>2026-03-30T17:45:03Z</time></trkpt><trkpt lat="39.028314575571436" lon="8.45040353569228"><ele>1.0</ele><time>2026-03-30T17:45:04Z</time></trkpt><trkpt lat="39.02813953091874" lon="8.450300660731632"><ele>1.0</ele><time>2026-03-30T17:45:05Z</time></trkpt><trkpt lat="39.02796205885215" lon="8.450197603853564"><ele>1.0</ele><time>2026-03-30T17:45:06Z</time></trkpt><trkpt lat="39.02778416892945" lon="8.450094305660556"><ele>1.0</ele><time>2026-03-30T17:45:07Z</time></trkpt><trkpt lat="39.02760327992088" lon="8.449986899835515"><ele>1.0</ele><time>2026-03-30T17:45:08Z</time></trkpt><trkpt lat="39.02742437436004" lon="8.449878992383972"><ele>1.0</ele><time>2026-03-30T17:45:09Z</time></trkpt><trkpt lat="39.027245066511156" lon="8.449768798553675"><ele>1.0</ele><time>2026-03-30T17:45:10Z</time></trkpt><trkpt lat="39.02706106436928" lon="8.449657011607234"><ele>1.0</ele><time>2026-03-30T17:45:11Z</time></trkpt><trkpt lat="39.02687941942195" lon="8.449544313593535"><ele>1.0</ele><time>2026-03-30T17:45:12Z</time></trkpt><trkpt lat="39.02669775251529" lon="8.449419770727374"><ele>1.0</ele><time>2026-03-30T17:45:13Z</time></trkpt><trkpt lat="39.026516760041915" lon="8.449292601006833"><ele>1.0</ele><time>2026-03-30T17:45:14Z</time></trkpt><trkpt lat="39.026333524510534" lon="8.449163151200539"><ele>1.0</ele><time>2026-03-30T17:45:15Z</time></trkpt><trkpt lat="39.02615058987939" lon="8.449033913971784"><ele>1.0</ele><time>2026-03-30T17:45:16Z</time></trkpt><trkpt lat="39.02596467804803" lon="8.448903113930426"><ele>1.6666666666666665</ele><time>2026-03-30T17:45:17Z</time></trkpt><trkpt lat="39.02578531907956" lon="8.448776814293092"><ele>2.3333333333333335</ele><time>2026-03-30T17:45:18Z</time></trkpt><trkpt lat="39.025602661683905" lon="8.44864545248622"><ele>3.0</ele><time>2026-03-30T17:45:19Z</time></trkpt><trkpt lat="39.025420614293544" lon="8.448514529367321"><ele>3.0</ele><time>2026-03-30T17:45:20Z</time></trkpt><trkpt lat="39.02523932912869" lon="8.448385239397156"><ele>3.0</ele><time>2026-03-30T17:45:21Z</time></trkpt><trkpt lat="39.02505468570309" lon="8.448254175072076"><ele>3.0</ele><time>2026-03-30T17:45:22Z</time></trkpt><trkpt lat="39.02486839443121" lon="8.448121941060956"><ele>2.6666666666666665</ele><time>2026-03-30T17:45:23Z</time></trkpt><trkpt lat="39.024693165812245" lon="8.447997559576208"><ele>2.333333333333333</ele><time>2026-03-30T17:45:24Z</time></trkpt><trkpt lat="39.02452445290938" lon="8.447877803123594"><ele>2.0</ele><time>2026-03-30T17:45:25Z</time></trkpt><trkpt lat="39.024357626731096" lon="8.447757906018994"><ele>3.0</ele><time>2026-03-30T17:45:26Z</time></trkpt><trkpt lat="39.0241913788226" lon="8.447637801882706"><ele>4.0</ele><time>2026-03-30T17:45:27Z</time></trkpt><trkpt lat="39.02402071903789" lon="8.447517675910019"><ele>5.0</ele><time>2026-03-30T17:45:28Z</time></trkpt><trkpt lat="39.02384757669178" lon="8.447412785988273"><ele>5.0</ele><time>2026-03-30T17:45:28.999Z</time></trkpt><trkpt lat="39.023672768211505" lon="8.44732484755226"><ele>5.0</ele><time>2026-03-30T17:45:29.999Z</time></trkpt><trkpt lat="39.02348848257574" lon="8.447285403096862"><ele>5.0</ele><time>2026-03-30T17:45:30.999Z</time></trkpt><trkpt lat="39.023301302290726" lon="8.447247697921588"><ele>5.666666666666667</ele><time>2026-03-30T17:45:31.999Z</time></trkpt><trkpt lat="39.02311209840403" lon="8.447219374934289"><ele>6.333333333333334</ele><time>2026-03-30T17:45:32.999Z</time></trkpt><trkpt lat="39.02292241267467" lon="8.447191007869579"><ele>7.0</ele><time>2026-03-30T17:45:33.999Z</time></trkpt><trkpt lat="39.0227276993324" lon="8.447138638569335"><ele>8.0</ele><time>2026-03-30T17:45:34.999Z</time></trkpt><trkpt lat="39.02253321361829" lon="8.447112812734884"><ele>9.0</ele><time>2026-03-30T17:45:35.999Z</time></trkpt><trkpt lat="39.02233669753873" lon="8.447087566691723"><ele>10.0</ele><time>2026-03-30T17:45:36.999Z</time></trkpt><trkpt lat="39.022146454131445" lon="8.447063161503726"><ele>11.0</ele><time>2026-03-30T17:45:37.999Z</time></trkpt><trkpt lat="39.02195448827738" lon="8.447038535346113"><ele>12.0</ele><time>2026-03-30T17:45:38.999Z</time></trkpt><trkpt lat="39.02176666283769" lon="8.447014440340245"><ele>13.0</ele><time>2026-03-30T17:45:39.999Z</time></trkpt><trkpt lat="39.02157766615024" lon="8.44699019957427"><ele>14.333333333333332</ele><time>2026-03-30T17:45:40.999Z</time></trkpt><trkpt lat="39.02139056366636" lon="8.446966219535147"><ele>15.666666666666668</ele><time>2026-03-30T17:45:41.999Z</time></trkpt><trkpt lat="39.021204255559475" lon="8.446942341315475"><ele>17.0</ele><time>2026-03-30T17:45:42.999Z</time></trkpt><trkpt lat="39.02101933600029" lon="8.446916549324756"><ele>17.0</ele><time>2026-03-30T17:45:43.999Z</time></trkpt><trkpt lat="39.02083624132937" lon="8.446889584042221"><ele>17.0</ele><time>2026-03-30T17:45:44.999Z</time></trkpt><trkpt lat="39.02065857743184" lon="8.446841601825884"><ele>17.0</ele><time>2026-03-30T17:45:45.999Z</time></trkpt><trkpt lat="39.020489107735095" lon="8.44676852026035"><ele>17.333333333333336</ele><time>2026-03-30T17:45:46.999Z</time></trkpt><trkpt lat="39.02031864392189" lon="8.446684147059948"><ele>17.666666666666668</ele><time>2026-03-30T17:45:47.999Z</time></trkpt><trkpt lat="39.02014728906134" lon="8.446595387281086"><ele>18.0</ele><time>2026-03-30T17:45:48.999Z</time></trkpt><trkpt lat="39.019971028187236" lon="8.446517885291177"><ele>19.666666666666668</ele><time>2026-03-30T17:45:49.999Z</time></trkpt><trkpt lat="39.01979926364485" lon="8.446424674772066"><ele>21.333333333333336</ele><time>2026-03-30T17:45:50.999Z</time></trkpt><trkpt lat="39.0196212948443" lon="8.44634401201055"><ele>23.0</ele><time>2026-03-30T17:45:51.999Z</time></trkpt><trkpt lat="39.01944043549174" lon="8.44625719258373"><ele>23.0</ele><time>2026-03-30T17:45:52.999Z</time></trkpt><trkpt lat="39.01926724174979" lon="8.446160087151883"><ele>23.0</ele><time>2026-03-30T17:45:53.999Z</time></trkpt><trkpt lat="39.01908770586709" lon="8.446065234206555"><ele>23.0</ele><time>2026-03-30T17:45:54.999Z</time></trkpt><trkpt lat="39.018907146406086" lon="8.445974109956126"><ele>24.0</ele><time>2026-03-30T17:45:55.999Z</time></trkpt><trkpt lat="39.01872683677469" lon="8.445882973723274"><ele>25.0</ele><time>2026-03-30T17:45:56.999Z</time></trkpt><trkpt lat="39.0185404431215" lon="8.445801389463696"><ele>26.0</ele><time>2026-03-30T17:45:57.999Z</time></trkpt><trkpt lat="39.01834825585289" lon="8.445756096711868"><ele>25.333333333333332</ele><time>2026-03-30T17:45:58.999Z</time></trkpt><trkpt lat="39.01815373220754" lon="8.445756911275092"><ele>24.666666666666664</ele><time>2026-03-30T17:45:59.999Z</time></trkpt><trkpt lat="39.01796078656742" lon="8.44579030247808"><ele>24.0</ele><time>2026-03-30T17:46:00.999Z</time></trkpt><trkpt lat="39.01777528869615" lon="8.445833000326028"><ele>24.0</ele><time>2026-03-30T17:46:01.999Z</time></trkpt><trkpt lat="39.017601289293566" lon="8.445834163818835"><ele>24.0</ele><time>2026-03-30T17:46:02.999Z</time></trkpt><trkpt lat="39.0174323099061" lon="8.445855526315778"><ele>24.0</ele><time>2026-03-30T17:46:03.999Z</time></trkpt><trkpt lat="39.017270467508" lon="8.445869043206198"><ele>23.333333333333332</ele><time>2026-03-30T17:46:04.999Z</time></trkpt><trkpt lat="39.01711045819144" lon="8.445921332923024"><ele>22.666666666666664</ele><time>2026-03-30T17:46:05.999Z</time></trkpt><trkpt lat="39.01695615094104" lon="8.44601315023874"><ele>22.0</ele><time>2026-03-30T17:46:06.999Z</time></trkpt><trkpt lat="39.016810937930344" lon="8.446132880928154"><ele>22.0</ele><time>2026-03-30T17:46:07.999Z</time></trkpt><trkpt lat="39.01667409282819" lon="8.446283806056957"><ele>22.0</ele><time>2026-03-30T17:46:08.999Z</time></trkpt><trkpt lat="39.01654899694059" lon="8.446449073304933"><ele>22.0</ele><time>2026-03-30T17:46:09.999Z</time></trkpt><trkpt lat="39.01642993307278" lon="8.446626937010665"><ele>21.333333333333332</ele><time>2026-03-30T17:46:10.999Z</time></trkpt><trkpt lat="39.01628992087841" lon="8.446786803958416"><ele>20.666666666666668</ele><time>2026-03-30T17:46:11.999Z</time></trkpt><trkpt lat="39.01616454818165" lon="8.446957892968618"><ele>20.0</ele><time>2026-03-30T17:46:12.999Z</time></trkpt><trkpt lat="39.01603703410679" lon="8.447131394503206"><ele>19.0</ele><time>2026-03-30T17:46:13.999Z</time></trkpt><trkpt lat="39.01591987454928" lon="8.447319421360021"><ele>18.0</ele><time>2026-03-30T17:46:14.999Z</time></trkpt><trkpt lat="39.015793561486525" lon="8.447487932881153"><ele>17.0</ele><time>2026-03-30T17:46:15.999Z</time></trkpt><trkpt lat="39.015658692772334" lon="8.447643681356984"><ele>20.666666666666668</ele><time>2026-03-30T17:46:16.999Z</time></trkpt><trkpt lat="39.015552924460955" lon="8.44782709622738"><ele>24.333333333333336</ele><time>2026-03-30T17:46:17.999Z</time></trkpt><trkpt lat="39.01543572451241" lon="8.448000440372498"><ele>28.0</ele><time>2026-03-30T17:46:18.999Z</time></trkpt><trkpt lat="39.01532398207381" lon="8.448185221832441"><ele>28.0</ele><time>2026-03-30T17:46:19.999Z</time></trkpt><trkpt lat="39.015217992385146" lon="8.448382696635532"><ele>28.0</ele><time>2026-03-30T17:46:20.999Z</time></trkpt><trkpt lat="39.01512169364" lon="8.448567896388365"><ele>28.0</ele><time>2026-03-30T17:46:21.999Z</time></trkpt><trkpt lat="39.0150153800333" lon="8.448727153119208"><ele>30.75</ele><time>2026-03-30T17:46:22.999Z</time></trkpt><trkpt lat="39.01493699326304" lon="8.4488988019424"><ele>33.5</ele><time>2026-03-30T17:46:23.999Z</time></trkpt><trkpt lat="39.0148506757765" lon="8.449042455667366"><ele>36.25</ele><time>2026-03-30T17:46:24.999Z</time></trkpt><trkpt lat="39.014768279745454" lon="8.449172936578888"><ele>39.0</ele><time>2026-03-30T17:46:25.999Z</time></trkpt><trkpt lat="39.01466735041004" lon="8.449268968246113"><ele>39.0</ele><time>2026-03-30T17:46:27Z</time></trkpt><trkpt lat="39.01457111714208" lon="8.449372006826046"><ele>39.0</ele><time>2026-03-30T17:46:28Z</time></trkpt><trkpt lat="39.01444836814245" lon="8.449426570452287"><ele>39.0</ele><time>2026-03-30T17:46:29Z</time></trkpt><trkpt lat="39.01432876371548" lon="8.44949967637691"><ele>39.0</ele><time>2026-03-30T17:46:30Z</time></trkpt><trkpt lat="39.01419798147881" lon="8.449537550254757"><ele>39.5</ele><time>2026-03-30T17:46:31Z</time></trkpt><trkpt lat="39.01406422732016" lon="8.449565698441253"><ele>40.0</ele><time>2026-03-30T17:46:32Z</time></trkpt><trkpt lat="39.01392663345139" lon="8.449574709443972"><ele>40.5</ele><time>2026-03-30T17:46:33Z</time></trkpt><trkpt lat="39.01379196106302" lon="8.449564250975095"><ele>41.0</ele><time>2026-03-30T17:46:34Z</time></trkpt><trkpt lat="39.01365552751681" lon="8.449544757181194"><ele>41.0</ele><time>2026-03-30T17:46:35Z</time></trkpt><trkpt lat="39.013517530739904" lon="8.449522895694923"><ele>41.0</ele><time>2026-03-30T17:46:36Z</time></trkpt><trkpt lat="39.01337702565075" lon="8.44949220427325"><ele>41.0</ele><time>2026-03-30T17:46:37Z</time></trkpt><trkpt lat="39.01324343859282" lon="8.449429036238113"><ele>41.0</ele><time>2026-03-30T17:46:38Z</time></trkpt><trkpt lat="39.013106328795416" lon="8.449375550959164"><ele>39.75</ele><time>2026-03-30T17:46:39Z</time></trkpt><trkpt lat="39.012975512999496" lon="8.449289453565408"><ele>38.5</ele><time>2026-03-30T17:46:40Z</time></trkpt><trkpt lat="39.01284491520562" lon="8.44919862144224"><ele>37.25</ele><time>2026-03-30T17:46:41Z</time></trkpt><trkpt lat="39.01271226972094" lon="8.449107614108867"><ele>36.0</ele><time>2026-03-30T17:46:42Z</time></trkpt><trkpt lat="39.01258366802141" lon="8.449001537909647"><ele>35.0</ele><time>2026-03-30T17:46:43Z</time></trkpt><trkpt lat="39.012467899053085" lon="8.448874975465047"><ele>34.0</ele><time>2026-03-30T17:46:44Z</time></trkpt><trkpt lat="39.01237002506403" lon="8.448722089149378"><ele>33.0</ele><time>2026-03-30T17:46:45Z</time></trkpt><trkpt lat="39.01228842420093" lon="8.448559087733694"><ele>33.0</ele><time>2026-03-30T17:46:46Z</time></trkpt><trkpt lat="39.01221989958914" lon="8.44838974408682"><ele>33.0</ele><time>2026-03-30T17:46:47Z</time></trkpt><trkpt lat="39.01215120737878" lon="8.448222504322029"><ele>33.0</ele><time>2026-03-30T17:46:48Z</time></trkpt><trkpt lat="39.01208701683428" lon="8.448064918456234"><ele>33.0</ele><time>2026-03-30T17:46:49Z</time></trkpt><trkpt lat="39.01203977252277" lon="8.447893858628904"><ele>34.0</ele><time>2026-03-30T17:46:50Z</time></trkpt><trkpt lat="39.01201547768003" lon="8.447714119454186"><ele>35.0</ele><time>2026-03-30T17:46:51Z</time></trkpt><trkpt lat="39.01199682632816" lon="8.447543341351725"><ele>36.0</ele><time>2026-03-30T17:46:52Z</time></trkpt><trkpt lat="39.011995835810104" lon="8.447362664402082"><ele>37.0</ele><time>2026-03-30T17:46:53Z</time></trkpt><trkpt lat="39.011993541806895" lon="8.447175015710593"><ele>38.0</ele><time>2026-03-30T17:46:54Z</time></trkpt><trkpt lat="39.01199385626313" lon="8.44698779360457"><ele>39.0</ele><time>2026-03-30T17:46:55Z</time></trkpt><trkpt lat="39.012001068309154" lon="8.4467966072623"><ele>40.0</ele><time>2026-03-30T17:46:56Z</time></trkpt><trkpt lat="39.012024240431316" lon="8.446625804586755"><ele>41.0</ele><time>2026-03-30T17:46:57Z</time></trkpt><trkpt lat="39.01204392479079" lon="8.446443674704481"><ele>41.75</ele><time>2026-03-30T17:46:58Z</time></trkpt><trkpt lat="39.012086082871825" lon="8.446280791484421"><ele>42.5</ele><time>2026-03-30T17:46:59Z</time></trkpt><trkpt lat="39.01212534867156" lon="8.446135830369853"><ele>43.25</ele><time>2026-03-30T17:47:00Z</time></trkpt><trkpt lat="39.01215506937861" lon="8.446005828145605"><ele>44.0</ele><time>2026-03-30T17:47:01Z</time></trkpt><trkpt lat="39.01217569224605" lon="8.445885256044614"><ele>44.0</ele><time>2026-03-30T17:47:02Z</time></trkpt><trkpt lat="39.01218425608034" lon="8.44577909883286"><ele>44.0</ele><time>2026-03-30T17:47:03Z</time></trkpt><trkpt lat="39.01219782432193" lon="8.445685769742706"><ele>44.0</ele><time>2026-03-30T17:47:04Z</time></trkpt><trkpt lat="39.012205386680996" lon="8.445569556577633"><ele>44.0</ele><time>2026-03-30T17:47:06Z</time></trkpt><trkpt lat="39.0122098723641" lon="8.445471688888281"><ele>44.0</ele><time>2026-03-30T17:47:09Z</time></trkpt><trkpt lat="39.012153614191305" lon="8.445405411313846"><ele>44.0</ele><time>2026-03-30T17:49:05Z</time></trkpt><trkpt lat="39.012120351941384" lon="8.445295667401107"><ele>45.0</ele><time>2026-03-30T17:49:07Z</time></trkpt><trkpt lat="39.01207287650128" lon="8.445161090642374"><ele>46.0</ele><time>2026-03-30T17:49:09Z</time></trkpt><trkpt lat="39.0120427762882" lon="8.445074092042653"><ele>47.0</ele><time>2026-03-30T17:49:10Z</time></trkpt><trkpt lat="39.01201717621733" lon="8.444985367626694"><ele>48.0</ele><time>2026-03-30T17:49:11Z</time></trkpt><trkpt lat="39.01199394029395" lon="8.444909940889044"><ele>49.00000000000001</ele><time>2026-03-30T17:49:12Z</time></trkpt><trkpt lat="39.01196814076595" lon="8.44482752244017"><ele>50.0</ele><time>2026-03-30T17:49:13Z</time></trkpt><trkpt lat="39.01193820093617" lon="8.44472760239212"><ele>51.6</ele><time>2026-03-30T17:49:14Z</time></trkpt><trkpt lat="39.011907052500355" lon="8.444617652217921"><ele>53.2</ele><time>2026-03-30T17:49:15Z</time></trkpt><trkpt lat="39.01187483480442" lon="8.444510389334276"><ele>54.8</ele><time>2026-03-30T17:49:16Z</time></trkpt><trkpt lat="39.01184467576551" lon="8.444400551275091"><ele>56.4</ele><time>2026-03-30T17:49:17Z</time></trkpt><trkpt lat="39.01181577376063" lon="8.444281660227366"><ele>58.0</ele><time>2026-03-30T17:49:18Z</time></trkpt><trkpt lat="39.0117940516303" lon="8.444170306132191"><ele>57.99999999999999</ele><time>2026-03-30T17:49:19Z</time></trkpt><trkpt lat="39.01178344821192" lon="8.444064390199737"><ele>58.0</ele><time>2026-03-30T17:49:20Z</time></trkpt><trkpt lat="39.01178681194461" lon="8.443959526715489"><ele>58.0</ele><time>2026-03-30T17:49:21Z</time></trkpt><trkpt lat="39.01179941265154" lon="8.443848691805465"><ele>58.0</ele><time>2026-03-30T17:49:22Z</time></trkpt><trkpt lat="39.01181977253402" lon="8.443740901330349"><ele>57.99999999999999</ele><time>2026-03-30T17:49:23Z</time></trkpt><trkpt lat="39.01184741436574" lon="8.443633488092022"><ele>58.0</ele><time>2026-03-30T17:49:24Z</time></trkpt><trkpt lat="39.01188454543055" lon="8.443528431118517"><ele>59.49999999999999</ele><time>2026-03-30T17:49:25Z</time></trkpt><trkpt lat="39.01192548785911" lon="8.443435463520949"><ele>61.0</ele><time>2026-03-30T17:49:26Z</time></trkpt><trkpt lat="39.011966716711534" lon="8.443358382679945"><ele>62.5</ele><time>2026-03-30T17:49:27Z</time></trkpt><trkpt lat="39.012005187696595" lon="8.443271859096956"><ele>64.0</ele><time>2026-03-30T17:49:28Z</time></trkpt><trkpt lat="39.012040010481435" lon="8.443180029159354"><ele>65.5</ele><time>2026-03-30T17:49:29Z</time></trkpt><trkpt lat="39.01206766298569" lon="8.443069748562639"><ele>67.0</ele><time>2026-03-30T17:49:30Z</time></trkpt><trkpt lat="39.0120839417253" lon="8.44293540254692"><ele>68.0</ele><time>2026-03-30T17:49:31Z</time></trkpt><trkpt lat="39.01208532199181" lon="8.442792368764946"><ele>69.0</ele><time>2026-03-30T17:49:32Z</time></trkpt><trkpt lat="39.012069366179006" lon="8.442660638465526"><ele>70.0</ele><time>2026-03-30T17:49:33Z</time></trkpt><trkpt lat="39.01204095440578" lon="8.442527464199166"><ele>71.0</ele><time>2026-03-30T17:49:34Z</time></trkpt><trkpt lat="39.011992792378926" lon="8.442403286973782"><ele>72.0</ele><time>2026-03-30T17:49:35Z</time></trkpt><trkpt lat="39.011934100377836" lon="8.44228606731491"><ele>72.0</ele><time>2026-03-30T17:49:36Z</time></trkpt><trkpt lat="39.01187858964003" lon="8.442165991613592"><ele>72.0</ele><time>2026-03-30T17:49:37Z</time></trkpt><trkpt lat="39.01182717625644" lon="8.442040079009171"><ele>72.0</ele><time>2026-03-30T17:49:38Z</time></trkpt><trkpt lat="39.01177512148179" lon="8.441913851325397"><ele>72.0</ele><time>2026-03-30T17:49:39Z</time></trkpt><trkpt lat="39.01172398200109" lon="8.441789987576328"><ele>72.0</ele><time>2026-03-30T17:49:40Z</time></trkpt><trkpt lat="39.011670390730835" lon="8.441662269514971"><ele>72.0</ele><time>2026-03-30T17:49:40.999Z</time></trkpt><trkpt lat="39.01161575693776" lon="8.441535356058099"><ele>88.0</ele><time>2026-03-30T17:49:41.999Z</time></trkpt></trkseg></trk></gpx>